<?xml version="1.0" encoding="utf-8" standalone="yes"?>
<gpx version="1.1" creator="Locus Map, Android"
 xmlns="http://www.topografix.com/GPX/1/1"
 xmlns:xsi="http://www.w3.org/2001/XMLSchema-instance"
 xsi:schemaLocation="http://www.topografix.com/GPX/1/1 http://www.topografix.com/GPX/1/1/gpx.xsd"
 xmlns:gpxx="http://www.garmin.com/xmlschemas/GpxExtensions/v3"
 xmlns:gpxtrkx="http://www.garmin.com/xmlschemas/TrackStatsExtension/v1"
 xmlns:gpxtpx="http://www.garmin.com/xmlschemas/TrackPointExtension/v2"
 xmlns:locus="http://www.locusmap.eu">
	<metadata>
		<desc>File with points/tracks from Locus Map Classic/3.70.15</desc>
		<time>2025-04-21T18:53:45.957Z</time>
	</metadata>
<trk>
<name>Ristoro Malga Magnolta - Rifugio Valtellina</name>
	<extensions>
		<line xmlns="http://www.topografix.com/GPX/gpx_style/0/2">
			<color>0000FF</color>
			<opacity>0.59</opacity>
			<width>6.0</width>
			<extensions>
				<locus:lsColorBase>#960000FF</locus:lsColorBase>
				<locus:lsWidth>6.0</locus:lsWidth>
				<locus:lsUnits>PIXELS</locus:lsUnits>
			</extensions>
		</line>
		<locus:activity>hiking</locus:activity>
	</extensions>
<trkseg>
<trkpt lat="46.1497270" lon="10.1460490">
	<ele>1196.40</ele>
	<time>2024-09-06T06:01:36.000Z</time>
</trkpt>
<trkpt lat="46.1497210" lon="10.1460470">
	<ele>1196.40</ele>
	<time>2024-09-06T06:01:37.000Z</time>
</trkpt>
<trkpt lat="46.1497140" lon="10.1460430">
	<ele>1196.40</ele>
	<time>2024-09-06T06:01:38.000Z</time>
</trkpt>
<trkpt lat="46.1497060" lon="10.1460400">
	<ele>1196.40</ele>
	<time>2024-09-06T06:01:39.000Z</time>
</trkpt>
<trkpt lat="46.1496950" lon="10.1460400">
	<ele>1196.40</ele>
	<time>2024-09-06T06:01:40.000Z</time>
</trkpt>
<trkpt lat="46.1496880" lon="10.1460430">
	<ele>1196.40</ele>
	<time>2024-09-06T06:01:41.000Z</time>
</trkpt>
<trkpt lat="46.1496780" lon="10.1460500">
	<ele>1197.80</ele>
	<time>2024-09-06T06:01:42.000Z</time>
</trkpt>
<trkpt lat="46.1496730" lon="10.1460530">
	<ele>1198.40</ele>
	<time>2024-09-06T06:01:43.000Z</time>
</trkpt>
<trkpt lat="46.1496680" lon="10.1460570">
	<ele>1199.00</ele>
	<time>2024-09-06T06:01:44.000Z</time>
</trkpt>
<trkpt lat="46.1496600" lon="10.1460550">
	<ele>1199.40</ele>
	<time>2024-09-06T06:01:45.000Z</time>
</trkpt>
<trkpt lat="46.1496540" lon="10.1460610">
	<ele>1199.60</ele>
	<time>2024-09-06T06:01:46.000Z</time>
</trkpt>
<trkpt lat="46.1496480" lon="10.1460690">
	<ele>1199.80</ele>
	<time>2024-09-06T06:01:47.000Z</time>
</trkpt>
<trkpt lat="46.1496440" lon="10.1460770">
	<ele>1199.80</ele>
	<time>2024-09-06T06:01:48.000Z</time>
</trkpt>
<trkpt lat="46.1496470" lon="10.1460880">
	<ele>1200.00</ele>
	<time>2024-09-06T06:01:49.000Z</time>
</trkpt>
<trkpt lat="46.1496530" lon="10.1460990">
	<ele>1200.00</ele>
	<time>2024-09-06T06:01:50.000Z</time>
</trkpt>
<trkpt lat="46.1496580" lon="10.1461070">
	<ele>1200.20</ele>
	<time>2024-09-06T06:01:51.000Z</time>
</trkpt>
<trkpt lat="46.1496610" lon="10.1461200">
	<ele>1200.40</ele>
	<time>2024-09-06T06:01:52.000Z</time>
</trkpt>
<trkpt lat="46.1496620" lon="10.1461450">
	<ele>1200.60</ele>
	<time>2024-09-06T06:01:53.000Z</time>
</trkpt>
<trkpt lat="46.1496660" lon="10.1461690">
	<ele>1200.80</ele>
	<time>2024-09-06T06:01:54.000Z</time>
</trkpt>
<trkpt lat="46.1496730" lon="10.1461860">
	<ele>1200.80</ele>
	<time>2024-09-06T06:01:55.000Z</time>
</trkpt>
<trkpt lat="46.1496800" lon="10.1462010">
	<ele>1201.00</ele>
	<time>2024-09-06T06:01:56.000Z</time>
</trkpt>
<trkpt lat="46.1496860" lon="10.1462120">
	<ele>1201.20</ele>
	<time>2024-09-06T06:01:57.000Z</time>
</trkpt>
<trkpt lat="46.1496900" lon="10.1462260">
	<ele>1201.40</ele>
	<time>2024-09-06T06:01:58.000Z</time>
</trkpt>
<trkpt lat="46.1496930" lon="10.1462400">
	<ele>1201.60</ele>
	<time>2024-09-06T06:01:59.000Z</time>
</trkpt>
<trkpt lat="46.1496950" lon="10.1462580">
	<ele>1201.60</ele>
	<time>2024-09-06T06:02:00.000Z</time>
</trkpt>
<trkpt lat="46.1496960" lon="10.1462760">
	<ele>1201.60</ele>
	<time>2024-09-06T06:02:01.000Z</time>
</trkpt>
<trkpt lat="46.1497000" lon="10.1462930">
	<ele>1201.80</ele>
	<time>2024-09-06T06:02:02.000Z</time>
</trkpt>
<trkpt lat="46.1497010" lon="10.1463110">
	<ele>1201.80</ele>
	<time>2024-09-06T06:02:03.000Z</time>
</trkpt>
<trkpt lat="46.1497030" lon="10.1463300">
	<ele>1202.00</ele>
	<time>2024-09-06T06:02:04.000Z</time>
</trkpt>
<trkpt lat="46.1497040" lon="10.1463470">
	<ele>1202.00</ele>
	<time>2024-09-06T06:02:05.000Z</time>
</trkpt>
<trkpt lat="46.1497070" lon="10.1463660">
	<ele>1202.00</ele>
	<time>2024-09-06T06:02:06.000Z</time>
</trkpt>
<trkpt lat="46.1497090" lon="10.1463830">
	<ele>1202.00</ele>
	<time>2024-09-06T06:02:07.000Z</time>
</trkpt>
<trkpt lat="46.1497090" lon="10.1463990">
	<ele>1202.00</ele>
	<time>2024-09-06T06:02:08.000Z</time>
</trkpt>
<trkpt lat="46.1497070" lon="10.1464150">
	<ele>1202.00</ele>
	<time>2024-09-06T06:02:09.000Z</time>
</trkpt>
<trkpt lat="46.1497050" lon="10.1464310">
	<ele>1202.00</ele>
	<time>2024-09-06T06:02:10.000Z</time>
</trkpt>
<trkpt lat="46.1497050" lon="10.1464470">
	<ele>1202.00</ele>
	<time>2024-09-06T06:02:11.000Z</time>
</trkpt>
<trkpt lat="46.1497060" lon="10.1464680">
	<ele>1202.00</ele>
	<time>2024-09-06T06:02:12.000Z</time>
</trkpt>
<trkpt lat="46.1497050" lon="10.1464900">
	<ele>1202.00</ele>
	<time>2024-09-06T06:02:13.000Z</time>
</trkpt>
<trkpt lat="46.1497040" lon="10.1465100">
	<ele>1202.00</ele>
	<time>2024-09-06T06:02:14.000Z</time>
</trkpt>
<trkpt lat="46.1497000" lon="10.1465270">
	<ele>1202.00</ele>
	<time>2024-09-06T06:02:15.000Z</time>
</trkpt>
<trkpt lat="46.1496960" lon="10.1465420">
	<ele>1202.00</ele>
	<time>2024-09-06T06:02:16.000Z</time>
</trkpt>
<trkpt lat="46.1496940" lon="10.1465580">
	<ele>1202.00</ele>
	<time>2024-09-06T06:02:17.000Z</time>
</trkpt>
<trkpt lat="46.1496930" lon="10.1465790">
	<ele>1202.00</ele>
	<time>2024-09-06T06:02:18.000Z</time>
</trkpt>
<trkpt lat="46.1496900" lon="10.1465960">
	<ele>1202.00</ele>
	<time>2024-09-06T06:02:19.000Z</time>
</trkpt>
<trkpt lat="46.1496920" lon="10.1466050">
	<ele>1201.80</ele>
	<time>2024-09-06T06:02:20.000Z</time>
</trkpt>
<trkpt lat="46.1496940" lon="10.1466140">
	<ele>1202.00</ele>
	<time>2024-09-06T06:02:21.000Z</time>
</trkpt>
<trkpt lat="46.1496920" lon="10.1466330">
	<ele>1202.00</ele>
	<time>2024-09-06T06:02:22.000Z</time>
</trkpt>
<trkpt lat="46.1496910" lon="10.1466510">
	<ele>1202.20</ele>
	<time>2024-09-06T06:02:23.000Z</time>
</trkpt>
<trkpt lat="46.1496830" lon="10.1466690">
	<ele>1202.20</ele>
	<time>2024-09-06T06:02:24.000Z</time>
</trkpt>
<trkpt lat="46.1496790" lon="10.1466900">
	<ele>1202.20</ele>
	<time>2024-09-06T06:02:25.000Z</time>
</trkpt>
<trkpt lat="46.1496720" lon="10.1467030">
	<ele>1202.20</ele>
	<time>2024-09-06T06:02:26.000Z</time>
</trkpt>
<trkpt lat="46.1496640" lon="10.1467170">
	<ele>1202.40</ele>
	<time>2024-09-06T06:02:27.000Z</time>
</trkpt>
<trkpt lat="46.1496560" lon="10.1467270">
	<ele>1202.40</ele>
	<time>2024-09-06T06:02:28.000Z</time>
</trkpt>
<trkpt lat="46.1496460" lon="10.1467360">
	<ele>1202.80</ele>
	<time>2024-09-06T06:02:29.000Z</time>
</trkpt>
<trkpt lat="46.1496370" lon="10.1467430">
	<ele>1203.00</ele>
	<time>2024-09-06T06:02:30.000Z</time>
</trkpt>
<trkpt lat="46.1496260" lon="10.1467460">
	<ele>1203.20</ele>
	<time>2024-09-06T06:02:31.000Z</time>
</trkpt>
<trkpt lat="46.1496170" lon="10.1467490">
	<ele>1203.40</ele>
	<time>2024-09-06T06:02:32.000Z</time>
</trkpt>
<trkpt lat="46.1496060" lon="10.1467510">
	<ele>1203.60</ele>
	<time>2024-09-06T06:02:33.000Z</time>
</trkpt>
<trkpt lat="46.1495940" lon="10.1467550">
	<ele>1203.80</ele>
	<time>2024-09-06T06:02:34.000Z</time>
</trkpt>
<trkpt lat="46.1495850" lon="10.1467630">
	<ele>1204.00</ele>
	<time>2024-09-06T06:02:35.000Z</time>
</trkpt>
<trkpt lat="46.1495780" lon="10.1467690">
	<ele>1204.20</ele>
	<time>2024-09-06T06:02:36.000Z</time>
</trkpt>
<trkpt lat="46.1495680" lon="10.1467700">
	<ele>1204.20</ele>
	<time>2024-09-06T06:02:37.000Z</time>
</trkpt>
<trkpt lat="46.1495570" lon="10.1467700">
	<ele>1204.40</ele>
	<time>2024-09-06T06:02:38.000Z</time>
</trkpt>
<trkpt lat="46.1495490" lon="10.1467660">
	<ele>1204.60</ele>
	<time>2024-09-06T06:02:39.000Z</time>
</trkpt>
<trkpt lat="46.1495390" lon="10.1467620">
	<ele>1204.80</ele>
	<time>2024-09-06T06:02:40.000Z</time>
</trkpt>
<trkpt lat="46.1495270" lon="10.1467590">
	<ele>1205.00</ele>
	<time>2024-09-06T06:02:41.000Z</time>
</trkpt>
<trkpt lat="46.1495050" lon="10.1467380">
	<ele>1205.20</ele>
	<time>2024-09-06T06:02:42.000Z</time>
</trkpt>
<trkpt lat="46.1494950" lon="10.1467290">
	<ele>1205.20</ele>
	<time>2024-09-06T06:02:43.000Z</time>
</trkpt>
<trkpt lat="46.1494830" lon="10.1467260">
	<ele>1205.60</ele>
	<time>2024-09-06T06:02:44.000Z</time>
</trkpt>
<trkpt lat="46.1494710" lon="10.1467260">
	<ele>1205.80</ele>
	<time>2024-09-06T06:02:45.000Z</time>
</trkpt>
<trkpt lat="46.1494560" lon="10.1467240">
	<ele>1206.00</ele>
	<time>2024-09-06T06:02:46.000Z</time>
</trkpt>
<trkpt lat="46.1494460" lon="10.1467210">
	<ele>1206.20</ele>
	<time>2024-09-06T06:02:47.000Z</time>
</trkpt>
<trkpt lat="46.1494340" lon="10.1467170">
	<ele>1206.20</ele>
	<time>2024-09-06T06:02:48.000Z</time>
</trkpt>
<trkpt lat="46.1494200" lon="10.1467170">
	<ele>1206.40</ele>
	<time>2024-09-06T06:02:49.000Z</time>
</trkpt>
<trkpt lat="46.1494040" lon="10.1467150">
	<ele>1206.60</ele>
	<time>2024-09-06T06:02:50.000Z</time>
</trkpt>
<trkpt lat="46.1493900" lon="10.1467140">
	<ele>1206.80</ele>
	<time>2024-09-06T06:02:51.000Z</time>
</trkpt>
<trkpt lat="46.1493760" lon="10.1467130">
	<ele>1207.00</ele>
	<time>2024-09-06T06:02:52.000Z</time>
</trkpt>
<trkpt lat="46.1493650" lon="10.1467140">
	<ele>1207.20</ele>
	<time>2024-09-06T06:02:53.000Z</time>
</trkpt>
<trkpt lat="46.1493550" lon="10.1467150">
	<ele>1207.20</ele>
	<time>2024-09-06T06:02:54.000Z</time>
</trkpt>
<trkpt lat="46.1493460" lon="10.1467160">
	<ele>1207.60</ele>
	<time>2024-09-06T06:02:55.000Z</time>
</trkpt>
<trkpt lat="46.1493350" lon="10.1467130">
	<ele>1207.60</ele>
	<time>2024-09-06T06:02:56.000Z</time>
</trkpt>
<trkpt lat="46.1493250" lon="10.1467120">
	<ele>1207.80</ele>
	<time>2024-09-06T06:02:57.000Z</time>
</trkpt>
<trkpt lat="46.1493170" lon="10.1467140">
	<ele>1208.00</ele>
	<time>2024-09-06T06:02:58.000Z</time>
</trkpt>
<trkpt lat="46.1493100" lon="10.1467150">
	<ele>1208.20</ele>
	<time>2024-09-06T06:02:59.000Z</time>
</trkpt>
<trkpt lat="46.1493040" lon="10.1467160">
	<ele>1208.20</ele>
	<time>2024-09-06T06:03:00.000Z</time>
</trkpt>
<trkpt lat="46.1493010" lon="10.1467190">
	<ele>1208.40</ele>
	<time>2024-09-06T06:03:01.000Z</time>
</trkpt>
<trkpt lat="46.1492950" lon="10.1467210">
	<ele>1208.80</ele>
	<time>2024-09-06T06:03:02.000Z</time>
</trkpt>
<trkpt lat="46.1492880" lon="10.1467220">
	<ele>1209.00</ele>
	<time>2024-09-06T06:03:03.000Z</time>
</trkpt>
<trkpt lat="46.1492810" lon="10.1467210">
	<ele>1209.20</ele>
	<time>2024-09-06T06:03:04.000Z</time>
</trkpt>
<trkpt lat="46.1492690" lon="10.1467160">
	<ele>1209.40</ele>
	<time>2024-09-06T06:03:05.000Z</time>
</trkpt>
<trkpt lat="46.1492600" lon="10.1467080">
	<ele>1209.60</ele>
	<time>2024-09-06T06:03:06.000Z</time>
</trkpt>
<trkpt lat="46.1492500" lon="10.1466990">
	<ele>1209.80</ele>
	<time>2024-09-06T06:03:07.000Z</time>
</trkpt>
<trkpt lat="46.1492410" lon="10.1466920">
	<ele>1210.00</ele>
	<time>2024-09-06T06:03:08.000Z</time>
</trkpt>
<trkpt lat="46.1492330" lon="10.1466870">
	<ele>1210.00</ele>
	<time>2024-09-06T06:03:09.000Z</time>
</trkpt>
<trkpt lat="46.1492260" lon="10.1466800">
	<ele>1210.20</ele>
	<time>2024-09-06T06:03:10.000Z</time>
</trkpt>
<trkpt lat="46.1492090" lon="10.1466620">
	<ele>1210.40</ele>
	<time>2024-09-06T06:03:11.000Z</time>
</trkpt>
<trkpt lat="46.1491940" lon="10.1466520">
	<ele>1210.60</ele>
	<time>2024-09-06T06:03:12.000Z</time>
</trkpt>
<trkpt lat="46.1491860" lon="10.1466530">
	<ele>1210.80</ele>
	<time>2024-09-06T06:03:13.000Z</time>
</trkpt>
<trkpt lat="46.1491730" lon="10.1466460">
	<ele>1211.00</ele>
	<time>2024-09-06T06:03:14.000Z</time>
</trkpt>
<trkpt lat="46.1491610" lon="10.1466400">
	<ele>1211.00</ele>
	<time>2024-09-06T06:03:15.000Z</time>
</trkpt>
<trkpt lat="46.1491550" lon="10.1466340">
	<ele>1211.20</ele>
	<time>2024-09-06T06:03:16.000Z</time>
</trkpt>
<trkpt lat="46.1491500" lon="10.1466310">
	<ele>1211.40</ele>
	<time>2024-09-06T06:03:17.000Z</time>
</trkpt>
<trkpt lat="46.1491510" lon="10.1466260">
	<ele>1211.40</ele>
	<time>2024-09-06T06:03:18.000Z</time>
</trkpt>
<trkpt lat="46.1491510" lon="10.1466190">
	<ele>1211.60</ele>
	<time>2024-09-06T06:03:19.000Z</time>
</trkpt>
<trkpt lat="46.1491470" lon="10.1466030">
	<ele>1211.80</ele>
	<time>2024-09-06T06:03:20.000Z</time>
</trkpt>
<trkpt lat="46.1491410" lon="10.1465890">
	<ele>1211.80</ele>
	<time>2024-09-06T06:03:21.000Z</time>
</trkpt>
<trkpt lat="46.1491350" lon="10.1465800">
	<ele>1212.00</ele>
	<time>2024-09-06T06:03:22.000Z</time>
</trkpt>
<trkpt lat="46.1491410" lon="10.1465830">
	<ele>1212.00</ele>
	<time>2024-09-06T06:03:23.000Z</time>
</trkpt>
<trkpt lat="46.1491440" lon="10.1465840">
	<ele>1212.00</ele>
	<time>2024-09-06T06:03:24.000Z</time>
</trkpt>
<trkpt lat="46.1491370" lon="10.1465800">
	<ele>1212.20</ele>
	<time>2024-09-06T06:03:25.000Z</time>
</trkpt>
<trkpt lat="46.1491260" lon="10.1465740">
	<ele>1212.40</ele>
	<time>2024-09-06T06:03:26.000Z</time>
</trkpt>
<trkpt lat="46.1491130" lon="10.1465690">
	<ele>1212.40</ele>
	<time>2024-09-06T06:03:27.000Z</time>
</trkpt>
<trkpt lat="46.1490960" lon="10.1465620">
	<ele>1212.40</ele>
	<time>2024-09-06T06:03:28.000Z</time>
</trkpt>
<trkpt lat="46.1490820" lon="10.1465570">
	<ele>1212.60</ele>
	<time>2024-09-06T06:03:29.000Z</time>
</trkpt>
<trkpt lat="46.1490740" lon="10.1465580">
	<ele>1212.60</ele>
	<time>2024-09-06T06:03:30.000Z</time>
</trkpt>
<trkpt lat="46.1490720" lon="10.1465580">
	<ele>1212.60</ele>
	<time>2024-09-06T06:03:31.000Z</time>
</trkpt>
<trkpt lat="46.1490720" lon="10.1465580">
	<ele>1212.80</ele>
	<time>2024-09-06T06:03:32.000Z</time>
</trkpt>
<trkpt lat="46.1490730" lon="10.1465600">
	<ele>1213.00</ele>
	<time>2024-09-06T06:03:33.000Z</time>
</trkpt>
<trkpt lat="46.1490740" lon="10.1465630">
	<ele>1213.20</ele>
	<time>2024-09-06T06:03:34.000Z</time>
</trkpt>
<trkpt lat="46.1490710" lon="10.1465630">
	<ele>1213.20</ele>
	<time>2024-09-06T06:03:35.000Z</time>
</trkpt>
<trkpt lat="46.1490630" lon="10.1465590">
	<ele>1213.20</ele>
	<time>2024-09-06T06:03:36.000Z</time>
</trkpt>
<trkpt lat="46.1490520" lon="10.1465520">
	<ele>1212.80</ele>
	<time>2024-09-06T06:03:37.000Z</time>
</trkpt>
<trkpt lat="46.1490380" lon="10.1465440">
	<ele>1212.60</ele>
	<time>2024-09-06T06:03:38.000Z</time>
</trkpt>
<trkpt lat="46.1490230" lon="10.1465380">
	<ele>1212.60</ele>
	<time>2024-09-06T06:03:39.000Z</time>
</trkpt>
<trkpt lat="46.1490090" lon="10.1465310">
	<ele>1212.40</ele>
	<time>2024-09-06T06:03:40.000Z</time>
</trkpt>
<trkpt lat="46.1489960" lon="10.1465220">
	<ele>1212.40</ele>
	<time>2024-09-06T06:03:41.000Z</time>
</trkpt>
<trkpt lat="46.1489830" lon="10.1465130">
	<ele>1212.40</ele>
	<time>2024-09-06T06:03:42.000Z</time>
</trkpt>
<trkpt lat="46.1489720" lon="10.1465040">
	<ele>1212.40</ele>
	<time>2024-09-06T06:03:43.000Z</time>
</trkpt>
<trkpt lat="46.1489620" lon="10.1464950">
	<ele>1212.40</ele>
	<time>2024-09-06T06:03:44.000Z</time>
</trkpt>
<trkpt lat="46.1489520" lon="10.1464850">
	<ele>1212.40</ele>
	<time>2024-09-06T06:03:45.000Z</time>
</trkpt>
<trkpt lat="46.1489400" lon="10.1464720">
	<ele>1212.40</ele>
	<time>2024-09-06T06:03:46.000Z</time>
</trkpt>
<trkpt lat="46.1489260" lon="10.1464590">
	<ele>1212.40</ele>
	<time>2024-09-06T06:03:47.000Z</time>
</trkpt>
<trkpt lat="46.1489090" lon="10.1464490">
	<ele>1212.40</ele>
	<time>2024-09-06T06:03:48.000Z</time>
</trkpt>
<trkpt lat="46.1488900" lon="10.1464420">
	<ele>1212.80</ele>
	<time>2024-09-06T06:03:49.000Z</time>
</trkpt>
<trkpt lat="46.1488720" lon="10.1464380">
	<ele>1213.00</ele>
	<time>2024-09-06T06:03:50.000Z</time>
</trkpt>
<trkpt lat="46.1488470" lon="10.1464330">
	<ele>1213.20</ele>
	<time>2024-09-06T06:03:51.000Z</time>
</trkpt>
<trkpt lat="46.1488290" lon="10.1464270">
	<ele>1213.20</ele>
	<time>2024-09-06T06:03:52.000Z</time>
</trkpt>
<trkpt lat="46.1488130" lon="10.1464200">
	<ele>1213.20</ele>
	<time>2024-09-06T06:03:53.000Z</time>
</trkpt>
<trkpt lat="46.1487990" lon="10.1464110">
	<ele>1213.20</ele>
	<time>2024-09-06T06:03:54.000Z</time>
</trkpt>
<trkpt lat="46.1487840" lon="10.1464020">
	<ele>1213.20</ele>
	<time>2024-09-06T06:03:55.000Z</time>
</trkpt>
<trkpt lat="46.1487720" lon="10.1463910">
	<ele>1213.40</ele>
	<time>2024-09-06T06:03:56.000Z</time>
</trkpt>
<trkpt lat="46.1487610" lon="10.1463770">
	<ele>1213.60</ele>
	<time>2024-09-06T06:03:57.000Z</time>
</trkpt>
<trkpt lat="46.1487480" lon="10.1463670">
	<ele>1213.60</ele>
	<time>2024-09-06T06:03:58.000Z</time>
</trkpt>
<trkpt lat="46.1487360" lon="10.1463600">
	<ele>1213.80</ele>
	<time>2024-09-06T06:03:59.000Z</time>
</trkpt>
<trkpt lat="46.1487240" lon="10.1463550">
	<ele>1213.80</ele>
	<time>2024-09-06T06:04:00.000Z</time>
</trkpt>
<trkpt lat="46.1487120" lon="10.1463480">
	<ele>1214.00</ele>
	<time>2024-09-06T06:04:01.000Z</time>
</trkpt>
<trkpt lat="46.1487000" lon="10.1463420">
	<ele>1214.20</ele>
	<time>2024-09-06T06:04:02.000Z</time>
</trkpt>
<trkpt lat="46.1486880" lon="10.1463350">
	<ele>1214.20</ele>
	<time>2024-09-06T06:04:03.000Z</time>
</trkpt>
<trkpt lat="46.1486760" lon="10.1463300">
	<ele>1214.40</ele>
	<time>2024-09-06T06:04:04.000Z</time>
</trkpt>
<trkpt lat="46.1486670" lon="10.1463230">
	<ele>1214.60</ele>
	<time>2024-09-06T06:04:05.000Z</time>
</trkpt>
<trkpt lat="46.1486580" lon="10.1463160">
	<ele>1214.60</ele>
	<time>2024-09-06T06:04:06.000Z</time>
</trkpt>
<trkpt lat="46.1486460" lon="10.1463050">
	<ele>1214.80</ele>
	<time>2024-09-06T06:04:07.000Z</time>
</trkpt>
<trkpt lat="46.1486350" lon="10.1462960">
	<ele>1215.00</ele>
	<time>2024-09-06T06:04:08.000Z</time>
</trkpt>
<trkpt lat="46.1486230" lon="10.1462880">
	<ele>1215.20</ele>
	<time>2024-09-06T06:04:09.000Z</time>
</trkpt>
<trkpt lat="46.1486110" lon="10.1462800">
	<ele>1215.40</ele>
	<time>2024-09-06T06:04:10.000Z</time>
</trkpt>
<trkpt lat="46.1485990" lon="10.1462720">
	<ele>1215.60</ele>
	<time>2024-09-06T06:04:11.000Z</time>
</trkpt>
<trkpt lat="46.1485870" lon="10.1462650">
	<ele>1215.80</ele>
	<time>2024-09-06T06:04:12.000Z</time>
</trkpt>
<trkpt lat="46.1485760" lon="10.1462620">
	<ele>1216.00</ele>
	<time>2024-09-06T06:04:13.000Z</time>
</trkpt>
<trkpt lat="46.1485670" lon="10.1462580">
	<ele>1216.00</ele>
	<time>2024-09-06T06:04:14.000Z</time>
</trkpt>
<trkpt lat="46.1485550" lon="10.1462540">
	<ele>1216.40</ele>
	<time>2024-09-06T06:04:15.000Z</time>
</trkpt>
<trkpt lat="46.1485420" lon="10.1462480">
	<ele>1216.40</ele>
	<time>2024-09-06T06:04:16.000Z</time>
</trkpt>
<trkpt lat="46.1485290" lon="10.1462430">
	<ele>1216.60</ele>
	<time>2024-09-06T06:04:17.000Z</time>
</trkpt>
<trkpt lat="46.1485180" lon="10.1462380">
	<ele>1217.00</ele>
	<time>2024-09-06T06:04:18.000Z</time>
</trkpt>
<trkpt lat="46.1485100" lon="10.1462340">
	<ele>1217.20</ele>
	<time>2024-09-06T06:04:19.000Z</time>
</trkpt>
<trkpt lat="46.1485010" lon="10.1462310">
	<ele>1217.40</ele>
	<time>2024-09-06T06:04:20.000Z</time>
</trkpt>
<trkpt lat="46.1484890" lon="10.1462240">
	<ele>1217.80</ele>
	<time>2024-09-06T06:04:21.000Z</time>
</trkpt>
<trkpt lat="46.1484800" lon="10.1462210">
	<ele>1218.00</ele>
	<time>2024-09-06T06:04:22.000Z</time>
</trkpt>
<trkpt lat="46.1484730" lon="10.1462180">
	<ele>1218.20</ele>
	<time>2024-09-06T06:04:23.000Z</time>
</trkpt>
<trkpt lat="46.1484690" lon="10.1462150">
	<ele>1218.40</ele>
	<time>2024-09-06T06:04:24.000Z</time>
</trkpt>
<trkpt lat="46.1484620" lon="10.1462100">
	<ele>1218.80</ele>
	<time>2024-09-06T06:04:25.000Z</time>
</trkpt>
<trkpt lat="46.1484550" lon="10.1462050">
	<ele>1218.80</ele>
	<time>2024-09-06T06:04:26.000Z</time>
</trkpt>
<trkpt lat="46.1484490" lon="10.1462010">
	<ele>1219.20</ele>
	<time>2024-09-06T06:04:27.000Z</time>
</trkpt>
<trkpt lat="46.1484400" lon="10.1461970">
	<ele>1219.60</ele>
	<time>2024-09-06T06:04:28.000Z</time>
</trkpt>
<trkpt lat="46.1484300" lon="10.1461950">
	<ele>1219.80</ele>
	<time>2024-09-06T06:04:29.000Z</time>
</trkpt>
<trkpt lat="46.1484220" lon="10.1461910">
	<ele>1220.00</ele>
	<time>2024-09-06T06:04:30.000Z</time>
</trkpt>
<trkpt lat="46.1484160" lon="10.1461850">
	<ele>1220.40</ele>
	<time>2024-09-06T06:04:31.000Z</time>
</trkpt>
<trkpt lat="46.1484120" lon="10.1461780">
	<ele>1220.60</ele>
	<time>2024-09-06T06:04:32.000Z</time>
</trkpt>
<trkpt lat="46.1484080" lon="10.1461710">
	<ele>1220.80</ele>
	<time>2024-09-06T06:04:33.000Z</time>
</trkpt>
<trkpt lat="46.1484000" lon="10.1461650">
	<ele>1221.20</ele>
	<time>2024-09-06T06:04:34.000Z</time>
</trkpt>
<trkpt lat="46.1483930" lon="10.1461570">
	<ele>1221.60</ele>
	<time>2024-09-06T06:04:35.000Z</time>
</trkpt>
<trkpt lat="46.1483880" lon="10.1461500">
	<ele>1221.80</ele>
	<time>2024-09-06T06:04:36.000Z</time>
</trkpt>
<trkpt lat="46.1483830" lon="10.1461410">
	<ele>1222.20</ele>
	<time>2024-09-06T06:04:37.000Z</time>
</trkpt>
<trkpt lat="46.1483780" lon="10.1461290">
	<ele>1222.40</ele>
	<time>2024-09-06T06:04:38.000Z</time>
</trkpt>
<trkpt lat="46.1483700" lon="10.1461190">
	<ele>1222.60</ele>
	<time>2024-09-06T06:04:39.000Z</time>
</trkpt>
<trkpt lat="46.1483630" lon="10.1461090">
	<ele>1223.00</ele>
	<time>2024-09-06T06:04:40.000Z</time>
</trkpt>
<trkpt lat="46.1483580" lon="10.1461030">
	<ele>1223.20</ele>
	<time>2024-09-06T06:04:41.000Z</time>
</trkpt>
<trkpt lat="46.1483520" lon="10.1461000">
	<ele>1223.40</ele>
	<time>2024-09-06T06:04:42.000Z</time>
</trkpt>
<trkpt lat="46.1483460" lon="10.1460950">
	<ele>1223.60</ele>
	<time>2024-09-06T06:04:43.000Z</time>
</trkpt>
<trkpt lat="46.1483390" lon="10.1460900">
	<ele>1224.00</ele>
	<time>2024-09-06T06:04:44.000Z</time>
</trkpt>
<trkpt lat="46.1483290" lon="10.1460840">
	<ele>1224.20</ele>
	<time>2024-09-06T06:04:45.000Z</time>
</trkpt>
<trkpt lat="46.1483240" lon="10.1460790">
	<ele>1224.40</ele>
	<time>2024-09-06T06:04:46.000Z</time>
</trkpt>
<trkpt lat="46.1483130" lon="10.1460750">
	<ele>1224.60</ele>
	<time>2024-09-06T06:04:47.000Z</time>
</trkpt>
<trkpt lat="46.1483010" lon="10.1460720">
	<ele>1224.80</ele>
	<time>2024-09-06T06:04:48.000Z</time>
</trkpt>
<trkpt lat="46.1482910" lon="10.1460670">
	<ele>1225.00</ele>
	<time>2024-09-06T06:04:49.000Z</time>
</trkpt>
<trkpt lat="46.1482810" lon="10.1460650">
	<ele>1225.20</ele>
	<time>2024-09-06T06:04:50.000Z</time>
</trkpt>
<trkpt lat="46.1482740" lon="10.1460590">
	<ele>1225.40</ele>
	<time>2024-09-06T06:04:51.000Z</time>
</trkpt>
<trkpt lat="46.1482700" lon="10.1460530">
	<ele>1225.80</ele>
	<time>2024-09-06T06:04:52.000Z</time>
</trkpt>
<trkpt lat="46.1482640" lon="10.1460420">
	<ele>1226.20</ele>
	<time>2024-09-06T06:04:53.000Z</time>
</trkpt>
<trkpt lat="46.1482600" lon="10.1460340">
	<ele>1226.40</ele>
	<time>2024-09-06T06:04:54.000Z</time>
</trkpt>
<trkpt lat="46.1482540" lon="10.1460260">
	<ele>1226.60</ele>
	<time>2024-09-06T06:04:55.000Z</time>
</trkpt>
<trkpt lat="46.1482460" lon="10.1460160">
	<ele>1226.80</ele>
	<time>2024-09-06T06:04:56.000Z</time>
</trkpt>
<trkpt lat="46.1482400" lon="10.1460070">
	<ele>1226.80</ele>
	<time>2024-09-06T06:04:57.000Z</time>
</trkpt>
<trkpt lat="46.1482310" lon="10.1459960">
	<ele>1227.00</ele>
	<time>2024-09-06T06:04:58.000Z</time>
</trkpt>
<trkpt lat="46.1482210" lon="10.1459840">
	<ele>1227.20</ele>
	<time>2024-09-06T06:04:59.000Z</time>
</trkpt>
<trkpt lat="46.1482110" lon="10.1459740">
	<ele>1227.40</ele>
	<time>2024-09-06T06:05:00.000Z</time>
</trkpt>
<trkpt lat="46.1482050" lon="10.1459620">
	<ele>1227.60</ele>
	<time>2024-09-06T06:05:01.000Z</time>
</trkpt>
<trkpt lat="46.1481980" lon="10.1459510">
	<ele>1227.80</ele>
	<time>2024-09-06T06:05:02.000Z</time>
</trkpt>
<trkpt lat="46.1481890" lon="10.1459420">
	<ele>1228.00</ele>
	<time>2024-09-06T06:05:03.000Z</time>
</trkpt>
<trkpt lat="46.1481790" lon="10.1459350">
	<ele>1228.20</ele>
	<time>2024-09-06T06:05:04.000Z</time>
</trkpt>
<trkpt lat="46.1481700" lon="10.1459270">
	<ele>1228.40</ele>
	<time>2024-09-06T06:05:05.000Z</time>
</trkpt>
<trkpt lat="46.1481630" lon="10.1459180">
	<ele>1228.60</ele>
	<time>2024-09-06T06:05:06.000Z</time>
</trkpt>
<trkpt lat="46.1481570" lon="10.1459100">
	<ele>1228.60</ele>
	<time>2024-09-06T06:05:07.000Z</time>
</trkpt>
<trkpt lat="46.1481490" lon="10.1459020">
	<ele>1228.80</ele>
	<time>2024-09-06T06:05:08.000Z</time>
</trkpt>
<trkpt lat="46.1481400" lon="10.1458960">
	<ele>1229.00</ele>
	<time>2024-09-06T06:05:09.000Z</time>
</trkpt>
<trkpt lat="46.1481370" lon="10.1458900">
	<ele>1229.00</ele>
	<time>2024-09-06T06:05:10.000Z</time>
</trkpt>
<trkpt lat="46.1481370" lon="10.1458870">
	<ele>1229.40</ele>
	<time>2024-09-06T06:05:11.000Z</time>
</trkpt>
<trkpt lat="46.1481430" lon="10.1458830">
	<ele>1229.40</ele>
	<time>2024-09-06T06:05:12.000Z</time>
</trkpt>
<trkpt lat="46.1481510" lon="10.1458780">
	<ele>1229.60</ele>
	<time>2024-09-06T06:05:13.000Z</time>
</trkpt>
<trkpt lat="46.1481600" lon="10.1458710">
	<ele>1229.60</ele>
	<time>2024-09-06T06:05:14.000Z</time>
</trkpt>
<trkpt lat="46.1481700" lon="10.1458640">
	<ele>1229.40</ele>
	<time>2024-09-06T06:05:15.000Z</time>
</trkpt>
<trkpt lat="46.1481780" lon="10.1458580">
	<ele>1229.20</ele>
	<time>2024-09-06T06:05:16.000Z</time>
</trkpt>
<trkpt lat="46.1481890" lon="10.1458530">
	<ele>1229.20</ele>
	<time>2024-09-06T06:05:17.000Z</time>
</trkpt>
<trkpt lat="46.1481990" lon="10.1458490">
	<ele>1228.80</ele>
	<time>2024-09-06T06:05:18.000Z</time>
</trkpt>
<trkpt lat="46.1482130" lon="10.1458460">
	<ele>1228.40</ele>
	<time>2024-09-06T06:05:19.000Z</time>
</trkpt>
<trkpt lat="46.1482260" lon="10.1458410">
	<ele>1228.00</ele>
	<time>2024-09-06T06:05:20.000Z</time>
</trkpt>
<trkpt lat="46.1482380" lon="10.1458370">
	<ele>1227.80</ele>
	<time>2024-09-06T06:05:21.000Z</time>
</trkpt>
<trkpt lat="46.1482520" lon="10.1458340">
	<ele>1227.60</ele>
	<time>2024-09-06T06:05:22.000Z</time>
</trkpt>
<trkpt lat="46.1482690" lon="10.1458280">
	<ele>1227.40</ele>
	<time>2024-09-06T06:05:23.000Z</time>
</trkpt>
<trkpt lat="46.1482870" lon="10.1458200">
	<ele>1227.00</ele>
	<time>2024-09-06T06:05:24.000Z</time>
</trkpt>
<trkpt lat="46.1482980" lon="10.1458110">
	<ele>1226.60</ele>
	<time>2024-09-06T06:05:25.000Z</time>
</trkpt>
<trkpt lat="46.1483000" lon="10.1457970">
	<ele>1226.40</ele>
	<time>2024-09-06T06:05:26.000Z</time>
</trkpt>
<trkpt lat="46.1483010" lon="10.1457890">
	<ele>1226.40</ele>
	<time>2024-09-06T06:05:27.000Z</time>
</trkpt>
<trkpt lat="46.1482950" lon="10.1457720">
	<ele>1226.20</ele>
	<time>2024-09-06T06:05:28.000Z</time>
</trkpt>
<trkpt lat="46.1482980" lon="10.1457580">
	<ele>1226.20</ele>
	<time>2024-09-06T06:05:29.000Z</time>
</trkpt>
<trkpt lat="46.1483010" lon="10.1457430">
	<ele>1226.00</ele>
	<time>2024-09-06T06:05:30.000Z</time>
</trkpt>
<trkpt lat="46.1483070" lon="10.1457230">
	<ele>1226.00</ele>
	<time>2024-09-06T06:05:31.000Z</time>
</trkpt>
<trkpt lat="46.1483120" lon="10.1457040">
	<ele>1226.00</ele>
	<time>2024-09-06T06:05:32.000Z</time>
</trkpt>
<trkpt lat="46.1483170" lon="10.1456870">
	<ele>1225.80</ele>
	<time>2024-09-06T06:05:33.000Z</time>
</trkpt>
<trkpt lat="46.1483200" lon="10.1456700">
	<ele>1225.80</ele>
	<time>2024-09-06T06:05:34.000Z</time>
</trkpt>
<trkpt lat="46.1483200" lon="10.1456540">
	<ele>1225.80</ele>
	<time>2024-09-06T06:05:35.000Z</time>
</trkpt>
<trkpt lat="46.1483230" lon="10.1456390">
	<ele>1225.80</ele>
	<time>2024-09-06T06:05:36.000Z</time>
</trkpt>
<trkpt lat="46.1483240" lon="10.1456270">
	<ele>1225.80</ele>
	<time>2024-09-06T06:05:37.000Z</time>
</trkpt>
<trkpt lat="46.1483270" lon="10.1456160">
	<ele>1225.60</ele>
	<time>2024-09-06T06:05:38.000Z</time>
</trkpt>
<trkpt lat="46.1483310" lon="10.1456050">
	<ele>1225.60</ele>
	<time>2024-09-06T06:05:39.000Z</time>
</trkpt>
<trkpt lat="46.1483300" lon="10.1455970">
	<ele>1225.60</ele>
	<time>2024-09-06T06:05:40.000Z</time>
</trkpt>
<trkpt lat="46.1483330" lon="10.1455940">
	<ele>1225.40</ele>
	<time>2024-09-06T06:05:41.000Z</time>
</trkpt>
<trkpt lat="46.1483390" lon="10.1455890">
	<ele>1225.40</ele>
	<time>2024-09-06T06:05:42.000Z</time>
</trkpt>
<trkpt lat="46.1483380" lon="10.1455810">
	<ele>1225.00</ele>
	<time>2024-09-06T06:05:43.000Z</time>
</trkpt>
<trkpt lat="46.1483410" lon="10.1455720">
	<ele>1224.80</ele>
	<time>2024-09-06T06:05:44.000Z</time>
</trkpt>
<trkpt lat="46.1483500" lon="10.1455580">
	<ele>1224.80</ele>
	<time>2024-09-06T06:05:45.000Z</time>
</trkpt>
<trkpt lat="46.1483580" lon="10.1455420">
	<ele>1224.40</ele>
	<time>2024-09-06T06:05:46.000Z</time>
</trkpt>
<trkpt lat="46.1483620" lon="10.1455310">
	<ele>1224.20</ele>
	<time>2024-09-06T06:05:47.000Z</time>
</trkpt>
<trkpt lat="46.1483710" lon="10.1455170">
	<ele>1223.80</ele>
	<time>2024-09-06T06:05:48.000Z</time>
</trkpt>
<trkpt lat="46.1483770" lon="10.1454980">
	<ele>1223.60</ele>
	<time>2024-09-06T06:05:49.000Z</time>
</trkpt>
<trkpt lat="46.1483830" lon="10.1454750">
	<ele>1223.40</ele>
	<time>2024-09-06T06:05:50.000Z</time>
</trkpt>
<trkpt lat="46.1483850" lon="10.1454580">
	<ele>1223.40</ele>
	<time>2024-09-06T06:05:51.000Z</time>
</trkpt>
<trkpt lat="46.1483860" lon="10.1454390">
	<ele>1223.20</ele>
	<time>2024-09-06T06:05:52.000Z</time>
</trkpt>
<trkpt lat="46.1483900" lon="10.1454210">
	<ele>1223.00</ele>
	<time>2024-09-06T06:05:53.000Z</time>
</trkpt>
<trkpt lat="46.1483920" lon="10.1454120">
	<ele>1222.80</ele>
	<time>2024-09-06T06:05:54.000Z</time>
</trkpt>
<trkpt lat="46.1483980" lon="10.1453990">
	<ele>1222.40</ele>
	<time>2024-09-06T06:05:55.000Z</time>
</trkpt>
<trkpt lat="46.1484090" lon="10.1453860">
	<ele>1222.00</ele>
	<time>2024-09-06T06:05:56.000Z</time>
</trkpt>
<trkpt lat="46.1484210" lon="10.1453720">
	<ele>1221.80</ele>
	<time>2024-09-06T06:05:57.000Z</time>
</trkpt>
<trkpt lat="46.1484340" lon="10.1453600">
	<ele>1221.60</ele>
	<time>2024-09-06T06:05:58.000Z</time>
</trkpt>
<trkpt lat="46.1484420" lon="10.1453460">
	<ele>1221.20</ele>
	<time>2024-09-06T06:05:59.000Z</time>
</trkpt>
<trkpt lat="46.1484450" lon="10.1453290">
	<ele>1221.00</ele>
	<time>2024-09-06T06:06:00.000Z</time>
</trkpt>
<trkpt lat="46.1484470" lon="10.1453130">
	<ele>1220.80</ele>
	<time>2024-09-06T06:06:01.000Z</time>
</trkpt>
<trkpt lat="46.1484510" lon="10.1452950">
	<ele>1220.40</ele>
	<time>2024-09-06T06:06:02.000Z</time>
</trkpt>
<trkpt lat="46.1484510" lon="10.1452800">
	<ele>1220.20</ele>
	<time>2024-09-06T06:06:03.000Z</time>
</trkpt>
<trkpt lat="46.1484490" lon="10.1452590">
	<ele>1220.00</ele>
	<time>2024-09-06T06:06:04.000Z</time>
</trkpt>
<trkpt lat="46.1484520" lon="10.1452380">
	<ele>1219.80</ele>
	<time>2024-09-06T06:06:05.000Z</time>
</trkpt>
<trkpt lat="46.1484530" lon="10.1452220">
	<ele>1219.60</ele>
	<time>2024-09-06T06:06:06.000Z</time>
</trkpt>
<trkpt lat="46.1484560" lon="10.1452100">
	<ele>1219.60</ele>
	<time>2024-09-06T06:06:07.000Z</time>
</trkpt>
<trkpt lat="46.1484590" lon="10.1451960">
	<ele>1219.20</ele>
	<time>2024-09-06T06:06:08.000Z</time>
</trkpt>
<trkpt lat="46.1484620" lon="10.1451810">
	<ele>1219.00</ele>
	<time>2024-09-06T06:06:09.000Z</time>
</trkpt>
<trkpt lat="46.1484610" lon="10.1451680">
	<ele>1219.00</ele>
	<time>2024-09-06T06:06:10.000Z</time>
</trkpt>
<trkpt lat="46.1484640" lon="10.1451520">
	<ele>1218.80</ele>
	<time>2024-09-06T06:06:11.000Z</time>
</trkpt>
<trkpt lat="46.1484670" lon="10.1451380">
	<ele>1218.80</ele>
	<time>2024-09-06T06:06:12.000Z</time>
</trkpt>
<trkpt lat="46.1484730" lon="10.1451250">
	<ele>1218.80</ele>
	<time>2024-09-06T06:06:13.000Z</time>
</trkpt>
<trkpt lat="46.1484850" lon="10.1451100">
	<ele>1218.80</ele>
	<time>2024-09-06T06:06:14.000Z</time>
</trkpt>
<trkpt lat="46.1484980" lon="10.1450870">
	<ele>1218.60</ele>
	<time>2024-09-06T06:06:15.000Z</time>
</trkpt>
<trkpt lat="46.1485140" lon="10.1450690">
	<ele>1218.40</ele>
	<time>2024-09-06T06:06:16.000Z</time>
</trkpt>
<trkpt lat="46.1485160" lon="10.1450570">
	<ele>1218.20</ele>
	<time>2024-09-06T06:06:17.000Z</time>
</trkpt>
<trkpt lat="46.1485220" lon="10.1450450">
	<ele>1218.00</ele>
	<time>2024-09-06T06:06:18.000Z</time>
</trkpt>
<trkpt lat="46.1485250" lon="10.1450280">
	<ele>1218.00</ele>
	<time>2024-09-06T06:06:19.000Z</time>
</trkpt>
<trkpt lat="46.1485290" lon="10.1450090">
	<ele>1217.80</ele>
	<time>2024-09-06T06:06:20.000Z</time>
</trkpt>
<trkpt lat="46.1485400" lon="10.1449830">
	<ele>1217.60</ele>
	<time>2024-09-06T06:06:21.000Z</time>
</trkpt>
<trkpt lat="46.1485400" lon="10.1449580">
	<ele>1217.60</ele>
	<time>2024-09-06T06:06:22.000Z</time>
</trkpt>
<trkpt lat="46.1485460" lon="10.1449400">
	<ele>1217.20</ele>
	<time>2024-09-06T06:06:23.000Z</time>
</trkpt>
<trkpt lat="46.1485500" lon="10.1449150">
	<ele>1217.20</ele>
	<time>2024-09-06T06:06:24.000Z</time>
</trkpt>
<trkpt lat="46.1485450" lon="10.1448880">
	<ele>1217.00</ele>
	<time>2024-09-06T06:06:25.000Z</time>
</trkpt>
<trkpt lat="46.1485430" lon="10.1448660">
	<ele>1216.80</ele>
	<time>2024-09-06T06:06:26.000Z</time>
</trkpt>
<trkpt lat="46.1485420" lon="10.1448480">
	<ele>1216.60</ele>
	<time>2024-09-06T06:06:27.000Z</time>
</trkpt>
<trkpt lat="46.1485430" lon="10.1448270">
	<ele>1216.40</ele>
	<time>2024-09-06T06:06:28.000Z</time>
</trkpt>
<trkpt lat="46.1485490" lon="10.1448090">
	<ele>1216.00</ele>
	<time>2024-09-06T06:06:29.000Z</time>
</trkpt>
<trkpt lat="46.1485570" lon="10.1447960">
	<ele>1215.80</ele>
	<time>2024-09-06T06:06:30.000Z</time>
</trkpt>
<trkpt lat="46.1485620" lon="10.1447820">
	<ele>1215.60</ele>
	<time>2024-09-06T06:06:31.000Z</time>
</trkpt>
<trkpt lat="46.1485620" lon="10.1447670">
	<ele>1215.00</ele>
	<time>2024-09-06T06:06:32.000Z</time>
</trkpt>
<trkpt lat="46.1485690" lon="10.1447520">
	<ele>1214.80</ele>
	<time>2024-09-06T06:06:33.000Z</time>
</trkpt>
<trkpt lat="46.1485790" lon="10.1447350">
	<ele>1214.60</ele>
	<time>2024-09-06T06:06:34.000Z</time>
</trkpt>
<trkpt lat="46.1485880" lon="10.1447180">
	<ele>1214.20</ele>
	<time>2024-09-06T06:06:35.000Z</time>
</trkpt>
<trkpt lat="46.1485920" lon="10.1447040">
	<ele>1214.00</ele>
	<time>2024-09-06T06:06:36.000Z</time>
</trkpt>
<trkpt lat="46.1485940" lon="10.1446880">
	<ele>1213.80</ele>
	<time>2024-09-06T06:06:37.000Z</time>
</trkpt>
<trkpt lat="46.1485980" lon="10.1446720">
	<ele>1213.60</ele>
	<time>2024-09-06T06:06:38.000Z</time>
</trkpt>
<trkpt lat="46.1486010" lon="10.1446560">
	<ele>1213.60</ele>
	<time>2024-09-06T06:06:39.000Z</time>
</trkpt>
<trkpt lat="46.1486040" lon="10.1446410">
	<ele>1213.40</ele>
	<time>2024-09-06T06:06:40.000Z</time>
</trkpt>
<trkpt lat="46.1486060" lon="10.1446210">
	<ele>1213.40</ele>
	<time>2024-09-06T06:06:41.000Z</time>
</trkpt>
<trkpt lat="46.1486070" lon="10.1445990">
	<ele>1213.20</ele>
	<time>2024-09-06T06:06:42.000Z</time>
</trkpt>
<trkpt lat="46.1486050" lon="10.1445830">
	<ele>1213.20</ele>
	<time>2024-09-06T06:06:43.000Z</time>
</trkpt>
<trkpt lat="46.1486050" lon="10.1445700">
	<ele>1213.00</ele>
	<time>2024-09-06T06:06:44.000Z</time>
</trkpt>
<trkpt lat="46.1486020" lon="10.1445630">
	<ele>1213.00</ele>
	<time>2024-09-06T06:06:45.000Z</time>
</trkpt>
<trkpt lat="46.1485930" lon="10.1445520">
	<ele>1212.80</ele>
	<time>2024-09-06T06:06:46.000Z</time>
</trkpt>
<trkpt lat="46.1485910" lon="10.1445340">
	<ele>1212.80</ele>
	<time>2024-09-06T06:06:47.000Z</time>
</trkpt>
<trkpt lat="46.1485920" lon="10.1445160">
	<ele>1212.60</ele>
	<time>2024-09-06T06:06:48.000Z</time>
</trkpt>
<trkpt lat="46.1485960" lon="10.1444930">
	<ele>1212.40</ele>
	<time>2024-09-06T06:06:49.000Z</time>
</trkpt>
<trkpt lat="46.1485930" lon="10.1444690">
	<ele>1212.20</ele>
	<time>2024-09-06T06:06:50.000Z</time>
</trkpt>
<trkpt lat="46.1485970" lon="10.1444470">
	<ele>1212.00</ele>
	<time>2024-09-06T06:06:51.000Z</time>
</trkpt>
<trkpt lat="46.1485950" lon="10.1444300">
	<ele>1211.80</ele>
	<time>2024-09-06T06:06:52.000Z</time>
</trkpt>
<trkpt lat="46.1485990" lon="10.1444090">
	<ele>1211.80</ele>
	<time>2024-09-06T06:06:53.000Z</time>
</trkpt>
<trkpt lat="46.1486000" lon="10.1443840">
	<ele>1211.60</ele>
	<time>2024-09-06T06:06:54.000Z</time>
</trkpt>
<trkpt lat="46.1486040" lon="10.1443590">
	<ele>1211.60</ele>
	<time>2024-09-06T06:06:55.000Z</time>
</trkpt>
<trkpt lat="46.1486030" lon="10.1443360">
	<ele>1211.40</ele>
	<time>2024-09-06T06:06:56.000Z</time>
</trkpt>
<trkpt lat="46.1485970" lon="10.1443150">
	<ele>1211.40</ele>
	<time>2024-09-06T06:06:57.000Z</time>
</trkpt>
<trkpt lat="46.1486010" lon="10.1442920">
	<ele>1211.40</ele>
	<time>2024-09-06T06:06:58.000Z</time>
</trkpt>
<trkpt lat="46.1486070" lon="10.1442700">
	<ele>1211.20</ele>
	<time>2024-09-06T06:06:59.000Z</time>
</trkpt>
<trkpt lat="46.1486130" lon="10.1442500">
	<ele>1211.00</ele>
	<time>2024-09-06T06:07:00.000Z</time>
</trkpt>
<trkpt lat="46.1486150" lon="10.1442240">
	<ele>1211.00</ele>
	<time>2024-09-06T06:07:01.000Z</time>
</trkpt>
<trkpt lat="46.1486170" lon="10.1441990">
	<ele>1211.00</ele>
	<time>2024-09-06T06:07:02.000Z</time>
</trkpt>
<trkpt lat="46.1486160" lon="10.1441780">
	<ele>1210.80</ele>
	<time>2024-09-06T06:07:03.000Z</time>
</trkpt>
<trkpt lat="46.1486090" lon="10.1441600">
	<ele>1210.80</ele>
	<time>2024-09-06T06:07:04.000Z</time>
</trkpt>
<trkpt lat="46.1486070" lon="10.1441400">
	<ele>1210.60</ele>
	<time>2024-09-06T06:07:05.000Z</time>
</trkpt>
<trkpt lat="46.1486080" lon="10.1441170">
	<ele>1210.60</ele>
	<time>2024-09-06T06:07:06.000Z</time>
</trkpt>
<trkpt lat="46.1486040" lon="10.1440980">
	<ele>1210.60</ele>
	<time>2024-09-06T06:07:07.000Z</time>
</trkpt>
<trkpt lat="46.1486010" lon="10.1440740">
	<ele>1210.60</ele>
	<time>2024-09-06T06:07:08.000Z</time>
</trkpt>
<trkpt lat="46.1485990" lon="10.1440520">
	<ele>1210.60</ele>
	<time>2024-09-06T06:07:09.000Z</time>
</trkpt>
<trkpt lat="46.1486030" lon="10.1440340">
	<ele>1210.80</ele>
	<time>2024-09-06T06:07:10.000Z</time>
</trkpt>
<trkpt lat="46.1486040" lon="10.1440190">
	<ele>1210.80</ele>
	<time>2024-09-06T06:07:11.000Z</time>
</trkpt>
<trkpt lat="46.1486060" lon="10.1440020">
	<ele>1210.80</ele>
	<time>2024-09-06T06:07:12.000Z</time>
</trkpt>
<trkpt lat="46.1486100" lon="10.1439870">
	<ele>1210.80</ele>
	<time>2024-09-06T06:07:13.000Z</time>
</trkpt>
<trkpt lat="46.1486080" lon="10.1439800">
	<ele>1211.00</ele>
	<time>2024-09-06T06:07:14.000Z</time>
</trkpt>
<trkpt lat="46.1486070" lon="10.1439770">
	<ele>1211.00</ele>
	<time>2024-09-06T06:07:15.000Z</time>
</trkpt>
<trkpt lat="46.1486060" lon="10.1439750">
	<ele>1211.00</ele>
	<time>2024-09-06T06:07:16.000Z</time>
</trkpt>
<trkpt lat="46.1486040" lon="10.1439730">
	<ele>1211.20</ele>
	<time>2024-09-06T06:07:17.000Z</time>
</trkpt>
<trkpt lat="46.1486020" lon="10.1439720">
	<ele>1211.20</ele>
	<time>2024-09-06T06:07:18.000Z</time>
</trkpt>
<trkpt lat="46.1486150" lon="10.1439770">
	<ele>1211.40</ele>
	<time>2024-09-06T06:07:19.000Z</time>
</trkpt>
<trkpt lat="46.1486220" lon="10.1439700">
	<ele>1211.40</ele>
	<time>2024-09-06T06:07:20.000Z</time>
</trkpt>
<trkpt lat="46.1486250" lon="10.1439510">
	<ele>1211.40</ele>
	<time>2024-09-06T06:07:21.000Z</time>
</trkpt>
<trkpt lat="46.1486270" lon="10.1439280">
	<ele>1211.20</ele>
	<time>2024-09-06T06:07:22.000Z</time>
</trkpt>
<trkpt lat="46.1486210" lon="10.1439100">
	<ele>1211.20</ele>
	<time>2024-09-06T06:07:23.000Z</time>
</trkpt>
<trkpt lat="46.1486210" lon="10.1438920">
	<ele>1211.20</ele>
	<time>2024-09-06T06:07:24.000Z</time>
</trkpt>
<trkpt lat="46.1486210" lon="10.1438740">
	<ele>1211.20</ele>
	<time>2024-09-06T06:07:25.000Z</time>
</trkpt>
<trkpt lat="46.1486230" lon="10.1438580">
	<ele>1211.20</ele>
	<time>2024-09-06T06:07:26.000Z</time>
</trkpt>
<trkpt lat="46.1486260" lon="10.1438410">
	<ele>1211.40</ele>
	<time>2024-09-06T06:07:27.000Z</time>
</trkpt>
<trkpt lat="46.1486270" lon="10.1438240">
	<ele>1211.60</ele>
	<time>2024-09-06T06:07:28.000Z</time>
</trkpt>
<trkpt lat="46.1486220" lon="10.1438110">
	<ele>1211.60</ele>
	<time>2024-09-06T06:07:29.000Z</time>
</trkpt>
<trkpt lat="46.1486130" lon="10.1437990">
	<ele>1211.60</ele>
	<time>2024-09-06T06:07:30.000Z</time>
</trkpt>
<trkpt lat="46.1486110" lon="10.1437870">
	<ele>1211.80</ele>
	<time>2024-09-06T06:07:31.000Z</time>
</trkpt>
<trkpt lat="46.1486150" lon="10.1437760">
	<ele>1211.80</ele>
	<time>2024-09-06T06:07:32.000Z</time>
</trkpt>
<trkpt lat="46.1486210" lon="10.1437650">
	<ele>1212.00</ele>
	<time>2024-09-06T06:07:33.000Z</time>
</trkpt>
<trkpt lat="46.1486170" lon="10.1437510">
	<ele>1212.00</ele>
	<time>2024-09-06T06:07:34.000Z</time>
</trkpt>
<trkpt lat="46.1486100" lon="10.1437340">
	<ele>1212.20</ele>
	<time>2024-09-06T06:07:35.000Z</time>
</trkpt>
<trkpt lat="46.1486010" lon="10.1437160">
	<ele>1212.20</ele>
	<time>2024-09-06T06:07:36.000Z</time>
</trkpt>
<trkpt lat="46.1485920" lon="10.1436990">
	<ele>1212.20</ele>
	<time>2024-09-06T06:07:37.000Z</time>
</trkpt>
<trkpt lat="46.1485870" lon="10.1436850">
	<ele>1212.20</ele>
	<time>2024-09-06T06:07:38.000Z</time>
</trkpt>
<trkpt lat="46.1485810" lon="10.1436700">
	<ele>1212.40</ele>
	<time>2024-09-06T06:07:39.000Z</time>
</trkpt>
<trkpt lat="46.1485790" lon="10.1436530">
	<ele>1212.60</ele>
	<time>2024-09-06T06:07:40.000Z</time>
</trkpt>
<trkpt lat="46.1485790" lon="10.1436380">
	<ele>1212.60</ele>
	<time>2024-09-06T06:07:41.000Z</time>
</trkpt>
<trkpt lat="46.1485790" lon="10.1436220">
	<ele>1212.80</ele>
	<time>2024-09-06T06:07:42.000Z</time>
</trkpt>
<trkpt lat="46.1485750" lon="10.1436010">
	<ele>1212.80</ele>
	<time>2024-09-06T06:07:43.000Z</time>
</trkpt>
<trkpt lat="46.1485700" lon="10.1435810">
	<ele>1212.80</ele>
	<time>2024-09-06T06:07:44.000Z</time>
</trkpt>
<trkpt lat="46.1485580" lon="10.1435660">
	<ele>1212.80</ele>
	<time>2024-09-06T06:07:45.000Z</time>
</trkpt>
<trkpt lat="46.1485530" lon="10.1435520">
	<ele>1213.00</ele>
	<time>2024-09-06T06:07:46.000Z</time>
</trkpt>
<trkpt lat="46.1485410" lon="10.1435380">
	<ele>1213.20</ele>
	<time>2024-09-06T06:07:47.000Z</time>
</trkpt>
<trkpt lat="46.1485270" lon="10.1435200">
	<ele>1213.40</ele>
	<time>2024-09-06T06:07:48.000Z</time>
</trkpt>
<trkpt lat="46.1485170" lon="10.1435050">
	<ele>1213.40</ele>
	<time>2024-09-06T06:07:49.000Z</time>
</trkpt>
<trkpt lat="46.1485100" lon="10.1434910">
	<ele>1213.60</ele>
	<time>2024-09-06T06:07:50.000Z</time>
</trkpt>
<trkpt lat="46.1485070" lon="10.1434720">
	<ele>1213.80</ele>
	<time>2024-09-06T06:07:51.000Z</time>
</trkpt>
<trkpt lat="46.1485000" lon="10.1434530">
	<ele>1213.80</ele>
	<time>2024-09-06T06:07:52.000Z</time>
</trkpt>
<trkpt lat="46.1484930" lon="10.1434360">
	<ele>1214.00</ele>
	<time>2024-09-06T06:07:53.000Z</time>
</trkpt>
<trkpt lat="46.1484840" lon="10.1434260">
	<ele>1214.20</ele>
	<time>2024-09-06T06:07:54.000Z</time>
</trkpt>
<trkpt lat="46.1484830" lon="10.1434110">
	<ele>1214.20</ele>
	<time>2024-09-06T06:07:55.000Z</time>
</trkpt>
<trkpt lat="46.1484870" lon="10.1433980">
	<ele>1214.40</ele>
	<time>2024-09-06T06:07:56.000Z</time>
</trkpt>
<trkpt lat="46.1484900" lon="10.1433830">
	<ele>1214.40</ele>
	<time>2024-09-06T06:07:57.000Z</time>
</trkpt>
<trkpt lat="46.1484880" lon="10.1433780">
	<ele>1214.40</ele>
	<time>2024-09-06T06:07:58.000Z</time>
</trkpt>
<trkpt lat="46.1484850" lon="10.1433740">
	<ele>1214.60</ele>
	<time>2024-09-06T06:07:59.000Z</time>
</trkpt>
<trkpt lat="46.1484820" lon="10.1433730">
	<ele>1214.60</ele>
	<time>2024-09-06T06:08:00.000Z</time>
</trkpt>
<trkpt lat="46.1484810" lon="10.1433750">
	<ele>1214.60</ele>
	<time>2024-09-06T06:08:01.000Z</time>
</trkpt>
<trkpt lat="46.1484830" lon="10.1433750">
	<ele>1214.60</ele>
	<time>2024-09-06T06:08:02.000Z</time>
</trkpt>
<trkpt lat="46.1484810" lon="10.1433760">
	<ele>1214.80</ele>
	<time>2024-09-06T06:08:03.000Z</time>
</trkpt>
<trkpt lat="46.1484800" lon="10.1433760">
	<ele>1215.00</ele>
	<time>2024-09-06T06:08:04.000Z</time>
</trkpt>
<trkpt lat="46.1484790" lon="10.1433740">
	<ele>1215.00</ele>
	<time>2024-09-06T06:08:05.000Z</time>
</trkpt>
<trkpt lat="46.1484790" lon="10.1433690">
	<ele>1215.00</ele>
	<time>2024-09-06T06:08:06.000Z</time>
</trkpt>
<trkpt lat="46.1484740" lon="10.1433460">
	<ele>1214.80</ele>
	<time>2024-09-06T06:08:07.000Z</time>
</trkpt>
<trkpt lat="46.1484700" lon="10.1433200">
	<ele>1214.80</ele>
	<time>2024-09-06T06:08:08.000Z</time>
</trkpt>
<trkpt lat="46.1484660" lon="10.1432920">
	<ele>1214.60</ele>
	<time>2024-09-06T06:08:09.000Z</time>
</trkpt>
<trkpt lat="46.1484620" lon="10.1432680">
	<ele>1214.60</ele>
	<time>2024-09-06T06:08:10.000Z</time>
</trkpt>
<trkpt lat="46.1484550" lon="10.1432480">
	<ele>1214.60</ele>
	<time>2024-09-06T06:08:11.000Z</time>
</trkpt>
<trkpt lat="46.1484480" lon="10.1432310">
	<ele>1214.60</ele>
	<time>2024-09-06T06:08:12.000Z</time>
</trkpt>
<trkpt lat="46.1484410" lon="10.1432130">
	<ele>1214.80</ele>
	<time>2024-09-06T06:08:13.000Z</time>
</trkpt>
<trkpt lat="46.1484330" lon="10.1431940">
	<ele>1214.80</ele>
	<time>2024-09-06T06:08:14.000Z</time>
</trkpt>
<trkpt lat="46.1484260" lon="10.1431740">
	<ele>1214.80</ele>
	<time>2024-09-06T06:08:15.000Z</time>
</trkpt>
<trkpt lat="46.1484180" lon="10.1431540">
	<ele>1214.80</ele>
	<time>2024-09-06T06:08:16.000Z</time>
</trkpt>
<trkpt lat="46.1484150" lon="10.1431320">
	<ele>1214.80</ele>
	<time>2024-09-06T06:08:17.000Z</time>
</trkpt>
<trkpt lat="46.1484140" lon="10.1431110">
	<ele>1214.80</ele>
	<time>2024-09-06T06:08:18.000Z</time>
</trkpt>
<trkpt lat="46.1484090" lon="10.1430890">
	<ele>1214.80</ele>
	<time>2024-09-06T06:08:19.000Z</time>
</trkpt>
<trkpt lat="46.1484120" lon="10.1430680">
	<ele>1214.80</ele>
	<time>2024-09-06T06:08:20.000Z</time>
</trkpt>
<trkpt lat="46.1484150" lon="10.1430480">
	<ele>1214.80</ele>
	<time>2024-09-06T06:08:21.000Z</time>
</trkpt>
<trkpt lat="46.1484170" lon="10.1430270">
	<ele>1214.80</ele>
	<time>2024-09-06T06:08:22.000Z</time>
</trkpt>
<trkpt lat="46.1484190" lon="10.1430070">
	<ele>1214.80</ele>
	<time>2024-09-06T06:08:23.000Z</time>
</trkpt>
<trkpt lat="46.1484230" lon="10.1429850">
	<ele>1214.80</ele>
	<time>2024-09-06T06:08:24.000Z</time>
</trkpt>
<trkpt lat="46.1484210" lon="10.1429700">
	<ele>1214.80</ele>
	<time>2024-09-06T06:08:25.000Z</time>
</trkpt>
<trkpt lat="46.1484120" lon="10.1429500">
	<ele>1214.80</ele>
	<time>2024-09-06T06:08:26.000Z</time>
</trkpt>
<trkpt lat="46.1484050" lon="10.1429330">
	<ele>1214.60</ele>
	<time>2024-09-06T06:08:27.000Z</time>
</trkpt>
<trkpt lat="46.1483990" lon="10.1429140">
	<ele>1214.60</ele>
	<time>2024-09-06T06:08:28.000Z</time>
</trkpt>
<trkpt lat="46.1483890" lon="10.1428940">
	<ele>1214.60</ele>
	<time>2024-09-06T06:08:29.000Z</time>
</trkpt>
<trkpt lat="46.1483780" lon="10.1428740">
	<ele>1214.60</ele>
	<time>2024-09-06T06:08:30.000Z</time>
</trkpt>
<trkpt lat="46.1483840" lon="10.1428510">
	<ele>1214.60</ele>
	<time>2024-09-06T06:08:31.000Z</time>
</trkpt>
<trkpt lat="46.1483860" lon="10.1428280">
	<ele>1214.60</ele>
	<time>2024-09-06T06:08:32.000Z</time>
</trkpt>
<trkpt lat="46.1483860" lon="10.1428080">
	<ele>1214.40</ele>
	<time>2024-09-06T06:08:33.000Z</time>
</trkpt>
<trkpt lat="46.1483870" lon="10.1427880">
	<ele>1214.40</ele>
	<time>2024-09-06T06:08:34.000Z</time>
</trkpt>
<trkpt lat="46.1483900" lon="10.1427690">
	<ele>1214.40</ele>
	<time>2024-09-06T06:08:35.000Z</time>
</trkpt>
<trkpt lat="46.1483900" lon="10.1427490">
	<ele>1214.40</ele>
	<time>2024-09-06T06:08:36.000Z</time>
</trkpt>
<trkpt lat="46.1483840" lon="10.1427270">
	<ele>1214.40</ele>
	<time>2024-09-06T06:08:37.000Z</time>
</trkpt>
<trkpt lat="46.1483820" lon="10.1427060">
	<ele>1214.20</ele>
	<time>2024-09-06T06:08:38.000Z</time>
</trkpt>
<trkpt lat="46.1483800" lon="10.1426890">
	<ele>1214.20</ele>
	<time>2024-09-06T06:08:39.000Z</time>
</trkpt>
<trkpt lat="46.1483770" lon="10.1426720">
	<ele>1214.20</ele>
	<time>2024-09-06T06:08:40.000Z</time>
</trkpt>
<trkpt lat="46.1483740" lon="10.1426530">
	<ele>1214.20</ele>
	<time>2024-09-06T06:08:41.000Z</time>
</trkpt>
<trkpt lat="46.1483700" lon="10.1426310">
	<ele>1214.20</ele>
	<time>2024-09-06T06:08:42.000Z</time>
</trkpt>
<trkpt lat="46.1483680" lon="10.1426140">
	<ele>1214.40</ele>
	<time>2024-09-06T06:08:43.000Z</time>
</trkpt>
<trkpt lat="46.1483640" lon="10.1425970">
	<ele>1214.40</ele>
	<time>2024-09-06T06:08:44.000Z</time>
</trkpt>
<trkpt lat="46.1483580" lon="10.1425750">
	<ele>1214.40</ele>
	<time>2024-09-06T06:08:45.000Z</time>
</trkpt>
<trkpt lat="46.1483540" lon="10.1425570">
	<ele>1214.40</ele>
	<time>2024-09-06T06:08:46.000Z</time>
</trkpt>
<trkpt lat="46.1483450" lon="10.1425360">
	<ele>1214.40</ele>
	<time>2024-09-06T06:08:47.000Z</time>
</trkpt>
<trkpt lat="46.1483450" lon="10.1425140">
	<ele>1214.40</ele>
	<time>2024-09-06T06:08:48.000Z</time>
</trkpt>
<trkpt lat="46.1483380" lon="10.1424930">
	<ele>1214.40</ele>
	<time>2024-09-06T06:08:49.000Z</time>
</trkpt>
<trkpt lat="46.1483330" lon="10.1424720">
	<ele>1214.20</ele>
	<time>2024-09-06T06:08:50.000Z</time>
</trkpt>
<trkpt lat="46.1483300" lon="10.1424540">
	<ele>1214.20</ele>
	<time>2024-09-06T06:08:51.000Z</time>
</trkpt>
<trkpt lat="46.1483310" lon="10.1424300">
	<ele>1214.00</ele>
	<time>2024-09-06T06:08:52.000Z</time>
</trkpt>
<trkpt lat="46.1483310" lon="10.1424070">
	<ele>1214.00</ele>
	<time>2024-09-06T06:08:53.000Z</time>
</trkpt>
<trkpt lat="46.1483260" lon="10.1423820">
	<ele>1213.80</ele>
	<time>2024-09-06T06:08:54.000Z</time>
</trkpt>
<trkpt lat="46.1483220" lon="10.1423600">
	<ele>1213.60</ele>
	<time>2024-09-06T06:08:55.000Z</time>
</trkpt>
<trkpt lat="46.1483170" lon="10.1423400">
	<ele>1213.40</ele>
	<time>2024-09-06T06:08:56.000Z</time>
</trkpt>
<trkpt lat="46.1483100" lon="10.1423190">
	<ele>1213.40</ele>
	<time>2024-09-06T06:08:57.000Z</time>
</trkpt>
<trkpt lat="46.1482980" lon="10.1423020">
	<ele>1213.20</ele>
	<time>2024-09-06T06:08:58.000Z</time>
</trkpt>
<trkpt lat="46.1482940" lon="10.1422810">
	<ele>1213.20</ele>
	<time>2024-09-06T06:08:59.000Z</time>
</trkpt>
<trkpt lat="46.1482930" lon="10.1422550">
	<ele>1213.00</ele>
	<time>2024-09-06T06:09:00.000Z</time>
</trkpt>
<trkpt lat="46.1482890" lon="10.1422370">
	<ele>1212.80</ele>
	<time>2024-09-06T06:09:01.000Z</time>
</trkpt>
<trkpt lat="46.1482850" lon="10.1422190">
	<ele>1212.80</ele>
	<time>2024-09-06T06:09:02.000Z</time>
</trkpt>
<trkpt lat="46.1482800" lon="10.1422040">
	<ele>1212.60</ele>
	<time>2024-09-06T06:09:03.000Z</time>
</trkpt>
<trkpt lat="46.1482790" lon="10.1421860">
	<ele>1212.60</ele>
	<time>2024-09-06T06:09:04.000Z</time>
</trkpt>
<trkpt lat="46.1482790" lon="10.1421690">
	<ele>1212.60</ele>
	<time>2024-09-06T06:09:05.000Z</time>
</trkpt>
<trkpt lat="46.1482790" lon="10.1421510">
	<ele>1212.60</ele>
	<time>2024-09-06T06:09:06.000Z</time>
</trkpt>
<trkpt lat="46.1482830" lon="10.1421340">
	<ele>1212.60</ele>
	<time>2024-09-06T06:09:07.000Z</time>
</trkpt>
<trkpt lat="46.1482900" lon="10.1421150">
	<ele>1212.60</ele>
	<time>2024-09-06T06:09:08.000Z</time>
</trkpt>
<trkpt lat="46.1482940" lon="10.1420980">
	<ele>1212.60</ele>
	<time>2024-09-06T06:09:09.000Z</time>
</trkpt>
<trkpt lat="46.1482920" lon="10.1420830">
	<ele>1212.60</ele>
	<time>2024-09-06T06:09:10.000Z</time>
</trkpt>
<trkpt lat="46.1482900" lon="10.1420680">
	<ele>1212.60</ele>
	<time>2024-09-06T06:09:11.000Z</time>
</trkpt>
<trkpt lat="46.1482870" lon="10.1420540">
	<ele>1212.60</ele>
	<time>2024-09-06T06:09:12.000Z</time>
</trkpt>
<trkpt lat="46.1482730" lon="10.1420270">
	<ele>1212.60</ele>
	<time>2024-09-06T06:09:13.000Z</time>
</trkpt>
<trkpt lat="46.1482670" lon="10.1420040">
	<ele>1212.60</ele>
	<time>2024-09-06T06:09:14.000Z</time>
</trkpt>
<trkpt lat="46.1482630" lon="10.1419810">
	<ele>1212.60</ele>
	<time>2024-09-06T06:09:15.000Z</time>
</trkpt>
<trkpt lat="46.1482530" lon="10.1419600">
	<ele>1212.60</ele>
	<time>2024-09-06T06:09:16.000Z</time>
</trkpt>
<trkpt lat="46.1482400" lon="10.1419380">
	<ele>1212.80</ele>
	<time>2024-09-06T06:09:17.000Z</time>
</trkpt>
<trkpt lat="46.1482270" lon="10.1419180">
	<ele>1212.80</ele>
	<time>2024-09-06T06:09:18.000Z</time>
</trkpt>
<trkpt lat="46.1482180" lon="10.1419010">
	<ele>1212.80</ele>
	<time>2024-09-06T06:09:19.000Z</time>
</trkpt>
<trkpt lat="46.1482100" lon="10.1418840">
	<ele>1212.80</ele>
	<time>2024-09-06T06:09:20.000Z</time>
</trkpt>
<trkpt lat="46.1481960" lon="10.1418720">
	<ele>1212.80</ele>
	<time>2024-09-06T06:09:21.000Z</time>
</trkpt>
<trkpt lat="46.1481800" lon="10.1418610">
	<ele>1213.00</ele>
	<time>2024-09-06T06:09:22.000Z</time>
</trkpt>
<trkpt lat="46.1481630" lon="10.1418460">
	<ele>1213.00</ele>
	<time>2024-09-06T06:09:23.000Z</time>
</trkpt>
<trkpt lat="46.1481500" lon="10.1418320">
	<ele>1213.20</ele>
	<time>2024-09-06T06:09:24.000Z</time>
</trkpt>
<trkpt lat="46.1481450" lon="10.1418150">
	<ele>1213.20</ele>
	<time>2024-09-06T06:09:25.000Z</time>
</trkpt>
<trkpt lat="46.1481420" lon="10.1417990">
	<ele>1213.20</ele>
	<time>2024-09-06T06:09:26.000Z</time>
</trkpt>
<trkpt lat="46.1481380" lon="10.1417820">
	<ele>1213.40</ele>
	<time>2024-09-06T06:09:27.000Z</time>
</trkpt>
<trkpt lat="46.1481310" lon="10.1417650">
	<ele>1213.60</ele>
	<time>2024-09-06T06:09:28.000Z</time>
</trkpt>
<trkpt lat="46.1481220" lon="10.1417490">
	<ele>1213.60</ele>
	<time>2024-09-06T06:09:29.000Z</time>
</trkpt>
<trkpt lat="46.1481130" lon="10.1417330">
	<ele>1213.60</ele>
	<time>2024-09-06T06:09:30.000Z</time>
</trkpt>
<trkpt lat="46.1481030" lon="10.1417170">
	<ele>1213.60</ele>
	<time>2024-09-06T06:09:31.000Z</time>
</trkpt>
<trkpt lat="46.1480960" lon="10.1417020">
	<ele>1213.60</ele>
	<time>2024-09-06T06:09:32.000Z</time>
</trkpt>
<trkpt lat="46.1480910" lon="10.1416860">
	<ele>1213.60</ele>
	<time>2024-09-06T06:09:34.000Z</time>
</trkpt>
<trkpt lat="46.1480840" lon="10.1416680">
	<ele>1213.60</ele>
	<time>2024-09-06T06:09:35.000Z</time>
</trkpt>
<trkpt lat="46.1480690" lon="10.1416420">
	<ele>1213.80</ele>
	<time>2024-09-06T06:09:36.000Z</time>
</trkpt>
<trkpt lat="46.1480560" lon="10.1416280">
	<ele>1213.80</ele>
	<time>2024-09-06T06:09:37.000Z</time>
</trkpt>
<trkpt lat="46.1480420" lon="10.1416150">
	<ele>1214.00</ele>
	<time>2024-09-06T06:09:38.000Z</time>
</trkpt>
<trkpt lat="46.1480320" lon="10.1416020">
	<ele>1214.00</ele>
	<time>2024-09-06T06:09:39.000Z</time>
</trkpt>
<trkpt lat="46.1480270" lon="10.1415920">
	<ele>1214.00</ele>
	<time>2024-09-06T06:09:40.000Z</time>
</trkpt>
<trkpt lat="46.1480220" lon="10.1415810">
	<ele>1214.20</ele>
	<time>2024-09-06T06:09:41.000Z</time>
</trkpt>
<trkpt lat="46.1480180" lon="10.1415750">
	<ele>1214.20</ele>
	<time>2024-09-06T06:09:42.000Z</time>
</trkpt>
<trkpt lat="46.1480160" lon="10.1415680">
	<ele>1214.20</ele>
	<time>2024-09-06T06:09:43.000Z</time>
</trkpt>
<trkpt lat="46.1480110" lon="10.1415490">
	<ele>1214.40</ele>
	<time>2024-09-06T06:09:44.000Z</time>
</trkpt>
<trkpt lat="46.1480020" lon="10.1415320">
	<ele>1214.40</ele>
	<time>2024-09-06T06:09:45.000Z</time>
</trkpt>
<trkpt lat="46.1479930" lon="10.1415160">
	<ele>1214.60</ele>
	<time>2024-09-06T06:09:46.000Z</time>
</trkpt>
<trkpt lat="46.1479810" lon="10.1415020">
	<ele>1214.80</ele>
	<time>2024-09-06T06:09:47.000Z</time>
</trkpt>
<trkpt lat="46.1479700" lon="10.1414910">
	<ele>1214.80</ele>
	<time>2024-09-06T06:09:48.000Z</time>
</trkpt>
<trkpt lat="46.1479600" lon="10.1414760">
	<ele>1215.00</ele>
	<time>2024-09-06T06:09:49.000Z</time>
</trkpt>
<trkpt lat="46.1479500" lon="10.1414630">
	<ele>1215.20</ele>
	<time>2024-09-06T06:09:50.000Z</time>
</trkpt>
<trkpt lat="46.1479400" lon="10.1414570">
	<ele>1215.40</ele>
	<time>2024-09-06T06:09:51.000Z</time>
</trkpt>
<trkpt lat="46.1479300" lon="10.1414510">
	<ele>1215.60</ele>
	<time>2024-09-06T06:09:52.000Z</time>
</trkpt>
<trkpt lat="46.1479190" lon="10.1414380">
	<ele>1215.60</ele>
	<time>2024-09-06T06:09:53.000Z</time>
</trkpt>
<trkpt lat="46.1479120" lon="10.1414230">
	<ele>1215.80</ele>
	<time>2024-09-06T06:09:54.000Z</time>
</trkpt>
<trkpt lat="46.1479090" lon="10.1414060">
	<ele>1215.80</ele>
	<time>2024-09-06T06:09:55.000Z</time>
</trkpt>
<trkpt lat="46.1479070" lon="10.1413840">
	<ele>1216.00</ele>
	<time>2024-09-06T06:09:56.000Z</time>
</trkpt>
<trkpt lat="46.1479090" lon="10.1413650">
	<ele>1216.00</ele>
	<time>2024-09-06T06:09:57.000Z</time>
</trkpt>
<trkpt lat="46.1479090" lon="10.1413510">
	<ele>1216.20</ele>
	<time>2024-09-06T06:09:58.000Z</time>
</trkpt>
<trkpt lat="46.1479070" lon="10.1413360">
	<ele>1216.40</ele>
	<time>2024-09-06T06:09:59.000Z</time>
</trkpt>
<trkpt lat="46.1479040" lon="10.1413220">
	<ele>1216.40</ele>
	<time>2024-09-06T06:10:00.000Z</time>
</trkpt>
<trkpt lat="46.1479000" lon="10.1413120">
	<ele>1216.60</ele>
	<time>2024-09-06T06:10:01.000Z</time>
</trkpt>
<trkpt lat="46.1478970" lon="10.1412890">
	<ele>1216.80</ele>
	<time>2024-09-06T06:10:02.000Z</time>
</trkpt>
<trkpt lat="46.1478910" lon="10.1412710">
	<ele>1216.80</ele>
	<time>2024-09-06T06:10:03.000Z</time>
</trkpt>
<trkpt lat="46.1478790" lon="10.1412520">
	<ele>1217.00</ele>
	<time>2024-09-06T06:10:04.000Z</time>
</trkpt>
<trkpt lat="46.1478700" lon="10.1412340">
	<ele>1217.20</ele>
	<time>2024-09-06T06:10:05.000Z</time>
</trkpt>
<trkpt lat="46.1478600" lon="10.1412160">
	<ele>1217.20</ele>
	<time>2024-09-06T06:10:06.000Z</time>
</trkpt>
<trkpt lat="46.1478490" lon="10.1411990">
	<ele>1217.40</ele>
	<time>2024-09-06T06:10:07.000Z</time>
</trkpt>
<trkpt lat="46.1478430" lon="10.1411820">
	<ele>1217.40</ele>
	<time>2024-09-06T06:10:08.000Z</time>
</trkpt>
<trkpt lat="46.1478310" lon="10.1411660">
	<ele>1217.60</ele>
	<time>2024-09-06T06:10:09.000Z</time>
</trkpt>
<trkpt lat="46.1478330" lon="10.1411500">
	<ele>1217.60</ele>
	<time>2024-09-06T06:10:10.000Z</time>
</trkpt>
<trkpt lat="46.1478360" lon="10.1411400">
	<ele>1217.80</ele>
	<time>2024-09-06T06:10:11.000Z</time>
</trkpt>
<trkpt lat="46.1478300" lon="10.1411230">
	<ele>1217.80</ele>
	<time>2024-09-06T06:10:12.000Z</time>
</trkpt>
<trkpt lat="46.1478180" lon="10.1411070">
	<ele>1218.00</ele>
	<time>2024-09-06T06:10:13.000Z</time>
</trkpt>
<trkpt lat="46.1478100" lon="10.1410860">
	<ele>1218.00</ele>
	<time>2024-09-06T06:10:14.000Z</time>
</trkpt>
<trkpt lat="46.1478010" lon="10.1410710">
	<ele>1218.20</ele>
	<time>2024-09-06T06:10:15.000Z</time>
</trkpt>
<trkpt lat="46.1477930" lon="10.1410550">
	<ele>1218.20</ele>
	<time>2024-09-06T06:10:16.000Z</time>
</trkpt>
<trkpt lat="46.1477880" lon="10.1410390">
	<ele>1218.40</ele>
	<time>2024-09-06T06:10:17.000Z</time>
</trkpt>
<trkpt lat="46.1477780" lon="10.1410210">
	<ele>1218.60</ele>
	<time>2024-09-06T06:10:18.000Z</time>
</trkpt>
<trkpt lat="46.1477700" lon="10.1410020">
	<ele>1218.60</ele>
	<time>2024-09-06T06:10:19.000Z</time>
</trkpt>
<trkpt lat="46.1477600" lon="10.1409830">
	<ele>1218.60</ele>
	<time>2024-09-06T06:10:20.000Z</time>
</trkpt>
<trkpt lat="46.1477510" lon="10.1409670">
	<ele>1218.80</ele>
	<time>2024-09-06T06:10:21.000Z</time>
</trkpt>
<trkpt lat="46.1477460" lon="10.1409510">
	<ele>1218.80</ele>
	<time>2024-09-06T06:10:22.000Z</time>
</trkpt>
<trkpt lat="46.1477410" lon="10.1409340">
	<ele>1219.00</ele>
	<time>2024-09-06T06:10:23.000Z</time>
</trkpt>
<trkpt lat="46.1477370" lon="10.1409140">
	<ele>1219.00</ele>
	<time>2024-09-06T06:10:24.000Z</time>
</trkpt>
<trkpt lat="46.1477320" lon="10.1408950">
	<ele>1219.00</ele>
	<time>2024-09-06T06:10:25.000Z</time>
</trkpt>
<trkpt lat="46.1477280" lon="10.1408810">
	<ele>1219.00</ele>
	<time>2024-09-06T06:10:26.000Z</time>
</trkpt>
<trkpt lat="46.1477250" lon="10.1408650">
	<ele>1219.00</ele>
	<time>2024-09-06T06:10:27.000Z</time>
</trkpt>
<trkpt lat="46.1477200" lon="10.1408490">
	<ele>1219.20</ele>
	<time>2024-09-06T06:10:28.000Z</time>
</trkpt>
<trkpt lat="46.1477180" lon="10.1408360">
	<ele>1219.40</ele>
	<time>2024-09-06T06:10:29.000Z</time>
</trkpt>
<trkpt lat="46.1477140" lon="10.1408260">
	<ele>1219.40</ele>
	<time>2024-09-06T06:10:30.000Z</time>
</trkpt>
<trkpt lat="46.1477070" lon="10.1408130">
	<ele>1219.60</ele>
	<time>2024-09-06T06:10:31.000Z</time>
</trkpt>
<trkpt lat="46.1477020" lon="10.1408010">
	<ele>1219.80</ele>
	<time>2024-09-06T06:10:32.000Z</time>
</trkpt>
<trkpt lat="46.1476990" lon="10.1407890">
	<ele>1219.80</ele>
	<time>2024-09-06T06:10:33.000Z</time>
</trkpt>
<trkpt lat="46.1476970" lon="10.1407760">
	<ele>1220.00</ele>
	<time>2024-09-06T06:10:34.000Z</time>
</trkpt>
<trkpt lat="46.1476940" lon="10.1407540">
	<ele>1220.00</ele>
	<time>2024-09-06T06:10:35.000Z</time>
</trkpt>
<trkpt lat="46.1476900" lon="10.1407370">
	<ele>1220.20</ele>
	<time>2024-09-06T06:10:36.000Z</time>
</trkpt>
<trkpt lat="46.1476850" lon="10.1407250">
	<ele>1220.40</ele>
	<time>2024-09-06T06:10:37.000Z</time>
</trkpt>
<trkpt lat="46.1476760" lon="10.1407070">
	<ele>1220.40</ele>
	<time>2024-09-06T06:10:38.000Z</time>
</trkpt>
<trkpt lat="46.1476690" lon="10.1406970">
	<ele>1220.60</ele>
	<time>2024-09-06T06:10:39.000Z</time>
</trkpt>
<trkpt lat="46.1476600" lon="10.1406840">
	<ele>1220.60</ele>
	<time>2024-09-06T06:10:40.000Z</time>
</trkpt>
<trkpt lat="46.1476510" lon="10.1406700">
	<ele>1220.60</ele>
	<time>2024-09-06T06:10:41.000Z</time>
</trkpt>
<trkpt lat="46.1476420" lon="10.1406530">
	<ele>1220.80</ele>
	<time>2024-09-06T06:10:42.000Z</time>
</trkpt>
<trkpt lat="46.1476310" lon="10.1406390">
	<ele>1221.00</ele>
	<time>2024-09-06T06:10:43.000Z</time>
</trkpt>
<trkpt lat="46.1476210" lon="10.1406210">
	<ele>1221.20</ele>
	<time>2024-09-06T06:10:44.000Z</time>
</trkpt>
<trkpt lat="46.1476160" lon="10.1406040">
	<ele>1221.20</ele>
	<time>2024-09-06T06:10:45.000Z</time>
</trkpt>
<trkpt lat="46.1476090" lon="10.1405870">
	<ele>1221.40</ele>
	<time>2024-09-06T06:10:46.000Z</time>
</trkpt>
<trkpt lat="46.1476040" lon="10.1405720">
	<ele>1221.60</ele>
	<time>2024-09-06T06:10:47.000Z</time>
</trkpt>
<trkpt lat="46.1475970" lon="10.1405500">
	<ele>1221.60</ele>
	<time>2024-09-06T06:10:48.000Z</time>
</trkpt>
<trkpt lat="46.1475940" lon="10.1405390">
	<ele>1221.60</ele>
	<time>2024-09-06T06:10:49.000Z</time>
</trkpt>
<trkpt lat="46.1475950" lon="10.1405290">
	<ele>1221.80</ele>
	<time>2024-09-06T06:10:50.000Z</time>
</trkpt>
<trkpt lat="46.1475930" lon="10.1405150">
	<ele>1221.80</ele>
	<time>2024-09-06T06:10:51.000Z</time>
</trkpt>
<trkpt lat="46.1475900" lon="10.1404980">
	<ele>1221.80</ele>
	<time>2024-09-06T06:10:52.000Z</time>
</trkpt>
<trkpt lat="46.1475850" lon="10.1404830">
	<ele>1222.00</ele>
	<time>2024-09-06T06:10:53.000Z</time>
</trkpt>
<trkpt lat="46.1475820" lon="10.1404660">
	<ele>1222.00</ele>
	<time>2024-09-06T06:10:54.000Z</time>
</trkpt>
<trkpt lat="46.1475780" lon="10.1404510">
	<ele>1222.20</ele>
	<time>2024-09-06T06:10:55.000Z</time>
</trkpt>
<trkpt lat="46.1475710" lon="10.1404360">
	<ele>1222.40</ele>
	<time>2024-09-06T06:10:56.000Z</time>
</trkpt>
<trkpt lat="46.1475620" lon="10.1404180">
	<ele>1222.60</ele>
	<time>2024-09-06T06:10:57.000Z</time>
</trkpt>
<trkpt lat="46.1475530" lon="10.1404000">
	<ele>1222.60</ele>
	<time>2024-09-06T06:10:58.000Z</time>
</trkpt>
<trkpt lat="46.1475420" lon="10.1403830">
	<ele>1222.80</ele>
	<time>2024-09-06T06:10:59.000Z</time>
</trkpt>
<trkpt lat="46.1475300" lon="10.1403660">
	<ele>1222.80</ele>
	<time>2024-09-06T06:11:00.000Z</time>
</trkpt>
<trkpt lat="46.1475200" lon="10.1403470">
	<ele>1222.80</ele>
	<time>2024-09-06T06:11:01.000Z</time>
</trkpt>
<trkpt lat="46.1475070" lon="10.1403330">
	<ele>1222.80</ele>
	<time>2024-09-06T06:11:02.000Z</time>
</trkpt>
<trkpt lat="46.1474930" lon="10.1403200">
	<ele>1223.00</ele>
	<time>2024-09-06T06:11:03.000Z</time>
</trkpt>
<trkpt lat="46.1474780" lon="10.1403080">
	<ele>1223.20</ele>
	<time>2024-09-06T06:11:04.000Z</time>
</trkpt>
<trkpt lat="46.1474670" lon="10.1402940">
	<ele>1223.40</ele>
	<time>2024-09-06T06:11:05.000Z</time>
</trkpt>
<trkpt lat="46.1474530" lon="10.1402890">
	<ele>1223.40</ele>
	<time>2024-09-06T06:11:06.000Z</time>
</trkpt>
<trkpt lat="46.1474350" lon="10.1402760">
	<ele>1223.60</ele>
	<time>2024-09-06T06:11:07.000Z</time>
</trkpt>
<trkpt lat="46.1474260" lon="10.1402620">
	<ele>1223.60</ele>
	<time>2024-09-06T06:11:08.000Z</time>
</trkpt>
<trkpt lat="46.1474180" lon="10.1402450">
	<ele>1223.80</ele>
	<time>2024-09-06T06:11:09.000Z</time>
</trkpt>
<trkpt lat="46.1474170" lon="10.1402310">
	<ele>1224.00</ele>
	<time>2024-09-06T06:11:10.000Z</time>
</trkpt>
<trkpt lat="46.1474200" lon="10.1402220">
	<ele>1224.20</ele>
	<time>2024-09-06T06:11:11.000Z</time>
</trkpt>
<trkpt lat="46.1474160" lon="10.1402100">
	<ele>1224.40</ele>
	<time>2024-09-06T06:11:12.000Z</time>
</trkpt>
<trkpt lat="46.1474040" lon="10.1402010">
	<ele>1224.60</ele>
	<time>2024-09-06T06:11:13.000Z</time>
</trkpt>
<trkpt lat="46.1473860" lon="10.1401840">
	<ele>1224.80</ele>
	<time>2024-09-06T06:11:14.000Z</time>
</trkpt>
<trkpt lat="46.1473680" lon="10.1401740">
	<ele>1224.80</ele>
	<time>2024-09-06T06:11:15.000Z</time>
</trkpt>
<trkpt lat="46.1473620" lon="10.1401690">
	<ele>1225.00</ele>
	<time>2024-09-06T06:11:16.000Z</time>
</trkpt>
<trkpt lat="46.1473480" lon="10.1401670">
	<ele>1225.40</ele>
	<time>2024-09-06T06:11:17.000Z</time>
</trkpt>
<trkpt lat="46.1473370" lon="10.1401540">
	<ele>1225.40</ele>
	<time>2024-09-06T06:11:18.000Z</time>
</trkpt>
<trkpt lat="46.1473280" lon="10.1401420">
	<ele>1225.60</ele>
	<time>2024-09-06T06:11:19.000Z</time>
</trkpt>
<trkpt lat="46.1473200" lon="10.1401250">
	<ele>1226.00</ele>
	<time>2024-09-06T06:11:20.000Z</time>
</trkpt>
<trkpt lat="46.1473180" lon="10.1401120">
	<ele>1226.20</ele>
	<time>2024-09-06T06:11:21.000Z</time>
</trkpt>
<trkpt lat="46.1473150" lon="10.1400970">
	<ele>1226.20</ele>
	<time>2024-09-06T06:11:22.000Z</time>
</trkpt>
<trkpt lat="46.1473170" lon="10.1400830">
	<ele>1226.40</ele>
	<time>2024-09-06T06:11:23.000Z</time>
</trkpt>
<trkpt lat="46.1473140" lon="10.1400640">
	<ele>1226.60</ele>
	<time>2024-09-06T06:11:24.000Z</time>
</trkpt>
<trkpt lat="46.1473110" lon="10.1400460">
	<ele>1226.60</ele>
	<time>2024-09-06T06:11:25.000Z</time>
</trkpt>
<trkpt lat="46.1473010" lon="10.1400310">
	<ele>1226.80</ele>
	<time>2024-09-06T06:11:26.000Z</time>
</trkpt>
<trkpt lat="46.1472930" lon="10.1400180">
	<ele>1227.00</ele>
	<time>2024-09-06T06:11:27.000Z</time>
</trkpt>
<trkpt lat="46.1472890" lon="10.1400060">
	<ele>1227.20</ele>
	<time>2024-09-06T06:11:28.000Z</time>
</trkpt>
<trkpt lat="46.1472830" lon="10.1399940">
	<ele>1227.40</ele>
	<time>2024-09-06T06:11:29.000Z</time>
</trkpt>
<trkpt lat="46.1472790" lon="10.1399760">
	<ele>1227.60</ele>
	<time>2024-09-06T06:11:30.000Z</time>
</trkpt>
<trkpt lat="46.1472750" lon="10.1399660">
	<ele>1227.80</ele>
	<time>2024-09-06T06:11:31.000Z</time>
</trkpt>
<trkpt lat="46.1472640" lon="10.1399530">
	<ele>1228.00</ele>
	<time>2024-09-06T06:11:32.000Z</time>
</trkpt>
<trkpt lat="46.1472560" lon="10.1399410">
	<ele>1228.20</ele>
	<time>2024-09-06T06:11:33.000Z</time>
</trkpt>
<trkpt lat="46.1472490" lon="10.1399280">
	<ele>1228.40</ele>
	<time>2024-09-06T06:11:34.000Z</time>
</trkpt>
<trkpt lat="46.1472440" lon="10.1399190">
	<ele>1228.60</ele>
	<time>2024-09-06T06:11:35.000Z</time>
</trkpt>
<trkpt lat="46.1472390" lon="10.1399050">
	<ele>1228.80</ele>
	<time>2024-09-06T06:11:36.000Z</time>
</trkpt>
<trkpt lat="46.1472310" lon="10.1398910">
	<ele>1229.00</ele>
	<time>2024-09-06T06:11:37.000Z</time>
</trkpt>
<trkpt lat="46.1472230" lon="10.1398760">
	<ele>1229.00</ele>
	<time>2024-09-06T06:11:38.000Z</time>
</trkpt>
<trkpt lat="46.1472160" lon="10.1398640">
	<ele>1229.40</ele>
	<time>2024-09-06T06:11:39.000Z</time>
</trkpt>
<trkpt lat="46.1472100" lon="10.1398510">
	<ele>1229.60</ele>
	<time>2024-09-06T06:11:40.000Z</time>
</trkpt>
<trkpt lat="46.1472050" lon="10.1398360">
	<ele>1229.60</ele>
	<time>2024-09-06T06:11:41.000Z</time>
</trkpt>
<trkpt lat="46.1472020" lon="10.1398220">
	<ele>1229.80</ele>
	<time>2024-09-06T06:11:42.000Z</time>
</trkpt>
<trkpt lat="46.1472000" lon="10.1398100">
	<ele>1230.00</ele>
	<time>2024-09-06T06:11:43.000Z</time>
</trkpt>
<trkpt lat="46.1471960" lon="10.1397960">
	<ele>1230.20</ele>
	<time>2024-09-06T06:11:44.000Z</time>
</trkpt>
<trkpt lat="46.1471870" lon="10.1397810">
	<ele>1230.40</ele>
	<time>2024-09-06T06:11:45.000Z</time>
</trkpt>
<trkpt lat="46.1471780" lon="10.1397750">
	<ele>1230.60</ele>
	<time>2024-09-06T06:11:46.000Z</time>
</trkpt>
<trkpt lat="46.1471740" lon="10.1397660">
	<ele>1230.80</ele>
	<time>2024-09-06T06:11:47.000Z</time>
</trkpt>
<trkpt lat="46.1471710" lon="10.1397560">
	<ele>1231.20</ele>
	<time>2024-09-06T06:11:48.000Z</time>
</trkpt>
<trkpt lat="46.1471650" lon="10.1397460">
	<ele>1231.40</ele>
	<time>2024-09-06T06:11:49.000Z</time>
</trkpt>
<trkpt lat="46.1471620" lon="10.1397370">
	<ele>1231.60</ele>
	<time>2024-09-06T06:11:50.000Z</time>
</trkpt>
<trkpt lat="46.1471570" lon="10.1397290">
	<ele>1231.80</ele>
	<time>2024-09-06T06:11:51.000Z</time>
</trkpt>
<trkpt lat="46.1471510" lon="10.1397200">
	<ele>1231.80</ele>
	<time>2024-09-06T06:11:52.000Z</time>
</trkpt>
<trkpt lat="46.1471440" lon="10.1397050">
	<ele>1232.00</ele>
	<time>2024-09-06T06:11:53.000Z</time>
</trkpt>
<trkpt lat="46.1471390" lon="10.1396920">
	<ele>1232.20</ele>
	<time>2024-09-06T06:11:54.000Z</time>
</trkpt>
<trkpt lat="46.1471320" lon="10.1396760">
	<ele>1232.40</ele>
	<time>2024-09-06T06:11:55.000Z</time>
</trkpt>
<trkpt lat="46.1471290" lon="10.1396630">
	<ele>1232.60</ele>
	<time>2024-09-06T06:11:56.000Z</time>
</trkpt>
<trkpt lat="46.1471240" lon="10.1396500">
	<ele>1232.60</ele>
	<time>2024-09-06T06:11:57.000Z</time>
</trkpt>
<trkpt lat="46.1471220" lon="10.1396290">
	<ele>1232.60</ele>
	<time>2024-09-06T06:11:58.000Z</time>
</trkpt>
<trkpt lat="46.1471190" lon="10.1396110">
	<ele>1232.80</ele>
	<time>2024-09-06T06:11:59.000Z</time>
</trkpt>
<trkpt lat="46.1471130" lon="10.1395960">
	<ele>1233.00</ele>
	<time>2024-09-06T06:12:00.000Z</time>
</trkpt>
<trkpt lat="46.1471070" lon="10.1395840">
	<ele>1233.00</ele>
	<time>2024-09-06T06:12:01.000Z</time>
</trkpt>
<trkpt lat="46.1471000" lon="10.1395740">
	<ele>1233.20</ele>
	<time>2024-09-06T06:12:02.000Z</time>
</trkpt>
<trkpt lat="46.1470950" lon="10.1395650">
	<ele>1233.20</ele>
	<time>2024-09-06T06:12:03.000Z</time>
</trkpt>
<trkpt lat="46.1470890" lon="10.1395500">
	<ele>1233.40</ele>
	<time>2024-09-06T06:12:04.000Z</time>
</trkpt>
<trkpt lat="46.1470830" lon="10.1395390">
	<ele>1233.40</ele>
	<time>2024-09-06T06:12:05.000Z</time>
</trkpt>
<trkpt lat="46.1470790" lon="10.1395280">
	<ele>1233.40</ele>
	<time>2024-09-06T06:12:06.000Z</time>
</trkpt>
<trkpt lat="46.1470680" lon="10.1395130">
	<ele>1233.60</ele>
	<time>2024-09-06T06:12:07.000Z</time>
</trkpt>
<trkpt lat="46.1470560" lon="10.1394950">
	<ele>1233.60</ele>
	<time>2024-09-06T06:12:08.000Z</time>
</trkpt>
<trkpt lat="46.1470490" lon="10.1394820">
	<ele>1233.60</ele>
	<time>2024-09-06T06:12:09.000Z</time>
</trkpt>
<trkpt lat="46.1470460" lon="10.1394700">
	<ele>1233.60</ele>
	<time>2024-09-06T06:12:10.000Z</time>
</trkpt>
<trkpt lat="46.1470430" lon="10.1394540">
	<ele>1233.80</ele>
	<time>2024-09-06T06:12:11.000Z</time>
</trkpt>
<trkpt lat="46.1470420" lon="10.1394490">
	<ele>1234.00</ele>
	<time>2024-09-06T06:12:12.000Z</time>
</trkpt>
<trkpt lat="46.1470420" lon="10.1394480">
	<ele>1234.00</ele>
	<time>2024-09-06T06:12:13.000Z</time>
</trkpt>
<trkpt lat="46.1470360" lon="10.1394440">
	<ele>1234.20</ele>
	<time>2024-09-06T06:12:14.000Z</time>
</trkpt>
<trkpt lat="46.1470260" lon="10.1394350">
	<ele>1234.20</ele>
	<time>2024-09-06T06:12:15.000Z</time>
</trkpt>
<trkpt lat="46.1470120" lon="10.1394260">
	<ele>1234.20</ele>
	<time>2024-09-06T06:12:16.000Z</time>
</trkpt>
<trkpt lat="46.1470010" lon="10.1394170">
	<ele>1234.20</ele>
	<time>2024-09-06T06:12:17.000Z</time>
</trkpt>
<trkpt lat="46.1469910" lon="10.1394090">
	<ele>1234.20</ele>
	<time>2024-09-06T06:12:18.000Z</time>
</trkpt>
<trkpt lat="46.1469840" lon="10.1393960">
	<ele>1234.20</ele>
	<time>2024-09-06T06:12:19.000Z</time>
</trkpt>
<trkpt lat="46.1469800" lon="10.1393810">
	<ele>1234.20</ele>
	<time>2024-09-06T06:12:20.000Z</time>
</trkpt>
<trkpt lat="46.1469780" lon="10.1393690">
	<ele>1234.20</ele>
	<time>2024-09-06T06:12:21.000Z</time>
</trkpt>
<trkpt lat="46.1469750" lon="10.1393570">
	<ele>1234.40</ele>
	<time>2024-09-06T06:12:22.000Z</time>
</trkpt>
<trkpt lat="46.1469720" lon="10.1393420">
	<ele>1234.40</ele>
	<time>2024-09-06T06:12:23.000Z</time>
</trkpt>
<trkpt lat="46.1469590" lon="10.1393220">
	<ele>1234.60</ele>
	<time>2024-09-06T06:12:24.000Z</time>
</trkpt>
<trkpt lat="46.1469440" lon="10.1393080">
	<ele>1234.60</ele>
	<time>2024-09-06T06:12:25.000Z</time>
</trkpt>
<trkpt lat="46.1469340" lon="10.1392950">
	<ele>1234.60</ele>
	<time>2024-09-06T06:12:26.000Z</time>
</trkpt>
<trkpt lat="46.1469270" lon="10.1392830">
	<ele>1234.80</ele>
	<time>2024-09-06T06:12:27.000Z</time>
</trkpt>
<trkpt lat="46.1469190" lon="10.1392730">
	<ele>1234.80</ele>
	<time>2024-09-06T06:12:28.000Z</time>
</trkpt>
<trkpt lat="46.1469110" lon="10.1392640">
	<ele>1235.00</ele>
	<time>2024-09-06T06:12:29.000Z</time>
</trkpt>
<trkpt lat="46.1469010" lon="10.1392520">
	<ele>1235.20</ele>
	<time>2024-09-06T06:12:30.000Z</time>
</trkpt>
<trkpt lat="46.1468880" lon="10.1392360">
	<ele>1235.40</ele>
	<time>2024-09-06T06:12:31.000Z</time>
</trkpt>
<trkpt lat="46.1468770" lon="10.1392210">
	<ele>1235.40</ele>
	<time>2024-09-06T06:12:32.000Z</time>
</trkpt>
<trkpt lat="46.1468660" lon="10.1392090">
	<ele>1235.40</ele>
	<time>2024-09-06T06:12:33.000Z</time>
</trkpt>
<trkpt lat="46.1468600" lon="10.1391990">
	<ele>1235.40</ele>
	<time>2024-09-06T06:12:34.000Z</time>
</trkpt>
<trkpt lat="46.1468510" lon="10.1391860">
	<ele>1235.40</ele>
	<time>2024-09-06T06:12:35.000Z</time>
</trkpt>
<trkpt lat="46.1468400" lon="10.1391720">
	<ele>1235.40</ele>
	<time>2024-09-06T06:12:36.000Z</time>
</trkpt>
<trkpt lat="46.1468300" lon="10.1391600">
	<ele>1235.40</ele>
	<time>2024-09-06T06:12:37.000Z</time>
</trkpt>
<trkpt lat="46.1468210" lon="10.1391470">
	<ele>1235.40</ele>
	<time>2024-09-06T06:12:38.000Z</time>
</trkpt>
<trkpt lat="46.1468130" lon="10.1391340">
	<ele>1235.40</ele>
	<time>2024-09-06T06:12:39.000Z</time>
</trkpt>
<trkpt lat="46.1468040" lon="10.1391170">
	<ele>1235.40</ele>
	<time>2024-09-06T06:12:40.000Z</time>
</trkpt>
<trkpt lat="46.1467980" lon="10.1391100">
	<ele>1235.60</ele>
	<time>2024-09-06T06:12:41.000Z</time>
</trkpt>
<trkpt lat="46.1467910" lon="10.1390950">
	<ele>1235.60</ele>
	<time>2024-09-06T06:12:42.000Z</time>
</trkpt>
<trkpt lat="46.1467850" lon="10.1390810">
	<ele>1236.00</ele>
	<time>2024-09-06T06:12:43.000Z</time>
</trkpt>
<trkpt lat="46.1467800" lon="10.1390640">
	<ele>1236.00</ele>
	<time>2024-09-06T06:12:44.000Z</time>
</trkpt>
<trkpt lat="46.1467760" lon="10.1390490">
	<ele>1236.20</ele>
	<time>2024-09-06T06:12:45.000Z</time>
</trkpt>
<trkpt lat="46.1467690" lon="10.1390320">
	<ele>1236.20</ele>
	<time>2024-09-06T06:12:46.000Z</time>
</trkpt>
<trkpt lat="46.1467600" lon="10.1390110">
	<ele>1236.20</ele>
	<time>2024-09-06T06:12:47.000Z</time>
</trkpt>
<trkpt lat="46.1467510" lon="10.1389920">
	<ele>1236.40</ele>
	<time>2024-09-06T06:12:48.000Z</time>
</trkpt>
<trkpt lat="46.1467430" lon="10.1389790">
	<ele>1236.60</ele>
	<time>2024-09-06T06:12:49.000Z</time>
</trkpt>
<trkpt lat="46.1467350" lon="10.1389650">
	<ele>1236.80</ele>
	<time>2024-09-06T06:12:50.000Z</time>
</trkpt>
<trkpt lat="46.1467260" lon="10.1389510">
	<ele>1237.00</ele>
	<time>2024-09-06T06:12:51.000Z</time>
</trkpt>
<trkpt lat="46.1467170" lon="10.1389360">
	<ele>1237.00</ele>
	<time>2024-09-06T06:12:52.000Z</time>
</trkpt>
<trkpt lat="46.1467070" lon="10.1389200">
	<ele>1237.20</ele>
	<time>2024-09-06T06:12:53.000Z</time>
</trkpt>
<trkpt lat="46.1467040" lon="10.1389070">
	<ele>1237.40</ele>
	<time>2024-09-06T06:12:54.000Z</time>
</trkpt>
<trkpt lat="46.1466990" lon="10.1388960">
	<ele>1237.60</ele>
	<time>2024-09-06T06:12:55.000Z</time>
</trkpt>
<trkpt lat="46.1466940" lon="10.1388830">
	<ele>1237.60</ele>
	<time>2024-09-06T06:12:56.000Z</time>
</trkpt>
<trkpt lat="46.1466880" lon="10.1388690">
	<ele>1238.00</ele>
	<time>2024-09-06T06:12:57.000Z</time>
</trkpt>
<trkpt lat="46.1466810" lon="10.1388520">
	<ele>1238.00</ele>
	<time>2024-09-06T06:12:58.000Z</time>
</trkpt>
<trkpt lat="46.1466680" lon="10.1388350">
	<ele>1238.40</ele>
	<time>2024-09-06T06:12:59.000Z</time>
</trkpt>
<trkpt lat="46.1466540" lon="10.1388170">
	<ele>1238.40</ele>
	<time>2024-09-06T06:13:00.000Z</time>
</trkpt>
<trkpt lat="46.1466430" lon="10.1388060">
	<ele>1238.60</ele>
	<time>2024-09-06T06:13:01.000Z</time>
</trkpt>
<trkpt lat="46.1466400" lon="10.1387900">
	<ele>1238.80</ele>
	<time>2024-09-06T06:13:02.000Z</time>
</trkpt>
<trkpt lat="46.1466380" lon="10.1387740">
	<ele>1239.00</ele>
	<time>2024-09-06T06:13:03.000Z</time>
</trkpt>
<trkpt lat="46.1466340" lon="10.1387610">
	<ele>1239.00</ele>
	<time>2024-09-06T06:13:04.000Z</time>
</trkpt>
<trkpt lat="46.1466290" lon="10.1387510">
	<ele>1239.20</ele>
	<time>2024-09-06T06:13:05.000Z</time>
</trkpt>
<trkpt lat="46.1466220" lon="10.1387350">
	<ele>1239.40</ele>
	<time>2024-09-06T06:13:06.000Z</time>
</trkpt>
<trkpt lat="46.1466180" lon="10.1387200">
	<ele>1239.60</ele>
	<time>2024-09-06T06:13:07.000Z</time>
</trkpt>
<trkpt lat="46.1466090" lon="10.1387030">
	<ele>1239.80</ele>
	<time>2024-09-06T06:13:08.000Z</time>
</trkpt>
<trkpt lat="46.1465980" lon="10.1386860">
	<ele>1239.80</ele>
	<time>2024-09-06T06:13:09.000Z</time>
</trkpt>
<trkpt lat="46.1465880" lon="10.1386700">
	<ele>1240.00</ele>
	<time>2024-09-06T06:13:10.000Z</time>
</trkpt>
<trkpt lat="46.1465830" lon="10.1386580">
	<ele>1240.20</ele>
	<time>2024-09-06T06:13:11.000Z</time>
</trkpt>
<trkpt lat="46.1465760" lon="10.1386410">
	<ele>1240.40</ele>
	<time>2024-09-06T06:13:12.000Z</time>
</trkpt>
<trkpt lat="46.1465730" lon="10.1386270">
	<ele>1240.40</ele>
	<time>2024-09-06T06:13:13.000Z</time>
</trkpt>
<trkpt lat="46.1465680" lon="10.1386110">
	<ele>1240.40</ele>
	<time>2024-09-06T06:13:14.000Z</time>
</trkpt>
<trkpt lat="46.1465620" lon="10.1385960">
	<ele>1240.60</ele>
	<time>2024-09-06T06:13:15.000Z</time>
</trkpt>
<trkpt lat="46.1465530" lon="10.1385830">
	<ele>1240.80</ele>
	<time>2024-09-06T06:13:16.000Z</time>
</trkpt>
<trkpt lat="46.1465420" lon="10.1385680">
	<ele>1240.80</ele>
	<time>2024-09-06T06:13:17.000Z</time>
</trkpt>
<trkpt lat="46.1465320" lon="10.1385550">
	<ele>1241.00</ele>
	<time>2024-09-06T06:13:18.000Z</time>
</trkpt>
<trkpt lat="46.1465230" lon="10.1385380">
	<ele>1241.00</ele>
	<time>2024-09-06T06:13:19.000Z</time>
</trkpt>
<trkpt lat="46.1465120" lon="10.1385180">
	<ele>1241.20</ele>
	<time>2024-09-06T06:13:20.000Z</time>
</trkpt>
<trkpt lat="46.1465010" lon="10.1384990">
	<ele>1241.40</ele>
	<time>2024-09-06T06:13:21.000Z</time>
</trkpt>
<trkpt lat="46.1464940" lon="10.1384830">
	<ele>1241.40</ele>
	<time>2024-09-06T06:13:22.000Z</time>
</trkpt>
<trkpt lat="46.1464890" lon="10.1384740">
	<ele>1241.60</ele>
	<time>2024-09-06T06:13:23.000Z</time>
</trkpt>
<trkpt lat="46.1464900" lon="10.1384680">
	<ele>1241.80</ele>
	<time>2024-09-06T06:13:24.000Z</time>
</trkpt>
<trkpt lat="46.1464850" lon="10.1384540">
	<ele>1241.80</ele>
	<time>2024-09-06T06:13:25.000Z</time>
</trkpt>
<trkpt lat="46.1464800" lon="10.1384430">
	<ele>1242.00</ele>
	<time>2024-09-06T06:13:26.000Z</time>
</trkpt>
<trkpt lat="46.1464740" lon="10.1384290">
	<ele>1242.20</ele>
	<time>2024-09-06T06:13:27.000Z</time>
</trkpt>
<trkpt lat="46.1464670" lon="10.1384140">
	<ele>1242.40</ele>
	<time>2024-09-06T06:13:28.000Z</time>
</trkpt>
<trkpt lat="46.1464610" lon="10.1383960">
	<ele>1242.60</ele>
	<time>2024-09-06T06:13:29.000Z</time>
</trkpt>
<trkpt lat="46.1464540" lon="10.1383790">
	<ele>1242.80</ele>
	<time>2024-09-06T06:13:30.000Z</time>
</trkpt>
<trkpt lat="46.1464470" lon="10.1383590">
	<ele>1243.00</ele>
	<time>2024-09-06T06:13:31.000Z</time>
</trkpt>
<trkpt lat="46.1464390" lon="10.1383440">
	<ele>1243.00</ele>
	<time>2024-09-06T06:13:32.000Z</time>
</trkpt>
<trkpt lat="46.1464310" lon="10.1383270">
	<ele>1243.00</ele>
	<time>2024-09-06T06:13:33.000Z</time>
</trkpt>
<trkpt lat="46.1464230" lon="10.1383130">
	<ele>1243.00</ele>
	<time>2024-09-06T06:13:34.000Z</time>
</trkpt>
<trkpt lat="46.1464160" lon="10.1382990">
	<ele>1243.20</ele>
	<time>2024-09-06T06:13:35.000Z</time>
</trkpt>
<trkpt lat="46.1464090" lon="10.1382830">
	<ele>1243.20</ele>
	<time>2024-09-06T06:13:36.000Z</time>
</trkpt>
<trkpt lat="46.1464030" lon="10.1382680">
	<ele>1243.20</ele>
	<time>2024-09-06T06:13:37.000Z</time>
</trkpt>
<trkpt lat="46.1463930" lon="10.1382550">
	<ele>1243.20</ele>
	<time>2024-09-06T06:13:38.000Z</time>
</trkpt>
<trkpt lat="46.1463860" lon="10.1382400">
	<ele>1243.40</ele>
	<time>2024-09-06T06:13:39.000Z</time>
</trkpt>
<trkpt lat="46.1463800" lon="10.1382250">
	<ele>1243.40</ele>
	<time>2024-09-06T06:13:40.000Z</time>
</trkpt>
<trkpt lat="46.1463700" lon="10.1382060">
	<ele>1243.60</ele>
	<time>2024-09-06T06:13:41.000Z</time>
</trkpt>
<trkpt lat="46.1463610" lon="10.1381860">
	<ele>1243.60</ele>
	<time>2024-09-06T06:13:42.000Z</time>
</trkpt>
<trkpt lat="46.1463520" lon="10.1381660">
	<ele>1243.60</ele>
	<time>2024-09-06T06:13:43.000Z</time>
</trkpt>
<trkpt lat="46.1463440" lon="10.1381480">
	<ele>1243.60</ele>
	<time>2024-09-06T06:13:44.000Z</time>
</trkpt>
<trkpt lat="46.1463360" lon="10.1381310">
	<ele>1243.60</ele>
	<time>2024-09-06T06:13:45.000Z</time>
</trkpt>
<trkpt lat="46.1463320" lon="10.1381100">
	<ele>1243.60</ele>
	<time>2024-09-06T06:13:46.000Z</time>
</trkpt>
<trkpt lat="46.1463270" lon="10.1380970">
	<ele>1243.80</ele>
	<time>2024-09-06T06:13:47.000Z</time>
</trkpt>
<trkpt lat="46.1463210" lon="10.1380850">
	<ele>1243.80</ele>
	<time>2024-09-06T06:13:48.000Z</time>
</trkpt>
<trkpt lat="46.1463150" lon="10.1380710">
	<ele>1243.80</ele>
	<time>2024-09-06T06:13:49.000Z</time>
</trkpt>
<trkpt lat="46.1463090" lon="10.1380560">
	<ele>1243.80</ele>
	<time>2024-09-06T06:13:50.000Z</time>
</trkpt>
<trkpt lat="46.1463020" lon="10.1380410">
	<ele>1244.00</ele>
	<time>2024-09-06T06:13:51.000Z</time>
</trkpt>
<trkpt lat="46.1462970" lon="10.1380290">
	<ele>1244.00</ele>
	<time>2024-09-06T06:13:52.000Z</time>
</trkpt>
<trkpt lat="46.1462920" lon="10.1380110">
	<ele>1244.20</ele>
	<time>2024-09-06T06:13:53.000Z</time>
</trkpt>
<trkpt lat="46.1462830" lon="10.1379940">
	<ele>1244.20</ele>
	<time>2024-09-06T06:13:54.000Z</time>
</trkpt>
<trkpt lat="46.1462750" lon="10.1379770">
	<ele>1244.40</ele>
	<time>2024-09-06T06:13:55.000Z</time>
</trkpt>
<trkpt lat="46.1462680" lon="10.1379610">
	<ele>1244.40</ele>
	<time>2024-09-06T06:13:56.000Z</time>
</trkpt>
<trkpt lat="46.1462570" lon="10.1379410">
	<ele>1244.60</ele>
	<time>2024-09-06T06:13:57.000Z</time>
</trkpt>
<trkpt lat="46.1462470" lon="10.1379300">
	<ele>1244.60</ele>
	<time>2024-09-06T06:13:58.000Z</time>
</trkpt>
<trkpt lat="46.1462420" lon="10.1379190">
	<ele>1244.60</ele>
	<time>2024-09-06T06:13:59.000Z</time>
</trkpt>
<trkpt lat="46.1462340" lon="10.1379110">
	<ele>1244.60</ele>
	<time>2024-09-06T06:14:00.000Z</time>
</trkpt>
<trkpt lat="46.1462290" lon="10.1378960">
	<ele>1244.60</ele>
	<time>2024-09-06T06:14:01.000Z</time>
</trkpt>
<trkpt lat="46.1462140" lon="10.1378920">
	<ele>1244.60</ele>
	<time>2024-09-06T06:14:02.000Z</time>
</trkpt>
<trkpt lat="46.1462020" lon="10.1378820">
	<ele>1244.80</ele>
	<time>2024-09-06T06:14:03.000Z</time>
</trkpt>
<trkpt lat="46.1461900" lon="10.1378610">
	<ele>1245.00</ele>
	<time>2024-09-06T06:14:04.000Z</time>
</trkpt>
<trkpt lat="46.1461760" lon="10.1378370">
	<ele>1245.00</ele>
	<time>2024-09-06T06:14:05.000Z</time>
</trkpt>
<trkpt lat="46.1461650" lon="10.1378230">
	<ele>1245.20</ele>
	<time>2024-09-06T06:14:06.000Z</time>
</trkpt>
<trkpt lat="46.1461610" lon="10.1378140">
	<ele>1245.20</ele>
	<time>2024-09-06T06:14:07.000Z</time>
</trkpt>
<trkpt lat="46.1461550" lon="10.1378040">
	<ele>1245.40</ele>
	<time>2024-09-06T06:14:08.000Z</time>
</trkpt>
<trkpt lat="46.1461500" lon="10.1377940">
	<ele>1245.60</ele>
	<time>2024-09-06T06:14:09.000Z</time>
</trkpt>
<trkpt lat="46.1461450" lon="10.1377840">
	<ele>1245.60</ele>
	<time>2024-09-06T06:14:10.000Z</time>
</trkpt>
<trkpt lat="46.1461410" lon="10.1377760">
	<ele>1245.60</ele>
	<time>2024-09-06T06:14:11.000Z</time>
</trkpt>
<trkpt lat="46.1461340" lon="10.1377620">
	<ele>1245.80</ele>
	<time>2024-09-06T06:14:12.000Z</time>
</trkpt>
<trkpt lat="46.1461320" lon="10.1377440">
	<ele>1246.00</ele>
	<time>2024-09-06T06:14:13.000Z</time>
</trkpt>
<trkpt lat="46.1461250" lon="10.1377270">
	<ele>1246.20</ele>
	<time>2024-09-06T06:14:14.000Z</time>
</trkpt>
<trkpt lat="46.1461220" lon="10.1377140">
	<ele>1246.40</ele>
	<time>2024-09-06T06:14:15.000Z</time>
</trkpt>
<trkpt lat="46.1461220" lon="10.1376980">
	<ele>1246.60</ele>
	<time>2024-09-06T06:14:16.000Z</time>
</trkpt>
<trkpt lat="46.1461200" lon="10.1376800">
	<ele>1246.80</ele>
	<time>2024-09-06T06:14:17.000Z</time>
</trkpt>
<trkpt lat="46.1461150" lon="10.1376670">
	<ele>1246.80</ele>
	<time>2024-09-06T06:14:18.000Z</time>
</trkpt>
<trkpt lat="46.1461100" lon="10.1376580">
	<ele>1247.20</ele>
	<time>2024-09-06T06:14:19.000Z</time>
</trkpt>
<trkpt lat="46.1461100" lon="10.1376460">
	<ele>1247.20</ele>
	<time>2024-09-06T06:14:20.000Z</time>
</trkpt>
<trkpt lat="46.1461080" lon="10.1376280">
	<ele>1247.20</ele>
	<time>2024-09-06T06:14:21.000Z</time>
</trkpt>
<trkpt lat="46.1461010" lon="10.1376170">
	<ele>1247.40</ele>
	<time>2024-09-06T06:14:22.000Z</time>
</trkpt>
<trkpt lat="46.1460930" lon="10.1376010">
	<ele>1247.60</ele>
	<time>2024-09-06T06:14:23.000Z</time>
</trkpt>
<trkpt lat="46.1460850" lon="10.1375880">
	<ele>1247.80</ele>
	<time>2024-09-06T06:14:24.000Z</time>
</trkpt>
<trkpt lat="46.1460770" lon="10.1375740">
	<ele>1248.20</ele>
	<time>2024-09-06T06:14:25.000Z</time>
</trkpt>
<trkpt lat="46.1460720" lon="10.1375650">
	<ele>1248.20</ele>
	<time>2024-09-06T06:14:26.000Z</time>
</trkpt>
<trkpt lat="46.1460670" lon="10.1375520">
	<ele>1248.40</ele>
	<time>2024-09-06T06:14:27.000Z</time>
</trkpt>
<trkpt lat="46.1460580" lon="10.1375360">
	<ele>1248.60</ele>
	<time>2024-09-06T06:14:28.000Z</time>
</trkpt>
<trkpt lat="46.1460490" lon="10.1375120">
	<ele>1248.80</ele>
	<time>2024-09-06T06:14:29.000Z</time>
</trkpt>
<trkpt lat="46.1460330" lon="10.1374920">
	<ele>1249.00</ele>
	<time>2024-09-06T06:14:30.000Z</time>
</trkpt>
<trkpt lat="46.1460170" lon="10.1374810">
	<ele>1249.00</ele>
	<time>2024-09-06T06:14:31.000Z</time>
</trkpt>
<trkpt lat="46.1460020" lon="10.1374760">
	<ele>1249.20</ele>
	<time>2024-09-06T06:14:32.000Z</time>
</trkpt>
<trkpt lat="46.1459930" lon="10.1374740">
	<ele>1249.20</ele>
	<time>2024-09-06T06:14:33.000Z</time>
</trkpt>
<trkpt lat="46.1459910" lon="10.1374720">
	<ele>1249.20</ele>
	<time>2024-09-06T06:14:34.000Z</time>
</trkpt>
<trkpt lat="46.1459900" lon="10.1374750">
	<ele>1249.40</ele>
	<time>2024-09-06T06:14:35.000Z</time>
</trkpt>
<trkpt lat="46.1459880" lon="10.1374770">
	<ele>1249.40</ele>
	<time>2024-09-06T06:14:36.000Z</time>
</trkpt>
<trkpt lat="46.1459930" lon="10.1374780">
	<ele>1249.40</ele>
	<time>2024-09-06T06:14:37.000Z</time>
</trkpt>
<trkpt lat="46.1459980" lon="10.1374790">
	<ele>1249.40</ele>
	<time>2024-09-06T06:14:38.000Z</time>
</trkpt>
<trkpt lat="46.1460000" lon="10.1374810">
	<ele>1249.40</ele>
	<time>2024-09-06T06:14:39.000Z</time>
</trkpt>
<trkpt lat="46.1460020" lon="10.1374820">
	<ele>1249.40</ele>
	<time>2024-09-06T06:14:40.000Z</time>
</trkpt>
<trkpt lat="46.1460030" lon="10.1374820">
	<ele>1249.60</ele>
	<time>2024-09-06T06:14:41.000Z</time>
</trkpt>
<trkpt lat="46.1460050" lon="10.1374740">
	<ele>1249.60</ele>
	<time>2024-09-06T06:14:42.000Z</time>
</trkpt>
<trkpt lat="46.1460050" lon="10.1374730">
	<ele>1249.80</ele>
	<time>2024-09-06T06:14:43.000Z</time>
</trkpt>
<trkpt lat="46.1460050" lon="10.1374700">
	<ele>1249.80</ele>
	<time>2024-09-06T06:14:44.000Z</time>
</trkpt>
<trkpt lat="46.1460060" lon="10.1374680">
	<ele>1249.80</ele>
	<time>2024-09-06T06:14:45.000Z</time>
</trkpt>
<trkpt lat="46.1460010" lon="10.1374640">
	<ele>1249.80</ele>
	<time>2024-09-06T06:14:46.000Z</time>
</trkpt>
<trkpt lat="46.1460010" lon="10.1374620">
	<ele>1249.60</ele>
	<time>2024-09-06T06:14:47.000Z</time>
</trkpt>
<trkpt lat="46.1460030" lon="10.1374650">
	<ele>1249.60</ele>
	<time>2024-09-06T06:14:48.000Z</time>
</trkpt>
<trkpt lat="46.1459960" lon="10.1374610">
	<ele>1249.60</ele>
	<time>2024-09-06T06:14:49.000Z</time>
</trkpt>
<trkpt lat="46.1459840" lon="10.1374560">
	<ele>1249.60</ele>
	<time>2024-09-06T06:14:50.000Z</time>
</trkpt>
<trkpt lat="46.1459780" lon="10.1374550">
	<ele>1249.80</ele>
	<time>2024-09-06T06:14:51.000Z</time>
</trkpt>
<trkpt lat="46.1459730" lon="10.1374540">
	<ele>1249.80</ele>
	<time>2024-09-06T06:14:52.000Z</time>
</trkpt>
<trkpt lat="46.1459670" lon="10.1374450">
	<ele>1250.00</ele>
	<time>2024-09-06T06:14:53.000Z</time>
</trkpt>
<trkpt lat="46.1459620" lon="10.1374440">
	<ele>1250.00</ele>
	<time>2024-09-06T06:14:54.000Z</time>
</trkpt>
<trkpt lat="46.1459570" lon="10.1374360">
	<ele>1250.20</ele>
	<time>2024-09-06T06:14:55.000Z</time>
</trkpt>
<trkpt lat="46.1459550" lon="10.1374350">
	<ele>1250.20</ele>
	<time>2024-09-06T06:14:56.000Z</time>
</trkpt>
<trkpt lat="46.1459520" lon="10.1374350">
	<ele>1250.40</ele>
	<time>2024-09-06T06:14:57.000Z</time>
</trkpt>
<trkpt lat="46.1459460" lon="10.1374280">
	<ele>1250.60</ele>
	<time>2024-09-06T06:14:58.000Z</time>
</trkpt>
<trkpt lat="46.1459440" lon="10.1374160">
	<ele>1250.60</ele>
	<time>2024-09-06T06:14:59.000Z</time>
</trkpt>
<trkpt lat="46.1459360" lon="10.1374070">
	<ele>1250.80</ele>
	<time>2024-09-06T06:15:00.000Z</time>
</trkpt>
<trkpt lat="46.1459250" lon="10.1373980">
	<ele>1251.00</ele>
	<time>2024-09-06T06:15:01.000Z</time>
</trkpt>
<trkpt lat="46.1459130" lon="10.1373880">
	<ele>1251.20</ele>
	<time>2024-09-06T06:15:02.000Z</time>
</trkpt>
<trkpt lat="46.1459000" lon="10.1373710">
	<ele>1251.40</ele>
	<time>2024-09-06T06:15:03.000Z</time>
</trkpt>
<trkpt lat="46.1458960" lon="10.1373530">
	<ele>1251.60</ele>
	<time>2024-09-06T06:15:04.000Z</time>
</trkpt>
<trkpt lat="46.1458920" lon="10.1373340">
	<ele>1251.80</ele>
	<time>2024-09-06T06:15:05.000Z</time>
</trkpt>
<trkpt lat="46.1458860" lon="10.1373120">
	<ele>1252.00</ele>
	<time>2024-09-06T06:15:06.000Z</time>
</trkpt>
<trkpt lat="46.1458810" lon="10.1372880">
	<ele>1252.20</ele>
	<time>2024-09-06T06:15:07.000Z</time>
</trkpt>
<trkpt lat="46.1458800" lon="10.1372690">
	<ele>1252.40</ele>
	<time>2024-09-06T06:15:08.000Z</time>
</trkpt>
<trkpt lat="46.1458770" lon="10.1372520">
	<ele>1252.60</ele>
	<time>2024-09-06T06:15:09.000Z</time>
</trkpt>
<trkpt lat="46.1458720" lon="10.1372310">
	<ele>1252.60</ele>
	<time>2024-09-06T06:15:10.000Z</time>
</trkpt>
<trkpt lat="46.1458630" lon="10.1372120">
	<ele>1252.80</ele>
	<time>2024-09-06T06:15:11.000Z</time>
</trkpt>
<trkpt lat="46.1458570" lon="10.1371930">
	<ele>1253.00</ele>
	<time>2024-09-06T06:15:12.000Z</time>
</trkpt>
<trkpt lat="46.1458490" lon="10.1371730">
	<ele>1253.20</ele>
	<time>2024-09-06T06:15:13.000Z</time>
</trkpt>
<trkpt lat="46.1458470" lon="10.1371590">
	<ele>1253.40</ele>
	<time>2024-09-06T06:15:14.000Z</time>
</trkpt>
<trkpt lat="46.1458460" lon="10.1371390">
	<ele>1253.60</ele>
	<time>2024-09-06T06:15:15.000Z</time>
</trkpt>
<trkpt lat="46.1458440" lon="10.1371220">
	<ele>1253.80</ele>
	<time>2024-09-06T06:15:16.000Z</time>
</trkpt>
<trkpt lat="46.1458450" lon="10.1371050">
	<ele>1253.80</ele>
	<time>2024-09-06T06:15:17.000Z</time>
</trkpt>
<trkpt lat="46.1458410" lon="10.1370910">
	<ele>1254.00</ele>
	<time>2024-09-06T06:15:18.000Z</time>
</trkpt>
<trkpt lat="46.1458350" lon="10.1370760">
	<ele>1254.20</ele>
	<time>2024-09-06T06:15:19.000Z</time>
</trkpt>
<trkpt lat="46.1458310" lon="10.1370680">
	<ele>1254.40</ele>
	<time>2024-09-06T06:15:20.000Z</time>
</trkpt>
<trkpt lat="46.1458250" lon="10.1370550">
	<ele>1254.60</ele>
	<time>2024-09-06T06:15:21.000Z</time>
</trkpt>
<trkpt lat="46.1458170" lon="10.1370430">
	<ele>1254.80</ele>
	<time>2024-09-06T06:15:22.000Z</time>
</trkpt>
<trkpt lat="46.1458120" lon="10.1370340">
	<ele>1255.00</ele>
	<time>2024-09-06T06:15:23.000Z</time>
</trkpt>
<trkpt lat="46.1458080" lon="10.1370280">
	<ele>1255.20</ele>
	<time>2024-09-06T06:15:24.000Z</time>
</trkpt>
<trkpt lat="46.1458030" lon="10.1370220">
	<ele>1255.40</ele>
	<time>2024-09-06T06:15:25.000Z</time>
</trkpt>
<trkpt lat="46.1457980" lon="10.1370150">
	<ele>1255.60</ele>
	<time>2024-09-06T06:15:26.000Z</time>
</trkpt>
<trkpt lat="46.1457940" lon="10.1370090">
	<ele>1255.80</ele>
	<time>2024-09-06T06:15:27.000Z</time>
</trkpt>
<trkpt lat="46.1457880" lon="10.1370010">
	<ele>1256.00</ele>
	<time>2024-09-06T06:15:28.000Z</time>
</trkpt>
<trkpt lat="46.1457850" lon="10.1369970">
	<ele>1256.20</ele>
	<time>2024-09-06T06:15:29.000Z</time>
</trkpt>
<trkpt lat="46.1457770" lon="10.1369910">
	<ele>1256.40</ele>
	<time>2024-09-06T06:15:30.000Z</time>
</trkpt>
<trkpt lat="46.1457710" lon="10.1369810">
	<ele>1256.80</ele>
	<time>2024-09-06T06:15:31.000Z</time>
</trkpt>
<trkpt lat="46.1457620" lon="10.1369690">
	<ele>1256.80</ele>
	<time>2024-09-06T06:15:32.000Z</time>
</trkpt>
<trkpt lat="46.1457540" lon="10.1369610">
	<ele>1257.00</ele>
	<time>2024-09-06T06:15:33.000Z</time>
</trkpt>
<trkpt lat="46.1457440" lon="10.1369530">
	<ele>1257.20</ele>
	<time>2024-09-06T06:15:34.000Z</time>
</trkpt>
<trkpt lat="46.1457350" lon="10.1369500">
	<ele>1257.40</ele>
	<time>2024-09-06T06:15:35.000Z</time>
</trkpt>
<trkpt lat="46.1457250" lon="10.1369440">
	<ele>1257.60</ele>
	<time>2024-09-06T06:15:36.000Z</time>
</trkpt>
<trkpt lat="46.1457170" lon="10.1369420">
	<ele>1257.80</ele>
	<time>2024-09-06T06:15:37.000Z</time>
</trkpt>
<trkpt lat="46.1457180" lon="10.1369380">
	<ele>1258.00</ele>
	<time>2024-09-06T06:15:38.000Z</time>
</trkpt>
<trkpt lat="46.1457050" lon="10.1369240">
	<ele>1258.20</ele>
	<time>2024-09-06T06:15:39.000Z</time>
</trkpt>
<trkpt lat="46.1456910" lon="10.1369130">
	<ele>1258.40</ele>
	<time>2024-09-06T06:15:40.000Z</time>
</trkpt>
<trkpt lat="46.1456880" lon="10.1369140">
	<ele>1258.60</ele>
	<time>2024-09-06T06:15:41.000Z</time>
</trkpt>
<trkpt lat="46.1456870" lon="10.1369070">
	<ele>1258.80</ele>
	<time>2024-09-06T06:15:42.000Z</time>
</trkpt>
<trkpt lat="46.1456820" lon="10.1369030">
	<ele>1259.00</ele>
	<time>2024-09-06T06:15:43.000Z</time>
</trkpt>
<trkpt lat="46.1456800" lon="10.1368990">
	<ele>1259.20</ele>
	<time>2024-09-06T06:15:44.000Z</time>
</trkpt>
<trkpt lat="46.1456720" lon="10.1368970">
	<ele>1259.20</ele>
	<time>2024-09-06T06:15:45.000Z</time>
</trkpt>
<trkpt lat="46.1456620" lon="10.1368940">
	<ele>1259.60</ele>
	<time>2024-09-06T06:15:46.000Z</time>
</trkpt>
<trkpt lat="46.1456510" lon="10.1368860">
	<ele>1259.80</ele>
	<time>2024-09-06T06:15:47.000Z</time>
</trkpt>
<trkpt lat="46.1456420" lon="10.1368810">
	<ele>1260.00</ele>
	<time>2024-09-06T06:15:48.000Z</time>
</trkpt>
<trkpt lat="46.1456320" lon="10.1368720">
	<ele>1260.00</ele>
	<time>2024-09-06T06:15:49.000Z</time>
</trkpt>
<trkpt lat="46.1456290" lon="10.1368590">
	<ele>1260.20</ele>
	<time>2024-09-06T06:15:50.000Z</time>
</trkpt>
<trkpt lat="46.1456290" lon="10.1368500">
	<ele>1260.60</ele>
	<time>2024-09-06T06:15:51.000Z</time>
</trkpt>
<trkpt lat="46.1456250" lon="10.1368410">
	<ele>1260.80</ele>
	<time>2024-09-06T06:15:52.000Z</time>
</trkpt>
<trkpt lat="46.1456150" lon="10.1368320">
	<ele>1261.00</ele>
	<time>2024-09-06T06:15:53.000Z</time>
</trkpt>
<trkpt lat="46.1456070" lon="10.1368240">
	<ele>1261.40</ele>
	<time>2024-09-06T06:15:54.000Z</time>
</trkpt>
<trkpt lat="46.1456010" lon="10.1368210">
	<ele>1261.60</ele>
	<time>2024-09-06T06:15:55.000Z</time>
</trkpt>
<trkpt lat="46.1455950" lon="10.1368140">
	<ele>1261.60</ele>
	<time>2024-09-06T06:15:56.000Z</time>
</trkpt>
<trkpt lat="46.1455880" lon="10.1368080">
	<ele>1261.80</ele>
	<time>2024-09-06T06:15:57.000Z</time>
</trkpt>
<trkpt lat="46.1455730" lon="10.1367990">
	<ele>1262.00</ele>
	<time>2024-09-06T06:15:58.000Z</time>
</trkpt>
<trkpt lat="46.1455610" lon="10.1367870">
	<ele>1262.00</ele>
	<time>2024-09-06T06:15:59.000Z</time>
</trkpt>
<trkpt lat="46.1455470" lon="10.1367740">
	<ele>1262.00</ele>
	<time>2024-09-06T06:16:00.000Z</time>
</trkpt>
<trkpt lat="46.1455330" lon="10.1367670">
	<ele>1262.20</ele>
	<time>2024-09-06T06:16:01.000Z</time>
</trkpt>
<trkpt lat="46.1455180" lon="10.1367590">
	<ele>1262.40</ele>
	<time>2024-09-06T06:16:02.000Z</time>
</trkpt>
<trkpt lat="46.1455060" lon="10.1367430">
	<ele>1262.60</ele>
	<time>2024-09-06T06:16:03.000Z</time>
</trkpt>
<trkpt lat="46.1454960" lon="10.1367330">
	<ele>1262.80</ele>
	<time>2024-09-06T06:16:04.000Z</time>
</trkpt>
<trkpt lat="46.1454890" lon="10.1367290">
	<ele>1263.00</ele>
	<time>2024-09-06T06:16:05.000Z</time>
</trkpt>
<trkpt lat="46.1454840" lon="10.1367150">
	<ele>1263.20</ele>
	<time>2024-09-06T06:16:06.000Z</time>
</trkpt>
<trkpt lat="46.1454780" lon="10.1367020">
	<ele>1263.40</ele>
	<time>2024-09-06T06:16:07.000Z</time>
</trkpt>
<trkpt lat="46.1454720" lon="10.1366890">
	<ele>1263.60</ele>
	<time>2024-09-06T06:16:08.000Z</time>
</trkpt>
<trkpt lat="46.1454630" lon="10.1366800">
	<ele>1263.60</ele>
	<time>2024-09-06T06:16:09.000Z</time>
</trkpt>
<trkpt lat="46.1454600" lon="10.1366680">
	<ele>1264.00</ele>
	<time>2024-09-06T06:16:10.000Z</time>
</trkpt>
<trkpt lat="46.1454560" lon="10.1366590">
	<ele>1264.20</ele>
	<time>2024-09-06T06:16:11.000Z</time>
</trkpt>
<trkpt lat="46.1454500" lon="10.1366510">
	<ele>1264.40</ele>
	<time>2024-09-06T06:16:12.000Z</time>
</trkpt>
<trkpt lat="46.1454440" lon="10.1366410">
	<ele>1264.40</ele>
	<time>2024-09-06T06:16:13.000Z</time>
</trkpt>
<trkpt lat="46.1454360" lon="10.1366300">
	<ele>1264.60</ele>
	<time>2024-09-06T06:16:14.000Z</time>
</trkpt>
<trkpt lat="46.1454300" lon="10.1366190">
	<ele>1264.80</ele>
	<time>2024-09-06T06:16:15.000Z</time>
</trkpt>
<trkpt lat="46.1454290" lon="10.1366140">
	<ele>1264.80</ele>
	<time>2024-09-06T06:16:16.000Z</time>
</trkpt>
<trkpt lat="46.1454230" lon="10.1366040">
	<ele>1265.00</ele>
	<time>2024-09-06T06:16:17.000Z</time>
</trkpt>
<trkpt lat="46.1454180" lon="10.1365980">
	<ele>1265.20</ele>
	<time>2024-09-06T06:16:18.000Z</time>
</trkpt>
<trkpt lat="46.1454120" lon="10.1365890">
	<ele>1265.40</ele>
	<time>2024-09-06T06:16:19.000Z</time>
</trkpt>
<trkpt lat="46.1454020" lon="10.1365790">
	<ele>1265.60</ele>
	<time>2024-09-06T06:16:20.000Z</time>
</trkpt>
<trkpt lat="46.1453960" lon="10.1365660">
	<ele>1265.80</ele>
	<time>2024-09-06T06:16:21.000Z</time>
</trkpt>
<trkpt lat="46.1453920" lon="10.1365580">
	<ele>1266.00</ele>
	<time>2024-09-06T06:16:22.000Z</time>
</trkpt>
<trkpt lat="46.1453880" lon="10.1365490">
	<ele>1266.20</ele>
	<time>2024-09-06T06:16:23.000Z</time>
</trkpt>
<trkpt lat="46.1453790" lon="10.1365340">
	<ele>1266.40</ele>
	<time>2024-09-06T06:16:24.000Z</time>
</trkpt>
<trkpt lat="46.1453680" lon="10.1365180">
	<ele>1266.40</ele>
	<time>2024-09-06T06:16:25.000Z</time>
</trkpt>
<trkpt lat="46.1453580" lon="10.1365070">
	<ele>1266.60</ele>
	<time>2024-09-06T06:16:26.000Z</time>
</trkpt>
<trkpt lat="46.1453440" lon="10.1364960">
	<ele>1266.80</ele>
	<time>2024-09-06T06:16:27.000Z</time>
</trkpt>
<trkpt lat="46.1453350" lon="10.1364850">
	<ele>1267.00</ele>
	<time>2024-09-06T06:16:28.000Z</time>
</trkpt>
<trkpt lat="46.1453270" lon="10.1364730">
	<ele>1267.00</ele>
	<time>2024-09-06T06:16:29.000Z</time>
</trkpt>
<trkpt lat="46.1453150" lon="10.1364620">
	<ele>1267.00</ele>
	<time>2024-09-06T06:16:30.000Z</time>
</trkpt>
<trkpt lat="46.1453050" lon="10.1364510">
	<ele>1267.20</ele>
	<time>2024-09-06T06:16:31.000Z</time>
</trkpt>
<trkpt lat="46.1452970" lon="10.1364400">
	<ele>1267.20</ele>
	<time>2024-09-06T06:16:32.000Z</time>
</trkpt>
<trkpt lat="46.1452900" lon="10.1364270">
	<ele>1267.20</ele>
	<time>2024-09-06T06:16:33.000Z</time>
</trkpt>
<trkpt lat="46.1452850" lon="10.1364130">
	<ele>1267.40</ele>
	<time>2024-09-06T06:16:34.000Z</time>
</trkpt>
<trkpt lat="46.1452820" lon="10.1363970">
	<ele>1267.60</ele>
	<time>2024-09-06T06:16:35.000Z</time>
</trkpt>
<trkpt lat="46.1452800" lon="10.1363820">
	<ele>1267.60</ele>
	<time>2024-09-06T06:16:36.000Z</time>
</trkpt>
<trkpt lat="46.1452750" lon="10.1363720">
	<ele>1267.60</ele>
	<time>2024-09-06T06:16:37.000Z</time>
</trkpt>
<trkpt lat="46.1452700" lon="10.1363620">
	<ele>1267.80</ele>
	<time>2024-09-06T06:16:38.000Z</time>
</trkpt>
<trkpt lat="46.1452680" lon="10.1363490">
	<ele>1267.80</ele>
	<time>2024-09-06T06:16:39.000Z</time>
</trkpt>
<trkpt lat="46.1452690" lon="10.1363320">
	<ele>1267.80</ele>
	<time>2024-09-06T06:16:40.000Z</time>
</trkpt>
<trkpt lat="46.1452690" lon="10.1363130">
	<ele>1267.80</ele>
	<time>2024-09-06T06:16:41.000Z</time>
</trkpt>
<trkpt lat="46.1452670" lon="10.1362950">
	<ele>1267.80</ele>
	<time>2024-09-06T06:16:42.000Z</time>
</trkpt>
<trkpt lat="46.1452620" lon="10.1362770">
	<ele>1268.00</ele>
	<time>2024-09-06T06:16:43.000Z</time>
</trkpt>
<trkpt lat="46.1452510" lon="10.1362600">
	<ele>1268.00</ele>
	<time>2024-09-06T06:16:44.000Z</time>
</trkpt>
<trkpt lat="46.1452490" lon="10.1362410">
	<ele>1268.00</ele>
	<time>2024-09-06T06:16:45.000Z</time>
</trkpt>
<trkpt lat="46.1452440" lon="10.1362170">
	<ele>1268.00</ele>
	<time>2024-09-06T06:16:46.000Z</time>
</trkpt>
<trkpt lat="46.1452380" lon="10.1361960">
	<ele>1268.00</ele>
	<time>2024-09-06T06:16:47.000Z</time>
</trkpt>
<trkpt lat="46.1452350" lon="10.1361770">
	<ele>1268.00</ele>
	<time>2024-09-06T06:16:48.000Z</time>
</trkpt>
<trkpt lat="46.1452320" lon="10.1361650">
	<ele>1268.00</ele>
	<time>2024-09-06T06:16:49.000Z</time>
</trkpt>
<trkpt lat="46.1452260" lon="10.1361520">
	<ele>1268.00</ele>
	<time>2024-09-06T06:16:50.000Z</time>
</trkpt>
<trkpt lat="46.1452230" lon="10.1361380">
	<ele>1267.80</ele>
	<time>2024-09-06T06:16:51.000Z</time>
</trkpt>
<trkpt lat="46.1452180" lon="10.1361220">
	<ele>1267.80</ele>
	<time>2024-09-06T06:16:52.000Z</time>
</trkpt>
<trkpt lat="46.1452150" lon="10.1361080">
	<ele>1267.80</ele>
	<time>2024-09-06T06:16:53.000Z</time>
</trkpt>
<trkpt lat="46.1452140" lon="10.1360970">
	<ele>1267.60</ele>
	<time>2024-09-06T06:16:54.000Z</time>
</trkpt>
<trkpt lat="46.1452090" lon="10.1360810">
	<ele>1267.60</ele>
	<time>2024-09-06T06:16:55.000Z</time>
</trkpt>
<trkpt lat="46.1452050" lon="10.1360640">
	<ele>1267.40</ele>
	<time>2024-09-06T06:16:56.000Z</time>
</trkpt>
<trkpt lat="46.1451980" lon="10.1360430">
	<ele>1267.20</ele>
	<time>2024-09-06T06:16:57.000Z</time>
</trkpt>
<trkpt lat="46.1451910" lon="10.1360270">
	<ele>1267.00</ele>
	<time>2024-09-06T06:16:58.000Z</time>
</trkpt>
<trkpt lat="46.1451880" lon="10.1360090">
	<ele>1266.80</ele>
	<time>2024-09-06T06:16:59.000Z</time>
</trkpt>
<trkpt lat="46.1451860" lon="10.1359950">
	<ele>1266.60</ele>
	<time>2024-09-06T06:17:00.000Z</time>
</trkpt>
<trkpt lat="46.1451790" lon="10.1359790">
	<ele>1266.40</ele>
	<time>2024-09-06T06:17:01.000Z</time>
</trkpt>
<trkpt lat="46.1451640" lon="10.1359690">
	<ele>1266.20</ele>
	<time>2024-09-06T06:17:02.000Z</time>
</trkpt>
<trkpt lat="46.1451460" lon="10.1359590">
	<ele>1266.20</ele>
	<time>2024-09-06T06:17:03.000Z</time>
</trkpt>
<trkpt lat="46.1451300" lon="10.1359520">
	<ele>1266.00</ele>
	<time>2024-09-06T06:17:04.000Z</time>
</trkpt>
<trkpt lat="46.1451230" lon="10.1359420">
	<ele>1265.80</ele>
	<time>2024-09-06T06:17:05.000Z</time>
</trkpt>
<trkpt lat="46.1451200" lon="10.1359300">
	<ele>1265.40</ele>
	<time>2024-09-06T06:17:06.000Z</time>
</trkpt>
<trkpt lat="46.1451160" lon="10.1359210">
	<ele>1265.20</ele>
	<time>2024-09-06T06:17:07.000Z</time>
</trkpt>
<trkpt lat="46.1451090" lon="10.1359060">
	<ele>1265.00</ele>
	<time>2024-09-06T06:17:08.000Z</time>
</trkpt>
<trkpt lat="46.1451020" lon="10.1358920">
	<ele>1265.00</ele>
	<time>2024-09-06T06:17:09.000Z</time>
</trkpt>
<trkpt lat="46.1450940" lon="10.1358740">
	<ele>1264.80</ele>
	<time>2024-09-06T06:17:10.000Z</time>
</trkpt>
<trkpt lat="46.1450870" lon="10.1358520">
	<ele>1264.80</ele>
	<time>2024-09-06T06:17:11.000Z</time>
</trkpt>
<trkpt lat="46.1450820" lon="10.1358260">
	<ele>1264.80</ele>
	<time>2024-09-06T06:17:12.000Z</time>
</trkpt>
<trkpt lat="46.1450740" lon="10.1358110">
	<ele>1264.60</ele>
	<time>2024-09-06T06:17:13.000Z</time>
</trkpt>
<trkpt lat="46.1450660" lon="10.1357920">
	<ele>1264.60</ele>
	<time>2024-09-06T06:17:14.000Z</time>
</trkpt>
<trkpt lat="46.1450600" lon="10.1357730">
	<ele>1264.40</ele>
	<time>2024-09-06T06:17:15.000Z</time>
</trkpt>
<trkpt lat="46.1450470" lon="10.1357610">
	<ele>1264.40</ele>
	<time>2024-09-06T06:17:16.000Z</time>
</trkpt>
<trkpt lat="46.1450390" lon="10.1357500">
	<ele>1264.40</ele>
	<time>2024-09-06T06:17:17.000Z</time>
</trkpt>
<trkpt lat="46.1450320" lon="10.1357330">
	<ele>1264.40</ele>
	<time>2024-09-06T06:17:18.000Z</time>
</trkpt>
<trkpt lat="46.1450240" lon="10.1357150">
	<ele>1264.40</ele>
	<time>2024-09-06T06:17:19.000Z</time>
</trkpt>
<trkpt lat="46.1450180" lon="10.1356990">
	<ele>1264.40</ele>
	<time>2024-09-06T06:17:20.000Z</time>
</trkpt>
<trkpt lat="46.1450140" lon="10.1356810">
	<ele>1264.40</ele>
	<time>2024-09-06T06:17:21.000Z</time>
</trkpt>
<trkpt lat="46.1450130" lon="10.1356670">
	<ele>1264.40</ele>
	<time>2024-09-06T06:17:22.000Z</time>
</trkpt>
<trkpt lat="46.1450110" lon="10.1356550">
	<ele>1264.40</ele>
	<time>2024-09-06T06:17:23.000Z</time>
</trkpt>
<trkpt lat="46.1450050" lon="10.1356450">
	<ele>1264.60</ele>
	<time>2024-09-06T06:17:24.000Z</time>
</trkpt>
<trkpt lat="46.1449980" lon="10.1356370">
	<ele>1264.60</ele>
	<time>2024-09-06T06:17:25.000Z</time>
</trkpt>
<trkpt lat="46.1449840" lon="10.1356310">
	<ele>1264.80</ele>
	<time>2024-09-06T06:17:26.000Z</time>
</trkpt>
<trkpt lat="46.1449710" lon="10.1356220">
	<ele>1264.80</ele>
	<time>2024-09-06T06:17:27.000Z</time>
</trkpt>
<trkpt lat="46.1449600" lon="10.1356120">
	<ele>1264.80</ele>
	<time>2024-09-06T06:17:28.000Z</time>
</trkpt>
<trkpt lat="46.1449510" lon="10.1355980">
	<ele>1264.80</ele>
	<time>2024-09-06T06:17:29.000Z</time>
</trkpt>
<trkpt lat="46.1449420" lon="10.1355890">
	<ele>1265.00</ele>
	<time>2024-09-06T06:17:30.000Z</time>
</trkpt>
<trkpt lat="46.1449290" lon="10.1355790">
	<ele>1265.00</ele>
	<time>2024-09-06T06:17:31.000Z</time>
</trkpt>
<trkpt lat="46.1449190" lon="10.1355660">
	<ele>1265.00</ele>
	<time>2024-09-06T06:17:32.000Z</time>
</trkpt>
<trkpt lat="46.1449090" lon="10.1355560">
	<ele>1265.20</ele>
	<time>2024-09-06T06:17:33.000Z</time>
</trkpt>
<trkpt lat="46.1449000" lon="10.1355470">
	<ele>1265.20</ele>
	<time>2024-09-06T06:17:34.000Z</time>
</trkpt>
<trkpt lat="46.1448910" lon="10.1355350">
	<ele>1265.20</ele>
	<time>2024-09-06T06:17:35.000Z</time>
</trkpt>
<trkpt lat="46.1448840" lon="10.1355240">
	<ele>1265.40</ele>
	<time>2024-09-06T06:17:36.000Z</time>
</trkpt>
<trkpt lat="46.1448800" lon="10.1355130">
	<ele>1265.60</ele>
	<time>2024-09-06T06:17:37.000Z</time>
</trkpt>
<trkpt lat="46.1448770" lon="10.1355000">
	<ele>1265.60</ele>
	<time>2024-09-06T06:17:38.000Z</time>
</trkpt>
<trkpt lat="46.1448710" lon="10.1354850">
	<ele>1265.80</ele>
	<time>2024-09-06T06:17:39.000Z</time>
</trkpt>
<trkpt lat="46.1448600" lon="10.1354700">
	<ele>1265.80</ele>
	<time>2024-09-06T06:17:40.000Z</time>
</trkpt>
<trkpt lat="46.1448490" lon="10.1354550">
	<ele>1266.00</ele>
	<time>2024-09-06T06:17:41.000Z</time>
</trkpt>
<trkpt lat="46.1448380" lon="10.1354400">
	<ele>1266.00</ele>
	<time>2024-09-06T06:17:42.000Z</time>
</trkpt>
<trkpt lat="46.1448320" lon="10.1354300">
	<ele>1266.00</ele>
	<time>2024-09-06T06:17:43.000Z</time>
</trkpt>
<trkpt lat="46.1448240" lon="10.1354200">
	<ele>1266.20</ele>
	<time>2024-09-06T06:17:44.000Z</time>
</trkpt>
<trkpt lat="46.1448150" lon="10.1354090">
	<ele>1266.40</ele>
	<time>2024-09-06T06:17:45.000Z</time>
</trkpt>
<trkpt lat="46.1448090" lon="10.1354010">
	<ele>1266.60</ele>
	<time>2024-09-06T06:17:46.000Z</time>
</trkpt>
<trkpt lat="46.1448040" lon="10.1353940">
	<ele>1266.60</ele>
	<time>2024-09-06T06:17:47.000Z</time>
</trkpt>
<trkpt lat="46.1448010" lon="10.1353830">
	<ele>1266.80</ele>
	<time>2024-09-06T06:17:48.000Z</time>
</trkpt>
<trkpt lat="46.1447900" lon="10.1353720">
	<ele>1266.80</ele>
	<time>2024-09-06T06:17:49.000Z</time>
</trkpt>
<trkpt lat="46.1447770" lon="10.1353620">
	<ele>1266.80</ele>
	<time>2024-09-06T06:17:50.000Z</time>
</trkpt>
<trkpt lat="46.1447670" lon="10.1353500">
	<ele>1266.80</ele>
	<time>2024-09-06T06:17:51.000Z</time>
</trkpt>
<trkpt lat="46.1447620" lon="10.1353370">
	<ele>1267.00</ele>
	<time>2024-09-06T06:17:52.000Z</time>
</trkpt>
<trkpt lat="46.1447570" lon="10.1353200">
	<ele>1267.00</ele>
	<time>2024-09-06T06:17:53.000Z</time>
</trkpt>
<trkpt lat="46.1447470" lon="10.1353040">
	<ele>1267.00</ele>
	<time>2024-09-06T06:17:54.000Z</time>
</trkpt>
<trkpt lat="46.1447360" lon="10.1352910">
	<ele>1267.20</ele>
	<time>2024-09-06T06:17:55.000Z</time>
</trkpt>
<trkpt lat="46.1447270" lon="10.1352780">
	<ele>1267.20</ele>
	<time>2024-09-06T06:17:56.000Z</time>
</trkpt>
<trkpt lat="46.1447200" lon="10.1352650">
	<ele>1267.40</ele>
	<time>2024-09-06T06:17:57.000Z</time>
</trkpt>
<trkpt lat="46.1447150" lon="10.1352520">
	<ele>1267.40</ele>
	<time>2024-09-06T06:17:58.000Z</time>
</trkpt>
<trkpt lat="46.1447060" lon="10.1352390">
	<ele>1267.40</ele>
	<time>2024-09-06T06:17:59.000Z</time>
</trkpt>
<trkpt lat="46.1447010" lon="10.1352270">
	<ele>1267.40</ele>
	<time>2024-09-06T06:18:00.000Z</time>
</trkpt>
<trkpt lat="46.1446950" lon="10.1352170">
	<ele>1267.60</ele>
	<time>2024-09-06T06:18:01.000Z</time>
</trkpt>
<trkpt lat="46.1446840" lon="10.1352000">
	<ele>1267.80</ele>
	<time>2024-09-06T06:18:02.000Z</time>
</trkpt>
<trkpt lat="46.1446760" lon="10.1351830">
	<ele>1267.80</ele>
	<time>2024-09-06T06:18:03.000Z</time>
</trkpt>
<trkpt lat="46.1446700" lon="10.1351660">
	<ele>1268.00</ele>
	<time>2024-09-06T06:18:04.000Z</time>
</trkpt>
<trkpt lat="46.1446680" lon="10.1351480">
	<ele>1268.20</ele>
	<time>2024-09-06T06:18:05.000Z</time>
</trkpt>
<trkpt lat="46.1446680" lon="10.1351360">
	<ele>1268.40</ele>
	<time>2024-09-06T06:18:06.000Z</time>
</trkpt>
<trkpt lat="46.1446670" lon="10.1351240">
	<ele>1268.40</ele>
	<time>2024-09-06T06:18:07.000Z</time>
</trkpt>
<trkpt lat="46.1446560" lon="10.1351080">
	<ele>1268.60</ele>
	<time>2024-09-06T06:18:08.000Z</time>
</trkpt>
<trkpt lat="46.1446490" lon="10.1350930">
	<ele>1268.80</ele>
	<time>2024-09-06T06:18:09.000Z</time>
</trkpt>
<trkpt lat="46.1446450" lon="10.1350780">
	<ele>1269.00</ele>
	<time>2024-09-06T06:18:10.000Z</time>
</trkpt>
<trkpt lat="46.1446370" lon="10.1350650">
	<ele>1269.00</ele>
	<time>2024-09-06T06:18:11.000Z</time>
</trkpt>
<trkpt lat="46.1446270" lon="10.1350530">
	<ele>1269.20</ele>
	<time>2024-09-06T06:18:12.000Z</time>
</trkpt>
<trkpt lat="46.1446190" lon="10.1350340">
	<ele>1269.40</ele>
	<time>2024-09-06T06:18:13.000Z</time>
</trkpt>
<trkpt lat="46.1446120" lon="10.1350170">
	<ele>1269.40</ele>
	<time>2024-09-06T06:18:14.000Z</time>
</trkpt>
<trkpt lat="46.1446000" lon="10.1349990">
	<ele>1269.60</ele>
	<time>2024-09-06T06:18:15.000Z</time>
</trkpt>
<trkpt lat="46.1445780" lon="10.1349840">
	<ele>1269.80</ele>
	<time>2024-09-06T06:18:16.000Z</time>
</trkpt>
<trkpt lat="46.1445680" lon="10.1349750">
	<ele>1270.00</ele>
	<time>2024-09-06T06:18:17.000Z</time>
</trkpt>
<trkpt lat="46.1445610" lon="10.1349600">
	<ele>1270.00</ele>
	<time>2024-09-06T06:18:18.000Z</time>
</trkpt>
<trkpt lat="46.1445580" lon="10.1349480">
	<ele>1270.20</ele>
	<time>2024-09-06T06:18:19.000Z</time>
</trkpt>
<trkpt lat="46.1445520" lon="10.1349360">
	<ele>1270.40</ele>
	<time>2024-09-06T06:18:20.000Z</time>
</trkpt>
<trkpt lat="46.1445500" lon="10.1349180">
	<ele>1270.60</ele>
	<time>2024-09-06T06:18:21.000Z</time>
</trkpt>
<trkpt lat="46.1445460" lon="10.1349040">
	<ele>1270.80</ele>
	<time>2024-09-06T06:18:22.000Z</time>
</trkpt>
<trkpt lat="46.1445460" lon="10.1348880">
	<ele>1270.80</ele>
	<time>2024-09-06T06:18:23.000Z</time>
</trkpt>
<trkpt lat="46.1445460" lon="10.1348720">
	<ele>1271.00</ele>
	<time>2024-09-06T06:18:24.000Z</time>
</trkpt>
<trkpt lat="46.1445430" lon="10.1348570">
	<ele>1271.00</ele>
	<time>2024-09-06T06:18:25.000Z</time>
</trkpt>
<trkpt lat="46.1445390" lon="10.1348450">
	<ele>1271.20</ele>
	<time>2024-09-06T06:18:26.000Z</time>
</trkpt>
<trkpt lat="46.1445350" lon="10.1348290">
	<ele>1271.20</ele>
	<time>2024-09-06T06:18:27.000Z</time>
</trkpt>
<trkpt lat="46.1445330" lon="10.1348120">
	<ele>1271.40</ele>
	<time>2024-09-06T06:18:28.000Z</time>
</trkpt>
<trkpt lat="46.1445340" lon="10.1347890">
	<ele>1271.60</ele>
	<time>2024-09-06T06:18:29.000Z</time>
</trkpt>
<trkpt lat="46.1445410" lon="10.1347740">
	<ele>1271.60</ele>
	<time>2024-09-06T06:18:30.000Z</time>
</trkpt>
<trkpt lat="46.1445390" lon="10.1347590">
	<ele>1272.00</ele>
	<time>2024-09-06T06:18:31.000Z</time>
</trkpt>
<trkpt lat="46.1445330" lon="10.1347490">
	<ele>1272.20</ele>
	<time>2024-09-06T06:18:32.000Z</time>
</trkpt>
<trkpt lat="46.1445220" lon="10.1347370">
	<ele>1272.40</ele>
	<time>2024-09-06T06:18:33.000Z</time>
</trkpt>
<trkpt lat="46.1445170" lon="10.1347290">
	<ele>1272.60</ele>
	<time>2024-09-06T06:18:34.000Z</time>
</trkpt>
<trkpt lat="46.1445110" lon="10.1347160">
	<ele>1272.80</ele>
	<time>2024-09-06T06:18:35.000Z</time>
</trkpt>
<trkpt lat="46.1445050" lon="10.1346960">
	<ele>1272.80</ele>
	<time>2024-09-06T06:18:36.000Z</time>
</trkpt>
<trkpt lat="46.1445050" lon="10.1346810">
	<ele>1273.00</ele>
	<time>2024-09-06T06:18:37.000Z</time>
</trkpt>
<trkpt lat="46.1445020" lon="10.1346660">
	<ele>1273.00</ele>
	<time>2024-09-06T06:18:38.000Z</time>
</trkpt>
<trkpt lat="46.1445000" lon="10.1346550">
	<ele>1273.20</ele>
	<time>2024-09-06T06:18:39.000Z</time>
</trkpt>
<trkpt lat="46.1444980" lon="10.1346480">
	<ele>1273.20</ele>
	<time>2024-09-06T06:18:40.000Z</time>
</trkpt>
<trkpt lat="46.1444990" lon="10.1346350">
	<ele>1273.20</ele>
	<time>2024-09-06T06:18:41.000Z</time>
</trkpt>
<trkpt lat="46.1445000" lon="10.1346140">
	<ele>1273.40</ele>
	<time>2024-09-06T06:18:42.000Z</time>
</trkpt>
<trkpt lat="46.1444900" lon="10.1345990">
	<ele>1273.60</ele>
	<time>2024-09-06T06:18:43.000Z</time>
</trkpt>
<trkpt lat="46.1444830" lon="10.1345800">
	<ele>1273.80</ele>
	<time>2024-09-06T06:18:44.000Z</time>
</trkpt>
<trkpt lat="46.1444790" lon="10.1345640">
	<ele>1274.00</ele>
	<time>2024-09-06T06:18:45.000Z</time>
</trkpt>
<trkpt lat="46.1444800" lon="10.1345500">
	<ele>1274.20</ele>
	<time>2024-09-06T06:18:46.000Z</time>
</trkpt>
<trkpt lat="46.1444770" lon="10.1345350">
	<ele>1274.40</ele>
	<time>2024-09-06T06:18:47.000Z</time>
</trkpt>
<trkpt lat="46.1444700" lon="10.1345180">
	<ele>1274.60</ele>
	<time>2024-09-06T06:18:48.000Z</time>
</trkpt>
<trkpt lat="46.1444640" lon="10.1345050">
	<ele>1274.80</ele>
	<time>2024-09-06T06:18:49.000Z</time>
</trkpt>
<trkpt lat="46.1444540" lon="10.1344930">
	<ele>1274.80</ele>
	<time>2024-09-06T06:18:50.000Z</time>
</trkpt>
<trkpt lat="46.1444510" lon="10.1344790">
	<ele>1275.00</ele>
	<time>2024-09-06T06:18:51.000Z</time>
</trkpt>
<trkpt lat="46.1444470" lon="10.1344670">
	<ele>1275.20</ele>
	<time>2024-09-06T06:18:52.000Z</time>
</trkpt>
<trkpt lat="46.1444420" lon="10.1344550">
	<ele>1275.40</ele>
	<time>2024-09-06T06:18:53.000Z</time>
</trkpt>
<trkpt lat="46.1444370" lon="10.1344470">
	<ele>1275.60</ele>
	<time>2024-09-06T06:18:54.000Z</time>
</trkpt>
<trkpt lat="46.1444270" lon="10.1344370">
	<ele>1275.80</ele>
	<time>2024-09-06T06:18:55.000Z</time>
</trkpt>
<trkpt lat="46.1444210" lon="10.1344250">
	<ele>1276.00</ele>
	<time>2024-09-06T06:18:56.000Z</time>
</trkpt>
<trkpt lat="46.1444210" lon="10.1344100">
	<ele>1276.00</ele>
	<time>2024-09-06T06:18:57.000Z</time>
</trkpt>
<trkpt lat="46.1444230" lon="10.1343930">
	<ele>1276.20</ele>
	<time>2024-09-06T06:18:58.000Z</time>
</trkpt>
<trkpt lat="46.1444200" lon="10.1343780">
	<ele>1276.20</ele>
	<time>2024-09-06T06:18:59.000Z</time>
</trkpt>
<trkpt lat="46.1444160" lon="10.1343670">
	<ele>1276.40</ele>
	<time>2024-09-06T06:19:00.000Z</time>
</trkpt>
<trkpt lat="46.1444130" lon="10.1343560">
	<ele>1276.60</ele>
	<time>2024-09-06T06:19:01.000Z</time>
</trkpt>
<trkpt lat="46.1444080" lon="10.1343440">
	<ele>1276.80</ele>
	<time>2024-09-06T06:19:02.000Z</time>
</trkpt>
<trkpt lat="46.1444050" lon="10.1343330">
	<ele>1276.80</ele>
	<time>2024-09-06T06:19:03.000Z</time>
</trkpt>
<trkpt lat="46.1444000" lon="10.1343220">
	<ele>1277.00</ele>
	<time>2024-09-06T06:19:04.000Z</time>
</trkpt>
<trkpt lat="46.1443970" lon="10.1343080">
	<ele>1277.00</ele>
	<time>2024-09-06T06:19:05.000Z</time>
</trkpt>
<trkpt lat="46.1443940" lon="10.1342960">
	<ele>1277.20</ele>
	<time>2024-09-06T06:19:06.000Z</time>
</trkpt>
<trkpt lat="46.1443890" lon="10.1342850">
	<ele>1277.40</ele>
	<time>2024-09-06T06:19:07.000Z</time>
</trkpt>
<trkpt lat="46.1443860" lon="10.1342710">
	<ele>1277.40</ele>
	<time>2024-09-06T06:19:08.000Z</time>
</trkpt>
<trkpt lat="46.1443830" lon="10.1342580">
	<ele>1277.60</ele>
	<time>2024-09-06T06:19:09.000Z</time>
</trkpt>
<trkpt lat="46.1443810" lon="10.1342420">
	<ele>1277.80</ele>
	<time>2024-09-06T06:19:10.000Z</time>
</trkpt>
<trkpt lat="46.1443770" lon="10.1342300">
	<ele>1278.00</ele>
	<time>2024-09-06T06:19:11.000Z</time>
</trkpt>
<trkpt lat="46.1443700" lon="10.1342190">
	<ele>1278.20</ele>
	<time>2024-09-06T06:19:12.000Z</time>
</trkpt>
<trkpt lat="46.1443640" lon="10.1342100">
	<ele>1278.40</ele>
	<time>2024-09-06T06:19:13.000Z</time>
</trkpt>
<trkpt lat="46.1443590" lon="10.1341990">
	<ele>1278.40</ele>
	<time>2024-09-06T06:19:14.000Z</time>
</trkpt>
<trkpt lat="46.1443520" lon="10.1341840">
	<ele>1278.80</ele>
	<time>2024-09-06T06:19:15.000Z</time>
</trkpt>
<trkpt lat="46.1443450" lon="10.1341680">
	<ele>1278.80</ele>
	<time>2024-09-06T06:19:16.000Z</time>
</trkpt>
<trkpt lat="46.1443410" lon="10.1341520">
	<ele>1279.00</ele>
	<time>2024-09-06T06:19:17.000Z</time>
</trkpt>
<trkpt lat="46.1443380" lon="10.1341360">
	<ele>1279.20</ele>
	<time>2024-09-06T06:19:18.000Z</time>
</trkpt>
<trkpt lat="46.1443360" lon="10.1341210">
	<ele>1279.20</ele>
	<time>2024-09-06T06:19:19.000Z</time>
</trkpt>
<trkpt lat="46.1443290" lon="10.1341020">
	<ele>1279.40</ele>
	<time>2024-09-06T06:19:20.000Z</time>
</trkpt>
<trkpt lat="46.1443260" lon="10.1340850">
	<ele>1279.40</ele>
	<time>2024-09-06T06:19:21.000Z</time>
</trkpt>
<trkpt lat="46.1443260" lon="10.1340670">
	<ele>1279.60</ele>
	<time>2024-09-06T06:19:22.000Z</time>
</trkpt>
<trkpt lat="46.1443240" lon="10.1340530">
	<ele>1279.80</ele>
	<time>2024-09-06T06:19:23.000Z</time>
</trkpt>
<trkpt lat="46.1443220" lon="10.1340420">
	<ele>1280.00</ele>
	<time>2024-09-06T06:19:24.000Z</time>
</trkpt>
<trkpt lat="46.1443120" lon="10.1340300">
	<ele>1280.20</ele>
	<time>2024-09-06T06:19:25.000Z</time>
</trkpt>
<trkpt lat="46.1443040" lon="10.1340140">
	<ele>1280.40</ele>
	<time>2024-09-06T06:19:26.000Z</time>
</trkpt>
<trkpt lat="46.1443040" lon="10.1339980">
	<ele>1280.40</ele>
	<time>2024-09-06T06:19:27.000Z</time>
</trkpt>
<trkpt lat="46.1443040" lon="10.1339770">
	<ele>1280.80</ele>
	<time>2024-09-06T06:19:28.000Z</time>
</trkpt>
<trkpt lat="46.1443080" lon="10.1339590">
	<ele>1281.20</ele>
	<time>2024-09-06T06:19:29.000Z</time>
</trkpt>
<trkpt lat="46.1443060" lon="10.1339430">
	<ele>1281.40</ele>
	<time>2024-09-06T06:19:30.000Z</time>
</trkpt>
<trkpt lat="46.1443020" lon="10.1339290">
	<ele>1281.40</ele>
	<time>2024-09-06T06:19:31.000Z</time>
</trkpt>
<trkpt lat="46.1443000" lon="10.1339210">
	<ele>1281.60</ele>
	<time>2024-09-06T06:19:32.000Z</time>
</trkpt>
<trkpt lat="46.1442990" lon="10.1339140">
	<ele>1281.80</ele>
	<time>2024-09-06T06:19:33.000Z</time>
</trkpt>
<trkpt lat="46.1442950" lon="10.1339040">
	<ele>1281.80</ele>
	<time>2024-09-06T06:19:34.000Z</time>
</trkpt>
<trkpt lat="46.1442930" lon="10.1338880">
	<ele>1282.00</ele>
	<time>2024-09-06T06:19:35.000Z</time>
</trkpt>
<trkpt lat="46.1442860" lon="10.1338740">
	<ele>1282.00</ele>
	<time>2024-09-06T06:19:36.000Z</time>
</trkpt>
<trkpt lat="46.1442840" lon="10.1338610">
	<ele>1282.20</ele>
	<time>2024-09-06T06:19:37.000Z</time>
</trkpt>
<trkpt lat="46.1442800" lon="10.1338460">
	<ele>1282.20</ele>
	<time>2024-09-06T06:19:38.000Z</time>
</trkpt>
<trkpt lat="46.1442810" lon="10.1338310">
	<ele>1282.40</ele>
	<time>2024-09-06T06:19:39.000Z</time>
</trkpt>
<trkpt lat="46.1442870" lon="10.1338110">
	<ele>1282.40</ele>
	<time>2024-09-06T06:19:40.000Z</time>
</trkpt>
<trkpt lat="46.1442880" lon="10.1337930">
	<ele>1282.40</ele>
	<time>2024-09-06T06:19:41.000Z</time>
</trkpt>
<trkpt lat="46.1442870" lon="10.1337750">
	<ele>1282.40</ele>
	<time>2024-09-06T06:19:42.000Z</time>
</trkpt>
<trkpt lat="46.1442850" lon="10.1337570">
	<ele>1282.40</ele>
	<time>2024-09-06T06:19:43.000Z</time>
</trkpt>
<trkpt lat="46.1442810" lon="10.1337390">
	<ele>1282.60</ele>
	<time>2024-09-06T06:19:44.000Z</time>
</trkpt>
<trkpt lat="46.1442790" lon="10.1337230">
	<ele>1282.60</ele>
	<time>2024-09-06T06:19:45.000Z</time>
</trkpt>
<trkpt lat="46.1442750" lon="10.1337090">
	<ele>1282.80</ele>
	<time>2024-09-06T06:19:46.000Z</time>
</trkpt>
<trkpt lat="46.1442720" lon="10.1336920">
	<ele>1283.00</ele>
	<time>2024-09-06T06:19:47.000Z</time>
</trkpt>
<trkpt lat="46.1442660" lon="10.1336750">
	<ele>1283.20</ele>
	<time>2024-09-06T06:19:48.000Z</time>
</trkpt>
<trkpt lat="46.1442570" lon="10.1336560">
	<ele>1283.40</ele>
	<time>2024-09-06T06:19:49.000Z</time>
</trkpt>
<trkpt lat="46.1442520" lon="10.1336420">
	<ele>1283.60</ele>
	<time>2024-09-06T06:19:50.000Z</time>
</trkpt>
<trkpt lat="46.1442520" lon="10.1336290">
	<ele>1283.60</ele>
	<time>2024-09-06T06:19:51.000Z</time>
</trkpt>
<trkpt lat="46.1442530" lon="10.1336180">
	<ele>1284.00</ele>
	<time>2024-09-06T06:19:52.000Z</time>
</trkpt>
<trkpt lat="46.1442530" lon="10.1336040">
	<ele>1284.00</ele>
	<time>2024-09-06T06:19:53.000Z</time>
</trkpt>
<trkpt lat="46.1442560" lon="10.1335900">
	<ele>1284.20</ele>
	<time>2024-09-06T06:19:54.000Z</time>
</trkpt>
<trkpt lat="46.1442570" lon="10.1335760">
	<ele>1284.40</ele>
	<time>2024-09-06T06:19:55.000Z</time>
</trkpt>
<trkpt lat="46.1442550" lon="10.1335650">
	<ele>1284.60</ele>
	<time>2024-09-06T06:19:56.000Z</time>
</trkpt>
<trkpt lat="46.1442540" lon="10.1335540">
	<ele>1284.60</ele>
	<time>2024-09-06T06:19:57.000Z</time>
</trkpt>
<trkpt lat="46.1442540" lon="10.1335420">
	<ele>1284.80</ele>
	<time>2024-09-06T06:19:58.000Z</time>
</trkpt>
<trkpt lat="46.1442540" lon="10.1335350">
	<ele>1285.00</ele>
	<time>2024-09-06T06:19:59.000Z</time>
</trkpt>
<trkpt lat="46.1442500" lon="10.1335270">
	<ele>1285.20</ele>
	<time>2024-09-06T06:20:00.000Z</time>
</trkpt>
<trkpt lat="46.1442430" lon="10.1335240">
	<ele>1285.40</ele>
	<time>2024-09-06T06:20:01.000Z</time>
</trkpt>
<trkpt lat="46.1442370" lon="10.1335210">
	<ele>1285.40</ele>
	<time>2024-09-06T06:20:02.000Z</time>
</trkpt>
<trkpt lat="46.1442350" lon="10.1335200">
	<ele>1285.40</ele>
	<time>2024-09-06T06:20:03.000Z</time>
</trkpt>
<trkpt lat="46.1442300" lon="10.1335170">
	<ele>1285.40</ele>
	<time>2024-09-06T06:20:04.000Z</time>
</trkpt>
<trkpt lat="46.1442270" lon="10.1335150">
	<ele>1285.40</ele>
	<time>2024-09-06T06:20:05.000Z</time>
</trkpt>
<trkpt lat="46.1442240" lon="10.1335150">
	<ele>1285.40</ele>
	<time>2024-09-06T06:20:06.000Z</time>
</trkpt>
<trkpt lat="46.1442250" lon="10.1335140">
	<ele>1285.40</ele>
	<time>2024-09-06T06:20:07.000Z</time>
</trkpt>
<trkpt lat="46.1442250" lon="10.1335140">
	<ele>1285.40</ele>
	<time>2024-09-06T06:20:08.000Z</time>
</trkpt>
<trkpt lat="46.1442310" lon="10.1335140">
	<ele>1285.40</ele>
	<time>2024-09-06T06:20:09.000Z</time>
</trkpt>
<trkpt lat="46.1442350" lon="10.1335140">
	<ele>1285.40</ele>
	<time>2024-09-06T06:20:10.000Z</time>
</trkpt>
<trkpt lat="46.1442350" lon="10.1335090">
	<ele>1285.40</ele>
	<time>2024-09-06T06:20:11.000Z</time>
</trkpt>
<trkpt lat="46.1442270" lon="10.1335000">
	<ele>1285.40</ele>
	<time>2024-09-06T06:20:12.000Z</time>
</trkpt>
<trkpt lat="46.1442210" lon="10.1334980">
	<ele>1285.40</ele>
	<time>2024-09-06T06:20:13.000Z</time>
</trkpt>
<trkpt lat="46.1442200" lon="10.1334990">
	<ele>1285.40</ele>
	<time>2024-09-06T06:20:14.000Z</time>
</trkpt>
<trkpt lat="46.1442200" lon="10.1335000">
	<ele>1285.40</ele>
	<time>2024-09-06T06:20:15.000Z</time>
</trkpt>
<trkpt lat="46.1442190" lon="10.1334980">
	<ele>1285.40</ele>
	<time>2024-09-06T06:20:16.000Z</time>
</trkpt>
<trkpt lat="46.1442200" lon="10.1334960">
	<ele>1285.40</ele>
	<time>2024-09-06T06:20:17.000Z</time>
</trkpt>
<trkpt lat="46.1442190" lon="10.1334910">
	<ele>1285.40</ele>
	<time>2024-09-06T06:20:18.000Z</time>
</trkpt>
<trkpt lat="46.1442180" lon="10.1334850">
	<ele>1285.40</ele>
	<time>2024-09-06T06:20:19.000Z</time>
</trkpt>
<trkpt lat="46.1442180" lon="10.1334770">
	<ele>1285.60</ele>
	<time>2024-09-06T06:20:20.000Z</time>
</trkpt>
<trkpt lat="46.1442180" lon="10.1334660">
	<ele>1285.60</ele>
	<time>2024-09-06T06:20:21.000Z</time>
</trkpt>
<trkpt lat="46.1442140" lon="10.1334530">
	<ele>1285.80</ele>
	<time>2024-09-06T06:20:22.000Z</time>
</trkpt>
<trkpt lat="46.1442110" lon="10.1334410">
	<ele>1286.00</ele>
	<time>2024-09-06T06:20:23.000Z</time>
</trkpt>
<trkpt lat="46.1442050" lon="10.1334260">
	<ele>1286.20</ele>
	<time>2024-09-06T06:20:24.000Z</time>
</trkpt>
<trkpt lat="46.1441960" lon="10.1334130">
	<ele>1286.40</ele>
	<time>2024-09-06T06:20:25.000Z</time>
</trkpt>
<trkpt lat="46.1441900" lon="10.1334030">
	<ele>1286.60</ele>
	<time>2024-09-06T06:20:26.000Z</time>
</trkpt>
<trkpt lat="46.1441830" lon="10.1333930">
	<ele>1286.60</ele>
	<time>2024-09-06T06:20:27.000Z</time>
</trkpt>
<trkpt lat="46.1441740" lon="10.1333830">
	<ele>1287.00</ele>
	<time>2024-09-06T06:20:28.000Z</time>
</trkpt>
<trkpt lat="46.1441740" lon="10.1333700">
	<ele>1287.20</ele>
	<time>2024-09-06T06:20:29.000Z</time>
</trkpt>
<trkpt lat="46.1441750" lon="10.1333590">
	<ele>1287.40</ele>
	<time>2024-09-06T06:20:30.000Z</time>
</trkpt>
<trkpt lat="46.1441740" lon="10.1333480">
	<ele>1287.60</ele>
	<time>2024-09-06T06:20:31.000Z</time>
</trkpt>
<trkpt lat="46.1441710" lon="10.1333370">
	<ele>1287.60</ele>
	<time>2024-09-06T06:20:32.000Z</time>
</trkpt>
<trkpt lat="46.1441700" lon="10.1333120">
	<ele>1287.80</ele>
	<time>2024-09-06T06:20:33.000Z</time>
</trkpt>
<trkpt lat="46.1441680" lon="10.1332930">
	<ele>1288.20</ele>
	<time>2024-09-06T06:20:34.000Z</time>
</trkpt>
<trkpt lat="46.1441720" lon="10.1332790">
	<ele>1288.40</ele>
	<time>2024-09-06T06:20:35.000Z</time>
</trkpt>
<trkpt lat="46.1441720" lon="10.1332680">
	<ele>1288.60</ele>
	<time>2024-09-06T06:20:36.000Z</time>
</trkpt>
<trkpt lat="46.1441720" lon="10.1332540">
	<ele>1288.80</ele>
	<time>2024-09-06T06:20:37.000Z</time>
</trkpt>
<trkpt lat="46.1441660" lon="10.1332340">
	<ele>1289.20</ele>
	<time>2024-09-06T06:20:38.000Z</time>
</trkpt>
<trkpt lat="46.1441600" lon="10.1332150">
	<ele>1289.40</ele>
	<time>2024-09-06T06:20:39.000Z</time>
</trkpt>
<trkpt lat="46.1441530" lon="10.1332010">
	<ele>1289.60</ele>
	<time>2024-09-06T06:20:40.000Z</time>
</trkpt>
<trkpt lat="46.1441510" lon="10.1331820">
	<ele>1289.80</ele>
	<time>2024-09-06T06:20:41.000Z</time>
</trkpt>
<trkpt lat="46.1441480" lon="10.1331620">
	<ele>1290.20</ele>
	<time>2024-09-06T06:20:42.000Z</time>
</trkpt>
<trkpt lat="46.1441450" lon="10.1331410">
	<ele>1290.40</ele>
	<time>2024-09-06T06:20:43.000Z</time>
</trkpt>
<trkpt lat="46.1441440" lon="10.1331280">
	<ele>1290.60</ele>
	<time>2024-09-06T06:20:44.000Z</time>
</trkpt>
<trkpt lat="46.1441420" lon="10.1331160">
	<ele>1290.80</ele>
	<time>2024-09-06T06:20:45.000Z</time>
</trkpt>
<trkpt lat="46.1441380" lon="10.1331020">
	<ele>1291.00</ele>
	<time>2024-09-06T06:20:46.000Z</time>
</trkpt>
<trkpt lat="46.1441360" lon="10.1330920">
	<ele>1291.20</ele>
	<time>2024-09-06T06:20:47.000Z</time>
</trkpt>
<trkpt lat="46.1441350" lon="10.1330770">
	<ele>1291.40</ele>
	<time>2024-09-06T06:20:48.000Z</time>
</trkpt>
<trkpt lat="46.1441370" lon="10.1330630">
	<ele>1291.60</ele>
	<time>2024-09-06T06:20:49.000Z</time>
</trkpt>
<trkpt lat="46.1441360" lon="10.1330510">
	<ele>1291.80</ele>
	<time>2024-09-06T06:20:50.000Z</time>
</trkpt>
<trkpt lat="46.1441360" lon="10.1330360">
	<ele>1292.00</ele>
	<time>2024-09-06T06:20:51.000Z</time>
</trkpt>
<trkpt lat="46.1441320" lon="10.1330250">
	<ele>1292.20</ele>
	<time>2024-09-06T06:20:52.000Z</time>
</trkpt>
<trkpt lat="46.1441250" lon="10.1330130">
	<ele>1292.40</ele>
	<time>2024-09-06T06:20:53.000Z</time>
</trkpt>
<trkpt lat="46.1441210" lon="10.1329990">
	<ele>1292.60</ele>
	<time>2024-09-06T06:20:54.000Z</time>
</trkpt>
<trkpt lat="46.1441170" lon="10.1329840">
	<ele>1292.80</ele>
	<time>2024-09-06T06:20:55.000Z</time>
</trkpt>
<trkpt lat="46.1441140" lon="10.1329670">
	<ele>1293.00</ele>
	<time>2024-09-06T06:20:56.000Z</time>
</trkpt>
<trkpt lat="46.1441240" lon="10.1329400">
	<ele>1293.20</ele>
	<time>2024-09-06T06:20:57.000Z</time>
</trkpt>
<trkpt lat="46.1441290" lon="10.1329160">
	<ele>1293.40</ele>
	<time>2024-09-06T06:20:58.000Z</time>
</trkpt>
<trkpt lat="46.1441330" lon="10.1329020">
	<ele>1293.40</ele>
	<time>2024-09-06T06:20:59.000Z</time>
</trkpt>
<trkpt lat="46.1441290" lon="10.1328890">
	<ele>1293.80</ele>
	<time>2024-09-06T06:21:00.000Z</time>
</trkpt>
<trkpt lat="46.1441190" lon="10.1328720">
	<ele>1294.00</ele>
	<time>2024-09-06T06:21:01.000Z</time>
</trkpt>
<trkpt lat="46.1441130" lon="10.1328530">
	<ele>1294.00</ele>
	<time>2024-09-06T06:21:02.000Z</time>
</trkpt>
<trkpt lat="46.1441020" lon="10.1328370">
	<ele>1294.00</ele>
	<time>2024-09-06T06:21:03.000Z</time>
</trkpt>
<trkpt lat="46.1440930" lon="10.1328230">
	<ele>1294.20</ele>
	<time>2024-09-06T06:21:04.000Z</time>
</trkpt>
<trkpt lat="46.1440900" lon="10.1328170">
	<ele>1294.40</ele>
	<time>2024-09-06T06:21:05.000Z</time>
</trkpt>
<trkpt lat="46.1440820" lon="10.1328130">
	<ele>1294.60</ele>
	<time>2024-09-06T06:21:06.000Z</time>
</trkpt>
<trkpt lat="46.1440690" lon="10.1328060">
	<ele>1294.60</ele>
	<time>2024-09-06T06:21:07.000Z</time>
</trkpt>
<trkpt lat="46.1440600" lon="10.1327930">
	<ele>1294.80</ele>
	<time>2024-09-06T06:21:08.000Z</time>
</trkpt>
<trkpt lat="46.1440530" lon="10.1327810">
	<ele>1294.80</ele>
	<time>2024-09-06T06:21:09.000Z</time>
</trkpt>
<trkpt lat="46.1440460" lon="10.1327700">
	<ele>1294.80</ele>
	<time>2024-09-06T06:21:10.000Z</time>
</trkpt>
<trkpt lat="46.1440380" lon="10.1327560">
	<ele>1295.00</ele>
	<time>2024-09-06T06:21:11.000Z</time>
</trkpt>
<trkpt lat="46.1440250" lon="10.1327430">
	<ele>1295.00</ele>
	<time>2024-09-06T06:21:12.000Z</time>
</trkpt>
<trkpt lat="46.1440220" lon="10.1327390">
	<ele>1295.20</ele>
	<time>2024-09-06T06:21:13.000Z</time>
</trkpt>
<trkpt lat="46.1440130" lon="10.1327300">
	<ele>1295.20</ele>
	<time>2024-09-06T06:21:14.000Z</time>
</trkpt>
<trkpt lat="46.1440010" lon="10.1327220">
	<ele>1295.40</ele>
	<time>2024-09-06T06:21:15.000Z</time>
</trkpt>
<trkpt lat="46.1439900" lon="10.1327110">
	<ele>1295.40</ele>
	<time>2024-09-06T06:21:16.000Z</time>
</trkpt>
<trkpt lat="46.1439810" lon="10.1327050">
	<ele>1295.60</ele>
	<time>2024-09-06T06:21:17.000Z</time>
</trkpt>
<trkpt lat="46.1439740" lon="10.1326990">
	<ele>1295.80</ele>
	<time>2024-09-06T06:21:18.000Z</time>
</trkpt>
<trkpt lat="46.1439660" lon="10.1326890">
	<ele>1296.00</ele>
	<time>2024-09-06T06:21:19.000Z</time>
</trkpt>
<trkpt lat="46.1439560" lon="10.1326760">
	<ele>1296.20</ele>
	<time>2024-09-06T06:21:20.000Z</time>
</trkpt>
<trkpt lat="46.1439410" lon="10.1326610">
	<ele>1296.40</ele>
	<time>2024-09-06T06:21:21.000Z</time>
</trkpt>
<trkpt lat="46.1439300" lon="10.1326450">
	<ele>1296.60</ele>
	<time>2024-09-06T06:21:22.000Z</time>
</trkpt>
<trkpt lat="46.1439210" lon="10.1326320">
	<ele>1296.60</ele>
	<time>2024-09-06T06:21:23.000Z</time>
</trkpt>
<trkpt lat="46.1439160" lon="10.1326280">
	<ele>1296.80</ele>
	<time>2024-09-06T06:21:24.000Z</time>
</trkpt>
<trkpt lat="46.1439130" lon="10.1326210">
	<ele>1297.00</ele>
	<time>2024-09-06T06:21:25.000Z</time>
</trkpt>
<trkpt lat="46.1439100" lon="10.1326160">
	<ele>1297.20</ele>
	<time>2024-09-06T06:21:26.000Z</time>
</trkpt>
<trkpt lat="46.1439070" lon="10.1326130">
	<ele>1297.40</ele>
	<time>2024-09-06T06:21:27.000Z</time>
</trkpt>
<trkpt lat="46.1439040" lon="10.1326090">
	<ele>1297.60</ele>
	<time>2024-09-06T06:21:28.000Z</time>
</trkpt>
<trkpt lat="46.1439040" lon="10.1326040">
	<ele>1297.80</ele>
	<time>2024-09-06T06:21:29.000Z</time>
</trkpt>
<trkpt lat="46.1439040" lon="10.1325900">
	<ele>1297.80</ele>
	<time>2024-09-06T06:21:30.000Z</time>
</trkpt>
<trkpt lat="46.1439000" lon="10.1325780">
	<ele>1298.00</ele>
	<time>2024-09-06T06:21:31.000Z</time>
</trkpt>
<trkpt lat="46.1438950" lon="10.1325630">
	<ele>1298.20</ele>
	<time>2024-09-06T06:21:32.000Z</time>
</trkpt>
<trkpt lat="46.1438930" lon="10.1325500">
	<ele>1298.20</ele>
	<time>2024-09-06T06:21:33.000Z</time>
</trkpt>
<trkpt lat="46.1438890" lon="10.1325380">
	<ele>1298.20</ele>
	<time>2024-09-06T06:21:34.000Z</time>
</trkpt>
<trkpt lat="46.1438840" lon="10.1325240">
	<ele>1298.40</ele>
	<time>2024-09-06T06:21:35.000Z</time>
</trkpt>
<trkpt lat="46.1438800" lon="10.1325090">
	<ele>1298.60</ele>
	<time>2024-09-06T06:21:36.000Z</time>
</trkpt>
<trkpt lat="46.1438740" lon="10.1324980">
	<ele>1298.80</ele>
	<time>2024-09-06T06:21:37.000Z</time>
</trkpt>
<trkpt lat="46.1438670" lon="10.1324850">
	<ele>1299.00</ele>
	<time>2024-09-06T06:21:38.000Z</time>
</trkpt>
<trkpt lat="46.1438650" lon="10.1324680">
	<ele>1299.20</ele>
	<time>2024-09-06T06:21:39.000Z</time>
</trkpt>
<trkpt lat="46.1438610" lon="10.1324530">
	<ele>1299.20</ele>
	<time>2024-09-06T06:21:40.000Z</time>
</trkpt>
<trkpt lat="46.1438560" lon="10.1324350">
	<ele>1299.40</ele>
	<time>2024-09-06T06:21:41.000Z</time>
</trkpt>
<trkpt lat="46.1438530" lon="10.1324230">
	<ele>1299.40</ele>
	<time>2024-09-06T06:21:42.000Z</time>
</trkpt>
<trkpt lat="46.1438520" lon="10.1324100">
	<ele>1299.60</ele>
	<time>2024-09-06T06:21:43.000Z</time>
</trkpt>
<trkpt lat="46.1438510" lon="10.1323950">
	<ele>1299.80</ele>
	<time>2024-09-06T06:21:44.000Z</time>
</trkpt>
<trkpt lat="46.1438440" lon="10.1323790">
	<ele>1299.80</ele>
	<time>2024-09-06T06:21:45.000Z</time>
</trkpt>
<trkpt lat="46.1438390" lon="10.1323620">
	<ele>1300.00</ele>
	<time>2024-09-06T06:21:46.000Z</time>
</trkpt>
<trkpt lat="46.1438370" lon="10.1323490">
	<ele>1300.00</ele>
	<time>2024-09-06T06:21:47.000Z</time>
</trkpt>
<trkpt lat="46.1438340" lon="10.1323390">
	<ele>1300.20</ele>
	<time>2024-09-06T06:21:48.000Z</time>
</trkpt>
<trkpt lat="46.1438290" lon="10.1323230">
	<ele>1300.40</ele>
	<time>2024-09-06T06:21:49.000Z</time>
</trkpt>
<trkpt lat="46.1438260" lon="10.1323060">
	<ele>1300.40</ele>
	<time>2024-09-06T06:21:50.000Z</time>
</trkpt>
<trkpt lat="46.1438240" lon="10.1322880">
	<ele>1300.60</ele>
	<time>2024-09-06T06:21:51.000Z</time>
</trkpt>
<trkpt lat="46.1438190" lon="10.1322670">
	<ele>1300.60</ele>
	<time>2024-09-06T06:21:52.000Z</time>
</trkpt>
<trkpt lat="46.1438190" lon="10.1322480">
	<ele>1300.80</ele>
	<time>2024-09-06T06:21:53.000Z</time>
</trkpt>
<trkpt lat="46.1438200" lon="10.1322290">
	<ele>1300.80</ele>
	<time>2024-09-06T06:21:54.000Z</time>
</trkpt>
<trkpt lat="46.1438200" lon="10.1322110">
	<ele>1300.80</ele>
	<time>2024-09-06T06:21:55.000Z</time>
</trkpt>
<trkpt lat="46.1438180" lon="10.1321980">
	<ele>1301.00</ele>
	<time>2024-09-06T06:21:56.000Z</time>
</trkpt>
<trkpt lat="46.1438050" lon="10.1321860">
	<ele>1301.00</ele>
	<time>2024-09-06T06:21:57.000Z</time>
</trkpt>
<trkpt lat="46.1437980" lon="10.1321680">
	<ele>1301.20</ele>
	<time>2024-09-06T06:21:58.000Z</time>
</trkpt>
<trkpt lat="46.1437920" lon="10.1321550">
	<ele>1301.20</ele>
	<time>2024-09-06T06:21:59.000Z</time>
</trkpt>
<trkpt lat="46.1437920" lon="10.1321340">
	<ele>1301.20</ele>
	<time>2024-09-06T06:22:00.000Z</time>
</trkpt>
<trkpt lat="46.1437910" lon="10.1321190">
	<ele>1301.40</ele>
	<time>2024-09-06T06:22:01.000Z</time>
</trkpt>
<trkpt lat="46.1437920" lon="10.1321030">
	<ele>1301.40</ele>
	<time>2024-09-06T06:22:02.000Z</time>
</trkpt>
<trkpt lat="46.1437920" lon="10.1320890">
	<ele>1301.60</ele>
	<time>2024-09-06T06:22:03.000Z</time>
</trkpt>
<trkpt lat="46.1437890" lon="10.1320710">
	<ele>1301.60</ele>
	<time>2024-09-06T06:22:04.000Z</time>
</trkpt>
<trkpt lat="46.1437840" lon="10.1320550">
	<ele>1301.80</ele>
	<time>2024-09-06T06:22:05.000Z</time>
</trkpt>
<trkpt lat="46.1437800" lon="10.1320420">
	<ele>1302.00</ele>
	<time>2024-09-06T06:22:06.000Z</time>
</trkpt>
<trkpt lat="46.1437750" lon="10.1320300">
	<ele>1302.00</ele>
	<time>2024-09-06T06:22:07.000Z</time>
</trkpt>
<trkpt lat="46.1437720" lon="10.1320140">
	<ele>1302.40</ele>
	<time>2024-09-06T06:22:08.000Z</time>
</trkpt>
<trkpt lat="46.1437700" lon="10.1320020">
	<ele>1302.40</ele>
	<time>2024-09-06T06:22:09.000Z</time>
</trkpt>
<trkpt lat="46.1437660" lon="10.1319890">
	<ele>1302.60</ele>
	<time>2024-09-06T06:22:10.000Z</time>
</trkpt>
<trkpt lat="46.1437620" lon="10.1319760">
	<ele>1302.60</ele>
	<time>2024-09-06T06:22:11.000Z</time>
</trkpt>
<trkpt lat="46.1437600" lon="10.1319630">
	<ele>1302.80</ele>
	<time>2024-09-06T06:22:12.000Z</time>
</trkpt>
<trkpt lat="46.1437570" lon="10.1319490">
	<ele>1302.80</ele>
	<time>2024-09-06T06:22:13.000Z</time>
</trkpt>
<trkpt lat="46.1437590" lon="10.1319370">
	<ele>1303.00</ele>
	<time>2024-09-06T06:22:14.000Z</time>
</trkpt>
<trkpt lat="46.1437570" lon="10.1319210">
	<ele>1303.00</ele>
	<time>2024-09-06T06:22:15.000Z</time>
</trkpt>
<trkpt lat="46.1437570" lon="10.1319070">
	<ele>1303.00</ele>
	<time>2024-09-06T06:22:16.000Z</time>
</trkpt>
<trkpt lat="46.1437560" lon="10.1318930">
	<ele>1303.20</ele>
	<time>2024-09-06T06:22:17.000Z</time>
</trkpt>
<trkpt lat="46.1437580" lon="10.1318830">
	<ele>1303.20</ele>
	<time>2024-09-06T06:22:18.000Z</time>
</trkpt>
<trkpt lat="46.1437610" lon="10.1318740">
	<ele>1303.40</ele>
	<time>2024-09-06T06:22:19.000Z</time>
</trkpt>
<trkpt lat="46.1437630" lon="10.1318630">
	<ele>1303.40</ele>
	<time>2024-09-06T06:22:20.000Z</time>
</trkpt>
<trkpt lat="46.1437680" lon="10.1318540">
	<ele>1303.40</ele>
	<time>2024-09-06T06:22:21.000Z</time>
</trkpt>
<trkpt lat="46.1437740" lon="10.1318430">
	<ele>1303.40</ele>
	<time>2024-09-06T06:22:22.000Z</time>
</trkpt>
<trkpt lat="46.1437790" lon="10.1318320">
	<ele>1303.40</ele>
	<time>2024-09-06T06:22:23.000Z</time>
</trkpt>
<trkpt lat="46.1437840" lon="10.1318240">
	<ele>1303.40</ele>
	<time>2024-09-06T06:22:24.000Z</time>
</trkpt>
<trkpt lat="46.1437880" lon="10.1318190">
	<ele>1303.40</ele>
	<time>2024-09-06T06:22:25.000Z</time>
</trkpt>
<trkpt lat="46.1437940" lon="10.1318220">
	<ele>1303.40</ele>
	<time>2024-09-06T06:22:26.000Z</time>
</trkpt>
<trkpt lat="46.1437990" lon="10.1318220">
	<ele>1303.40</ele>
	<time>2024-09-06T06:22:27.000Z</time>
</trkpt>
<trkpt lat="46.1438010" lon="10.1318210">
	<ele>1303.40</ele>
	<time>2024-09-06T06:22:28.000Z</time>
</trkpt>
<trkpt lat="46.1438020" lon="10.1318200">
	<ele>1303.40</ele>
	<time>2024-09-06T06:22:29.000Z</time>
</trkpt>
<trkpt lat="46.1438030" lon="10.1318220">
	<ele>1303.20</ele>
	<time>2024-09-06T06:22:30.000Z</time>
</trkpt>
<trkpt lat="46.1438040" lon="10.1318230">
	<ele>1303.00</ele>
	<time>2024-09-06T06:22:31.000Z</time>
</trkpt>
<trkpt lat="46.1438040" lon="10.1318240">
	<ele>1303.00</ele>
	<time>2024-09-06T06:22:32.000Z</time>
</trkpt>
<trkpt lat="46.1438040" lon="10.1318250">
	<ele>1303.00</ele>
	<time>2024-09-06T06:22:33.000Z</time>
</trkpt>
<trkpt lat="46.1438040" lon="10.1318260">
	<ele>1303.00</ele>
	<time>2024-09-06T06:22:34.000Z</time>
</trkpt>
<trkpt lat="46.1438050" lon="10.1318260">
	<ele>1302.80</ele>
	<time>2024-09-06T06:22:35.000Z</time>
</trkpt>
<trkpt lat="46.1438040" lon="10.1318270">
	<ele>1302.80</ele>
	<time>2024-09-06T06:22:36.000Z</time>
</trkpt>
<trkpt lat="46.1438040" lon="10.1318270">
	<ele>1302.80</ele>
	<time>2024-09-06T06:22:37.000Z</time>
</trkpt>
<trkpt lat="46.1438040" lon="10.1318270">
	<ele>1302.80</ele>
	<time>2024-09-06T06:22:38.000Z</time>
</trkpt>
<trkpt lat="46.1438040" lon="10.1318270">
	<ele>1303.00</ele>
	<time>2024-09-06T06:22:39.000Z</time>
</trkpt>
<trkpt lat="46.1438040" lon="10.1318270">
	<ele>1303.00</ele>
	<time>2024-09-06T06:22:40.000Z</time>
</trkpt>
<trkpt lat="46.1438040" lon="10.1318270">
	<ele>1303.00</ele>
	<time>2024-09-06T06:22:41.000Z</time>
</trkpt>
<trkpt lat="46.1438040" lon="10.1318270">
	<ele>1303.00</ele>
	<time>2024-09-06T06:22:42.000Z</time>
</trkpt>
<trkpt lat="46.1438040" lon="10.1318270">
	<ele>1303.00</ele>
	<time>2024-09-06T06:22:43.000Z</time>
</trkpt>
<trkpt lat="46.1438040" lon="10.1318270">
	<ele>1303.00</ele>
	<time>2024-09-06T06:22:44.000Z</time>
</trkpt>
<trkpt lat="46.1438040" lon="10.1318270">
	<ele>1303.00</ele>
	<time>2024-09-06T06:22:45.000Z</time>
</trkpt>
<trkpt lat="46.1438040" lon="10.1318260">
	<ele>1303.00</ele>
	<time>2024-09-06T06:22:46.000Z</time>
</trkpt>
<trkpt lat="46.1438040" lon="10.1318260">
	<ele>1303.00</ele>
	<time>2024-09-06T06:22:47.000Z</time>
</trkpt>
<trkpt lat="46.1438040" lon="10.1318250">
	<ele>1303.00</ele>
	<time>2024-09-06T06:22:48.000Z</time>
</trkpt>
<trkpt lat="46.1438040" lon="10.1318250">
	<ele>1303.00</ele>
	<time>2024-09-06T06:22:49.000Z</time>
</trkpt>
<trkpt lat="46.1438030" lon="10.1318250">
	<ele>1303.00</ele>
	<time>2024-09-06T06:22:50.000Z</time>
</trkpt>
<trkpt lat="46.1438030" lon="10.1318250">
	<ele>1303.00</ele>
	<time>2024-09-06T06:22:51.000Z</time>
</trkpt>
<trkpt lat="46.1438030" lon="10.1318250">
	<ele>1303.00</ele>
	<time>2024-09-06T06:22:52.000Z</time>
</trkpt>
<trkpt lat="46.1438020" lon="10.1318250">
	<ele>1303.20</ele>
	<time>2024-09-06T06:22:53.000Z</time>
</trkpt>
<trkpt lat="46.1438020" lon="10.1318250">
	<ele>1303.20</ele>
	<time>2024-09-06T06:22:54.000Z</time>
</trkpt>
<trkpt lat="46.1438010" lon="10.1318240">
	<ele>1303.20</ele>
	<time>2024-09-06T06:22:55.000Z</time>
</trkpt>
<trkpt lat="46.1438010" lon="10.1318230">
	<ele>1303.20</ele>
	<time>2024-09-06T06:22:56.000Z</time>
</trkpt>
<trkpt lat="46.1438000" lon="10.1318220">
	<ele>1303.20</ele>
	<time>2024-09-06T06:22:57.000Z</time>
</trkpt>
<trkpt lat="46.1438000" lon="10.1318220">
	<ele>1303.20</ele>
	<time>2024-09-06T06:22:58.000Z</time>
</trkpt>
<trkpt lat="46.1438000" lon="10.1318220">
	<ele>1303.20</ele>
	<time>2024-09-06T06:22:59.000Z</time>
</trkpt>
<trkpt lat="46.1438000" lon="10.1318220">
	<ele>1303.20</ele>
	<time>2024-09-06T06:23:00.000Z</time>
</trkpt>
<trkpt lat="46.1438000" lon="10.1318210">
	<ele>1303.20</ele>
	<time>2024-09-06T06:23:01.000Z</time>
</trkpt>
<trkpt lat="46.1438000" lon="10.1318190">
	<ele>1303.20</ele>
	<time>2024-09-06T06:23:02.000Z</time>
</trkpt>
<trkpt lat="46.1438000" lon="10.1318170">
	<ele>1303.20</ele>
	<time>2024-09-06T06:23:03.000Z</time>
</trkpt>
<trkpt lat="46.1438000" lon="10.1318130">
	<ele>1303.20</ele>
	<time>2024-09-06T06:23:04.000Z</time>
</trkpt>
<trkpt lat="46.1438000" lon="10.1318070">
	<ele>1303.20</ele>
	<time>2024-09-06T06:23:05.000Z</time>
</trkpt>
<trkpt lat="46.1438000" lon="10.1318040">
	<ele>1303.20</ele>
	<time>2024-09-06T06:23:06.000Z</time>
</trkpt>
<trkpt lat="46.1438000" lon="10.1317970">
	<ele>1303.20</ele>
	<time>2024-09-06T06:23:07.000Z</time>
</trkpt>
<trkpt lat="46.1438000" lon="10.1317940">
	<ele>1303.20</ele>
	<time>2024-09-06T06:23:08.000Z</time>
</trkpt>
<trkpt lat="46.1438000" lon="10.1317920">
	<ele>1303.20</ele>
	<time>2024-09-06T06:23:09.000Z</time>
</trkpt>
<trkpt lat="46.1438020" lon="10.1317900">
	<ele>1303.20</ele>
	<time>2024-09-06T06:23:10.000Z</time>
</trkpt>
<trkpt lat="46.1438020" lon="10.1317890">
	<ele>1303.20</ele>
	<time>2024-09-06T06:23:11.000Z</time>
</trkpt>
<trkpt lat="46.1438020" lon="10.1317880">
	<ele>1303.00</ele>
	<time>2024-09-06T06:23:12.000Z</time>
</trkpt>
<trkpt lat="46.1438020" lon="10.1317820">
	<ele>1303.00</ele>
	<time>2024-09-06T06:23:13.000Z</time>
</trkpt>
<trkpt lat="46.1438020" lon="10.1317810">
	<ele>1303.00</ele>
	<time>2024-09-06T06:23:14.000Z</time>
</trkpt>
<trkpt lat="46.1438020" lon="10.1317810">
	<ele>1303.00</ele>
	<time>2024-09-06T06:23:15.000Z</time>
</trkpt>
<trkpt lat="46.1438020" lon="10.1317810">
	<ele>1303.00</ele>
	<time>2024-09-06T06:23:16.000Z</time>
</trkpt>
<trkpt lat="46.1438010" lon="10.1317810">
	<ele>1303.00</ele>
	<time>2024-09-06T06:23:17.000Z</time>
</trkpt>
<trkpt lat="46.1438000" lon="10.1317810">
	<ele>1303.00</ele>
	<time>2024-09-06T06:23:18.000Z</time>
</trkpt>
<trkpt lat="46.1438000" lon="10.1317810">
	<ele>1303.00</ele>
	<time>2024-09-06T06:23:19.000Z</time>
</trkpt>
<trkpt lat="46.1438000" lon="10.1317810">
	<ele>1303.20</ele>
	<time>2024-09-06T06:23:20.000Z</time>
</trkpt>
<trkpt lat="46.1438000" lon="10.1317810">
	<ele>1303.20</ele>
	<time>2024-09-06T06:23:21.000Z</time>
</trkpt>
<trkpt lat="46.1437940" lon="10.1317870">
	<ele>1303.20</ele>
	<time>2024-09-06T06:23:22.000Z</time>
</trkpt>
<trkpt lat="46.1437830" lon="10.1317960">
	<ele>1303.20</ele>
	<time>2024-09-06T06:23:23.000Z</time>
</trkpt>
<trkpt lat="46.1437760" lon="10.1318040">
	<ele>1303.20</ele>
	<time>2024-09-06T06:23:24.000Z</time>
</trkpt>
<trkpt lat="46.1437710" lon="10.1318110">
	<ele>1303.40</ele>
	<time>2024-09-06T06:23:25.000Z</time>
</trkpt>
<trkpt lat="46.1437660" lon="10.1318170">
	<ele>1303.40</ele>
	<time>2024-09-06T06:23:26.000Z</time>
</trkpt>
<trkpt lat="46.1437580" lon="10.1318190">
	<ele>1303.40</ele>
	<time>2024-09-06T06:23:27.000Z</time>
</trkpt>
<trkpt lat="46.1437470" lon="10.1318180">
	<ele>1303.40</ele>
	<time>2024-09-06T06:23:28.000Z</time>
</trkpt>
<trkpt lat="46.1437350" lon="10.1318170">
	<ele>1303.60</ele>
	<time>2024-09-06T06:23:29.000Z</time>
</trkpt>
<trkpt lat="46.1437200" lon="10.1318140">
	<ele>1303.60</ele>
	<time>2024-09-06T06:23:30.000Z</time>
</trkpt>
<trkpt lat="46.1437000" lon="10.1318080">
	<ele>1303.60</ele>
	<time>2024-09-06T06:23:31.000Z</time>
</trkpt>
<trkpt lat="46.1436920" lon="10.1318000">
	<ele>1303.60</ele>
	<time>2024-09-06T06:23:32.000Z</time>
</trkpt>
<trkpt lat="46.1436890" lon="10.1317900">
	<ele>1303.60</ele>
	<time>2024-09-06T06:23:33.000Z</time>
</trkpt>
<trkpt lat="46.1436870" lon="10.1317830">
	<ele>1303.80</ele>
	<time>2024-09-06T06:23:34.000Z</time>
</trkpt>
<trkpt lat="46.1436780" lon="10.1317740">
	<ele>1304.00</ele>
	<time>2024-09-06T06:23:35.000Z</time>
</trkpt>
<trkpt lat="46.1436750" lon="10.1317720">
	<ele>1304.00</ele>
	<time>2024-09-06T06:23:36.000Z</time>
</trkpt>
<trkpt lat="46.1436760" lon="10.1317640">
	<ele>1304.20</ele>
	<time>2024-09-06T06:23:37.000Z</time>
</trkpt>
<trkpt lat="46.1436750" lon="10.1317650">
	<ele>1304.40</ele>
	<time>2024-09-06T06:23:38.000Z</time>
</trkpt>
<trkpt lat="46.1436730" lon="10.1317650">
	<ele>1304.40</ele>
	<time>2024-09-06T06:23:39.000Z</time>
</trkpt>
<trkpt lat="46.1436730" lon="10.1317660">
	<ele>1304.40</ele>
	<time>2024-09-06T06:23:40.000Z</time>
</trkpt>
<trkpt lat="46.1436710" lon="10.1317630">
	<ele>1304.40</ele>
	<time>2024-09-06T06:23:41.000Z</time>
</trkpt>
<trkpt lat="46.1436710" lon="10.1317610">
	<ele>1304.40</ele>
	<time>2024-09-06T06:23:42.000Z</time>
</trkpt>
<trkpt lat="46.1436780" lon="10.1317680">
	<ele>1304.40</ele>
	<time>2024-09-06T06:23:43.000Z</time>
</trkpt>
<trkpt lat="46.1436770" lon="10.1317670">
	<ele>1304.40</ele>
	<time>2024-09-06T06:23:44.000Z</time>
</trkpt>
<trkpt lat="46.1436770" lon="10.1317670">
	<ele>1304.40</ele>
	<time>2024-09-06T06:23:45.000Z</time>
</trkpt>
<trkpt lat="46.1436780" lon="10.1317690">
	<ele>1304.40</ele>
	<time>2024-09-06T06:23:46.000Z</time>
</trkpt>
<trkpt lat="46.1436840" lon="10.1317720">
	<ele>1304.40</ele>
	<time>2024-09-06T06:23:47.000Z</time>
</trkpt>
<trkpt lat="46.1436860" lon="10.1317730">
	<ele>1304.40</ele>
	<time>2024-09-06T06:23:48.000Z</time>
</trkpt>
<trkpt lat="46.1436870" lon="10.1317740">
	<ele>1304.40</ele>
	<time>2024-09-06T06:23:49.000Z</time>
</trkpt>
<trkpt lat="46.1436880" lon="10.1317740">
	<ele>1304.40</ele>
	<time>2024-09-06T06:23:50.000Z</time>
</trkpt>
<trkpt lat="46.1436880" lon="10.1317740">
	<ele>1304.40</ele>
	<time>2024-09-06T06:23:51.000Z</time>
</trkpt>
<trkpt lat="46.1436880" lon="10.1317740">
	<ele>1304.40</ele>
	<time>2024-09-06T06:23:52.000Z</time>
</trkpt>
<trkpt lat="46.1436880" lon="10.1317740">
	<ele>1304.40</ele>
	<time>2024-09-06T06:23:53.000Z</time>
</trkpt>
<trkpt lat="46.1436880" lon="10.1317740">
	<ele>1304.40</ele>
	<time>2024-09-06T06:23:54.000Z</time>
</trkpt>
<trkpt lat="46.1436880" lon="10.1317740">
	<ele>1304.40</ele>
	<time>2024-09-06T06:23:55.000Z</time>
</trkpt>
<trkpt lat="46.1436880" lon="10.1317740">
	<ele>1304.40</ele>
	<time>2024-09-06T06:23:56.000Z</time>
</trkpt>
<trkpt lat="46.1436880" lon="10.1317740">
	<ele>1304.40</ele>
	<time>2024-09-06T06:23:57.000Z</time>
</trkpt>
<trkpt lat="46.1436870" lon="10.1317740">
	<ele>1304.40</ele>
	<time>2024-09-06T06:23:58.000Z</time>
</trkpt>
<trkpt lat="46.1436860" lon="10.1317740">
	<ele>1304.40</ele>
	<time>2024-09-06T06:23:59.000Z</time>
</trkpt>
<trkpt lat="46.1436860" lon="10.1317740">
	<ele>1304.40</ele>
	<time>2024-09-06T06:24:00.000Z</time>
</trkpt>
<trkpt lat="46.1436860" lon="10.1317730">
	<ele>1304.40</ele>
	<time>2024-09-06T06:24:01.000Z</time>
</trkpt>
<trkpt lat="46.1436850" lon="10.1317730">
	<ele>1304.40</ele>
	<time>2024-09-06T06:24:02.000Z</time>
</trkpt>
<trkpt lat="46.1436840" lon="10.1317730">
	<ele>1304.40</ele>
	<time>2024-09-06T06:24:03.000Z</time>
</trkpt>
<trkpt lat="46.1436830" lon="10.1317720">
	<ele>1304.40</ele>
	<time>2024-09-06T06:24:04.000Z</time>
</trkpt>
<trkpt lat="46.1436830" lon="10.1317700">
	<ele>1304.60</ele>
	<time>2024-09-06T06:24:05.000Z</time>
</trkpt>
<trkpt lat="46.1436800" lon="10.1317630">
	<ele>1304.80</ele>
	<time>2024-09-06T06:24:06.000Z</time>
</trkpt>
<trkpt lat="46.1436750" lon="10.1317460">
	<ele>1305.00</ele>
	<time>2024-09-06T06:24:07.000Z</time>
</trkpt>
<trkpt lat="46.1436720" lon="10.1317310">
	<ele>1305.00</ele>
	<time>2024-09-06T06:24:08.000Z</time>
</trkpt>
<trkpt lat="46.1436660" lon="10.1317160">
	<ele>1305.20</ele>
	<time>2024-09-06T06:24:09.000Z</time>
</trkpt>
<trkpt lat="46.1436590" lon="10.1317010">
	<ele>1305.40</ele>
	<time>2024-09-06T06:24:10.000Z</time>
</trkpt>
<trkpt lat="46.1436510" lon="10.1316850">
	<ele>1305.60</ele>
	<time>2024-09-06T06:24:11.000Z</time>
</trkpt>
<trkpt lat="46.1436440" lon="10.1316650">
	<ele>1305.80</ele>
	<time>2024-09-06T06:24:12.000Z</time>
</trkpt>
<trkpt lat="46.1436370" lon="10.1316440">
	<ele>1306.00</ele>
	<time>2024-09-06T06:24:13.000Z</time>
</trkpt>
<trkpt lat="46.1436270" lon="10.1316250">
	<ele>1306.20</ele>
	<time>2024-09-06T06:24:14.000Z</time>
</trkpt>
<trkpt lat="46.1436190" lon="10.1316060">
	<ele>1306.40</ele>
	<time>2024-09-06T06:24:15.000Z</time>
</trkpt>
<trkpt lat="46.1436140" lon="10.1315940">
	<ele>1306.60</ele>
	<time>2024-09-06T06:24:16.000Z</time>
</trkpt>
<trkpt lat="46.1436100" lon="10.1315820">
	<ele>1306.60</ele>
	<time>2024-09-06T06:24:17.000Z</time>
</trkpt>
<trkpt lat="46.1436070" lon="10.1315720">
	<ele>1306.80</ele>
	<time>2024-09-06T06:24:18.000Z</time>
</trkpt>
<trkpt lat="46.1436030" lon="10.1315620">
	<ele>1307.00</ele>
	<time>2024-09-06T06:24:19.000Z</time>
</trkpt>
<trkpt lat="46.1435940" lon="10.1315500">
	<ele>1307.20</ele>
	<time>2024-09-06T06:24:20.000Z</time>
</trkpt>
<trkpt lat="46.1435880" lon="10.1315420">
	<ele>1307.40</ele>
	<time>2024-09-06T06:24:21.000Z</time>
</trkpt>
<trkpt lat="46.1435800" lon="10.1315270">
	<ele>1307.60</ele>
	<time>2024-09-06T06:24:22.000Z</time>
</trkpt>
<trkpt lat="46.1435760" lon="10.1315180">
	<ele>1307.60</ele>
	<time>2024-09-06T06:24:23.000Z</time>
</trkpt>
<trkpt lat="46.1435720" lon="10.1315070">
	<ele>1308.00</ele>
	<time>2024-09-06T06:24:24.000Z</time>
</trkpt>
<trkpt lat="46.1435660" lon="10.1314940">
	<ele>1308.20</ele>
	<time>2024-09-06T06:24:25.000Z</time>
</trkpt>
<trkpt lat="46.1435550" lon="10.1314780">
	<ele>1308.40</ele>
	<time>2024-09-06T06:24:26.000Z</time>
</trkpt>
<trkpt lat="46.1435470" lon="10.1314640">
	<ele>1308.60</ele>
	<time>2024-09-06T06:24:27.000Z</time>
</trkpt>
<trkpt lat="46.1435410" lon="10.1314510">
	<ele>1308.80</ele>
	<time>2024-09-06T06:24:28.000Z</time>
</trkpt>
<trkpt lat="46.1435370" lon="10.1314440">
	<ele>1309.00</ele>
	<time>2024-09-06T06:24:29.000Z</time>
</trkpt>
<trkpt lat="46.1435270" lon="10.1314350">
	<ele>1309.20</ele>
	<time>2024-09-06T06:24:30.000Z</time>
</trkpt>
<trkpt lat="46.1435190" lon="10.1314290">
	<ele>1309.40</ele>
	<time>2024-09-06T06:24:31.000Z</time>
</trkpt>
<trkpt lat="46.1435110" lon="10.1314230">
	<ele>1309.60</ele>
	<time>2024-09-06T06:24:32.000Z</time>
</trkpt>
<trkpt lat="46.1434980" lon="10.1314130">
	<ele>1309.80</ele>
	<time>2024-09-06T06:24:33.000Z</time>
</trkpt>
<trkpt lat="46.1434860" lon="10.1314030">
	<ele>1309.80</ele>
	<time>2024-09-06T06:24:34.000Z</time>
</trkpt>
<trkpt lat="46.1434750" lon="10.1313930">
	<ele>1310.00</ele>
	<time>2024-09-06T06:24:35.000Z</time>
</trkpt>
<trkpt lat="46.1434610" lon="10.1313840">
	<ele>1310.00</ele>
	<time>2024-09-06T06:24:36.000Z</time>
</trkpt>
<trkpt lat="46.1434490" lon="10.1313720">
	<ele>1310.20</ele>
	<time>2024-09-06T06:24:37.000Z</time>
</trkpt>
<trkpt lat="46.1434390" lon="10.1313630">
	<ele>1310.20</ele>
	<time>2024-09-06T06:24:38.000Z</time>
</trkpt>
<trkpt lat="46.1434290" lon="10.1313510">
	<ele>1310.40</ele>
	<time>2024-09-06T06:24:39.000Z</time>
</trkpt>
<trkpt lat="46.1434190" lon="10.1313400">
	<ele>1310.60</ele>
	<time>2024-09-06T06:24:40.000Z</time>
</trkpt>
<trkpt lat="46.1434070" lon="10.1313320">
	<ele>1310.60</ele>
	<time>2024-09-06T06:24:41.000Z</time>
</trkpt>
<trkpt lat="46.1433930" lon="10.1313230">
	<ele>1310.80</ele>
	<time>2024-09-06T06:24:42.000Z</time>
</trkpt>
<trkpt lat="46.1433800" lon="10.1313130">
	<ele>1311.00</ele>
	<time>2024-09-06T06:24:43.000Z</time>
</trkpt>
<trkpt lat="46.1433700" lon="10.1313040">
	<ele>1311.20</ele>
	<time>2024-09-06T06:24:44.000Z</time>
</trkpt>
<trkpt lat="46.1433590" lon="10.1312950">
	<ele>1311.40</ele>
	<time>2024-09-06T06:24:45.000Z</time>
</trkpt>
<trkpt lat="46.1433480" lon="10.1312900">
	<ele>1311.60</ele>
	<time>2024-09-06T06:24:46.000Z</time>
</trkpt>
<trkpt lat="46.1433380" lon="10.1312800">
	<ele>1311.60</ele>
	<time>2024-09-06T06:24:47.000Z</time>
</trkpt>
<trkpt lat="46.1433260" lon="10.1312710">
	<ele>1311.80</ele>
	<time>2024-09-06T06:24:48.000Z</time>
</trkpt>
<trkpt lat="46.1433170" lon="10.1312660">
	<ele>1311.80</ele>
	<time>2024-09-06T06:24:49.000Z</time>
</trkpt>
<trkpt lat="46.1433090" lon="10.1312660">
	<ele>1312.00</ele>
	<time>2024-09-06T06:24:50.000Z</time>
</trkpt>
<trkpt lat="46.1432970" lon="10.1312640">
	<ele>1312.20</ele>
	<time>2024-09-06T06:24:51.000Z</time>
</trkpt>
<trkpt lat="46.1432870" lon="10.1312570">
	<ele>1312.20</ele>
	<time>2024-09-06T06:24:52.000Z</time>
</trkpt>
<trkpt lat="46.1432760" lon="10.1312480">
	<ele>1312.40</ele>
	<time>2024-09-06T06:24:53.000Z</time>
</trkpt>
<trkpt lat="46.1432660" lon="10.1312400">
	<ele>1312.60</ele>
	<time>2024-09-06T06:24:54.000Z</time>
</trkpt>
<trkpt lat="46.1432550" lon="10.1312350">
	<ele>1312.60</ele>
	<time>2024-09-06T06:24:55.000Z</time>
</trkpt>
<trkpt lat="46.1432480" lon="10.1312270">
	<ele>1312.80</ele>
	<time>2024-09-06T06:24:56.000Z</time>
</trkpt>
<trkpt lat="46.1432420" lon="10.1312160">
	<ele>1312.80</ele>
	<time>2024-09-06T06:24:57.000Z</time>
</trkpt>
<trkpt lat="46.1432340" lon="10.1312030">
	<ele>1313.00</ele>
	<time>2024-09-06T06:24:58.000Z</time>
</trkpt>
<trkpt lat="46.1432270" lon="10.1311870">
	<ele>1313.00</ele>
	<time>2024-09-06T06:24:59.000Z</time>
</trkpt>
<trkpt lat="46.1432200" lon="10.1311760">
	<ele>1313.00</ele>
	<time>2024-09-06T06:25:00.000Z</time>
</trkpt>
<trkpt lat="46.1432160" lon="10.1311650">
	<ele>1313.20</ele>
	<time>2024-09-06T06:25:01.000Z</time>
</trkpt>
<trkpt lat="46.1432090" lon="10.1311500">
	<ele>1313.40</ele>
	<time>2024-09-06T06:25:02.000Z</time>
</trkpt>
<trkpt lat="46.1432050" lon="10.1311360">
	<ele>1313.60</ele>
	<time>2024-09-06T06:25:03.000Z</time>
</trkpt>
<trkpt lat="46.1431970" lon="10.1311240">
	<ele>1313.80</ele>
	<time>2024-09-06T06:25:04.000Z</time>
</trkpt>
<trkpt lat="46.1431900" lon="10.1311170">
	<ele>1314.00</ele>
	<time>2024-09-06T06:25:05.000Z</time>
</trkpt>
<trkpt lat="46.1431850" lon="10.1311060">
	<ele>1314.00</ele>
	<time>2024-09-06T06:25:06.000Z</time>
</trkpt>
<trkpt lat="46.1431810" lon="10.1310940">
	<ele>1314.20</ele>
	<time>2024-09-06T06:25:07.000Z</time>
</trkpt>
<trkpt lat="46.1431760" lon="10.1310800">
	<ele>1314.20</ele>
	<time>2024-09-06T06:25:08.000Z</time>
</trkpt>
<trkpt lat="46.1431720" lon="10.1310760">
	<ele>1314.40</ele>
	<time>2024-09-06T06:25:09.000Z</time>
</trkpt>
<trkpt lat="46.1431640" lon="10.1310710">
	<ele>1314.60</ele>
	<time>2024-09-06T06:25:10.000Z</time>
</trkpt>
<trkpt lat="46.1431520" lon="10.1310660">
	<ele>1314.60</ele>
	<time>2024-09-06T06:25:11.000Z</time>
</trkpt>
<trkpt lat="46.1431440" lon="10.1310590">
	<ele>1314.80</ele>
	<time>2024-09-06T06:25:12.000Z</time>
</trkpt>
<trkpt lat="46.1431400" lon="10.1310470">
	<ele>1314.80</ele>
	<time>2024-09-06T06:25:13.000Z</time>
</trkpt>
<trkpt lat="46.1431340" lon="10.1310380">
	<ele>1315.00</ele>
	<time>2024-09-06T06:25:14.000Z</time>
</trkpt>
<trkpt lat="46.1431250" lon="10.1310270">
	<ele>1315.00</ele>
	<time>2024-09-06T06:25:15.000Z</time>
</trkpt>
<trkpt lat="46.1431160" lon="10.1310190">
	<ele>1315.00</ele>
	<time>2024-09-06T06:25:16.000Z</time>
</trkpt>
<trkpt lat="46.1431080" lon="10.1310140">
	<ele>1315.20</ele>
	<time>2024-09-06T06:25:17.000Z</time>
</trkpt>
<trkpt lat="46.1430990" lon="10.1310090">
	<ele>1315.40</ele>
	<time>2024-09-06T06:25:18.000Z</time>
</trkpt>
<trkpt lat="46.1430880" lon="10.1310040">
	<ele>1315.60</ele>
	<time>2024-09-06T06:25:19.000Z</time>
</trkpt>
<trkpt lat="46.1430790" lon="10.1310000">
	<ele>1315.80</ele>
	<time>2024-09-06T06:25:20.000Z</time>
</trkpt>
<trkpt lat="46.1430740" lon="10.1309930">
	<ele>1316.00</ele>
	<time>2024-09-06T06:25:21.000Z</time>
</trkpt>
<trkpt lat="46.1430710" lon="10.1309840">
	<ele>1316.00</ele>
	<time>2024-09-06T06:25:22.000Z</time>
</trkpt>
<trkpt lat="46.1430680" lon="10.1309760">
	<ele>1316.20</ele>
	<time>2024-09-06T06:25:23.000Z</time>
</trkpt>
<trkpt lat="46.1430600" lon="10.1309670">
	<ele>1316.40</ele>
	<time>2024-09-06T06:25:24.000Z</time>
</trkpt>
<trkpt lat="46.1430520" lon="10.1309610">
	<ele>1316.60</ele>
	<time>2024-09-06T06:25:25.000Z</time>
</trkpt>
<trkpt lat="46.1430430" lon="10.1309540">
	<ele>1316.80</ele>
	<time>2024-09-06T06:25:26.000Z</time>
</trkpt>
<trkpt lat="46.1430320" lon="10.1309410">
	<ele>1317.00</ele>
	<time>2024-09-06T06:25:27.000Z</time>
</trkpt>
<trkpt lat="46.1430210" lon="10.1309170">
	<ele>1317.20</ele>
	<time>2024-09-06T06:25:28.000Z</time>
</trkpt>
<trkpt lat="46.1430100" lon="10.1308990">
	<ele>1317.40</ele>
	<time>2024-09-06T06:25:29.000Z</time>
</trkpt>
<trkpt lat="46.1429970" lon="10.1308990">
	<ele>1317.60</ele>
	<time>2024-09-06T06:25:30.000Z</time>
</trkpt>
<trkpt lat="46.1429890" lon="10.1308890">
	<ele>1317.60</ele>
	<time>2024-09-06T06:25:31.000Z</time>
</trkpt>
<trkpt lat="46.1429830" lon="10.1308770">
	<ele>1317.80</ele>
	<time>2024-09-06T06:25:32.000Z</time>
</trkpt>
<trkpt lat="46.1429800" lon="10.1308630">
	<ele>1318.00</ele>
	<time>2024-09-06T06:25:33.000Z</time>
</trkpt>
<trkpt lat="46.1429790" lon="10.1308490">
	<ele>1318.00</ele>
	<time>2024-09-06T06:25:34.000Z</time>
</trkpt>
<trkpt lat="46.1429640" lon="10.1308340">
	<ele>1318.20</ele>
	<time>2024-09-06T06:25:35.000Z</time>
</trkpt>
<trkpt lat="46.1429470" lon="10.1308210">
	<ele>1318.40</ele>
	<time>2024-09-06T06:25:36.000Z</time>
</trkpt>
<trkpt lat="46.1429340" lon="10.1308160">
	<ele>1318.60</ele>
	<time>2024-09-06T06:25:37.000Z</time>
</trkpt>
<trkpt lat="46.1429250" lon="10.1308090">
	<ele>1318.80</ele>
	<time>2024-09-06T06:25:38.000Z</time>
</trkpt>
<trkpt lat="46.1429140" lon="10.1308030">
	<ele>1319.00</ele>
	<time>2024-09-06T06:25:39.000Z</time>
</trkpt>
<trkpt lat="46.1429030" lon="10.1307980">
	<ele>1319.00</ele>
	<time>2024-09-06T06:25:40.000Z</time>
</trkpt>
<trkpt lat="46.1428900" lon="10.1307940">
	<ele>1319.40</ele>
	<time>2024-09-06T06:25:41.000Z</time>
</trkpt>
<trkpt lat="46.1428740" lon="10.1307870">
	<ele>1319.60</ele>
	<time>2024-09-06T06:25:42.000Z</time>
</trkpt>
<trkpt lat="46.1428610" lon="10.1307750">
	<ele>1320.00</ele>
	<time>2024-09-06T06:25:43.000Z</time>
</trkpt>
<trkpt lat="46.1428450" lon="10.1307670">
	<ele>1320.00</ele>
	<time>2024-09-06T06:25:44.000Z</time>
</trkpt>
<trkpt lat="46.1428330" lon="10.1307620">
	<ele>1320.20</ele>
	<time>2024-09-06T06:25:45.000Z</time>
</trkpt>
<trkpt lat="46.1428270" lon="10.1307610">
	<ele>1320.40</ele>
	<time>2024-09-06T06:25:46.000Z</time>
</trkpt>
<trkpt lat="46.1428210" lon="10.1307590">
	<ele>1320.60</ele>
	<time>2024-09-06T06:25:47.000Z</time>
</trkpt>
<trkpt lat="46.1428070" lon="10.1307590">
	<ele>1320.60</ele>
	<time>2024-09-06T06:25:48.000Z</time>
</trkpt>
<trkpt lat="46.1427950" lon="10.1307580">
	<ele>1320.80</ele>
	<time>2024-09-06T06:25:49.000Z</time>
</trkpt>
<trkpt lat="46.1427850" lon="10.1307580">
	<ele>1321.00</ele>
	<time>2024-09-06T06:25:50.000Z</time>
</trkpt>
<trkpt lat="46.1427750" lon="10.1307540">
	<ele>1321.20</ele>
	<time>2024-09-06T06:25:51.000Z</time>
</trkpt>
<trkpt lat="46.1427640" lon="10.1307510">
	<ele>1321.20</ele>
	<time>2024-09-06T06:25:52.000Z</time>
</trkpt>
<trkpt lat="46.1427530" lon="10.1307490">
	<ele>1321.40</ele>
	<time>2024-09-06T06:25:53.000Z</time>
</trkpt>
<trkpt lat="46.1427420" lon="10.1307480">
	<ele>1321.60</ele>
	<time>2024-09-06T06:25:54.000Z</time>
</trkpt>
<trkpt lat="46.1427340" lon="10.1307470">
	<ele>1321.60</ele>
	<time>2024-09-06T06:25:55.000Z</time>
</trkpt>
<trkpt lat="46.1427230" lon="10.1307430">
	<ele>1321.80</ele>
	<time>2024-09-06T06:25:56.000Z</time>
</trkpt>
<trkpt lat="46.1427150" lon="10.1307420">
	<ele>1322.00</ele>
	<time>2024-09-06T06:25:57.000Z</time>
</trkpt>
<trkpt lat="46.1427070" lon="10.1307340">
	<ele>1322.20</ele>
	<time>2024-09-06T06:25:58.000Z</time>
</trkpt>
<trkpt lat="46.1426910" lon="10.1307290">
	<ele>1322.20</ele>
	<time>2024-09-06T06:25:59.000Z</time>
</trkpt>
<trkpt lat="46.1426760" lon="10.1307240">
	<ele>1322.20</ele>
	<time>2024-09-06T06:26:00.000Z</time>
</trkpt>
<trkpt lat="46.1426630" lon="10.1307180">
	<ele>1322.40</ele>
	<time>2024-09-06T06:26:01.000Z</time>
</trkpt>
<trkpt lat="46.1426510" lon="10.1307130">
	<ele>1322.60</ele>
	<time>2024-09-06T06:26:02.000Z</time>
</trkpt>
<trkpt lat="46.1426390" lon="10.1307100">
	<ele>1322.80</ele>
	<time>2024-09-06T06:26:03.000Z</time>
</trkpt>
<trkpt lat="46.1426270" lon="10.1307090">
	<ele>1322.80</ele>
	<time>2024-09-06T06:26:04.000Z</time>
</trkpt>
<trkpt lat="46.1426200" lon="10.1307110">
	<ele>1322.80</ele>
	<time>2024-09-06T06:26:05.000Z</time>
</trkpt>
<trkpt lat="46.1426130" lon="10.1307060">
	<ele>1323.20</ele>
	<time>2024-09-06T06:26:06.000Z</time>
</trkpt>
<trkpt lat="46.1426080" lon="10.1306990">
	<ele>1323.20</ele>
	<time>2024-09-06T06:26:07.000Z</time>
</trkpt>
<trkpt lat="46.1426050" lon="10.1306940">
	<ele>1323.40</ele>
	<time>2024-09-06T06:26:08.000Z</time>
</trkpt>
<trkpt lat="46.1426070" lon="10.1306860">
	<ele>1323.40</ele>
	<time>2024-09-06T06:26:09.000Z</time>
</trkpt>
<trkpt lat="46.1426020" lon="10.1306750">
	<ele>1323.60</ele>
	<time>2024-09-06T06:26:10.000Z</time>
</trkpt>
<trkpt lat="46.1425930" lon="10.1306680">
	<ele>1323.60</ele>
	<time>2024-09-06T06:26:11.000Z</time>
</trkpt>
<trkpt lat="46.1425800" lon="10.1306630">
	<ele>1324.00</ele>
	<time>2024-09-06T06:26:12.000Z</time>
</trkpt>
<trkpt lat="46.1425700" lon="10.1306560">
	<ele>1324.00</ele>
	<time>2024-09-06T06:26:13.000Z</time>
</trkpt>
<trkpt lat="46.1425660" lon="10.1306380">
	<ele>1324.20</ele>
	<time>2024-09-06T06:26:14.000Z</time>
</trkpt>
<trkpt lat="46.1425600" lon="10.1306310">
	<ele>1324.40</ele>
	<time>2024-09-06T06:26:15.000Z</time>
</trkpt>
<trkpt lat="46.1425490" lon="10.1306250">
	<ele>1324.60</ele>
	<time>2024-09-06T06:26:16.000Z</time>
</trkpt>
<trkpt lat="46.1425400" lon="10.1306180">
	<ele>1324.60</ele>
	<time>2024-09-06T06:26:17.000Z</time>
</trkpt>
<trkpt lat="46.1425350" lon="10.1306190">
	<ele>1324.80</ele>
	<time>2024-09-06T06:26:18.000Z</time>
</trkpt>
<trkpt lat="46.1425250" lon="10.1306200">
	<ele>1325.00</ele>
	<time>2024-09-06T06:26:19.000Z</time>
</trkpt>
<trkpt lat="46.1425130" lon="10.1306210">
	<ele>1325.20</ele>
	<time>2024-09-06T06:26:20.000Z</time>
</trkpt>
<trkpt lat="46.1425090" lon="10.1306220">
	<ele>1325.40</ele>
	<time>2024-09-06T06:26:21.000Z</time>
</trkpt>
<trkpt lat="46.1424980" lon="10.1306230">
	<ele>1325.60</ele>
	<time>2024-09-06T06:26:22.000Z</time>
</trkpt>
<trkpt lat="46.1424900" lon="10.1306200">
	<ele>1325.60</ele>
	<time>2024-09-06T06:26:23.000Z</time>
</trkpt>
<trkpt lat="46.1424810" lon="10.1306140">
	<ele>1325.60</ele>
	<time>2024-09-06T06:26:24.000Z</time>
</trkpt>
<trkpt lat="46.1424720" lon="10.1306080">
	<ele>1325.80</ele>
	<time>2024-09-06T06:26:25.000Z</time>
</trkpt>
<trkpt lat="46.1424660" lon="10.1306050">
	<ele>1325.80</ele>
	<time>2024-09-06T06:26:26.000Z</time>
</trkpt>
<trkpt lat="46.1424590" lon="10.1306040">
	<ele>1326.00</ele>
	<time>2024-09-06T06:26:27.000Z</time>
</trkpt>
<trkpt lat="46.1424470" lon="10.1306020">
	<ele>1326.00</ele>
	<time>2024-09-06T06:26:28.000Z</time>
</trkpt>
<trkpt lat="46.1424320" lon="10.1306010">
	<ele>1326.20</ele>
	<time>2024-09-06T06:26:29.000Z</time>
</trkpt>
<trkpt lat="46.1424190" lon="10.1306000">
	<ele>1326.40</ele>
	<time>2024-09-06T06:26:30.000Z</time>
</trkpt>
<trkpt lat="46.1424030" lon="10.1305970">
	<ele>1326.60</ele>
	<time>2024-09-06T06:26:31.000Z</time>
</trkpt>
<trkpt lat="46.1423880" lon="10.1305880">
	<ele>1326.60</ele>
	<time>2024-09-06T06:26:32.000Z</time>
</trkpt>
<trkpt lat="46.1423660" lon="10.1305820">
	<ele>1326.80</ele>
	<time>2024-09-06T06:26:33.000Z</time>
</trkpt>
<trkpt lat="46.1423430" lon="10.1305790">
	<ele>1326.80</ele>
	<time>2024-09-06T06:26:34.000Z</time>
</trkpt>
<trkpt lat="46.1423270" lon="10.1305730">
	<ele>1326.80</ele>
	<time>2024-09-06T06:26:35.000Z</time>
</trkpt>
<trkpt lat="46.1423050" lon="10.1305650">
	<ele>1326.80</ele>
	<time>2024-09-06T06:26:36.000Z</time>
</trkpt>
<trkpt lat="46.1422830" lon="10.1305580">
	<ele>1327.00</ele>
	<time>2024-09-06T06:26:37.000Z</time>
</trkpt>
<trkpt lat="46.1422670" lon="10.1305530">
	<ele>1327.00</ele>
	<time>2024-09-06T06:26:38.000Z</time>
</trkpt>
<trkpt lat="46.1422490" lon="10.1305550">
	<ele>1327.00</ele>
	<time>2024-09-06T06:26:39.000Z</time>
</trkpt>
<trkpt lat="46.1422300" lon="10.1305490">
	<ele>1327.00</ele>
	<time>2024-09-06T06:26:40.000Z</time>
</trkpt>
<trkpt lat="46.1422180" lon="10.1305450">
	<ele>1327.00</ele>
	<time>2024-09-06T06:26:41.000Z</time>
</trkpt>
<trkpt lat="46.1422040" lon="10.1305450">
	<ele>1326.80</ele>
	<time>2024-09-06T06:26:42.000Z</time>
</trkpt>
<trkpt lat="46.1421900" lon="10.1305450">
	<ele>1326.80</ele>
	<time>2024-09-06T06:26:43.000Z</time>
</trkpt>
<trkpt lat="46.1421770" lon="10.1305440">
	<ele>1326.80</ele>
	<time>2024-09-06T06:26:44.000Z</time>
</trkpt>
<trkpt lat="46.1421690" lon="10.1305410">
	<ele>1326.80</ele>
	<time>2024-09-06T06:26:45.000Z</time>
</trkpt>
<trkpt lat="46.1421600" lon="10.1305410">
	<ele>1326.80</ele>
	<time>2024-09-06T06:26:46.000Z</time>
</trkpt>
<trkpt lat="46.1421480" lon="10.1305400">
	<ele>1326.60</ele>
	<time>2024-09-06T06:26:47.000Z</time>
</trkpt>
<trkpt lat="46.1421380" lon="10.1305410">
	<ele>1326.60</ele>
	<time>2024-09-06T06:26:48.000Z</time>
</trkpt>
<trkpt lat="46.1421270" lon="10.1305370">
	<ele>1326.80</ele>
	<time>2024-09-06T06:26:49.000Z</time>
</trkpt>
<trkpt lat="46.1421160" lon="10.1305300">
	<ele>1326.80</ele>
	<time>2024-09-06T06:26:50.000Z</time>
</trkpt>
<trkpt lat="46.1421050" lon="10.1305260">
	<ele>1326.80</ele>
	<time>2024-09-06T06:26:51.000Z</time>
</trkpt>
<trkpt lat="46.1420960" lon="10.1305260">
	<ele>1326.80</ele>
	<time>2024-09-06T06:26:52.000Z</time>
</trkpt>
<trkpt lat="46.1420900" lon="10.1305310">
	<ele>1326.80</ele>
	<time>2024-09-06T06:26:53.000Z</time>
</trkpt>
<trkpt lat="46.1420830" lon="10.1305380">
	<ele>1327.00</ele>
	<time>2024-09-06T06:26:54.000Z</time>
</trkpt>
<trkpt lat="46.1420750" lon="10.1305400">
	<ele>1327.00</ele>
	<time>2024-09-06T06:26:55.000Z</time>
</trkpt>
<trkpt lat="46.1420650" lon="10.1305380">
	<ele>1327.00</ele>
	<time>2024-09-06T06:26:56.000Z</time>
</trkpt>
<trkpt lat="46.1420510" lon="10.1305330">
	<ele>1327.00</ele>
	<time>2024-09-06T06:26:57.000Z</time>
</trkpt>
<trkpt lat="46.1420390" lon="10.1305330">
	<ele>1327.00</ele>
	<time>2024-09-06T06:26:58.000Z</time>
</trkpt>
<trkpt lat="46.1420260" lon="10.1305320">
	<ele>1327.00</ele>
	<time>2024-09-06T06:26:59.000Z</time>
</trkpt>
<trkpt lat="46.1420040" lon="10.1305250">
	<ele>1327.20</ele>
	<time>2024-09-06T06:27:00.000Z</time>
</trkpt>
<trkpt lat="46.1419860" lon="10.1305180">
	<ele>1327.20</ele>
	<time>2024-09-06T06:27:01.000Z</time>
</trkpt>
<trkpt lat="46.1419710" lon="10.1305020">
	<ele>1327.20</ele>
	<time>2024-09-06T06:27:02.000Z</time>
</trkpt>
<trkpt lat="46.1419630" lon="10.1304870">
	<ele>1327.20</ele>
	<time>2024-09-06T06:27:03.000Z</time>
</trkpt>
<trkpt lat="46.1419540" lon="10.1304710">
	<ele>1327.20</ele>
	<time>2024-09-06T06:27:04.000Z</time>
</trkpt>
<trkpt lat="46.1419460" lon="10.1304630">
	<ele>1327.20</ele>
	<time>2024-09-06T06:27:05.000Z</time>
</trkpt>
<trkpt lat="46.1419370" lon="10.1304540">
	<ele>1327.20</ele>
	<time>2024-09-06T06:27:06.000Z</time>
</trkpt>
<trkpt lat="46.1419280" lon="10.1304470">
	<ele>1327.20</ele>
	<time>2024-09-06T06:27:07.000Z</time>
</trkpt>
<trkpt lat="46.1419150" lon="10.1304410">
	<ele>1327.40</ele>
	<time>2024-09-06T06:27:08.000Z</time>
</trkpt>
<trkpt lat="46.1419010" lon="10.1304340">
	<ele>1327.60</ele>
	<time>2024-09-06T06:27:09.000Z</time>
</trkpt>
<trkpt lat="46.1418870" lon="10.1304290">
	<ele>1327.60</ele>
	<time>2024-09-06T06:27:10.000Z</time>
</trkpt>
<trkpt lat="46.1418770" lon="10.1304280">
	<ele>1327.80</ele>
	<time>2024-09-06T06:27:11.000Z</time>
</trkpt>
<trkpt lat="46.1418600" lon="10.1304220">
	<ele>1327.80</ele>
	<time>2024-09-06T06:27:12.000Z</time>
</trkpt>
<trkpt lat="46.1418410" lon="10.1304120">
	<ele>1328.00</ele>
	<time>2024-09-06T06:27:13.000Z</time>
</trkpt>
<trkpt lat="46.1418250" lon="10.1304060">
	<ele>1328.20</ele>
	<time>2024-09-06T06:27:14.000Z</time>
</trkpt>
<trkpt lat="46.1418080" lon="10.1304030">
	<ele>1328.20</ele>
	<time>2024-09-06T06:27:15.000Z</time>
</trkpt>
<trkpt lat="46.1417930" lon="10.1304000">
	<ele>1328.40</ele>
	<time>2024-09-06T06:27:16.000Z</time>
</trkpt>
<trkpt lat="46.1417760" lon="10.1303910">
	<ele>1328.40</ele>
	<time>2024-09-06T06:27:17.000Z</time>
</trkpt>
<trkpt lat="46.1417580" lon="10.1303840">
	<ele>1328.60</ele>
	<time>2024-09-06T06:27:18.000Z</time>
</trkpt>
<trkpt lat="46.1417410" lon="10.1303780">
	<ele>1328.60</ele>
	<time>2024-09-06T06:27:19.000Z</time>
</trkpt>
<trkpt lat="46.1417310" lon="10.1303830">
	<ele>1328.60</ele>
	<time>2024-09-06T06:27:20.000Z</time>
</trkpt>
<trkpt lat="46.1417210" lon="10.1303890">
	<ele>1328.80</ele>
	<time>2024-09-06T06:27:21.000Z</time>
</trkpt>
<trkpt lat="46.1417110" lon="10.1303920">
	<ele>1328.80</ele>
	<time>2024-09-06T06:27:22.000Z</time>
</trkpt>
<trkpt lat="46.1417010" lon="10.1303900">
	<ele>1328.80</ele>
	<time>2024-09-06T06:27:23.000Z</time>
</trkpt>
<trkpt lat="46.1416840" lon="10.1303840">
	<ele>1328.80</ele>
	<time>2024-09-06T06:27:24.000Z</time>
</trkpt>
<trkpt lat="46.1416710" lon="10.1303800">
	<ele>1329.00</ele>
	<time>2024-09-06T06:27:25.000Z</time>
</trkpt>
<trkpt lat="46.1416570" lon="10.1303750">
	<ele>1329.00</ele>
	<time>2024-09-06T06:27:26.000Z</time>
</trkpt>
<trkpt lat="46.1416500" lon="10.1303690">
	<ele>1329.00</ele>
	<time>2024-09-06T06:27:27.000Z</time>
</trkpt>
<trkpt lat="46.1416440" lon="10.1303620">
	<ele>1329.00</ele>
	<time>2024-09-06T06:27:28.000Z</time>
</trkpt>
<trkpt lat="46.1416360" lon="10.1303610">
	<ele>1329.00</ele>
	<time>2024-09-06T06:27:29.000Z</time>
</trkpt>
<trkpt lat="46.1416260" lon="10.1303610">
	<ele>1329.20</ele>
	<time>2024-09-06T06:27:30.000Z</time>
</trkpt>
<trkpt lat="46.1416200" lon="10.1303610">
	<ele>1329.20</ele>
	<time>2024-09-06T06:27:31.000Z</time>
</trkpt>
<trkpt lat="46.1416070" lon="10.1303550">
	<ele>1329.20</ele>
	<time>2024-09-06T06:27:32.000Z</time>
</trkpt>
<trkpt lat="46.1415960" lon="10.1303490">
	<ele>1329.20</ele>
	<time>2024-09-06T06:27:33.000Z</time>
</trkpt>
<trkpt lat="46.1415830" lon="10.1303440">
	<ele>1329.40</ele>
	<time>2024-09-06T06:27:34.000Z</time>
</trkpt>
<trkpt lat="46.1415670" lon="10.1303390">
	<ele>1329.60</ele>
	<time>2024-09-06T06:27:35.000Z</time>
</trkpt>
<trkpt lat="46.1415510" lon="10.1303340">
	<ele>1329.80</ele>
	<time>2024-09-06T06:27:36.000Z</time>
</trkpt>
<trkpt lat="46.1415330" lon="10.1303270">
	<ele>1329.80</ele>
	<time>2024-09-06T06:27:37.000Z</time>
</trkpt>
<trkpt lat="46.1415240" lon="10.1303290">
	<ele>1329.80</ele>
	<time>2024-09-06T06:27:38.000Z</time>
</trkpt>
<trkpt lat="46.1415190" lon="10.1303430">
	<ele>1330.00</ele>
	<time>2024-09-06T06:27:39.000Z</time>
</trkpt>
<trkpt lat="46.1415100" lon="10.1303500">
	<ele>1330.00</ele>
	<time>2024-09-06T06:27:40.000Z</time>
</trkpt>
<trkpt lat="46.1414950" lon="10.1303460">
	<ele>1330.20</ele>
	<time>2024-09-06T06:27:41.000Z</time>
</trkpt>
<trkpt lat="46.1414810" lon="10.1303450">
	<ele>1330.40</ele>
	<time>2024-09-06T06:27:42.000Z</time>
</trkpt>
<trkpt lat="46.1414770" lon="10.1303480">
	<ele>1330.60</ele>
	<time>2024-09-06T06:27:43.000Z</time>
</trkpt>
<trkpt lat="46.1414720" lon="10.1303600">
	<ele>1330.60</ele>
	<time>2024-09-06T06:27:44.000Z</time>
</trkpt>
<trkpt lat="46.1414680" lon="10.1303700">
	<ele>1330.60</ele>
	<time>2024-09-06T06:27:45.000Z</time>
</trkpt>
<trkpt lat="46.1414540" lon="10.1303660">
	<ele>1330.80</ele>
	<time>2024-09-06T06:27:46.000Z</time>
</trkpt>
<trkpt lat="46.1414390" lon="10.1303630">
	<ele>1330.80</ele>
	<time>2024-09-06T06:27:47.000Z</time>
</trkpt>
<trkpt lat="46.1414340" lon="10.1303670">
	<ele>1330.80</ele>
	<time>2024-09-06T06:27:48.000Z</time>
</trkpt>
<trkpt lat="46.1414330" lon="10.1303670">
	<ele>1330.80</ele>
	<time>2024-09-06T06:27:49.000Z</time>
</trkpt>
<trkpt lat="46.1414330" lon="10.1303660">
	<ele>1330.80</ele>
	<time>2024-09-06T06:27:50.000Z</time>
</trkpt>
<trkpt lat="46.1414340" lon="10.1303660">
	<ele>1331.00</ele>
	<time>2024-09-06T06:27:51.000Z</time>
</trkpt>
<trkpt lat="46.1414330" lon="10.1303690">
	<ele>1331.00</ele>
	<time>2024-09-06T06:27:52.000Z</time>
</trkpt>
<trkpt lat="46.1414320" lon="10.1303710">
	<ele>1331.00</ele>
	<time>2024-09-06T06:27:53.000Z</time>
</trkpt>
<trkpt lat="46.1414320" lon="10.1303720">
	<ele>1331.00</ele>
	<time>2024-09-06T06:27:54.000Z</time>
</trkpt>
<trkpt lat="46.1414310" lon="10.1303710">
	<ele>1331.00</ele>
	<time>2024-09-06T06:27:55.000Z</time>
</trkpt>
<trkpt lat="46.1414250" lon="10.1303630">
	<ele>1331.00</ele>
	<time>2024-09-06T06:27:56.000Z</time>
</trkpt>
<trkpt lat="46.1414180" lon="10.1303650">
	<ele>1331.00</ele>
	<time>2024-09-06T06:27:57.000Z</time>
</trkpt>
<trkpt lat="46.1414110" lon="10.1303730">
	<ele>1331.00</ele>
	<time>2024-09-06T06:27:58.000Z</time>
</trkpt>
<trkpt lat="46.1413980" lon="10.1303810">
	<ele>1331.00</ele>
	<time>2024-09-06T06:27:59.000Z</time>
</trkpt>
<trkpt lat="46.1413920" lon="10.1303880">
	<ele>1331.00</ele>
	<time>2024-09-06T06:28:00.000Z</time>
</trkpt>
<trkpt lat="46.1413870" lon="10.1303980">
	<ele>1331.20</ele>
	<time>2024-09-06T06:28:01.000Z</time>
</trkpt>
<trkpt lat="46.1413770" lon="10.1304090">
	<ele>1331.20</ele>
	<time>2024-09-06T06:28:02.000Z</time>
</trkpt>
<trkpt lat="46.1413690" lon="10.1304100">
	<ele>1331.40</ele>
	<time>2024-09-06T06:28:03.000Z</time>
</trkpt>
<trkpt lat="46.1413600" lon="10.1304120">
	<ele>1331.60</ele>
	<time>2024-09-06T06:28:04.000Z</time>
</trkpt>
<trkpt lat="46.1413520" lon="10.1304170">
	<ele>1331.80</ele>
	<time>2024-09-06T06:28:05.000Z</time>
</trkpt>
<trkpt lat="46.1413360" lon="10.1304140">
	<ele>1332.20</ele>
	<time>2024-09-06T06:28:06.000Z</time>
</trkpt>
<trkpt lat="46.1413240" lon="10.1304120">
	<ele>1332.40</ele>
	<time>2024-09-06T06:28:07.000Z</time>
</trkpt>
<trkpt lat="46.1413130" lon="10.1304120">
	<ele>1332.60</ele>
	<time>2024-09-06T06:28:08.000Z</time>
</trkpt>
<trkpt lat="46.1413030" lon="10.1304150">
	<ele>1332.80</ele>
	<time>2024-09-06T06:28:09.000Z</time>
</trkpt>
<trkpt lat="46.1412950" lon="10.1304210">
	<ele>1332.80</ele>
	<time>2024-09-06T06:28:10.000Z</time>
</trkpt>
<trkpt lat="46.1412860" lon="10.1304250">
	<ele>1333.00</ele>
	<time>2024-09-06T06:28:11.000Z</time>
</trkpt>
<trkpt lat="46.1412780" lon="10.1304270">
	<ele>1333.20</ele>
	<time>2024-09-06T06:28:12.000Z</time>
</trkpt>
<trkpt lat="46.1412720" lon="10.1304300">
	<ele>1333.20</ele>
	<time>2024-09-06T06:28:13.000Z</time>
</trkpt>
<trkpt lat="46.1412650" lon="10.1304330">
	<ele>1333.40</ele>
	<time>2024-09-06T06:28:14.000Z</time>
</trkpt>
<trkpt lat="46.1412560" lon="10.1304360">
	<ele>1333.40</ele>
	<time>2024-09-06T06:28:15.000Z</time>
</trkpt>
<trkpt lat="46.1412450" lon="10.1304390">
	<ele>1333.80</ele>
	<time>2024-09-06T06:28:16.000Z</time>
</trkpt>
<trkpt lat="46.1412380" lon="10.1304440">
	<ele>1334.00</ele>
	<time>2024-09-06T06:28:17.000Z</time>
</trkpt>
<trkpt lat="46.1412320" lon="10.1304480">
	<ele>1334.00</ele>
	<time>2024-09-06T06:28:18.000Z</time>
</trkpt>
<trkpt lat="46.1412240" lon="10.1304600">
	<ele>1334.20</ele>
	<time>2024-09-06T06:28:19.000Z</time>
</trkpt>
<trkpt lat="46.1412130" lon="10.1304650">
	<ele>1334.40</ele>
	<time>2024-09-06T06:28:20.000Z</time>
</trkpt>
<trkpt lat="46.1412000" lon="10.1304620">
	<ele>1334.60</ele>
	<time>2024-09-06T06:28:21.000Z</time>
</trkpt>
<trkpt lat="46.1411890" lon="10.1304630">
	<ele>1334.80</ele>
	<time>2024-09-06T06:28:22.000Z</time>
</trkpt>
<trkpt lat="46.1411820" lon="10.1304700">
	<ele>1335.00</ele>
	<time>2024-09-06T06:28:23.000Z</time>
</trkpt>
<trkpt lat="46.1411750" lon="10.1304760">
	<ele>1335.20</ele>
	<time>2024-09-06T06:28:24.000Z</time>
</trkpt>
<trkpt lat="46.1411670" lon="10.1304810">
	<ele>1335.60</ele>
	<time>2024-09-06T06:28:25.000Z</time>
</trkpt>
<trkpt lat="46.1411600" lon="10.1304870">
	<ele>1335.80</ele>
	<time>2024-09-06T06:28:26.000Z</time>
</trkpt>
<trkpt lat="46.1411500" lon="10.1304900">
	<ele>1336.00</ele>
	<time>2024-09-06T06:28:27.000Z</time>
</trkpt>
<trkpt lat="46.1411370" lon="10.1304860">
	<ele>1336.20</ele>
	<time>2024-09-06T06:28:28.000Z</time>
</trkpt>
<trkpt lat="46.1411160" lon="10.1304770">
	<ele>1336.40</ele>
	<time>2024-09-06T06:28:29.000Z</time>
</trkpt>
<trkpt lat="46.1410980" lon="10.1304710">
	<ele>1336.60</ele>
	<time>2024-09-06T06:28:30.000Z</time>
</trkpt>
<trkpt lat="46.1410910" lon="10.1304820">
	<ele>1337.00</ele>
	<time>2024-09-06T06:28:31.000Z</time>
</trkpt>
<trkpt lat="46.1410850" lon="10.1304860">
	<ele>1337.00</ele>
	<time>2024-09-06T06:28:32.000Z</time>
</trkpt>
<trkpt lat="46.1410770" lon="10.1304880">
	<ele>1337.20</ele>
	<time>2024-09-06T06:28:33.000Z</time>
</trkpt>
<trkpt lat="46.1410650" lon="10.1304750">
	<ele>1337.20</ele>
	<time>2024-09-06T06:28:34.000Z</time>
</trkpt>
<trkpt lat="46.1410460" lon="10.1304620">
	<ele>1337.40</ele>
	<time>2024-09-06T06:28:35.000Z</time>
</trkpt>
<trkpt lat="46.1410360" lon="10.1304660">
	<ele>1337.40</ele>
	<time>2024-09-06T06:28:36.000Z</time>
</trkpt>
<trkpt lat="46.1410240" lon="10.1304620">
	<ele>1337.80</ele>
	<time>2024-09-06T06:28:37.000Z</time>
</trkpt>
<trkpt lat="46.1410150" lon="10.1304580">
	<ele>1338.20</ele>
	<time>2024-09-06T06:28:38.000Z</time>
</trkpt>
<trkpt lat="46.1410040" lon="10.1304550">
	<ele>1338.40</ele>
	<time>2024-09-06T06:28:39.000Z</time>
</trkpt>
<trkpt lat="46.1409940" lon="10.1304580">
	<ele>1338.60</ele>
	<time>2024-09-06T06:28:40.000Z</time>
</trkpt>
<trkpt lat="46.1409880" lon="10.1304650">
	<ele>1338.80</ele>
	<time>2024-09-06T06:28:41.000Z</time>
</trkpt>
<trkpt lat="46.1409810" lon="10.1304720">
	<ele>1339.00</ele>
	<time>2024-09-06T06:28:42.000Z</time>
</trkpt>
<trkpt lat="46.1409730" lon="10.1304820">
	<ele>1339.20</ele>
	<time>2024-09-06T06:28:43.000Z</time>
</trkpt>
<trkpt lat="46.1409630" lon="10.1304890">
	<ele>1339.20</ele>
	<time>2024-09-06T06:28:44.000Z</time>
</trkpt>
<trkpt lat="46.1409510" lon="10.1304980">
	<ele>1339.40</ele>
	<time>2024-09-06T06:28:45.000Z</time>
</trkpt>
<trkpt lat="46.1409370" lon="10.1305030">
	<ele>1339.60</ele>
	<time>2024-09-06T06:28:46.000Z</time>
</trkpt>
<trkpt lat="46.1409290" lon="10.1305120">
	<ele>1339.60</ele>
	<time>2024-09-06T06:28:47.000Z</time>
</trkpt>
<trkpt lat="46.1409230" lon="10.1305220">
	<ele>1339.80</ele>
	<time>2024-09-06T06:28:48.000Z</time>
</trkpt>
<trkpt lat="46.1409170" lon="10.1305340">
	<ele>1340.00</ele>
	<time>2024-09-06T06:28:49.000Z</time>
</trkpt>
<trkpt lat="46.1409110" lon="10.1305530">
	<ele>1340.40</ele>
	<time>2024-09-06T06:28:50.000Z</time>
</trkpt>
<trkpt lat="46.1409080" lon="10.1305640">
	<ele>1340.60</ele>
	<time>2024-09-06T06:28:51.000Z</time>
</trkpt>
<trkpt lat="46.1409080" lon="10.1305780">
	<ele>1340.80</ele>
	<time>2024-09-06T06:28:52.000Z</time>
</trkpt>
<trkpt lat="46.1409100" lon="10.1305930">
	<ele>1341.00</ele>
	<time>2024-09-06T06:28:53.000Z</time>
</trkpt>
<trkpt lat="46.1409090" lon="10.1306030">
	<ele>1341.20</ele>
	<time>2024-09-06T06:28:54.000Z</time>
</trkpt>
<trkpt lat="46.1409130" lon="10.1306090">
	<ele>1341.20</ele>
	<time>2024-09-06T06:28:55.000Z</time>
</trkpt>
<trkpt lat="46.1409080" lon="10.1306170">
	<ele>1341.40</ele>
	<time>2024-09-06T06:28:56.000Z</time>
</trkpt>
<trkpt lat="46.1409120" lon="10.1306280">
	<ele>1341.40</ele>
	<time>2024-09-06T06:28:57.000Z</time>
</trkpt>
<trkpt lat="46.1409200" lon="10.1306370">
	<ele>1341.60</ele>
	<time>2024-09-06T06:28:58.000Z</time>
</trkpt>
<trkpt lat="46.1409290" lon="10.1306570">
	<ele>1341.60</ele>
	<time>2024-09-06T06:28:59.000Z</time>
</trkpt>
<trkpt lat="46.1409420" lon="10.1306730">
	<ele>1341.60</ele>
	<time>2024-09-06T06:29:00.000Z</time>
</trkpt>
<trkpt lat="46.1409540" lon="10.1306810">
	<ele>1341.80</ele>
	<time>2024-09-06T06:29:01.000Z</time>
</trkpt>
<trkpt lat="46.1409640" lon="10.1306900">
	<ele>1341.80</ele>
	<time>2024-09-06T06:29:02.000Z</time>
</trkpt>
<trkpt lat="46.1409730" lon="10.1307000">
	<ele>1342.00</ele>
	<time>2024-09-06T06:29:03.000Z</time>
</trkpt>
<trkpt lat="46.1409830" lon="10.1307060">
	<ele>1342.40</ele>
	<time>2024-09-06T06:29:04.000Z</time>
</trkpt>
<trkpt lat="46.1409940" lon="10.1307080">
	<ele>1342.60</ele>
	<time>2024-09-06T06:29:05.000Z</time>
</trkpt>
<trkpt lat="46.1410040" lon="10.1307050">
	<ele>1342.80</ele>
	<time>2024-09-06T06:29:06.000Z</time>
</trkpt>
<trkpt lat="46.1410100" lon="10.1307000">
	<ele>1343.00</ele>
	<time>2024-09-06T06:29:07.000Z</time>
</trkpt>
<trkpt lat="46.1410150" lon="10.1307020">
	<ele>1343.20</ele>
	<time>2024-09-06T06:29:08.000Z</time>
</trkpt>
<trkpt lat="46.1410300" lon="10.1307070">
	<ele>1343.40</ele>
	<time>2024-09-06T06:29:09.000Z</time>
</trkpt>
<trkpt lat="46.1410420" lon="10.1307100">
	<ele>1343.40</ele>
	<time>2024-09-06T06:29:10.000Z</time>
</trkpt>
<trkpt lat="46.1410450" lon="10.1307050">
	<ele>1343.80</ele>
	<time>2024-09-06T06:29:11.000Z</time>
</trkpt>
<trkpt lat="46.1410530" lon="10.1307030">
	<ele>1344.00</ele>
	<time>2024-09-06T06:29:12.000Z</time>
</trkpt>
<trkpt lat="46.1410640" lon="10.1307080">
	<ele>1344.00</ele>
	<time>2024-09-06T06:29:13.000Z</time>
</trkpt>
<trkpt lat="46.1410720" lon="10.1307130">
	<ele>1344.20</ele>
	<time>2024-09-06T06:29:14.000Z</time>
</trkpt>
<trkpt lat="46.1410850" lon="10.1307320">
	<ele>1344.20</ele>
	<time>2024-09-06T06:29:15.000Z</time>
</trkpt>
<trkpt lat="46.1410910" lon="10.1307370">
	<ele>1344.40</ele>
	<time>2024-09-06T06:29:16.000Z</time>
</trkpt>
<trkpt lat="46.1410990" lon="10.1307480">
	<ele>1344.60</ele>
	<time>2024-09-06T06:29:17.000Z</time>
</trkpt>
<trkpt lat="46.1411040" lon="10.1307570">
	<ele>1344.80</ele>
	<time>2024-09-06T06:29:18.000Z</time>
</trkpt>
<trkpt lat="46.1411170" lon="10.1307660">
	<ele>1344.80</ele>
	<time>2024-09-06T06:29:19.000Z</time>
</trkpt>
<trkpt lat="46.1411270" lon="10.1307700">
	<ele>1345.00</ele>
	<time>2024-09-06T06:29:20.000Z</time>
</trkpt>
<trkpt lat="46.1411330" lon="10.1307700">
	<ele>1345.40</ele>
	<time>2024-09-06T06:29:21.000Z</time>
</trkpt>
<trkpt lat="46.1411340" lon="10.1307650">
	<ele>1345.60</ele>
	<time>2024-09-06T06:29:22.000Z</time>
</trkpt>
<trkpt lat="46.1411370" lon="10.1307610">
	<ele>1345.80</ele>
	<time>2024-09-06T06:29:23.000Z</time>
</trkpt>
<trkpt lat="46.1411400" lon="10.1307570">
	<ele>1346.00</ele>
	<time>2024-09-06T06:29:24.000Z</time>
</trkpt>
<trkpt lat="46.1411440" lon="10.1307580">
	<ele>1346.00</ele>
	<time>2024-09-06T06:29:25.000Z</time>
</trkpt>
<trkpt lat="46.1411440" lon="10.1307510">
	<ele>1346.20</ele>
	<time>2024-09-06T06:29:26.000Z</time>
</trkpt>
<trkpt lat="46.1411350" lon="10.1307240">
	<ele>1346.40</ele>
	<time>2024-09-06T06:29:27.000Z</time>
</trkpt>
<trkpt lat="46.1411350" lon="10.1307160">
	<ele>1346.60</ele>
	<time>2024-09-06T06:29:28.000Z</time>
</trkpt>
<trkpt lat="46.1411440" lon="10.1307130">
	<ele>1346.60</ele>
	<time>2024-09-06T06:29:29.000Z</time>
</trkpt>
<trkpt lat="46.1411550" lon="10.1307210">
	<ele>1346.80</ele>
	<time>2024-09-06T06:29:30.000Z</time>
</trkpt>
<trkpt lat="46.1411660" lon="10.1307290">
	<ele>1347.00</ele>
	<time>2024-09-06T06:29:31.000Z</time>
</trkpt>
<trkpt lat="46.1411700" lon="10.1307360">
	<ele>1347.00</ele>
	<time>2024-09-06T06:29:32.000Z</time>
</trkpt>
<trkpt lat="46.1411750" lon="10.1307490">
	<ele>1347.20</ele>
	<time>2024-09-06T06:29:33.000Z</time>
</trkpt>
<trkpt lat="46.1411810" lon="10.1307560">
	<ele>1347.40</ele>
	<time>2024-09-06T06:29:34.000Z</time>
</trkpt>
<trkpt lat="46.1411900" lon="10.1307650">
	<ele>1347.60</ele>
	<time>2024-09-06T06:29:35.000Z</time>
</trkpt>
<trkpt lat="46.1412010" lon="10.1307720">
	<ele>1347.80</ele>
	<time>2024-09-06T06:29:36.000Z</time>
</trkpt>
<trkpt lat="46.1412160" lon="10.1307780">
	<ele>1348.00</ele>
	<time>2024-09-06T06:29:37.000Z</time>
</trkpt>
<trkpt lat="46.1412200" lon="10.1307870">
	<ele>1348.00</ele>
	<time>2024-09-06T06:29:38.000Z</time>
</trkpt>
<trkpt lat="46.1412270" lon="10.1307960">
	<ele>1348.20</ele>
	<time>2024-09-06T06:29:39.000Z</time>
</trkpt>
<trkpt lat="46.1412320" lon="10.1308070">
	<ele>1348.40</ele>
	<time>2024-09-06T06:29:40.000Z</time>
</trkpt>
<trkpt lat="46.1412440" lon="10.1308200">
	<ele>1348.60</ele>
	<time>2024-09-06T06:29:41.000Z</time>
</trkpt>
<trkpt lat="46.1412580" lon="10.1308340">
	<ele>1348.60</ele>
	<time>2024-09-06T06:29:42.000Z</time>
</trkpt>
<trkpt lat="46.1412690" lon="10.1308520">
	<ele>1348.80</ele>
	<time>2024-09-06T06:29:43.000Z</time>
</trkpt>
<trkpt lat="46.1412780" lon="10.1308680">
	<ele>1349.00</ele>
	<time>2024-09-06T06:29:44.000Z</time>
</trkpt>
<trkpt lat="46.1412870" lon="10.1308760">
	<ele>1349.20</ele>
	<time>2024-09-06T06:29:45.000Z</time>
</trkpt>
<trkpt lat="46.1412940" lon="10.1308870">
	<ele>1349.40</ele>
	<time>2024-09-06T06:29:46.000Z</time>
</trkpt>
<trkpt lat="46.1413030" lon="10.1309000">
	<ele>1349.40</ele>
	<time>2024-09-06T06:29:47.000Z</time>
</trkpt>
<trkpt lat="46.1413120" lon="10.1309150">
	<ele>1349.60</ele>
	<time>2024-09-06T06:29:48.000Z</time>
</trkpt>
<trkpt lat="46.1413170" lon="10.1309200">
	<ele>1349.80</ele>
	<time>2024-09-06T06:29:49.000Z</time>
</trkpt>
<trkpt lat="46.1413240" lon="10.1309260">
	<ele>1350.00</ele>
	<time>2024-09-06T06:29:50.000Z</time>
</trkpt>
<trkpt lat="46.1413280" lon="10.1309330">
	<ele>1350.20</ele>
	<time>2024-09-06T06:29:51.000Z</time>
</trkpt>
<trkpt lat="46.1413360" lon="10.1309420">
	<ele>1350.60</ele>
	<time>2024-09-06T06:29:52.000Z</time>
</trkpt>
<trkpt lat="46.1413420" lon="10.1309540">
	<ele>1350.60</ele>
	<time>2024-09-06T06:29:53.000Z</time>
</trkpt>
<trkpt lat="46.1413480" lon="10.1309600">
	<ele>1350.80</ele>
	<time>2024-09-06T06:29:54.000Z</time>
</trkpt>
<trkpt lat="46.1413530" lon="10.1309710">
	<ele>1351.00</ele>
	<time>2024-09-06T06:29:55.000Z</time>
</trkpt>
<trkpt lat="46.1413560" lon="10.1309800">
	<ele>1351.00</ele>
	<time>2024-09-06T06:29:56.000Z</time>
</trkpt>
<trkpt lat="46.1413620" lon="10.1309910">
	<ele>1351.40</ele>
	<time>2024-09-06T06:29:57.000Z</time>
</trkpt>
<trkpt lat="46.1413700" lon="10.1310020">
	<ele>1351.40</ele>
	<time>2024-09-06T06:29:58.000Z</time>
</trkpt>
<trkpt lat="46.1413780" lon="10.1310140">
	<ele>1351.60</ele>
	<time>2024-09-06T06:29:59.000Z</time>
</trkpt>
<trkpt lat="46.1413820" lon="10.1310220">
	<ele>1351.60</ele>
	<time>2024-09-06T06:30:00.000Z</time>
</trkpt>
<trkpt lat="46.1413910" lon="10.1310370">
	<ele>1351.80</ele>
	<time>2024-09-06T06:30:01.000Z</time>
</trkpt>
<trkpt lat="46.1413980" lon="10.1310510">
	<ele>1352.00</ele>
	<time>2024-09-06T06:30:02.000Z</time>
</trkpt>
<trkpt lat="46.1414050" lon="10.1310710">
	<ele>1352.20</ele>
	<time>2024-09-06T06:30:03.000Z</time>
</trkpt>
<trkpt lat="46.1414160" lon="10.1310820">
	<ele>1352.60</ele>
	<time>2024-09-06T06:30:04.000Z</time>
</trkpt>
<trkpt lat="46.1414230" lon="10.1310930">
	<ele>1352.60</ele>
	<time>2024-09-06T06:30:05.000Z</time>
</trkpt>
<trkpt lat="46.1414260" lon="10.1311060">
	<ele>1353.00</ele>
	<time>2024-09-06T06:30:06.000Z</time>
</trkpt>
<trkpt lat="46.1414300" lon="10.1311210">
	<ele>1353.00</ele>
	<time>2024-09-06T06:30:07.000Z</time>
</trkpt>
<trkpt lat="46.1414370" lon="10.1311350">
	<ele>1353.20</ele>
	<time>2024-09-06T06:30:08.000Z</time>
</trkpt>
<trkpt lat="46.1414380" lon="10.1311410">
	<ele>1353.40</ele>
	<time>2024-09-06T06:30:09.000Z</time>
</trkpt>
<trkpt lat="46.1414380" lon="10.1311460">
	<ele>1353.40</ele>
	<time>2024-09-06T06:30:10.000Z</time>
</trkpt>
<trkpt lat="46.1414370" lon="10.1311550">
	<ele>1353.60</ele>
	<time>2024-09-06T06:30:11.000Z</time>
</trkpt>
<trkpt lat="46.1414360" lon="10.1311670">
	<ele>1353.80</ele>
	<time>2024-09-06T06:30:12.000Z</time>
</trkpt>
<trkpt lat="46.1414360" lon="10.1311740">
	<ele>1354.00</ele>
	<time>2024-09-06T06:30:13.000Z</time>
</trkpt>
<trkpt lat="46.1414380" lon="10.1311780">
	<ele>1354.20</ele>
	<time>2024-09-06T06:30:14.000Z</time>
</trkpt>
<trkpt lat="46.1414370" lon="10.1311800">
	<ele>1354.40</ele>
	<time>2024-09-06T06:30:15.000Z</time>
</trkpt>
<trkpt lat="46.1414410" lon="10.1311890">
	<ele>1354.40</ele>
	<time>2024-09-06T06:30:16.000Z</time>
</trkpt>
<trkpt lat="46.1414430" lon="10.1312030">
	<ele>1354.60</ele>
	<time>2024-09-06T06:30:17.000Z</time>
</trkpt>
<trkpt lat="46.1414460" lon="10.1312100">
	<ele>1354.80</ele>
	<time>2024-09-06T06:30:18.000Z</time>
</trkpt>
<trkpt lat="46.1414540" lon="10.1312130">
	<ele>1355.00</ele>
	<time>2024-09-06T06:30:19.000Z</time>
</trkpt>
<trkpt lat="46.1414600" lon="10.1312100">
	<ele>1355.40</ele>
	<time>2024-09-06T06:30:20.000Z</time>
</trkpt>
<trkpt lat="46.1414600" lon="10.1312030">
	<ele>1355.60</ele>
	<time>2024-09-06T06:30:21.000Z</time>
</trkpt>
<trkpt lat="46.1414610" lon="10.1311990">
	<ele>1355.60</ele>
	<time>2024-09-06T06:30:22.000Z</time>
</trkpt>
<trkpt lat="46.1414640" lon="10.1311940">
	<ele>1355.80</ele>
	<time>2024-09-06T06:30:23.000Z</time>
</trkpt>
<trkpt lat="46.1414620" lon="10.1311930">
	<ele>1356.00</ele>
	<time>2024-09-06T06:30:24.000Z</time>
</trkpt>
<trkpt lat="46.1414570" lon="10.1311980">
	<ele>1356.00</ele>
	<time>2024-09-06T06:30:25.000Z</time>
</trkpt>
<trkpt lat="46.1414570" lon="10.1312010">
	<ele>1356.20</ele>
	<time>2024-09-06T06:30:26.000Z</time>
</trkpt>
<trkpt lat="46.1414600" lon="10.1312070">
	<ele>1356.20</ele>
	<time>2024-09-06T06:30:27.000Z</time>
</trkpt>
<trkpt lat="46.1414680" lon="10.1312180">
	<ele>1356.40</ele>
	<time>2024-09-06T06:30:28.000Z</time>
</trkpt>
<trkpt lat="46.1414770" lon="10.1312300">
	<ele>1356.60</ele>
	<time>2024-09-06T06:30:29.000Z</time>
</trkpt>
<trkpt lat="46.1414870" lon="10.1312390">
	<ele>1356.80</ele>
	<time>2024-09-06T06:30:30.000Z</time>
</trkpt>
<trkpt lat="46.1414940" lon="10.1312490">
	<ele>1356.80</ele>
	<time>2024-09-06T06:30:31.000Z</time>
</trkpt>
<trkpt lat="46.1415050" lon="10.1312560">
	<ele>1357.20</ele>
	<time>2024-09-06T06:30:32.000Z</time>
</trkpt>
<trkpt lat="46.1415110" lon="10.1312570">
	<ele>1357.40</ele>
	<time>2024-09-06T06:30:33.000Z</time>
</trkpt>
<trkpt lat="46.1415210" lon="10.1312660">
	<ele>1357.60</ele>
	<time>2024-09-06T06:30:34.000Z</time>
</trkpt>
<trkpt lat="46.1415240" lon="10.1312680">
	<ele>1357.80</ele>
	<time>2024-09-06T06:30:35.000Z</time>
</trkpt>
<trkpt lat="46.1415390" lon="10.1312810">
	<ele>1358.20</ele>
	<time>2024-09-06T06:30:36.000Z</time>
</trkpt>
<trkpt lat="46.1415510" lon="10.1312920">
	<ele>1358.20</ele>
	<time>2024-09-06T06:30:37.000Z</time>
</trkpt>
<trkpt lat="46.1415550" lon="10.1312970">
	<ele>1358.40</ele>
	<time>2024-09-06T06:30:38.000Z</time>
</trkpt>
<trkpt lat="46.1415630" lon="10.1313100">
	<ele>1358.60</ele>
	<time>2024-09-06T06:30:39.000Z</time>
</trkpt>
<trkpt lat="46.1415700" lon="10.1313270">
	<ele>1358.80</ele>
	<time>2024-09-06T06:30:40.000Z</time>
</trkpt>
<trkpt lat="46.1415740" lon="10.1313490">
	<ele>1359.00</ele>
	<time>2024-09-06T06:30:41.000Z</time>
</trkpt>
<trkpt lat="46.1415810" lon="10.1313650">
	<ele>1359.20</ele>
	<time>2024-09-06T06:30:42.000Z</time>
</trkpt>
<trkpt lat="46.1415960" lon="10.1313760">
	<ele>1359.40</ele>
	<time>2024-09-06T06:30:43.000Z</time>
</trkpt>
<trkpt lat="46.1416020" lon="10.1313780">
	<ele>1359.60</ele>
	<time>2024-09-06T06:30:44.000Z</time>
</trkpt>
<trkpt lat="46.1416110" lon="10.1313800">
	<ele>1359.60</ele>
	<time>2024-09-06T06:30:45.000Z</time>
</trkpt>
<trkpt lat="46.1416120" lon="10.1313820">
	<ele>1359.80</ele>
	<time>2024-09-06T06:30:46.000Z</time>
</trkpt>
<trkpt lat="46.1416130" lon="10.1313770">
	<ele>1360.00</ele>
	<time>2024-09-06T06:30:47.000Z</time>
</trkpt>
<trkpt lat="46.1416220" lon="10.1313780">
	<ele>1360.20</ele>
	<time>2024-09-06T06:30:48.000Z</time>
</trkpt>
<trkpt lat="46.1416270" lon="10.1313780">
	<ele>1360.40</ele>
	<time>2024-09-06T06:30:49.000Z</time>
</trkpt>
<trkpt lat="46.1416280" lon="10.1313810">
	<ele>1360.60</ele>
	<time>2024-09-06T06:30:50.000Z</time>
</trkpt>
<trkpt lat="46.1416330" lon="10.1313910">
	<ele>1360.80</ele>
	<time>2024-09-06T06:30:51.000Z</time>
</trkpt>
<trkpt lat="46.1416400" lon="10.1314050">
	<ele>1361.00</ele>
	<time>2024-09-06T06:30:52.000Z</time>
</trkpt>
<trkpt lat="46.1416460" lon="10.1314190">
	<ele>1361.20</ele>
	<time>2024-09-06T06:30:53.000Z</time>
</trkpt>
<trkpt lat="46.1416530" lon="10.1314300">
	<ele>1361.40</ele>
	<time>2024-09-06T06:30:54.000Z</time>
</trkpt>
<trkpt lat="46.1416550" lon="10.1314340">
	<ele>1361.40</ele>
	<time>2024-09-06T06:30:55.000Z</time>
</trkpt>
<trkpt lat="46.1416590" lon="10.1314420">
	<ele>1361.60</ele>
	<time>2024-09-06T06:30:56.000Z</time>
</trkpt>
<trkpt lat="46.1416610" lon="10.1314450">
	<ele>1361.80</ele>
	<time>2024-09-06T06:30:57.000Z</time>
</trkpt>
<trkpt lat="46.1416670" lon="10.1314530">
	<ele>1361.80</ele>
	<time>2024-09-06T06:30:58.000Z</time>
</trkpt>
<trkpt lat="46.1416780" lon="10.1314610">
	<ele>1362.00</ele>
	<time>2024-09-06T06:30:59.000Z</time>
</trkpt>
<trkpt lat="46.1416860" lon="10.1314710">
	<ele>1362.00</ele>
	<time>2024-09-06T06:31:00.000Z</time>
</trkpt>
<trkpt lat="46.1416960" lon="10.1314800">
	<ele>1362.20</ele>
	<time>2024-09-06T06:31:01.000Z</time>
</trkpt>
<trkpt lat="46.1417060" lon="10.1314860">
	<ele>1362.60</ele>
	<time>2024-09-06T06:31:02.000Z</time>
</trkpt>
<trkpt lat="46.1417150" lon="10.1314940">
	<ele>1362.60</ele>
	<time>2024-09-06T06:31:03.000Z</time>
</trkpt>
<trkpt lat="46.1417240" lon="10.1315030">
	<ele>1362.80</ele>
	<time>2024-09-06T06:31:04.000Z</time>
</trkpt>
<trkpt lat="46.1417370" lon="10.1315140">
	<ele>1363.00</ele>
	<time>2024-09-06T06:31:05.000Z</time>
</trkpt>
<trkpt lat="46.1417450" lon="10.1315200">
	<ele>1363.20</ele>
	<time>2024-09-06T06:31:06.000Z</time>
</trkpt>
<trkpt lat="46.1417480" lon="10.1315260">
	<ele>1363.40</ele>
	<time>2024-09-06T06:31:07.000Z</time>
</trkpt>
<trkpt lat="46.1417540" lon="10.1315380">
	<ele>1363.60</ele>
	<time>2024-09-06T06:31:08.000Z</time>
</trkpt>
<trkpt lat="46.1417560" lon="10.1315440">
	<ele>1363.60</ele>
	<time>2024-09-06T06:31:09.000Z</time>
</trkpt>
<trkpt lat="46.1417610" lon="10.1315550">
	<ele>1363.80</ele>
	<time>2024-09-06T06:31:10.000Z</time>
</trkpt>
<trkpt lat="46.1417700" lon="10.1315640">
	<ele>1364.00</ele>
	<time>2024-09-06T06:31:11.000Z</time>
</trkpt>
<trkpt lat="46.1417820" lon="10.1315710">
	<ele>1364.20</ele>
	<time>2024-09-06T06:31:12.000Z</time>
</trkpt>
<trkpt lat="46.1417920" lon="10.1315820">
	<ele>1364.20</ele>
	<time>2024-09-06T06:31:13.000Z</time>
</trkpt>
<trkpt lat="46.1418030" lon="10.1315930">
	<ele>1364.40</ele>
	<time>2024-09-06T06:31:14.000Z</time>
</trkpt>
<trkpt lat="46.1418120" lon="10.1316020">
	<ele>1364.60</ele>
	<time>2024-09-06T06:31:15.000Z</time>
</trkpt>
<trkpt lat="46.1418170" lon="10.1316100">
	<ele>1364.80</ele>
	<time>2024-09-06T06:31:16.000Z</time>
</trkpt>
<trkpt lat="46.1418210" lon="10.1316180">
	<ele>1365.00</ele>
	<time>2024-09-06T06:31:17.000Z</time>
</trkpt>
<trkpt lat="46.1418310" lon="10.1316340">
	<ele>1365.20</ele>
	<time>2024-09-06T06:31:18.000Z</time>
</trkpt>
<trkpt lat="46.1418350" lon="10.1316440">
	<ele>1365.40</ele>
	<time>2024-09-06T06:31:19.000Z</time>
</trkpt>
<trkpt lat="46.1418400" lon="10.1316550">
	<ele>1365.60</ele>
	<time>2024-09-06T06:31:20.000Z</time>
</trkpt>
<trkpt lat="46.1418480" lon="10.1316640">
	<ele>1365.80</ele>
	<time>2024-09-06T06:31:21.000Z</time>
</trkpt>
<trkpt lat="46.1418570" lon="10.1316710">
	<ele>1366.00</ele>
	<time>2024-09-06T06:31:22.000Z</time>
</trkpt>
<trkpt lat="46.1418650" lon="10.1316770">
	<ele>1366.20</ele>
	<time>2024-09-06T06:31:23.000Z</time>
</trkpt>
<trkpt lat="46.1418720" lon="10.1316820">
	<ele>1366.40</ele>
	<time>2024-09-06T06:31:24.000Z</time>
</trkpt>
<trkpt lat="46.1418800" lon="10.1316910">
	<ele>1366.40</ele>
	<time>2024-09-06T06:31:25.000Z</time>
</trkpt>
<trkpt lat="46.1418880" lon="10.1317010">
	<ele>1366.60</ele>
	<time>2024-09-06T06:31:26.000Z</time>
</trkpt>
<trkpt lat="46.1418930" lon="10.1317040">
	<ele>1366.60</ele>
	<time>2024-09-06T06:31:27.000Z</time>
</trkpt>
<trkpt lat="46.1418980" lon="10.1317060">
	<ele>1366.80</ele>
	<time>2024-09-06T06:31:28.000Z</time>
</trkpt>
<trkpt lat="46.1419010" lon="10.1317070">
	<ele>1367.00</ele>
	<time>2024-09-06T06:31:29.000Z</time>
</trkpt>
<trkpt lat="46.1419040" lon="10.1317120">
	<ele>1367.00</ele>
	<time>2024-09-06T06:31:30.000Z</time>
</trkpt>
<trkpt lat="46.1419060" lon="10.1317150">
	<ele>1367.20</ele>
	<time>2024-09-06T06:31:31.000Z</time>
</trkpt>
<trkpt lat="46.1419080" lon="10.1317220">
	<ele>1367.40</ele>
	<time>2024-09-06T06:31:32.000Z</time>
</trkpt>
<trkpt lat="46.1419120" lon="10.1317280">
	<ele>1367.60</ele>
	<time>2024-09-06T06:31:33.000Z</time>
</trkpt>
<trkpt lat="46.1419150" lon="10.1317350">
	<ele>1367.60</ele>
	<time>2024-09-06T06:31:34.000Z</time>
</trkpt>
<trkpt lat="46.1419190" lon="10.1317430">
	<ele>1367.80</ele>
	<time>2024-09-06T06:31:35.000Z</time>
</trkpt>
<trkpt lat="46.1419230" lon="10.1317500">
	<ele>1367.80</ele>
	<time>2024-09-06T06:31:36.000Z</time>
</trkpt>
<trkpt lat="46.1419220" lon="10.1317550">
	<ele>1368.20</ele>
	<time>2024-09-06T06:31:37.000Z</time>
</trkpt>
<trkpt lat="46.1419180" lon="10.1317600">
	<ele>1368.40</ele>
	<time>2024-09-06T06:31:38.000Z</time>
</trkpt>
<trkpt lat="46.1419150" lon="10.1317690">
	<ele>1368.60</ele>
	<time>2024-09-06T06:31:39.000Z</time>
</trkpt>
<trkpt lat="46.1419100" lon="10.1317780">
	<ele>1368.80</ele>
	<time>2024-09-06T06:31:40.000Z</time>
</trkpt>
<trkpt lat="46.1419030" lon="10.1317810">
	<ele>1369.00</ele>
	<time>2024-09-06T06:31:41.000Z</time>
</trkpt>
<trkpt lat="46.1418980" lon="10.1317840">
	<ele>1369.00</ele>
	<time>2024-09-06T06:31:42.000Z</time>
</trkpt>
<trkpt lat="46.1418870" lon="10.1317820">
	<ele>1369.20</ele>
	<time>2024-09-06T06:31:43.000Z</time>
</trkpt>
<trkpt lat="46.1418750" lon="10.1317750">
	<ele>1369.20</ele>
	<time>2024-09-06T06:31:44.000Z</time>
</trkpt>
<trkpt lat="46.1418630" lon="10.1317670">
	<ele>1369.40</ele>
	<time>2024-09-06T06:31:45.000Z</time>
</trkpt>
<trkpt lat="46.1418500" lon="10.1317550">
	<ele>1369.60</ele>
	<time>2024-09-06T06:31:46.000Z</time>
</trkpt>
<trkpt lat="46.1418350" lon="10.1317440">
	<ele>1369.80</ele>
	<time>2024-09-06T06:31:47.000Z</time>
</trkpt>
<trkpt lat="46.1418290" lon="10.1317370">
	<ele>1369.80</ele>
	<time>2024-09-06T06:31:48.000Z</time>
</trkpt>
<trkpt lat="46.1418250" lon="10.1317350">
	<ele>1369.80</ele>
	<time>2024-09-06T06:31:49.000Z</time>
</trkpt>
<trkpt lat="46.1418140" lon="10.1317300">
	<ele>1370.00</ele>
	<time>2024-09-06T06:31:50.000Z</time>
</trkpt>
<trkpt lat="46.1418080" lon="10.1317250">
	<ele>1370.00</ele>
	<time>2024-09-06T06:31:51.000Z</time>
</trkpt>
<trkpt lat="46.1418020" lon="10.1317230">
	<ele>1370.20</ele>
	<time>2024-09-06T06:31:52.000Z</time>
</trkpt>
<trkpt lat="46.1417950" lon="10.1317090">
	<ele>1370.20</ele>
	<time>2024-09-06T06:31:53.000Z</time>
</trkpt>
<trkpt lat="46.1417890" lon="10.1317010">
	<ele>1370.40</ele>
	<time>2024-09-06T06:31:54.000Z</time>
</trkpt>
<trkpt lat="46.1417830" lon="10.1316990">
	<ele>1370.60</ele>
	<time>2024-09-06T06:31:55.000Z</time>
</trkpt>
<trkpt lat="46.1417820" lon="10.1317010">
	<ele>1370.80</ele>
	<time>2024-09-06T06:31:56.000Z</time>
</trkpt>
<trkpt lat="46.1417760" lon="10.1317030">
	<ele>1371.00</ele>
	<time>2024-09-06T06:31:57.000Z</time>
</trkpt>
<trkpt lat="46.1417620" lon="10.1317000">
	<ele>1371.20</ele>
	<time>2024-09-06T06:31:58.000Z</time>
</trkpt>
<trkpt lat="46.1417530" lon="10.1316980">
	<ele>1371.20</ele>
	<time>2024-09-06T06:31:59.000Z</time>
</trkpt>
<trkpt lat="46.1417500" lon="10.1316970">
	<ele>1371.40</ele>
	<time>2024-09-06T06:32:00.000Z</time>
</trkpt>
<trkpt lat="46.1417390" lon="10.1316920">
	<ele>1371.40</ele>
	<time>2024-09-06T06:32:01.000Z</time>
</trkpt>
<trkpt lat="46.1417250" lon="10.1316890">
	<ele>1371.60</ele>
	<time>2024-09-06T06:32:02.000Z</time>
</trkpt>
<trkpt lat="46.1417130" lon="10.1316930">
	<ele>1371.80</ele>
	<time>2024-09-06T06:32:03.000Z</time>
</trkpt>
<trkpt lat="46.1417030" lon="10.1316950">
	<ele>1371.80</ele>
	<time>2024-09-06T06:32:04.000Z</time>
</trkpt>
<trkpt lat="46.1416940" lon="10.1316960">
	<ele>1372.00</ele>
	<time>2024-09-06T06:32:05.000Z</time>
</trkpt>
<trkpt lat="46.1416850" lon="10.1316950">
	<ele>1372.00</ele>
	<time>2024-09-06T06:32:06.000Z</time>
</trkpt>
<trkpt lat="46.1416780" lon="10.1316970">
	<ele>1372.00</ele>
	<time>2024-09-06T06:32:07.000Z</time>
</trkpt>
<trkpt lat="46.1416740" lon="10.1316980">
	<ele>1372.20</ele>
	<time>2024-09-06T06:32:08.000Z</time>
</trkpt>
<trkpt lat="46.1416790" lon="10.1316980">
	<ele>1372.20</ele>
	<time>2024-09-06T06:32:09.000Z</time>
</trkpt>
<trkpt lat="46.1416790" lon="10.1317000">
	<ele>1372.40</ele>
	<time>2024-09-06T06:32:10.000Z</time>
</trkpt>
<trkpt lat="46.1416730" lon="10.1317010">
	<ele>1372.40</ele>
	<time>2024-09-06T06:32:11.000Z</time>
</trkpt>
<trkpt lat="46.1416700" lon="10.1317040">
	<ele>1372.40</ele>
	<time>2024-09-06T06:32:12.000Z</time>
</trkpt>
<trkpt lat="46.1416650" lon="10.1317090">
	<ele>1372.60</ele>
	<time>2024-09-06T06:32:13.000Z</time>
</trkpt>
<trkpt lat="46.1416540" lon="10.1317100">
	<ele>1372.80</ele>
	<time>2024-09-06T06:32:14.000Z</time>
</trkpt>
<trkpt lat="46.1416410" lon="10.1317070">
	<ele>1373.00</ele>
	<time>2024-09-06T06:32:15.000Z</time>
</trkpt>
<trkpt lat="46.1416240" lon="10.1316920">
	<ele>1373.20</ele>
	<time>2024-09-06T06:32:16.000Z</time>
</trkpt>
<trkpt lat="46.1416170" lon="10.1316920">
	<ele>1373.20</ele>
	<time>2024-09-06T06:32:17.000Z</time>
</trkpt>
<trkpt lat="46.1416080" lon="10.1316880">
	<ele>1373.40</ele>
	<time>2024-09-06T06:32:18.000Z</time>
</trkpt>
<trkpt lat="46.1415940" lon="10.1316900">
	<ele>1373.40</ele>
	<time>2024-09-06T06:32:19.000Z</time>
</trkpt>
<trkpt lat="46.1415800" lon="10.1316920">
	<ele>1373.60</ele>
	<time>2024-09-06T06:32:20.000Z</time>
</trkpt>
<trkpt lat="46.1415680" lon="10.1316950">
	<ele>1373.60</ele>
	<time>2024-09-06T06:32:21.000Z</time>
</trkpt>
<trkpt lat="46.1415580" lon="10.1317030">
	<ele>1373.80</ele>
	<time>2024-09-06T06:32:22.000Z</time>
</trkpt>
<trkpt lat="46.1415540" lon="10.1317160">
	<ele>1373.80</ele>
	<time>2024-09-06T06:32:23.000Z</time>
</trkpt>
<trkpt lat="46.1415460" lon="10.1317200">
	<ele>1374.00</ele>
	<time>2024-09-06T06:32:24.000Z</time>
</trkpt>
<trkpt lat="46.1415380" lon="10.1317240">
	<ele>1374.00</ele>
	<time>2024-09-06T06:32:25.000Z</time>
</trkpt>
<trkpt lat="46.1415310" lon="10.1317310">
	<ele>1374.20</ele>
	<time>2024-09-06T06:32:26.000Z</time>
</trkpt>
<trkpt lat="46.1415230" lon="10.1317350">
	<ele>1374.60</ele>
	<time>2024-09-06T06:32:27.000Z</time>
</trkpt>
<trkpt lat="46.1415150" lon="10.1317390">
	<ele>1374.80</ele>
	<time>2024-09-06T06:32:28.000Z</time>
</trkpt>
<trkpt lat="46.1415010" lon="10.1317330">
	<ele>1374.80</ele>
	<time>2024-09-06T06:32:29.000Z</time>
</trkpt>
<trkpt lat="46.1414920" lon="10.1317310">
	<ele>1375.00</ele>
	<time>2024-09-06T06:32:30.000Z</time>
</trkpt>
<trkpt lat="46.1414810" lon="10.1317340">
	<ele>1375.20</ele>
	<time>2024-09-06T06:32:31.000Z</time>
</trkpt>
<trkpt lat="46.1414700" lon="10.1317370">
	<ele>1375.20</ele>
	<time>2024-09-06T06:32:32.000Z</time>
</trkpt>
<trkpt lat="46.1414610" lon="10.1317330">
	<ele>1375.20</ele>
	<time>2024-09-06T06:32:33.000Z</time>
</trkpt>
<trkpt lat="46.1414530" lon="10.1317280">
	<ele>1375.40</ele>
	<time>2024-09-06T06:32:34.000Z</time>
</trkpt>
<trkpt lat="46.1414420" lon="10.1317220">
	<ele>1375.40</ele>
	<time>2024-09-06T06:32:35.000Z</time>
</trkpt>
<trkpt lat="46.1414320" lon="10.1317170">
	<ele>1375.60</ele>
	<time>2024-09-06T06:32:36.000Z</time>
</trkpt>
<trkpt lat="46.1414170" lon="10.1317080">
	<ele>1375.80</ele>
	<time>2024-09-06T06:32:37.000Z</time>
</trkpt>
<trkpt lat="46.1414040" lon="10.1317020">
	<ele>1375.80</ele>
	<time>2024-09-06T06:32:38.000Z</time>
</trkpt>
<trkpt lat="46.1413970" lon="10.1317030">
	<ele>1376.00</ele>
	<time>2024-09-06T06:32:39.000Z</time>
</trkpt>
<trkpt lat="46.1413890" lon="10.1317010">
	<ele>1376.20</ele>
	<time>2024-09-06T06:32:40.000Z</time>
</trkpt>
<trkpt lat="46.1413800" lon="10.1316970">
	<ele>1376.20</ele>
	<time>2024-09-06T06:32:41.000Z</time>
</trkpt>
<trkpt lat="46.1413730" lon="10.1316940">
	<ele>1376.40</ele>
	<time>2024-09-06T06:32:42.000Z</time>
</trkpt>
<trkpt lat="46.1413640" lon="10.1316910">
	<ele>1376.40</ele>
	<time>2024-09-06T06:32:43.000Z</time>
</trkpt>
<trkpt lat="46.1413600" lon="10.1316850">
	<ele>1376.60</ele>
	<time>2024-09-06T06:32:44.000Z</time>
</trkpt>
<trkpt lat="46.1413530" lon="10.1316800">
	<ele>1376.60</ele>
	<time>2024-09-06T06:32:45.000Z</time>
</trkpt>
<trkpt lat="46.1413420" lon="10.1316770">
	<ele>1376.60</ele>
	<time>2024-09-06T06:32:46.000Z</time>
</trkpt>
<trkpt lat="46.1413320" lon="10.1316730">
	<ele>1376.80</ele>
	<time>2024-09-06T06:32:47.000Z</time>
</trkpt>
<trkpt lat="46.1413240" lon="10.1316700">
	<ele>1377.00</ele>
	<time>2024-09-06T06:32:48.000Z</time>
</trkpt>
<trkpt lat="46.1413170" lon="10.1316660">
	<ele>1377.20</ele>
	<time>2024-09-06T06:32:49.000Z</time>
</trkpt>
<trkpt lat="46.1413080" lon="10.1316630">
	<ele>1377.20</ele>
	<time>2024-09-06T06:32:50.000Z</time>
</trkpt>
<trkpt lat="46.1412980" lon="10.1316600">
	<ele>1377.40</ele>
	<time>2024-09-06T06:32:51.000Z</time>
</trkpt>
<trkpt lat="46.1412910" lon="10.1316610">
	<ele>1377.60</ele>
	<time>2024-09-06T06:32:52.000Z</time>
</trkpt>
<trkpt lat="46.1412840" lon="10.1316630">
	<ele>1377.80</ele>
	<time>2024-09-06T06:32:53.000Z</time>
</trkpt>
<trkpt lat="46.1412730" lon="10.1316630">
	<ele>1377.80</ele>
	<time>2024-09-06T06:32:54.000Z</time>
</trkpt>
<trkpt lat="46.1412660" lon="10.1316660">
	<ele>1378.00</ele>
	<time>2024-09-06T06:32:55.000Z</time>
</trkpt>
<trkpt lat="46.1412520" lon="10.1316620">
	<ele>1378.20</ele>
	<time>2024-09-06T06:32:56.000Z</time>
</trkpt>
<trkpt lat="46.1412360" lon="10.1316560">
	<ele>1378.40</ele>
	<time>2024-09-06T06:32:57.000Z</time>
</trkpt>
<trkpt lat="46.1412220" lon="10.1316530">
	<ele>1378.40</ele>
	<time>2024-09-06T06:32:58.000Z</time>
</trkpt>
<trkpt lat="46.1412100" lon="10.1316500">
	<ele>1378.60</ele>
	<time>2024-09-06T06:32:59.000Z</time>
</trkpt>
<trkpt lat="46.1411970" lon="10.1316410">
	<ele>1378.80</ele>
	<time>2024-09-06T06:33:00.000Z</time>
</trkpt>
<trkpt lat="46.1411890" lon="10.1316320">
	<ele>1379.00</ele>
	<time>2024-09-06T06:33:01.000Z</time>
</trkpt>
<trkpt lat="46.1411770" lon="10.1316280">
	<ele>1379.20</ele>
	<time>2024-09-06T06:33:02.000Z</time>
</trkpt>
<trkpt lat="46.1411610" lon="10.1316170">
	<ele>1379.40</ele>
	<time>2024-09-06T06:33:03.000Z</time>
</trkpt>
<trkpt lat="46.1411500" lon="10.1316130">
	<ele>1379.60</ele>
	<time>2024-09-06T06:33:04.000Z</time>
</trkpt>
<trkpt lat="46.1411400" lon="10.1316120">
	<ele>1379.60</ele>
	<time>2024-09-06T06:33:05.000Z</time>
</trkpt>
<trkpt lat="46.1411290" lon="10.1316120">
	<ele>1379.80</ele>
	<time>2024-09-06T06:33:06.000Z</time>
</trkpt>
<trkpt lat="46.1411220" lon="10.1316140">
	<ele>1380.00</ele>
	<time>2024-09-06T06:33:07.000Z</time>
</trkpt>
<trkpt lat="46.1411090" lon="10.1316120">
	<ele>1380.20</ele>
	<time>2024-09-06T06:33:08.000Z</time>
</trkpt>
<trkpt lat="46.1410990" lon="10.1316130">
	<ele>1380.60</ele>
	<time>2024-09-06T06:33:09.000Z</time>
</trkpt>
<trkpt lat="46.1410830" lon="10.1316150">
	<ele>1381.00</ele>
	<time>2024-09-06T06:33:10.000Z</time>
</trkpt>
<trkpt lat="46.1410820" lon="10.1316210">
	<ele>1381.20</ele>
	<time>2024-09-06T06:33:11.000Z</time>
</trkpt>
<trkpt lat="46.1410810" lon="10.1316280">
	<ele>1381.40</ele>
	<time>2024-09-06T06:33:12.000Z</time>
</trkpt>
<trkpt lat="46.1410730" lon="10.1316430">
	<ele>1381.40</ele>
	<time>2024-09-06T06:33:13.000Z</time>
</trkpt>
<trkpt lat="46.1410720" lon="10.1316460">
	<ele>1381.40</ele>
	<time>2024-09-06T06:33:14.000Z</time>
</trkpt>
<trkpt lat="46.1410720" lon="10.1316440">
	<ele>1381.40</ele>
	<time>2024-09-06T06:33:15.000Z</time>
</trkpt>
<trkpt lat="46.1410720" lon="10.1316420">
	<ele>1381.40</ele>
	<time>2024-09-06T06:33:16.000Z</time>
</trkpt>
<trkpt lat="46.1410720" lon="10.1316410">
	<ele>1381.40</ele>
	<time>2024-09-06T06:33:17.000Z</time>
</trkpt>
<trkpt lat="46.1410730" lon="10.1316420">
	<ele>1381.40</ele>
	<time>2024-09-06T06:33:18.000Z</time>
</trkpt>
<trkpt lat="46.1410740" lon="10.1316430">
	<ele>1381.20</ele>
	<time>2024-09-06T06:33:19.000Z</time>
</trkpt>
<trkpt lat="46.1410740" lon="10.1316420">
	<ele>1381.20</ele>
	<time>2024-09-06T06:33:20.000Z</time>
</trkpt>
<trkpt lat="46.1410750" lon="10.1316440">
	<ele>1381.20</ele>
	<time>2024-09-06T06:33:21.000Z</time>
</trkpt>
<trkpt lat="46.1410760" lon="10.1316440">
	<ele>1381.20</ele>
	<time>2024-09-06T06:33:22.000Z</time>
</trkpt>
<trkpt lat="46.1410760" lon="10.1316420">
	<ele>1381.20</ele>
	<time>2024-09-06T06:33:23.000Z</time>
</trkpt>
<trkpt lat="46.1410760" lon="10.1316390">
	<ele>1381.20</ele>
	<time>2024-09-06T06:33:24.000Z</time>
</trkpt>
<trkpt lat="46.1410730" lon="10.1316360">
	<ele>1381.40</ele>
	<time>2024-09-06T06:33:25.000Z</time>
</trkpt>
<trkpt lat="46.1410700" lon="10.1316300">
	<ele>1381.40</ele>
	<time>2024-09-06T06:33:26.000Z</time>
</trkpt>
<trkpt lat="46.1410680" lon="10.1316260">
	<ele>1381.40</ele>
	<time>2024-09-06T06:33:27.000Z</time>
</trkpt>
<trkpt lat="46.1410610" lon="10.1316140">
	<ele>1381.40</ele>
	<time>2024-09-06T06:33:28.000Z</time>
</trkpt>
<trkpt lat="46.1410610" lon="10.1316140">
	<ele>1381.40</ele>
	<time>2024-09-06T06:33:29.000Z</time>
</trkpt>
<trkpt lat="46.1410610" lon="10.1316150">
	<ele>1381.40</ele>
	<time>2024-09-06T06:33:30.000Z</time>
</trkpt>
<trkpt lat="46.1410610" lon="10.1316150">
	<ele>1381.40</ele>
	<time>2024-09-06T06:33:31.000Z</time>
</trkpt>
<trkpt lat="46.1410610" lon="10.1316150">
	<ele>1381.40</ele>
	<time>2024-09-06T06:33:32.000Z</time>
</trkpt>
<trkpt lat="46.1410610" lon="10.1316150">
	<ele>1381.60</ele>
	<time>2024-09-06T06:33:33.000Z</time>
</trkpt>
<trkpt lat="46.1410610" lon="10.1316150">
	<ele>1381.60</ele>
	<time>2024-09-06T06:33:34.000Z</time>
</trkpt>
<trkpt lat="46.1410610" lon="10.1316150">
	<ele>1381.60</ele>
	<time>2024-09-06T06:33:35.000Z</time>
</trkpt>
<trkpt lat="46.1410610" lon="10.1316150">
	<ele>1381.60</ele>
	<time>2024-09-06T06:33:36.000Z</time>
</trkpt>
<trkpt lat="46.1410610" lon="10.1316150">
	<ele>1381.40</ele>
	<time>2024-09-06T06:33:37.000Z</time>
</trkpt>
<trkpt lat="46.1410610" lon="10.1316150">
	<ele>1381.60</ele>
	<time>2024-09-06T06:33:38.000Z</time>
</trkpt>
<trkpt lat="46.1410610" lon="10.1316150">
	<ele>1381.60</ele>
	<time>2024-09-06T06:33:39.000Z</time>
</trkpt>
<trkpt lat="46.1410610" lon="10.1316150">
	<ele>1381.60</ele>
	<time>2024-09-06T06:33:40.000Z</time>
</trkpt>
<trkpt lat="46.1410610" lon="10.1316150">
	<ele>1381.60</ele>
	<time>2024-09-06T06:33:41.000Z</time>
</trkpt>
<trkpt lat="46.1410610" lon="10.1316170">
	<ele>1381.60</ele>
	<time>2024-09-06T06:33:42.000Z</time>
</trkpt>
<trkpt lat="46.1410610" lon="10.1316190">
	<ele>1381.60</ele>
	<time>2024-09-06T06:33:43.000Z</time>
</trkpt>
<trkpt lat="46.1410610" lon="10.1316190">
	<ele>1381.60</ele>
	<time>2024-09-06T06:33:44.000Z</time>
</trkpt>
<trkpt lat="46.1410610" lon="10.1316190">
	<ele>1381.60</ele>
	<time>2024-09-06T06:33:45.000Z</time>
</trkpt>
<trkpt lat="46.1410610" lon="10.1316190">
	<ele>1381.60</ele>
	<time>2024-09-06T06:33:46.000Z</time>
</trkpt>
<trkpt lat="46.1410610" lon="10.1316190">
	<ele>1381.60</ele>
	<time>2024-09-06T06:33:47.000Z</time>
</trkpt>
<trkpt lat="46.1410610" lon="10.1316190">
	<ele>1381.60</ele>
	<time>2024-09-06T06:33:48.000Z</time>
</trkpt>
<trkpt lat="46.1410610" lon="10.1316190">
	<ele>1381.80</ele>
	<time>2024-09-06T06:33:49.000Z</time>
</trkpt>
<trkpt lat="46.1410610" lon="10.1316190">
	<ele>1381.80</ele>
	<time>2024-09-06T06:33:50.000Z</time>
</trkpt>
<trkpt lat="46.1410610" lon="10.1316190">
	<ele>1382.00</ele>
	<time>2024-09-06T06:33:51.000Z</time>
</trkpt>
<trkpt lat="46.1410610" lon="10.1316190">
	<ele>1382.00</ele>
	<time>2024-09-06T06:33:52.000Z</time>
</trkpt>
<trkpt lat="46.1410610" lon="10.1316190">
	<ele>1382.00</ele>
	<time>2024-09-06T06:33:53.000Z</time>
</trkpt>
<trkpt lat="46.1410610" lon="10.1316190">
	<ele>1382.20</ele>
	<time>2024-09-06T06:33:54.000Z</time>
</trkpt>
<trkpt lat="46.1410610" lon="10.1316190">
	<ele>1382.00</ele>
	<time>2024-09-06T06:33:55.000Z</time>
</trkpt>
<trkpt lat="46.1410600" lon="10.1316190">
	<ele>1382.00</ele>
	<time>2024-09-06T06:33:56.000Z</time>
</trkpt>
<trkpt lat="46.1410600" lon="10.1316190">
	<ele>1382.00</ele>
	<time>2024-09-06T06:33:57.000Z</time>
</trkpt>
<trkpt lat="46.1410600" lon="10.1316200">
	<ele>1382.00</ele>
	<time>2024-09-06T06:33:58.000Z</time>
</trkpt>
<trkpt lat="46.1410600" lon="10.1316200">
	<ele>1382.20</ele>
	<time>2024-09-06T06:33:59.000Z</time>
</trkpt>
<trkpt lat="46.1410640" lon="10.1316300">
	<ele>1382.40</ele>
	<time>2024-09-06T06:34:00.000Z</time>
</trkpt>
<trkpt lat="46.1410790" lon="10.1316520">
	<ele>1382.40</ele>
	<time>2024-09-06T06:34:01.000Z</time>
</trkpt>
<trkpt lat="46.1410920" lon="10.1316690">
	<ele>1382.60</ele>
	<time>2024-09-06T06:34:02.000Z</time>
</trkpt>
<trkpt lat="46.1411070" lon="10.1316880">
	<ele>1382.60</ele>
	<time>2024-09-06T06:34:03.000Z</time>
</trkpt>
<trkpt lat="46.1411250" lon="10.1317100">
	<ele>1382.60</ele>
	<time>2024-09-06T06:34:04.000Z</time>
</trkpt>
<trkpt lat="46.1411430" lon="10.1317300">
	<ele>1382.80</ele>
	<time>2024-09-06T06:34:05.000Z</time>
</trkpt>
<trkpt lat="46.1411630" lon="10.1317500">
	<ele>1382.80</ele>
	<time>2024-09-06T06:34:06.000Z</time>
</trkpt>
<trkpt lat="46.1411820" lon="10.1317690">
	<ele>1382.80</ele>
	<time>2024-09-06T06:34:07.000Z</time>
</trkpt>
<trkpt lat="46.1411990" lon="10.1317920">
	<ele>1382.60</ele>
	<time>2024-09-06T06:34:08.000Z</time>
</trkpt>
<trkpt lat="46.1412150" lon="10.1318130">
	<ele>1382.60</ele>
	<time>2024-09-06T06:34:09.000Z</time>
</trkpt>
<trkpt lat="46.1412260" lon="10.1318240">
	<ele>1382.40</ele>
	<time>2024-09-06T06:34:10.000Z</time>
</trkpt>
<trkpt lat="46.1412370" lon="10.1318360">
	<ele>1382.20</ele>
	<time>2024-09-06T06:34:11.000Z</time>
</trkpt>
<trkpt lat="46.1412480" lon="10.1318410">
	<ele>1382.00</ele>
	<time>2024-09-06T06:34:12.000Z</time>
</trkpt>
<trkpt lat="46.1412570" lon="10.1318440">
	<ele>1382.00</ele>
	<time>2024-09-06T06:34:13.000Z</time>
</trkpt>
<trkpt lat="46.1412690" lon="10.1318500">
	<ele>1382.00</ele>
	<time>2024-09-06T06:34:14.000Z</time>
</trkpt>
<trkpt lat="46.1412820" lon="10.1318580">
	<ele>1381.80</ele>
	<time>2024-09-06T06:34:15.000Z</time>
</trkpt>
<trkpt lat="46.1412960" lon="10.1318690">
	<ele>1381.60</ele>
	<time>2024-09-06T06:34:16.000Z</time>
</trkpt>
<trkpt lat="46.1413100" lon="10.1318800">
	<ele>1381.40</ele>
	<time>2024-09-06T06:34:17.000Z</time>
</trkpt>
<trkpt lat="46.1413240" lon="10.1318890">
	<ele>1381.20</ele>
	<time>2024-09-06T06:34:18.000Z</time>
</trkpt>
<trkpt lat="46.1413340" lon="10.1318990">
	<ele>1381.00</ele>
	<time>2024-09-06T06:34:19.000Z</time>
</trkpt>
<trkpt lat="46.1413450" lon="10.1319060">
	<ele>1380.80</ele>
	<time>2024-09-06T06:34:20.000Z</time>
</trkpt>
<trkpt lat="46.1413590" lon="10.1319110">
	<ele>1380.60</ele>
	<time>2024-09-06T06:34:21.000Z</time>
</trkpt>
<trkpt lat="46.1413600" lon="10.1319230">
	<ele>1380.40</ele>
	<time>2024-09-06T06:34:22.000Z</time>
</trkpt>
<trkpt lat="46.1413650" lon="10.1319480">
	<ele>1380.40</ele>
	<time>2024-09-06T06:34:23.000Z</time>
</trkpt>
<trkpt lat="46.1413700" lon="10.1319730">
	<ele>1380.20</ele>
	<time>2024-09-06T06:34:24.000Z</time>
</trkpt>
<trkpt lat="46.1413820" lon="10.1319860">
	<ele>1380.20</ele>
	<time>2024-09-06T06:34:25.000Z</time>
</trkpt>
<trkpt lat="46.1413960" lon="10.1319880">
	<ele>1380.00</ele>
	<time>2024-09-06T06:34:26.000Z</time>
</trkpt>
<trkpt lat="46.1414130" lon="10.1319920">
	<ele>1379.80</ele>
	<time>2024-09-06T06:34:27.000Z</time>
</trkpt>
<trkpt lat="46.1414320" lon="10.1320060">
	<ele>1379.60</ele>
	<time>2024-09-06T06:34:28.000Z</time>
</trkpt>
<trkpt lat="46.1414480" lon="10.1320090">
	<ele>1379.40</ele>
	<time>2024-09-06T06:34:29.000Z</time>
</trkpt>
<trkpt lat="46.1414680" lon="10.1320060">
	<ele>1379.40</ele>
	<time>2024-09-06T06:34:30.000Z</time>
</trkpt>
<trkpt lat="46.1414910" lon="10.1320080">
	<ele>1379.40</ele>
	<time>2024-09-06T06:34:31.000Z</time>
</trkpt>
<trkpt lat="46.1415080" lon="10.1320150">
	<ele>1379.20</ele>
	<time>2024-09-06T06:34:32.000Z</time>
</trkpt>
<trkpt lat="46.1415230" lon="10.1320170">
	<ele>1379.20</ele>
	<time>2024-09-06T06:34:33.000Z</time>
</trkpt>
<trkpt lat="46.1415380" lon="10.1320140">
	<ele>1379.20</ele>
	<time>2024-09-06T06:34:34.000Z</time>
</trkpt>
<trkpt lat="46.1415560" lon="10.1320100">
	<ele>1379.00</ele>
	<time>2024-09-06T06:34:35.000Z</time>
</trkpt>
<trkpt lat="46.1415710" lon="10.1320070">
	<ele>1379.00</ele>
	<time>2024-09-06T06:34:36.000Z</time>
</trkpt>
<trkpt lat="46.1415820" lon="10.1320050">
	<ele>1379.00</ele>
	<time>2024-09-06T06:34:37.000Z</time>
</trkpt>
<trkpt lat="46.1415900" lon="10.1320040">
	<ele>1379.00</ele>
	<time>2024-09-06T06:34:38.000Z</time>
</trkpt>
<trkpt lat="46.1416060" lon="10.1320100">
	<ele>1378.80</ele>
	<time>2024-09-06T06:34:39.000Z</time>
</trkpt>
<trkpt lat="46.1416230" lon="10.1320200">
	<ele>1378.80</ele>
	<time>2024-09-06T06:34:40.000Z</time>
</trkpt>
<trkpt lat="46.1416380" lon="10.1320300">
	<ele>1378.80</ele>
	<time>2024-09-06T06:34:41.000Z</time>
</trkpt>
<trkpt lat="46.1416530" lon="10.1320420">
	<ele>1378.80</ele>
	<time>2024-09-06T06:34:42.000Z</time>
</trkpt>
<trkpt lat="46.1416660" lon="10.1320590">
	<ele>1378.80</ele>
	<time>2024-09-06T06:34:43.000Z</time>
</trkpt>
<trkpt lat="46.1416790" lon="10.1320690">
	<ele>1378.80</ele>
	<time>2024-09-06T06:34:44.000Z</time>
</trkpt>
<trkpt lat="46.1416900" lon="10.1320810">
	<ele>1379.00</ele>
	<time>2024-09-06T06:34:45.000Z</time>
</trkpt>
<trkpt lat="46.1416970" lon="10.1320900">
	<ele>1379.00</ele>
	<time>2024-09-06T06:34:46.000Z</time>
</trkpt>
<trkpt lat="46.1417060" lon="10.1320950">
	<ele>1379.00</ele>
	<time>2024-09-06T06:34:47.000Z</time>
</trkpt>
<trkpt lat="46.1417110" lon="10.1320980">
	<ele>1379.00</ele>
	<time>2024-09-06T06:34:48.000Z</time>
</trkpt>
<trkpt lat="46.1417170" lon="10.1321050">
	<ele>1378.80</ele>
	<time>2024-09-06T06:34:49.000Z</time>
</trkpt>
<trkpt lat="46.1417260" lon="10.1321130">
	<ele>1378.80</ele>
	<time>2024-09-06T06:34:50.000Z</time>
</trkpt>
<trkpt lat="46.1417350" lon="10.1321210">
	<ele>1378.80</ele>
	<time>2024-09-06T06:34:51.000Z</time>
</trkpt>
<trkpt lat="46.1417390" lon="10.1321350">
	<ele>1378.80</ele>
	<time>2024-09-06T06:34:52.000Z</time>
</trkpt>
<trkpt lat="46.1417450" lon="10.1321450">
	<ele>1378.60</ele>
	<time>2024-09-06T06:34:53.000Z</time>
</trkpt>
<trkpt lat="46.1417490" lon="10.1321560">
	<ele>1378.60</ele>
	<time>2024-09-06T06:34:54.000Z</time>
</trkpt>
<trkpt lat="46.1417520" lon="10.1321620">
	<ele>1378.60</ele>
	<time>2024-09-06T06:34:55.000Z</time>
</trkpt>
<trkpt lat="46.1417560" lon="10.1321660">
	<ele>1378.60</ele>
	<time>2024-09-06T06:34:56.000Z</time>
</trkpt>
<trkpt lat="46.1417580" lon="10.1321680">
	<ele>1378.80</ele>
	<time>2024-09-06T06:34:57.000Z</time>
</trkpt>
<trkpt lat="46.1417580" lon="10.1321720">
	<ele>1378.80</ele>
	<time>2024-09-06T06:34:58.000Z</time>
</trkpt>
<trkpt lat="46.1417580" lon="10.1321740">
	<ele>1378.80</ele>
	<time>2024-09-06T06:34:59.000Z</time>
</trkpt>
<trkpt lat="46.1417580" lon="10.1321750">
	<ele>1379.00</ele>
	<time>2024-09-06T06:35:00.000Z</time>
</trkpt>
<trkpt lat="46.1417610" lon="10.1321760">
	<ele>1379.00</ele>
	<time>2024-09-06T06:35:01.000Z</time>
</trkpt>
<trkpt lat="46.1417650" lon="10.1321820">
	<ele>1378.80</ele>
	<time>2024-09-06T06:35:02.000Z</time>
</trkpt>
<trkpt lat="46.1417730" lon="10.1321890">
	<ele>1378.80</ele>
	<time>2024-09-06T06:35:03.000Z</time>
</trkpt>
<trkpt lat="46.1417820" lon="10.1322010">
	<ele>1378.60</ele>
	<time>2024-09-06T06:35:04.000Z</time>
</trkpt>
<trkpt lat="46.1417900" lon="10.1322160">
	<ele>1378.60</ele>
	<time>2024-09-06T06:35:05.000Z</time>
</trkpt>
<trkpt lat="46.1417950" lon="10.1322320">
	<ele>1378.40</ele>
	<time>2024-09-06T06:35:06.000Z</time>
</trkpt>
<trkpt lat="46.1418020" lon="10.1322450">
	<ele>1378.40</ele>
	<time>2024-09-06T06:35:07.000Z</time>
</trkpt>
<trkpt lat="46.1418110" lon="10.1322580">
	<ele>1378.40</ele>
	<time>2024-09-06T06:35:08.000Z</time>
</trkpt>
<trkpt lat="46.1418200" lon="10.1322710">
	<ele>1378.40</ele>
	<time>2024-09-06T06:35:09.000Z</time>
</trkpt>
<trkpt lat="46.1418290" lon="10.1322820">
	<ele>1378.20</ele>
	<time>2024-09-06T06:35:10.000Z</time>
</trkpt>
<trkpt lat="46.1418410" lon="10.1322930">
	<ele>1378.20</ele>
	<time>2024-09-06T06:35:11.000Z</time>
</trkpt>
<trkpt lat="46.1418490" lon="10.1323100">
	<ele>1378.20</ele>
	<time>2024-09-06T06:35:12.000Z</time>
</trkpt>
<trkpt lat="46.1418580" lon="10.1323250">
	<ele>1378.00</ele>
	<time>2024-09-06T06:35:13.000Z</time>
</trkpt>
<trkpt lat="46.1418690" lon="10.1323420">
	<ele>1378.00</ele>
	<time>2024-09-06T06:35:14.000Z</time>
</trkpt>
<trkpt lat="46.1418770" lon="10.1323550">
	<ele>1378.00</ele>
	<time>2024-09-06T06:35:15.000Z</time>
</trkpt>
<trkpt lat="46.1418840" lon="10.1323660">
	<ele>1378.00</ele>
	<time>2024-09-06T06:35:16.000Z</time>
</trkpt>
<trkpt lat="46.1418890" lon="10.1323810">
	<ele>1378.00</ele>
	<time>2024-09-06T06:35:17.000Z</time>
</trkpt>
<trkpt lat="46.1418970" lon="10.1323930">
	<ele>1378.00</ele>
	<time>2024-09-06T06:35:18.000Z</time>
</trkpt>
<trkpt lat="46.1419090" lon="10.1324080">
	<ele>1378.00</ele>
	<time>2024-09-06T06:35:19.000Z</time>
</trkpt>
<trkpt lat="46.1419230" lon="10.1324350">
	<ele>1378.00</ele>
	<time>2024-09-06T06:35:20.000Z</time>
</trkpt>
<trkpt lat="46.1419350" lon="10.1324550">
	<ele>1378.00</ele>
	<time>2024-09-06T06:35:21.000Z</time>
</trkpt>
<trkpt lat="46.1419420" lon="10.1324670">
	<ele>1378.20</ele>
	<time>2024-09-06T06:35:22.000Z</time>
</trkpt>
<trkpt lat="46.1419480" lon="10.1324810">
	<ele>1378.20</ele>
	<time>2024-09-06T06:35:23.000Z</time>
</trkpt>
<trkpt lat="46.1419540" lon="10.1324870">
	<ele>1378.40</ele>
	<time>2024-09-06T06:35:24.000Z</time>
</trkpt>
<trkpt lat="46.1419610" lon="10.1324970">
	<ele>1378.60</ele>
	<time>2024-09-06T06:35:25.000Z</time>
</trkpt>
<trkpt lat="46.1419660" lon="10.1325130">
	<ele>1378.60</ele>
	<time>2024-09-06T06:35:26.000Z</time>
</trkpt>
<trkpt lat="46.1419760" lon="10.1325270">
	<ele>1378.80</ele>
	<time>2024-09-06T06:35:27.000Z</time>
</trkpt>
<trkpt lat="46.1419820" lon="10.1325420">
	<ele>1379.00</ele>
	<time>2024-09-06T06:35:28.000Z</time>
</trkpt>
<trkpt lat="46.1419880" lon="10.1325550">
	<ele>1379.20</ele>
	<time>2024-09-06T06:35:29.000Z</time>
</trkpt>
<trkpt lat="46.1419910" lon="10.1325690">
	<ele>1379.40</ele>
	<time>2024-09-06T06:35:30.000Z</time>
</trkpt>
<trkpt lat="46.1420000" lon="10.1325840">
	<ele>1379.60</ele>
	<time>2024-09-06T06:35:31.000Z</time>
</trkpt>
<trkpt lat="46.1420080" lon="10.1325970">
	<ele>1379.80</ele>
	<time>2024-09-06T06:35:32.000Z</time>
</trkpt>
<trkpt lat="46.1420150" lon="10.1326120">
	<ele>1380.00</ele>
	<time>2024-09-06T06:35:33.000Z</time>
</trkpt>
<trkpt lat="46.1420200" lon="10.1326230">
	<ele>1380.00</ele>
	<time>2024-09-06T06:35:34.000Z</time>
</trkpt>
<trkpt lat="46.1420260" lon="10.1326380">
	<ele>1380.20</ele>
	<time>2024-09-06T06:35:35.000Z</time>
</trkpt>
<trkpt lat="46.1420330" lon="10.1326520">
	<ele>1380.40</ele>
	<time>2024-09-06T06:35:36.000Z</time>
</trkpt>
<trkpt lat="46.1420450" lon="10.1326660">
	<ele>1380.60</ele>
	<time>2024-09-06T06:35:37.000Z</time>
</trkpt>
<trkpt lat="46.1420570" lon="10.1326780">
	<ele>1380.60</ele>
	<time>2024-09-06T06:35:38.000Z</time>
</trkpt>
<trkpt lat="46.1420650" lon="10.1326880">
	<ele>1380.80</ele>
	<time>2024-09-06T06:35:39.000Z</time>
</trkpt>
<trkpt lat="46.1420750" lon="10.1326990">
	<ele>1380.80</ele>
	<time>2024-09-06T06:35:40.000Z</time>
</trkpt>
<trkpt lat="46.1420860" lon="10.1327080">
	<ele>1381.00</ele>
	<time>2024-09-06T06:35:41.000Z</time>
</trkpt>
<trkpt lat="46.1420960" lon="10.1327160">
	<ele>1381.00</ele>
	<time>2024-09-06T06:35:42.000Z</time>
</trkpt>
<trkpt lat="46.1421050" lon="10.1327290">
	<ele>1381.20</ele>
	<time>2024-09-06T06:35:43.000Z</time>
</trkpt>
<trkpt lat="46.1421120" lon="10.1327450">
	<ele>1381.20</ele>
	<time>2024-09-06T06:35:44.000Z</time>
</trkpt>
<trkpt lat="46.1421190" lon="10.1327550">
	<ele>1381.40</ele>
	<time>2024-09-06T06:35:45.000Z</time>
</trkpt>
<trkpt lat="46.1421260" lon="10.1327590">
	<ele>1381.40</ele>
	<time>2024-09-06T06:35:46.000Z</time>
</trkpt>
<trkpt lat="46.1421330" lon="10.1327670">
	<ele>1381.40</ele>
	<time>2024-09-06T06:35:47.000Z</time>
</trkpt>
<trkpt lat="46.1421360" lon="10.1327730">
	<ele>1381.40</ele>
	<time>2024-09-06T06:35:48.000Z</time>
</trkpt>
<trkpt lat="46.1421360" lon="10.1327750">
	<ele>1381.60</ele>
	<time>2024-09-06T06:35:49.000Z</time>
</trkpt>
<trkpt lat="46.1421360" lon="10.1327760">
	<ele>1381.40</ele>
	<time>2024-09-06T06:35:50.000Z</time>
</trkpt>
<trkpt lat="46.1421360" lon="10.1327790">
	<ele>1381.40</ele>
	<time>2024-09-06T06:35:51.000Z</time>
</trkpt>
<trkpt lat="46.1421370" lon="10.1327800">
	<ele>1381.40</ele>
	<time>2024-09-06T06:35:52.000Z</time>
</trkpt>
<trkpt lat="46.1421370" lon="10.1327800">
	<ele>1381.60</ele>
	<time>2024-09-06T06:35:53.000Z</time>
</trkpt>
<trkpt lat="46.1421350" lon="10.1327800">
	<ele>1381.60</ele>
	<time>2024-09-06T06:35:54.000Z</time>
</trkpt>
<trkpt lat="46.1421350" lon="10.1327790">
	<ele>1381.60</ele>
	<time>2024-09-06T06:35:55.000Z</time>
</trkpt>
<trkpt lat="46.1421350" lon="10.1327790">
	<ele>1381.80</ele>
	<time>2024-09-06T06:35:56.000Z</time>
</trkpt>
<trkpt lat="46.1421370" lon="10.1327820">
	<ele>1381.80</ele>
	<time>2024-09-06T06:35:57.000Z</time>
</trkpt>
<trkpt lat="46.1421450" lon="10.1327930">
	<ele>1381.60</ele>
	<time>2024-09-06T06:35:58.000Z</time>
</trkpt>
<trkpt lat="46.1421570" lon="10.1328060">
	<ele>1381.60</ele>
	<time>2024-09-06T06:35:59.000Z</time>
</trkpt>
<trkpt lat="46.1421690" lon="10.1328140">
	<ele>1381.60</ele>
	<time>2024-09-06T06:36:00.000Z</time>
</trkpt>
<trkpt lat="46.1421770" lon="10.1328190">
	<ele>1381.60</ele>
	<time>2024-09-06T06:36:01.000Z</time>
</trkpt>
<trkpt lat="46.1421820" lon="10.1328220">
	<ele>1381.60</ele>
	<time>2024-09-06T06:36:02.000Z</time>
</trkpt>
<trkpt lat="46.1421840" lon="10.1328210">
	<ele>1381.60</ele>
	<time>2024-09-06T06:36:03.000Z</time>
</trkpt>
<trkpt lat="46.1421840" lon="10.1328200">
	<ele>1381.60</ele>
	<time>2024-09-06T06:36:04.000Z</time>
</trkpt>
<trkpt lat="46.1421860" lon="10.1328210">
	<ele>1381.60</ele>
	<time>2024-09-06T06:36:05.000Z</time>
</trkpt>
<trkpt lat="46.1421910" lon="10.1328160">
	<ele>1381.60</ele>
	<time>2024-09-06T06:36:06.000Z</time>
</trkpt>
<trkpt lat="46.1421960" lon="10.1328230">
	<ele>1381.60</ele>
	<time>2024-09-06T06:36:07.000Z</time>
</trkpt>
<trkpt lat="46.1421990" lon="10.1328390">
	<ele>1381.60</ele>
	<time>2024-09-06T06:36:08.000Z</time>
</trkpt>
<trkpt lat="46.1422030" lon="10.1328540">
	<ele>1381.60</ele>
	<time>2024-09-06T06:36:09.000Z</time>
</trkpt>
<trkpt lat="46.1422070" lon="10.1328650">
	<ele>1381.60</ele>
	<time>2024-09-06T06:36:10.000Z</time>
</trkpt>
<trkpt lat="46.1422130" lon="10.1328740">
	<ele>1381.60</ele>
	<time>2024-09-06T06:36:11.000Z</time>
</trkpt>
<trkpt lat="46.1422180" lon="10.1328820">
	<ele>1381.60</ele>
	<time>2024-09-06T06:36:12.000Z</time>
</trkpt>
<trkpt lat="46.1422210" lon="10.1328910">
	<ele>1381.60</ele>
	<time>2024-09-06T06:36:13.000Z</time>
</trkpt>
<trkpt lat="46.1422230" lon="10.1329040">
	<ele>1381.60</ele>
	<time>2024-09-06T06:36:14.000Z</time>
</trkpt>
<trkpt lat="46.1422250" lon="10.1329080">
	<ele>1381.60</ele>
	<time>2024-09-06T06:36:15.000Z</time>
</trkpt>
<trkpt lat="46.1422260" lon="10.1329110">
	<ele>1381.60</ele>
	<time>2024-09-06T06:36:16.000Z</time>
</trkpt>
<trkpt lat="46.1422260" lon="10.1329120">
	<ele>1381.60</ele>
	<time>2024-09-06T06:36:17.000Z</time>
</trkpt>
<trkpt lat="46.1422260" lon="10.1329120">
	<ele>1381.60</ele>
	<time>2024-09-06T06:36:18.000Z</time>
</trkpt>
<trkpt lat="46.1422270" lon="10.1329110">
	<ele>1381.60</ele>
	<time>2024-09-06T06:36:19.000Z</time>
</trkpt>
<trkpt lat="46.1422270" lon="10.1329100">
	<ele>1381.60</ele>
	<time>2024-09-06T06:36:20.000Z</time>
</trkpt>
<trkpt lat="46.1422270" lon="10.1329090">
	<ele>1381.60</ele>
	<time>2024-09-06T06:36:21.000Z</time>
</trkpt>
<trkpt lat="46.1422270" lon="10.1329090">
	<ele>1381.60</ele>
	<time>2024-09-06T06:36:22.000Z</time>
</trkpt>
<trkpt lat="46.1422270" lon="10.1329090">
	<ele>1381.60</ele>
	<time>2024-09-06T06:36:23.000Z</time>
</trkpt>
<trkpt lat="46.1422270" lon="10.1329070">
	<ele>1381.60</ele>
	<time>2024-09-06T06:36:24.000Z</time>
</trkpt>
<trkpt lat="46.1422270" lon="10.1329080">
	<ele>1381.60</ele>
	<time>2024-09-06T06:36:25.000Z</time>
</trkpt>
<trkpt lat="46.1422270" lon="10.1329190">
	<ele>1381.60</ele>
	<time>2024-09-06T06:36:26.000Z</time>
</trkpt>
<trkpt lat="46.1422290" lon="10.1329320">
	<ele>1381.60</ele>
	<time>2024-09-06T06:36:27.000Z</time>
</trkpt>
<trkpt lat="46.1422320" lon="10.1329480">
	<ele>1381.60</ele>
	<time>2024-09-06T06:36:28.000Z</time>
</trkpt>
<trkpt lat="46.1422380" lon="10.1329630">
	<ele>1381.60</ele>
	<time>2024-09-06T06:36:29.000Z</time>
</trkpt>
<trkpt lat="46.1422420" lon="10.1329780">
	<ele>1381.60</ele>
	<time>2024-09-06T06:36:30.000Z</time>
</trkpt>
<trkpt lat="46.1422430" lon="10.1329860">
	<ele>1381.60</ele>
	<time>2024-09-06T06:36:31.000Z</time>
</trkpt>
<trkpt lat="46.1422450" lon="10.1329990">
	<ele>1381.60</ele>
	<time>2024-09-06T06:36:32.000Z</time>
</trkpt>
<trkpt lat="46.1422500" lon="10.1330130">
	<ele>1381.60</ele>
	<time>2024-09-06T06:36:33.000Z</time>
</trkpt>
<trkpt lat="46.1422560" lon="10.1330280">
	<ele>1381.60</ele>
	<time>2024-09-06T06:36:34.000Z</time>
</trkpt>
<trkpt lat="46.1422620" lon="10.1330390">
	<ele>1381.60</ele>
	<time>2024-09-06T06:36:35.000Z</time>
</trkpt>
<trkpt lat="46.1422670" lon="10.1330500">
	<ele>1381.60</ele>
	<time>2024-09-06T06:36:36.000Z</time>
</trkpt>
<trkpt lat="46.1422720" lon="10.1330610">
	<ele>1381.60</ele>
	<time>2024-09-06T06:36:37.000Z</time>
</trkpt>
<trkpt lat="46.1422760" lon="10.1330710">
	<ele>1381.60</ele>
	<time>2024-09-06T06:36:38.000Z</time>
</trkpt>
<trkpt lat="46.1422820" lon="10.1330810">
	<ele>1382.40</ele>
	<time>2024-09-06T06:36:39.000Z</time>
</trkpt>
<trkpt lat="46.1422890" lon="10.1330890">
	<ele>1382.80</ele>
	<time>2024-09-06T06:36:40.000Z</time>
</trkpt>
<trkpt lat="46.1422960" lon="10.1330990">
	<ele>1383.00</ele>
	<time>2024-09-06T06:36:41.000Z</time>
</trkpt>
<trkpt lat="46.1423020" lon="10.1331100">
	<ele>1383.20</ele>
	<time>2024-09-06T06:36:42.000Z</time>
</trkpt>
<trkpt lat="46.1423080" lon="10.1331220">
	<ele>1383.40</ele>
	<time>2024-09-06T06:36:43.000Z</time>
</trkpt>
<trkpt lat="46.1423160" lon="10.1331370">
	<ele>1383.40</ele>
	<time>2024-09-06T06:36:44.000Z</time>
</trkpt>
<trkpt lat="46.1423270" lon="10.1331470">
	<ele>1383.60</ele>
	<time>2024-09-06T06:36:45.000Z</time>
</trkpt>
<trkpt lat="46.1423370" lon="10.1331570">
	<ele>1383.60</ele>
	<time>2024-09-06T06:36:46.000Z</time>
</trkpt>
<trkpt lat="46.1423440" lon="10.1331700">
	<ele>1383.80</ele>
	<time>2024-09-06T06:36:47.000Z</time>
</trkpt>
<trkpt lat="46.1423520" lon="10.1331820">
	<ele>1383.80</ele>
	<time>2024-09-06T06:36:48.000Z</time>
</trkpt>
<trkpt lat="46.1423580" lon="10.1331930">
	<ele>1383.80</ele>
	<time>2024-09-06T06:36:49.000Z</time>
</trkpt>
<trkpt lat="46.1423650" lon="10.1332080">
	<ele>1384.00</ele>
	<time>2024-09-06T06:36:50.000Z</time>
</trkpt>
<trkpt lat="46.1423740" lon="10.1332200">
	<ele>1384.00</ele>
	<time>2024-09-06T06:36:51.000Z</time>
</trkpt>
<trkpt lat="46.1423810" lon="10.1332350">
	<ele>1384.20</ele>
	<time>2024-09-06T06:36:52.000Z</time>
</trkpt>
<trkpt lat="46.1423880" lon="10.1332490">
	<ele>1384.20</ele>
	<time>2024-09-06T06:36:53.000Z</time>
</trkpt>
<trkpt lat="46.1423950" lon="10.1332630">
	<ele>1384.20</ele>
	<time>2024-09-06T06:36:54.000Z</time>
</trkpt>
<trkpt lat="46.1424030" lon="10.1332740">
	<ele>1384.20</ele>
	<time>2024-09-06T06:36:55.000Z</time>
</trkpt>
<trkpt lat="46.1424080" lon="10.1332870">
	<ele>1384.20</ele>
	<time>2024-09-06T06:36:56.000Z</time>
</trkpt>
<trkpt lat="46.1424150" lon="10.1333020">
	<ele>1384.20</ele>
	<time>2024-09-06T06:36:57.000Z</time>
</trkpt>
<trkpt lat="46.1424230" lon="10.1333130">
	<ele>1384.20</ele>
	<time>2024-09-06T06:36:58.000Z</time>
</trkpt>
<trkpt lat="46.1424290" lon="10.1333250">
	<ele>1384.20</ele>
	<time>2024-09-06T06:36:59.000Z</time>
</trkpt>
<trkpt lat="46.1424360" lon="10.1333390">
	<ele>1384.20</ele>
	<time>2024-09-06T06:37:00.000Z</time>
</trkpt>
<trkpt lat="46.1424390" lon="10.1333510">
	<ele>1384.20</ele>
	<time>2024-09-06T06:37:01.000Z</time>
</trkpt>
<trkpt lat="46.1424440" lon="10.1333640">
	<ele>1384.20</ele>
	<time>2024-09-06T06:37:02.000Z</time>
</trkpt>
<trkpt lat="46.1424510" lon="10.1333780">
	<ele>1384.20</ele>
	<time>2024-09-06T06:37:03.000Z</time>
</trkpt>
<trkpt lat="46.1424560" lon="10.1333960">
	<ele>1384.20</ele>
	<time>2024-09-06T06:37:04.000Z</time>
</trkpt>
<trkpt lat="46.1424600" lon="10.1334140">
	<ele>1384.20</ele>
	<time>2024-09-06T06:37:05.000Z</time>
</trkpt>
<trkpt lat="46.1424610" lon="10.1334330">
	<ele>1384.00</ele>
	<time>2024-09-06T06:37:06.000Z</time>
</trkpt>
<trkpt lat="46.1424630" lon="10.1334510">
	<ele>1384.00</ele>
	<time>2024-09-06T06:37:07.000Z</time>
</trkpt>
<trkpt lat="46.1424670" lon="10.1334720">
	<ele>1384.00</ele>
	<time>2024-09-06T06:37:08.000Z</time>
</trkpt>
<trkpt lat="46.1424760" lon="10.1334890">
	<ele>1384.20</ele>
	<time>2024-09-06T06:37:09.000Z</time>
</trkpt>
<trkpt lat="46.1424800" lon="10.1335060">
	<ele>1384.20</ele>
	<time>2024-09-06T06:37:10.000Z</time>
</trkpt>
<trkpt lat="46.1424860" lon="10.1335270">
	<ele>1384.20</ele>
	<time>2024-09-06T06:37:11.000Z</time>
</trkpt>
<trkpt lat="46.1424900" lon="10.1335430">
	<ele>1384.20</ele>
	<time>2024-09-06T06:37:12.000Z</time>
</trkpt>
<trkpt lat="46.1424950" lon="10.1335530">
	<ele>1384.20</ele>
	<time>2024-09-06T06:37:13.000Z</time>
</trkpt>
<trkpt lat="46.1425010" lon="10.1335650">
	<ele>1384.20</ele>
	<time>2024-09-06T06:37:14.000Z</time>
</trkpt>
<trkpt lat="46.1425110" lon="10.1335790">
	<ele>1384.20</ele>
	<time>2024-09-06T06:37:15.000Z</time>
</trkpt>
<trkpt lat="46.1425180" lon="10.1335990">
	<ele>1384.20</ele>
	<time>2024-09-06T06:37:16.000Z</time>
</trkpt>
<trkpt lat="46.1425220" lon="10.1336170">
	<ele>1384.00</ele>
	<time>2024-09-06T06:37:17.000Z</time>
</trkpt>
<trkpt lat="46.1425290" lon="10.1336370">
	<ele>1384.00</ele>
	<time>2024-09-06T06:37:18.000Z</time>
</trkpt>
<trkpt lat="46.1425330" lon="10.1336540">
	<ele>1383.80</ele>
	<time>2024-09-06T06:37:19.000Z</time>
</trkpt>
<trkpt lat="46.1425370" lon="10.1336720">
	<ele>1383.80</ele>
	<time>2024-09-06T06:37:20.000Z</time>
</trkpt>
<trkpt lat="46.1425400" lon="10.1336900">
	<ele>1383.80</ele>
	<time>2024-09-06T06:37:21.000Z</time>
</trkpt>
<trkpt lat="46.1425460" lon="10.1337150">
	<ele>1383.60</ele>
	<time>2024-09-06T06:37:22.000Z</time>
</trkpt>
<trkpt lat="46.1425480" lon="10.1337400">
	<ele>1383.60</ele>
	<time>2024-09-06T06:37:23.000Z</time>
</trkpt>
<trkpt lat="46.1425560" lon="10.1337600">
	<ele>1383.60</ele>
	<time>2024-09-06T06:37:24.000Z</time>
</trkpt>
<trkpt lat="46.1425620" lon="10.1337780">
	<ele>1383.40</ele>
	<time>2024-09-06T06:37:25.000Z</time>
</trkpt>
<trkpt lat="46.1425650" lon="10.1337860">
	<ele>1383.40</ele>
	<time>2024-09-06T06:37:26.000Z</time>
</trkpt>
<trkpt lat="46.1425670" lon="10.1337970">
	<ele>1383.40</ele>
	<time>2024-09-06T06:37:27.000Z</time>
</trkpt>
<trkpt lat="46.1425690" lon="10.1338090">
	<ele>1383.20</ele>
	<time>2024-09-06T06:37:28.000Z</time>
</trkpt>
<trkpt lat="46.1425740" lon="10.1338230">
	<ele>1383.20</ele>
	<time>2024-09-06T06:37:29.000Z</time>
</trkpt>
<trkpt lat="46.1425780" lon="10.1338360">
	<ele>1383.20</ele>
	<time>2024-09-06T06:37:30.000Z</time>
</trkpt>
<trkpt lat="46.1425810" lon="10.1338540">
	<ele>1383.00</ele>
	<time>2024-09-06T06:37:31.000Z</time>
</trkpt>
<trkpt lat="46.1425820" lon="10.1338720">
	<ele>1383.00</ele>
	<time>2024-09-06T06:37:32.000Z</time>
</trkpt>
<trkpt lat="46.1425780" lon="10.1338880">
	<ele>1383.00</ele>
	<time>2024-09-06T06:37:33.000Z</time>
</trkpt>
<trkpt lat="46.1425750" lon="10.1339010">
	<ele>1383.00</ele>
	<time>2024-09-06T06:37:34.000Z</time>
</trkpt>
<trkpt lat="46.1425670" lon="10.1339150">
	<ele>1383.00</ele>
	<time>2024-09-06T06:37:35.000Z</time>
</trkpt>
<trkpt lat="46.1425590" lon="10.1339310">
	<ele>1383.00</ele>
	<time>2024-09-06T06:37:36.000Z</time>
</trkpt>
<trkpt lat="46.1425390" lon="10.1339550">
	<ele>1383.00</ele>
	<time>2024-09-06T06:37:37.000Z</time>
</trkpt>
<trkpt lat="46.1425350" lon="10.1339770">
	<ele>1383.00</ele>
	<time>2024-09-06T06:37:38.000Z</time>
</trkpt>
<trkpt lat="46.1425280" lon="10.1339880">
	<ele>1383.00</ele>
	<time>2024-09-06T06:37:39.000Z</time>
</trkpt>
<trkpt lat="46.1425210" lon="10.1340010">
	<ele>1383.00</ele>
	<time>2024-09-06T06:37:40.000Z</time>
</trkpt>
<trkpt lat="46.1425150" lon="10.1340180">
	<ele>1383.00</ele>
	<time>2024-09-06T06:37:41.000Z</time>
</trkpt>
<trkpt lat="46.1425110" lon="10.1340350">
	<ele>1383.20</ele>
	<time>2024-09-06T06:37:42.000Z</time>
</trkpt>
<trkpt lat="46.1425050" lon="10.1340480">
	<ele>1383.20</ele>
	<time>2024-09-06T06:37:43.000Z</time>
</trkpt>
<trkpt lat="46.1425020" lon="10.1340620">
	<ele>1383.20</ele>
	<time>2024-09-06T06:37:44.000Z</time>
</trkpt>
<trkpt lat="46.1424960" lon="10.1340750">
	<ele>1383.20</ele>
	<time>2024-09-06T06:37:45.000Z</time>
</trkpt>
<trkpt lat="46.1424900" lon="10.1340860">
	<ele>1383.20</ele>
	<time>2024-09-06T06:37:46.000Z</time>
</trkpt>
<trkpt lat="46.1424810" lon="10.1340970">
	<ele>1383.20</ele>
	<time>2024-09-06T06:37:47.000Z</time>
</trkpt>
<trkpt lat="46.1424710" lon="10.1341080">
	<ele>1383.40</ele>
	<time>2024-09-06T06:37:48.000Z</time>
</trkpt>
<trkpt lat="46.1424590" lon="10.1341150">
	<ele>1383.40</ele>
	<time>2024-09-06T06:37:49.000Z</time>
</trkpt>
<trkpt lat="46.1424480" lon="10.1341250">
	<ele>1383.40</ele>
	<time>2024-09-06T06:37:50.000Z</time>
</trkpt>
<trkpt lat="46.1424390" lon="10.1341410">
	<ele>1383.40</ele>
	<time>2024-09-06T06:37:51.000Z</time>
</trkpt>
<trkpt lat="46.1424300" lon="10.1341560">
	<ele>1383.40</ele>
	<time>2024-09-06T06:37:52.000Z</time>
</trkpt>
<trkpt lat="46.1424230" lon="10.1341710">
	<ele>1383.60</ele>
	<time>2024-09-06T06:37:53.000Z</time>
</trkpt>
<trkpt lat="46.1424160" lon="10.1341900">
	<ele>1383.80</ele>
	<time>2024-09-06T06:37:54.000Z</time>
</trkpt>
<trkpt lat="46.1424060" lon="10.1342040">
	<ele>1383.80</ele>
	<time>2024-09-06T06:37:55.000Z</time>
</trkpt>
<trkpt lat="46.1423950" lon="10.1342150">
	<ele>1384.00</ele>
	<time>2024-09-06T06:37:56.000Z</time>
</trkpt>
<trkpt lat="46.1423840" lon="10.1342220">
	<ele>1384.20</ele>
	<time>2024-09-06T06:37:57.000Z</time>
</trkpt>
<trkpt lat="46.1423750" lon="10.1342320">
	<ele>1384.20</ele>
	<time>2024-09-06T06:37:58.000Z</time>
</trkpt>
<trkpt lat="46.1423650" lon="10.1342470">
	<ele>1384.40</ele>
	<time>2024-09-06T06:37:59.000Z</time>
</trkpt>
<trkpt lat="46.1423600" lon="10.1342630">
	<ele>1384.60</ele>
	<time>2024-09-06T06:38:00.000Z</time>
</trkpt>
<trkpt lat="46.1423580" lon="10.1342800">
	<ele>1384.60</ele>
	<time>2024-09-06T06:38:01.000Z</time>
</trkpt>
<trkpt lat="46.1423520" lon="10.1342970">
	<ele>1384.80</ele>
	<time>2024-09-06T06:38:02.000Z</time>
</trkpt>
<trkpt lat="46.1423500" lon="10.1343160">
	<ele>1384.80</ele>
	<time>2024-09-06T06:38:03.000Z</time>
</trkpt>
<trkpt lat="46.1423480" lon="10.1343340">
	<ele>1384.80</ele>
	<time>2024-09-06T06:38:04.000Z</time>
</trkpt>
<trkpt lat="46.1423500" lon="10.1343550">
	<ele>1385.00</ele>
	<time>2024-09-06T06:38:05.000Z</time>
</trkpt>
<trkpt lat="46.1423490" lon="10.1343710">
	<ele>1385.20</ele>
	<time>2024-09-06T06:38:06.000Z</time>
</trkpt>
<trkpt lat="46.1423410" lon="10.1343920">
	<ele>1385.20</ele>
	<time>2024-09-06T06:38:07.000Z</time>
</trkpt>
<trkpt lat="46.1423330" lon="10.1344090">
	<ele>1385.40</ele>
	<time>2024-09-06T06:38:08.000Z</time>
</trkpt>
<trkpt lat="46.1423270" lon="10.1344250">
	<ele>1385.60</ele>
	<time>2024-09-06T06:38:09.000Z</time>
</trkpt>
<trkpt lat="46.1423230" lon="10.1344400">
	<ele>1385.60</ele>
	<time>2024-09-06T06:38:10.000Z</time>
</trkpt>
<trkpt lat="46.1423220" lon="10.1344560">
	<ele>1385.80</ele>
	<time>2024-09-06T06:38:11.000Z</time>
</trkpt>
<trkpt lat="46.1423210" lon="10.1344720">
	<ele>1386.00</ele>
	<time>2024-09-06T06:38:12.000Z</time>
</trkpt>
<trkpt lat="46.1423240" lon="10.1344880">
	<ele>1386.00</ele>
	<time>2024-09-06T06:38:13.000Z</time>
</trkpt>
<trkpt lat="46.1423330" lon="10.1345050">
	<ele>1386.20</ele>
	<time>2024-09-06T06:38:14.000Z</time>
</trkpt>
<trkpt lat="46.1423320" lon="10.1345220">
	<ele>1386.40</ele>
	<time>2024-09-06T06:38:15.000Z</time>
</trkpt>
<trkpt lat="46.1423280" lon="10.1345400">
	<ele>1386.60</ele>
	<time>2024-09-06T06:38:16.000Z</time>
</trkpt>
<trkpt lat="46.1423280" lon="10.1345580">
	<ele>1386.80</ele>
	<time>2024-09-06T06:38:17.000Z</time>
</trkpt>
<trkpt lat="46.1423320" lon="10.1345820">
	<ele>1387.00</ele>
	<time>2024-09-06T06:38:18.000Z</time>
</trkpt>
<trkpt lat="46.1423380" lon="10.1346010">
	<ele>1387.20</ele>
	<time>2024-09-06T06:38:19.000Z</time>
</trkpt>
<trkpt lat="46.1423440" lon="10.1346210">
	<ele>1387.40</ele>
	<time>2024-09-06T06:38:20.000Z</time>
</trkpt>
<trkpt lat="46.1423470" lon="10.1346330">
	<ele>1387.60</ele>
	<time>2024-09-06T06:38:21.000Z</time>
</trkpt>
<trkpt lat="46.1423450" lon="10.1346480">
	<ele>1387.60</ele>
	<time>2024-09-06T06:38:22.000Z</time>
</trkpt>
<trkpt lat="46.1423460" lon="10.1346580">
	<ele>1387.60</ele>
	<time>2024-09-06T06:38:23.000Z</time>
</trkpt>
<trkpt lat="46.1423440" lon="10.1346690">
	<ele>1387.80</ele>
	<time>2024-09-06T06:38:24.000Z</time>
</trkpt>
<trkpt lat="46.1423430" lon="10.1346810">
	<ele>1387.80</ele>
	<time>2024-09-06T06:38:25.000Z</time>
</trkpt>
<trkpt lat="46.1423420" lon="10.1346950">
	<ele>1388.00</ele>
	<time>2024-09-06T06:38:26.000Z</time>
</trkpt>
<trkpt lat="46.1423410" lon="10.1347100">
	<ele>1388.20</ele>
	<time>2024-09-06T06:38:27.000Z</time>
</trkpt>
<trkpt lat="46.1423410" lon="10.1347240">
	<ele>1388.40</ele>
	<time>2024-09-06T06:38:28.000Z</time>
</trkpt>
<trkpt lat="46.1423440" lon="10.1347380">
	<ele>1388.60</ele>
	<time>2024-09-06T06:38:29.000Z</time>
</trkpt>
<trkpt lat="46.1423480" lon="10.1347550">
	<ele>1388.60</ele>
	<time>2024-09-06T06:38:30.000Z</time>
</trkpt>
<trkpt lat="46.1423500" lon="10.1347690">
	<ele>1388.80</ele>
	<time>2024-09-06T06:38:31.000Z</time>
</trkpt>
<trkpt lat="46.1423500" lon="10.1347880">
	<ele>1389.00</ele>
	<time>2024-09-06T06:38:32.000Z</time>
</trkpt>
<trkpt lat="46.1423520" lon="10.1348050">
	<ele>1389.00</ele>
	<time>2024-09-06T06:38:33.000Z</time>
</trkpt>
<trkpt lat="46.1423520" lon="10.1348190">
	<ele>1389.20</ele>
	<time>2024-09-06T06:38:34.000Z</time>
</trkpt>
<trkpt lat="46.1423540" lon="10.1348350">
	<ele>1389.40</ele>
	<time>2024-09-06T06:38:35.000Z</time>
</trkpt>
<trkpt lat="46.1423590" lon="10.1348520">
	<ele>1389.40</ele>
	<time>2024-09-06T06:38:36.000Z</time>
</trkpt>
<trkpt lat="46.1423620" lon="10.1348680">
	<ele>1389.60</ele>
	<time>2024-09-06T06:38:37.000Z</time>
</trkpt>
<trkpt lat="46.1423640" lon="10.1348800">
	<ele>1389.80</ele>
	<time>2024-09-06T06:38:38.000Z</time>
</trkpt>
<trkpt lat="46.1423640" lon="10.1348940">
	<ele>1390.00</ele>
	<time>2024-09-06T06:38:39.000Z</time>
</trkpt>
<trkpt lat="46.1423650" lon="10.1349100">
	<ele>1390.00</ele>
	<time>2024-09-06T06:38:40.000Z</time>
</trkpt>
<trkpt lat="46.1423630" lon="10.1349220">
	<ele>1390.20</ele>
	<time>2024-09-06T06:38:41.000Z</time>
</trkpt>
<trkpt lat="46.1423660" lon="10.1349360">
	<ele>1390.40</ele>
	<time>2024-09-06T06:38:42.000Z</time>
</trkpt>
<trkpt lat="46.1423690" lon="10.1349500">
	<ele>1390.60</ele>
	<time>2024-09-06T06:38:43.000Z</time>
</trkpt>
<trkpt lat="46.1423660" lon="10.1349670">
	<ele>1390.60</ele>
	<time>2024-09-06T06:38:44.000Z</time>
</trkpt>
<trkpt lat="46.1423650" lon="10.1349790">
	<ele>1390.80</ele>
	<time>2024-09-06T06:38:45.000Z</time>
</trkpt>
<trkpt lat="46.1423630" lon="10.1349920">
	<ele>1391.00</ele>
	<time>2024-09-06T06:38:46.000Z</time>
</trkpt>
<trkpt lat="46.1423600" lon="10.1350050">
	<ele>1391.20</ele>
	<time>2024-09-06T06:38:47.000Z</time>
</trkpt>
<trkpt lat="46.1423580" lon="10.1350200">
	<ele>1391.40</ele>
	<time>2024-09-06T06:38:48.000Z</time>
</trkpt>
<trkpt lat="46.1423540" lon="10.1350350">
	<ele>1391.40</ele>
	<time>2024-09-06T06:38:49.000Z</time>
</trkpt>
<trkpt lat="46.1423520" lon="10.1350500">
	<ele>1391.80</ele>
	<time>2024-09-06T06:38:50.000Z</time>
</trkpt>
<trkpt lat="46.1423540" lon="10.1350610">
	<ele>1392.00</ele>
	<time>2024-09-06T06:38:51.000Z</time>
</trkpt>
<trkpt lat="46.1423580" lon="10.1350750">
	<ele>1392.00</ele>
	<time>2024-09-06T06:38:52.000Z</time>
</trkpt>
<trkpt lat="46.1423580" lon="10.1350850">
	<ele>1392.20</ele>
	<time>2024-09-06T06:38:53.000Z</time>
</trkpt>
<trkpt lat="46.1423550" lon="10.1350920">
	<ele>1392.40</ele>
	<time>2024-09-06T06:38:54.000Z</time>
</trkpt>
<trkpt lat="46.1423550" lon="10.1350990">
	<ele>1392.60</ele>
	<time>2024-09-06T06:38:55.000Z</time>
</trkpt>
<trkpt lat="46.1423570" lon="10.1351090">
	<ele>1392.80</ele>
	<time>2024-09-06T06:38:56.000Z</time>
</trkpt>
<trkpt lat="46.1423600" lon="10.1351230">
	<ele>1392.80</ele>
	<time>2024-09-06T06:38:57.000Z</time>
</trkpt>
<trkpt lat="46.1423620" lon="10.1351380">
	<ele>1393.20</ele>
	<time>2024-09-06T06:38:58.000Z</time>
</trkpt>
<trkpt lat="46.1423670" lon="10.1351530">
	<ele>1393.20</ele>
	<time>2024-09-06T06:38:59.000Z</time>
</trkpt>
<trkpt lat="46.1423650" lon="10.1351720">
	<ele>1393.40</ele>
	<time>2024-09-06T06:39:00.000Z</time>
</trkpt>
<trkpt lat="46.1423710" lon="10.1351900">
	<ele>1393.60</ele>
	<time>2024-09-06T06:39:01.000Z</time>
</trkpt>
<trkpt lat="46.1423750" lon="10.1352040">
	<ele>1393.60</ele>
	<time>2024-09-06T06:39:02.000Z</time>
</trkpt>
<trkpt lat="46.1423770" lon="10.1352200">
	<ele>1393.80</ele>
	<time>2024-09-06T06:39:03.000Z</time>
</trkpt>
<trkpt lat="46.1423760" lon="10.1352380">
	<ele>1394.00</ele>
	<time>2024-09-06T06:39:04.000Z</time>
</trkpt>
<trkpt lat="46.1423850" lon="10.1352520">
	<ele>1394.20</ele>
	<time>2024-09-06T06:39:05.000Z</time>
</trkpt>
<trkpt lat="46.1423900" lon="10.1352700">
	<ele>1394.60</ele>
	<time>2024-09-06T06:39:06.000Z</time>
</trkpt>
<trkpt lat="46.1423930" lon="10.1352830">
	<ele>1394.80</ele>
	<time>2024-09-06T06:39:07.000Z</time>
</trkpt>
<trkpt lat="46.1423950" lon="10.1352980">
	<ele>1394.80</ele>
	<time>2024-09-06T06:39:08.000Z</time>
</trkpt>
<trkpt lat="46.1423990" lon="10.1353120">
	<ele>1395.00</ele>
	<time>2024-09-06T06:39:09.000Z</time>
</trkpt>
<trkpt lat="46.1424000" lon="10.1353230">
	<ele>1395.20</ele>
	<time>2024-09-06T06:39:10.000Z</time>
</trkpt>
<trkpt lat="46.1424010" lon="10.1353260">
	<ele>1395.40</ele>
	<time>2024-09-06T06:39:11.000Z</time>
</trkpt>
<trkpt lat="46.1423950" lon="10.1353280">
	<ele>1395.60</ele>
	<time>2024-09-06T06:39:12.000Z</time>
</trkpt>
<trkpt lat="46.1423940" lon="10.1353280">
	<ele>1395.60</ele>
	<time>2024-09-06T06:39:13.000Z</time>
</trkpt>
<trkpt lat="46.1423970" lon="10.1353290">
	<ele>1395.60</ele>
	<time>2024-09-06T06:39:14.000Z</time>
</trkpt>
<trkpt lat="46.1424020" lon="10.1353300">
	<ele>1395.60</ele>
	<time>2024-09-06T06:39:15.000Z</time>
</trkpt>
<trkpt lat="46.1424140" lon="10.1353390">
	<ele>1395.60</ele>
	<time>2024-09-06T06:39:16.000Z</time>
</trkpt>
<trkpt lat="46.1424170" lon="10.1353390">
	<ele>1395.60</ele>
	<time>2024-09-06T06:39:17.000Z</time>
</trkpt>
<trkpt lat="46.1424150" lon="10.1353390">
	<ele>1395.80</ele>
	<time>2024-09-06T06:39:18.000Z</time>
</trkpt>
<trkpt lat="46.1424120" lon="10.1353410">
	<ele>1395.80</ele>
	<time>2024-09-06T06:39:19.000Z</time>
</trkpt>
<trkpt lat="46.1424100" lon="10.1353420">
	<ele>1395.80</ele>
	<time>2024-09-06T06:39:20.000Z</time>
</trkpt>
<trkpt lat="46.1424100" lon="10.1353400">
	<ele>1396.00</ele>
	<time>2024-09-06T06:39:21.000Z</time>
</trkpt>
<trkpt lat="46.1424100" lon="10.1353360">
	<ele>1396.20</ele>
	<time>2024-09-06T06:39:22.000Z</time>
</trkpt>
<trkpt lat="46.1424090" lon="10.1353340">
	<ele>1396.20</ele>
	<time>2024-09-06T06:39:23.000Z</time>
</trkpt>
<trkpt lat="46.1424050" lon="10.1353300">
	<ele>1396.20</ele>
	<time>2024-09-06T06:39:24.000Z</time>
</trkpt>
<trkpt lat="46.1424040" lon="10.1353300">
	<ele>1396.00</ele>
	<time>2024-09-06T06:39:25.000Z</time>
</trkpt>
<trkpt lat="46.1424070" lon="10.1353340">
	<ele>1396.00</ele>
	<time>2024-09-06T06:39:26.000Z</time>
</trkpt>
<trkpt lat="46.1424110" lon="10.1353410">
	<ele>1396.00</ele>
	<time>2024-09-06T06:39:27.000Z</time>
</trkpt>
<trkpt lat="46.1424160" lon="10.1353530">
	<ele>1396.00</ele>
	<time>2024-09-06T06:39:28.000Z</time>
</trkpt>
<trkpt lat="46.1424180" lon="10.1353580">
	<ele>1396.00</ele>
	<time>2024-09-06T06:39:29.000Z</time>
</trkpt>
<trkpt lat="46.1424240" lon="10.1353680">
	<ele>1396.00</ele>
	<time>2024-09-06T06:39:30.000Z</time>
</trkpt>
<trkpt lat="46.1424320" lon="10.1353820">
	<ele>1396.00</ele>
	<time>2024-09-06T06:39:31.000Z</time>
</trkpt>
<trkpt lat="46.1424380" lon="10.1353980">
	<ele>1396.20</ele>
	<time>2024-09-06T06:39:32.000Z</time>
</trkpt>
<trkpt lat="46.1424440" lon="10.1354110">
	<ele>1396.40</ele>
	<time>2024-09-06T06:39:33.000Z</time>
</trkpt>
<trkpt lat="46.1424490" lon="10.1354270">
	<ele>1396.40</ele>
	<time>2024-09-06T06:39:34.000Z</time>
</trkpt>
<trkpt lat="46.1424530" lon="10.1354370">
	<ele>1396.80</ele>
	<time>2024-09-06T06:39:35.000Z</time>
</trkpt>
<trkpt lat="46.1424560" lon="10.1354530">
	<ele>1397.00</ele>
	<time>2024-09-06T06:39:36.000Z</time>
</trkpt>
<trkpt lat="46.1424580" lon="10.1354710">
	<ele>1397.20</ele>
	<time>2024-09-06T06:39:37.000Z</time>
</trkpt>
<trkpt lat="46.1424570" lon="10.1354890">
	<ele>1397.20</ele>
	<time>2024-09-06T06:39:38.000Z</time>
</trkpt>
<trkpt lat="46.1424600" lon="10.1355040">
	<ele>1397.40</ele>
	<time>2024-09-06T06:39:39.000Z</time>
</trkpt>
<trkpt lat="46.1424660" lon="10.1355200">
	<ele>1397.40</ele>
	<time>2024-09-06T06:39:40.000Z</time>
</trkpt>
<trkpt lat="46.1424730" lon="10.1355350">
	<ele>1397.60</ele>
	<time>2024-09-06T06:39:41.000Z</time>
</trkpt>
<trkpt lat="46.1424770" lon="10.1355480">
	<ele>1397.60</ele>
	<time>2024-09-06T06:39:42.000Z</time>
</trkpt>
<trkpt lat="46.1424820" lon="10.1355570">
	<ele>1397.80</ele>
	<time>2024-09-06T06:39:43.000Z</time>
</trkpt>
<trkpt lat="46.1424880" lon="10.1355670">
	<ele>1397.80</ele>
	<time>2024-09-06T06:39:44.000Z</time>
</trkpt>
<trkpt lat="46.1424900" lon="10.1355780">
	<ele>1397.80</ele>
	<time>2024-09-06T06:39:45.000Z</time>
</trkpt>
<trkpt lat="46.1424880" lon="10.1355930">
	<ele>1397.80</ele>
	<time>2024-09-06T06:39:46.000Z</time>
</trkpt>
<trkpt lat="46.1424900" lon="10.1356050">
	<ele>1398.00</ele>
	<time>2024-09-06T06:39:47.000Z</time>
</trkpt>
<trkpt lat="46.1424940" lon="10.1356120">
	<ele>1398.20</ele>
	<time>2024-09-06T06:39:48.000Z</time>
</trkpt>
<trkpt lat="46.1424960" lon="10.1356160">
	<ele>1398.20</ele>
	<time>2024-09-06T06:39:49.000Z</time>
</trkpt>
<trkpt lat="46.1425000" lon="10.1356220">
	<ele>1398.40</ele>
	<time>2024-09-06T06:39:50.000Z</time>
</trkpt>
<trkpt lat="46.1425070" lon="10.1356340">
	<ele>1398.40</ele>
	<time>2024-09-06T06:39:51.000Z</time>
</trkpt>
<trkpt lat="46.1425140" lon="10.1356440">
	<ele>1398.60</ele>
	<time>2024-09-06T06:39:52.000Z</time>
</trkpt>
<trkpt lat="46.1425270" lon="10.1356530">
	<ele>1398.80</ele>
	<time>2024-09-06T06:39:53.000Z</time>
</trkpt>
<trkpt lat="46.1425380" lon="10.1356620">
	<ele>1399.00</ele>
	<time>2024-09-06T06:39:54.000Z</time>
</trkpt>
<trkpt lat="46.1425500" lon="10.1356740">
	<ele>1399.00</ele>
	<time>2024-09-06T06:39:55.000Z</time>
</trkpt>
<trkpt lat="46.1425630" lon="10.1356940">
	<ele>1399.20</ele>
	<time>2024-09-06T06:39:56.000Z</time>
</trkpt>
<trkpt lat="46.1425670" lon="10.1357110">
	<ele>1399.20</ele>
	<time>2024-09-06T06:39:57.000Z</time>
</trkpt>
<trkpt lat="46.1425690" lon="10.1357290">
	<ele>1399.40</ele>
	<time>2024-09-06T06:39:58.000Z</time>
</trkpt>
<trkpt lat="46.1425740" lon="10.1357380">
	<ele>1399.40</ele>
	<time>2024-09-06T06:39:59.000Z</time>
</trkpt>
<trkpt lat="46.1425800" lon="10.1357520">
	<ele>1399.60</ele>
	<time>2024-09-06T06:40:00.000Z</time>
</trkpt>
<trkpt lat="46.1425830" lon="10.1357710">
	<ele>1399.60</ele>
	<time>2024-09-06T06:40:01.000Z</time>
</trkpt>
<trkpt lat="46.1425850" lon="10.1357870">
	<ele>1399.60</ele>
	<time>2024-09-06T06:40:02.000Z</time>
</trkpt>
<trkpt lat="46.1425870" lon="10.1358020">
	<ele>1399.80</ele>
	<time>2024-09-06T06:40:03.000Z</time>
</trkpt>
<trkpt lat="46.1425920" lon="10.1358150">
	<ele>1399.80</ele>
	<time>2024-09-06T06:40:04.000Z</time>
</trkpt>
<trkpt lat="46.1425960" lon="10.1358280">
	<ele>1399.80</ele>
	<time>2024-09-06T06:40:05.000Z</time>
</trkpt>
<trkpt lat="46.1425980" lon="10.1358390">
	<ele>1400.00</ele>
	<time>2024-09-06T06:40:06.000Z</time>
</trkpt>
<trkpt lat="46.1426020" lon="10.1358530">
	<ele>1400.00</ele>
	<time>2024-09-06T06:40:07.000Z</time>
</trkpt>
<trkpt lat="46.1426060" lon="10.1358650">
	<ele>1400.20</ele>
	<time>2024-09-06T06:40:08.000Z</time>
</trkpt>
<trkpt lat="46.1426110" lon="10.1358760">
	<ele>1400.40</ele>
	<time>2024-09-06T06:40:09.000Z</time>
</trkpt>
<trkpt lat="46.1426130" lon="10.1358890">
	<ele>1400.40</ele>
	<time>2024-09-06T06:40:10.000Z</time>
</trkpt>
<trkpt lat="46.1426150" lon="10.1358980">
	<ele>1400.60</ele>
	<time>2024-09-06T06:40:11.000Z</time>
</trkpt>
<trkpt lat="46.1426160" lon="10.1359080">
	<ele>1400.80</ele>
	<time>2024-09-06T06:40:12.000Z</time>
</trkpt>
<trkpt lat="46.1426240" lon="10.1359250">
	<ele>1400.80</ele>
	<time>2024-09-06T06:40:13.000Z</time>
</trkpt>
<trkpt lat="46.1426200" lon="10.1359410">
	<ele>1401.00</ele>
	<time>2024-09-06T06:40:14.000Z</time>
</trkpt>
<trkpt lat="46.1426060" lon="10.1359500">
	<ele>1401.20</ele>
	<time>2024-09-06T06:40:15.000Z</time>
</trkpt>
<trkpt lat="46.1426000" lon="10.1359540">
	<ele>1401.40</ele>
	<time>2024-09-06T06:40:16.000Z</time>
</trkpt>
<trkpt lat="46.1425930" lon="10.1359650">
	<ele>1401.60</ele>
	<time>2024-09-06T06:40:17.000Z</time>
</trkpt>
<trkpt lat="46.1425880" lon="10.1359770">
	<ele>1401.80</ele>
	<time>2024-09-06T06:40:18.000Z</time>
</trkpt>
<trkpt lat="46.1425880" lon="10.1359830">
	<ele>1402.20</ele>
	<time>2024-09-06T06:40:19.000Z</time>
</trkpt>
<trkpt lat="46.1425910" lon="10.1359930">
	<ele>1402.20</ele>
	<time>2024-09-06T06:40:20.000Z</time>
</trkpt>
<trkpt lat="46.1425880" lon="10.1360020">
	<ele>1402.40</ele>
	<time>2024-09-06T06:40:21.000Z</time>
</trkpt>
<trkpt lat="46.1425830" lon="10.1360120">
	<ele>1402.60</ele>
	<time>2024-09-06T06:40:22.000Z</time>
</trkpt>
<trkpt lat="46.1425840" lon="10.1360190">
	<ele>1402.80</ele>
	<time>2024-09-06T06:40:23.000Z</time>
</trkpt>
<trkpt lat="46.1425900" lon="10.1360460">
	<ele>1403.00</ele>
	<time>2024-09-06T06:40:24.000Z</time>
</trkpt>
<trkpt lat="46.1425990" lon="10.1360700">
	<ele>1403.00</ele>
	<time>2024-09-06T06:40:25.000Z</time>
</trkpt>
<trkpt lat="46.1426070" lon="10.1360890">
	<ele>1403.20</ele>
	<time>2024-09-06T06:40:26.000Z</time>
</trkpt>
<trkpt lat="46.1425980" lon="10.1361080">
	<ele>1403.60</ele>
	<time>2024-09-06T06:40:27.000Z</time>
</trkpt>
<trkpt lat="46.1425960" lon="10.1361120">
	<ele>1403.60</ele>
	<time>2024-09-06T06:40:28.000Z</time>
</trkpt>
<trkpt lat="46.1425900" lon="10.1361180">
	<ele>1403.80</ele>
	<time>2024-09-06T06:40:29.000Z</time>
</trkpt>
<trkpt lat="46.1425950" lon="10.1361330">
	<ele>1404.20</ele>
	<time>2024-09-06T06:40:30.000Z</time>
</trkpt>
<trkpt lat="46.1426080" lon="10.1361530">
	<ele>1404.20</ele>
	<time>2024-09-06T06:40:31.000Z</time>
</trkpt>
<trkpt lat="46.1426140" lon="10.1361660">
	<ele>1404.40</ele>
	<time>2024-09-06T06:40:32.000Z</time>
</trkpt>
<trkpt lat="46.1426300" lon="10.1361880">
	<ele>1404.60</ele>
	<time>2024-09-06T06:40:33.000Z</time>
</trkpt>
<trkpt lat="46.1426410" lon="10.1362060">
	<ele>1404.80</ele>
	<time>2024-09-06T06:40:34.000Z</time>
</trkpt>
<trkpt lat="46.1426500" lon="10.1362180">
	<ele>1404.80</ele>
	<time>2024-09-06T06:40:35.000Z</time>
</trkpt>
<trkpt lat="46.1426580" lon="10.1362290">
	<ele>1405.20</ele>
	<time>2024-09-06T06:40:36.000Z</time>
</trkpt>
<trkpt lat="46.1426590" lon="10.1362420">
	<ele>1405.40</ele>
	<time>2024-09-06T06:40:37.000Z</time>
</trkpt>
<trkpt lat="46.1426570" lon="10.1362530">
	<ele>1405.60</ele>
	<time>2024-09-06T06:40:38.000Z</time>
</trkpt>
<trkpt lat="46.1426600" lon="10.1362620">
	<ele>1405.80</ele>
	<time>2024-09-06T06:40:39.000Z</time>
</trkpt>
<trkpt lat="46.1426650" lon="10.1362690">
	<ele>1405.80</ele>
	<time>2024-09-06T06:40:40.000Z</time>
</trkpt>
<trkpt lat="46.1426690" lon="10.1362790">
	<ele>1406.20</ele>
	<time>2024-09-06T06:40:41.000Z</time>
</trkpt>
<trkpt lat="46.1426690" lon="10.1362940">
	<ele>1406.40</ele>
	<time>2024-09-06T06:40:42.000Z</time>
</trkpt>
<trkpt lat="46.1426720" lon="10.1363110">
	<ele>1406.40</ele>
	<time>2024-09-06T06:40:43.000Z</time>
</trkpt>
<trkpt lat="46.1426750" lon="10.1363230">
	<ele>1406.60</ele>
	<time>2024-09-06T06:40:44.000Z</time>
</trkpt>
<trkpt lat="46.1426760" lon="10.1363370">
	<ele>1406.80</ele>
	<time>2024-09-06T06:40:45.000Z</time>
</trkpt>
<trkpt lat="46.1426780" lon="10.1363420">
	<ele>1407.00</ele>
	<time>2024-09-06T06:40:46.000Z</time>
</trkpt>
<trkpt lat="46.1426790" lon="10.1363480">
	<ele>1407.20</ele>
	<time>2024-09-06T06:40:47.000Z</time>
</trkpt>
<trkpt lat="46.1426780" lon="10.1363570">
	<ele>1407.40</ele>
	<time>2024-09-06T06:40:48.000Z</time>
</trkpt>
<trkpt lat="46.1426770" lon="10.1363690">
	<ele>1407.60</ele>
	<time>2024-09-06T06:40:49.000Z</time>
</trkpt>
<trkpt lat="46.1426800" lon="10.1363800">
	<ele>1407.80</ele>
	<time>2024-09-06T06:40:50.000Z</time>
</trkpt>
<trkpt lat="46.1426870" lon="10.1363990">
	<ele>1408.00</ele>
	<time>2024-09-06T06:40:51.000Z</time>
</trkpt>
<trkpt lat="46.1426930" lon="10.1364150">
	<ele>1408.20</ele>
	<time>2024-09-06T06:40:52.000Z</time>
</trkpt>
<trkpt lat="46.1427010" lon="10.1364290">
	<ele>1408.40</ele>
	<time>2024-09-06T06:40:53.000Z</time>
</trkpt>
<trkpt lat="46.1427080" lon="10.1364420">
	<ele>1408.60</ele>
	<time>2024-09-06T06:40:54.000Z</time>
</trkpt>
<trkpt lat="46.1427140" lon="10.1364520">
	<ele>1408.80</ele>
	<time>2024-09-06T06:40:55.000Z</time>
</trkpt>
<trkpt lat="46.1427190" lon="10.1364620">
	<ele>1409.00</ele>
	<time>2024-09-06T06:40:56.000Z</time>
</trkpt>
<trkpt lat="46.1427220" lon="10.1364750">
	<ele>1409.20</ele>
	<time>2024-09-06T06:40:57.000Z</time>
</trkpt>
<trkpt lat="46.1427250" lon="10.1364830">
	<ele>1409.60</ele>
	<time>2024-09-06T06:40:58.000Z</time>
</trkpt>
<trkpt lat="46.1427240" lon="10.1364990">
	<ele>1409.80</ele>
	<time>2024-09-06T06:40:59.000Z</time>
</trkpt>
<trkpt lat="46.1427240" lon="10.1365130">
	<ele>1410.00</ele>
	<time>2024-09-06T06:41:00.000Z</time>
</trkpt>
<trkpt lat="46.1427260" lon="10.1365230">
	<ele>1410.20</ele>
	<time>2024-09-06T06:41:01.000Z</time>
</trkpt>
<trkpt lat="46.1427280" lon="10.1365350">
	<ele>1410.20</ele>
	<time>2024-09-06T06:41:02.000Z</time>
</trkpt>
<trkpt lat="46.1427260" lon="10.1365440">
	<ele>1410.40</ele>
	<time>2024-09-06T06:41:03.000Z</time>
</trkpt>
<trkpt lat="46.1427260" lon="10.1365580">
	<ele>1410.60</ele>
	<time>2024-09-06T06:41:04.000Z</time>
</trkpt>
<trkpt lat="46.1427260" lon="10.1365720">
	<ele>1410.80</ele>
	<time>2024-09-06T06:41:05.000Z</time>
</trkpt>
<trkpt lat="46.1427270" lon="10.1365830">
	<ele>1410.80</ele>
	<time>2024-09-06T06:41:06.000Z</time>
</trkpt>
<trkpt lat="46.1427280" lon="10.1365970">
	<ele>1411.00</ele>
	<time>2024-09-06T06:41:07.000Z</time>
</trkpt>
<trkpt lat="46.1427310" lon="10.1366110">
	<ele>1411.20</ele>
	<time>2024-09-06T06:41:08.000Z</time>
</trkpt>
<trkpt lat="46.1427290" lon="10.1366240">
	<ele>1411.40</ele>
	<time>2024-09-06T06:41:09.000Z</time>
</trkpt>
<trkpt lat="46.1427240" lon="10.1366370">
	<ele>1411.60</ele>
	<time>2024-09-06T06:41:10.000Z</time>
</trkpt>
<trkpt lat="46.1427230" lon="10.1366480">
	<ele>1411.80</ele>
	<time>2024-09-06T06:41:11.000Z</time>
</trkpt>
<trkpt lat="46.1427280" lon="10.1366580">
	<ele>1411.80</ele>
	<time>2024-09-06T06:41:12.000Z</time>
</trkpt>
<trkpt lat="46.1427340" lon="10.1366750">
	<ele>1412.00</ele>
	<time>2024-09-06T06:41:13.000Z</time>
</trkpt>
<trkpt lat="46.1427400" lon="10.1366950">
	<ele>1412.20</ele>
	<time>2024-09-06T06:41:14.000Z</time>
</trkpt>
<trkpt lat="46.1427420" lon="10.1367080">
	<ele>1412.20</ele>
	<time>2024-09-06T06:41:15.000Z</time>
</trkpt>
<trkpt lat="46.1427410" lon="10.1367160">
	<ele>1412.40</ele>
	<time>2024-09-06T06:41:16.000Z</time>
</trkpt>
<trkpt lat="46.1427400" lon="10.1367340">
	<ele>1412.60</ele>
	<time>2024-09-06T06:41:17.000Z</time>
</trkpt>
<trkpt lat="46.1427380" lon="10.1367480">
	<ele>1412.80</ele>
	<time>2024-09-06T06:41:18.000Z</time>
</trkpt>
<trkpt lat="46.1427400" lon="10.1367630">
	<ele>1412.80</ele>
	<time>2024-09-06T06:41:19.000Z</time>
</trkpt>
<trkpt lat="46.1427470" lon="10.1367760">
	<ele>1413.00</ele>
	<time>2024-09-06T06:41:20.000Z</time>
</trkpt>
<trkpt lat="46.1427530" lon="10.1367870">
	<ele>1413.20</ele>
	<time>2024-09-06T06:41:21.000Z</time>
</trkpt>
<trkpt lat="46.1427580" lon="10.1367990">
	<ele>1413.60</ele>
	<time>2024-09-06T06:41:22.000Z</time>
</trkpt>
<trkpt lat="46.1427610" lon="10.1368140">
	<ele>1413.80</ele>
	<time>2024-09-06T06:41:23.000Z</time>
</trkpt>
<trkpt lat="46.1427620" lon="10.1368260">
	<ele>1414.00</ele>
	<time>2024-09-06T06:41:24.000Z</time>
</trkpt>
<trkpt lat="46.1427640" lon="10.1368330">
	<ele>1414.20</ele>
	<time>2024-09-06T06:41:25.000Z</time>
</trkpt>
<trkpt lat="46.1427680" lon="10.1368410">
	<ele>1414.40</ele>
	<time>2024-09-06T06:41:26.000Z</time>
</trkpt>
<trkpt lat="46.1427700" lon="10.1368520">
	<ele>1414.40</ele>
	<time>2024-09-06T06:41:27.000Z</time>
</trkpt>
<trkpt lat="46.1427770" lon="10.1368670">
	<ele>1414.60</ele>
	<time>2024-09-06T06:41:28.000Z</time>
</trkpt>
<trkpt lat="46.1427800" lon="10.1368860">
	<ele>1414.80</ele>
	<time>2024-09-06T06:41:29.000Z</time>
</trkpt>
<trkpt lat="46.1427780" lon="10.1368980">
	<ele>1414.80</ele>
	<time>2024-09-06T06:41:30.000Z</time>
</trkpt>
<trkpt lat="46.1427710" lon="10.1369050">
	<ele>1415.00</ele>
	<time>2024-09-06T06:41:31.000Z</time>
</trkpt>
<trkpt lat="46.1427680" lon="10.1369140">
	<ele>1415.00</ele>
	<time>2024-09-06T06:41:32.000Z</time>
</trkpt>
<trkpt lat="46.1427700" lon="10.1369230">
	<ele>1415.20</ele>
	<time>2024-09-06T06:41:33.000Z</time>
</trkpt>
<trkpt lat="46.1427740" lon="10.1369330">
	<ele>1415.40</ele>
	<time>2024-09-06T06:41:34.000Z</time>
</trkpt>
<trkpt lat="46.1427810" lon="10.1369430">
	<ele>1415.40</ele>
	<time>2024-09-06T06:41:35.000Z</time>
</trkpt>
<trkpt lat="46.1427810" lon="10.1369580">
	<ele>1415.60</ele>
	<time>2024-09-06T06:41:36.000Z</time>
</trkpt>
<trkpt lat="46.1427850" lon="10.1369780">
	<ele>1415.60</ele>
	<time>2024-09-06T06:41:37.000Z</time>
</trkpt>
<trkpt lat="46.1427870" lon="10.1369970">
	<ele>1415.80</ele>
	<time>2024-09-06T06:41:38.000Z</time>
</trkpt>
<trkpt lat="46.1427910" lon="10.1370090">
	<ele>1416.00</ele>
	<time>2024-09-06T06:41:39.000Z</time>
</trkpt>
<trkpt lat="46.1427930" lon="10.1370130">
	<ele>1416.20</ele>
	<time>2024-09-06T06:41:40.000Z</time>
</trkpt>
<trkpt lat="46.1427920" lon="10.1370270">
	<ele>1416.40</ele>
	<time>2024-09-06T06:41:41.000Z</time>
</trkpt>
<trkpt lat="46.1427850" lon="10.1370450">
	<ele>1416.60</ele>
	<time>2024-09-06T06:41:42.000Z</time>
</trkpt>
<trkpt lat="46.1427780" lon="10.1370600">
	<ele>1416.60</ele>
	<time>2024-09-06T06:41:43.000Z</time>
</trkpt>
<trkpt lat="46.1427810" lon="10.1370660">
	<ele>1416.80</ele>
	<time>2024-09-06T06:41:44.000Z</time>
</trkpt>
<trkpt lat="46.1427820" lon="10.1370700">
	<ele>1417.00</ele>
	<time>2024-09-06T06:41:45.000Z</time>
</trkpt>
<trkpt lat="46.1427840" lon="10.1370740">
	<ele>1417.00</ele>
	<time>2024-09-06T06:41:46.000Z</time>
</trkpt>
<trkpt lat="46.1427850" lon="10.1370760">
	<ele>1417.00</ele>
	<time>2024-09-06T06:41:47.000Z</time>
</trkpt>
<trkpt lat="46.1427840" lon="10.1370760">
	<ele>1417.00</ele>
	<time>2024-09-06T06:41:48.000Z</time>
</trkpt>
<trkpt lat="46.1427830" lon="10.1370750">
	<ele>1417.00</ele>
	<time>2024-09-06T06:41:49.000Z</time>
</trkpt>
<trkpt lat="46.1427840" lon="10.1370750">
	<ele>1417.20</ele>
	<time>2024-09-06T06:41:50.000Z</time>
</trkpt>
<trkpt lat="46.1427850" lon="10.1370740">
	<ele>1417.20</ele>
	<time>2024-09-06T06:41:51.000Z</time>
</trkpt>
<trkpt lat="46.1427840" lon="10.1370720">
	<ele>1417.20</ele>
	<time>2024-09-06T06:41:52.000Z</time>
</trkpt>
<trkpt lat="46.1427820" lon="10.1370700">
	<ele>1417.20</ele>
	<time>2024-09-06T06:41:53.000Z</time>
</trkpt>
<trkpt lat="46.1427820" lon="10.1370720">
	<ele>1417.20</ele>
	<time>2024-09-06T06:41:54.000Z</time>
</trkpt>
<trkpt lat="46.1427820" lon="10.1370760">
	<ele>1417.20</ele>
	<time>2024-09-06T06:41:55.000Z</time>
</trkpt>
<trkpt lat="46.1427820" lon="10.1370780">
	<ele>1417.20</ele>
	<time>2024-09-06T06:41:56.000Z</time>
</trkpt>
<trkpt lat="46.1427820" lon="10.1370800">
	<ele>1417.20</ele>
	<time>2024-09-06T06:41:57.000Z</time>
</trkpt>
<trkpt lat="46.1427830" lon="10.1370810">
	<ele>1417.40</ele>
	<time>2024-09-06T06:41:58.000Z</time>
</trkpt>
<trkpt lat="46.1427840" lon="10.1370820">
	<ele>1417.40</ele>
	<time>2024-09-06T06:41:59.000Z</time>
</trkpt>
<trkpt lat="46.1427840" lon="10.1370820">
	<ele>1417.40</ele>
	<time>2024-09-06T06:42:00.000Z</time>
</trkpt>
<trkpt lat="46.1427840" lon="10.1370820">
	<ele>1417.40</ele>
	<time>2024-09-06T06:42:01.000Z</time>
</trkpt>
<trkpt lat="46.1427840" lon="10.1370820">
	<ele>1417.40</ele>
	<time>2024-09-06T06:42:02.000Z</time>
</trkpt>
<trkpt lat="46.1427840" lon="10.1370820">
	<ele>1417.60</ele>
	<time>2024-09-06T06:42:03.000Z</time>
</trkpt>
<trkpt lat="46.1427840" lon="10.1370820">
	<ele>1417.60</ele>
	<time>2024-09-06T06:42:04.000Z</time>
</trkpt>
<trkpt lat="46.1427840" lon="10.1370820">
	<ele>1417.60</ele>
	<time>2024-09-06T06:42:05.000Z</time>
</trkpt>
<trkpt lat="46.1427840" lon="10.1370820">
	<ele>1417.80</ele>
	<time>2024-09-06T06:42:06.000Z</time>
</trkpt>
<trkpt lat="46.1427810" lon="10.1370860">
	<ele>1417.80</ele>
	<time>2024-09-06T06:42:07.000Z</time>
</trkpt>
<trkpt lat="46.1427660" lon="10.1370830">
	<ele>1418.00</ele>
	<time>2024-09-06T06:42:08.000Z</time>
</trkpt>
<trkpt lat="46.1427580" lon="10.1370810">
	<ele>1418.00</ele>
	<time>2024-09-06T06:42:09.000Z</time>
</trkpt>
<trkpt lat="46.1427500" lon="10.1370810">
	<ele>1418.20</ele>
	<time>2024-09-06T06:42:10.000Z</time>
</trkpt>
<trkpt lat="46.1427390" lon="10.1370830">
	<ele>1418.40</ele>
	<time>2024-09-06T06:42:11.000Z</time>
</trkpt>
<trkpt lat="46.1427290" lon="10.1370830">
	<ele>1418.60</ele>
	<time>2024-09-06T06:42:12.000Z</time>
</trkpt>
<trkpt lat="46.1427180" lon="10.1370860">
	<ele>1418.80</ele>
	<time>2024-09-06T06:42:13.000Z</time>
</trkpt>
<trkpt lat="46.1427090" lon="10.1370910">
	<ele>1419.00</ele>
	<time>2024-09-06T06:42:14.000Z</time>
</trkpt>
<trkpt lat="46.1426970" lon="10.1370910">
	<ele>1419.20</ele>
	<time>2024-09-06T06:42:15.000Z</time>
</trkpt>
<trkpt lat="46.1426870" lon="10.1371000">
	<ele>1419.40</ele>
	<time>2024-09-06T06:42:16.000Z</time>
</trkpt>
<trkpt lat="46.1426810" lon="10.1371010">
	<ele>1419.60</ele>
	<time>2024-09-06T06:42:17.000Z</time>
</trkpt>
<trkpt lat="46.1426750" lon="10.1371030">
	<ele>1419.80</ele>
	<time>2024-09-06T06:42:18.000Z</time>
</trkpt>
<trkpt lat="46.1426720" lon="10.1371040">
	<ele>1419.80</ele>
	<time>2024-09-06T06:42:19.000Z</time>
</trkpt>
<trkpt lat="46.1426700" lon="10.1371040">
	<ele>1420.20</ele>
	<time>2024-09-06T06:42:20.000Z</time>
</trkpt>
<trkpt lat="46.1426690" lon="10.1371050">
	<ele>1420.40</ele>
	<time>2024-09-06T06:42:21.000Z</time>
</trkpt>
<trkpt lat="46.1426660" lon="10.1371060">
	<ele>1420.60</ele>
	<time>2024-09-06T06:42:22.000Z</time>
</trkpt>
<trkpt lat="46.1426630" lon="10.1371080">
	<ele>1420.80</ele>
	<time>2024-09-06T06:42:23.000Z</time>
</trkpt>
<trkpt lat="46.1426630" lon="10.1371100">
	<ele>1420.80</ele>
	<time>2024-09-06T06:42:24.000Z</time>
</trkpt>
<trkpt lat="46.1426690" lon="10.1371040">
	<ele>1421.20</ele>
	<time>2024-09-06T06:42:25.000Z</time>
</trkpt>
<trkpt lat="46.1426690" lon="10.1370890">
	<ele>1421.40</ele>
	<time>2024-09-06T06:42:26.000Z</time>
</trkpt>
<trkpt lat="46.1426710" lon="10.1370850">
	<ele>1421.60</ele>
	<time>2024-09-06T06:42:27.000Z</time>
</trkpt>
<trkpt lat="46.1426620" lon="10.1370760">
	<ele>1421.80</ele>
	<time>2024-09-06T06:42:28.000Z</time>
</trkpt>
<trkpt lat="46.1426590" lon="10.1370760">
	<ele>1421.80</ele>
	<time>2024-09-06T06:42:29.000Z</time>
</trkpt>
<trkpt lat="46.1426500" lon="10.1370680">
	<ele>1422.20</ele>
	<time>2024-09-06T06:42:30.000Z</time>
</trkpt>
<trkpt lat="46.1426400" lon="10.1370610">
	<ele>1422.40</ele>
	<time>2024-09-06T06:42:31.000Z</time>
</trkpt>
<trkpt lat="46.1426370" lon="10.1370590">
	<ele>1422.60</ele>
	<time>2024-09-06T06:42:32.000Z</time>
</trkpt>
<trkpt lat="46.1426290" lon="10.1370550">
	<ele>1422.80</ele>
	<time>2024-09-06T06:42:33.000Z</time>
</trkpt>
<trkpt lat="46.1426180" lon="10.1370480">
	<ele>1423.00</ele>
	<time>2024-09-06T06:42:34.000Z</time>
</trkpt>
<trkpt lat="46.1426070" lon="10.1370420">
	<ele>1423.20</ele>
	<time>2024-09-06T06:42:35.000Z</time>
</trkpt>
<trkpt lat="46.1425980" lon="10.1370380">
	<ele>1423.60</ele>
	<time>2024-09-06T06:42:36.000Z</time>
</trkpt>
<trkpt lat="46.1425910" lon="10.1370300">
	<ele>1423.80</ele>
	<time>2024-09-06T06:42:37.000Z</time>
</trkpt>
<trkpt lat="46.1425840" lon="10.1370190">
	<ele>1424.00</ele>
	<time>2024-09-06T06:42:38.000Z</time>
</trkpt>
<trkpt lat="46.1425790" lon="10.1370150">
	<ele>1424.20</ele>
	<time>2024-09-06T06:42:39.000Z</time>
</trkpt>
<trkpt lat="46.1425770" lon="10.1370120">
	<ele>1424.40</ele>
	<time>2024-09-06T06:42:40.000Z</time>
</trkpt>
<trkpt lat="46.1425730" lon="10.1370050">
	<ele>1424.60</ele>
	<time>2024-09-06T06:42:41.000Z</time>
</trkpt>
<trkpt lat="46.1425740" lon="10.1370030">
	<ele>1424.80</ele>
	<time>2024-09-06T06:42:42.000Z</time>
</trkpt>
<trkpt lat="46.1425730" lon="10.1369970">
	<ele>1425.00</ele>
	<time>2024-09-06T06:42:43.000Z</time>
</trkpt>
<trkpt lat="46.1425650" lon="10.1369890">
	<ele>1425.20</ele>
	<time>2024-09-06T06:42:44.000Z</time>
</trkpt>
<trkpt lat="46.1425570" lon="10.1369850">
	<ele>1425.40</ele>
	<time>2024-09-06T06:42:45.000Z</time>
</trkpt>
<trkpt lat="46.1425530" lon="10.1369830">
	<ele>1425.60</ele>
	<time>2024-09-06T06:42:46.000Z</time>
</trkpt>
<trkpt lat="46.1425460" lon="10.1369740">
	<ele>1425.80</ele>
	<time>2024-09-06T06:42:47.000Z</time>
</trkpt>
<trkpt lat="46.1425370" lon="10.1369580">
	<ele>1426.00</ele>
	<time>2024-09-06T06:42:48.000Z</time>
</trkpt>
<trkpt lat="46.1425310" lon="10.1369450">
	<ele>1426.20</ele>
	<time>2024-09-06T06:42:49.000Z</time>
</trkpt>
<trkpt lat="46.1425260" lon="10.1369330">
	<ele>1426.40</ele>
	<time>2024-09-06T06:42:50.000Z</time>
</trkpt>
<trkpt lat="46.1425160" lon="10.1369240">
	<ele>1426.60</ele>
	<time>2024-09-06T06:42:51.000Z</time>
</trkpt>
<trkpt lat="46.1425070" lon="10.1369180">
	<ele>1426.60</ele>
	<time>2024-09-06T06:42:52.000Z</time>
</trkpt>
<trkpt lat="46.1424920" lon="10.1369060">
	<ele>1426.80</ele>
	<time>2024-09-06T06:42:53.000Z</time>
</trkpt>
<trkpt lat="46.1424810" lon="10.1368960">
	<ele>1427.00</ele>
	<time>2024-09-06T06:42:54.000Z</time>
</trkpt>
<trkpt lat="46.1424710" lon="10.1368790">
	<ele>1427.00</ele>
	<time>2024-09-06T06:42:55.000Z</time>
</trkpt>
<trkpt lat="46.1424650" lon="10.1368620">
	<ele>1427.00</ele>
	<time>2024-09-06T06:42:56.000Z</time>
</trkpt>
<trkpt lat="46.1424620" lon="10.1368560">
	<ele>1427.20</ele>
	<time>2024-09-06T06:42:57.000Z</time>
</trkpt>
<trkpt lat="46.1424620" lon="10.1368510">
	<ele>1427.40</ele>
	<time>2024-09-06T06:42:58.000Z</time>
</trkpt>
<trkpt lat="46.1424620" lon="10.1368390">
	<ele>1427.40</ele>
	<time>2024-09-06T06:42:59.000Z</time>
</trkpt>
<trkpt lat="46.1424650" lon="10.1368190">
	<ele>1427.60</ele>
	<time>2024-09-06T06:43:00.000Z</time>
</trkpt>
<trkpt lat="46.1424630" lon="10.1367990">
	<ele>1427.60</ele>
	<time>2024-09-06T06:43:01.000Z</time>
</trkpt>
<trkpt lat="46.1424620" lon="10.1367840">
	<ele>1427.80</ele>
	<time>2024-09-06T06:43:02.000Z</time>
</trkpt>
<trkpt lat="46.1424630" lon="10.1367690">
	<ele>1427.80</ele>
	<time>2024-09-06T06:43:03.000Z</time>
</trkpt>
<trkpt lat="46.1424630" lon="10.1367510">
	<ele>1428.00</ele>
	<time>2024-09-06T06:43:04.000Z</time>
</trkpt>
<trkpt lat="46.1424570" lon="10.1367350">
	<ele>1428.00</ele>
	<time>2024-09-06T06:43:05.000Z</time>
</trkpt>
<trkpt lat="46.1424550" lon="10.1367320">
	<ele>1428.20</ele>
	<time>2024-09-06T06:43:06.000Z</time>
</trkpt>
<trkpt lat="46.1424500" lon="10.1367310">
	<ele>1428.40</ele>
	<time>2024-09-06T06:43:07.000Z</time>
</trkpt>
<trkpt lat="46.1424470" lon="10.1367330">
	<ele>1428.40</ele>
	<time>2024-09-06T06:43:08.000Z</time>
</trkpt>
<trkpt lat="46.1424470" lon="10.1367360">
	<ele>1428.40</ele>
	<time>2024-09-06T06:43:09.000Z</time>
</trkpt>
<trkpt lat="46.1424490" lon="10.1367390">
	<ele>1428.40</ele>
	<time>2024-09-06T06:43:10.000Z</time>
</trkpt>
<trkpt lat="46.1424400" lon="10.1367290">
	<ele>1428.40</ele>
	<time>2024-09-06T06:43:11.000Z</time>
</trkpt>
<trkpt lat="46.1424320" lon="10.1367270">
	<ele>1428.40</ele>
	<time>2024-09-06T06:43:12.000Z</time>
</trkpt>
<trkpt lat="46.1424350" lon="10.1367290">
	<ele>1428.40</ele>
	<time>2024-09-06T06:43:13.000Z</time>
</trkpt>
<trkpt lat="46.1424370" lon="10.1367300">
	<ele>1428.40</ele>
	<time>2024-09-06T06:43:14.000Z</time>
</trkpt>
<trkpt lat="46.1424260" lon="10.1367200">
	<ele>1428.60</ele>
	<time>2024-09-06T06:43:15.000Z</time>
</trkpt>
<trkpt lat="46.1424230" lon="10.1367200">
	<ele>1428.60</ele>
	<time>2024-09-06T06:43:16.000Z</time>
</trkpt>
<trkpt lat="46.1424190" lon="10.1367200">
	<ele>1428.60</ele>
	<time>2024-09-06T06:43:17.000Z</time>
</trkpt>
<trkpt lat="46.1424170" lon="10.1367210">
	<ele>1428.60</ele>
	<time>2024-09-06T06:43:18.000Z</time>
</trkpt>
<trkpt lat="46.1424140" lon="10.1367150">
	<ele>1428.60</ele>
	<time>2024-09-06T06:43:19.000Z</time>
</trkpt>
<trkpt lat="46.1424120" lon="10.1367170">
	<ele>1428.60</ele>
	<time>2024-09-06T06:43:20.000Z</time>
</trkpt>
<trkpt lat="46.1424050" lon="10.1367100">
	<ele>1428.80</ele>
	<time>2024-09-06T06:43:21.000Z</time>
</trkpt>
<trkpt lat="46.1423950" lon="10.1366990">
	<ele>1429.00</ele>
	<time>2024-09-06T06:43:22.000Z</time>
</trkpt>
<trkpt lat="46.1423860" lon="10.1366900">
	<ele>1429.00</ele>
	<time>2024-09-06T06:43:23.000Z</time>
</trkpt>
<trkpt lat="46.1423810" lon="10.1366880">
	<ele>1429.20</ele>
	<time>2024-09-06T06:43:24.000Z</time>
</trkpt>
<trkpt lat="46.1423780" lon="10.1366890">
	<ele>1429.40</ele>
	<time>2024-09-06T06:43:25.000Z</time>
</trkpt>
<trkpt lat="46.1423710" lon="10.1366820">
	<ele>1429.40</ele>
	<time>2024-09-06T06:43:26.000Z</time>
</trkpt>
<trkpt lat="46.1423600" lon="10.1366680">
	<ele>1429.60</ele>
	<time>2024-09-06T06:43:27.000Z</time>
</trkpt>
<trkpt lat="46.1423500" lon="10.1366530">
	<ele>1429.80</ele>
	<time>2024-09-06T06:43:28.000Z</time>
</trkpt>
<trkpt lat="46.1423400" lon="10.1366330">
	<ele>1430.00</ele>
	<time>2024-09-06T06:43:29.000Z</time>
</trkpt>
<trkpt lat="46.1423280" lon="10.1366160">
	<ele>1430.60</ele>
	<time>2024-09-06T06:43:30.000Z</time>
</trkpt>
<trkpt lat="46.1423200" lon="10.1366030">
	<ele>1431.00</ele>
	<time>2024-09-06T06:43:31.000Z</time>
</trkpt>
<trkpt lat="46.1423120" lon="10.1365860">
	<ele>1431.20</ele>
	<time>2024-09-06T06:43:32.000Z</time>
</trkpt>
<trkpt lat="46.1423070" lon="10.1365840">
	<ele>1431.40</ele>
	<time>2024-09-06T06:43:33.000Z</time>
</trkpt>
<trkpt lat="46.1423020" lon="10.1365710">
	<ele>1431.40</ele>
	<time>2024-09-06T06:43:34.000Z</time>
</trkpt>
<trkpt lat="46.1422940" lon="10.1365600">
	<ele>1431.60</ele>
	<time>2024-09-06T06:43:35.000Z</time>
</trkpt>
<trkpt lat="46.1422840" lon="10.1365470">
	<ele>1431.60</ele>
	<time>2024-09-06T06:43:36.000Z</time>
</trkpt>
<trkpt lat="46.1422770" lon="10.1365330">
	<ele>1431.80</ele>
	<time>2024-09-06T06:43:37.000Z</time>
</trkpt>
<trkpt lat="46.1422670" lon="10.1365210">
	<ele>1431.80</ele>
	<time>2024-09-06T06:43:38.000Z</time>
</trkpt>
<trkpt lat="46.1422520" lon="10.1365110">
	<ele>1431.80</ele>
	<time>2024-09-06T06:43:39.000Z</time>
</trkpt>
<trkpt lat="46.1422380" lon="10.1365010">
	<ele>1432.00</ele>
	<time>2024-09-06T06:43:40.000Z</time>
</trkpt>
<trkpt lat="46.1422260" lon="10.1364910">
	<ele>1432.00</ele>
	<time>2024-09-06T06:43:41.000Z</time>
</trkpt>
<trkpt lat="46.1422150" lon="10.1364830">
	<ele>1432.20</ele>
	<time>2024-09-06T06:43:42.000Z</time>
</trkpt>
<trkpt lat="46.1422130" lon="10.1364800">
	<ele>1432.40</ele>
	<time>2024-09-06T06:43:43.000Z</time>
</trkpt>
<trkpt lat="46.1422140" lon="10.1364710">
	<ele>1432.60</ele>
	<time>2024-09-06T06:43:44.000Z</time>
</trkpt>
<trkpt lat="46.1421940" lon="10.1364510">
	<ele>1432.80</ele>
	<time>2024-09-06T06:43:45.000Z</time>
</trkpt>
<trkpt lat="46.1421760" lon="10.1364320">
	<ele>1432.80</ele>
	<time>2024-09-06T06:43:46.000Z</time>
</trkpt>
<trkpt lat="46.1421600" lon="10.1364200">
	<ele>1433.00</ele>
	<time>2024-09-06T06:43:47.000Z</time>
</trkpt>
<trkpt lat="46.1421540" lon="10.1364130">
	<ele>1433.00</ele>
	<time>2024-09-06T06:43:48.000Z</time>
</trkpt>
<trkpt lat="46.1421420" lon="10.1364050">
	<ele>1433.00</ele>
	<time>2024-09-06T06:43:49.000Z</time>
</trkpt>
<trkpt lat="46.1421280" lon="10.1363920">
	<ele>1433.00</ele>
	<time>2024-09-06T06:43:50.000Z</time>
</trkpt>
<trkpt lat="46.1421150" lon="10.1363770">
	<ele>1433.20</ele>
	<time>2024-09-06T06:43:51.000Z</time>
</trkpt>
<trkpt lat="46.1421050" lon="10.1363620">
	<ele>1433.20</ele>
	<time>2024-09-06T06:43:52.000Z</time>
</trkpt>
<trkpt lat="46.1420990" lon="10.1363480">
	<ele>1433.40</ele>
	<time>2024-09-06T06:43:53.000Z</time>
</trkpt>
<trkpt lat="46.1420920" lon="10.1363360">
	<ele>1433.40</ele>
	<time>2024-09-06T06:43:54.000Z</time>
</trkpt>
<trkpt lat="46.1420830" lon="10.1363230">
	<ele>1433.60</ele>
	<time>2024-09-06T06:43:55.000Z</time>
</trkpt>
<trkpt lat="46.1420720" lon="10.1363080">
	<ele>1433.60</ele>
	<time>2024-09-06T06:43:56.000Z</time>
</trkpt>
<trkpt lat="46.1420590" lon="10.1362920">
	<ele>1433.60</ele>
	<time>2024-09-06T06:43:57.000Z</time>
</trkpt>
<trkpt lat="46.1420480" lon="10.1362760">
	<ele>1433.60</ele>
	<time>2024-09-06T06:43:58.000Z</time>
</trkpt>
<trkpt lat="46.1420380" lon="10.1362610">
	<ele>1433.80</ele>
	<time>2024-09-06T06:43:59.000Z</time>
</trkpt>
<trkpt lat="46.1420270" lon="10.1362500">
	<ele>1433.80</ele>
	<time>2024-09-06T06:44:00.000Z</time>
</trkpt>
<trkpt lat="46.1420130" lon="10.1362380">
	<ele>1433.80</ele>
	<time>2024-09-06T06:44:01.000Z</time>
</trkpt>
<trkpt lat="46.1419980" lon="10.1362270">
	<ele>1433.80</ele>
	<time>2024-09-06T06:44:02.000Z</time>
</trkpt>
<trkpt lat="46.1419810" lon="10.1362200">
	<ele>1433.80</ele>
	<time>2024-09-06T06:44:03.000Z</time>
</trkpt>
<trkpt lat="46.1419700" lon="10.1362210">
	<ele>1434.00</ele>
	<time>2024-09-06T06:44:04.000Z</time>
</trkpt>
<trkpt lat="46.1419620" lon="10.1362260">
	<ele>1434.00</ele>
	<time>2024-09-06T06:44:05.000Z</time>
</trkpt>
<trkpt lat="46.1419490" lon="10.1362310">
	<ele>1434.00</ele>
	<time>2024-09-06T06:44:06.000Z</time>
</trkpt>
<trkpt lat="46.1419350" lon="10.1362320">
	<ele>1434.20</ele>
	<time>2024-09-06T06:44:07.000Z</time>
</trkpt>
<trkpt lat="46.1419200" lon="10.1362310">
	<ele>1434.20</ele>
	<time>2024-09-06T06:44:08.000Z</time>
</trkpt>
<trkpt lat="46.1419090" lon="10.1362340">
	<ele>1434.20</ele>
	<time>2024-09-06T06:44:09.000Z</time>
</trkpt>
<trkpt lat="46.1419000" lon="10.1362380">
	<ele>1434.40</ele>
	<time>2024-09-06T06:44:10.000Z</time>
</trkpt>
<trkpt lat="46.1418990" lon="10.1362480">
	<ele>1434.60</ele>
	<time>2024-09-06T06:44:11.000Z</time>
</trkpt>
<trkpt lat="46.1418970" lon="10.1362590">
	<ele>1434.80</ele>
	<time>2024-09-06T06:44:12.000Z</time>
</trkpt>
<trkpt lat="46.1419020" lon="10.1362720">
	<ele>1435.00</ele>
	<time>2024-09-06T06:44:13.000Z</time>
</trkpt>
<trkpt lat="46.1419050" lon="10.1362880">
	<ele>1435.20</ele>
	<time>2024-09-06T06:44:14.000Z</time>
</trkpt>
<trkpt lat="46.1419140" lon="10.1363030">
	<ele>1435.40</ele>
	<time>2024-09-06T06:44:15.000Z</time>
</trkpt>
<trkpt lat="46.1419260" lon="10.1363150">
	<ele>1435.60</ele>
	<time>2024-09-06T06:44:16.000Z</time>
</trkpt>
<trkpt lat="46.1419360" lon="10.1363260">
	<ele>1435.80</ele>
	<time>2024-09-06T06:44:17.000Z</time>
</trkpt>
<trkpt lat="46.1419450" lon="10.1363360">
	<ele>1435.80</ele>
	<time>2024-09-06T06:44:18.000Z</time>
</trkpt>
<trkpt lat="46.1419460" lon="10.1363450">
	<ele>1436.00</ele>
	<time>2024-09-06T06:44:19.000Z</time>
</trkpt>
<trkpt lat="46.1419480" lon="10.1363540">
	<ele>1436.20</ele>
	<time>2024-09-06T06:44:20.000Z</time>
</trkpt>
<trkpt lat="46.1419490" lon="10.1363650">
	<ele>1436.60</ele>
	<time>2024-09-06T06:44:21.000Z</time>
</trkpt>
<trkpt lat="46.1419530" lon="10.1363770">
	<ele>1436.80</ele>
	<time>2024-09-06T06:44:22.000Z</time>
</trkpt>
<trkpt lat="46.1419530" lon="10.1363880">
	<ele>1437.00</ele>
	<time>2024-09-06T06:44:23.000Z</time>
</trkpt>
<trkpt lat="46.1419470" lon="10.1364000">
	<ele>1437.00</ele>
	<time>2024-09-06T06:44:24.000Z</time>
</trkpt>
<trkpt lat="46.1419460" lon="10.1364100">
	<ele>1437.40</ele>
	<time>2024-09-06T06:44:25.000Z</time>
</trkpt>
<trkpt lat="46.1419450" lon="10.1364210">
	<ele>1437.60</ele>
	<time>2024-09-06T06:44:26.000Z</time>
</trkpt>
<trkpt lat="46.1419460" lon="10.1364320">
	<ele>1437.80</ele>
	<time>2024-09-06T06:44:27.000Z</time>
</trkpt>
<trkpt lat="46.1419480" lon="10.1364460">
	<ele>1438.00</ele>
	<time>2024-09-06T06:44:28.000Z</time>
</trkpt>
<trkpt lat="46.1419430" lon="10.1364590">
	<ele>1438.00</ele>
	<time>2024-09-06T06:44:29.000Z</time>
</trkpt>
<trkpt lat="46.1419380" lon="10.1364700">
	<ele>1438.20</ele>
	<time>2024-09-06T06:44:30.000Z</time>
</trkpt>
<trkpt lat="46.1419360" lon="10.1364780">
	<ele>1438.20</ele>
	<time>2024-09-06T06:44:31.000Z</time>
</trkpt>
<trkpt lat="46.1419380" lon="10.1364920">
	<ele>1438.40</ele>
	<time>2024-09-06T06:44:32.000Z</time>
</trkpt>
<trkpt lat="46.1419370" lon="10.1365090">
	<ele>1438.60</ele>
	<time>2024-09-06T06:44:33.000Z</time>
</trkpt>
<trkpt lat="46.1419380" lon="10.1365210">
	<ele>1438.80</ele>
	<time>2024-09-06T06:44:34.000Z</time>
</trkpt>
<trkpt lat="46.1419370" lon="10.1365330">
	<ele>1439.00</ele>
	<time>2024-09-06T06:44:35.000Z</time>
</trkpt>
<trkpt lat="46.1419370" lon="10.1365430">
	<ele>1439.20</ele>
	<time>2024-09-06T06:44:36.000Z</time>
</trkpt>
<trkpt lat="46.1419360" lon="10.1365530">
	<ele>1439.40</ele>
	<time>2024-09-06T06:44:37.000Z</time>
</trkpt>
<trkpt lat="46.1419320" lon="10.1365650">
	<ele>1439.40</ele>
	<time>2024-09-06T06:44:38.000Z</time>
</trkpt>
<trkpt lat="46.1419300" lon="10.1365770">
	<ele>1439.80</ele>
	<time>2024-09-06T06:44:39.000Z</time>
</trkpt>
<trkpt lat="46.1419240" lon="10.1365870">
	<ele>1440.00</ele>
	<time>2024-09-06T06:44:40.000Z</time>
</trkpt>
<trkpt lat="46.1419210" lon="10.1365940">
	<ele>1440.20</ele>
	<time>2024-09-06T06:44:41.000Z</time>
</trkpt>
<trkpt lat="46.1419190" lon="10.1365980">
	<ele>1440.40</ele>
	<time>2024-09-06T06:44:42.000Z</time>
</trkpt>
<trkpt lat="46.1419140" lon="10.1366050">
	<ele>1440.60</ele>
	<time>2024-09-06T06:44:43.000Z</time>
</trkpt>
<trkpt lat="46.1419090" lon="10.1366110">
	<ele>1440.60</ele>
	<time>2024-09-06T06:44:44.000Z</time>
</trkpt>
<trkpt lat="46.1419060" lon="10.1366180">
	<ele>1441.00</ele>
	<time>2024-09-06T06:44:45.000Z</time>
</trkpt>
<trkpt lat="46.1419050" lon="10.1366280">
	<ele>1441.20</ele>
	<time>2024-09-06T06:44:46.000Z</time>
</trkpt>
<trkpt lat="46.1419050" lon="10.1366330">
	<ele>1441.40</ele>
	<time>2024-09-06T06:44:47.000Z</time>
</trkpt>
<trkpt lat="46.1419080" lon="10.1366440">
	<ele>1441.60</ele>
	<time>2024-09-06T06:44:48.000Z</time>
</trkpt>
<trkpt lat="46.1419050" lon="10.1366480">
	<ele>1441.80</ele>
	<time>2024-09-06T06:44:49.000Z</time>
</trkpt>
<trkpt lat="46.1419010" lon="10.1366550">
	<ele>1442.00</ele>
	<time>2024-09-06T06:44:50.000Z</time>
</trkpt>
<trkpt lat="46.1418990" lon="10.1366640">
	<ele>1442.20</ele>
	<time>2024-09-06T06:44:51.000Z</time>
</trkpt>
<trkpt lat="46.1418980" lon="10.1366690">
	<ele>1442.40</ele>
	<time>2024-09-06T06:44:52.000Z</time>
</trkpt>
<trkpt lat="46.1418970" lon="10.1366810">
	<ele>1442.60</ele>
	<time>2024-09-06T06:44:53.000Z</time>
</trkpt>
<trkpt lat="46.1418980" lon="10.1366950">
	<ele>1442.80</ele>
	<time>2024-09-06T06:44:54.000Z</time>
</trkpt>
<trkpt lat="46.1419010" lon="10.1367070">
	<ele>1443.00</ele>
	<time>2024-09-06T06:44:55.000Z</time>
</trkpt>
<trkpt lat="46.1418990" lon="10.1367200">
	<ele>1443.20</ele>
	<time>2024-09-06T06:44:56.000Z</time>
</trkpt>
<trkpt lat="46.1418860" lon="10.1367360">
	<ele>1443.40</ele>
	<time>2024-09-06T06:44:57.000Z</time>
</trkpt>
<trkpt lat="46.1418840" lon="10.1367420">
	<ele>1443.60</ele>
	<time>2024-09-06T06:44:58.000Z</time>
</trkpt>
<trkpt lat="46.1418780" lon="10.1367530">
	<ele>1443.80</ele>
	<time>2024-09-06T06:44:59.000Z</time>
</trkpt>
<trkpt lat="46.1418710" lon="10.1367640">
	<ele>1444.20</ele>
	<time>2024-09-06T06:45:00.000Z</time>
</trkpt>
<trkpt lat="46.1418720" lon="10.1367730">
	<ele>1444.20</ele>
	<time>2024-09-06T06:45:01.000Z</time>
</trkpt>
<trkpt lat="46.1418750" lon="10.1367870">
	<ele>1444.40</ele>
	<time>2024-09-06T06:45:02.000Z</time>
</trkpt>
<trkpt lat="46.1418810" lon="10.1368010">
	<ele>1444.60</ele>
	<time>2024-09-06T06:45:03.000Z</time>
</trkpt>
<trkpt lat="46.1418830" lon="10.1368150">
	<ele>1444.80</ele>
	<time>2024-09-06T06:45:04.000Z</time>
</trkpt>
<trkpt lat="46.1418870" lon="10.1368310">
	<ele>1445.00</ele>
	<time>2024-09-06T06:45:05.000Z</time>
</trkpt>
<trkpt lat="46.1418880" lon="10.1368410">
	<ele>1445.20</ele>
	<time>2024-09-06T06:45:06.000Z</time>
</trkpt>
<trkpt lat="46.1418870" lon="10.1368500">
	<ele>1445.60</ele>
	<time>2024-09-06T06:45:07.000Z</time>
</trkpt>
<trkpt lat="46.1418820" lon="10.1368640">
	<ele>1445.60</ele>
	<time>2024-09-06T06:45:08.000Z</time>
</trkpt>
<trkpt lat="46.1418790" lon="10.1368740">
	<ele>1445.80</ele>
	<time>2024-09-06T06:45:09.000Z</time>
</trkpt>
<trkpt lat="46.1418790" lon="10.1368830">
	<ele>1445.80</ele>
	<time>2024-09-06T06:45:10.000Z</time>
</trkpt>
<trkpt lat="46.1418790" lon="10.1368890">
	<ele>1445.80</ele>
	<time>2024-09-06T06:45:11.000Z</time>
</trkpt>
<trkpt lat="46.1418820" lon="10.1369000">
	<ele>1446.20</ele>
	<time>2024-09-06T06:45:12.000Z</time>
</trkpt>
<trkpt lat="46.1418810" lon="10.1369130">
	<ele>1446.60</ele>
	<time>2024-09-06T06:45:13.000Z</time>
</trkpt>
<trkpt lat="46.1418810" lon="10.1369220">
	<ele>1446.80</ele>
	<time>2024-09-06T06:45:14.000Z</time>
</trkpt>
<trkpt lat="46.1418800" lon="10.1369250">
	<ele>1447.20</ele>
	<time>2024-09-06T06:45:15.000Z</time>
</trkpt>
<trkpt lat="46.1418790" lon="10.1369260">
	<ele>1447.40</ele>
	<time>2024-09-06T06:45:16.000Z</time>
</trkpt>
<trkpt lat="46.1418780" lon="10.1369280">
	<ele>1447.80</ele>
	<time>2024-09-06T06:45:17.000Z</time>
</trkpt>
<trkpt lat="46.1418760" lon="10.1369290">
	<ele>1448.00</ele>
	<time>2024-09-06T06:45:18.000Z</time>
</trkpt>
<trkpt lat="46.1418700" lon="10.1369350">
	<ele>1448.00</ele>
	<time>2024-09-06T06:45:19.000Z</time>
</trkpt>
<trkpt lat="46.1418630" lon="10.1369390">
	<ele>1448.20</ele>
	<time>2024-09-06T06:45:20.000Z</time>
</trkpt>
<trkpt lat="46.1418550" lon="10.1369430">
	<ele>1448.20</ele>
	<time>2024-09-06T06:45:21.000Z</time>
</trkpt>
<trkpt lat="46.1418490" lon="10.1369410">
	<ele>1448.40</ele>
	<time>2024-09-06T06:45:22.000Z</time>
</trkpt>
<trkpt lat="46.1418420" lon="10.1369370">
	<ele>1448.40</ele>
	<time>2024-09-06T06:45:23.000Z</time>
</trkpt>
<trkpt lat="46.1418390" lon="10.1369330">
	<ele>1448.60</ele>
	<time>2024-09-06T06:45:24.000Z</time>
</trkpt>
<trkpt lat="46.1418380" lon="10.1369310">
	<ele>1448.60</ele>
	<time>2024-09-06T06:45:25.000Z</time>
</trkpt>
<trkpt lat="46.1418370" lon="10.1369300">
	<ele>1448.60</ele>
	<time>2024-09-06T06:45:26.000Z</time>
</trkpt>
<trkpt lat="46.1418440" lon="10.1369390">
	<ele>1448.60</ele>
	<time>2024-09-06T06:45:27.000Z</time>
</trkpt>
<trkpt lat="46.1418520" lon="10.1369550">
	<ele>1448.60</ele>
	<time>2024-09-06T06:45:28.000Z</time>
</trkpt>
<trkpt lat="46.1418590" lon="10.1369680">
	<ele>1448.60</ele>
	<time>2024-09-06T06:45:29.000Z</time>
</trkpt>
<trkpt lat="46.1418630" lon="10.1369860">
	<ele>1448.40</ele>
	<time>2024-09-06T06:45:30.000Z</time>
</trkpt>
<trkpt lat="46.1418620" lon="10.1369900">
	<ele>1448.40</ele>
	<time>2024-09-06T06:45:31.000Z</time>
</trkpt>
<trkpt lat="46.1418640" lon="10.1369900">
	<ele>1448.60</ele>
	<time>2024-09-06T06:45:32.000Z</time>
</trkpt>
<trkpt lat="46.1418630" lon="10.1369950">
	<ele>1448.60</ele>
	<time>2024-09-06T06:45:33.000Z</time>
</trkpt>
<trkpt lat="46.1418640" lon="10.1369960">
	<ele>1448.60</ele>
	<time>2024-09-06T06:45:34.000Z</time>
</trkpt>
<trkpt lat="46.1418620" lon="10.1369960">
	<ele>1448.80</ele>
	<time>2024-09-06T06:45:35.000Z</time>
</trkpt>
<trkpt lat="46.1418620" lon="10.1369940">
	<ele>1448.80</ele>
	<time>2024-09-06T06:45:36.000Z</time>
</trkpt>
<trkpt lat="46.1418600" lon="10.1369920">
	<ele>1448.80</ele>
	<time>2024-09-06T06:45:37.000Z</time>
</trkpt>
<trkpt lat="46.1418520" lon="10.1369890">
	<ele>1448.80</ele>
	<time>2024-09-06T06:45:38.000Z</time>
</trkpt>
<trkpt lat="46.1418470" lon="10.1369860">
	<ele>1448.80</ele>
	<time>2024-09-06T06:45:39.000Z</time>
</trkpt>
<trkpt lat="46.1418420" lon="10.1369860">
	<ele>1448.80</ele>
	<time>2024-09-06T06:45:40.000Z</time>
</trkpt>
<trkpt lat="46.1418390" lon="10.1369820">
	<ele>1448.80</ele>
	<time>2024-09-06T06:45:41.000Z</time>
</trkpt>
<trkpt lat="46.1418360" lon="10.1369770">
	<ele>1449.00</ele>
	<time>2024-09-06T06:45:42.000Z</time>
</trkpt>
<trkpt lat="46.1418300" lon="10.1369670">
	<ele>1449.00</ele>
	<time>2024-09-06T06:45:43.000Z</time>
</trkpt>
<trkpt lat="46.1418250" lon="10.1369560">
	<ele>1449.20</ele>
	<time>2024-09-06T06:45:44.000Z</time>
</trkpt>
<trkpt lat="46.1418200" lon="10.1369480">
	<ele>1449.20</ele>
	<time>2024-09-06T06:45:45.000Z</time>
</trkpt>
<trkpt lat="46.1418180" lon="10.1369420">
	<ele>1449.40</ele>
	<time>2024-09-06T06:45:46.000Z</time>
</trkpt>
<trkpt lat="46.1418140" lon="10.1369380">
	<ele>1449.60</ele>
	<time>2024-09-06T06:45:47.000Z</time>
</trkpt>
<trkpt lat="46.1418120" lon="10.1369330">
	<ele>1449.60</ele>
	<time>2024-09-06T06:45:48.000Z</time>
</trkpt>
<trkpt lat="46.1418110" lon="10.1369270">
	<ele>1449.60</ele>
	<time>2024-09-06T06:45:49.000Z</time>
</trkpt>
<trkpt lat="46.1418120" lon="10.1369170">
	<ele>1449.80</ele>
	<time>2024-09-06T06:45:50.000Z</time>
</trkpt>
<trkpt lat="46.1418100" lon="10.1369060">
	<ele>1449.80</ele>
	<time>2024-09-06T06:45:51.000Z</time>
</trkpt>
<trkpt lat="46.1418050" lon="10.1368980">
	<ele>1450.00</ele>
	<time>2024-09-06T06:45:52.000Z</time>
</trkpt>
<trkpt lat="46.1418060" lon="10.1368960">
	<ele>1450.20</ele>
	<time>2024-09-06T06:45:53.000Z</time>
</trkpt>
<trkpt lat="46.1418070" lon="10.1368970">
	<ele>1450.40</ele>
	<time>2024-09-06T06:45:54.000Z</time>
</trkpt>
<trkpt lat="46.1418050" lon="10.1368940">
	<ele>1450.60</ele>
	<time>2024-09-06T06:45:55.000Z</time>
</trkpt>
<trkpt lat="46.1418010" lon="10.1368880">
	<ele>1450.80</ele>
	<time>2024-09-06T06:45:56.000Z</time>
</trkpt>
<trkpt lat="46.1418030" lon="10.1368820">
	<ele>1451.00</ele>
	<time>2024-09-06T06:45:57.000Z</time>
</trkpt>
<trkpt lat="46.1418120" lon="10.1368690">
	<ele>1451.00</ele>
	<time>2024-09-06T06:45:58.000Z</time>
</trkpt>
<trkpt lat="46.1418130" lon="10.1368500">
	<ele>1451.20</ele>
	<time>2024-09-06T06:45:59.000Z</time>
</trkpt>
<trkpt lat="46.1418170" lon="10.1368310">
	<ele>1451.40</ele>
	<time>2024-09-06T06:46:00.000Z</time>
</trkpt>
<trkpt lat="46.1418190" lon="10.1368220">
	<ele>1451.80</ele>
	<time>2024-09-06T06:46:01.000Z</time>
</trkpt>
<trkpt lat="46.1418120" lon="10.1368220">
	<ele>1452.00</ele>
	<time>2024-09-06T06:46:02.000Z</time>
</trkpt>
<trkpt lat="46.1418130" lon="10.1368190">
	<ele>1452.20</ele>
	<time>2024-09-06T06:46:03.000Z</time>
</trkpt>
<trkpt lat="46.1418150" lon="10.1368110">
	<ele>1452.40</ele>
	<time>2024-09-06T06:46:04.000Z</time>
</trkpt>
<trkpt lat="46.1418150" lon="10.1368010">
	<ele>1452.40</ele>
	<time>2024-09-06T06:46:05.000Z</time>
</trkpt>
<trkpt lat="46.1418170" lon="10.1367880">
	<ele>1452.60</ele>
	<time>2024-09-06T06:46:06.000Z</time>
</trkpt>
<trkpt lat="46.1418210" lon="10.1367810">
	<ele>1452.60</ele>
	<time>2024-09-06T06:46:07.000Z</time>
</trkpt>
<trkpt lat="46.1418190" lon="10.1367750">
	<ele>1452.80</ele>
	<time>2024-09-06T06:46:08.000Z</time>
</trkpt>
<trkpt lat="46.1418110" lon="10.1367690">
	<ele>1453.00</ele>
	<time>2024-09-06T06:46:09.000Z</time>
</trkpt>
<trkpt lat="46.1418070" lon="10.1367690">
	<ele>1453.20</ele>
	<time>2024-09-06T06:46:10.000Z</time>
</trkpt>
<trkpt lat="46.1418070" lon="10.1367630">
	<ele>1453.40</ele>
	<time>2024-09-06T06:46:11.000Z</time>
</trkpt>
<trkpt lat="46.1418060" lon="10.1367610">
	<ele>1453.40</ele>
	<time>2024-09-06T06:46:12.000Z</time>
</trkpt>
<trkpt lat="46.1418020" lon="10.1367550">
	<ele>1453.60</ele>
	<time>2024-09-06T06:46:13.000Z</time>
</trkpt>
<trkpt lat="46.1417950" lon="10.1367520">
	<ele>1453.80</ele>
	<time>2024-09-06T06:46:14.000Z</time>
</trkpt>
<trkpt lat="46.1417830" lon="10.1367430">
	<ele>1454.00</ele>
	<time>2024-09-06T06:46:15.000Z</time>
</trkpt>
<trkpt lat="46.1417670" lon="10.1367330">
	<ele>1454.20</ele>
	<time>2024-09-06T06:46:16.000Z</time>
</trkpt>
<trkpt lat="46.1417520" lon="10.1367240">
	<ele>1454.40</ele>
	<time>2024-09-06T06:46:17.000Z</time>
</trkpt>
<trkpt lat="46.1417390" lon="10.1367160">
	<ele>1454.60</ele>
	<time>2024-09-06T06:46:18.000Z</time>
</trkpt>
<trkpt lat="46.1417300" lon="10.1367110">
	<ele>1454.80</ele>
	<time>2024-09-06T06:46:19.000Z</time>
</trkpt>
<trkpt lat="46.1417170" lon="10.1367050">
	<ele>1455.00</ele>
	<time>2024-09-06T06:46:20.000Z</time>
</trkpt>
<trkpt lat="46.1417060" lon="10.1367000">
	<ele>1455.20</ele>
	<time>2024-09-06T06:46:21.000Z</time>
</trkpt>
<trkpt lat="46.1416940" lon="10.1367010">
	<ele>1455.40</ele>
	<time>2024-09-06T06:46:22.000Z</time>
</trkpt>
<trkpt lat="46.1416840" lon="10.1366980">
	<ele>1455.60</ele>
	<time>2024-09-06T06:46:23.000Z</time>
</trkpt>
<trkpt lat="46.1416760" lon="10.1366900">
	<ele>1455.80</ele>
	<time>2024-09-06T06:46:24.000Z</time>
</trkpt>
<trkpt lat="46.1416680" lon="10.1366800">
	<ele>1456.20</ele>
	<time>2024-09-06T06:46:25.000Z</time>
</trkpt>
<trkpt lat="46.1416640" lon="10.1366650">
	<ele>1456.20</ele>
	<time>2024-09-06T06:46:26.000Z</time>
</trkpt>
<trkpt lat="46.1416590" lon="10.1366570">
	<ele>1456.40</ele>
	<time>2024-09-06T06:46:27.000Z</time>
</trkpt>
<trkpt lat="46.1416530" lon="10.1366480">
	<ele>1456.60</ele>
	<time>2024-09-06T06:46:28.000Z</time>
</trkpt>
<trkpt lat="46.1416500" lon="10.1366430">
	<ele>1456.60</ele>
	<time>2024-09-06T06:46:29.000Z</time>
</trkpt>
<trkpt lat="46.1416460" lon="10.1366360">
	<ele>1456.80</ele>
	<time>2024-09-06T06:46:30.000Z</time>
</trkpt>
<trkpt lat="46.1416460" lon="10.1366290">
	<ele>1457.00</ele>
	<time>2024-09-06T06:46:31.000Z</time>
</trkpt>
<trkpt lat="46.1416510" lon="10.1366260">
	<ele>1457.20</ele>
	<time>2024-09-06T06:46:32.000Z</time>
</trkpt>
<trkpt lat="46.1416480" lon="10.1366320">
	<ele>1457.40</ele>
	<time>2024-09-06T06:46:33.000Z</time>
</trkpt>
<trkpt lat="46.1416450" lon="10.1366320">
	<ele>1457.40</ele>
	<time>2024-09-06T06:46:34.000Z</time>
</trkpt>
<trkpt lat="46.1416410" lon="10.1366290">
	<ele>1457.80</ele>
	<time>2024-09-06T06:46:35.000Z</time>
</trkpt>
<trkpt lat="46.1416370" lon="10.1366250">
	<ele>1458.00</ele>
	<time>2024-09-06T06:46:36.000Z</time>
</trkpt>
<trkpt lat="46.1416290" lon="10.1366220">
	<ele>1458.20</ele>
	<time>2024-09-06T06:46:37.000Z</time>
</trkpt>
<trkpt lat="46.1416140" lon="10.1366180">
	<ele>1458.40</ele>
	<time>2024-09-06T06:46:38.000Z</time>
</trkpt>
<trkpt lat="46.1416080" lon="10.1366170">
	<ele>1458.60</ele>
	<time>2024-09-06T06:46:39.000Z</time>
</trkpt>
<trkpt lat="46.1415990" lon="10.1366200">
	<ele>1458.80</ele>
	<time>2024-09-06T06:46:40.000Z</time>
</trkpt>
<trkpt lat="46.1415960" lon="10.1366220">
	<ele>1459.00</ele>
	<time>2024-09-06T06:46:41.000Z</time>
</trkpt>
<trkpt lat="46.1415940" lon="10.1366250">
	<ele>1459.20</ele>
	<time>2024-09-06T06:46:42.000Z</time>
</trkpt>
<trkpt lat="46.1415990" lon="10.1366270">
	<ele>1459.40</ele>
	<time>2024-09-06T06:46:43.000Z</time>
</trkpt>
<trkpt lat="46.1416050" lon="10.1366340">
	<ele>1459.60</ele>
	<time>2024-09-06T06:46:44.000Z</time>
</trkpt>
<trkpt lat="46.1416030" lon="10.1366380">
	<ele>1459.60</ele>
	<time>2024-09-06T06:46:45.000Z</time>
</trkpt>
<trkpt lat="46.1415980" lon="10.1366400">
	<ele>1459.80</ele>
	<time>2024-09-06T06:46:46.000Z</time>
</trkpt>
<trkpt lat="46.1415890" lon="10.1366400">
	<ele>1459.80</ele>
	<time>2024-09-06T06:46:47.000Z</time>
</trkpt>
<trkpt lat="46.1415880" lon="10.1366360">
	<ele>1460.00</ele>
	<time>2024-09-06T06:46:48.000Z</time>
</trkpt>
<trkpt lat="46.1415880" lon="10.1366350">
	<ele>1460.20</ele>
	<time>2024-09-06T06:46:49.000Z</time>
</trkpt>
<trkpt lat="46.1415890" lon="10.1366330">
	<ele>1460.40</ele>
	<time>2024-09-06T06:46:50.000Z</time>
</trkpt>
<trkpt lat="46.1415930" lon="10.1366330">
	<ele>1460.40</ele>
	<time>2024-09-06T06:46:51.000Z</time>
</trkpt>
<trkpt lat="46.1415960" lon="10.1366340">
	<ele>1460.40</ele>
	<time>2024-09-06T06:46:52.000Z</time>
</trkpt>
<trkpt lat="46.1415990" lon="10.1366360">
	<ele>1460.40</ele>
	<time>2024-09-06T06:46:53.000Z</time>
</trkpt>
<trkpt lat="46.1416010" lon="10.1366360">
	<ele>1460.40</ele>
	<time>2024-09-06T06:46:54.000Z</time>
</trkpt>
<trkpt lat="46.1416020" lon="10.1366380">
	<ele>1460.60</ele>
	<time>2024-09-06T06:46:55.000Z</time>
</trkpt>
<trkpt lat="46.1416010" lon="10.1366390">
	<ele>1460.60</ele>
	<time>2024-09-06T06:46:56.000Z</time>
</trkpt>
<trkpt lat="46.1416010" lon="10.1366410">
	<ele>1460.60</ele>
	<time>2024-09-06T06:46:57.000Z</time>
</trkpt>
<trkpt lat="46.1416040" lon="10.1366430">
	<ele>1460.60</ele>
	<time>2024-09-06T06:46:58.000Z</time>
</trkpt>
<trkpt lat="46.1416050" lon="10.1366440">
	<ele>1460.60</ele>
	<time>2024-09-06T06:46:59.000Z</time>
</trkpt>
<trkpt lat="46.1415990" lon="10.1366390">
	<ele>1460.60</ele>
	<time>2024-09-06T06:47:00.000Z</time>
</trkpt>
<trkpt lat="46.1416010" lon="10.1366380">
	<ele>1460.60</ele>
	<time>2024-09-06T06:47:01.000Z</time>
</trkpt>
<trkpt lat="46.1415970" lon="10.1366310">
	<ele>1460.60</ele>
	<time>2024-09-06T06:47:02.000Z</time>
</trkpt>
<trkpt lat="46.1415890" lon="10.1366320">
	<ele>1460.60</ele>
	<time>2024-09-06T06:47:03.000Z</time>
</trkpt>
<trkpt lat="46.1415890" lon="10.1366300">
	<ele>1460.60</ele>
	<time>2024-09-06T06:47:04.000Z</time>
</trkpt>
<trkpt lat="46.1415890" lon="10.1366270">
	<ele>1460.60</ele>
	<time>2024-09-06T06:47:05.000Z</time>
</trkpt>
<trkpt lat="46.1415850" lon="10.1366150">
	<ele>1460.80</ele>
	<time>2024-09-06T06:47:06.000Z</time>
</trkpt>
<trkpt lat="46.1415780" lon="10.1366040">
	<ele>1461.00</ele>
	<time>2024-09-06T06:47:07.000Z</time>
</trkpt>
<trkpt lat="46.1415680" lon="10.1365880">
	<ele>1461.20</ele>
	<time>2024-09-06T06:47:08.000Z</time>
</trkpt>
<trkpt lat="46.1415520" lon="10.1365730">
	<ele>1461.20</ele>
	<time>2024-09-06T06:47:09.000Z</time>
</trkpt>
<trkpt lat="46.1415440" lon="10.1365660">
	<ele>1461.40</ele>
	<time>2024-09-06T06:47:10.000Z</time>
</trkpt>
<trkpt lat="46.1415290" lon="10.1365560">
	<ele>1461.40</ele>
	<time>2024-09-06T06:47:11.000Z</time>
</trkpt>
<trkpt lat="46.1415150" lon="10.1365410">
	<ele>1461.40</ele>
	<time>2024-09-06T06:47:12.000Z</time>
</trkpt>
<trkpt lat="46.1415060" lon="10.1365230">
	<ele>1461.60</ele>
	<time>2024-09-06T06:47:13.000Z</time>
</trkpt>
<trkpt lat="46.1415060" lon="10.1365190">
	<ele>1461.60</ele>
	<time>2024-09-06T06:47:14.000Z</time>
</trkpt>
<trkpt lat="46.1414890" lon="10.1365050">
	<ele>1461.80</ele>
	<time>2024-09-06T06:47:15.000Z</time>
</trkpt>
<trkpt lat="46.1414840" lon="10.1365030">
	<ele>1462.00</ele>
	<time>2024-09-06T06:47:16.000Z</time>
</trkpt>
<trkpt lat="46.1414650" lon="10.1364830">
	<ele>1462.20</ele>
	<time>2024-09-06T06:47:17.000Z</time>
</trkpt>
<trkpt lat="46.1414440" lon="10.1364560">
	<ele>1462.40</ele>
	<time>2024-09-06T06:47:18.000Z</time>
</trkpt>
<trkpt lat="46.1414260" lon="10.1364370">
	<ele>1462.60</ele>
	<time>2024-09-06T06:47:19.000Z</time>
</trkpt>
<trkpt lat="46.1414140" lon="10.1364170">
	<ele>1462.80</ele>
	<time>2024-09-06T06:47:20.000Z</time>
</trkpt>
<trkpt lat="46.1414030" lon="10.1363960">
	<ele>1462.80</ele>
	<time>2024-09-06T06:47:21.000Z</time>
</trkpt>
<trkpt lat="46.1413950" lon="10.1363810">
	<ele>1463.00</ele>
	<time>2024-09-06T06:47:22.000Z</time>
</trkpt>
<trkpt lat="46.1413870" lon="10.1363680">
	<ele>1463.00</ele>
	<time>2024-09-06T06:47:23.000Z</time>
</trkpt>
<trkpt lat="46.1413820" lon="10.1363650">
	<ele>1463.20</ele>
	<time>2024-09-06T06:47:24.000Z</time>
</trkpt>
<trkpt lat="46.1413800" lon="10.1363640">
	<ele>1463.20</ele>
	<time>2024-09-06T06:47:25.000Z</time>
</trkpt>
<trkpt lat="46.1413780" lon="10.1363570">
	<ele>1463.40</ele>
	<time>2024-09-06T06:47:26.000Z</time>
</trkpt>
<trkpt lat="46.1413740" lon="10.1363480">
	<ele>1463.40</ele>
	<time>2024-09-06T06:47:27.000Z</time>
</trkpt>
<trkpt lat="46.1413670" lon="10.1363410">
	<ele>1463.40</ele>
	<time>2024-09-06T06:47:28.000Z</time>
</trkpt>
<trkpt lat="46.1413650" lon="10.1363420">
	<ele>1463.60</ele>
	<time>2024-09-06T06:47:29.000Z</time>
</trkpt>
<trkpt lat="46.1413610" lon="10.1363490">
	<ele>1463.80</ele>
	<time>2024-09-06T06:47:30.000Z</time>
</trkpt>
<trkpt lat="46.1413520" lon="10.1363520">
	<ele>1463.80</ele>
	<time>2024-09-06T06:47:31.000Z</time>
</trkpt>
<trkpt lat="46.1413430" lon="10.1363460">
	<ele>1464.00</ele>
	<time>2024-09-06T06:47:32.000Z</time>
</trkpt>
<trkpt lat="46.1413350" lon="10.1363380">
	<ele>1464.20</ele>
	<time>2024-09-06T06:47:33.000Z</time>
</trkpt>
<trkpt lat="46.1413330" lon="10.1363300">
	<ele>1464.40</ele>
	<time>2024-09-06T06:47:34.000Z</time>
</trkpt>
<trkpt lat="46.1413320" lon="10.1363180">
	<ele>1464.40</ele>
	<time>2024-09-06T06:47:35.000Z</time>
</trkpt>
<trkpt lat="46.1413270" lon="10.1363050">
	<ele>1464.80</ele>
	<time>2024-09-06T06:47:36.000Z</time>
</trkpt>
<trkpt lat="46.1413230" lon="10.1363000">
	<ele>1464.80</ele>
	<time>2024-09-06T06:47:37.000Z</time>
</trkpt>
<trkpt lat="46.1413130" lon="10.1362930">
	<ele>1465.00</ele>
	<time>2024-09-06T06:47:38.000Z</time>
</trkpt>
<trkpt lat="46.1413000" lon="10.1362810">
	<ele>1465.00</ele>
	<time>2024-09-06T06:47:39.000Z</time>
</trkpt>
<trkpt lat="46.1412910" lon="10.1362700">
	<ele>1465.20</ele>
	<time>2024-09-06T06:47:40.000Z</time>
</trkpt>
<trkpt lat="46.1412880" lon="10.1362730">
	<ele>1465.40</ele>
	<time>2024-09-06T06:47:41.000Z</time>
</trkpt>
<trkpt lat="46.1412870" lon="10.1362750">
	<ele>1465.60</ele>
	<time>2024-09-06T06:47:42.000Z</time>
</trkpt>
<trkpt lat="46.1412710" lon="10.1362660">
	<ele>1465.80</ele>
	<time>2024-09-06T06:47:43.000Z</time>
</trkpt>
<trkpt lat="46.1412710" lon="10.1362690">
	<ele>1466.00</ele>
	<time>2024-09-06T06:47:44.000Z</time>
</trkpt>
<trkpt lat="46.1412580" lon="10.1362580">
	<ele>1466.20</ele>
	<time>2024-09-06T06:47:45.000Z</time>
</trkpt>
<trkpt lat="46.1412510" lon="10.1362520">
	<ele>1466.40</ele>
	<time>2024-09-06T06:47:46.000Z</time>
</trkpt>
<trkpt lat="46.1412470" lon="10.1362530">
	<ele>1466.60</ele>
	<time>2024-09-06T06:47:47.000Z</time>
</trkpt>
<trkpt lat="46.1412480" lon="10.1362530">
	<ele>1466.80</ele>
	<time>2024-09-06T06:47:48.000Z</time>
</trkpt>
<trkpt lat="46.1412360" lon="10.1362400">
	<ele>1467.00</ele>
	<time>2024-09-06T06:47:49.000Z</time>
</trkpt>
<trkpt lat="46.1412240" lon="10.1362370">
	<ele>1467.20</ele>
	<time>2024-09-06T06:47:50.000Z</time>
</trkpt>
<trkpt lat="46.1412200" lon="10.1362360">
	<ele>1467.20</ele>
	<time>2024-09-06T06:47:51.000Z</time>
</trkpt>
<trkpt lat="46.1412080" lon="10.1362250">
	<ele>1467.40</ele>
	<time>2024-09-06T06:47:52.000Z</time>
</trkpt>
<trkpt lat="46.1412040" lon="10.1362230">
	<ele>1467.60</ele>
	<time>2024-09-06T06:47:53.000Z</time>
</trkpt>
<trkpt lat="46.1412040" lon="10.1362220">
	<ele>1467.60</ele>
	<time>2024-09-06T06:47:54.000Z</time>
</trkpt>
<trkpt lat="46.1412060" lon="10.1362220">
	<ele>1467.80</ele>
	<time>2024-09-06T06:47:55.000Z</time>
</trkpt>
<trkpt lat="46.1412070" lon="10.1362200">
	<ele>1468.00</ele>
	<time>2024-09-06T06:47:56.000Z</time>
</trkpt>
<trkpt lat="46.1412000" lon="10.1362110">
	<ele>1468.20</ele>
	<time>2024-09-06T06:47:57.000Z</time>
</trkpt>
<trkpt lat="46.1411980" lon="10.1362080">
	<ele>1468.60</ele>
	<time>2024-09-06T06:47:58.000Z</time>
</trkpt>
<trkpt lat="46.1411870" lon="10.1361990">
	<ele>1468.60</ele>
	<time>2024-09-06T06:47:59.000Z</time>
</trkpt>
<trkpt lat="46.1411750" lon="10.1361860">
	<ele>1469.20</ele>
	<time>2024-09-06T06:48:00.000Z</time>
</trkpt>
<trkpt lat="46.1411680" lon="10.1361720">
	<ele>1469.40</ele>
	<time>2024-09-06T06:48:01.000Z</time>
</trkpt>
<trkpt lat="46.1411670" lon="10.1361700">
	<ele>1469.60</ele>
	<time>2024-09-06T06:48:02.000Z</time>
</trkpt>
<trkpt lat="46.1411670" lon="10.1361700">
	<ele>1469.80</ele>
	<time>2024-09-06T06:48:03.000Z</time>
</trkpt>
<trkpt lat="46.1411650" lon="10.1361700">
	<ele>1470.00</ele>
	<time>2024-09-06T06:48:04.000Z</time>
</trkpt>
<trkpt lat="46.1411540" lon="10.1361640">
	<ele>1470.20</ele>
	<time>2024-09-06T06:48:05.000Z</time>
</trkpt>
<trkpt lat="46.1411500" lon="10.1361650">
	<ele>1470.40</ele>
	<time>2024-09-06T06:48:06.000Z</time>
</trkpt>
<trkpt lat="46.1411510" lon="10.1361670">
	<ele>1470.60</ele>
	<time>2024-09-06T06:48:07.000Z</time>
</trkpt>
<trkpt lat="46.1411490" lon="10.1361630">
	<ele>1470.60</ele>
	<time>2024-09-06T06:48:08.000Z</time>
</trkpt>
<trkpt lat="46.1411410" lon="10.1361560">
	<ele>1470.80</ele>
	<time>2024-09-06T06:48:09.000Z</time>
</trkpt>
<trkpt lat="46.1411310" lon="10.1361530">
	<ele>1471.00</ele>
	<time>2024-09-06T06:48:10.000Z</time>
</trkpt>
<trkpt lat="46.1411280" lon="10.1361520">
	<ele>1471.20</ele>
	<time>2024-09-06T06:48:11.000Z</time>
</trkpt>
<trkpt lat="46.1411210" lon="10.1361480">
	<ele>1471.40</ele>
	<time>2024-09-06T06:48:12.000Z</time>
</trkpt>
<trkpt lat="46.1411100" lon="10.1361380">
	<ele>1471.60</ele>
	<time>2024-09-06T06:48:13.000Z</time>
</trkpt>
<trkpt lat="46.1410940" lon="10.1361280">
	<ele>1471.60</ele>
	<time>2024-09-06T06:48:14.000Z</time>
</trkpt>
<trkpt lat="46.1410820" lon="10.1361190">
	<ele>1471.60</ele>
	<time>2024-09-06T06:48:15.000Z</time>
</trkpt>
<trkpt lat="46.1410700" lon="10.1361050">
	<ele>1471.80</ele>
	<time>2024-09-06T06:48:16.000Z</time>
</trkpt>
<trkpt lat="46.1410600" lon="10.1360910">
	<ele>1472.00</ele>
	<time>2024-09-06T06:48:17.000Z</time>
</trkpt>
<trkpt lat="46.1410500" lon="10.1360840">
	<ele>1472.20</ele>
	<time>2024-09-06T06:48:18.000Z</time>
</trkpt>
<trkpt lat="46.1410470" lon="10.1360810">
	<ele>1472.40</ele>
	<time>2024-09-06T06:48:19.000Z</time>
</trkpt>
<trkpt lat="46.1410350" lon="10.1360800">
	<ele>1472.40</ele>
	<time>2024-09-06T06:48:20.000Z</time>
</trkpt>
<trkpt lat="46.1410190" lon="10.1360800">
	<ele>1472.60</ele>
	<time>2024-09-06T06:48:21.000Z</time>
</trkpt>
<trkpt lat="46.1410030" lon="10.1360850">
	<ele>1472.60</ele>
	<time>2024-09-06T06:48:22.000Z</time>
</trkpt>
<trkpt lat="46.1410000" lon="10.1360880">
	<ele>1472.80</ele>
	<time>2024-09-06T06:48:23.000Z</time>
</trkpt>
<trkpt lat="46.1409830" lon="10.1360920">
	<ele>1473.00</ele>
	<time>2024-09-06T06:48:24.000Z</time>
</trkpt>
<trkpt lat="46.1409820" lon="10.1360930">
	<ele>1473.20</ele>
	<time>2024-09-06T06:48:25.000Z</time>
</trkpt>
<trkpt lat="46.1409840" lon="10.1360920">
	<ele>1473.40</ele>
	<time>2024-09-06T06:48:26.000Z</time>
</trkpt>
<trkpt lat="46.1409840" lon="10.1360930">
	<ele>1473.80</ele>
	<time>2024-09-06T06:48:27.000Z</time>
</trkpt>
<trkpt lat="46.1409740" lon="10.1360900">
	<ele>1474.00</ele>
	<time>2024-09-06T06:48:28.000Z</time>
</trkpt>
<trkpt lat="46.1409620" lon="10.1360880">
	<ele>1474.20</ele>
	<time>2024-09-06T06:48:29.000Z</time>
</trkpt>
<trkpt lat="46.1409510" lon="10.1360840">
	<ele>1474.40</ele>
	<time>2024-09-06T06:48:30.000Z</time>
</trkpt>
<trkpt lat="46.1409460" lon="10.1360740">
	<ele>1474.40</ele>
	<time>2024-09-06T06:48:31.000Z</time>
</trkpt>
<trkpt lat="46.1409370" lon="10.1360630">
	<ele>1474.80</ele>
	<time>2024-09-06T06:48:32.000Z</time>
</trkpt>
<trkpt lat="46.1409340" lon="10.1360620">
	<ele>1475.00</ele>
	<time>2024-09-06T06:48:33.000Z</time>
</trkpt>
<trkpt lat="46.1409240" lon="10.1360540">
	<ele>1475.00</ele>
	<time>2024-09-06T06:48:34.000Z</time>
</trkpt>
<trkpt lat="46.1409120" lon="10.1360510">
	<ele>1475.40</ele>
	<time>2024-09-06T06:48:35.000Z</time>
</trkpt>
<trkpt lat="46.1409040" lon="10.1360490">
	<ele>1475.40</ele>
	<time>2024-09-06T06:48:36.000Z</time>
</trkpt>
<trkpt lat="46.1408920" lon="10.1360470">
	<ele>1475.60</ele>
	<time>2024-09-06T06:48:37.000Z</time>
</trkpt>
<trkpt lat="46.1408820" lon="10.1360400">
	<ele>1475.60</ele>
	<time>2024-09-06T06:48:38.000Z</time>
</trkpt>
<trkpt lat="46.1408720" lon="10.1360260">
	<ele>1475.80</ele>
	<time>2024-09-06T06:48:39.000Z</time>
</trkpt>
<trkpt lat="46.1408590" lon="10.1360120">
	<ele>1475.80</ele>
	<time>2024-09-06T06:48:40.000Z</time>
</trkpt>
<trkpt lat="46.1408520" lon="10.1360020">
	<ele>1476.00</ele>
	<time>2024-09-06T06:48:41.000Z</time>
</trkpt>
<trkpt lat="46.1408490" lon="10.1359930">
	<ele>1476.20</ele>
	<time>2024-09-06T06:48:42.000Z</time>
</trkpt>
<trkpt lat="46.1408400" lon="10.1359840">
	<ele>1476.40</ele>
	<time>2024-09-06T06:48:43.000Z</time>
</trkpt>
<trkpt lat="46.1408310" lon="10.1359760">
	<ele>1476.60</ele>
	<time>2024-09-06T06:48:44.000Z</time>
</trkpt>
<trkpt lat="46.1408190" lon="10.1359750">
	<ele>1476.80</ele>
	<time>2024-09-06T06:48:45.000Z</time>
</trkpt>
<trkpt lat="46.1408100" lon="10.1359690">
	<ele>1476.80</ele>
	<time>2024-09-06T06:48:46.000Z</time>
</trkpt>
<trkpt lat="46.1408050" lon="10.1359630">
	<ele>1477.00</ele>
	<time>2024-09-06T06:48:47.000Z</time>
</trkpt>
<trkpt lat="46.1407980" lon="10.1359530">
	<ele>1477.00</ele>
	<time>2024-09-06T06:48:48.000Z</time>
</trkpt>
<trkpt lat="46.1407930" lon="10.1359390">
	<ele>1477.00</ele>
	<time>2024-09-06T06:48:49.000Z</time>
</trkpt>
<trkpt lat="46.1407830" lon="10.1359240">
	<ele>1477.20</ele>
	<time>2024-09-06T06:48:50.000Z</time>
</trkpt>
<trkpt lat="46.1407740" lon="10.1359200">
	<ele>1477.20</ele>
	<time>2024-09-06T06:48:51.000Z</time>
</trkpt>
<trkpt lat="46.1407710" lon="10.1359150">
	<ele>1477.40</ele>
	<time>2024-09-06T06:48:52.000Z</time>
</trkpt>
<trkpt lat="46.1407650" lon="10.1359070">
	<ele>1477.60</ele>
	<time>2024-09-06T06:48:53.000Z</time>
</trkpt>
<trkpt lat="46.1407610" lon="10.1359030">
	<ele>1477.60</ele>
	<time>2024-09-06T06:48:54.000Z</time>
</trkpt>
<trkpt lat="46.1407550" lon="10.1358960">
	<ele>1477.80</ele>
	<time>2024-09-06T06:48:55.000Z</time>
</trkpt>
<trkpt lat="46.1407520" lon="10.1358960">
	<ele>1478.00</ele>
	<time>2024-09-06T06:48:56.000Z</time>
</trkpt>
<trkpt lat="46.1407490" lon="10.1359000">
	<ele>1478.00</ele>
	<time>2024-09-06T06:48:57.000Z</time>
</trkpt>
<trkpt lat="46.1407440" lon="10.1358950">
	<ele>1478.20</ele>
	<time>2024-09-06T06:48:58.000Z</time>
</trkpt>
<trkpt lat="46.1407420" lon="10.1358860">
	<ele>1478.20</ele>
	<time>2024-09-06T06:48:59.000Z</time>
</trkpt>
<trkpt lat="46.1407410" lon="10.1358720">
	<ele>1478.40</ele>
	<time>2024-09-06T06:49:00.000Z</time>
</trkpt>
<trkpt lat="46.1407350" lon="10.1358620">
	<ele>1478.60</ele>
	<time>2024-09-06T06:49:01.000Z</time>
</trkpt>
<trkpt lat="46.1407280" lon="10.1358550">
	<ele>1478.80</ele>
	<time>2024-09-06T06:49:02.000Z</time>
</trkpt>
<trkpt lat="46.1407170" lon="10.1358450">
	<ele>1479.00</ele>
	<time>2024-09-06T06:49:03.000Z</time>
</trkpt>
<trkpt lat="46.1407130" lon="10.1358420">
	<ele>1479.20</ele>
	<time>2024-09-06T06:49:04.000Z</time>
</trkpt>
<trkpt lat="46.1407130" lon="10.1358420">
	<ele>1479.20</ele>
	<time>2024-09-06T06:49:05.000Z</time>
</trkpt>
<trkpt lat="46.1407030" lon="10.1358380">
	<ele>1479.60</ele>
	<time>2024-09-06T06:49:06.000Z</time>
</trkpt>
<trkpt lat="46.1406800" lon="10.1358350">
	<ele>1479.80</ele>
	<time>2024-09-06T06:49:07.000Z</time>
</trkpt>
<trkpt lat="46.1406610" lon="10.1358350">
	<ele>1479.80</ele>
	<time>2024-09-06T06:49:08.000Z</time>
</trkpt>
<trkpt lat="46.1406470" lon="10.1358340">
	<ele>1480.20</ele>
	<time>2024-09-06T06:49:09.000Z</time>
</trkpt>
<trkpt lat="46.1406440" lon="10.1358320">
	<ele>1480.40</ele>
	<time>2024-09-06T06:49:10.000Z</time>
</trkpt>
<trkpt lat="46.1406340" lon="10.1358150">
	<ele>1480.40</ele>
	<time>2024-09-06T06:49:11.000Z</time>
</trkpt>
<trkpt lat="46.1406310" lon="10.1358090">
	<ele>1480.60</ele>
	<time>2024-09-06T06:49:12.000Z</time>
</trkpt>
<trkpt lat="46.1406300" lon="10.1358090">
	<ele>1480.80</ele>
	<time>2024-09-06T06:49:13.000Z</time>
</trkpt>
<trkpt lat="46.1406280" lon="10.1358110">
	<ele>1480.80</ele>
	<time>2024-09-06T06:49:14.000Z</time>
</trkpt>
<trkpt lat="46.1406230" lon="10.1358120">
	<ele>1481.20</ele>
	<time>2024-09-06T06:49:15.000Z</time>
</trkpt>
<trkpt lat="46.1406210" lon="10.1358140">
	<ele>1481.40</ele>
	<time>2024-09-06T06:49:16.000Z</time>
</trkpt>
<trkpt lat="46.1406210" lon="10.1358140">
	<ele>1481.40</ele>
	<time>2024-09-06T06:49:17.000Z</time>
</trkpt>
<trkpt lat="46.1406160" lon="10.1358050">
	<ele>1481.60</ele>
	<time>2024-09-06T06:49:18.000Z</time>
</trkpt>
<trkpt lat="46.1406030" lon="10.1357950">
	<ele>1481.80</ele>
	<time>2024-09-06T06:49:19.000Z</time>
</trkpt>
<trkpt lat="46.1405870" lon="10.1357850">
	<ele>1482.00</ele>
	<time>2024-09-06T06:49:20.000Z</time>
</trkpt>
<trkpt lat="46.1405740" lon="10.1357800">
	<ele>1482.20</ele>
	<time>2024-09-06T06:49:21.000Z</time>
</trkpt>
<trkpt lat="46.1405640" lon="10.1357760">
	<ele>1482.40</ele>
	<time>2024-09-06T06:49:22.000Z</time>
</trkpt>
<trkpt lat="46.1405570" lon="10.1357680">
	<ele>1482.40</ele>
	<time>2024-09-06T06:49:23.000Z</time>
</trkpt>
<trkpt lat="46.1405510" lon="10.1357610">
	<ele>1482.60</ele>
	<time>2024-09-06T06:49:24.000Z</time>
</trkpt>
<trkpt lat="46.1405420" lon="10.1357530">
	<ele>1483.00</ele>
	<time>2024-09-06T06:49:25.000Z</time>
</trkpt>
<trkpt lat="46.1405380" lon="10.1357510">
	<ele>1483.20</ele>
	<time>2024-09-06T06:49:26.000Z</time>
</trkpt>
<trkpt lat="46.1405370" lon="10.1357520">
	<ele>1483.40</ele>
	<time>2024-09-06T06:49:27.000Z</time>
</trkpt>
<trkpt lat="46.1405350" lon="10.1357530">
	<ele>1483.60</ele>
	<time>2024-09-06T06:49:28.000Z</time>
</trkpt>
<trkpt lat="46.1405350" lon="10.1357460">
	<ele>1483.80</ele>
	<time>2024-09-06T06:49:29.000Z</time>
</trkpt>
<trkpt lat="46.1405280" lon="10.1357410">
	<ele>1484.00</ele>
	<time>2024-09-06T06:49:30.000Z</time>
</trkpt>
<trkpt lat="46.1405140" lon="10.1357380">
	<ele>1484.20</ele>
	<time>2024-09-06T06:49:31.000Z</time>
</trkpt>
<trkpt lat="46.1405100" lon="10.1357390">
	<ele>1484.40</ele>
	<time>2024-09-06T06:49:32.000Z</time>
</trkpt>
<trkpt lat="46.1404970" lon="10.1357280">
	<ele>1484.60</ele>
	<time>2024-09-06T06:49:33.000Z</time>
</trkpt>
<trkpt lat="46.1404870" lon="10.1357220">
	<ele>1484.80</ele>
	<time>2024-09-06T06:49:34.000Z</time>
</trkpt>
<trkpt lat="46.1404860" lon="10.1357260">
	<ele>1484.80</ele>
	<time>2024-09-06T06:49:35.000Z</time>
</trkpt>
<trkpt lat="46.1404830" lon="10.1357310">
	<ele>1485.00</ele>
	<time>2024-09-06T06:49:36.000Z</time>
</trkpt>
<trkpt lat="46.1404760" lon="10.1357290">
	<ele>1485.40</ele>
	<time>2024-09-06T06:49:37.000Z</time>
</trkpt>
<trkpt lat="46.1404690" lon="10.1357240">
	<ele>1485.40</ele>
	<time>2024-09-06T06:49:38.000Z</time>
</trkpt>
<trkpt lat="46.1404580" lon="10.1357100">
	<ele>1485.80</ele>
	<time>2024-09-06T06:49:39.000Z</time>
</trkpt>
<trkpt lat="46.1404490" lon="10.1356990">
	<ele>1486.00</ele>
	<time>2024-09-06T06:49:40.000Z</time>
</trkpt>
<trkpt lat="46.1404410" lon="10.1356930">
	<ele>1486.20</ele>
	<time>2024-09-06T06:49:41.000Z</time>
</trkpt>
<trkpt lat="46.1404340" lon="10.1356820">
	<ele>1486.20</ele>
	<time>2024-09-06T06:49:42.000Z</time>
</trkpt>
<trkpt lat="46.1404260" lon="10.1356760">
	<ele>1486.60</ele>
	<time>2024-09-06T06:49:43.000Z</time>
</trkpt>
<trkpt lat="46.1404200" lon="10.1356770">
	<ele>1486.60</ele>
	<time>2024-09-06T06:49:44.000Z</time>
</trkpt>
<trkpt lat="46.1404140" lon="10.1356840">
	<ele>1486.80</ele>
	<time>2024-09-06T06:49:45.000Z</time>
</trkpt>
<trkpt lat="46.1404040" lon="10.1356880">
	<ele>1487.00</ele>
	<time>2024-09-06T06:49:46.000Z</time>
</trkpt>
<trkpt lat="46.1404000" lon="10.1356930">
	<ele>1487.00</ele>
	<time>2024-09-06T06:49:47.000Z</time>
</trkpt>
<trkpt lat="46.1403880" lon="10.1356890">
	<ele>1487.20</ele>
	<time>2024-09-06T06:49:48.000Z</time>
</trkpt>
<trkpt lat="46.1403790" lon="10.1356860">
	<ele>1487.40</ele>
	<time>2024-09-06T06:49:49.000Z</time>
</trkpt>
<trkpt lat="46.1403760" lon="10.1356890">
	<ele>1487.60</ele>
	<time>2024-09-06T06:49:50.000Z</time>
</trkpt>
<trkpt lat="46.1403610" lon="10.1356740">
	<ele>1487.80</ele>
	<time>2024-09-06T06:49:51.000Z</time>
</trkpt>
<trkpt lat="46.1403470" lon="10.1356590">
	<ele>1488.00</ele>
	<time>2024-09-06T06:49:52.000Z</time>
</trkpt>
<trkpt lat="46.1403410" lon="10.1356490">
	<ele>1488.20</ele>
	<time>2024-09-06T06:49:53.000Z</time>
</trkpt>
<trkpt lat="46.1403390" lon="10.1356470">
	<ele>1488.40</ele>
	<time>2024-09-06T06:49:54.000Z</time>
</trkpt>
<trkpt lat="46.1403320" lon="10.1356510">
	<ele>1488.40</ele>
	<time>2024-09-06T06:49:55.000Z</time>
</trkpt>
<trkpt lat="46.1403280" lon="10.1356500">
	<ele>1488.80</ele>
	<time>2024-09-06T06:49:56.000Z</time>
</trkpt>
<trkpt lat="46.1403230" lon="10.1356320">
	<ele>1489.00</ele>
	<time>2024-09-06T06:49:57.000Z</time>
</trkpt>
<trkpt lat="46.1403120" lon="10.1356160">
	<ele>1489.00</ele>
	<time>2024-09-06T06:49:58.000Z</time>
</trkpt>
<trkpt lat="46.1403000" lon="10.1356060">
	<ele>1489.20</ele>
	<time>2024-09-06T06:49:59.000Z</time>
</trkpt>
<trkpt lat="46.1402820" lon="10.1355870">
	<ele>1489.20</ele>
	<time>2024-09-06T06:50:00.000Z</time>
</trkpt>
<trkpt lat="46.1402760" lon="10.1355780">
	<ele>1489.40</ele>
	<time>2024-09-06T06:50:01.000Z</time>
</trkpt>
<trkpt lat="46.1402710" lon="10.1355750">
	<ele>1489.40</ele>
	<time>2024-09-06T06:50:02.000Z</time>
</trkpt>
<trkpt lat="46.1402670" lon="10.1355730">
	<ele>1489.60</ele>
	<time>2024-09-06T06:50:03.000Z</time>
</trkpt>
<trkpt lat="46.1402560" lon="10.1355620">
	<ele>1489.80</ele>
	<time>2024-09-06T06:50:04.000Z</time>
</trkpt>
<trkpt lat="46.1402470" lon="10.1355590">
	<ele>1490.00</ele>
	<time>2024-09-06T06:50:05.000Z</time>
</trkpt>
<trkpt lat="46.1402440" lon="10.1355600">
	<ele>1490.20</ele>
	<time>2024-09-06T06:50:06.000Z</time>
</trkpt>
<trkpt lat="46.1402380" lon="10.1355580">
	<ele>1490.40</ele>
	<time>2024-09-06T06:50:07.000Z</time>
</trkpt>
<trkpt lat="46.1402320" lon="10.1355530">
	<ele>1490.60</ele>
	<time>2024-09-06T06:50:08.000Z</time>
</trkpt>
<trkpt lat="46.1402250" lon="10.1355450">
	<ele>1490.80</ele>
	<time>2024-09-06T06:50:09.000Z</time>
</trkpt>
<trkpt lat="46.1402210" lon="10.1355380">
	<ele>1491.00</ele>
	<time>2024-09-06T06:50:10.000Z</time>
</trkpt>
<trkpt lat="46.1402170" lon="10.1355350">
	<ele>1491.20</ele>
	<time>2024-09-06T06:50:11.000Z</time>
</trkpt>
<trkpt lat="46.1402160" lon="10.1355340">
	<ele>1491.40</ele>
	<time>2024-09-06T06:50:12.000Z</time>
</trkpt>
<trkpt lat="46.1402140" lon="10.1355320">
	<ele>1491.60</ele>
	<time>2024-09-06T06:50:13.000Z</time>
</trkpt>
<trkpt lat="46.1402040" lon="10.1355160">
	<ele>1491.60</ele>
	<time>2024-09-06T06:50:14.000Z</time>
</trkpt>
<trkpt lat="46.1401910" lon="10.1355050">
	<ele>1491.80</ele>
	<time>2024-09-06T06:50:15.000Z</time>
</trkpt>
<trkpt lat="46.1401880" lon="10.1354990">
	<ele>1492.00</ele>
	<time>2024-09-06T06:50:16.000Z</time>
</trkpt>
<trkpt lat="46.1401740" lon="10.1354810">
	<ele>1492.40</ele>
	<time>2024-09-06T06:50:17.000Z</time>
</trkpt>
<trkpt lat="46.1401660" lon="10.1354620">
	<ele>1492.60</ele>
	<time>2024-09-06T06:50:18.000Z</time>
</trkpt>
<trkpt lat="46.1401600" lon="10.1354550">
	<ele>1492.80</ele>
	<time>2024-09-06T06:50:19.000Z</time>
</trkpt>
<trkpt lat="46.1401600" lon="10.1354570">
	<ele>1492.80</ele>
	<time>2024-09-06T06:50:20.000Z</time>
</trkpt>
<trkpt lat="46.1401610" lon="10.1354660">
	<ele>1493.00</ele>
	<time>2024-09-06T06:50:21.000Z</time>
</trkpt>
<trkpt lat="46.1401570" lon="10.1354680">
	<ele>1493.20</ele>
	<time>2024-09-06T06:50:22.000Z</time>
</trkpt>
<trkpt lat="46.1401540" lon="10.1354710">
	<ele>1493.40</ele>
	<time>2024-09-06T06:50:23.000Z</time>
</trkpt>
<trkpt lat="46.1401510" lon="10.1354830">
	<ele>1493.60</ele>
	<time>2024-09-06T06:50:24.000Z</time>
</trkpt>
<trkpt lat="46.1401450" lon="10.1354880">
	<ele>1493.80</ele>
	<time>2024-09-06T06:50:25.000Z</time>
</trkpt>
<trkpt lat="46.1401410" lon="10.1354900">
	<ele>1493.80</ele>
	<time>2024-09-06T06:50:26.000Z</time>
</trkpt>
<trkpt lat="46.1401330" lon="10.1354920">
	<ele>1494.00</ele>
	<time>2024-09-06T06:50:27.000Z</time>
</trkpt>
<trkpt lat="46.1401220" lon="10.1354810">
	<ele>1494.40</ele>
	<time>2024-09-06T06:50:28.000Z</time>
</trkpt>
<trkpt lat="46.1401160" lon="10.1354770">
	<ele>1494.60</ele>
	<time>2024-09-06T06:50:29.000Z</time>
</trkpt>
<trkpt lat="46.1401000" lon="10.1354770">
	<ele>1494.80</ele>
	<time>2024-09-06T06:50:30.000Z</time>
</trkpt>
<trkpt lat="46.1400750" lon="10.1354730">
	<ele>1495.00</ele>
	<time>2024-09-06T06:50:31.000Z</time>
</trkpt>
<trkpt lat="46.1400570" lon="10.1354680">
	<ele>1495.20</ele>
	<time>2024-09-06T06:50:32.000Z</time>
</trkpt>
<trkpt lat="46.1400460" lon="10.1354710">
	<ele>1495.20</ele>
	<time>2024-09-06T06:50:33.000Z</time>
</trkpt>
<trkpt lat="46.1400390" lon="10.1354670">
	<ele>1495.40</ele>
	<time>2024-09-06T06:50:34.000Z</time>
</trkpt>
<trkpt lat="46.1400300" lon="10.1354590">
	<ele>1495.60</ele>
	<time>2024-09-06T06:50:35.000Z</time>
</trkpt>
<trkpt lat="46.1400190" lon="10.1354460">
	<ele>1495.60</ele>
	<time>2024-09-06T06:50:36.000Z</time>
</trkpt>
<trkpt lat="46.1400020" lon="10.1354310">
	<ele>1495.80</ele>
	<time>2024-09-06T06:50:37.000Z</time>
</trkpt>
<trkpt lat="46.1399870" lon="10.1354190">
	<ele>1495.80</ele>
	<time>2024-09-06T06:50:38.000Z</time>
</trkpt>
<trkpt lat="46.1399760" lon="10.1354090">
	<ele>1496.00</ele>
	<time>2024-09-06T06:50:39.000Z</time>
</trkpt>
<trkpt lat="46.1399670" lon="10.1354100">
	<ele>1496.00</ele>
	<time>2024-09-06T06:50:40.000Z</time>
</trkpt>
<trkpt lat="46.1399560" lon="10.1354000">
	<ele>1496.20</ele>
	<time>2024-09-06T06:50:41.000Z</time>
</trkpt>
<trkpt lat="46.1399430" lon="10.1353870">
	<ele>1496.40</ele>
	<time>2024-09-06T06:50:42.000Z</time>
</trkpt>
<trkpt lat="46.1399350" lon="10.1353760">
	<ele>1496.60</ele>
	<time>2024-09-06T06:50:43.000Z</time>
</trkpt>
<trkpt lat="46.1399280" lon="10.1353700">
	<ele>1496.60</ele>
	<time>2024-09-06T06:50:44.000Z</time>
</trkpt>
<trkpt lat="46.1399210" lon="10.1353590">
	<ele>1496.80</ele>
	<time>2024-09-06T06:50:45.000Z</time>
</trkpt>
<trkpt lat="46.1399150" lon="10.1353550">
	<ele>1497.00</ele>
	<time>2024-09-06T06:50:46.000Z</time>
</trkpt>
<trkpt lat="46.1399060" lon="10.1353540">
	<ele>1497.00</ele>
	<time>2024-09-06T06:50:47.000Z</time>
</trkpt>
<trkpt lat="46.1398990" lon="10.1353530">
	<ele>1497.20</ele>
	<time>2024-09-06T06:50:48.000Z</time>
</trkpt>
<trkpt lat="46.1398910" lon="10.1353520">
	<ele>1497.40</ele>
	<time>2024-09-06T06:50:49.000Z</time>
</trkpt>
<trkpt lat="46.1398810" lon="10.1353510">
	<ele>1497.40</ele>
	<time>2024-09-06T06:50:50.000Z</time>
</trkpt>
<trkpt lat="46.1398690" lon="10.1353460">
	<ele>1497.60</ele>
	<time>2024-09-06T06:50:51.000Z</time>
</trkpt>
<trkpt lat="46.1398590" lon="10.1353370">
	<ele>1497.80</ele>
	<time>2024-09-06T06:50:52.000Z</time>
</trkpt>
<trkpt lat="46.1398570" lon="10.1353380">
	<ele>1497.80</ele>
	<time>2024-09-06T06:50:53.000Z</time>
</trkpt>
<trkpt lat="46.1398540" lon="10.1353300">
	<ele>1498.00</ele>
	<time>2024-09-06T06:50:54.000Z</time>
</trkpt>
<trkpt lat="46.1398540" lon="10.1353250">
	<ele>1498.20</ele>
	<time>2024-09-06T06:50:55.000Z</time>
</trkpt>
<trkpt lat="46.1398510" lon="10.1353250">
	<ele>1498.40</ele>
	<time>2024-09-06T06:50:56.000Z</time>
</trkpt>
<trkpt lat="46.1398470" lon="10.1353250">
	<ele>1498.60</ele>
	<time>2024-09-06T06:50:57.000Z</time>
</trkpt>
<trkpt lat="46.1398430" lon="10.1353240">
	<ele>1498.60</ele>
	<time>2024-09-06T06:50:58.000Z</time>
</trkpt>
<trkpt lat="46.1398320" lon="10.1353220">
	<ele>1498.80</ele>
	<time>2024-09-06T06:50:59.000Z</time>
</trkpt>
<trkpt lat="46.1398250" lon="10.1353210">
	<ele>1498.80</ele>
	<time>2024-09-06T06:51:00.000Z</time>
</trkpt>
<trkpt lat="46.1398170" lon="10.1353150">
	<ele>1498.80</ele>
	<time>2024-09-06T06:51:01.000Z</time>
</trkpt>
<trkpt lat="46.1398120" lon="10.1353170">
	<ele>1499.00</ele>
	<time>2024-09-06T06:51:02.000Z</time>
</trkpt>
<trkpt lat="46.1398050" lon="10.1353140">
	<ele>1499.20</ele>
	<time>2024-09-06T06:51:03.000Z</time>
</trkpt>
<trkpt lat="46.1398030" lon="10.1353130">
	<ele>1499.40</ele>
	<time>2024-09-06T06:51:04.000Z</time>
</trkpt>
<trkpt lat="46.1398000" lon="10.1353190">
	<ele>1499.60</ele>
	<time>2024-09-06T06:51:05.000Z</time>
</trkpt>
<trkpt lat="46.1397980" lon="10.1353280">
	<ele>1499.80</ele>
	<time>2024-09-06T06:51:06.000Z</time>
</trkpt>
<trkpt lat="46.1397910" lon="10.1353290">
	<ele>1500.00</ele>
	<time>2024-09-06T06:51:07.000Z</time>
</trkpt>
<trkpt lat="46.1397850" lon="10.1353350">
	<ele>1500.00</ele>
	<time>2024-09-06T06:51:08.000Z</time>
</trkpt>
<trkpt lat="46.1397820" lon="10.1353470">
	<ele>1500.00</ele>
	<time>2024-09-06T06:51:09.000Z</time>
</trkpt>
<trkpt lat="46.1397740" lon="10.1353580">
	<ele>1500.20</ele>
	<time>2024-09-06T06:51:10.000Z</time>
</trkpt>
<trkpt lat="46.1397680" lon="10.1353690">
	<ele>1500.40</ele>
	<time>2024-09-06T06:51:11.000Z</time>
</trkpt>
<trkpt lat="46.1397630" lon="10.1353790">
	<ele>1500.60</ele>
	<time>2024-09-06T06:51:12.000Z</time>
</trkpt>
<trkpt lat="46.1397640" lon="10.1353930">
	<ele>1500.80</ele>
	<time>2024-09-06T06:51:13.000Z</time>
</trkpt>
<trkpt lat="46.1397570" lon="10.1354040">
	<ele>1500.80</ele>
	<time>2024-09-06T06:51:14.000Z</time>
</trkpt>
<trkpt lat="46.1397640" lon="10.1354230">
	<ele>1501.00</ele>
	<time>2024-09-06T06:51:15.000Z</time>
</trkpt>
<trkpt lat="46.1397680" lon="10.1354340">
	<ele>1501.20</ele>
	<time>2024-09-06T06:51:16.000Z</time>
</trkpt>
<trkpt lat="46.1397760" lon="10.1354430">
	<ele>1501.40</ele>
	<time>2024-09-06T06:51:17.000Z</time>
</trkpt>
<trkpt lat="46.1397830" lon="10.1354520">
	<ele>1501.60</ele>
	<time>2024-09-06T06:51:18.000Z</time>
</trkpt>
<trkpt lat="46.1397880" lon="10.1354610">
	<ele>1501.60</ele>
	<time>2024-09-06T06:51:19.000Z</time>
</trkpt>
<trkpt lat="46.1397950" lon="10.1354750">
	<ele>1501.80</ele>
	<time>2024-09-06T06:51:20.000Z</time>
</trkpt>
<trkpt lat="46.1397940" lon="10.1354690">
	<ele>1502.00</ele>
	<time>2024-09-06T06:51:21.000Z</time>
</trkpt>
<trkpt lat="46.1397980" lon="10.1354760">
	<ele>1502.20</ele>
	<time>2024-09-06T06:51:22.000Z</time>
</trkpt>
<trkpt lat="46.1398020" lon="10.1354780">
	<ele>1502.20</ele>
	<time>2024-09-06T06:51:23.000Z</time>
</trkpt>
<trkpt lat="46.1398120" lon="10.1354940">
	<ele>1502.40</ele>
	<time>2024-09-06T06:51:24.000Z</time>
</trkpt>
<trkpt lat="46.1398160" lon="10.1355130">
	<ele>1502.40</ele>
	<time>2024-09-06T06:51:25.000Z</time>
</trkpt>
<trkpt lat="46.1398190" lon="10.1355230">
	<ele>1502.60</ele>
	<time>2024-09-06T06:51:26.000Z</time>
</trkpt>
<trkpt lat="46.1398180" lon="10.1355240">
	<ele>1502.80</ele>
	<time>2024-09-06T06:51:27.000Z</time>
</trkpt>
<trkpt lat="46.1398160" lon="10.1355340">
	<ele>1503.00</ele>
	<time>2024-09-06T06:51:28.000Z</time>
</trkpt>
<trkpt lat="46.1398120" lon="10.1355390">
	<ele>1503.20</ele>
	<time>2024-09-06T06:51:29.000Z</time>
</trkpt>
<trkpt lat="46.1398100" lon="10.1355510">
	<ele>1503.20</ele>
	<time>2024-09-06T06:51:30.000Z</time>
</trkpt>
<trkpt lat="46.1398030" lon="10.1355550">
	<ele>1503.40</ele>
	<time>2024-09-06T06:51:31.000Z</time>
</trkpt>
<trkpt lat="46.1397960" lon="10.1355540">
	<ele>1503.40</ele>
	<time>2024-09-06T06:51:32.000Z</time>
</trkpt>
<trkpt lat="46.1397910" lon="10.1355500">
	<ele>1503.60</ele>
	<time>2024-09-06T06:51:33.000Z</time>
</trkpt>
<trkpt lat="46.1397910" lon="10.1355460">
	<ele>1503.60</ele>
	<time>2024-09-06T06:51:34.000Z</time>
</trkpt>
<trkpt lat="46.1397900" lon="10.1355300">
	<ele>1503.60</ele>
	<time>2024-09-06T06:51:35.000Z</time>
</trkpt>
<trkpt lat="46.1397810" lon="10.1355230">
	<ele>1503.80</ele>
	<time>2024-09-06T06:51:36.000Z</time>
</trkpt>
<trkpt lat="46.1397740" lon="10.1355250">
	<ele>1503.80</ele>
	<time>2024-09-06T06:51:37.000Z</time>
</trkpt>
<trkpt lat="46.1397710" lon="10.1355260">
	<ele>1504.00</ele>
	<time>2024-09-06T06:51:38.000Z</time>
</trkpt>
<trkpt lat="46.1397710" lon="10.1355250">
	<ele>1504.20</ele>
	<time>2024-09-06T06:51:39.000Z</time>
</trkpt>
<trkpt lat="46.1397760" lon="10.1355120">
	<ele>1504.40</ele>
	<time>2024-09-06T06:51:40.000Z</time>
</trkpt>
<trkpt lat="46.1397750" lon="10.1355100">
	<ele>1504.60</ele>
	<time>2024-09-06T06:51:41.000Z</time>
</trkpt>
<trkpt lat="46.1397730" lon="10.1355010">
	<ele>1504.60</ele>
	<time>2024-09-06T06:51:42.000Z</time>
</trkpt>
<trkpt lat="46.1397710" lon="10.1354910">
	<ele>1504.60</ele>
	<time>2024-09-06T06:51:43.000Z</time>
</trkpt>
<trkpt lat="46.1397730" lon="10.1354820">
	<ele>1504.60</ele>
	<time>2024-09-06T06:51:44.000Z</time>
</trkpt>
<trkpt lat="46.1397710" lon="10.1354790">
	<ele>1504.80</ele>
	<time>2024-09-06T06:51:45.000Z</time>
</trkpt>
<trkpt lat="46.1397650" lon="10.1354690">
	<ele>1504.80</ele>
	<time>2024-09-06T06:51:46.000Z</time>
</trkpt>
<trkpt lat="46.1397570" lon="10.1354470">
	<ele>1504.80</ele>
	<time>2024-09-06T06:51:47.000Z</time>
</trkpt>
<trkpt lat="46.1397570" lon="10.1354340">
	<ele>1505.00</ele>
	<time>2024-09-06T06:51:48.000Z</time>
</trkpt>
<trkpt lat="46.1397560" lon="10.1354270">
	<ele>1505.20</ele>
	<time>2024-09-06T06:51:49.000Z</time>
</trkpt>
<trkpt lat="46.1397560" lon="10.1354190">
	<ele>1505.20</ele>
	<time>2024-09-06T06:51:50.000Z</time>
</trkpt>
<trkpt lat="46.1397590" lon="10.1354080">
	<ele>1505.20</ele>
	<time>2024-09-06T06:51:51.000Z</time>
</trkpt>
<trkpt lat="46.1397650" lon="10.1353950">
	<ele>1505.40</ele>
	<time>2024-09-06T06:51:52.000Z</time>
</trkpt>
<trkpt lat="46.1397660" lon="10.1353860">
	<ele>1505.40</ele>
	<time>2024-09-06T06:51:53.000Z</time>
</trkpt>
<trkpt lat="46.1397650" lon="10.1353750">
	<ele>1505.40</ele>
	<time>2024-09-06T06:51:54.000Z</time>
</trkpt>
<trkpt lat="46.1397640" lon="10.1353710">
	<ele>1505.60</ele>
	<time>2024-09-06T06:51:55.000Z</time>
</trkpt>
<trkpt lat="46.1397590" lon="10.1353690">
	<ele>1505.60</ele>
	<time>2024-09-06T06:51:56.000Z</time>
</trkpt>
<trkpt lat="46.1397540" lon="10.1353660">
	<ele>1505.60</ele>
	<time>2024-09-06T06:51:57.000Z</time>
</trkpt>
<trkpt lat="46.1397490" lon="10.1353680">
	<ele>1505.80</ele>
	<time>2024-09-06T06:51:58.000Z</time>
</trkpt>
<trkpt lat="46.1397460" lon="10.1353650">
	<ele>1505.80</ele>
	<time>2024-09-06T06:51:59.000Z</time>
</trkpt>
<trkpt lat="46.1397530" lon="10.1353580">
	<ele>1506.00</ele>
	<time>2024-09-06T06:52:00.000Z</time>
</trkpt>
<trkpt lat="46.1397560" lon="10.1353500">
	<ele>1506.20</ele>
	<time>2024-09-06T06:52:01.000Z</time>
</trkpt>
<trkpt lat="46.1397610" lon="10.1353380">
	<ele>1506.40</ele>
	<time>2024-09-06T06:52:02.000Z</time>
</trkpt>
<trkpt lat="46.1397590" lon="10.1353280">
	<ele>1506.40</ele>
	<time>2024-09-06T06:52:03.000Z</time>
</trkpt>
<trkpt lat="46.1397560" lon="10.1353200">
	<ele>1506.40</ele>
	<time>2024-09-06T06:52:04.000Z</time>
</trkpt>
<trkpt lat="46.1397530" lon="10.1353150">
	<ele>1506.60</ele>
	<time>2024-09-06T06:52:05.000Z</time>
</trkpt>
<trkpt lat="46.1397530" lon="10.1353060">
	<ele>1506.80</ele>
	<time>2024-09-06T06:52:06.000Z</time>
</trkpt>
<trkpt lat="46.1397450" lon="10.1352920">
	<ele>1507.00</ele>
	<time>2024-09-06T06:52:07.000Z</time>
</trkpt>
<trkpt lat="46.1397370" lon="10.1352840">
	<ele>1507.20</ele>
	<time>2024-09-06T06:52:08.000Z</time>
</trkpt>
<trkpt lat="46.1397300" lon="10.1352800">
	<ele>1507.20</ele>
	<time>2024-09-06T06:52:09.000Z</time>
</trkpt>
<trkpt lat="46.1397270" lon="10.1352740">
	<ele>1507.60</ele>
	<time>2024-09-06T06:52:10.000Z</time>
</trkpt>
<trkpt lat="46.1397260" lon="10.1352700">
	<ele>1507.80</ele>
	<time>2024-09-06T06:52:11.000Z</time>
</trkpt>
<trkpt lat="46.1397220" lon="10.1352630">
	<ele>1508.00</ele>
	<time>2024-09-06T06:52:12.000Z</time>
</trkpt>
<trkpt lat="46.1397150" lon="10.1352540">
	<ele>1508.20</ele>
	<time>2024-09-06T06:52:13.000Z</time>
</trkpt>
<trkpt lat="46.1397090" lon="10.1352450">
	<ele>1508.20</ele>
	<time>2024-09-06T06:52:14.000Z</time>
</trkpt>
<trkpt lat="46.1397090" lon="10.1352350">
	<ele>1508.20</ele>
	<time>2024-09-06T06:52:15.000Z</time>
</trkpt>
<trkpt lat="46.1397130" lon="10.1352290">
	<ele>1508.40</ele>
	<time>2024-09-06T06:52:16.000Z</time>
</trkpt>
<trkpt lat="46.1397130" lon="10.1352240">
	<ele>1508.60</ele>
	<time>2024-09-06T06:52:17.000Z</time>
</trkpt>
<trkpt lat="46.1397070" lon="10.1352190">
	<ele>1509.00</ele>
	<time>2024-09-06T06:52:18.000Z</time>
</trkpt>
<trkpt lat="46.1396930" lon="10.1352110">
	<ele>1509.20</ele>
	<time>2024-09-06T06:52:19.000Z</time>
</trkpt>
<trkpt lat="46.1396780" lon="10.1352030">
	<ele>1509.40</ele>
	<time>2024-09-06T06:52:20.000Z</time>
</trkpt>
<trkpt lat="46.1396660" lon="10.1352030">
	<ele>1509.60</ele>
	<time>2024-09-06T06:52:21.000Z</time>
</trkpt>
<trkpt lat="46.1396590" lon="10.1351960">
	<ele>1509.60</ele>
	<time>2024-09-06T06:52:22.000Z</time>
</trkpt>
<trkpt lat="46.1396510" lon="10.1351870">
	<ele>1509.80</ele>
	<time>2024-09-06T06:52:23.000Z</time>
</trkpt>
<trkpt lat="46.1396500" lon="10.1351780">
	<ele>1510.00</ele>
	<time>2024-09-06T06:52:24.000Z</time>
</trkpt>
<trkpt lat="46.1396480" lon="10.1351690">
	<ele>1510.20</ele>
	<time>2024-09-06T06:52:25.000Z</time>
</trkpt>
<trkpt lat="46.1396410" lon="10.1351640">
	<ele>1510.40</ele>
	<time>2024-09-06T06:52:26.000Z</time>
</trkpt>
<trkpt lat="46.1396290" lon="10.1351580">
	<ele>1510.80</ele>
	<time>2024-09-06T06:52:27.000Z</time>
</trkpt>
<trkpt lat="46.1396240" lon="10.1351480">
	<ele>1510.80</ele>
	<time>2024-09-06T06:52:28.000Z</time>
</trkpt>
<trkpt lat="46.1396210" lon="10.1351420">
	<ele>1511.00</ele>
	<time>2024-09-06T06:52:29.000Z</time>
</trkpt>
<trkpt lat="46.1396230" lon="10.1351340">
	<ele>1511.20</ele>
	<time>2024-09-06T06:52:30.000Z</time>
</trkpt>
<trkpt lat="46.1396250" lon="10.1351250">
	<ele>1511.20</ele>
	<time>2024-09-06T06:52:31.000Z</time>
</trkpt>
<trkpt lat="46.1396150" lon="10.1351180">
	<ele>1511.40</ele>
	<time>2024-09-06T06:52:32.000Z</time>
</trkpt>
<trkpt lat="46.1396030" lon="10.1351110">
	<ele>1511.40</ele>
	<time>2024-09-06T06:52:33.000Z</time>
</trkpt>
<trkpt lat="46.1396000" lon="10.1351130">
	<ele>1511.80</ele>
	<time>2024-09-06T06:52:34.000Z</time>
</trkpt>
<trkpt lat="46.1395980" lon="10.1351130">
	<ele>1512.00</ele>
	<time>2024-09-06T06:52:35.000Z</time>
</trkpt>
<trkpt lat="46.1395930" lon="10.1351100">
	<ele>1512.20</ele>
	<time>2024-09-06T06:52:36.000Z</time>
</trkpt>
<trkpt lat="46.1395830" lon="10.1351020">
	<ele>1512.40</ele>
	<time>2024-09-06T06:52:37.000Z</time>
</trkpt>
<trkpt lat="46.1395750" lon="10.1350940">
	<ele>1512.60</ele>
	<time>2024-09-06T06:52:38.000Z</time>
</trkpt>
<trkpt lat="46.1395710" lon="10.1350900">
	<ele>1513.00</ele>
	<time>2024-09-06T06:52:39.000Z</time>
</trkpt>
<trkpt lat="46.1395690" lon="10.1350900">
	<ele>1513.20</ele>
	<time>2024-09-06T06:52:40.000Z</time>
</trkpt>
<trkpt lat="46.1395580" lon="10.1350790">
	<ele>1513.20</ele>
	<time>2024-09-06T06:52:41.000Z</time>
</trkpt>
<trkpt lat="46.1395560" lon="10.1350780">
	<ele>1513.40</ele>
	<time>2024-09-06T06:52:42.000Z</time>
</trkpt>
<trkpt lat="46.1395530" lon="10.1350790">
	<ele>1513.60</ele>
	<time>2024-09-06T06:52:43.000Z</time>
</trkpt>
<trkpt lat="46.1395350" lon="10.1350700">
	<ele>1513.60</ele>
	<time>2024-09-06T06:52:44.000Z</time>
</trkpt>
<trkpt lat="46.1395240" lon="10.1350690">
	<ele>1513.80</ele>
	<time>2024-09-06T06:52:45.000Z</time>
</trkpt>
<trkpt lat="46.1395140" lon="10.1350740">
	<ele>1513.80</ele>
	<time>2024-09-06T06:52:46.000Z</time>
</trkpt>
<trkpt lat="46.1395010" lon="10.1350830">
	<ele>1513.80</ele>
	<time>2024-09-06T06:52:47.000Z</time>
</trkpt>
<trkpt lat="46.1394930" lon="10.1350880">
	<ele>1514.00</ele>
	<time>2024-09-06T06:52:48.000Z</time>
</trkpt>
<trkpt lat="46.1394880" lon="10.1350920">
	<ele>1514.20</ele>
	<time>2024-09-06T06:52:49.000Z</time>
</trkpt>
<trkpt lat="46.1394860" lon="10.1350910">
	<ele>1514.40</ele>
	<time>2024-09-06T06:52:50.000Z</time>
</trkpt>
<trkpt lat="46.1394840" lon="10.1350900">
	<ele>1514.60</ele>
	<time>2024-09-06T06:52:51.000Z</time>
</trkpt>
<trkpt lat="46.1394780" lon="10.1350850">
	<ele>1514.60</ele>
	<time>2024-09-06T06:52:52.000Z</time>
</trkpt>
<trkpt lat="46.1394720" lon="10.1350830">
	<ele>1515.00</ele>
	<time>2024-09-06T06:52:53.000Z</time>
</trkpt>
<trkpt lat="46.1394670" lon="10.1350860">
	<ele>1515.00</ele>
	<time>2024-09-06T06:52:54.000Z</time>
</trkpt>
<trkpt lat="46.1394630" lon="10.1350880">
	<ele>1515.20</ele>
	<time>2024-09-06T06:52:55.000Z</time>
</trkpt>
<trkpt lat="46.1394470" lon="10.1350790">
	<ele>1515.40</ele>
	<time>2024-09-06T06:52:56.000Z</time>
</trkpt>
<trkpt lat="46.1394400" lon="10.1350790">
	<ele>1515.60</ele>
	<time>2024-09-06T06:52:57.000Z</time>
</trkpt>
<trkpt lat="46.1394280" lon="10.1350740">
	<ele>1515.80</ele>
	<time>2024-09-06T06:52:58.000Z</time>
</trkpt>
<trkpt lat="46.1394180" lon="10.1350770">
	<ele>1516.00</ele>
	<time>2024-09-06T06:52:59.000Z</time>
</trkpt>
<trkpt lat="46.1394150" lon="10.1350790">
	<ele>1516.00</ele>
	<time>2024-09-06T06:53:00.000Z</time>
</trkpt>
<trkpt lat="46.1394100" lon="10.1350700">
	<ele>1516.20</ele>
	<time>2024-09-06T06:53:01.000Z</time>
</trkpt>
<trkpt lat="46.1393990" lon="10.1350680">
	<ele>1516.40</ele>
	<time>2024-09-06T06:53:02.000Z</time>
</trkpt>
<trkpt lat="46.1393840" lon="10.1350640">
	<ele>1516.60</ele>
	<time>2024-09-06T06:53:03.000Z</time>
</trkpt>
<trkpt lat="46.1393680" lon="10.1350490">
	<ele>1516.80</ele>
	<time>2024-09-06T06:53:04.000Z</time>
</trkpt>
<trkpt lat="46.1393540" lon="10.1350350">
	<ele>1516.80</ele>
	<time>2024-09-06T06:53:05.000Z</time>
</trkpt>
<trkpt lat="46.1393440" lon="10.1350180">
	<ele>1517.00</ele>
	<time>2024-09-06T06:53:06.000Z</time>
</trkpt>
<trkpt lat="46.1393340" lon="10.1350090">
	<ele>1517.20</ele>
	<time>2024-09-06T06:53:07.000Z</time>
</trkpt>
<trkpt lat="46.1393250" lon="10.1350090">
	<ele>1517.40</ele>
	<time>2024-09-06T06:53:08.000Z</time>
</trkpt>
<trkpt lat="46.1393200" lon="10.1350110">
	<ele>1517.60</ele>
	<time>2024-09-06T06:53:09.000Z</time>
</trkpt>
<trkpt lat="46.1393090" lon="10.1350080">
	<ele>1517.80</ele>
	<time>2024-09-06T06:53:10.000Z</time>
</trkpt>
<trkpt lat="46.1393040" lon="10.1350080">
	<ele>1517.80</ele>
	<time>2024-09-06T06:53:11.000Z</time>
</trkpt>
<trkpt lat="46.1392980" lon="10.1350110">
	<ele>1518.00</ele>
	<time>2024-09-06T06:53:12.000Z</time>
</trkpt>
<trkpt lat="46.1392840" lon="10.1350040">
	<ele>1518.20</ele>
	<time>2024-09-06T06:53:13.000Z</time>
</trkpt>
<trkpt lat="46.1392780" lon="10.1350040">
	<ele>1518.40</ele>
	<time>2024-09-06T06:53:14.000Z</time>
</trkpt>
<trkpt lat="46.1392760" lon="10.1350020">
	<ele>1518.60</ele>
	<time>2024-09-06T06:53:15.000Z</time>
</trkpt>
<trkpt lat="46.1392680" lon="10.1350000">
	<ele>1519.00</ele>
	<time>2024-09-06T06:53:16.000Z</time>
</trkpt>
<trkpt lat="46.1392610" lon="10.1349920">
	<ele>1519.20</ele>
	<time>2024-09-06T06:53:17.000Z</time>
</trkpt>
<trkpt lat="46.1392500" lon="10.1349810">
	<ele>1519.40</ele>
	<time>2024-09-06T06:53:18.000Z</time>
</trkpt>
<trkpt lat="46.1392400" lon="10.1349680">
	<ele>1519.60</ele>
	<time>2024-09-06T06:53:19.000Z</time>
</trkpt>
<trkpt lat="46.1392330" lon="10.1349640">
	<ele>1519.60</ele>
	<time>2024-09-06T06:53:20.000Z</time>
</trkpt>
<trkpt lat="46.1392280" lon="10.1349600">
	<ele>1519.80</ele>
	<time>2024-09-06T06:53:21.000Z</time>
</trkpt>
<trkpt lat="46.1392240" lon="10.1349590">
	<ele>1519.80</ele>
	<time>2024-09-06T06:53:22.000Z</time>
</trkpt>
<trkpt lat="46.1392240" lon="10.1349620">
	<ele>1520.00</ele>
	<time>2024-09-06T06:53:23.000Z</time>
</trkpt>
<trkpt lat="46.1392230" lon="10.1349610">
	<ele>1520.00</ele>
	<time>2024-09-06T06:53:24.000Z</time>
</trkpt>
<trkpt lat="46.1392200" lon="10.1349600">
	<ele>1520.20</ele>
	<time>2024-09-06T06:53:25.000Z</time>
</trkpt>
<trkpt lat="46.1392130" lon="10.1349600">
	<ele>1520.40</ele>
	<time>2024-09-06T06:53:26.000Z</time>
</trkpt>
<trkpt lat="46.1392060" lon="10.1349620">
	<ele>1520.40</ele>
	<time>2024-09-06T06:53:27.000Z</time>
</trkpt>
<trkpt lat="46.1392010" lon="10.1349580">
	<ele>1520.60</ele>
	<time>2024-09-06T06:53:28.000Z</time>
</trkpt>
<trkpt lat="46.1391950" lon="10.1349550">
	<ele>1521.00</ele>
	<time>2024-09-06T06:53:29.000Z</time>
</trkpt>
<trkpt lat="46.1391850" lon="10.1349570">
	<ele>1521.00</ele>
	<time>2024-09-06T06:53:30.000Z</time>
</trkpt>
<trkpt lat="46.1391720" lon="10.1349640">
	<ele>1521.20</ele>
	<time>2024-09-06T06:53:31.000Z</time>
</trkpt>
<trkpt lat="46.1391600" lon="10.1349700">
	<ele>1521.40</ele>
	<time>2024-09-06T06:53:32.000Z</time>
</trkpt>
<trkpt lat="46.1391510" lon="10.1349770">
	<ele>1521.60</ele>
	<time>2024-09-06T06:53:33.000Z</time>
</trkpt>
<trkpt lat="46.1391420" lon="10.1349780">
	<ele>1521.80</ele>
	<time>2024-09-06T06:53:34.000Z</time>
</trkpt>
<trkpt lat="46.1391360" lon="10.1349810">
	<ele>1522.00</ele>
	<time>2024-09-06T06:53:35.000Z</time>
</trkpt>
<trkpt lat="46.1391300" lon="10.1349890">
	<ele>1522.20</ele>
	<time>2024-09-06T06:53:36.000Z</time>
</trkpt>
<trkpt lat="46.1391230" lon="10.1349950">
	<ele>1522.40</ele>
	<time>2024-09-06T06:53:37.000Z</time>
</trkpt>
<trkpt lat="46.1391170" lon="10.1349960">
	<ele>1522.40</ele>
	<time>2024-09-06T06:53:38.000Z</time>
</trkpt>
<trkpt lat="46.1391100" lon="10.1349950">
	<ele>1522.60</ele>
	<time>2024-09-06T06:53:39.000Z</time>
</trkpt>
<trkpt lat="46.1391030" lon="10.1349900">
	<ele>1522.80</ele>
	<time>2024-09-06T06:53:40.000Z</time>
</trkpt>
<trkpt lat="46.1390930" lon="10.1349820">
	<ele>1522.80</ele>
	<time>2024-09-06T06:53:41.000Z</time>
</trkpt>
<trkpt lat="46.1390870" lon="10.1349770">
	<ele>1523.20</ele>
	<time>2024-09-06T06:53:42.000Z</time>
</trkpt>
<trkpt lat="46.1390840" lon="10.1349750">
	<ele>1523.40</ele>
	<time>2024-09-06T06:53:43.000Z</time>
</trkpt>
<trkpt lat="46.1390770" lon="10.1349640">
	<ele>1523.60</ele>
	<time>2024-09-06T06:53:44.000Z</time>
</trkpt>
<trkpt lat="46.1390640" lon="10.1349540">
	<ele>1523.80</ele>
	<time>2024-09-06T06:53:45.000Z</time>
</trkpt>
<trkpt lat="46.1390520" lon="10.1349420">
	<ele>1523.80</ele>
	<time>2024-09-06T06:53:46.000Z</time>
</trkpt>
<trkpt lat="46.1390480" lon="10.1349370">
	<ele>1524.00</ele>
	<time>2024-09-06T06:53:47.000Z</time>
</trkpt>
<trkpt lat="46.1390450" lon="10.1349470">
	<ele>1524.40</ele>
	<time>2024-09-06T06:53:48.000Z</time>
</trkpt>
<trkpt lat="46.1390420" lon="10.1349540">
	<ele>1524.60</ele>
	<time>2024-09-06T06:53:49.000Z</time>
</trkpt>
<trkpt lat="46.1390350" lon="10.1349460">
	<ele>1525.00</ele>
	<time>2024-09-06T06:53:50.000Z</time>
</trkpt>
<trkpt lat="46.1390320" lon="10.1349390">
	<ele>1525.20</ele>
	<time>2024-09-06T06:53:51.000Z</time>
</trkpt>
<trkpt lat="46.1390290" lon="10.1349390">
	<ele>1525.40</ele>
	<time>2024-09-06T06:53:52.000Z</time>
</trkpt>
<trkpt lat="46.1390240" lon="10.1349380">
	<ele>1525.60</ele>
	<time>2024-09-06T06:53:53.000Z</time>
</trkpt>
<trkpt lat="46.1390240" lon="10.1349310">
	<ele>1525.80</ele>
	<time>2024-09-06T06:53:54.000Z</time>
</trkpt>
<trkpt lat="46.1390190" lon="10.1349200">
	<ele>1526.00</ele>
	<time>2024-09-06T06:53:55.000Z</time>
</trkpt>
<trkpt lat="46.1390160" lon="10.1349150">
	<ele>1526.00</ele>
	<time>2024-09-06T06:53:56.000Z</time>
</trkpt>
<trkpt lat="46.1390140" lon="10.1349100">
	<ele>1526.20</ele>
	<time>2024-09-06T06:53:57.000Z</time>
</trkpt>
<trkpt lat="46.1390120" lon="10.1349130">
	<ele>1526.40</ele>
	<time>2024-09-06T06:53:58.000Z</time>
</trkpt>
<trkpt lat="46.1390050" lon="10.1349180">
	<ele>1526.60</ele>
	<time>2024-09-06T06:53:59.000Z</time>
</trkpt>
<trkpt lat="46.1390010" lon="10.1349290">
	<ele>1526.60</ele>
	<time>2024-09-06T06:54:00.000Z</time>
</trkpt>
<trkpt lat="46.1389930" lon="10.1349140">
	<ele>1527.00</ele>
	<time>2024-09-06T06:54:01.000Z</time>
</trkpt>
<trkpt lat="46.1389820" lon="10.1349100">
	<ele>1527.20</ele>
	<time>2024-09-06T06:54:02.000Z</time>
</trkpt>
<trkpt lat="46.1389740" lon="10.1349050">
	<ele>1527.40</ele>
	<time>2024-09-06T06:54:03.000Z</time>
</trkpt>
<trkpt lat="46.1389710" lon="10.1348930">
	<ele>1527.60</ele>
	<time>2024-09-06T06:54:04.000Z</time>
</trkpt>
<trkpt lat="46.1389680" lon="10.1348870">
	<ele>1527.60</ele>
	<time>2024-09-06T06:54:05.000Z</time>
</trkpt>
<trkpt lat="46.1389660" lon="10.1348870">
	<ele>1527.80</ele>
	<time>2024-09-06T06:54:06.000Z</time>
</trkpt>
<trkpt lat="46.1389620" lon="10.1348930">
	<ele>1528.00</ele>
	<time>2024-09-06T06:54:07.000Z</time>
</trkpt>
<trkpt lat="46.1389630" lon="10.1348940">
	<ele>1528.20</ele>
	<time>2024-09-06T06:54:08.000Z</time>
</trkpt>
<trkpt lat="46.1389610" lon="10.1348910">
	<ele>1528.40</ele>
	<time>2024-09-06T06:54:09.000Z</time>
</trkpt>
<trkpt lat="46.1389570" lon="10.1348930">
	<ele>1528.60</ele>
	<time>2024-09-06T06:54:10.000Z</time>
</trkpt>
<trkpt lat="46.1389480" lon="10.1348890">
	<ele>1528.60</ele>
	<time>2024-09-06T06:54:11.000Z</time>
</trkpt>
<trkpt lat="46.1389450" lon="10.1348890">
	<ele>1528.80</ele>
	<time>2024-09-06T06:54:12.000Z</time>
</trkpt>
<trkpt lat="46.1389420" lon="10.1348960">
	<ele>1529.00</ele>
	<time>2024-09-06T06:54:13.000Z</time>
</trkpt>
<trkpt lat="46.1389360" lon="10.1349020">
	<ele>1529.00</ele>
	<time>2024-09-06T06:54:14.000Z</time>
</trkpt>
<trkpt lat="46.1389330" lon="10.1349090">
	<ele>1529.20</ele>
	<time>2024-09-06T06:54:15.000Z</time>
</trkpt>
<trkpt lat="46.1389310" lon="10.1349080">
	<ele>1529.40</ele>
	<time>2024-09-06T06:54:16.000Z</time>
</trkpt>
<trkpt lat="46.1389240" lon="10.1349000">
	<ele>1529.60</ele>
	<time>2024-09-06T06:54:17.000Z</time>
</trkpt>
<trkpt lat="46.1389180" lon="10.1348980">
	<ele>1529.80</ele>
	<time>2024-09-06T06:54:18.000Z</time>
</trkpt>
<trkpt lat="46.1389130" lon="10.1348980">
	<ele>1529.80</ele>
	<time>2024-09-06T06:54:19.000Z</time>
</trkpt>
<trkpt lat="46.1389100" lon="10.1348890">
	<ele>1530.00</ele>
	<time>2024-09-06T06:54:20.000Z</time>
</trkpt>
<trkpt lat="46.1389080" lon="10.1348780">
	<ele>1530.20</ele>
	<time>2024-09-06T06:54:21.000Z</time>
</trkpt>
<trkpt lat="46.1389030" lon="10.1348770">
	<ele>1530.40</ele>
	<time>2024-09-06T06:54:22.000Z</time>
</trkpt>
<trkpt lat="46.1389060" lon="10.1348850">
	<ele>1530.60</ele>
	<time>2024-09-06T06:54:23.000Z</time>
</trkpt>
<trkpt lat="46.1389070" lon="10.1348990">
	<ele>1530.80</ele>
	<time>2024-09-06T06:54:24.000Z</time>
</trkpt>
<trkpt lat="46.1389060" lon="10.1349090">
	<ele>1530.80</ele>
	<time>2024-09-06T06:54:25.000Z</time>
</trkpt>
<trkpt lat="46.1389060" lon="10.1349150">
	<ele>1531.00</ele>
	<time>2024-09-06T06:54:26.000Z</time>
</trkpt>
<trkpt lat="46.1389080" lon="10.1349360">
	<ele>1531.00</ele>
	<time>2024-09-06T06:54:27.000Z</time>
</trkpt>
<trkpt lat="46.1389150" lon="10.1349480">
	<ele>1531.20</ele>
	<time>2024-09-06T06:54:28.000Z</time>
</trkpt>
<trkpt lat="46.1389210" lon="10.1349560">
	<ele>1531.20</ele>
	<time>2024-09-06T06:54:29.000Z</time>
</trkpt>
<trkpt lat="46.1389170" lon="10.1349600">
	<ele>1531.60</ele>
	<time>2024-09-06T06:54:30.000Z</time>
</trkpt>
<trkpt lat="46.1389160" lon="10.1349690">
	<ele>1531.80</ele>
	<time>2024-09-06T06:54:31.000Z</time>
</trkpt>
<trkpt lat="46.1389160" lon="10.1349800">
	<ele>1532.00</ele>
	<time>2024-09-06T06:54:32.000Z</time>
</trkpt>
<trkpt lat="46.1389220" lon="10.1350000">
	<ele>1532.20</ele>
	<time>2024-09-06T06:54:33.000Z</time>
</trkpt>
<trkpt lat="46.1389230" lon="10.1350030">
	<ele>1532.40</ele>
	<time>2024-09-06T06:54:34.000Z</time>
</trkpt>
<trkpt lat="46.1389340" lon="10.1350140">
	<ele>1532.40</ele>
	<time>2024-09-06T06:54:35.000Z</time>
</trkpt>
<trkpt lat="46.1389440" lon="10.1350210">
	<ele>1532.60</ele>
	<time>2024-09-06T06:54:36.000Z</time>
</trkpt>
<trkpt lat="46.1389550" lon="10.1350260">
	<ele>1532.80</ele>
	<time>2024-09-06T06:54:37.000Z</time>
</trkpt>
<trkpt lat="46.1389620" lon="10.1350350">
	<ele>1533.00</ele>
	<time>2024-09-06T06:54:38.000Z</time>
</trkpt>
<trkpt lat="46.1389620" lon="10.1350490">
	<ele>1533.20</ele>
	<time>2024-09-06T06:54:39.000Z</time>
</trkpt>
<trkpt lat="46.1389630" lon="10.1350590">
	<ele>1533.40</ele>
	<time>2024-09-06T06:54:40.000Z</time>
</trkpt>
<trkpt lat="46.1389670" lon="10.1350620">
	<ele>1533.40</ele>
	<time>2024-09-06T06:54:41.000Z</time>
</trkpt>
<trkpt lat="46.1389620" lon="10.1350720">
	<ele>1533.60</ele>
	<time>2024-09-06T06:54:42.000Z</time>
</trkpt>
<trkpt lat="46.1389580" lon="10.1350830">
	<ele>1533.60</ele>
	<time>2024-09-06T06:54:43.000Z</time>
</trkpt>
<trkpt lat="46.1389580" lon="10.1350880">
	<ele>1533.60</ele>
	<time>2024-09-06T06:54:44.000Z</time>
</trkpt>
<trkpt lat="46.1389450" lon="10.1350790">
	<ele>1534.00</ele>
	<time>2024-09-06T06:54:45.000Z</time>
</trkpt>
<trkpt lat="46.1389420" lon="10.1350770">
	<ele>1534.20</ele>
	<time>2024-09-06T06:54:46.000Z</time>
</trkpt>
<trkpt lat="46.1389420" lon="10.1350720">
	<ele>1534.40</ele>
	<time>2024-09-06T06:54:47.000Z</time>
</trkpt>
<trkpt lat="46.1389430" lon="10.1350790">
	<ele>1534.80</ele>
	<time>2024-09-06T06:54:48.000Z</time>
</trkpt>
<trkpt lat="46.1389490" lon="10.1350870">
	<ele>1534.80</ele>
	<time>2024-09-06T06:54:49.000Z</time>
</trkpt>
<trkpt lat="46.1389520" lon="10.1350980">
	<ele>1535.00</ele>
	<time>2024-09-06T06:54:50.000Z</time>
</trkpt>
<trkpt lat="46.1389590" lon="10.1351060">
	<ele>1535.20</ele>
	<time>2024-09-06T06:54:51.000Z</time>
</trkpt>
<trkpt lat="46.1389620" lon="10.1351120">
	<ele>1535.20</ele>
	<time>2024-09-06T06:54:52.000Z</time>
</trkpt>
<trkpt lat="46.1389630" lon="10.1351210">
	<ele>1535.40</ele>
	<time>2024-09-06T06:54:53.000Z</time>
</trkpt>
<trkpt lat="46.1389620" lon="10.1351270">
	<ele>1535.60</ele>
	<time>2024-09-06T06:54:54.000Z</time>
</trkpt>
<trkpt lat="46.1389590" lon="10.1351410">
	<ele>1535.80</ele>
	<time>2024-09-06T06:54:55.000Z</time>
</trkpt>
<trkpt lat="46.1389570" lon="10.1351510">
	<ele>1535.80</ele>
	<time>2024-09-06T06:54:56.000Z</time>
</trkpt>
<trkpt lat="46.1389550" lon="10.1351570">
	<ele>1536.20</ele>
	<time>2024-09-06T06:54:57.000Z</time>
</trkpt>
<trkpt lat="46.1389550" lon="10.1351680">
	<ele>1536.40</ele>
	<time>2024-09-06T06:54:58.000Z</time>
</trkpt>
<trkpt lat="46.1389530" lon="10.1351770">
	<ele>1536.40</ele>
	<time>2024-09-06T06:54:59.000Z</time>
</trkpt>
<trkpt lat="46.1389540" lon="10.1351810">
	<ele>1536.60</ele>
	<time>2024-09-06T06:55:00.000Z</time>
</trkpt>
<trkpt lat="46.1389610" lon="10.1351850">
	<ele>1536.80</ele>
	<time>2024-09-06T06:55:01.000Z</time>
</trkpt>
<trkpt lat="46.1389590" lon="10.1351870">
	<ele>1537.00</ele>
	<time>2024-09-06T06:55:02.000Z</time>
</trkpt>
<trkpt lat="46.1389590" lon="10.1351910">
	<ele>1537.00</ele>
	<time>2024-09-06T06:55:03.000Z</time>
</trkpt>
<trkpt lat="46.1389570" lon="10.1351920">
	<ele>1537.20</ele>
	<time>2024-09-06T06:55:04.000Z</time>
</trkpt>
<trkpt lat="46.1389590" lon="10.1351950">
	<ele>1537.40</ele>
	<time>2024-09-06T06:55:05.000Z</time>
</trkpt>
<trkpt lat="46.1389640" lon="10.1352040">
	<ele>1537.60</ele>
	<time>2024-09-06T06:55:06.000Z</time>
</trkpt>
<trkpt lat="46.1389700" lon="10.1352190">
	<ele>1537.80</ele>
	<time>2024-09-06T06:55:07.000Z</time>
</trkpt>
<trkpt lat="46.1389780" lon="10.1352300">
	<ele>1538.20</ele>
	<time>2024-09-06T06:55:08.000Z</time>
</trkpt>
<trkpt lat="46.1389860" lon="10.1352380">
	<ele>1538.40</ele>
	<time>2024-09-06T06:55:09.000Z</time>
</trkpt>
<trkpt lat="46.1389950" lon="10.1352450">
	<ele>1538.60</ele>
	<time>2024-09-06T06:55:10.000Z</time>
</trkpt>
<trkpt lat="46.1390010" lon="10.1352540">
	<ele>1538.80</ele>
	<time>2024-09-06T06:55:11.000Z</time>
</trkpt>
<trkpt lat="46.1390030" lon="10.1352580">
	<ele>1539.00</ele>
	<time>2024-09-06T06:55:12.000Z</time>
</trkpt>
<trkpt lat="46.1390000" lon="10.1352660">
	<ele>1539.00</ele>
	<time>2024-09-06T06:55:13.000Z</time>
</trkpt>
<trkpt lat="46.1389990" lon="10.1352720">
	<ele>1539.20</ele>
	<time>2024-09-06T06:55:14.000Z</time>
</trkpt>
<trkpt lat="46.1389970" lon="10.1352800">
	<ele>1539.20</ele>
	<time>2024-09-06T06:55:15.000Z</time>
</trkpt>
<trkpt lat="46.1390110" lon="10.1352910">
	<ele>1539.40</ele>
	<time>2024-09-06T06:55:16.000Z</time>
</trkpt>
<trkpt lat="46.1390210" lon="10.1352970">
	<ele>1539.40</ele>
	<time>2024-09-06T06:55:17.000Z</time>
</trkpt>
<trkpt lat="46.1390220" lon="10.1353020">
	<ele>1539.80</ele>
	<time>2024-09-06T06:55:18.000Z</time>
</trkpt>
<trkpt lat="46.1390220" lon="10.1353050">
	<ele>1540.00</ele>
	<time>2024-09-06T06:55:19.000Z</time>
</trkpt>
<trkpt lat="46.1390170" lon="10.1353150">
	<ele>1540.00</ele>
	<time>2024-09-06T06:55:20.000Z</time>
</trkpt>
<trkpt lat="46.1390170" lon="10.1353210">
	<ele>1540.20</ele>
	<time>2024-09-06T06:55:21.000Z</time>
</trkpt>
<trkpt lat="46.1390120" lon="10.1353300">
	<ele>1540.40</ele>
	<time>2024-09-06T06:55:22.000Z</time>
</trkpt>
<trkpt lat="46.1390050" lon="10.1353450">
	<ele>1540.60</ele>
	<time>2024-09-06T06:55:23.000Z</time>
</trkpt>
<trkpt lat="46.1390050" lon="10.1353560">
	<ele>1540.80</ele>
	<time>2024-09-06T06:55:24.000Z</time>
</trkpt>
<trkpt lat="46.1390090" lon="10.1353630">
	<ele>1540.80</ele>
	<time>2024-09-06T06:55:25.000Z</time>
</trkpt>
<trkpt lat="46.1390120" lon="10.1353660">
	<ele>1541.00</ele>
	<time>2024-09-06T06:55:26.000Z</time>
</trkpt>
<trkpt lat="46.1390090" lon="10.1353800">
	<ele>1541.20</ele>
	<time>2024-09-06T06:55:27.000Z</time>
</trkpt>
<trkpt lat="46.1390040" lon="10.1354010">
	<ele>1541.40</ele>
	<time>2024-09-06T06:55:28.000Z</time>
</trkpt>
<trkpt lat="46.1390010" lon="10.1354180">
	<ele>1541.60</ele>
	<time>2024-09-06T06:55:29.000Z</time>
</trkpt>
<trkpt lat="46.1389970" lon="10.1354180">
	<ele>1541.80</ele>
	<time>2024-09-06T06:55:30.000Z</time>
</trkpt>
<trkpt lat="46.1390000" lon="10.1354220">
	<ele>1542.00</ele>
	<time>2024-09-06T06:55:31.000Z</time>
</trkpt>
<trkpt lat="46.1389990" lon="10.1354280">
	<ele>1542.20</ele>
	<time>2024-09-06T06:55:32.000Z</time>
</trkpt>
<trkpt lat="46.1390040" lon="10.1354370">
	<ele>1542.20</ele>
	<time>2024-09-06T06:55:33.000Z</time>
</trkpt>
<trkpt lat="46.1390110" lon="10.1354510">
	<ele>1542.40</ele>
	<time>2024-09-06T06:55:34.000Z</time>
</trkpt>
<trkpt lat="46.1390160" lon="10.1354600">
	<ele>1542.60</ele>
	<time>2024-09-06T06:55:35.000Z</time>
</trkpt>
<trkpt lat="46.1390100" lon="10.1354650">
	<ele>1542.60</ele>
	<time>2024-09-06T06:55:36.000Z</time>
</trkpt>
<trkpt lat="46.1389960" lon="10.1354690">
	<ele>1543.00</ele>
	<time>2024-09-06T06:55:37.000Z</time>
</trkpt>
<trkpt lat="46.1389810" lon="10.1354780">
	<ele>1543.20</ele>
	<time>2024-09-06T06:55:38.000Z</time>
</trkpt>
<trkpt lat="46.1389770" lon="10.1354820">
	<ele>1543.20</ele>
	<time>2024-09-06T06:55:39.000Z</time>
</trkpt>
<trkpt lat="46.1389750" lon="10.1354850">
	<ele>1543.60</ele>
	<time>2024-09-06T06:55:40.000Z</time>
</trkpt>
<trkpt lat="46.1389740" lon="10.1354880">
	<ele>1543.80</ele>
	<time>2024-09-06T06:55:41.000Z</time>
</trkpt>
<trkpt lat="46.1389810" lon="10.1354880">
	<ele>1544.00</ele>
	<time>2024-09-06T06:55:42.000Z</time>
</trkpt>
<trkpt lat="46.1389950" lon="10.1354890">
	<ele>1544.20</ele>
	<time>2024-09-06T06:55:43.000Z</time>
</trkpt>
<trkpt lat="46.1390030" lon="10.1354950">
	<ele>1544.40</ele>
	<time>2024-09-06T06:55:44.000Z</time>
</trkpt>
<trkpt lat="46.1390080" lon="10.1354990">
	<ele>1544.40</ele>
	<time>2024-09-06T06:55:45.000Z</time>
</trkpt>
<trkpt lat="46.1390080" lon="10.1355090">
	<ele>1544.80</ele>
	<time>2024-09-06T06:55:46.000Z</time>
</trkpt>
<trkpt lat="46.1390070" lon="10.1355280">
	<ele>1545.00</ele>
	<time>2024-09-06T06:55:47.000Z</time>
</trkpt>
<trkpt lat="46.1390110" lon="10.1355470">
	<ele>1545.00</ele>
	<time>2024-09-06T06:55:48.000Z</time>
</trkpt>
<trkpt lat="46.1390190" lon="10.1355540">
	<ele>1545.00</ele>
	<time>2024-09-06T06:55:49.000Z</time>
</trkpt>
<trkpt lat="46.1390260" lon="10.1355610">
	<ele>1545.20</ele>
	<time>2024-09-06T06:55:50.000Z</time>
</trkpt>
<trkpt lat="46.1390320" lon="10.1355670">
	<ele>1545.40</ele>
	<time>2024-09-06T06:55:51.000Z</time>
</trkpt>
<trkpt lat="46.1390430" lon="10.1355770">
	<ele>1545.60</ele>
	<time>2024-09-06T06:55:52.000Z</time>
</trkpt>
<trkpt lat="46.1390500" lon="10.1355880">
	<ele>1545.80</ele>
	<time>2024-09-06T06:55:53.000Z</time>
</trkpt>
<trkpt lat="46.1390550" lon="10.1355960">
	<ele>1546.00</ele>
	<time>2024-09-06T06:55:54.000Z</time>
</trkpt>
<trkpt lat="46.1390550" lon="10.1356040">
	<ele>1546.00</ele>
	<time>2024-09-06T06:55:55.000Z</time>
</trkpt>
<trkpt lat="46.1390600" lon="10.1356030">
	<ele>1546.20</ele>
	<time>2024-09-06T06:55:56.000Z</time>
</trkpt>
<trkpt lat="46.1390620" lon="10.1356080">
	<ele>1546.40</ele>
	<time>2024-09-06T06:55:57.000Z</time>
</trkpt>
<trkpt lat="46.1390580" lon="10.1356150">
	<ele>1546.40</ele>
	<time>2024-09-06T06:55:58.000Z</time>
</trkpt>
<trkpt lat="46.1390560" lon="10.1356280">
	<ele>1546.40</ele>
	<time>2024-09-06T06:55:59.000Z</time>
</trkpt>
<trkpt lat="46.1390610" lon="10.1356390">
	<ele>1546.60</ele>
	<time>2024-09-06T06:56:00.000Z</time>
</trkpt>
<trkpt lat="46.1390650" lon="10.1356500">
	<ele>1546.80</ele>
	<time>2024-09-06T06:56:01.000Z</time>
</trkpt>
<trkpt lat="46.1390630" lon="10.1356550">
	<ele>1547.20</ele>
	<time>2024-09-06T06:56:02.000Z</time>
</trkpt>
<trkpt lat="46.1390630" lon="10.1356640">
	<ele>1547.20</ele>
	<time>2024-09-06T06:56:03.000Z</time>
</trkpt>
<trkpt lat="46.1390640" lon="10.1356730">
	<ele>1547.40</ele>
	<time>2024-09-06T06:56:04.000Z</time>
</trkpt>
<trkpt lat="46.1390580" lon="10.1356820">
	<ele>1547.60</ele>
	<time>2024-09-06T06:56:05.000Z</time>
</trkpt>
<trkpt lat="46.1390590" lon="10.1356940">
	<ele>1547.80</ele>
	<time>2024-09-06T06:56:06.000Z</time>
</trkpt>
<trkpt lat="46.1390750" lon="10.1357150">
	<ele>1548.20</ele>
	<time>2024-09-06T06:56:07.000Z</time>
</trkpt>
<trkpt lat="46.1390900" lon="10.1357230">
	<ele>1548.40</ele>
	<time>2024-09-06T06:56:08.000Z</time>
</trkpt>
<trkpt lat="46.1391010" lon="10.1357260">
	<ele>1548.60</ele>
	<time>2024-09-06T06:56:09.000Z</time>
</trkpt>
<trkpt lat="46.1391070" lon="10.1357250">
	<ele>1548.80</ele>
	<time>2024-09-06T06:56:10.000Z</time>
</trkpt>
<trkpt lat="46.1391120" lon="10.1357240">
	<ele>1549.00</ele>
	<time>2024-09-06T06:56:11.000Z</time>
</trkpt>
<trkpt lat="46.1391050" lon="10.1357220">
	<ele>1549.20</ele>
	<time>2024-09-06T06:56:12.000Z</time>
</trkpt>
<trkpt lat="46.1391080" lon="10.1357250">
	<ele>1549.20</ele>
	<time>2024-09-06T06:56:13.000Z</time>
</trkpt>
<trkpt lat="46.1391140" lon="10.1357300">
	<ele>1549.40</ele>
	<time>2024-09-06T06:56:14.000Z</time>
</trkpt>
<trkpt lat="46.1391230" lon="10.1357380">
	<ele>1549.40</ele>
	<time>2024-09-06T06:56:15.000Z</time>
</trkpt>
<trkpt lat="46.1391280" lon="10.1357510">
	<ele>1549.40</ele>
	<time>2024-09-06T06:56:16.000Z</time>
</trkpt>
<trkpt lat="46.1391290" lon="10.1357610">
	<ele>1549.60</ele>
	<time>2024-09-06T06:56:17.000Z</time>
</trkpt>
<trkpt lat="46.1391290" lon="10.1357650">
	<ele>1550.00</ele>
	<time>2024-09-06T06:56:18.000Z</time>
</trkpt>
<trkpt lat="46.1391280" lon="10.1357670">
	<ele>1550.20</ele>
	<time>2024-09-06T06:56:19.000Z</time>
</trkpt>
<trkpt lat="46.1391290" lon="10.1357740">
	<ele>1550.40</ele>
	<time>2024-09-06T06:56:20.000Z</time>
</trkpt>
<trkpt lat="46.1391360" lon="10.1357740">
	<ele>1550.60</ele>
	<time>2024-09-06T06:56:21.000Z</time>
</trkpt>
<trkpt lat="46.1391410" lon="10.1357800">
	<ele>1550.60</ele>
	<time>2024-09-06T06:56:22.000Z</time>
</trkpt>
<trkpt lat="46.1391430" lon="10.1357840">
	<ele>1550.80</ele>
	<time>2024-09-06T06:56:23.000Z</time>
</trkpt>
<trkpt lat="46.1391420" lon="10.1357920">
	<ele>1551.00</ele>
	<time>2024-09-06T06:56:24.000Z</time>
</trkpt>
<trkpt lat="46.1391400" lon="10.1358010">
	<ele>1551.20</ele>
	<time>2024-09-06T06:56:25.000Z</time>
</trkpt>
<trkpt lat="46.1391370" lon="10.1358130">
	<ele>1551.40</ele>
	<time>2024-09-06T06:56:26.000Z</time>
</trkpt>
<trkpt lat="46.1391310" lon="10.1358210">
	<ele>1551.40</ele>
	<time>2024-09-06T06:56:27.000Z</time>
</trkpt>
<trkpt lat="46.1391320" lon="10.1358220">
	<ele>1551.80</ele>
	<time>2024-09-06T06:56:28.000Z</time>
</trkpt>
<trkpt lat="46.1391330" lon="10.1358250">
	<ele>1552.00</ele>
	<time>2024-09-06T06:56:29.000Z</time>
</trkpt>
<trkpt lat="46.1391370" lon="10.1358330">
	<ele>1552.20</ele>
	<time>2024-09-06T06:56:30.000Z</time>
</trkpt>
<trkpt lat="46.1391440" lon="10.1358330">
	<ele>1552.20</ele>
	<time>2024-09-06T06:56:31.000Z</time>
</trkpt>
<trkpt lat="46.1391460" lon="10.1358420">
	<ele>1552.40</ele>
	<time>2024-09-06T06:56:32.000Z</time>
</trkpt>
<trkpt lat="46.1391480" lon="10.1358610">
	<ele>1552.60</ele>
	<time>2024-09-06T06:56:33.000Z</time>
</trkpt>
<trkpt lat="46.1391560" lon="10.1358780">
	<ele>1552.60</ele>
	<time>2024-09-06T06:56:34.000Z</time>
</trkpt>
<trkpt lat="46.1391610" lon="10.1358900">
	<ele>1553.00</ele>
	<time>2024-09-06T06:56:35.000Z</time>
</trkpt>
<trkpt lat="46.1391620" lon="10.1359000">
	<ele>1553.00</ele>
	<time>2024-09-06T06:56:36.000Z</time>
</trkpt>
<trkpt lat="46.1391640" lon="10.1359110">
	<ele>1553.20</ele>
	<time>2024-09-06T06:56:37.000Z</time>
</trkpt>
<trkpt lat="46.1391700" lon="10.1359230">
	<ele>1553.20</ele>
	<time>2024-09-06T06:56:38.000Z</time>
</trkpt>
<trkpt lat="46.1391710" lon="10.1359410">
	<ele>1553.40</ele>
	<time>2024-09-06T06:56:39.000Z</time>
</trkpt>
<trkpt lat="46.1391700" lon="10.1359580">
	<ele>1553.60</ele>
	<time>2024-09-06T06:56:40.000Z</time>
</trkpt>
<trkpt lat="46.1391710" lon="10.1359700">
	<ele>1553.80</ele>
	<time>2024-09-06T06:56:41.000Z</time>
</trkpt>
<trkpt lat="46.1391700" lon="10.1359860">
	<ele>1554.00</ele>
	<time>2024-09-06T06:56:42.000Z</time>
</trkpt>
<trkpt lat="46.1391670" lon="10.1360030">
	<ele>1554.20</ele>
	<time>2024-09-06T06:56:43.000Z</time>
</trkpt>
<trkpt lat="46.1391700" lon="10.1360170">
	<ele>1554.40</ele>
	<time>2024-09-06T06:56:44.000Z</time>
</trkpt>
<trkpt lat="46.1391740" lon="10.1360260">
	<ele>1554.60</ele>
	<time>2024-09-06T06:56:45.000Z</time>
</trkpt>
<trkpt lat="46.1391770" lon="10.1360340">
	<ele>1554.80</ele>
	<time>2024-09-06T06:56:46.000Z</time>
</trkpt>
<trkpt lat="46.1391790" lon="10.1360470">
	<ele>1555.00</ele>
	<time>2024-09-06T06:56:47.000Z</time>
</trkpt>
<trkpt lat="46.1391800" lon="10.1360580">
	<ele>1555.00</ele>
	<time>2024-09-06T06:56:48.000Z</time>
</trkpt>
<trkpt lat="46.1391800" lon="10.1360690">
	<ele>1555.20</ele>
	<time>2024-09-06T06:56:49.000Z</time>
</trkpt>
<trkpt lat="46.1391790" lon="10.1360760">
	<ele>1555.20</ele>
	<time>2024-09-06T06:56:50.000Z</time>
</trkpt>
<trkpt lat="46.1391770" lon="10.1360800">
	<ele>1555.20</ele>
	<time>2024-09-06T06:56:51.000Z</time>
</trkpt>
<trkpt lat="46.1391740" lon="10.1360890">
	<ele>1555.40</ele>
	<time>2024-09-06T06:56:52.000Z</time>
</trkpt>
<trkpt lat="46.1391620" lon="10.1361020">
	<ele>1555.40</ele>
	<time>2024-09-06T06:56:53.000Z</time>
</trkpt>
<trkpt lat="46.1391650" lon="10.1361210">
	<ele>1555.60</ele>
	<time>2024-09-06T06:56:54.000Z</time>
</trkpt>
<trkpt lat="46.1391700" lon="10.1361370">
	<ele>1555.60</ele>
	<time>2024-09-06T06:56:55.000Z</time>
</trkpt>
<trkpt lat="46.1391760" lon="10.1361520">
	<ele>1555.80</ele>
	<time>2024-09-06T06:56:56.000Z</time>
</trkpt>
<trkpt lat="46.1391830" lon="10.1361640">
	<ele>1556.00</ele>
	<time>2024-09-06T06:56:57.000Z</time>
</trkpt>
<trkpt lat="46.1392020" lon="10.1361770">
	<ele>1556.00</ele>
	<time>2024-09-06T06:56:58.000Z</time>
</trkpt>
<trkpt lat="46.1392150" lon="10.1361890">
	<ele>1556.20</ele>
	<time>2024-09-06T06:56:59.000Z</time>
</trkpt>
<trkpt lat="46.1392210" lon="10.1362040">
	<ele>1556.20</ele>
	<time>2024-09-06T06:57:00.000Z</time>
</trkpt>
<trkpt lat="46.1392200" lon="10.1362160">
	<ele>1556.40</ele>
	<time>2024-09-06T06:57:01.000Z</time>
</trkpt>
<trkpt lat="46.1392180" lon="10.1362320">
	<ele>1556.40</ele>
	<time>2024-09-06T06:57:02.000Z</time>
</trkpt>
<trkpt lat="46.1392200" lon="10.1362490">
	<ele>1556.60</ele>
	<time>2024-09-06T06:57:03.000Z</time>
</trkpt>
<trkpt lat="46.1392220" lon="10.1362640">
	<ele>1556.60</ele>
	<time>2024-09-06T06:57:04.000Z</time>
</trkpt>
<trkpt lat="46.1392260" lon="10.1362850">
	<ele>1556.80</ele>
	<time>2024-09-06T06:57:05.000Z</time>
</trkpt>
<trkpt lat="46.1392260" lon="10.1362940">
	<ele>1556.80</ele>
	<time>2024-09-06T06:57:06.000Z</time>
</trkpt>
<trkpt lat="46.1392270" lon="10.1362990">
	<ele>1557.00</ele>
	<time>2024-09-06T06:57:07.000Z</time>
</trkpt>
<trkpt lat="46.1392180" lon="10.1363010">
	<ele>1557.00</ele>
	<time>2024-09-06T06:57:08.000Z</time>
</trkpt>
<trkpt lat="46.1392070" lon="10.1362980">
	<ele>1557.00</ele>
	<time>2024-09-06T06:57:09.000Z</time>
</trkpt>
<trkpt lat="46.1391970" lon="10.1363080">
	<ele>1557.00</ele>
	<time>2024-09-06T06:57:10.000Z</time>
</trkpt>
<trkpt lat="46.1391840" lon="10.1363220">
	<ele>1557.00</ele>
	<time>2024-09-06T06:57:11.000Z</time>
</trkpt>
<trkpt lat="46.1391820" lon="10.1363270">
	<ele>1557.20</ele>
	<time>2024-09-06T06:57:12.000Z</time>
</trkpt>
<trkpt lat="46.1391860" lon="10.1363210">
	<ele>1557.20</ele>
	<time>2024-09-06T06:57:13.000Z</time>
</trkpt>
<trkpt lat="46.1391870" lon="10.1363210">
	<ele>1557.20</ele>
	<time>2024-09-06T06:57:14.000Z</time>
</trkpt>
<trkpt lat="46.1391860" lon="10.1363200">
	<ele>1557.40</ele>
	<time>2024-09-06T06:57:15.000Z</time>
</trkpt>
<trkpt lat="46.1391860" lon="10.1363370">
	<ele>1557.40</ele>
	<time>2024-09-06T06:57:16.000Z</time>
</trkpt>
<trkpt lat="46.1391850" lon="10.1363500">
	<ele>1557.80</ele>
	<time>2024-09-06T06:57:17.000Z</time>
</trkpt>
<trkpt lat="46.1391880" lon="10.1363500">
	<ele>1558.00</ele>
	<time>2024-09-06T06:57:18.000Z</time>
</trkpt>
<trkpt lat="46.1391860" lon="10.1363580">
	<ele>1558.20</ele>
	<time>2024-09-06T06:57:19.000Z</time>
</trkpt>
<trkpt lat="46.1391840" lon="10.1363690">
	<ele>1558.60</ele>
	<time>2024-09-06T06:57:20.000Z</time>
</trkpt>
<trkpt lat="46.1391860" lon="10.1363750">
	<ele>1558.60</ele>
	<time>2024-09-06T06:57:21.000Z</time>
</trkpt>
<trkpt lat="46.1391860" lon="10.1363790">
	<ele>1558.80</ele>
	<time>2024-09-06T06:57:22.000Z</time>
</trkpt>
<trkpt lat="46.1391840" lon="10.1363880">
	<ele>1559.00</ele>
	<time>2024-09-06T06:57:23.000Z</time>
</trkpt>
<trkpt lat="46.1391830" lon="10.1363960">
	<ele>1559.00</ele>
	<time>2024-09-06T06:57:24.000Z</time>
</trkpt>
<trkpt lat="46.1391830" lon="10.1363970">
	<ele>1559.20</ele>
	<time>2024-09-06T06:57:25.000Z</time>
</trkpt>
<trkpt lat="46.1391810" lon="10.1363980">
	<ele>1559.20</ele>
	<time>2024-09-06T06:57:26.000Z</time>
</trkpt>
<trkpt lat="46.1391840" lon="10.1364070">
	<ele>1559.20</ele>
	<time>2024-09-06T06:57:27.000Z</time>
</trkpt>
<trkpt lat="46.1391880" lon="10.1364200">
	<ele>1559.40</ele>
	<time>2024-09-06T06:57:28.000Z</time>
</trkpt>
<trkpt lat="46.1391890" lon="10.1364290">
	<ele>1559.40</ele>
	<time>2024-09-06T06:57:29.000Z</time>
</trkpt>
<trkpt lat="46.1391910" lon="10.1364400">
	<ele>1559.40</ele>
	<time>2024-09-06T06:57:30.000Z</time>
</trkpt>
<trkpt lat="46.1391960" lon="10.1364480">
	<ele>1559.60</ele>
	<time>2024-09-06T06:57:31.000Z</time>
</trkpt>
<trkpt lat="46.1391980" lon="10.1364480">
	<ele>1559.80</ele>
	<time>2024-09-06T06:57:32.000Z</time>
</trkpt>
<trkpt lat="46.1392020" lon="10.1364510">
	<ele>1559.80</ele>
	<time>2024-09-06T06:57:33.000Z</time>
</trkpt>
<trkpt lat="46.1392060" lon="10.1364620">
	<ele>1559.80</ele>
	<time>2024-09-06T06:57:34.000Z</time>
</trkpt>
<trkpt lat="46.1392100" lon="10.1364700">
	<ele>1560.00</ele>
	<time>2024-09-06T06:57:35.000Z</time>
</trkpt>
<trkpt lat="46.1392170" lon="10.1364910">
	<ele>1560.00</ele>
	<time>2024-09-06T06:57:36.000Z</time>
</trkpt>
<trkpt lat="46.1392240" lon="10.1365150">
	<ele>1560.20</ele>
	<time>2024-09-06T06:57:37.000Z</time>
</trkpt>
<trkpt lat="46.1392290" lon="10.1365270">
	<ele>1560.20</ele>
	<time>2024-09-06T06:57:38.000Z</time>
</trkpt>
<trkpt lat="46.1392360" lon="10.1365360">
	<ele>1560.40</ele>
	<time>2024-09-06T06:57:39.000Z</time>
</trkpt>
<trkpt lat="46.1392440" lon="10.1365480">
	<ele>1560.60</ele>
	<time>2024-09-06T06:57:40.000Z</time>
</trkpt>
<trkpt lat="46.1392530" lon="10.1365570">
	<ele>1560.80</ele>
	<time>2024-09-06T06:57:41.000Z</time>
</trkpt>
<trkpt lat="46.1392640" lon="10.1365700">
	<ele>1560.80</ele>
	<time>2024-09-06T06:57:42.000Z</time>
</trkpt>
<trkpt lat="46.1392730" lon="10.1365810">
	<ele>1561.00</ele>
	<time>2024-09-06T06:57:43.000Z</time>
</trkpt>
<trkpt lat="46.1392810" lon="10.1365920">
	<ele>1561.00</ele>
	<time>2024-09-06T06:57:44.000Z</time>
</trkpt>
<trkpt lat="46.1392870" lon="10.1366060">
	<ele>1561.00</ele>
	<time>2024-09-06T06:57:45.000Z</time>
</trkpt>
<trkpt lat="46.1392950" lon="10.1366200">
	<ele>1561.00</ele>
	<time>2024-09-06T06:57:46.000Z</time>
</trkpt>
<trkpt lat="46.1392990" lon="10.1366300">
	<ele>1561.00</ele>
	<time>2024-09-06T06:57:47.000Z</time>
</trkpt>
<trkpt lat="46.1393020" lon="10.1366370">
	<ele>1561.00</ele>
	<time>2024-09-06T06:57:48.000Z</time>
</trkpt>
<trkpt lat="46.1393050" lon="10.1366390">
	<ele>1561.00</ele>
	<time>2024-09-06T06:57:49.000Z</time>
</trkpt>
<trkpt lat="46.1393110" lon="10.1366450">
	<ele>1561.20</ele>
	<time>2024-09-06T06:57:50.000Z</time>
</trkpt>
<trkpt lat="46.1393160" lon="10.1366550">
	<ele>1561.40</ele>
	<time>2024-09-06T06:57:51.000Z</time>
</trkpt>
<trkpt lat="46.1393210" lon="10.1366700">
	<ele>1561.40</ele>
	<time>2024-09-06T06:57:52.000Z</time>
</trkpt>
<trkpt lat="46.1393270" lon="10.1366880">
	<ele>1561.60</ele>
	<time>2024-09-06T06:57:53.000Z</time>
</trkpt>
<trkpt lat="46.1393290" lon="10.1366920">
	<ele>1561.80</ele>
	<time>2024-09-06T06:57:54.000Z</time>
</trkpt>
<trkpt lat="46.1393380" lon="10.1367100">
	<ele>1561.80</ele>
	<time>2024-09-06T06:57:55.000Z</time>
</trkpt>
<trkpt lat="46.1393470" lon="10.1367240">
	<ele>1562.00</ele>
	<time>2024-09-06T06:57:56.000Z</time>
</trkpt>
<trkpt lat="46.1393530" lon="10.1367400">
	<ele>1562.00</ele>
	<time>2024-09-06T06:57:57.000Z</time>
</trkpt>
<trkpt lat="46.1393580" lon="10.1367590">
	<ele>1562.20</ele>
	<time>2024-09-06T06:57:58.000Z</time>
</trkpt>
<trkpt lat="46.1393620" lon="10.1367780">
	<ele>1562.20</ele>
	<time>2024-09-06T06:57:59.000Z</time>
</trkpt>
<trkpt lat="46.1393660" lon="10.1367940">
	<ele>1562.40</ele>
	<time>2024-09-06T06:58:00.000Z</time>
</trkpt>
<trkpt lat="46.1393750" lon="10.1368220">
	<ele>1562.40</ele>
	<time>2024-09-06T06:58:01.000Z</time>
</trkpt>
<trkpt lat="46.1393820" lon="10.1368370">
	<ele>1562.60</ele>
	<time>2024-09-06T06:58:02.000Z</time>
</trkpt>
<trkpt lat="46.1393850" lon="10.1368400">
	<ele>1562.80</ele>
	<time>2024-09-06T06:58:03.000Z</time>
</trkpt>
<trkpt lat="46.1393940" lon="10.1368490">
	<ele>1563.00</ele>
	<time>2024-09-06T06:58:04.000Z</time>
</trkpt>
<trkpt lat="46.1394010" lon="10.1368510">
	<ele>1563.00</ele>
	<time>2024-09-06T06:58:05.000Z</time>
</trkpt>
<trkpt lat="46.1394080" lon="10.1368490">
	<ele>1563.20</ele>
	<time>2024-09-06T06:58:06.000Z</time>
</trkpt>
<trkpt lat="46.1394180" lon="10.1368490">
	<ele>1563.20</ele>
	<time>2024-09-06T06:58:07.000Z</time>
</trkpt>
<trkpt lat="46.1394270" lon="10.1368530">
	<ele>1563.40</ele>
	<time>2024-09-06T06:58:08.000Z</time>
</trkpt>
<trkpt lat="46.1394350" lon="10.1368560">
	<ele>1563.40</ele>
	<time>2024-09-06T06:58:09.000Z</time>
</trkpt>
<trkpt lat="46.1394370" lon="10.1368570">
	<ele>1563.60</ele>
	<time>2024-09-06T06:58:10.000Z</time>
</trkpt>
<trkpt lat="46.1394370" lon="10.1368550">
	<ele>1563.80</ele>
	<time>2024-09-06T06:58:11.000Z</time>
</trkpt>
<trkpt lat="46.1394370" lon="10.1368520">
	<ele>1563.80</ele>
	<time>2024-09-06T06:58:12.000Z</time>
</trkpt>
<trkpt lat="46.1394380" lon="10.1368490">
	<ele>1563.80</ele>
	<time>2024-09-06T06:58:13.000Z</time>
</trkpt>
<trkpt lat="46.1394430" lon="10.1368480">
	<ele>1564.00</ele>
	<time>2024-09-06T06:58:14.000Z</time>
</trkpt>
<trkpt lat="46.1394470" lon="10.1368470">
	<ele>1564.20</ele>
	<time>2024-09-06T06:58:15.000Z</time>
</trkpt>
<trkpt lat="46.1394590" lon="10.1368560">
	<ele>1564.40</ele>
	<time>2024-09-06T06:58:16.000Z</time>
</trkpt>
<trkpt lat="46.1394630" lon="10.1368570">
	<ele>1564.40</ele>
	<time>2024-09-06T06:58:17.000Z</time>
</trkpt>
<trkpt lat="46.1394660" lon="10.1368550">
	<ele>1564.60</ele>
	<time>2024-09-06T06:58:18.000Z</time>
</trkpt>
<trkpt lat="46.1394690" lon="10.1368570">
	<ele>1564.60</ele>
	<time>2024-09-06T06:58:19.000Z</time>
</trkpt>
<trkpt lat="46.1394830" lon="10.1368760">
	<ele>1565.00</ele>
	<time>2024-09-06T06:58:20.000Z</time>
</trkpt>
<trkpt lat="46.1394940" lon="10.1369050">
	<ele>1565.40</ele>
	<time>2024-09-06T06:58:21.000Z</time>
</trkpt>
<trkpt lat="46.1395000" lon="10.1369170">
	<ele>1565.60</ele>
	<time>2024-09-06T06:58:22.000Z</time>
</trkpt>
<trkpt lat="46.1395090" lon="10.1369340">
	<ele>1565.60</ele>
	<time>2024-09-06T06:58:23.000Z</time>
</trkpt>
<trkpt lat="46.1395150" lon="10.1369410">
	<ele>1565.80</ele>
	<time>2024-09-06T06:58:24.000Z</time>
</trkpt>
<trkpt lat="46.1395170" lon="10.1369420">
	<ele>1565.80</ele>
	<time>2024-09-06T06:58:25.000Z</time>
</trkpt>
<trkpt lat="46.1395180" lon="10.1369450">
	<ele>1566.00</ele>
	<time>2024-09-06T06:58:26.000Z</time>
</trkpt>
<trkpt lat="46.1395210" lon="10.1369500">
	<ele>1566.20</ele>
	<time>2024-09-06T06:58:27.000Z</time>
</trkpt>
<trkpt lat="46.1395250" lon="10.1369570">
	<ele>1566.40</ele>
	<time>2024-09-06T06:58:28.000Z</time>
</trkpt>
<trkpt lat="46.1395320" lon="10.1369630">
	<ele>1566.40</ele>
	<time>2024-09-06T06:58:29.000Z</time>
</trkpt>
<trkpt lat="46.1395330" lon="10.1369650">
	<ele>1566.60</ele>
	<time>2024-09-06T06:58:30.000Z</time>
</trkpt>
<trkpt lat="46.1395330" lon="10.1369690">
	<ele>1567.00</ele>
	<time>2024-09-06T06:58:31.000Z</time>
</trkpt>
<trkpt lat="46.1395420" lon="10.1369750">
	<ele>1567.20</ele>
	<time>2024-09-06T06:58:32.000Z</time>
</trkpt>
<trkpt lat="46.1395440" lon="10.1369770">
	<ele>1567.40</ele>
	<time>2024-09-06T06:58:33.000Z</time>
</trkpt>
<trkpt lat="46.1395440" lon="10.1369800">
	<ele>1567.60</ele>
	<time>2024-09-06T06:58:34.000Z</time>
</trkpt>
<trkpt lat="46.1395480" lon="10.1369920">
	<ele>1567.60</ele>
	<time>2024-09-06T06:58:35.000Z</time>
</trkpt>
<trkpt lat="46.1395520" lon="10.1369950">
	<ele>1567.80</ele>
	<time>2024-09-06T06:58:36.000Z</time>
</trkpt>
<trkpt lat="46.1395540" lon="10.1369970">
	<ele>1568.00</ele>
	<time>2024-09-06T06:58:37.000Z</time>
</trkpt>
<trkpt lat="46.1395540" lon="10.1370000">
	<ele>1568.20</ele>
	<time>2024-09-06T06:58:38.000Z</time>
</trkpt>
<trkpt lat="46.1395640" lon="10.1370150">
	<ele>1568.40</ele>
	<time>2024-09-06T06:58:39.000Z</time>
</trkpt>
<trkpt lat="46.1395680" lon="10.1370180">
	<ele>1568.60</ele>
	<time>2024-09-06T06:58:40.000Z</time>
</trkpt>
<trkpt lat="46.1395670" lon="10.1370170">
	<ele>1569.00</ele>
	<time>2024-09-06T06:58:41.000Z</time>
</trkpt>
<trkpt lat="46.1395660" lon="10.1370200">
	<ele>1569.00</ele>
	<time>2024-09-06T06:58:42.000Z</time>
</trkpt>
<trkpt lat="46.1395810" lon="10.1370280">
	<ele>1569.40</ele>
	<time>2024-09-06T06:58:43.000Z</time>
</trkpt>
<trkpt lat="46.1395850" lon="10.1370260">
	<ele>1569.60</ele>
	<time>2024-09-06T06:58:44.000Z</time>
</trkpt>
<trkpt lat="46.1395940" lon="10.1370460">
	<ele>1570.00</ele>
	<time>2024-09-06T06:58:45.000Z</time>
</trkpt>
<trkpt lat="46.1396040" lon="10.1370650">
	<ele>1570.20</ele>
	<time>2024-09-06T06:58:46.000Z</time>
</trkpt>
<trkpt lat="46.1396110" lon="10.1370780">
	<ele>1570.20</ele>
	<time>2024-09-06T06:58:47.000Z</time>
</trkpt>
<trkpt lat="46.1396180" lon="10.1370870">
	<ele>1570.40</ele>
	<time>2024-09-06T06:58:48.000Z</time>
</trkpt>
<trkpt lat="46.1396240" lon="10.1370970">
	<ele>1570.60</ele>
	<time>2024-09-06T06:58:49.000Z</time>
</trkpt>
<trkpt lat="46.1396250" lon="10.1371000">
	<ele>1570.60</ele>
	<time>2024-09-06T06:58:50.000Z</time>
</trkpt>
<trkpt lat="46.1396230" lon="10.1371100">
	<ele>1570.80</ele>
	<time>2024-09-06T06:58:51.000Z</time>
</trkpt>
<trkpt lat="46.1396280" lon="10.1371190">
	<ele>1571.00</ele>
	<time>2024-09-06T06:58:52.000Z</time>
</trkpt>
<trkpt lat="46.1396340" lon="10.1371280">
	<ele>1571.20</ele>
	<time>2024-09-06T06:58:53.000Z</time>
</trkpt>
<trkpt lat="46.1396390" lon="10.1371420">
	<ele>1571.60</ele>
	<time>2024-09-06T06:58:54.000Z</time>
</trkpt>
<trkpt lat="46.1396430" lon="10.1371540">
	<ele>1571.80</ele>
	<time>2024-09-06T06:58:55.000Z</time>
</trkpt>
<trkpt lat="46.1396430" lon="10.1371660">
	<ele>1572.00</ele>
	<time>2024-09-06T06:58:56.000Z</time>
</trkpt>
<trkpt lat="46.1396480" lon="10.1371850">
	<ele>1572.20</ele>
	<time>2024-09-06T06:58:57.000Z</time>
</trkpt>
<trkpt lat="46.1396460" lon="10.1372000">
	<ele>1572.20</ele>
	<time>2024-09-06T06:58:58.000Z</time>
</trkpt>
<trkpt lat="46.1396470" lon="10.1372190">
	<ele>1572.40</ele>
	<time>2024-09-06T06:58:59.000Z</time>
</trkpt>
<trkpt lat="46.1396440" lon="10.1372230">
	<ele>1572.60</ele>
	<time>2024-09-06T06:59:00.000Z</time>
</trkpt>
<trkpt lat="46.1396550" lon="10.1372310">
	<ele>1572.60</ele>
	<time>2024-09-06T06:59:01.000Z</time>
</trkpt>
<trkpt lat="46.1396620" lon="10.1372430">
	<ele>1573.00</ele>
	<time>2024-09-06T06:59:02.000Z</time>
</trkpt>
<trkpt lat="46.1396630" lon="10.1372640">
	<ele>1573.20</ele>
	<time>2024-09-06T06:59:03.000Z</time>
</trkpt>
<trkpt lat="46.1396710" lon="10.1372950">
	<ele>1573.40</ele>
	<time>2024-09-06T06:59:04.000Z</time>
</trkpt>
<trkpt lat="46.1396800" lon="10.1373260">
	<ele>1573.40</ele>
	<time>2024-09-06T06:59:05.000Z</time>
</trkpt>
<trkpt lat="46.1396860" lon="10.1373500">
	<ele>1573.80</ele>
	<time>2024-09-06T06:59:06.000Z</time>
</trkpt>
<trkpt lat="46.1396930" lon="10.1373690">
	<ele>1574.00</ele>
	<time>2024-09-06T06:59:07.000Z</time>
</trkpt>
<trkpt lat="46.1397020" lon="10.1373880">
	<ele>1574.20</ele>
	<time>2024-09-06T06:59:08.000Z</time>
</trkpt>
<trkpt lat="46.1397020" lon="10.1374020">
	<ele>1574.40</ele>
	<time>2024-09-06T06:59:09.000Z</time>
</trkpt>
<trkpt lat="46.1397030" lon="10.1374240">
	<ele>1574.60</ele>
	<time>2024-09-06T06:59:10.000Z</time>
</trkpt>
<trkpt lat="46.1397050" lon="10.1374470">
	<ele>1574.80</ele>
	<time>2024-09-06T06:59:11.000Z</time>
</trkpt>
<trkpt lat="46.1397110" lon="10.1374650">
	<ele>1575.00</ele>
	<time>2024-09-06T06:59:12.000Z</time>
</trkpt>
<trkpt lat="46.1397270" lon="10.1374880">
	<ele>1575.20</ele>
	<time>2024-09-06T06:59:13.000Z</time>
</trkpt>
<trkpt lat="46.1397390" lon="10.1375140">
	<ele>1575.40</ele>
	<time>2024-09-06T06:59:14.000Z</time>
</trkpt>
<trkpt lat="46.1397490" lon="10.1375360">
	<ele>1575.60</ele>
	<time>2024-09-06T06:59:15.000Z</time>
</trkpt>
<trkpt lat="46.1397550" lon="10.1375540">
	<ele>1575.80</ele>
	<time>2024-09-06T06:59:16.000Z</time>
</trkpt>
<trkpt lat="46.1397590" lon="10.1375700">
	<ele>1576.00</ele>
	<time>2024-09-06T06:59:17.000Z</time>
</trkpt>
<trkpt lat="46.1397560" lon="10.1375890">
	<ele>1576.00</ele>
	<time>2024-09-06T06:59:18.000Z</time>
</trkpt>
<trkpt lat="46.1397510" lon="10.1376050">
	<ele>1576.20</ele>
	<time>2024-09-06T06:59:19.000Z</time>
</trkpt>
<trkpt lat="46.1397480" lon="10.1376190">
	<ele>1576.20</ele>
	<time>2024-09-06T06:59:20.000Z</time>
</trkpt>
<trkpt lat="46.1397480" lon="10.1376310">
	<ele>1576.40</ele>
	<time>2024-09-06T06:59:21.000Z</time>
</trkpt>
<trkpt lat="46.1397530" lon="10.1376410">
	<ele>1576.60</ele>
	<time>2024-09-06T06:59:22.000Z</time>
</trkpt>
<trkpt lat="46.1397600" lon="10.1376510">
	<ele>1576.60</ele>
	<time>2024-09-06T06:59:23.000Z</time>
</trkpt>
<trkpt lat="46.1397680" lon="10.1376600">
	<ele>1576.80</ele>
	<time>2024-09-06T06:59:24.000Z</time>
</trkpt>
<trkpt lat="46.1397770" lon="10.1376660">
	<ele>1577.00</ele>
	<time>2024-09-06T06:59:25.000Z</time>
</trkpt>
<trkpt lat="46.1397810" lon="10.1376710">
	<ele>1577.20</ele>
	<time>2024-09-06T06:59:26.000Z</time>
</trkpt>
<trkpt lat="46.1397900" lon="10.1376760">
	<ele>1577.40</ele>
	<time>2024-09-06T06:59:27.000Z</time>
</trkpt>
<trkpt lat="46.1397980" lon="10.1376820">
	<ele>1577.80</ele>
	<time>2024-09-06T06:59:28.000Z</time>
</trkpt>
<trkpt lat="46.1398030" lon="10.1376940">
	<ele>1578.00</ele>
	<time>2024-09-06T06:59:29.000Z</time>
</trkpt>
<trkpt lat="46.1398090" lon="10.1377030">
	<ele>1578.20</ele>
	<time>2024-09-06T06:59:30.000Z</time>
</trkpt>
<trkpt lat="46.1398130" lon="10.1377110">
	<ele>1578.20</ele>
	<time>2024-09-06T06:59:31.000Z</time>
</trkpt>
<trkpt lat="46.1398170" lon="10.1377220">
	<ele>1578.40</ele>
	<time>2024-09-06T06:59:32.000Z</time>
</trkpt>
<trkpt lat="46.1398170" lon="10.1377290">
	<ele>1578.60</ele>
	<time>2024-09-06T06:59:33.000Z</time>
</trkpt>
<trkpt lat="46.1398160" lon="10.1377380">
	<ele>1579.00</ele>
	<time>2024-09-06T06:59:34.000Z</time>
</trkpt>
<trkpt lat="46.1398160" lon="10.1377520">
	<ele>1579.20</ele>
	<time>2024-09-06T06:59:35.000Z</time>
</trkpt>
<trkpt lat="46.1398180" lon="10.1377710">
	<ele>1579.40</ele>
	<time>2024-09-06T06:59:36.000Z</time>
</trkpt>
<trkpt lat="46.1398200" lon="10.1377840">
	<ele>1579.40</ele>
	<time>2024-09-06T06:59:37.000Z</time>
</trkpt>
<trkpt lat="46.1398200" lon="10.1377910">
	<ele>1579.60</ele>
	<time>2024-09-06T06:59:38.000Z</time>
</trkpt>
<trkpt lat="46.1398190" lon="10.1378040">
	<ele>1579.60</ele>
	<time>2024-09-06T06:59:39.000Z</time>
</trkpt>
<trkpt lat="46.1398160" lon="10.1378100">
	<ele>1579.80</ele>
	<time>2024-09-06T06:59:40.000Z</time>
</trkpt>
<trkpt lat="46.1398220" lon="10.1378340">
	<ele>1580.00</ele>
	<time>2024-09-06T06:59:41.000Z</time>
</trkpt>
<trkpt lat="46.1398240" lon="10.1378400">
	<ele>1580.20</ele>
	<time>2024-09-06T06:59:42.000Z</time>
</trkpt>
<trkpt lat="46.1398250" lon="10.1378520">
	<ele>1580.40</ele>
	<time>2024-09-06T06:59:43.000Z</time>
</trkpt>
<trkpt lat="46.1398260" lon="10.1378720">
	<ele>1580.60</ele>
	<time>2024-09-06T06:59:44.000Z</time>
</trkpt>
<trkpt lat="46.1398260" lon="10.1378770">
	<ele>1580.80</ele>
	<time>2024-09-06T06:59:45.000Z</time>
</trkpt>
<trkpt lat="46.1398260" lon="10.1378940">
	<ele>1581.00</ele>
	<time>2024-09-06T06:59:46.000Z</time>
</trkpt>
<trkpt lat="46.1398260" lon="10.1379080">
	<ele>1581.20</ele>
	<time>2024-09-06T06:59:47.000Z</time>
</trkpt>
<trkpt lat="46.1398240" lon="10.1379220">
	<ele>1581.40</ele>
	<time>2024-09-06T06:59:48.000Z</time>
</trkpt>
<trkpt lat="46.1398240" lon="10.1379350">
	<ele>1581.60</ele>
	<time>2024-09-06T06:59:49.000Z</time>
</trkpt>
<trkpt lat="46.1398270" lon="10.1379460">
	<ele>1581.80</ele>
	<time>2024-09-06T06:59:50.000Z</time>
</trkpt>
<trkpt lat="46.1398260" lon="10.1379510">
	<ele>1582.00</ele>
	<time>2024-09-06T06:59:51.000Z</time>
</trkpt>
<trkpt lat="46.1398260" lon="10.1379600">
	<ele>1582.40</ele>
	<time>2024-09-06T06:59:52.000Z</time>
</trkpt>
<trkpt lat="46.1398330" lon="10.1379730">
	<ele>1582.60</ele>
	<time>2024-09-06T06:59:53.000Z</time>
</trkpt>
<trkpt lat="46.1398400" lon="10.1379870">
	<ele>1582.60</ele>
	<time>2024-09-06T06:59:54.000Z</time>
</trkpt>
<trkpt lat="46.1398400" lon="10.1379940">
	<ele>1582.80</ele>
	<time>2024-09-06T06:59:55.000Z</time>
</trkpt>
<trkpt lat="46.1398410" lon="10.1380080">
	<ele>1583.20</ele>
	<time>2024-09-06T06:59:56.000Z</time>
</trkpt>
<trkpt lat="46.1398430" lon="10.1380200">
	<ele>1583.20</ele>
	<time>2024-09-06T06:59:57.000Z</time>
</trkpt>
<trkpt lat="46.1398430" lon="10.1380330">
	<ele>1583.40</ele>
	<time>2024-09-06T06:59:58.000Z</time>
</trkpt>
<trkpt lat="46.1398480" lon="10.1380450">
	<ele>1583.60</ele>
	<time>2024-09-06T06:59:59.000Z</time>
</trkpt>
<trkpt lat="46.1398610" lon="10.1380580">
	<ele>1583.60</ele>
	<time>2024-09-06T07:00:00.000Z</time>
</trkpt>
<trkpt lat="46.1398750" lon="10.1380700">
	<ele>1584.00</ele>
	<time>2024-09-06T07:00:01.000Z</time>
</trkpt>
<trkpt lat="46.1398840" lon="10.1380830">
	<ele>1584.20</ele>
	<time>2024-09-06T07:00:02.000Z</time>
</trkpt>
<trkpt lat="46.1398990" lon="10.1380970">
	<ele>1584.40</ele>
	<time>2024-09-06T07:00:03.000Z</time>
</trkpt>
<trkpt lat="46.1399080" lon="10.1381100">
	<ele>1584.60</ele>
	<time>2024-09-06T07:00:04.000Z</time>
</trkpt>
<trkpt lat="46.1399130" lon="10.1381210">
	<ele>1584.80</ele>
	<time>2024-09-06T07:00:05.000Z</time>
</trkpt>
<trkpt lat="46.1399180" lon="10.1381330">
	<ele>1585.00</ele>
	<time>2024-09-06T07:00:06.000Z</time>
</trkpt>
<trkpt lat="46.1399220" lon="10.1381450">
	<ele>1585.00</ele>
	<time>2024-09-06T07:00:07.000Z</time>
</trkpt>
<trkpt lat="46.1399260" lon="10.1381590">
	<ele>1585.20</ele>
	<time>2024-09-06T07:00:08.000Z</time>
</trkpt>
<trkpt lat="46.1399320" lon="10.1381710">
	<ele>1585.20</ele>
	<time>2024-09-06T07:00:09.000Z</time>
</trkpt>
<trkpt lat="46.1399340" lon="10.1381830">
	<ele>1585.60</ele>
	<time>2024-09-06T07:00:10.000Z</time>
</trkpt>
<trkpt lat="46.1399300" lon="10.1381980">
	<ele>1585.60</ele>
	<time>2024-09-06T07:00:11.000Z</time>
</trkpt>
<trkpt lat="46.1399300" lon="10.1382010">
	<ele>1585.80</ele>
	<time>2024-09-06T07:00:12.000Z</time>
</trkpt>
<trkpt lat="46.1399300" lon="10.1382020">
	<ele>1586.00</ele>
	<time>2024-09-06T07:00:13.000Z</time>
</trkpt>
<trkpt lat="46.1399300" lon="10.1382080">
	<ele>1586.20</ele>
	<time>2024-09-06T07:00:14.000Z</time>
</trkpt>
<trkpt lat="46.1399310" lon="10.1382150">
	<ele>1586.40</ele>
	<time>2024-09-06T07:00:15.000Z</time>
</trkpt>
<trkpt lat="46.1399340" lon="10.1382260">
	<ele>1586.60</ele>
	<time>2024-09-06T07:00:16.000Z</time>
</trkpt>
<trkpt lat="46.1399350" lon="10.1382390">
	<ele>1586.80</ele>
	<time>2024-09-06T07:00:17.000Z</time>
</trkpt>
<trkpt lat="46.1399390" lon="10.1382510">
	<ele>1586.80</ele>
	<time>2024-09-06T07:00:18.000Z</time>
</trkpt>
<trkpt lat="46.1399460" lon="10.1382700">
	<ele>1587.00</ele>
	<time>2024-09-06T07:00:19.000Z</time>
</trkpt>
<trkpt lat="46.1399530" lon="10.1382790">
	<ele>1587.00</ele>
	<time>2024-09-06T07:00:20.000Z</time>
</trkpt>
<trkpt lat="46.1399540" lon="10.1382810">
	<ele>1587.20</ele>
	<time>2024-09-06T07:00:21.000Z</time>
</trkpt>
<trkpt lat="46.1399580" lon="10.1382790">
	<ele>1587.20</ele>
	<time>2024-09-06T07:00:22.000Z</time>
</trkpt>
<trkpt lat="46.1399590" lon="10.1382850">
	<ele>1587.40</ele>
	<time>2024-09-06T07:00:23.000Z</time>
</trkpt>
<trkpt lat="46.1399510" lon="10.1383080">
	<ele>1587.60</ele>
	<time>2024-09-06T07:00:24.000Z</time>
</trkpt>
<trkpt lat="46.1399430" lon="10.1383300">
	<ele>1587.80</ele>
	<time>2024-09-06T07:00:25.000Z</time>
</trkpt>
<trkpt lat="46.1399400" lon="10.1383520">
	<ele>1588.00</ele>
	<time>2024-09-06T07:00:26.000Z</time>
</trkpt>
<trkpt lat="46.1399440" lon="10.1383630">
	<ele>1588.20</ele>
	<time>2024-09-06T07:00:27.000Z</time>
</trkpt>
<trkpt lat="46.1399480" lon="10.1383700">
	<ele>1588.40</ele>
	<time>2024-09-06T07:00:28.000Z</time>
</trkpt>
<trkpt lat="46.1399540" lon="10.1383840">
	<ele>1588.40</ele>
	<time>2024-09-06T07:00:29.000Z</time>
</trkpt>
<trkpt lat="46.1399540" lon="10.1383930">
	<ele>1588.60</ele>
	<time>2024-09-06T07:00:30.000Z</time>
</trkpt>
<trkpt lat="46.1399680" lon="10.1383990">
	<ele>1588.60</ele>
	<time>2024-09-06T07:00:31.000Z</time>
</trkpt>
<trkpt lat="46.1399760" lon="10.1384030">
	<ele>1588.60</ele>
	<time>2024-09-06T07:00:32.000Z</time>
</trkpt>
<trkpt lat="46.1399760" lon="10.1384120">
	<ele>1588.80</ele>
	<time>2024-09-06T07:00:33.000Z</time>
</trkpt>
<trkpt lat="46.1399770" lon="10.1384240">
	<ele>1589.00</ele>
	<time>2024-09-06T07:00:34.000Z</time>
</trkpt>
<trkpt lat="46.1399750" lon="10.1384320">
	<ele>1589.00</ele>
	<time>2024-09-06T07:00:35.000Z</time>
</trkpt>
<trkpt lat="46.1399720" lon="10.1384430">
	<ele>1589.20</ele>
	<time>2024-09-06T07:00:36.000Z</time>
</trkpt>
<trkpt lat="46.1399700" lon="10.1384570">
	<ele>1589.40</ele>
	<time>2024-09-06T07:00:37.000Z</time>
</trkpt>
<trkpt lat="46.1399670" lon="10.1384750">
	<ele>1589.40</ele>
	<time>2024-09-06T07:00:38.000Z</time>
</trkpt>
<trkpt lat="46.1399560" lon="10.1384920">
	<ele>1589.80</ele>
	<time>2024-09-06T07:00:39.000Z</time>
</trkpt>
<trkpt lat="46.1399600" lon="10.1385000">
	<ele>1590.00</ele>
	<time>2024-09-06T07:00:40.000Z</time>
</trkpt>
<trkpt lat="46.1399630" lon="10.1385090">
	<ele>1590.20</ele>
	<time>2024-09-06T07:00:41.000Z</time>
</trkpt>
<trkpt lat="46.1399640" lon="10.1385180">
	<ele>1590.20</ele>
	<time>2024-09-06T07:00:42.000Z</time>
</trkpt>
<trkpt lat="46.1399620" lon="10.1385240">
	<ele>1590.40</ele>
	<time>2024-09-06T07:00:43.000Z</time>
</trkpt>
<trkpt lat="46.1399590" lon="10.1385270">
	<ele>1590.60</ele>
	<time>2024-09-06T07:00:44.000Z</time>
</trkpt>
<trkpt lat="46.1399580" lon="10.1385310">
	<ele>1590.60</ele>
	<time>2024-09-06T07:00:45.000Z</time>
</trkpt>
<trkpt lat="46.1399490" lon="10.1385370">
	<ele>1590.80</ele>
	<time>2024-09-06T07:00:46.000Z</time>
</trkpt>
<trkpt lat="46.1399420" lon="10.1385480">
	<ele>1590.80</ele>
	<time>2024-09-06T07:00:47.000Z</time>
</trkpt>
<trkpt lat="46.1399400" lon="10.1385480">
	<ele>1591.00</ele>
	<time>2024-09-06T07:00:48.000Z</time>
</trkpt>
<trkpt lat="46.1399400" lon="10.1385500">
	<ele>1591.20</ele>
	<time>2024-09-06T07:00:49.000Z</time>
</trkpt>
<trkpt lat="46.1399370" lon="10.1385610">
	<ele>1591.40</ele>
	<time>2024-09-06T07:00:50.000Z</time>
</trkpt>
<trkpt lat="46.1399330" lon="10.1385680">
	<ele>1591.40</ele>
	<time>2024-09-06T07:00:51.000Z</time>
</trkpt>
<trkpt lat="46.1399280" lon="10.1385720">
	<ele>1591.60</ele>
	<time>2024-09-06T07:00:52.000Z</time>
</trkpt>
<trkpt lat="46.1399320" lon="10.1385890">
	<ele>1591.60</ele>
	<time>2024-09-06T07:00:53.000Z</time>
</trkpt>
<trkpt lat="46.1399300" lon="10.1385970">
	<ele>1591.80</ele>
	<time>2024-09-06T07:00:54.000Z</time>
</trkpt>
<trkpt lat="46.1399290" lon="10.1386090">
	<ele>1591.80</ele>
	<time>2024-09-06T07:00:55.000Z</time>
</trkpt>
<trkpt lat="46.1399200" lon="10.1386150">
	<ele>1592.00</ele>
	<time>2024-09-06T07:00:56.000Z</time>
</trkpt>
<trkpt lat="46.1399180" lon="10.1386200">
	<ele>1592.20</ele>
	<time>2024-09-06T07:00:57.000Z</time>
</trkpt>
<trkpt lat="46.1399170" lon="10.1386230">
	<ele>1592.20</ele>
	<time>2024-09-06T07:00:58.000Z</time>
</trkpt>
<trkpt lat="46.1399140" lon="10.1386360">
	<ele>1592.40</ele>
	<time>2024-09-06T07:00:59.000Z</time>
</trkpt>
<trkpt lat="46.1399140" lon="10.1386420">
	<ele>1592.60</ele>
	<time>2024-09-06T07:01:00.000Z</time>
</trkpt>
<trkpt lat="46.1399130" lon="10.1386470">
	<ele>1592.60</ele>
	<time>2024-09-06T07:01:01.000Z</time>
</trkpt>
<trkpt lat="46.1399180" lon="10.1386550">
	<ele>1592.80</ele>
	<time>2024-09-06T07:01:02.000Z</time>
</trkpt>
<trkpt lat="46.1399240" lon="10.1386750">
	<ele>1592.80</ele>
	<time>2024-09-06T07:01:03.000Z</time>
</trkpt>
<trkpt lat="46.1399320" lon="10.1386980">
	<ele>1592.80</ele>
	<time>2024-09-06T07:01:04.000Z</time>
</trkpt>
<trkpt lat="46.1399340" lon="10.1387020">
	<ele>1593.20</ele>
	<time>2024-09-06T07:01:05.000Z</time>
</trkpt>
<trkpt lat="46.1399320" lon="10.1387020">
	<ele>1593.40</ele>
	<time>2024-09-06T07:01:06.000Z</time>
</trkpt>
<trkpt lat="46.1399330" lon="10.1387080">
	<ele>1593.60</ele>
	<time>2024-09-06T07:01:07.000Z</time>
</trkpt>
<trkpt lat="46.1399360" lon="10.1387170">
	<ele>1593.80</ele>
	<time>2024-09-06T07:01:08.000Z</time>
</trkpt>
<trkpt lat="46.1399390" lon="10.1387280">
	<ele>1593.80</ele>
	<time>2024-09-06T07:01:09.000Z</time>
</trkpt>
<trkpt lat="46.1399360" lon="10.1387490">
	<ele>1594.00</ele>
	<time>2024-09-06T07:01:10.000Z</time>
</trkpt>
<trkpt lat="46.1399320" lon="10.1387650">
	<ele>1594.20</ele>
	<time>2024-09-06T07:01:11.000Z</time>
</trkpt>
<trkpt lat="46.1399370" lon="10.1387770">
	<ele>1594.60</ele>
	<time>2024-09-06T07:01:12.000Z</time>
</trkpt>
<trkpt lat="46.1399440" lon="10.1387980">
	<ele>1594.80</ele>
	<time>2024-09-06T07:01:13.000Z</time>
</trkpt>
<trkpt lat="46.1399450" lon="10.1388050">
	<ele>1594.80</ele>
	<time>2024-09-06T07:01:14.000Z</time>
</trkpt>
<trkpt lat="46.1399460" lon="10.1388090">
	<ele>1595.00</ele>
	<time>2024-09-06T07:01:15.000Z</time>
</trkpt>
<trkpt lat="46.1399430" lon="10.1388150">
	<ele>1595.00</ele>
	<time>2024-09-06T07:01:16.000Z</time>
</trkpt>
<trkpt lat="46.1399400" lon="10.1388280">
	<ele>1595.20</ele>
	<time>2024-09-06T07:01:17.000Z</time>
</trkpt>
<trkpt lat="46.1399390" lon="10.1388400">
	<ele>1595.40</ele>
	<time>2024-09-06T07:01:18.000Z</time>
</trkpt>
<trkpt lat="46.1399420" lon="10.1388610">
	<ele>1595.60</ele>
	<time>2024-09-06T07:01:19.000Z</time>
</trkpt>
<trkpt lat="46.1399490" lon="10.1388720">
	<ele>1595.80</ele>
	<time>2024-09-06T07:01:20.000Z</time>
</trkpt>
<trkpt lat="46.1399520" lon="10.1388730">
	<ele>1596.00</ele>
	<time>2024-09-06T07:01:21.000Z</time>
</trkpt>
<trkpt lat="46.1399600" lon="10.1388820">
	<ele>1596.20</ele>
	<time>2024-09-06T07:01:22.000Z</time>
</trkpt>
<trkpt lat="46.1399610" lon="10.1388910">
	<ele>1596.40</ele>
	<time>2024-09-06T07:01:23.000Z</time>
</trkpt>
<trkpt lat="46.1399670" lon="10.1389000">
	<ele>1596.80</ele>
	<time>2024-09-06T07:01:24.000Z</time>
</trkpt>
<trkpt lat="46.1399800" lon="10.1389050">
	<ele>1597.00</ele>
	<time>2024-09-06T07:01:25.000Z</time>
</trkpt>
<trkpt lat="46.1399910" lon="10.1389080">
	<ele>1597.20</ele>
	<time>2024-09-06T07:01:26.000Z</time>
</trkpt>
<trkpt lat="46.1399950" lon="10.1389190">
	<ele>1597.20</ele>
	<time>2024-09-06T07:01:27.000Z</time>
</trkpt>
<trkpt lat="46.1400020" lon="10.1389350">
	<ele>1597.40</ele>
	<time>2024-09-06T07:01:28.000Z</time>
</trkpt>
<trkpt lat="46.1400100" lon="10.1389490">
	<ele>1597.60</ele>
	<time>2024-09-06T07:01:29.000Z</time>
</trkpt>
<trkpt lat="46.1400140" lon="10.1389650">
	<ele>1597.80</ele>
	<time>2024-09-06T07:01:30.000Z</time>
</trkpt>
<trkpt lat="46.1400160" lon="10.1389750">
	<ele>1597.80</ele>
	<time>2024-09-06T07:01:31.000Z</time>
</trkpt>
<trkpt lat="46.1400160" lon="10.1389810">
	<ele>1597.80</ele>
	<time>2024-09-06T07:01:32.000Z</time>
</trkpt>
<trkpt lat="46.1400140" lon="10.1389960">
	<ele>1598.00</ele>
	<time>2024-09-06T07:01:33.000Z</time>
</trkpt>
<trkpt lat="46.1400080" lon="10.1390190">
	<ele>1598.20</ele>
	<time>2024-09-06T07:01:34.000Z</time>
</trkpt>
<trkpt lat="46.1400020" lon="10.1390410">
	<ele>1598.20</ele>
	<time>2024-09-06T07:01:35.000Z</time>
</trkpt>
<trkpt lat="46.1399970" lon="10.1390610">
	<ele>1598.40</ele>
	<time>2024-09-06T07:01:36.000Z</time>
</trkpt>
<trkpt lat="46.1399930" lon="10.1390770">
	<ele>1598.60</ele>
	<time>2024-09-06T07:01:37.000Z</time>
</trkpt>
<trkpt lat="46.1399910" lon="10.1390860">
	<ele>1598.80</ele>
	<time>2024-09-06T07:01:38.000Z</time>
</trkpt>
<trkpt lat="46.1399880" lon="10.1390930">
	<ele>1598.80</ele>
	<time>2024-09-06T07:01:39.000Z</time>
</trkpt>
<trkpt lat="46.1399850" lon="10.1390940">
	<ele>1598.80</ele>
	<time>2024-09-06T07:01:40.000Z</time>
</trkpt>
<trkpt lat="46.1399810" lon="10.1391060">
	<ele>1599.00</ele>
	<time>2024-09-06T07:01:41.000Z</time>
</trkpt>
<trkpt lat="46.1399840" lon="10.1391170">
	<ele>1599.00</ele>
	<time>2024-09-06T07:01:42.000Z</time>
</trkpt>
<trkpt lat="46.1399870" lon="10.1391190">
	<ele>1599.20</ele>
	<time>2024-09-06T07:01:43.000Z</time>
</trkpt>
<trkpt lat="46.1399920" lon="10.1391210">
	<ele>1599.20</ele>
	<time>2024-09-06T07:01:44.000Z</time>
</trkpt>
<trkpt lat="46.1399960" lon="10.1391210">
	<ele>1599.20</ele>
	<time>2024-09-06T07:01:45.000Z</time>
</trkpt>
<trkpt lat="46.1399970" lon="10.1391170">
	<ele>1599.20</ele>
	<time>2024-09-06T07:01:46.000Z</time>
</trkpt>
<trkpt lat="46.1399870" lon="10.1391220">
	<ele>1599.20</ele>
	<time>2024-09-06T07:01:47.000Z</time>
</trkpt>
<trkpt lat="46.1399770" lon="10.1391320">
	<ele>1599.20</ele>
	<time>2024-09-06T07:01:48.000Z</time>
</trkpt>
<trkpt lat="46.1399750" lon="10.1391320">
	<ele>1599.20</ele>
	<time>2024-09-06T07:01:49.000Z</time>
</trkpt>
<trkpt lat="46.1399730" lon="10.1391310">
	<ele>1599.20</ele>
	<time>2024-09-06T07:01:50.000Z</time>
</trkpt>
<trkpt lat="46.1399710" lon="10.1391320">
	<ele>1599.20</ele>
	<time>2024-09-06T07:01:51.000Z</time>
</trkpt>
<trkpt lat="46.1399690" lon="10.1391330">
	<ele>1599.20</ele>
	<time>2024-09-06T07:01:52.000Z</time>
</trkpt>
<trkpt lat="46.1399670" lon="10.1391450">
	<ele>1599.20</ele>
	<time>2024-09-06T07:01:53.000Z</time>
</trkpt>
<trkpt lat="46.1399600" lon="10.1391610">
	<ele>1599.20</ele>
	<time>2024-09-06T07:01:54.000Z</time>
</trkpt>
<trkpt lat="46.1399570" lon="10.1391580">
	<ele>1599.20</ele>
	<time>2024-09-06T07:01:55.000Z</time>
</trkpt>
<trkpt lat="46.1399550" lon="10.1391610">
	<ele>1599.20</ele>
	<time>2024-09-06T07:01:56.000Z</time>
</trkpt>
<trkpt lat="46.1399620" lon="10.1391670">
	<ele>1599.20</ele>
	<time>2024-09-06T07:01:57.000Z</time>
</trkpt>
<trkpt lat="46.1399600" lon="10.1391670">
	<ele>1599.20</ele>
	<time>2024-09-06T07:01:58.000Z</time>
</trkpt>
<trkpt lat="46.1399530" lon="10.1391770">
	<ele>1599.20</ele>
	<time>2024-09-06T07:01:59.000Z</time>
</trkpt>
<trkpt lat="46.1399480" lon="10.1391820">
	<ele>1599.20</ele>
	<time>2024-09-06T07:02:00.000Z</time>
</trkpt>
<trkpt lat="46.1399470" lon="10.1391830">
	<ele>1599.20</ele>
	<time>2024-09-06T07:02:01.000Z</time>
</trkpt>
<trkpt lat="46.1399470" lon="10.1391810">
	<ele>1599.20</ele>
	<time>2024-09-06T07:02:02.000Z</time>
</trkpt>
<trkpt lat="46.1399470" lon="10.1391810">
	<ele>1599.20</ele>
	<time>2024-09-06T07:02:03.000Z</time>
</trkpt>
<trkpt lat="46.1399470" lon="10.1391810">
	<ele>1599.20</ele>
	<time>2024-09-06T07:02:04.000Z</time>
</trkpt>
<trkpt lat="46.1399470" lon="10.1391810">
	<ele>1599.40</ele>
	<time>2024-09-06T07:02:05.000Z</time>
</trkpt>
<trkpt lat="46.1399470" lon="10.1391810">
	<ele>1599.60</ele>
	<time>2024-09-06T07:02:06.000Z</time>
</trkpt>
<trkpt lat="46.1399470" lon="10.1391810">
	<ele>1599.60</ele>
	<time>2024-09-06T07:02:07.000Z</time>
</trkpt>
<trkpt lat="46.1399470" lon="10.1391810">
	<ele>1599.60</ele>
	<time>2024-09-06T07:02:08.000Z</time>
</trkpt>
<trkpt lat="46.1399470" lon="10.1391810">
	<ele>1599.80</ele>
	<time>2024-09-06T07:02:09.000Z</time>
</trkpt>
<trkpt lat="46.1399470" lon="10.1391810">
	<ele>1599.80</ele>
	<time>2024-09-06T07:02:10.000Z</time>
</trkpt>
<trkpt lat="46.1399480" lon="10.1391810">
	<ele>1599.60</ele>
	<time>2024-09-06T07:02:11.000Z</time>
</trkpt>
<trkpt lat="46.1399490" lon="10.1391810">
	<ele>1599.40</ele>
	<time>2024-09-06T07:02:12.000Z</time>
</trkpt>
<trkpt lat="46.1399490" lon="10.1391810">
	<ele>1599.40</ele>
	<time>2024-09-06T07:02:13.000Z</time>
</trkpt>
<trkpt lat="46.1399490" lon="10.1391810">
	<ele>1599.40</ele>
	<time>2024-09-06T07:02:14.000Z</time>
</trkpt>
<trkpt lat="46.1399490" lon="10.1391810">
	<ele>1599.40</ele>
	<time>2024-09-06T07:02:15.000Z</time>
</trkpt>
<trkpt lat="46.1399490" lon="10.1391820">
	<ele>1599.40</ele>
	<time>2024-09-06T07:02:16.000Z</time>
</trkpt>
<trkpt lat="46.1399500" lon="10.1391830">
	<ele>1599.40</ele>
	<time>2024-09-06T07:02:17.000Z</time>
</trkpt>
<trkpt lat="46.1399500" lon="10.1391860">
	<ele>1599.60</ele>
	<time>2024-09-06T07:02:18.000Z</time>
</trkpt>
<trkpt lat="46.1399500" lon="10.1391870">
	<ele>1599.80</ele>
	<time>2024-09-06T07:02:19.000Z</time>
</trkpt>
<trkpt lat="46.1399510" lon="10.1391870">
	<ele>1599.80</ele>
	<time>2024-09-06T07:02:20.000Z</time>
</trkpt>
<trkpt lat="46.1399510" lon="10.1391880">
	<ele>1599.80</ele>
	<time>2024-09-06T07:02:21.000Z</time>
</trkpt>
<trkpt lat="46.1399510" lon="10.1391880">
	<ele>1599.80</ele>
	<time>2024-09-06T07:02:22.000Z</time>
</trkpt>
<trkpt lat="46.1399520" lon="10.1391880">
	<ele>1599.60</ele>
	<time>2024-09-06T07:02:23.000Z</time>
</trkpt>
<trkpt lat="46.1399510" lon="10.1391880">
	<ele>1599.60</ele>
	<time>2024-09-06T07:02:24.000Z</time>
</trkpt>
<trkpt lat="46.1399510" lon="10.1391880">
	<ele>1599.60</ele>
	<time>2024-09-06T07:02:25.000Z</time>
</trkpt>
<trkpt lat="46.1399510" lon="10.1391890">
	<ele>1599.60</ele>
	<time>2024-09-06T07:02:26.000Z</time>
</trkpt>
<trkpt lat="46.1399510" lon="10.1391890">
	<ele>1599.60</ele>
	<time>2024-09-06T07:02:27.000Z</time>
</trkpt>
<trkpt lat="46.1399510" lon="10.1391890">
	<ele>1599.60</ele>
	<time>2024-09-06T07:02:28.000Z</time>
</trkpt>
<trkpt lat="46.1399510" lon="10.1391900">
	<ele>1599.80</ele>
	<time>2024-09-06T07:02:29.000Z</time>
</trkpt>
<trkpt lat="46.1399510" lon="10.1391910">
	<ele>1600.00</ele>
	<time>2024-09-06T07:02:30.000Z</time>
</trkpt>
<trkpt lat="46.1399510" lon="10.1391910">
	<ele>1600.20</ele>
	<time>2024-09-06T07:02:31.000Z</time>
</trkpt>
<trkpt lat="46.1399510" lon="10.1391940">
	<ele>1600.40</ele>
	<time>2024-09-06T07:02:32.000Z</time>
</trkpt>
<trkpt lat="46.1399510" lon="10.1392000">
	<ele>1600.60</ele>
	<time>2024-09-06T07:02:33.000Z</time>
</trkpt>
<trkpt lat="46.1399510" lon="10.1392080">
	<ele>1600.60</ele>
	<time>2024-09-06T07:02:34.000Z</time>
</trkpt>
<trkpt lat="46.1399510" lon="10.1392090">
	<ele>1600.60</ele>
	<time>2024-09-06T07:02:35.000Z</time>
</trkpt>
<trkpt lat="46.1399510" lon="10.1392110">
	<ele>1600.60</ele>
	<time>2024-09-06T07:02:36.000Z</time>
</trkpt>
<trkpt lat="46.1399510" lon="10.1392170">
	<ele>1600.60</ele>
	<time>2024-09-06T07:02:37.000Z</time>
</trkpt>
<trkpt lat="46.1399510" lon="10.1392190">
	<ele>1600.60</ele>
	<time>2024-09-06T07:02:38.000Z</time>
</trkpt>
<trkpt lat="46.1399510" lon="10.1392220">
	<ele>1600.60</ele>
	<time>2024-09-06T07:02:39.000Z</time>
</trkpt>
<trkpt lat="46.1399510" lon="10.1392220">
	<ele>1600.40</ele>
	<time>2024-09-06T07:02:40.000Z</time>
</trkpt>
<trkpt lat="46.1399510" lon="10.1392220">
	<ele>1600.40</ele>
	<time>2024-09-06T07:02:41.000Z</time>
</trkpt>
<trkpt lat="46.1399510" lon="10.1392240">
	<ele>1600.20</ele>
	<time>2024-09-06T07:02:42.000Z</time>
</trkpt>
<trkpt lat="46.1399510" lon="10.1392250">
	<ele>1600.20</ele>
	<time>2024-09-06T07:02:43.000Z</time>
</trkpt>
<trkpt lat="46.1399510" lon="10.1392250">
	<ele>1600.20</ele>
	<time>2024-09-06T07:02:44.000Z</time>
</trkpt>
<trkpt lat="46.1399510" lon="10.1392260">
	<ele>1600.00</ele>
	<time>2024-09-06T07:02:45.000Z</time>
</trkpt>
<trkpt lat="46.1399530" lon="10.1392270">
	<ele>1600.00</ele>
	<time>2024-09-06T07:02:46.000Z</time>
</trkpt>
<trkpt lat="46.1399530" lon="10.1392260">
	<ele>1600.00</ele>
	<time>2024-09-06T07:02:47.000Z</time>
</trkpt>
<trkpt lat="46.1399540" lon="10.1392240">
	<ele>1600.00</ele>
	<time>2024-09-06T07:02:48.000Z</time>
</trkpt>
<trkpt lat="46.1399520" lon="10.1392200">
	<ele>1600.00</ele>
	<time>2024-09-06T07:02:49.000Z</time>
</trkpt>
<trkpt lat="46.1399540" lon="10.1392260">
	<ele>1600.00</ele>
	<time>2024-09-06T07:02:50.000Z</time>
</trkpt>
<trkpt lat="46.1399440" lon="10.1392260">
	<ele>1600.00</ele>
	<time>2024-09-06T07:02:51.000Z</time>
</trkpt>
<trkpt lat="46.1399460" lon="10.1392260">
	<ele>1600.00</ele>
	<time>2024-09-06T07:02:52.000Z</time>
</trkpt>
<trkpt lat="46.1399460" lon="10.1392260">
	<ele>1600.20</ele>
	<time>2024-09-06T07:02:53.000Z</time>
</trkpt>
<trkpt lat="46.1399460" lon="10.1392260">
	<ele>1600.20</ele>
	<time>2024-09-06T07:02:54.000Z</time>
</trkpt>
<trkpt lat="46.1399460" lon="10.1392260">
	<ele>1600.20</ele>
	<time>2024-09-06T07:02:55.000Z</time>
</trkpt>
<trkpt lat="46.1399460" lon="10.1392260">
	<ele>1600.00</ele>
	<time>2024-09-06T07:02:56.000Z</time>
</trkpt>
<trkpt lat="46.1399460" lon="10.1392260">
	<ele>1600.00</ele>
	<time>2024-09-06T07:02:57.000Z</time>
</trkpt>
<trkpt lat="46.1399460" lon="10.1392260">
	<ele>1600.00</ele>
	<time>2024-09-06T07:02:58.000Z</time>
</trkpt>
<trkpt lat="46.1399460" lon="10.1392260">
	<ele>1600.00</ele>
	<time>2024-09-06T07:02:59.000Z</time>
</trkpt>
<trkpt lat="46.1399460" lon="10.1392260">
	<ele>1600.00</ele>
	<time>2024-09-06T07:03:00.000Z</time>
</trkpt>
<trkpt lat="46.1399460" lon="10.1392260">
	<ele>1600.00</ele>
	<time>2024-09-06T07:03:01.000Z</time>
</trkpt>
<trkpt lat="46.1399480" lon="10.1392270">
	<ele>1600.00</ele>
	<time>2024-09-06T07:03:02.000Z</time>
</trkpt>
<trkpt lat="46.1399520" lon="10.1392240">
	<ele>1600.00</ele>
	<time>2024-09-06T07:03:03.000Z</time>
</trkpt>
<trkpt lat="46.1399580" lon="10.1392270">
	<ele>1600.00</ele>
	<time>2024-09-06T07:03:04.000Z</time>
</trkpt>
<trkpt lat="46.1399550" lon="10.1392230">
	<ele>1600.00</ele>
	<time>2024-09-06T07:03:05.000Z</time>
</trkpt>
<trkpt lat="46.1399570" lon="10.1392290">
	<ele>1599.80</ele>
	<time>2024-09-06T07:03:06.000Z</time>
</trkpt>
<trkpt lat="46.1399560" lon="10.1392320">
	<ele>1599.60</ele>
	<time>2024-09-06T07:03:07.000Z</time>
</trkpt>
<trkpt lat="46.1399600" lon="10.1392360">
	<ele>1599.40</ele>
	<time>2024-09-06T07:03:08.000Z</time>
</trkpt>
<trkpt lat="46.1399620" lon="10.1392400">
	<ele>1599.40</ele>
	<time>2024-09-06T07:03:09.000Z</time>
</trkpt>
<trkpt lat="46.1399640" lon="10.1392380">
	<ele>1599.20</ele>
	<time>2024-09-06T07:03:10.000Z</time>
</trkpt>
<trkpt lat="46.1399680" lon="10.1392370">
	<ele>1599.20</ele>
	<time>2024-09-06T07:03:11.000Z</time>
</trkpt>
<trkpt lat="46.1399690" lon="10.1392350">
	<ele>1599.20</ele>
	<time>2024-09-06T07:03:12.000Z</time>
</trkpt>
<trkpt lat="46.1399710" lon="10.1392370">
	<ele>1599.40</ele>
	<time>2024-09-06T07:03:13.000Z</time>
</trkpt>
<trkpt lat="46.1399710" lon="10.1392390">
	<ele>1599.40</ele>
	<time>2024-09-06T07:03:14.000Z</time>
</trkpt>
<trkpt lat="46.1399700" lon="10.1392420">
	<ele>1599.40</ele>
	<time>2024-09-06T07:03:15.000Z</time>
</trkpt>
<trkpt lat="46.1399690" lon="10.1392430">
	<ele>1599.40</ele>
	<time>2024-09-06T07:03:16.000Z</time>
</trkpt>
<trkpt lat="46.1399720" lon="10.1392510">
	<ele>1599.40</ele>
	<time>2024-09-06T07:03:17.000Z</time>
</trkpt>
<trkpt lat="46.1399740" lon="10.1392550">
	<ele>1599.40</ele>
	<time>2024-09-06T07:03:18.000Z</time>
</trkpt>
<trkpt lat="46.1399770" lon="10.1392570">
	<ele>1599.40</ele>
	<time>2024-09-06T07:03:19.000Z</time>
</trkpt>
<trkpt lat="46.1399770" lon="10.1392590">
	<ele>1599.40</ele>
	<time>2024-09-06T07:03:20.000Z</time>
</trkpt>
<trkpt lat="46.1399710" lon="10.1392570">
	<ele>1599.40</ele>
	<time>2024-09-06T07:03:21.000Z</time>
</trkpt>
<trkpt lat="46.1399670" lon="10.1392560">
	<ele>1599.40</ele>
	<time>2024-09-06T07:03:22.000Z</time>
</trkpt>
<trkpt lat="46.1399690" lon="10.1392540">
	<ele>1599.40</ele>
	<time>2024-09-06T07:03:23.000Z</time>
</trkpt>
<trkpt lat="46.1399690" lon="10.1392530">
	<ele>1599.40</ele>
	<time>2024-09-06T07:03:24.000Z</time>
</trkpt>
<trkpt lat="46.1399690" lon="10.1392530">
	<ele>1599.40</ele>
	<time>2024-09-06T07:03:25.000Z</time>
</trkpt>
<trkpt lat="46.1399690" lon="10.1392530">
	<ele>1599.40</ele>
	<time>2024-09-06T07:03:26.000Z</time>
</trkpt>
<trkpt lat="46.1399690" lon="10.1392530">
	<ele>1599.40</ele>
	<time>2024-09-06T07:03:27.000Z</time>
</trkpt>
<trkpt lat="46.1399690" lon="10.1392530">
	<ele>1599.40</ele>
	<time>2024-09-06T07:03:28.000Z</time>
</trkpt>
<trkpt lat="46.1399690" lon="10.1392530">
	<ele>1599.40</ele>
	<time>2024-09-06T07:03:29.000Z</time>
</trkpt>
<trkpt lat="46.1399690" lon="10.1392530">
	<ele>1599.40</ele>
	<time>2024-09-06T07:03:30.000Z</time>
</trkpt>
<trkpt lat="46.1399690" lon="10.1392530">
	<ele>1599.40</ele>
	<time>2024-09-06T07:03:31.000Z</time>
</trkpt>
<trkpt lat="46.1399690" lon="10.1392530">
	<ele>1599.40</ele>
	<time>2024-09-06T07:03:32.000Z</time>
</trkpt>
<trkpt lat="46.1399690" lon="10.1392530">
	<ele>1599.40</ele>
	<time>2024-09-06T07:03:33.000Z</time>
</trkpt>
<trkpt lat="46.1399690" lon="10.1392510">
	<ele>1599.40</ele>
	<time>2024-09-06T07:03:34.000Z</time>
</trkpt>
<trkpt lat="46.1399710" lon="10.1392500">
	<ele>1599.40</ele>
	<time>2024-09-06T07:03:35.000Z</time>
</trkpt>
<trkpt lat="46.1399720" lon="10.1392460">
	<ele>1599.40</ele>
	<time>2024-09-06T07:03:36.000Z</time>
</trkpt>
<trkpt lat="46.1399720" lon="10.1392470">
	<ele>1599.40</ele>
	<time>2024-09-06T07:03:37.000Z</time>
</trkpt>
<trkpt lat="46.1399690" lon="10.1392550">
	<ele>1599.40</ele>
	<time>2024-09-06T07:03:38.000Z</time>
</trkpt>
<trkpt lat="46.1399690" lon="10.1392550">
	<ele>1599.40</ele>
	<time>2024-09-06T07:03:39.000Z</time>
</trkpt>
<trkpt lat="46.1399530" lon="10.1392660">
	<ele>1599.40</ele>
	<time>2024-09-06T07:03:40.000Z</time>
</trkpt>
<trkpt lat="46.1399550" lon="10.1392670">
	<ele>1599.40</ele>
	<time>2024-09-06T07:03:41.000Z</time>
</trkpt>
<trkpt lat="46.1399540" lon="10.1392650">
	<ele>1599.40</ele>
	<time>2024-09-06T07:03:42.000Z</time>
</trkpt>
<trkpt lat="46.1399520" lon="10.1392620">
	<ele>1599.40</ele>
	<time>2024-09-06T07:03:43.000Z</time>
</trkpt>
<trkpt lat="46.1399260" lon="10.1392660">
	<ele>1599.40</ele>
	<time>2024-09-06T07:03:44.000Z</time>
</trkpt>
<trkpt lat="46.1399020" lon="10.1392690">
	<ele>1599.40</ele>
	<time>2024-09-06T07:03:45.000Z</time>
</trkpt>
<trkpt lat="46.1398610" lon="10.1392790">
	<ele>1599.40</ele>
	<time>2024-09-06T07:03:46.000Z</time>
</trkpt>
<trkpt lat="46.1398450" lon="10.1392840">
	<ele>1599.40</ele>
	<time>2024-09-06T07:03:47.000Z</time>
</trkpt>
<trkpt lat="46.1398330" lon="10.1392840">
	<ele>1599.40</ele>
	<time>2024-09-06T07:03:48.000Z</time>
</trkpt>
<trkpt lat="46.1398240" lon="10.1392900">
	<ele>1599.40</ele>
	<time>2024-09-06T07:03:49.000Z</time>
</trkpt>
<trkpt lat="46.1398390" lon="10.1392920">
	<ele>1599.40</ele>
	<time>2024-09-06T07:03:50.000Z</time>
</trkpt>
<trkpt lat="46.1398370" lon="10.1392900">
	<ele>1599.40</ele>
	<time>2024-09-06T07:03:51.000Z</time>
</trkpt>
<trkpt lat="46.1398360" lon="10.1392880">
	<ele>1599.40</ele>
	<time>2024-09-06T07:03:52.000Z</time>
</trkpt>
<trkpt lat="46.1398410" lon="10.1392920">
	<ele>1599.40</ele>
	<time>2024-09-06T07:03:53.000Z</time>
</trkpt>
<trkpt lat="46.1398480" lon="10.1392980">
	<ele>1599.40</ele>
	<time>2024-09-06T07:03:54.000Z</time>
</trkpt>
<trkpt lat="46.1398550" lon="10.1393050">
	<ele>1599.40</ele>
	<time>2024-09-06T07:03:55.000Z</time>
</trkpt>
<trkpt lat="46.1398560" lon="10.1393090">
	<ele>1599.40</ele>
	<time>2024-09-06T07:03:56.000Z</time>
</trkpt>
<trkpt lat="46.1398510" lon="10.1393140">
	<ele>1599.40</ele>
	<time>2024-09-06T07:03:57.000Z</time>
</trkpt>
<trkpt lat="46.1398470" lon="10.1393160">
	<ele>1599.40</ele>
	<time>2024-09-06T07:03:58.000Z</time>
</trkpt>
<trkpt lat="46.1398440" lon="10.1393140">
	<ele>1599.40</ele>
	<time>2024-09-06T07:03:59.000Z</time>
</trkpt>
<trkpt lat="46.1398410" lon="10.1393120">
	<ele>1599.60</ele>
	<time>2024-09-06T07:04:00.000Z</time>
</trkpt>
<trkpt lat="46.1398400" lon="10.1393130">
	<ele>1599.60</ele>
	<time>2024-09-06T07:04:01.000Z</time>
</trkpt>
<trkpt lat="46.1398380" lon="10.1393130">
	<ele>1599.60</ele>
	<time>2024-09-06T07:04:02.000Z</time>
</trkpt>
<trkpt lat="46.1398360" lon="10.1393140">
	<ele>1599.60</ele>
	<time>2024-09-06T07:04:03.000Z</time>
</trkpt>
<trkpt lat="46.1398330" lon="10.1393140">
	<ele>1599.60</ele>
	<time>2024-09-06T07:04:04.000Z</time>
</trkpt>
<trkpt lat="46.1398290" lon="10.1393130">
	<ele>1599.40</ele>
	<time>2024-09-06T07:04:05.000Z</time>
</trkpt>
<trkpt lat="46.1398280" lon="10.1393120">
	<ele>1599.40</ele>
	<time>2024-09-06T07:04:06.000Z</time>
</trkpt>
<trkpt lat="46.1398280" lon="10.1393120">
	<ele>1599.40</ele>
	<time>2024-09-06T07:04:07.000Z</time>
</trkpt>
<trkpt lat="46.1398280" lon="10.1393120">
	<ele>1599.40</ele>
	<time>2024-09-06T07:04:08.000Z</time>
</trkpt>
<trkpt lat="46.1398280" lon="10.1393120">
	<ele>1599.20</ele>
	<time>2024-09-06T07:04:09.000Z</time>
</trkpt>
<trkpt lat="46.1398280" lon="10.1393120">
	<ele>1599.20</ele>
	<time>2024-09-06T07:04:10.000Z</time>
</trkpt>
<trkpt lat="46.1398280" lon="10.1393120">
	<ele>1599.20</ele>
	<time>2024-09-06T07:04:11.000Z</time>
</trkpt>
<trkpt lat="46.1398280" lon="10.1393120">
	<ele>1599.20</ele>
	<time>2024-09-06T07:04:12.000Z</time>
</trkpt>
<trkpt lat="46.1398280" lon="10.1393120">
	<ele>1599.20</ele>
	<time>2024-09-06T07:04:13.000Z</time>
</trkpt>
<trkpt lat="46.1398280" lon="10.1393120">
	<ele>1599.40</ele>
	<time>2024-09-06T07:04:14.000Z</time>
</trkpt>
<trkpt lat="46.1398280" lon="10.1393120">
	<ele>1599.40</ele>
	<time>2024-09-06T07:04:15.000Z</time>
</trkpt>
<trkpt lat="46.1398290" lon="10.1393120">
	<ele>1599.40</ele>
	<time>2024-09-06T07:04:16.000Z</time>
</trkpt>
<trkpt lat="46.1398290" lon="10.1393120">
	<ele>1599.40</ele>
	<time>2024-09-06T07:04:17.000Z</time>
</trkpt>
<trkpt lat="46.1398330" lon="10.1393120">
	<ele>1599.40</ele>
	<time>2024-09-06T07:04:18.000Z</time>
</trkpt>
<trkpt lat="46.1398360" lon="10.1393120">
	<ele>1599.40</ele>
	<time>2024-09-06T07:04:19.000Z</time>
</trkpt>
<trkpt lat="46.1398380" lon="10.1393120">
	<ele>1599.40</ele>
	<time>2024-09-06T07:04:20.000Z</time>
</trkpt>
<trkpt lat="46.1398400" lon="10.1393120">
	<ele>1599.40</ele>
	<time>2024-09-06T07:04:21.000Z</time>
</trkpt>
<trkpt lat="46.1398410" lon="10.1393100">
	<ele>1599.40</ele>
	<time>2024-09-06T07:04:22.000Z</time>
</trkpt>
<trkpt lat="46.1398410" lon="10.1393080">
	<ele>1599.20</ele>
	<time>2024-09-06T07:04:23.000Z</time>
</trkpt>
<trkpt lat="46.1398430" lon="10.1393060">
	<ele>1599.40</ele>
	<time>2024-09-06T07:04:24.000Z</time>
</trkpt>
<trkpt lat="46.1398460" lon="10.1393060">
	<ele>1599.40</ele>
	<time>2024-09-06T07:04:25.000Z</time>
</trkpt>
<trkpt lat="46.1398510" lon="10.1393060">
	<ele>1599.60</ele>
	<time>2024-09-06T07:04:26.000Z</time>
</trkpt>
<trkpt lat="46.1398540" lon="10.1393050">
	<ele>1599.80</ele>
	<time>2024-09-06T07:04:27.000Z</time>
</trkpt>
<trkpt lat="46.1398550" lon="10.1393050">
	<ele>1600.20</ele>
	<time>2024-09-06T07:04:28.000Z</time>
</trkpt>
<trkpt lat="46.1398560" lon="10.1393050">
	<ele>1600.60</ele>
	<time>2024-09-06T07:04:29.000Z</time>
</trkpt>
<trkpt lat="46.1398560" lon="10.1393050">
	<ele>1600.60</ele>
	<time>2024-09-06T07:04:30.000Z</time>
</trkpt>
<trkpt lat="46.1398570" lon="10.1393040">
	<ele>1600.80</ele>
	<time>2024-09-06T07:04:31.000Z</time>
</trkpt>
<trkpt lat="46.1398570" lon="10.1393040">
	<ele>1600.80</ele>
	<time>2024-09-06T07:04:32.000Z</time>
</trkpt>
<trkpt lat="46.1398570" lon="10.1393040">
	<ele>1600.80</ele>
	<time>2024-09-06T07:04:33.000Z</time>
</trkpt>
<trkpt lat="46.1398570" lon="10.1393040">
	<ele>1600.80</ele>
	<time>2024-09-06T07:04:34.000Z</time>
</trkpt>
<trkpt lat="46.1398570" lon="10.1393040">
	<ele>1600.60</ele>
	<time>2024-09-06T07:04:35.000Z</time>
</trkpt>
<trkpt lat="46.1398570" lon="10.1393040">
	<ele>1600.40</ele>
	<time>2024-09-06T07:04:36.000Z</time>
</trkpt>
<trkpt lat="46.1398580" lon="10.1393030">
	<ele>1600.20</ele>
	<time>2024-09-06T07:04:37.000Z</time>
</trkpt>
<trkpt lat="46.1398600" lon="10.1393030">
	<ele>1600.20</ele>
	<time>2024-09-06T07:04:38.000Z</time>
</trkpt>
<trkpt lat="46.1398600" lon="10.1393030">
	<ele>1600.20</ele>
	<time>2024-09-06T07:04:39.000Z</time>
</trkpt>
<trkpt lat="46.1398610" lon="10.1393000">
	<ele>1600.40</ele>
	<time>2024-09-06T07:04:40.000Z</time>
</trkpt>
<trkpt lat="46.1398610" lon="10.1392980">
	<ele>1600.40</ele>
	<time>2024-09-06T07:04:41.000Z</time>
</trkpt>
<trkpt lat="46.1398610" lon="10.1392970">
	<ele>1600.60</ele>
	<time>2024-09-06T07:04:42.000Z</time>
</trkpt>
<trkpt lat="46.1398600" lon="10.1392950">
	<ele>1600.60</ele>
	<time>2024-09-06T07:04:43.000Z</time>
</trkpt>
<trkpt lat="46.1398600" lon="10.1392950">
	<ele>1600.80</ele>
	<time>2024-09-06T07:04:44.000Z</time>
</trkpt>
<trkpt lat="46.1398590" lon="10.1392950">
	<ele>1601.00</ele>
	<time>2024-09-06T07:04:45.000Z</time>
</trkpt>
<trkpt lat="46.1398590" lon="10.1392950">
	<ele>1601.20</ele>
	<time>2024-09-06T07:04:46.000Z</time>
</trkpt>
<trkpt lat="46.1398590" lon="10.1392950">
	<ele>1601.40</ele>
	<time>2024-09-06T07:04:47.000Z</time>
</trkpt>
<trkpt lat="46.1398590" lon="10.1392950">
	<ele>1601.80</ele>
	<time>2024-09-06T07:04:48.000Z</time>
</trkpt>
<trkpt lat="46.1398590" lon="10.1392950">
	<ele>1601.80</ele>
	<time>2024-09-06T07:04:49.000Z</time>
</trkpt>
<trkpt lat="46.1398600" lon="10.1392950">
	<ele>1602.00</ele>
	<time>2024-09-06T07:04:50.000Z</time>
</trkpt>
<trkpt lat="46.1398610" lon="10.1392910">
	<ele>1602.20</ele>
	<time>2024-09-06T07:04:51.000Z</time>
</trkpt>
<trkpt lat="46.1398610" lon="10.1392870">
	<ele>1602.40</ele>
	<time>2024-09-06T07:04:52.000Z</time>
</trkpt>
<trkpt lat="46.1398610" lon="10.1392860">
	<ele>1602.60</ele>
	<time>2024-09-06T07:04:53.000Z</time>
</trkpt>
<trkpt lat="46.1398610" lon="10.1392840">
	<ele>1603.00</ele>
	<time>2024-09-06T07:04:54.000Z</time>
</trkpt>
<trkpt lat="46.1398640" lon="10.1392740">
	<ele>1603.20</ele>
	<time>2024-09-06T07:04:55.000Z</time>
</trkpt>
<trkpt lat="46.1398650" lon="10.1392540">
	<ele>1603.40</ele>
	<time>2024-09-06T07:04:56.000Z</time>
</trkpt>
<trkpt lat="46.1398670" lon="10.1392360">
	<ele>1603.80</ele>
	<time>2024-09-06T07:04:57.000Z</time>
</trkpt>
<trkpt lat="46.1398740" lon="10.1392150">
	<ele>1603.80</ele>
	<time>2024-09-06T07:04:58.000Z</time>
</trkpt>
<trkpt lat="46.1398790" lon="10.1391910">
	<ele>1604.00</ele>
	<time>2024-09-06T07:04:59.000Z</time>
</trkpt>
<trkpt lat="46.1398820" lon="10.1391730">
	<ele>1604.20</ele>
	<time>2024-09-06T07:05:00.000Z</time>
</trkpt>
<trkpt lat="46.1398770" lon="10.1391580">
	<ele>1604.20</ele>
	<time>2024-09-06T07:05:01.000Z</time>
</trkpt>
<trkpt lat="46.1398700" lon="10.1391450">
	<ele>1604.40</ele>
	<time>2024-09-06T07:05:02.000Z</time>
</trkpt>
<trkpt lat="46.1398740" lon="10.1391280">
	<ele>1604.60</ele>
	<time>2024-09-06T07:05:03.000Z</time>
</trkpt>
<trkpt lat="46.1398810" lon="10.1391120">
	<ele>1604.80</ele>
	<time>2024-09-06T07:05:04.000Z</time>
</trkpt>
<trkpt lat="46.1398800" lon="10.1391050">
	<ele>1605.00</ele>
	<time>2024-09-06T07:05:05.000Z</time>
</trkpt>
<trkpt lat="46.1398810" lon="10.1390970">
	<ele>1605.20</ele>
	<time>2024-09-06T07:05:06.000Z</time>
</trkpt>
<trkpt lat="46.1398820" lon="10.1390930">
	<ele>1605.40</ele>
	<time>2024-09-06T07:05:07.000Z</time>
</trkpt>
<trkpt lat="46.1398810" lon="10.1390890">
	<ele>1605.40</ele>
	<time>2024-09-06T07:05:08.000Z</time>
</trkpt>
<trkpt lat="46.1398790" lon="10.1390800">
	<ele>1605.60</ele>
	<time>2024-09-06T07:05:09.000Z</time>
</trkpt>
<trkpt lat="46.1398740" lon="10.1390700">
	<ele>1605.80</ele>
	<time>2024-09-06T07:05:10.000Z</time>
</trkpt>
<trkpt lat="46.1398720" lon="10.1390620">
	<ele>1606.00</ele>
	<time>2024-09-06T07:05:11.000Z</time>
</trkpt>
<trkpt lat="46.1398680" lon="10.1390500">
	<ele>1606.20</ele>
	<time>2024-09-06T07:05:12.000Z</time>
</trkpt>
<trkpt lat="46.1398650" lon="10.1390420">
	<ele>1606.40</ele>
	<time>2024-09-06T07:05:13.000Z</time>
</trkpt>
<trkpt lat="46.1398540" lon="10.1390370">
	<ele>1606.60</ele>
	<time>2024-09-06T07:05:14.000Z</time>
</trkpt>
<trkpt lat="46.1398490" lon="10.1390290">
	<ele>1606.60</ele>
	<time>2024-09-06T07:05:15.000Z</time>
</trkpt>
<trkpt lat="46.1398420" lon="10.1390190">
	<ele>1606.80</ele>
	<time>2024-09-06T07:05:16.000Z</time>
</trkpt>
<trkpt lat="46.1398380" lon="10.1390070">
	<ele>1607.00</ele>
	<time>2024-09-06T07:05:17.000Z</time>
</trkpt>
<trkpt lat="46.1398370" lon="10.1389970">
	<ele>1607.20</ele>
	<time>2024-09-06T07:05:18.000Z</time>
</trkpt>
<trkpt lat="46.1398350" lon="10.1389990">
	<ele>1607.40</ele>
	<time>2024-09-06T07:05:19.000Z</time>
</trkpt>
<trkpt lat="46.1398310" lon="10.1390010">
	<ele>1607.40</ele>
	<time>2024-09-06T07:05:20.000Z</time>
</trkpt>
<trkpt lat="46.1398260" lon="10.1389960">
	<ele>1607.60</ele>
	<time>2024-09-06T07:05:21.000Z</time>
</trkpt>
<trkpt lat="46.1398310" lon="10.1389920">
	<ele>1607.80</ele>
	<time>2024-09-06T07:05:22.000Z</time>
</trkpt>
<trkpt lat="46.1398290" lon="10.1389820">
	<ele>1608.00</ele>
	<time>2024-09-06T07:05:23.000Z</time>
</trkpt>
<trkpt lat="46.1398220" lon="10.1389790">
	<ele>1608.00</ele>
	<time>2024-09-06T07:05:24.000Z</time>
</trkpt>
<trkpt lat="46.1398160" lon="10.1389690">
	<ele>1608.20</ele>
	<time>2024-09-06T07:05:25.000Z</time>
</trkpt>
<trkpt lat="46.1398020" lon="10.1389570">
	<ele>1608.40</ele>
	<time>2024-09-06T07:05:26.000Z</time>
</trkpt>
<trkpt lat="46.1397940" lon="10.1389520">
	<ele>1608.40</ele>
	<time>2024-09-06T07:05:27.000Z</time>
</trkpt>
<trkpt lat="46.1397940" lon="10.1389480">
	<ele>1608.60</ele>
	<time>2024-09-06T07:05:28.000Z</time>
</trkpt>
<trkpt lat="46.1397900" lon="10.1389460">
	<ele>1608.60</ele>
	<time>2024-09-06T07:05:29.000Z</time>
</trkpt>
<trkpt lat="46.1397900" lon="10.1389520">
	<ele>1608.80</ele>
	<time>2024-09-06T07:05:30.000Z</time>
</trkpt>
<trkpt lat="46.1397890" lon="10.1389600">
	<ele>1609.00</ele>
	<time>2024-09-06T07:05:31.000Z</time>
</trkpt>
<trkpt lat="46.1397880" lon="10.1389530">
	<ele>1609.00</ele>
	<time>2024-09-06T07:05:32.000Z</time>
</trkpt>
<trkpt lat="46.1397840" lon="10.1389400">
	<ele>1609.00</ele>
	<time>2024-09-06T07:05:33.000Z</time>
</trkpt>
<trkpt lat="46.1397780" lon="10.1389370">
	<ele>1609.40</ele>
	<time>2024-09-06T07:05:34.000Z</time>
</trkpt>
<trkpt lat="46.1397680" lon="10.1389270">
	<ele>1609.60</ele>
	<time>2024-09-06T07:05:35.000Z</time>
</trkpt>
<trkpt lat="46.1397600" lon="10.1389190">
	<ele>1609.80</ele>
	<time>2024-09-06T07:05:36.000Z</time>
</trkpt>
<trkpt lat="46.1397550" lon="10.1389190">
	<ele>1610.00</ele>
	<time>2024-09-06T07:05:37.000Z</time>
</trkpt>
<trkpt lat="46.1397430" lon="10.1389020">
	<ele>1610.40</ele>
	<time>2024-09-06T07:05:38.000Z</time>
</trkpt>
<trkpt lat="46.1397420" lon="10.1389010">
	<ele>1610.40</ele>
	<time>2024-09-06T07:05:39.000Z</time>
</trkpt>
<trkpt lat="46.1397430" lon="10.1389010">
	<ele>1610.60</ele>
	<time>2024-09-06T07:05:40.000Z</time>
</trkpt>
<trkpt lat="46.1397460" lon="10.1389000">
	<ele>1610.60</ele>
	<time>2024-09-06T07:05:41.000Z</time>
</trkpt>
<trkpt lat="46.1397440" lon="10.1388900">
	<ele>1610.60</ele>
	<time>2024-09-06T07:05:42.000Z</time>
</trkpt>
<trkpt lat="46.1397460" lon="10.1388870">
	<ele>1610.80</ele>
	<time>2024-09-06T07:05:43.000Z</time>
</trkpt>
<trkpt lat="46.1397470" lon="10.1388820">
	<ele>1610.80</ele>
	<time>2024-09-06T07:05:44.000Z</time>
</trkpt>
<trkpt lat="46.1397400" lon="10.1388690">
	<ele>1610.80</ele>
	<time>2024-09-06T07:05:45.000Z</time>
</trkpt>
<trkpt lat="46.1397420" lon="10.1388630">
	<ele>1610.80</ele>
	<time>2024-09-06T07:05:46.000Z</time>
</trkpt>
<trkpt lat="46.1397440" lon="10.1388620">
	<ele>1610.60</ele>
	<time>2024-09-06T07:05:47.000Z</time>
</trkpt>
<trkpt lat="46.1397440" lon="10.1388580">
	<ele>1610.80</ele>
	<time>2024-09-06T07:05:48.000Z</time>
</trkpt>
<trkpt lat="46.1397360" lon="10.1388460">
	<ele>1610.80</ele>
	<time>2024-09-06T07:05:49.000Z</time>
</trkpt>
<trkpt lat="46.1397340" lon="10.1388390">
	<ele>1610.80</ele>
	<time>2024-09-06T07:05:50.000Z</time>
</trkpt>
<trkpt lat="46.1397280" lon="10.1388290">
	<ele>1611.00</ele>
	<time>2024-09-06T07:05:51.000Z</time>
</trkpt>
<trkpt lat="46.1397190" lon="10.1388160">
	<ele>1611.00</ele>
	<time>2024-09-06T07:05:52.000Z</time>
</trkpt>
<trkpt lat="46.1397170" lon="10.1388100">
	<ele>1611.20</ele>
	<time>2024-09-06T07:05:53.000Z</time>
</trkpt>
<trkpt lat="46.1397100" lon="10.1387940">
	<ele>1611.40</ele>
	<time>2024-09-06T07:05:54.000Z</time>
</trkpt>
<trkpt lat="46.1397020" lon="10.1387810">
	<ele>1611.40</ele>
	<time>2024-09-06T07:05:55.000Z</time>
</trkpt>
<trkpt lat="46.1396980" lon="10.1387670">
	<ele>1611.60</ele>
	<time>2024-09-06T07:05:56.000Z</time>
</trkpt>
<trkpt lat="46.1396860" lon="10.1387520">
	<ele>1611.80</ele>
	<time>2024-09-06T07:05:57.000Z</time>
</trkpt>
<trkpt lat="46.1396750" lon="10.1387460">
	<ele>1612.00</ele>
	<time>2024-09-06T07:05:58.000Z</time>
</trkpt>
<trkpt lat="46.1396630" lon="10.1387370">
	<ele>1612.20</ele>
	<time>2024-09-06T07:05:59.000Z</time>
</trkpt>
<trkpt lat="46.1396520" lon="10.1387280">
	<ele>1612.20</ele>
	<time>2024-09-06T07:06:00.000Z</time>
</trkpt>
<trkpt lat="46.1396500" lon="10.1387260">
	<ele>1612.40</ele>
	<time>2024-09-06T07:06:01.000Z</time>
</trkpt>
<trkpt lat="46.1396480" lon="10.1387260">
	<ele>1612.60</ele>
	<time>2024-09-06T07:06:02.000Z</time>
</trkpt>
<trkpt lat="46.1396460" lon="10.1387250">
	<ele>1612.80</ele>
	<time>2024-09-06T07:06:03.000Z</time>
</trkpt>
<trkpt lat="46.1396360" lon="10.1387190">
	<ele>1613.00</ele>
	<time>2024-09-06T07:06:04.000Z</time>
</trkpt>
<trkpt lat="46.1396250" lon="10.1387130">
	<ele>1613.40</ele>
	<time>2024-09-06T07:06:05.000Z</time>
</trkpt>
<trkpt lat="46.1396220" lon="10.1387100">
	<ele>1613.60</ele>
	<time>2024-09-06T07:06:06.000Z</time>
</trkpt>
<trkpt lat="46.1396220" lon="10.1387080">
	<ele>1613.60</ele>
	<time>2024-09-06T07:06:07.000Z</time>
</trkpt>
<trkpt lat="46.1396220" lon="10.1387030">
	<ele>1613.80</ele>
	<time>2024-09-06T07:06:08.000Z</time>
</trkpt>
<trkpt lat="46.1396160" lon="10.1386900">
	<ele>1614.00</ele>
	<time>2024-09-06T07:06:09.000Z</time>
</trkpt>
<trkpt lat="46.1396120" lon="10.1386840">
	<ele>1614.00</ele>
	<time>2024-09-06T07:06:10.000Z</time>
</trkpt>
<trkpt lat="46.1396090" lon="10.1386800">
	<ele>1614.20</ele>
	<time>2024-09-06T07:06:11.000Z</time>
</trkpt>
<trkpt lat="46.1396020" lon="10.1386690">
	<ele>1614.40</ele>
	<time>2024-09-06T07:06:12.000Z</time>
</trkpt>
<trkpt lat="46.1395940" lon="10.1386660">
	<ele>1614.80</ele>
	<time>2024-09-06T07:06:13.000Z</time>
</trkpt>
<trkpt lat="46.1395970" lon="10.1386530">
	<ele>1615.00</ele>
	<time>2024-09-06T07:06:14.000Z</time>
</trkpt>
<trkpt lat="46.1395900" lon="10.1386350">
	<ele>1615.00</ele>
	<time>2024-09-06T07:06:15.000Z</time>
</trkpt>
<trkpt lat="46.1395890" lon="10.1386200">
	<ele>1615.20</ele>
	<time>2024-09-06T07:06:16.000Z</time>
</trkpt>
<trkpt lat="46.1395820" lon="10.1386120">
	<ele>1615.20</ele>
	<time>2024-09-06T07:06:17.000Z</time>
</trkpt>
<trkpt lat="46.1395750" lon="10.1386010">
	<ele>1615.20</ele>
	<time>2024-09-06T07:06:18.000Z</time>
</trkpt>
<trkpt lat="46.1395690" lon="10.1385920">
	<ele>1615.40</ele>
	<time>2024-09-06T07:06:19.000Z</time>
</trkpt>
<trkpt lat="46.1395630" lon="10.1385770">
	<ele>1615.40</ele>
	<time>2024-09-06T07:06:20.000Z</time>
</trkpt>
<trkpt lat="46.1395500" lon="10.1385660">
	<ele>1615.40</ele>
	<time>2024-09-06T07:06:21.000Z</time>
</trkpt>
<trkpt lat="46.1395420" lon="10.1385520">
	<ele>1615.60</ele>
	<time>2024-09-06T07:06:22.000Z</time>
</trkpt>
<trkpt lat="46.1395410" lon="10.1385490">
	<ele>1615.80</ele>
	<time>2024-09-06T07:06:23.000Z</time>
</trkpt>
<trkpt lat="46.1395270" lon="10.1385460">
	<ele>1616.20</ele>
	<time>2024-09-06T07:06:24.000Z</time>
</trkpt>
<trkpt lat="46.1395220" lon="10.1385450">
	<ele>1616.40</ele>
	<time>2024-09-06T07:06:25.000Z</time>
</trkpt>
<trkpt lat="46.1395120" lon="10.1385390">
	<ele>1616.60</ele>
	<time>2024-09-06T07:06:26.000Z</time>
</trkpt>
<trkpt lat="46.1394990" lon="10.1385360">
	<ele>1616.80</ele>
	<time>2024-09-06T07:06:27.000Z</time>
</trkpt>
<trkpt lat="46.1394880" lon="10.1385240">
	<ele>1617.00</ele>
	<time>2024-09-06T07:06:28.000Z</time>
</trkpt>
<trkpt lat="46.1394810" lon="10.1385090">
	<ele>1617.20</ele>
	<time>2024-09-06T07:06:29.000Z</time>
</trkpt>
<trkpt lat="46.1394730" lon="10.1384880">
	<ele>1617.40</ele>
	<time>2024-09-06T07:06:30.000Z</time>
</trkpt>
<trkpt lat="46.1394530" lon="10.1384700">
	<ele>1617.40</ele>
	<time>2024-09-06T07:06:31.000Z</time>
</trkpt>
<trkpt lat="46.1394430" lon="10.1384660">
	<ele>1617.60</ele>
	<time>2024-09-06T07:06:32.000Z</time>
</trkpt>
<trkpt lat="46.1394400" lon="10.1384630">
	<ele>1617.60</ele>
	<time>2024-09-06T07:06:33.000Z</time>
</trkpt>
<trkpt lat="46.1394260" lon="10.1384540">
	<ele>1617.60</ele>
	<time>2024-09-06T07:06:34.000Z</time>
</trkpt>
<trkpt lat="46.1394110" lon="10.1384410">
	<ele>1617.80</ele>
	<time>2024-09-06T07:06:35.000Z</time>
</trkpt>
<trkpt lat="46.1393970" lon="10.1384290">
	<ele>1617.80</ele>
	<time>2024-09-06T07:06:36.000Z</time>
</trkpt>
<trkpt lat="46.1393900" lon="10.1384260">
	<ele>1618.00</ele>
	<time>2024-09-06T07:06:37.000Z</time>
</trkpt>
<trkpt lat="46.1393910" lon="10.1384300">
	<ele>1618.20</ele>
	<time>2024-09-06T07:06:38.000Z</time>
</trkpt>
<trkpt lat="46.1393950" lon="10.1384310">
	<ele>1618.20</ele>
	<time>2024-09-06T07:06:39.000Z</time>
</trkpt>
<trkpt lat="46.1393930" lon="10.1384300">
	<ele>1618.40</ele>
	<time>2024-09-06T07:06:40.000Z</time>
</trkpt>
<trkpt lat="46.1393870" lon="10.1384220">
	<ele>1618.60</ele>
	<time>2024-09-06T07:06:41.000Z</time>
</trkpt>
<trkpt lat="46.1393850" lon="10.1384170">
	<ele>1618.80</ele>
	<time>2024-09-06T07:06:42.000Z</time>
</trkpt>
<trkpt lat="46.1393680" lon="10.1384090">
	<ele>1618.80</ele>
	<time>2024-09-06T07:06:43.000Z</time>
</trkpt>
<trkpt lat="46.1393620" lon="10.1384080">
	<ele>1619.00</ele>
	<time>2024-09-06T07:06:44.000Z</time>
</trkpt>
<trkpt lat="46.1393440" lon="10.1383990">
	<ele>1619.00</ele>
	<time>2024-09-06T07:06:45.000Z</time>
</trkpt>
<trkpt lat="46.1393400" lon="10.1383930">
	<ele>1619.00</ele>
	<time>2024-09-06T07:06:46.000Z</time>
</trkpt>
<trkpt lat="46.1393330" lon="10.1383830">
	<ele>1619.00</ele>
	<time>2024-09-06T07:06:47.000Z</time>
</trkpt>
<trkpt lat="46.1393300" lon="10.1383840">
	<ele>1619.20</ele>
	<time>2024-09-06T07:06:48.000Z</time>
</trkpt>
<trkpt lat="46.1393290" lon="10.1383860">
	<ele>1619.20</ele>
	<time>2024-09-06T07:06:49.000Z</time>
</trkpt>
<trkpt lat="46.1393300" lon="10.1383910">
	<ele>1619.40</ele>
	<time>2024-09-06T07:06:50.000Z</time>
</trkpt>
<trkpt lat="46.1393290" lon="10.1383930">
	<ele>1619.40</ele>
	<time>2024-09-06T07:06:51.000Z</time>
</trkpt>
<trkpt lat="46.1393200" lon="10.1383800">
	<ele>1619.60</ele>
	<time>2024-09-06T07:06:52.000Z</time>
</trkpt>
<trkpt lat="46.1393180" lon="10.1383760">
	<ele>1619.80</ele>
	<time>2024-09-06T07:06:53.000Z</time>
</trkpt>
<trkpt lat="46.1393140" lon="10.1383650">
	<ele>1620.00</ele>
	<time>2024-09-06T07:06:54.000Z</time>
</trkpt>
<trkpt lat="46.1393030" lon="10.1383520">
	<ele>1620.00</ele>
	<time>2024-09-06T07:06:55.000Z</time>
</trkpt>
<trkpt lat="46.1392900" lon="10.1383390">
	<ele>1620.00</ele>
	<time>2024-09-06T07:06:56.000Z</time>
</trkpt>
<trkpt lat="46.1392810" lon="10.1383280">
	<ele>1620.20</ele>
	<time>2024-09-06T07:06:57.000Z</time>
</trkpt>
<trkpt lat="46.1392690" lon="10.1383130">
	<ele>1620.20</ele>
	<time>2024-09-06T07:06:58.000Z</time>
</trkpt>
<trkpt lat="46.1392540" lon="10.1382990">
	<ele>1620.40</ele>
	<time>2024-09-06T07:06:59.000Z</time>
</trkpt>
<trkpt lat="46.1392340" lon="10.1382880">
	<ele>1620.60</ele>
	<time>2024-09-06T07:07:00.000Z</time>
</trkpt>
<trkpt lat="46.1392210" lon="10.1382780">
	<ele>1620.60</ele>
	<time>2024-09-06T07:07:01.000Z</time>
</trkpt>
<trkpt lat="46.1392180" lon="10.1382700">
	<ele>1620.80</ele>
	<time>2024-09-06T07:07:02.000Z</time>
</trkpt>
<trkpt lat="46.1392140" lon="10.1382690">
	<ele>1620.80</ele>
	<time>2024-09-06T07:07:03.000Z</time>
</trkpt>
<trkpt lat="46.1392100" lon="10.1382660">
	<ele>1621.00</ele>
	<time>2024-09-06T07:07:04.000Z</time>
</trkpt>
<trkpt lat="46.1392000" lon="10.1382560">
	<ele>1621.20</ele>
	<time>2024-09-06T07:07:05.000Z</time>
</trkpt>
<trkpt lat="46.1391950" lon="10.1382490">
	<ele>1621.40</ele>
	<time>2024-09-06T07:07:06.000Z</time>
</trkpt>
<trkpt lat="46.1391840" lon="10.1382370">
	<ele>1621.40</ele>
	<time>2024-09-06T07:07:07.000Z</time>
</trkpt>
<trkpt lat="46.1391710" lon="10.1382240">
	<ele>1621.60</ele>
	<time>2024-09-06T07:07:08.000Z</time>
</trkpt>
<trkpt lat="46.1391680" lon="10.1382230">
	<ele>1621.80</ele>
	<time>2024-09-06T07:07:09.000Z</time>
</trkpt>
<trkpt lat="46.1391620" lon="10.1382140">
	<ele>1621.80</ele>
	<time>2024-09-06T07:07:10.000Z</time>
</trkpt>
<trkpt lat="46.1391570" lon="10.1382080">
	<ele>1622.00</ele>
	<time>2024-09-06T07:07:11.000Z</time>
</trkpt>
<trkpt lat="46.1391590" lon="10.1382120">
	<ele>1622.00</ele>
	<time>2024-09-06T07:07:12.000Z</time>
</trkpt>
<trkpt lat="46.1391590" lon="10.1382130">
	<ele>1622.20</ele>
	<time>2024-09-06T07:07:13.000Z</time>
</trkpt>
<trkpt lat="46.1391580" lon="10.1382110">
	<ele>1622.20</ele>
	<time>2024-09-06T07:07:14.000Z</time>
</trkpt>
<trkpt lat="46.1391400" lon="10.1381990">
	<ele>1622.40</ele>
	<time>2024-09-06T07:07:15.000Z</time>
</trkpt>
<trkpt lat="46.1391240" lon="10.1381890">
	<ele>1622.40</ele>
	<time>2024-09-06T07:07:16.000Z</time>
</trkpt>
<trkpt lat="46.1391120" lon="10.1381800">
	<ele>1622.60</ele>
	<time>2024-09-06T07:07:17.000Z</time>
</trkpt>
<trkpt lat="46.1391040" lon="10.1381700">
	<ele>1622.80</ele>
	<time>2024-09-06T07:07:18.000Z</time>
</trkpt>
<trkpt lat="46.1391040" lon="10.1381630">
	<ele>1622.80</ele>
	<time>2024-09-06T07:07:19.000Z</time>
</trkpt>
<trkpt lat="46.1391040" lon="10.1381600">
	<ele>1623.00</ele>
	<time>2024-09-06T07:07:20.000Z</time>
</trkpt>
<trkpt lat="46.1391030" lon="10.1381580">
	<ele>1623.00</ele>
	<time>2024-09-06T07:07:21.000Z</time>
</trkpt>
<trkpt lat="46.1390960" lon="10.1381480">
	<ele>1623.00</ele>
	<time>2024-09-06T07:07:22.000Z</time>
</trkpt>
<trkpt lat="46.1390920" lon="10.1381440">
	<ele>1623.20</ele>
	<time>2024-09-06T07:07:23.000Z</time>
</trkpt>
<trkpt lat="46.1390850" lon="10.1381350">
	<ele>1623.40</ele>
	<time>2024-09-06T07:07:24.000Z</time>
</trkpt>
<trkpt lat="46.1390720" lon="10.1381230">
	<ele>1623.40</ele>
	<time>2024-09-06T07:07:25.000Z</time>
</trkpt>
<trkpt lat="46.1390600" lon="10.1381130">
	<ele>1623.60</ele>
	<time>2024-09-06T07:07:26.000Z</time>
</trkpt>
<trkpt lat="46.1390520" lon="10.1381000">
	<ele>1623.80</ele>
	<time>2024-09-06T07:07:27.000Z</time>
</trkpt>
<trkpt lat="46.1390460" lon="10.1380810">
	<ele>1623.80</ele>
	<time>2024-09-06T07:07:28.000Z</time>
</trkpt>
<trkpt lat="46.1390310" lon="10.1380700">
	<ele>1624.00</ele>
	<time>2024-09-06T07:07:29.000Z</time>
</trkpt>
<trkpt lat="46.1390270" lon="10.1380650">
	<ele>1624.20</ele>
	<time>2024-09-06T07:07:30.000Z</time>
</trkpt>
<trkpt lat="46.1390270" lon="10.1380650">
	<ele>1624.20</ele>
	<time>2024-09-06T07:07:31.000Z</time>
</trkpt>
<trkpt lat="46.1390190" lon="10.1380490">
	<ele>1624.60</ele>
	<time>2024-09-06T07:07:32.000Z</time>
</trkpt>
<trkpt lat="46.1390160" lon="10.1380440">
	<ele>1624.80</ele>
	<time>2024-09-06T07:07:33.000Z</time>
</trkpt>
<trkpt lat="46.1390100" lon="10.1380350">
	<ele>1625.00</ele>
	<time>2024-09-06T07:07:34.000Z</time>
</trkpt>
<trkpt lat="46.1390060" lon="10.1380260">
	<ele>1625.20</ele>
	<time>2024-09-06T07:07:35.000Z</time>
</trkpt>
<trkpt lat="46.1390060" lon="10.1380220">
	<ele>1625.40</ele>
	<time>2024-09-06T07:07:36.000Z</time>
</trkpt>
<trkpt lat="46.1390060" lon="10.1380120">
	<ele>1625.60</ele>
	<time>2024-09-06T07:07:37.000Z</time>
</trkpt>
<trkpt lat="46.1390110" lon="10.1380000">
	<ele>1625.80</ele>
	<time>2024-09-06T07:07:38.000Z</time>
</trkpt>
<trkpt lat="46.1390050" lon="10.1379920">
	<ele>1626.00</ele>
	<time>2024-09-06T07:07:39.000Z</time>
</trkpt>
<trkpt lat="46.1389950" lon="10.1379870">
	<ele>1626.20</ele>
	<time>2024-09-06T07:07:40.000Z</time>
</trkpt>
<trkpt lat="46.1389820" lon="10.1379850">
	<ele>1626.40</ele>
	<time>2024-09-06T07:07:41.000Z</time>
</trkpt>
<trkpt lat="46.1389720" lon="10.1379800">
	<ele>1626.60</ele>
	<time>2024-09-06T07:07:42.000Z</time>
</trkpt>
<trkpt lat="46.1389670" lon="10.1379770">
	<ele>1626.80</ele>
	<time>2024-09-06T07:07:43.000Z</time>
</trkpt>
<trkpt lat="46.1389640" lon="10.1379740">
	<ele>1627.00</ele>
	<time>2024-09-06T07:07:44.000Z</time>
</trkpt>
<trkpt lat="46.1389530" lon="10.1379700">
	<ele>1627.40</ele>
	<time>2024-09-06T07:07:45.000Z</time>
</trkpt>
<trkpt lat="46.1389430" lon="10.1379590">
	<ele>1627.60</ele>
	<time>2024-09-06T07:07:46.000Z</time>
</trkpt>
<trkpt lat="46.1389360" lon="10.1379440">
	<ele>1627.80</ele>
	<time>2024-09-06T07:07:47.000Z</time>
</trkpt>
<trkpt lat="46.1389260" lon="10.1379300">
	<ele>1627.80</ele>
	<time>2024-09-06T07:07:48.000Z</time>
</trkpt>
<trkpt lat="46.1389150" lon="10.1379230">
	<ele>1628.00</ele>
	<time>2024-09-06T07:07:49.000Z</time>
</trkpt>
<trkpt lat="46.1389000" lon="10.1379150">
	<ele>1628.00</ele>
	<time>2024-09-06T07:07:50.000Z</time>
</trkpt>
<trkpt lat="46.1388960" lon="10.1379080">
	<ele>1628.20</ele>
	<time>2024-09-06T07:07:51.000Z</time>
</trkpt>
<trkpt lat="46.1388850" lon="10.1379040">
	<ele>1628.20</ele>
	<time>2024-09-06T07:07:52.000Z</time>
</trkpt>
<trkpt lat="46.1388730" lon="10.1378940">
	<ele>1628.40</ele>
	<time>2024-09-06T07:07:53.000Z</time>
</trkpt>
<trkpt lat="46.1388640" lon="10.1378800">
	<ele>1628.60</ele>
	<time>2024-09-06T07:07:54.000Z</time>
</trkpt>
<trkpt lat="46.1388550" lon="10.1378730">
	<ele>1628.80</ele>
	<time>2024-09-06T07:07:55.000Z</time>
</trkpt>
<trkpt lat="46.1388530" lon="10.1378660">
	<ele>1628.80</ele>
	<time>2024-09-06T07:07:56.000Z</time>
</trkpt>
<trkpt lat="46.1388470" lon="10.1378640">
	<ele>1628.80</ele>
	<time>2024-09-06T07:07:57.000Z</time>
</trkpt>
<trkpt lat="46.1388460" lon="10.1378610">
	<ele>1629.00</ele>
	<time>2024-09-06T07:07:58.000Z</time>
</trkpt>
<trkpt lat="46.1388430" lon="10.1378530">
	<ele>1629.20</ele>
	<time>2024-09-06T07:07:59.000Z</time>
</trkpt>
<trkpt lat="46.1388390" lon="10.1378420">
	<ele>1629.20</ele>
	<time>2024-09-06T07:08:00.000Z</time>
</trkpt>
<trkpt lat="46.1388370" lon="10.1378330">
	<ele>1629.40</ele>
	<time>2024-09-06T07:08:01.000Z</time>
</trkpt>
<trkpt lat="46.1388320" lon="10.1378270">
	<ele>1629.60</ele>
	<time>2024-09-06T07:08:02.000Z</time>
</trkpt>
<trkpt lat="46.1388270" lon="10.1378250">
	<ele>1629.80</ele>
	<time>2024-09-06T07:08:03.000Z</time>
</trkpt>
<trkpt lat="46.1388190" lon="10.1378220">
	<ele>1630.00</ele>
	<time>2024-09-06T07:08:04.000Z</time>
</trkpt>
<trkpt lat="46.1388190" lon="10.1378190">
	<ele>1630.00</ele>
	<time>2024-09-06T07:08:05.000Z</time>
</trkpt>
<trkpt lat="46.1388100" lon="10.1378040">
	<ele>1630.20</ele>
	<time>2024-09-06T07:08:06.000Z</time>
</trkpt>
<trkpt lat="46.1388070" lon="10.1377970">
	<ele>1630.40</ele>
	<time>2024-09-06T07:08:07.000Z</time>
</trkpt>
<trkpt lat="46.1388040" lon="10.1377920">
	<ele>1630.40</ele>
	<time>2024-09-06T07:08:08.000Z</time>
</trkpt>
<trkpt lat="46.1388050" lon="10.1377870">
	<ele>1630.60</ele>
	<time>2024-09-06T07:08:09.000Z</time>
</trkpt>
<trkpt lat="46.1388030" lon="10.1377800">
	<ele>1630.60</ele>
	<time>2024-09-06T07:08:10.000Z</time>
</trkpt>
<trkpt lat="46.1387950" lon="10.1377730">
	<ele>1630.60</ele>
	<time>2024-09-06T07:08:11.000Z</time>
</trkpt>
<trkpt lat="46.1387840" lon="10.1377640">
	<ele>1630.80</ele>
	<time>2024-09-06T07:08:12.000Z</time>
</trkpt>
<trkpt lat="46.1387740" lon="10.1377500">
	<ele>1631.00</ele>
	<time>2024-09-06T07:08:13.000Z</time>
</trkpt>
<trkpt lat="46.1387660" lon="10.1377360">
	<ele>1631.00</ele>
	<time>2024-09-06T07:08:14.000Z</time>
</trkpt>
<trkpt lat="46.1387580" lon="10.1377290">
	<ele>1631.20</ele>
	<time>2024-09-06T07:08:15.000Z</time>
</trkpt>
<trkpt lat="46.1387490" lon="10.1377180">
	<ele>1631.20</ele>
	<time>2024-09-06T07:08:16.000Z</time>
</trkpt>
<trkpt lat="46.1387390" lon="10.1377120">
	<ele>1631.20</ele>
	<time>2024-09-06T07:08:17.000Z</time>
</trkpt>
<trkpt lat="46.1387350" lon="10.1377110">
	<ele>1631.60</ele>
	<time>2024-09-06T07:08:18.000Z</time>
</trkpt>
<trkpt lat="46.1387260" lon="10.1377070">
	<ele>1631.80</ele>
	<time>2024-09-06T07:08:19.000Z</time>
</trkpt>
<trkpt lat="46.1387220" lon="10.1377020">
	<ele>1631.80</ele>
	<time>2024-09-06T07:08:20.000Z</time>
</trkpt>
<trkpt lat="46.1387160" lon="10.1376980">
	<ele>1632.00</ele>
	<time>2024-09-06T07:08:21.000Z</time>
</trkpt>
<trkpt lat="46.1387130" lon="10.1376970">
	<ele>1632.00</ele>
	<time>2024-09-06T07:08:22.000Z</time>
</trkpt>
<trkpt lat="46.1386990" lon="10.1376900">
	<ele>1632.00</ele>
	<time>2024-09-06T07:08:23.000Z</time>
</trkpt>
<trkpt lat="46.1386940" lon="10.1376780">
	<ele>1632.00</ele>
	<time>2024-09-06T07:08:24.000Z</time>
</trkpt>
<trkpt lat="46.1386920" lon="10.1376650">
	<ele>1632.20</ele>
	<time>2024-09-06T07:08:25.000Z</time>
</trkpt>
<trkpt lat="46.1386880" lon="10.1376560">
	<ele>1632.40</ele>
	<time>2024-09-06T07:08:26.000Z</time>
</trkpt>
<trkpt lat="46.1386850" lon="10.1376560">
	<ele>1632.40</ele>
	<time>2024-09-06T07:08:27.000Z</time>
</trkpt>
<trkpt lat="46.1386830" lon="10.1376560">
	<ele>1632.60</ele>
	<time>2024-09-06T07:08:28.000Z</time>
</trkpt>
<trkpt lat="46.1386750" lon="10.1376470">
	<ele>1632.60</ele>
	<time>2024-09-06T07:08:29.000Z</time>
</trkpt>
<trkpt lat="46.1386750" lon="10.1376420">
	<ele>1632.80</ele>
	<time>2024-09-06T07:08:30.000Z</time>
</trkpt>
<trkpt lat="46.1386690" lon="10.1376310">
	<ele>1632.80</ele>
	<time>2024-09-06T07:08:31.000Z</time>
</trkpt>
<trkpt lat="46.1386620" lon="10.1376150">
	<ele>1633.00</ele>
	<time>2024-09-06T07:08:32.000Z</time>
</trkpt>
<trkpt lat="46.1386440" lon="10.1376010">
	<ele>1633.00</ele>
	<time>2024-09-06T07:08:33.000Z</time>
</trkpt>
<trkpt lat="46.1386280" lon="10.1375890">
	<ele>1633.00</ele>
	<time>2024-09-06T07:08:34.000Z</time>
</trkpt>
<trkpt lat="46.1386140" lon="10.1375880">
	<ele>1633.20</ele>
	<time>2024-09-06T07:08:35.000Z</time>
</trkpt>
<trkpt lat="46.1386020" lon="10.1375850">
	<ele>1633.20</ele>
	<time>2024-09-06T07:08:36.000Z</time>
</trkpt>
<trkpt lat="46.1386020" lon="10.1375870">
	<ele>1633.60</ele>
	<time>2024-09-06T07:08:37.000Z</time>
</trkpt>
<trkpt lat="46.1386000" lon="10.1375840">
	<ele>1633.80</ele>
	<time>2024-09-06T07:08:38.000Z</time>
</trkpt>
<trkpt lat="46.1386010" lon="10.1375850">
	<ele>1634.00</ele>
	<time>2024-09-06T07:08:39.000Z</time>
</trkpt>
<trkpt lat="46.1385940" lon="10.1375770">
	<ele>1634.00</ele>
	<time>2024-09-06T07:08:40.000Z</time>
</trkpt>
<trkpt lat="46.1385880" lon="10.1375650">
	<ele>1634.20</ele>
	<time>2024-09-06T07:08:41.000Z</time>
</trkpt>
<trkpt lat="46.1385800" lon="10.1375540">
	<ele>1634.20</ele>
	<time>2024-09-06T07:08:42.000Z</time>
</trkpt>
<trkpt lat="46.1385710" lon="10.1375510">
	<ele>1634.20</ele>
	<time>2024-09-06T07:08:43.000Z</time>
</trkpt>
<trkpt lat="46.1385680" lon="10.1375420">
	<ele>1634.40</ele>
	<time>2024-09-06T07:08:44.000Z</time>
</trkpt>
<trkpt lat="46.1385690" lon="10.1375360">
	<ele>1634.60</ele>
	<time>2024-09-06T07:08:45.000Z</time>
</trkpt>
<trkpt lat="46.1385720" lon="10.1375360">
	<ele>1634.80</ele>
	<time>2024-09-06T07:08:46.000Z</time>
</trkpt>
<trkpt lat="46.1385740" lon="10.1375320">
	<ele>1635.00</ele>
	<time>2024-09-06T07:08:47.000Z</time>
</trkpt>
<trkpt lat="46.1385780" lon="10.1375300">
	<ele>1635.00</ele>
	<time>2024-09-06T07:08:48.000Z</time>
</trkpt>
<trkpt lat="46.1385710" lon="10.1375220">
	<ele>1635.20</ele>
	<time>2024-09-06T07:08:49.000Z</time>
</trkpt>
<trkpt lat="46.1385590" lon="10.1375130">
	<ele>1635.20</ele>
	<time>2024-09-06T07:08:50.000Z</time>
</trkpt>
<trkpt lat="46.1385460" lon="10.1375070">
	<ele>1635.20</ele>
	<time>2024-09-06T07:08:51.000Z</time>
</trkpt>
<trkpt lat="46.1385320" lon="10.1374970">
	<ele>1635.20</ele>
	<time>2024-09-06T07:08:52.000Z</time>
</trkpt>
<trkpt lat="46.1385140" lon="10.1374760">
	<ele>1635.40</ele>
	<time>2024-09-06T07:08:53.000Z</time>
</trkpt>
<trkpt lat="46.1385090" lon="10.1374660">
	<ele>1635.40</ele>
	<time>2024-09-06T07:08:54.000Z</time>
</trkpt>
<trkpt lat="46.1384930" lon="10.1374700">
	<ele>1635.40</ele>
	<time>2024-09-06T07:08:55.000Z</time>
</trkpt>
<trkpt lat="46.1384860" lon="10.1374730">
	<ele>1635.40</ele>
	<time>2024-09-06T07:08:56.000Z</time>
</trkpt>
<trkpt lat="46.1384820" lon="10.1374740">
	<ele>1635.60</ele>
	<time>2024-09-06T07:08:57.000Z</time>
</trkpt>
<trkpt lat="46.1384700" lon="10.1374650">
	<ele>1635.80</ele>
	<time>2024-09-06T07:08:58.000Z</time>
</trkpt>
<trkpt lat="46.1384690" lon="10.1374650">
	<ele>1636.00</ele>
	<time>2024-09-06T07:08:59.000Z</time>
</trkpt>
<trkpt lat="46.1384670" lon="10.1374530">
	<ele>1636.20</ele>
	<time>2024-09-06T07:09:00.000Z</time>
</trkpt>
<trkpt lat="46.1384740" lon="10.1374480">
	<ele>1636.20</ele>
	<time>2024-09-06T07:09:01.000Z</time>
</trkpt>
<trkpt lat="46.1384800" lon="10.1374490">
	<ele>1636.40</ele>
	<time>2024-09-06T07:09:02.000Z</time>
</trkpt>
<trkpt lat="46.1384810" lon="10.1374500">
	<ele>1636.60</ele>
	<time>2024-09-06T07:09:03.000Z</time>
</trkpt>
<trkpt lat="46.1384730" lon="10.1374430">
	<ele>1636.80</ele>
	<time>2024-09-06T07:09:04.000Z</time>
</trkpt>
<trkpt lat="46.1384580" lon="10.1374370">
	<ele>1637.00</ele>
	<time>2024-09-06T07:09:05.000Z</time>
</trkpt>
<trkpt lat="46.1384520" lon="10.1374260">
	<ele>1637.20</ele>
	<time>2024-09-06T07:09:06.000Z</time>
</trkpt>
<trkpt lat="46.1384540" lon="10.1374150">
	<ele>1637.20</ele>
	<time>2024-09-06T07:09:07.000Z</time>
</trkpt>
<trkpt lat="46.1384510" lon="10.1374030">
	<ele>1637.20</ele>
	<time>2024-09-06T07:09:08.000Z</time>
</trkpt>
<trkpt lat="46.1384500" lon="10.1373920">
	<ele>1637.20</ele>
	<time>2024-09-06T07:09:09.000Z</time>
</trkpt>
<trkpt lat="46.1384430" lon="10.1373830">
	<ele>1637.40</ele>
	<time>2024-09-06T07:09:10.000Z</time>
</trkpt>
<trkpt lat="46.1384200" lon="10.1373790">
	<ele>1637.40</ele>
	<time>2024-09-06T07:09:11.000Z</time>
</trkpt>
<trkpt lat="46.1384000" lon="10.1373780">
	<ele>1637.40</ele>
	<time>2024-09-06T07:09:12.000Z</time>
</trkpt>
<trkpt lat="46.1383960" lon="10.1373770">
	<ele>1637.40</ele>
	<time>2024-09-06T07:09:13.000Z</time>
</trkpt>
<trkpt lat="46.1383950" lon="10.1373760">
	<ele>1637.60</ele>
	<time>2024-09-06T07:09:14.000Z</time>
</trkpt>
<trkpt lat="46.1383880" lon="10.1373610">
	<ele>1637.60</ele>
	<time>2024-09-06T07:09:15.000Z</time>
</trkpt>
<trkpt lat="46.1383820" lon="10.1373430">
	<ele>1637.80</ele>
	<time>2024-09-06T07:09:16.000Z</time>
</trkpt>
<trkpt lat="46.1383750" lon="10.1373270">
	<ele>1637.80</ele>
	<time>2024-09-06T07:09:17.000Z</time>
</trkpt>
<trkpt lat="46.1383720" lon="10.1373160">
	<ele>1638.00</ele>
	<time>2024-09-06T07:09:18.000Z</time>
</trkpt>
<trkpt lat="46.1383730" lon="10.1373170">
	<ele>1638.20</ele>
	<time>2024-09-06T07:09:19.000Z</time>
</trkpt>
<trkpt lat="46.1383660" lon="10.1373080">
	<ele>1638.40</ele>
	<time>2024-09-06T07:09:20.000Z</time>
</trkpt>
<trkpt lat="46.1383630" lon="10.1373060">
	<ele>1638.40</ele>
	<time>2024-09-06T07:09:21.000Z</time>
</trkpt>
<trkpt lat="46.1383540" lon="10.1373000">
	<ele>1638.60</ele>
	<time>2024-09-06T07:09:22.000Z</time>
</trkpt>
<trkpt lat="46.1383510" lon="10.1372990">
	<ele>1638.80</ele>
	<time>2024-09-06T07:09:23.000Z</time>
</trkpt>
<trkpt lat="46.1383480" lon="10.1372990">
	<ele>1638.80</ele>
	<time>2024-09-06T07:09:24.000Z</time>
</trkpt>
<trkpt lat="46.1383410" lon="10.1372830">
	<ele>1639.00</ele>
	<time>2024-09-06T07:09:25.000Z</time>
</trkpt>
<trkpt lat="46.1383330" lon="10.1372690">
	<ele>1639.20</ele>
	<time>2024-09-06T07:09:26.000Z</time>
</trkpt>
<trkpt lat="46.1383330" lon="10.1372650">
	<ele>1639.20</ele>
	<time>2024-09-06T07:09:27.000Z</time>
</trkpt>
<trkpt lat="46.1383420" lon="10.1372540">
	<ele>1639.40</ele>
	<time>2024-09-06T07:09:28.000Z</time>
</trkpt>
<trkpt lat="46.1383430" lon="10.1372420">
	<ele>1639.60</ele>
	<time>2024-09-06T07:09:29.000Z</time>
</trkpt>
<trkpt lat="46.1383460" lon="10.1372350">
	<ele>1639.60</ele>
	<time>2024-09-06T07:09:30.000Z</time>
</trkpt>
<trkpt lat="46.1383470" lon="10.1372310">
	<ele>1639.80</ele>
	<time>2024-09-06T07:09:31.000Z</time>
</trkpt>
<trkpt lat="46.1383490" lon="10.1372250">
	<ele>1640.00</ele>
	<time>2024-09-06T07:09:32.000Z</time>
</trkpt>
<trkpt lat="46.1383490" lon="10.1372230">
	<ele>1640.20</ele>
	<time>2024-09-06T07:09:33.000Z</time>
</trkpt>
<trkpt lat="46.1383460" lon="10.1372150">
	<ele>1640.40</ele>
	<time>2024-09-06T07:09:34.000Z</time>
</trkpt>
<trkpt lat="46.1383380" lon="10.1372060">
	<ele>1640.60</ele>
	<time>2024-09-06T07:09:35.000Z</time>
</trkpt>
<trkpt lat="46.1383300" lon="10.1371980">
	<ele>1640.80</ele>
	<time>2024-09-06T07:09:36.000Z</time>
</trkpt>
<trkpt lat="46.1383490" lon="10.1371920">
	<ele>1641.00</ele>
	<time>2024-09-06T07:09:37.000Z</time>
</trkpt>
<trkpt lat="46.1383620" lon="10.1371830">
	<ele>1641.00</ele>
	<time>2024-09-06T07:09:38.000Z</time>
</trkpt>
<trkpt lat="46.1383590" lon="10.1371750">
	<ele>1641.00</ele>
	<time>2024-09-06T07:09:39.000Z</time>
</trkpt>
<trkpt lat="46.1383460" lon="10.1371690">
	<ele>1641.00</ele>
	<time>2024-09-06T07:09:40.000Z</time>
</trkpt>
<trkpt lat="46.1383200" lon="10.1371560">
	<ele>1641.20</ele>
	<time>2024-09-06T07:09:41.000Z</time>
</trkpt>
<trkpt lat="46.1383180" lon="10.1371560">
	<ele>1641.20</ele>
	<time>2024-09-06T07:09:42.000Z</time>
</trkpt>
<trkpt lat="46.1382820" lon="10.1371360">
	<ele>1641.40</ele>
	<time>2024-09-06T07:09:43.000Z</time>
</trkpt>
<trkpt lat="46.1382580" lon="10.1371130">
	<ele>1641.40</ele>
	<time>2024-09-06T07:09:44.000Z</time>
</trkpt>
<trkpt lat="46.1382350" lon="10.1370920">
	<ele>1641.60</ele>
	<time>2024-09-06T07:09:45.000Z</time>
</trkpt>
<trkpt lat="46.1382340" lon="10.1370890">
	<ele>1641.60</ele>
	<time>2024-09-06T07:09:46.000Z</time>
</trkpt>
<trkpt lat="46.1382120" lon="10.1370710">
	<ele>1641.60</ele>
	<time>2024-09-06T07:09:47.000Z</time>
</trkpt>
<trkpt lat="46.1381880" lon="10.1370580">
	<ele>1641.60</ele>
	<time>2024-09-06T07:09:48.000Z</time>
</trkpt>
<trkpt lat="46.1381680" lon="10.1370390">
	<ele>1641.80</ele>
	<time>2024-09-06T07:09:49.000Z</time>
</trkpt>
<trkpt lat="46.1381410" lon="10.1370200">
	<ele>1641.80</ele>
	<time>2024-09-06T07:09:50.000Z</time>
</trkpt>
<trkpt lat="46.1381190" lon="10.1369990">
	<ele>1641.80</ele>
	<time>2024-09-06T07:09:51.000Z</time>
</trkpt>
<trkpt lat="46.1381030" lon="10.1369790">
	<ele>1641.80</ele>
	<time>2024-09-06T07:09:52.000Z</time>
</trkpt>
<trkpt lat="46.1380850" lon="10.1369600">
	<ele>1642.00</ele>
	<time>2024-09-06T07:09:53.000Z</time>
</trkpt>
<trkpt lat="46.1380660" lon="10.1369480">
	<ele>1642.20</ele>
	<time>2024-09-06T07:09:54.000Z</time>
</trkpt>
<trkpt lat="46.1380500" lon="10.1369290">
	<ele>1642.20</ele>
	<time>2024-09-06T07:09:55.000Z</time>
</trkpt>
<trkpt lat="46.1380370" lon="10.1369090">
	<ele>1642.40</ele>
	<time>2024-09-06T07:09:56.000Z</time>
</trkpt>
<trkpt lat="46.1380240" lon="10.1368960">
	<ele>1642.40</ele>
	<time>2024-09-06T07:09:57.000Z</time>
</trkpt>
<trkpt lat="46.1380100" lon="10.1368930">
	<ele>1642.60</ele>
	<time>2024-09-06T07:09:58.000Z</time>
</trkpt>
<trkpt lat="46.1380020" lon="10.1368880">
	<ele>1642.80</ele>
	<time>2024-09-06T07:09:59.000Z</time>
</trkpt>
<trkpt lat="46.1379940" lon="10.1368740">
	<ele>1643.00</ele>
	<time>2024-09-06T07:10:00.000Z</time>
</trkpt>
<trkpt lat="46.1379860" lon="10.1368630">
	<ele>1643.00</ele>
	<time>2024-09-06T07:10:01.000Z</time>
</trkpt>
<trkpt lat="46.1379780" lon="10.1368590">
	<ele>1643.00</ele>
	<time>2024-09-06T07:10:02.000Z</time>
</trkpt>
<trkpt lat="46.1379710" lon="10.1368550">
	<ele>1643.20</ele>
	<time>2024-09-06T07:10:03.000Z</time>
</trkpt>
<trkpt lat="46.1379600" lon="10.1368500">
	<ele>1643.40</ele>
	<time>2024-09-06T07:10:04.000Z</time>
</trkpt>
<trkpt lat="46.1379570" lon="10.1368480">
	<ele>1643.60</ele>
	<time>2024-09-06T07:10:05.000Z</time>
</trkpt>
<trkpt lat="46.1379550" lon="10.1368490">
	<ele>1643.60</ele>
	<time>2024-09-06T07:10:06.000Z</time>
</trkpt>
<trkpt lat="46.1379530" lon="10.1368480">
	<ele>1644.00</ele>
	<time>2024-09-06T07:10:07.000Z</time>
</trkpt>
<trkpt lat="46.1379590" lon="10.1368440">
	<ele>1644.20</ele>
	<time>2024-09-06T07:10:08.000Z</time>
</trkpt>
<trkpt lat="46.1379640" lon="10.1368380">
	<ele>1644.40</ele>
	<time>2024-09-06T07:10:09.000Z</time>
</trkpt>
<trkpt lat="46.1379670" lon="10.1368420">
	<ele>1644.60</ele>
	<time>2024-09-06T07:10:10.000Z</time>
</trkpt>
<trkpt lat="46.1379660" lon="10.1368380">
	<ele>1644.60</ele>
	<time>2024-09-06T07:10:11.000Z</time>
</trkpt>
<trkpt lat="46.1379610" lon="10.1368340">
	<ele>1644.80</ele>
	<time>2024-09-06T07:10:12.000Z</time>
</trkpt>
<trkpt lat="46.1379570" lon="10.1368300">
	<ele>1644.80</ele>
	<time>2024-09-06T07:10:13.000Z</time>
</trkpt>
<trkpt lat="46.1379540" lon="10.1368270">
	<ele>1644.80</ele>
	<time>2024-09-06T07:10:14.000Z</time>
</trkpt>
<trkpt lat="46.1379580" lon="10.1368150">
	<ele>1645.00</ele>
	<time>2024-09-06T07:10:15.000Z</time>
</trkpt>
<trkpt lat="46.1379660" lon="10.1368090">
	<ele>1645.20</ele>
	<time>2024-09-06T07:10:16.000Z</time>
</trkpt>
<trkpt lat="46.1379710" lon="10.1368020">
	<ele>1645.40</ele>
	<time>2024-09-06T07:10:17.000Z</time>
</trkpt>
<trkpt lat="46.1379680" lon="10.1367950">
	<ele>1645.60</ele>
	<time>2024-09-06T07:10:18.000Z</time>
</trkpt>
<trkpt lat="46.1379670" lon="10.1367900">
	<ele>1645.80</ele>
	<time>2024-09-06T07:10:19.000Z</time>
</trkpt>
<trkpt lat="46.1379700" lon="10.1367830">
	<ele>1646.00</ele>
	<time>2024-09-06T07:10:20.000Z</time>
</trkpt>
<trkpt lat="46.1379690" lon="10.1367780">
	<ele>1646.40</ele>
	<time>2024-09-06T07:10:21.000Z</time>
</trkpt>
<trkpt lat="46.1379710" lon="10.1367700">
	<ele>1646.60</ele>
	<time>2024-09-06T07:10:22.000Z</time>
</trkpt>
<trkpt lat="46.1379660" lon="10.1367630">
	<ele>1646.80</ele>
	<time>2024-09-06T07:10:23.000Z</time>
</trkpt>
<trkpt lat="46.1379560" lon="10.1367540">
	<ele>1647.00</ele>
	<time>2024-09-06T07:10:24.000Z</time>
</trkpt>
<trkpt lat="46.1379520" lon="10.1367460">
	<ele>1647.20</ele>
	<time>2024-09-06T07:10:25.000Z</time>
</trkpt>
<trkpt lat="46.1379500" lon="10.1367410">
	<ele>1647.40</ele>
	<time>2024-09-06T07:10:26.000Z</time>
</trkpt>
<trkpt lat="46.1379450" lon="10.1367330">
	<ele>1647.60</ele>
	<time>2024-09-06T07:10:27.000Z</time>
</trkpt>
<trkpt lat="46.1379370" lon="10.1367300">
	<ele>1647.80</ele>
	<time>2024-09-06T07:10:28.000Z</time>
</trkpt>
<trkpt lat="46.1379310" lon="10.1367240">
	<ele>1648.00</ele>
	<time>2024-09-06T07:10:29.000Z</time>
</trkpt>
<trkpt lat="46.1379270" lon="10.1367150">
	<ele>1648.00</ele>
	<time>2024-09-06T07:10:30.000Z</time>
</trkpt>
<trkpt lat="46.1379290" lon="10.1367110">
	<ele>1648.20</ele>
	<time>2024-09-06T07:10:31.000Z</time>
</trkpt>
<trkpt lat="46.1379320" lon="10.1367110">
	<ele>1648.20</ele>
	<time>2024-09-06T07:10:32.000Z</time>
</trkpt>
<trkpt lat="46.1379310" lon="10.1367100">
	<ele>1648.20</ele>
	<time>2024-09-06T07:10:33.000Z</time>
</trkpt>
<trkpt lat="46.1379310" lon="10.1367100">
	<ele>1648.40</ele>
	<time>2024-09-06T07:10:34.000Z</time>
</trkpt>
<trkpt lat="46.1379300" lon="10.1367070">
	<ele>1648.40</ele>
	<time>2024-09-06T07:10:35.000Z</time>
</trkpt>
<trkpt lat="46.1379280" lon="10.1366980">
	<ele>1648.40</ele>
	<time>2024-09-06T07:10:36.000Z</time>
</trkpt>
<trkpt lat="46.1379270" lon="10.1366940">
	<ele>1648.40</ele>
	<time>2024-09-06T07:10:37.000Z</time>
</trkpt>
<trkpt lat="46.1379260" lon="10.1366920">
	<ele>1648.60</ele>
	<time>2024-09-06T07:10:38.000Z</time>
</trkpt>
<trkpt lat="46.1379280" lon="10.1366880">
	<ele>1648.60</ele>
	<time>2024-09-06T07:10:39.000Z</time>
</trkpt>
<trkpt lat="46.1379310" lon="10.1366860">
	<ele>1649.00</ele>
	<time>2024-09-06T07:10:40.000Z</time>
</trkpt>
<trkpt lat="46.1379330" lon="10.1366820">
	<ele>1649.20</ele>
	<time>2024-09-06T07:10:41.000Z</time>
</trkpt>
<trkpt lat="46.1379210" lon="10.1366740">
	<ele>1649.20</ele>
	<time>2024-09-06T07:10:42.000Z</time>
</trkpt>
<trkpt lat="46.1379090" lon="10.1366700">
	<ele>1649.40</ele>
	<time>2024-09-06T07:10:43.000Z</time>
</trkpt>
<trkpt lat="46.1379060" lon="10.1366670">
	<ele>1649.40</ele>
	<time>2024-09-06T07:10:44.000Z</time>
</trkpt>
<trkpt lat="46.1379030" lon="10.1366600">
	<ele>1649.60</ele>
	<time>2024-09-06T07:10:45.000Z</time>
</trkpt>
<trkpt lat="46.1378960" lon="10.1366510">
	<ele>1649.60</ele>
	<time>2024-09-06T07:10:46.000Z</time>
</trkpt>
<trkpt lat="46.1378940" lon="10.1366440">
	<ele>1649.60</ele>
	<time>2024-09-06T07:10:47.000Z</time>
</trkpt>
<trkpt lat="46.1378910" lon="10.1366350">
	<ele>1649.80</ele>
	<time>2024-09-06T07:10:48.000Z</time>
</trkpt>
<trkpt lat="46.1378860" lon="10.1366280">
	<ele>1650.00</ele>
	<time>2024-09-06T07:10:49.000Z</time>
</trkpt>
<trkpt lat="46.1378840" lon="10.1366220">
	<ele>1650.00</ele>
	<time>2024-09-06T07:10:50.000Z</time>
</trkpt>
<trkpt lat="46.1378820" lon="10.1366210">
	<ele>1650.00</ele>
	<time>2024-09-06T07:10:51.000Z</time>
</trkpt>
<trkpt lat="46.1378830" lon="10.1366190">
	<ele>1650.00</ele>
	<time>2024-09-06T07:10:52.000Z</time>
</trkpt>
<trkpt lat="46.1378840" lon="10.1366190">
	<ele>1650.20</ele>
	<time>2024-09-06T07:10:53.000Z</time>
</trkpt>
<trkpt lat="46.1378840" lon="10.1366140">
	<ele>1650.20</ele>
	<time>2024-09-06T07:10:54.000Z</time>
</trkpt>
<trkpt lat="46.1378800" lon="10.1366040">
	<ele>1650.20</ele>
	<time>2024-09-06T07:10:55.000Z</time>
</trkpt>
<trkpt lat="46.1378730" lon="10.1365940">
	<ele>1650.40</ele>
	<time>2024-09-06T07:10:56.000Z</time>
</trkpt>
<trkpt lat="46.1378710" lon="10.1365910">
	<ele>1650.60</ele>
	<time>2024-09-06T07:10:57.000Z</time>
</trkpt>
<trkpt lat="46.1378700" lon="10.1365880">
	<ele>1650.80</ele>
	<time>2024-09-06T07:10:58.000Z</time>
</trkpt>
<trkpt lat="46.1378560" lon="10.1365770">
	<ele>1650.80</ele>
	<time>2024-09-06T07:10:59.000Z</time>
</trkpt>
<trkpt lat="46.1378510" lon="10.1365740">
	<ele>1651.00</ele>
	<time>2024-09-06T07:11:00.000Z</time>
</trkpt>
<trkpt lat="46.1378390" lon="10.1365620">
	<ele>1651.20</ele>
	<time>2024-09-06T07:11:01.000Z</time>
</trkpt>
<trkpt lat="46.1378330" lon="10.1365500">
	<ele>1651.20</ele>
	<time>2024-09-06T07:11:02.000Z</time>
</trkpt>
<trkpt lat="46.1378320" lon="10.1365410">
	<ele>1651.20</ele>
	<time>2024-09-06T07:11:03.000Z</time>
</trkpt>
<trkpt lat="46.1378250" lon="10.1365310">
	<ele>1651.40</ele>
	<time>2024-09-06T07:11:04.000Z</time>
</trkpt>
<trkpt lat="46.1378220" lon="10.1365190">
	<ele>1651.40</ele>
	<time>2024-09-06T07:11:05.000Z</time>
</trkpt>
<trkpt lat="46.1378230" lon="10.1365060">
	<ele>1651.40</ele>
	<time>2024-09-06T07:11:06.000Z</time>
</trkpt>
<trkpt lat="46.1378250" lon="10.1364940">
	<ele>1651.60</ele>
	<time>2024-09-06T07:11:07.000Z</time>
</trkpt>
<trkpt lat="46.1378230" lon="10.1364830">
	<ele>1651.60</ele>
	<time>2024-09-06T07:11:08.000Z</time>
</trkpt>
<trkpt lat="46.1378150" lon="10.1364700">
	<ele>1651.60</ele>
	<time>2024-09-06T07:11:09.000Z</time>
</trkpt>
<trkpt lat="46.1378080" lon="10.1364540">
	<ele>1651.60</ele>
	<time>2024-09-06T07:11:10.000Z</time>
</trkpt>
<trkpt lat="46.1378020" lon="10.1364420">
	<ele>1651.60</ele>
	<time>2024-09-06T07:11:11.000Z</time>
</trkpt>
<trkpt lat="46.1378050" lon="10.1364240">
	<ele>1651.80</ele>
	<time>2024-09-06T07:11:12.000Z</time>
</trkpt>
<trkpt lat="46.1378080" lon="10.1364140">
	<ele>1651.80</ele>
	<time>2024-09-06T07:11:13.000Z</time>
</trkpt>
<trkpt lat="46.1378110" lon="10.1364060">
	<ele>1651.80</ele>
	<time>2024-09-06T07:11:14.000Z</time>
</trkpt>
<trkpt lat="46.1378150" lon="10.1364040">
	<ele>1652.00</ele>
	<time>2024-09-06T07:11:15.000Z</time>
</trkpt>
<trkpt lat="46.1378050" lon="10.1363930">
	<ele>1652.20</ele>
	<time>2024-09-06T07:11:16.000Z</time>
</trkpt>
<trkpt lat="46.1378030" lon="10.1363900">
	<ele>1652.20</ele>
	<time>2024-09-06T07:11:17.000Z</time>
</trkpt>
<trkpt lat="46.1377970" lon="10.1363800">
	<ele>1652.40</ele>
	<time>2024-09-06T07:11:18.000Z</time>
</trkpt>
<trkpt lat="46.1377980" lon="10.1363760">
	<ele>1652.60</ele>
	<time>2024-09-06T07:11:19.000Z</time>
</trkpt>
<trkpt lat="46.1377890" lon="10.1363650">
	<ele>1652.80</ele>
	<time>2024-09-06T07:11:20.000Z</time>
</trkpt>
<trkpt lat="46.1377870" lon="10.1363630">
	<ele>1652.80</ele>
	<time>2024-09-06T07:11:21.000Z</time>
</trkpt>
<trkpt lat="46.1377860" lon="10.1363620">
	<ele>1653.00</ele>
	<time>2024-09-06T07:11:22.000Z</time>
</trkpt>
<trkpt lat="46.1377740" lon="10.1363530">
	<ele>1653.00</ele>
	<time>2024-09-06T07:11:23.000Z</time>
</trkpt>
<trkpt lat="46.1377590" lon="10.1363420">
	<ele>1653.00</ele>
	<time>2024-09-06T07:11:24.000Z</time>
</trkpt>
<trkpt lat="46.1377500" lon="10.1363320">
	<ele>1653.20</ele>
	<time>2024-09-06T07:11:25.000Z</time>
</trkpt>
<trkpt lat="46.1377460" lon="10.1363280">
	<ele>1653.20</ele>
	<time>2024-09-06T07:11:26.000Z</time>
</trkpt>
<trkpt lat="46.1377420" lon="10.1363250">
	<ele>1653.20</ele>
	<time>2024-09-06T07:11:27.000Z</time>
</trkpt>
<trkpt lat="46.1377360" lon="10.1363160">
	<ele>1653.20</ele>
	<time>2024-09-06T07:11:28.000Z</time>
</trkpt>
<trkpt lat="46.1377350" lon="10.1363120">
	<ele>1653.40</ele>
	<time>2024-09-06T07:11:29.000Z</time>
</trkpt>
<trkpt lat="46.1377320" lon="10.1363100">
	<ele>1653.40</ele>
	<time>2024-09-06T07:11:30.000Z</time>
</trkpt>
<trkpt lat="46.1377230" lon="10.1363050">
	<ele>1653.60</ele>
	<time>2024-09-06T07:11:31.000Z</time>
</trkpt>
<trkpt lat="46.1377200" lon="10.1363020">
	<ele>1653.60</ele>
	<time>2024-09-06T07:11:32.000Z</time>
</trkpt>
<trkpt lat="46.1377190" lon="10.1363010">
	<ele>1653.80</ele>
	<time>2024-09-06T07:11:33.000Z</time>
</trkpt>
<trkpt lat="46.1377120" lon="10.1362980">
	<ele>1653.80</ele>
	<time>2024-09-06T07:11:34.000Z</time>
</trkpt>
<trkpt lat="46.1377070" lon="10.1362950">
	<ele>1654.00</ele>
	<time>2024-09-06T07:11:35.000Z</time>
</trkpt>
<trkpt lat="46.1376990" lon="10.1362880">
	<ele>1654.40</ele>
	<time>2024-09-06T07:11:36.000Z</time>
</trkpt>
<trkpt lat="46.1376990" lon="10.1362860">
	<ele>1654.60</ele>
	<time>2024-09-06T07:11:37.000Z</time>
</trkpt>
<trkpt lat="46.1376870" lon="10.1362730">
	<ele>1654.80</ele>
	<time>2024-09-06T07:11:38.000Z</time>
</trkpt>
<trkpt lat="46.1376780" lon="10.1362710">
	<ele>1654.80</ele>
	<time>2024-09-06T07:11:39.000Z</time>
</trkpt>
<trkpt lat="46.1376660" lon="10.1362690">
	<ele>1655.20</ele>
	<time>2024-09-06T07:11:40.000Z</time>
</trkpt>
<trkpt lat="46.1376640" lon="10.1362640">
	<ele>1655.40</ele>
	<time>2024-09-06T07:11:41.000Z</time>
</trkpt>
<trkpt lat="46.1376560" lon="10.1362530">
	<ele>1655.40</ele>
	<time>2024-09-06T07:11:42.000Z</time>
</trkpt>
<trkpt lat="46.1376460" lon="10.1362450">
	<ele>1655.40</ele>
	<time>2024-09-06T07:11:43.000Z</time>
</trkpt>
<trkpt lat="46.1376450" lon="10.1362400">
	<ele>1655.60</ele>
	<time>2024-09-06T07:11:44.000Z</time>
</trkpt>
<trkpt lat="46.1376450" lon="10.1362380">
	<ele>1655.80</ele>
	<time>2024-09-06T07:11:45.000Z</time>
</trkpt>
<trkpt lat="46.1376430" lon="10.1362360">
	<ele>1655.80</ele>
	<time>2024-09-06T07:11:46.000Z</time>
</trkpt>
<trkpt lat="46.1376370" lon="10.1362290">
	<ele>1656.00</ele>
	<time>2024-09-06T07:11:47.000Z</time>
</trkpt>
<trkpt lat="46.1376310" lon="10.1362210">
	<ele>1656.20</ele>
	<time>2024-09-06T07:11:48.000Z</time>
</trkpt>
<trkpt lat="46.1376310" lon="10.1362160">
	<ele>1656.20</ele>
	<time>2024-09-06T07:11:49.000Z</time>
</trkpt>
<trkpt lat="46.1376370" lon="10.1362170">
	<ele>1656.40</ele>
	<time>2024-09-06T07:11:50.000Z</time>
</trkpt>
<trkpt lat="46.1376330" lon="10.1362160">
	<ele>1656.40</ele>
	<time>2024-09-06T07:11:51.000Z</time>
</trkpt>
<trkpt lat="46.1376390" lon="10.1362130">
	<ele>1656.40</ele>
	<time>2024-09-06T07:11:52.000Z</time>
</trkpt>
<trkpt lat="46.1376250" lon="10.1362060">
	<ele>1656.40</ele>
	<time>2024-09-06T07:11:53.000Z</time>
</trkpt>
<trkpt lat="46.1376200" lon="10.1362070">
	<ele>1656.40</ele>
	<time>2024-09-06T07:11:54.000Z</time>
</trkpt>
<trkpt lat="46.1376330" lon="10.1362100">
	<ele>1656.40</ele>
	<time>2024-09-06T07:11:55.000Z</time>
</trkpt>
<trkpt lat="46.1376360" lon="10.1362120">
	<ele>1656.40</ele>
	<time>2024-09-06T07:11:56.000Z</time>
</trkpt>
<trkpt lat="46.1376230" lon="10.1362070">
	<ele>1656.60</ele>
	<time>2024-09-06T07:11:57.000Z</time>
</trkpt>
<trkpt lat="46.1376200" lon="10.1362060">
	<ele>1656.60</ele>
	<time>2024-09-06T07:11:58.000Z</time>
</trkpt>
<trkpt lat="46.1376030" lon="10.1361960">
	<ele>1656.80</ele>
	<time>2024-09-06T07:11:59.000Z</time>
</trkpt>
<trkpt lat="46.1375940" lon="10.1361830">
	<ele>1657.00</ele>
	<time>2024-09-06T07:12:00.000Z</time>
</trkpt>
<trkpt lat="46.1375840" lon="10.1361750">
	<ele>1657.20</ele>
	<time>2024-09-06T07:12:01.000Z</time>
</trkpt>
<trkpt lat="46.1375660" lon="10.1361600">
	<ele>1657.40</ele>
	<time>2024-09-06T07:12:02.000Z</time>
</trkpt>
<trkpt lat="46.1375380" lon="10.1361500">
	<ele>1657.60</ele>
	<time>2024-09-06T07:12:03.000Z</time>
</trkpt>
<trkpt lat="46.1375090" lon="10.1361500">
	<ele>1657.60</ele>
	<time>2024-09-06T07:12:04.000Z</time>
</trkpt>
<trkpt lat="46.1374850" lon="10.1361440">
	<ele>1657.60</ele>
	<time>2024-09-06T07:12:05.000Z</time>
</trkpt>
<trkpt lat="46.1374560" lon="10.1361320">
	<ele>1657.80</ele>
	<time>2024-09-06T07:12:06.000Z</time>
</trkpt>
<trkpt lat="46.1374250" lon="10.1361200">
	<ele>1657.80</ele>
	<time>2024-09-06T07:12:07.000Z</time>
</trkpt>
<trkpt lat="46.1374050" lon="10.1361040">
	<ele>1658.00</ele>
	<time>2024-09-06T07:12:08.000Z</time>
</trkpt>
<trkpt lat="46.1373920" lon="10.1360910">
	<ele>1658.40</ele>
	<time>2024-09-06T07:12:09.000Z</time>
</trkpt>
<trkpt lat="46.1373810" lon="10.1360910">
	<ele>1658.40</ele>
	<time>2024-09-06T07:12:10.000Z</time>
</trkpt>
<trkpt lat="46.1373780" lon="10.1360940">
	<ele>1658.60</ele>
	<time>2024-09-06T07:12:11.000Z</time>
</trkpt>
<trkpt lat="46.1373640" lon="10.1360770">
	<ele>1658.80</ele>
	<time>2024-09-06T07:12:12.000Z</time>
</trkpt>
<trkpt lat="46.1373420" lon="10.1360650">
	<ele>1658.80</ele>
	<time>2024-09-06T07:12:13.000Z</time>
</trkpt>
<trkpt lat="46.1373390" lon="10.1360610">
	<ele>1659.00</ele>
	<time>2024-09-06T07:12:14.000Z</time>
</trkpt>
<trkpt lat="46.1373230" lon="10.1360460">
	<ele>1659.20</ele>
	<time>2024-09-06T07:12:15.000Z</time>
</trkpt>
<trkpt lat="46.1373020" lon="10.1360310">
	<ele>1659.40</ele>
	<time>2024-09-06T07:12:16.000Z</time>
</trkpt>
<trkpt lat="46.1372980" lon="10.1360310">
	<ele>1659.60</ele>
	<time>2024-09-06T07:12:17.000Z</time>
</trkpt>
<trkpt lat="46.1372930" lon="10.1360190">
	<ele>1659.80</ele>
	<time>2024-09-06T07:12:18.000Z</time>
</trkpt>
<trkpt lat="46.1372900" lon="10.1360140">
	<ele>1660.00</ele>
	<time>2024-09-06T07:12:19.000Z</time>
</trkpt>
<trkpt lat="46.1372840" lon="10.1360030">
	<ele>1660.00</ele>
	<time>2024-09-06T07:12:20.000Z</time>
</trkpt>
<trkpt lat="46.1372830" lon="10.1359980">
	<ele>1660.20</ele>
	<time>2024-09-06T07:12:21.000Z</time>
</trkpt>
<trkpt lat="46.1372850" lon="10.1359900">
	<ele>1660.40</ele>
	<time>2024-09-06T07:12:22.000Z</time>
</trkpt>
<trkpt lat="46.1372870" lon="10.1359870">
	<ele>1660.60</ele>
	<time>2024-09-06T07:12:23.000Z</time>
</trkpt>
<trkpt lat="46.1372930" lon="10.1359810">
	<ele>1660.80</ele>
	<time>2024-09-06T07:12:24.000Z</time>
</trkpt>
<trkpt lat="46.1373020" lon="10.1359760">
	<ele>1660.80</ele>
	<time>2024-09-06T07:12:25.000Z</time>
</trkpt>
<trkpt lat="46.1373040" lon="10.1359670">
	<ele>1661.00</ele>
	<time>2024-09-06T07:12:26.000Z</time>
</trkpt>
<trkpt lat="46.1373100" lon="10.1359670">
	<ele>1661.00</ele>
	<time>2024-09-06T07:12:27.000Z</time>
</trkpt>
<trkpt lat="46.1373070" lon="10.1359660">
	<ele>1661.40</ele>
	<time>2024-09-06T07:12:28.000Z</time>
</trkpt>
<trkpt lat="46.1372630" lon="10.1359600">
	<ele>1661.60</ele>
	<time>2024-09-06T07:12:29.000Z</time>
</trkpt>
<trkpt lat="46.1372590" lon="10.1359590">
	<ele>1661.80</ele>
	<time>2024-09-06T07:12:30.000Z</time>
</trkpt>
<trkpt lat="46.1372530" lon="10.1359620">
	<ele>1662.00</ele>
	<time>2024-09-06T07:12:31.000Z</time>
</trkpt>
<trkpt lat="46.1372520" lon="10.1359680">
	<ele>1662.00</ele>
	<time>2024-09-06T07:12:32.000Z</time>
</trkpt>
<trkpt lat="46.1372520" lon="10.1359760">
	<ele>1662.00</ele>
	<time>2024-09-06T07:12:33.000Z</time>
</trkpt>
<trkpt lat="46.1372460" lon="10.1359820">
	<ele>1662.20</ele>
	<time>2024-09-06T07:12:34.000Z</time>
</trkpt>
<trkpt lat="46.1372440" lon="10.1359760">
	<ele>1662.20</ele>
	<time>2024-09-06T07:12:35.000Z</time>
</trkpt>
<trkpt lat="46.1372390" lon="10.1359610">
	<ele>1662.20</ele>
	<time>2024-09-06T07:12:36.000Z</time>
</trkpt>
<trkpt lat="46.1372400" lon="10.1359410">
	<ele>1662.40</ele>
	<time>2024-09-06T07:12:37.000Z</time>
</trkpt>
<trkpt lat="46.1372340" lon="10.1359220">
	<ele>1662.40</ele>
	<time>2024-09-06T07:12:38.000Z</time>
</trkpt>
<trkpt lat="46.1372290" lon="10.1359060">
	<ele>1662.60</ele>
	<time>2024-09-06T07:12:39.000Z</time>
</trkpt>
<trkpt lat="46.1372230" lon="10.1358920">
	<ele>1662.80</ele>
	<time>2024-09-06T07:12:40.000Z</time>
</trkpt>
<trkpt lat="46.1372260" lon="10.1358790">
	<ele>1663.00</ele>
	<time>2024-09-06T07:12:41.000Z</time>
</trkpt>
<trkpt lat="46.1372280" lon="10.1358800">
	<ele>1663.00</ele>
	<time>2024-09-06T07:12:42.000Z</time>
</trkpt>
<trkpt lat="46.1372260" lon="10.1358790">
	<ele>1663.20</ele>
	<time>2024-09-06T07:12:43.000Z</time>
</trkpt>
<trkpt lat="46.1372290" lon="10.1358810">
	<ele>1663.60</ele>
	<time>2024-09-06T07:12:44.000Z</time>
</trkpt>
<trkpt lat="46.1372220" lon="10.1358780">
	<ele>1663.60</ele>
	<time>2024-09-06T07:12:45.000Z</time>
</trkpt>
<trkpt lat="46.1372070" lon="10.1358790">
	<ele>1663.80</ele>
	<time>2024-09-06T07:12:46.000Z</time>
</trkpt>
<trkpt lat="46.1372070" lon="10.1358780">
	<ele>1664.00</ele>
	<time>2024-09-06T07:12:47.000Z</time>
</trkpt>
<trkpt lat="46.1371940" lon="10.1358720">
	<ele>1664.20</ele>
	<time>2024-09-06T07:12:48.000Z</time>
</trkpt>
<trkpt lat="46.1371920" lon="10.1358680">
	<ele>1664.20</ele>
	<time>2024-09-06T07:12:49.000Z</time>
</trkpt>
<trkpt lat="46.1371730" lon="10.1358590">
	<ele>1664.40</ele>
	<time>2024-09-06T07:12:50.000Z</time>
</trkpt>
<trkpt lat="46.1371500" lon="10.1358470">
	<ele>1664.60</ele>
	<time>2024-09-06T07:12:51.000Z</time>
</trkpt>
<trkpt lat="46.1371290" lon="10.1358370">
	<ele>1664.60</ele>
	<time>2024-09-06T07:12:52.000Z</time>
</trkpt>
<trkpt lat="46.1371250" lon="10.1358350">
	<ele>1664.80</ele>
	<time>2024-09-06T07:12:53.000Z</time>
</trkpt>
<trkpt lat="46.1371200" lon="10.1358240">
	<ele>1665.00</ele>
	<time>2024-09-06T07:12:54.000Z</time>
</trkpt>
<trkpt lat="46.1371130" lon="10.1358160">
	<ele>1665.20</ele>
	<time>2024-09-06T07:12:55.000Z</time>
</trkpt>
<trkpt lat="46.1371020" lon="10.1358130">
	<ele>1665.40</ele>
	<time>2024-09-06T07:12:56.000Z</time>
</trkpt>
<trkpt lat="46.1370900" lon="10.1358080">
	<ele>1665.60</ele>
	<time>2024-09-06T07:12:57.000Z</time>
</trkpt>
<trkpt lat="46.1370830" lon="10.1358060">
	<ele>1665.80</ele>
	<time>2024-09-06T07:12:58.000Z</time>
</trkpt>
<trkpt lat="46.1370690" lon="10.1357950">
	<ele>1665.80</ele>
	<time>2024-09-06T07:12:59.000Z</time>
</trkpt>
<trkpt lat="46.1370660" lon="10.1357940">
	<ele>1666.00</ele>
	<time>2024-09-06T07:13:00.000Z</time>
</trkpt>
<trkpt lat="46.1370590" lon="10.1357890">
	<ele>1666.20</ele>
	<time>2024-09-06T07:13:01.000Z</time>
</trkpt>
<trkpt lat="46.1370580" lon="10.1357890">
	<ele>1666.40</ele>
	<time>2024-09-06T07:13:02.000Z</time>
</trkpt>
<trkpt lat="46.1370450" lon="10.1357870">
	<ele>1666.40</ele>
	<time>2024-09-06T07:13:03.000Z</time>
</trkpt>
<trkpt lat="46.1370320" lon="10.1357820">
	<ele>1666.60</ele>
	<time>2024-09-06T07:13:04.000Z</time>
</trkpt>
<trkpt lat="46.1370190" lon="10.1357740">
	<ele>1666.80</ele>
	<time>2024-09-06T07:13:05.000Z</time>
</trkpt>
<trkpt lat="46.1370100" lon="10.1357610">
	<ele>1667.00</ele>
	<time>2024-09-06T07:13:06.000Z</time>
</trkpt>
<trkpt lat="46.1370060" lon="10.1357610">
	<ele>1667.00</ele>
	<time>2024-09-06T07:13:07.000Z</time>
</trkpt>
<trkpt lat="46.1369990" lon="10.1357560">
	<ele>1667.20</ele>
	<time>2024-09-06T07:13:08.000Z</time>
</trkpt>
<trkpt lat="46.1369980" lon="10.1357580">
	<ele>1667.40</ele>
	<time>2024-09-06T07:13:09.000Z</time>
</trkpt>
<trkpt lat="46.1369940" lon="10.1357490">
	<ele>1667.60</ele>
	<time>2024-09-06T07:13:10.000Z</time>
</trkpt>
<trkpt lat="46.1369910" lon="10.1357450">
	<ele>1667.80</ele>
	<time>2024-09-06T07:13:11.000Z</time>
</trkpt>
<trkpt lat="46.1369870" lon="10.1357390">
	<ele>1668.00</ele>
	<time>2024-09-06T07:13:12.000Z</time>
</trkpt>
<trkpt lat="46.1369770" lon="10.1357300">
	<ele>1668.00</ele>
	<time>2024-09-06T07:13:13.000Z</time>
</trkpt>
<trkpt lat="46.1369660" lon="10.1357180">
	<ele>1668.20</ele>
	<time>2024-09-06T07:13:14.000Z</time>
</trkpt>
<trkpt lat="46.1369560" lon="10.1357140">
	<ele>1668.20</ele>
	<time>2024-09-06T07:13:15.000Z</time>
</trkpt>
<trkpt lat="46.1369440" lon="10.1357160">
	<ele>1668.40</ele>
	<time>2024-09-06T07:13:16.000Z</time>
</trkpt>
<trkpt lat="46.1369450" lon="10.1357200">
	<ele>1668.60</ele>
	<time>2024-09-06T07:13:17.000Z</time>
</trkpt>
<trkpt lat="46.1369390" lon="10.1357140">
	<ele>1668.80</ele>
	<time>2024-09-06T07:13:18.000Z</time>
</trkpt>
<trkpt lat="46.1369400" lon="10.1357050">
	<ele>1668.80</ele>
	<time>2024-09-06T07:13:19.000Z</time>
</trkpt>
<trkpt lat="46.1369490" lon="10.1357020">
	<ele>1669.00</ele>
	<time>2024-09-06T07:13:20.000Z</time>
</trkpt>
<trkpt lat="46.1369590" lon="10.1357020">
	<ele>1669.00</ele>
	<time>2024-09-06T07:13:21.000Z</time>
</trkpt>
<trkpt lat="46.1369530" lon="10.1357040">
	<ele>1669.20</ele>
	<time>2024-09-06T07:13:22.000Z</time>
</trkpt>
<trkpt lat="46.1369550" lon="10.1357060">
	<ele>1669.40</ele>
	<time>2024-09-06T07:13:23.000Z</time>
</trkpt>
<trkpt lat="46.1369420" lon="10.1357060">
	<ele>1669.60</ele>
	<time>2024-09-06T07:13:24.000Z</time>
</trkpt>
<trkpt lat="46.1369300" lon="10.1356980">
	<ele>1669.80</ele>
	<time>2024-09-06T07:13:25.000Z</time>
</trkpt>
<trkpt lat="46.1369270" lon="10.1356990">
	<ele>1669.80</ele>
	<time>2024-09-06T07:13:26.000Z</time>
</trkpt>
<trkpt lat="46.1369270" lon="10.1356990">
	<ele>1670.00</ele>
	<time>2024-09-06T07:13:27.000Z</time>
</trkpt>
<trkpt lat="46.1369250" lon="10.1356990">
	<ele>1670.20</ele>
	<time>2024-09-06T07:13:28.000Z</time>
</trkpt>
<trkpt lat="46.1369230" lon="10.1356980">
	<ele>1670.20</ele>
	<time>2024-09-06T07:13:29.000Z</time>
</trkpt>
<trkpt lat="46.1369240" lon="10.1356990">
	<ele>1670.60</ele>
	<time>2024-09-06T07:13:30.000Z</time>
</trkpt>
<trkpt lat="46.1369280" lon="10.1357000">
	<ele>1670.80</ele>
	<time>2024-09-06T07:13:31.000Z</time>
</trkpt>
<trkpt lat="46.1369130" lon="10.1356920">
	<ele>1670.80</ele>
	<time>2024-09-06T07:13:32.000Z</time>
</trkpt>
<trkpt lat="46.1369100" lon="10.1356890">
	<ele>1671.00</ele>
	<time>2024-09-06T07:13:33.000Z</time>
</trkpt>
<trkpt lat="46.1369070" lon="10.1356800">
	<ele>1671.20</ele>
	<time>2024-09-06T07:13:34.000Z</time>
</trkpt>
<trkpt lat="46.1369100" lon="10.1356780">
	<ele>1671.40</ele>
	<time>2024-09-06T07:13:35.000Z</time>
</trkpt>
<trkpt lat="46.1369040" lon="10.1356680">
	<ele>1671.40</ele>
	<time>2024-09-06T07:13:36.000Z</time>
</trkpt>
<trkpt lat="46.1369030" lon="10.1356740">
	<ele>1671.60</ele>
	<time>2024-09-06T07:13:37.000Z</time>
</trkpt>
<trkpt lat="46.1369010" lon="10.1356760">
	<ele>1671.80</ele>
	<time>2024-09-06T07:13:38.000Z</time>
</trkpt>
<trkpt lat="46.1368840" lon="10.1356760">
	<ele>1672.00</ele>
	<time>2024-09-06T07:13:39.000Z</time>
</trkpt>
<trkpt lat="46.1368830" lon="10.1356780">
	<ele>1672.00</ele>
	<time>2024-09-06T07:13:40.000Z</time>
</trkpt>
<trkpt lat="46.1368810" lon="10.1356810">
	<ele>1672.20</ele>
	<time>2024-09-06T07:13:41.000Z</time>
</trkpt>
<trkpt lat="46.1368750" lon="10.1356790">
	<ele>1672.20</ele>
	<time>2024-09-06T07:13:42.000Z</time>
</trkpt>
<trkpt lat="46.1368710" lon="10.1356850">
	<ele>1672.40</ele>
	<time>2024-09-06T07:13:43.000Z</time>
</trkpt>
<trkpt lat="46.1368720" lon="10.1356890">
	<ele>1672.60</ele>
	<time>2024-09-06T07:13:44.000Z</time>
</trkpt>
<trkpt lat="46.1368740" lon="10.1356820">
	<ele>1672.80</ele>
	<time>2024-09-06T07:13:45.000Z</time>
</trkpt>
<trkpt lat="46.1368650" lon="10.1356630">
	<ele>1672.80</ele>
	<time>2024-09-06T07:13:46.000Z</time>
</trkpt>
<trkpt lat="46.1368660" lon="10.1356560">
	<ele>1673.00</ele>
	<time>2024-09-06T07:13:47.000Z</time>
</trkpt>
<trkpt lat="46.1368700" lon="10.1356550">
	<ele>1673.00</ele>
	<time>2024-09-06T07:13:48.000Z</time>
</trkpt>
<trkpt lat="46.1368680" lon="10.1356530">
	<ele>1673.20</ele>
	<time>2024-09-06T07:13:49.000Z</time>
</trkpt>
<trkpt lat="46.1368640" lon="10.1356540">
	<ele>1673.20</ele>
	<time>2024-09-06T07:13:50.000Z</time>
</trkpt>
<trkpt lat="46.1368580" lon="10.1356570">
	<ele>1673.20</ele>
	<time>2024-09-06T07:13:51.000Z</time>
</trkpt>
<trkpt lat="46.1368590" lon="10.1356680">
	<ele>1673.40</ele>
	<time>2024-09-06T07:13:52.000Z</time>
</trkpt>
<trkpt lat="46.1368630" lon="10.1356770">
	<ele>1673.60</ele>
	<time>2024-09-06T07:13:53.000Z</time>
</trkpt>
<trkpt lat="46.1368510" lon="10.1356620">
	<ele>1673.80</ele>
	<time>2024-09-06T07:13:54.000Z</time>
</trkpt>
<trkpt lat="46.1368450" lon="10.1356520">
	<ele>1674.00</ele>
	<time>2024-09-06T07:13:55.000Z</time>
</trkpt>
<trkpt lat="46.1368450" lon="10.1356450">
	<ele>1674.20</ele>
	<time>2024-09-06T07:13:56.000Z</time>
</trkpt>
<trkpt lat="46.1368420" lon="10.1356370">
	<ele>1674.40</ele>
	<time>2024-09-06T07:13:57.000Z</time>
</trkpt>
<trkpt lat="46.1368440" lon="10.1356340">
	<ele>1674.60</ele>
	<time>2024-09-06T07:13:58.000Z</time>
</trkpt>
<trkpt lat="46.1368280" lon="10.1356220">
	<ele>1674.60</ele>
	<time>2024-09-06T07:13:59.000Z</time>
</trkpt>
<trkpt lat="46.1368150" lon="10.1356080">
	<ele>1674.80</ele>
	<time>2024-09-06T07:14:00.000Z</time>
</trkpt>
<trkpt lat="46.1368020" lon="10.1355990">
	<ele>1675.00</ele>
	<time>2024-09-06T07:14:01.000Z</time>
</trkpt>
<trkpt lat="46.1367890" lon="10.1355860">
	<ele>1675.20</ele>
	<time>2024-09-06T07:14:02.000Z</time>
</trkpt>
<trkpt lat="46.1367850" lon="10.1355850">
	<ele>1675.40</ele>
	<time>2024-09-06T07:14:03.000Z</time>
</trkpt>
<trkpt lat="46.1367740" lon="10.1355790">
	<ele>1675.60</ele>
	<time>2024-09-06T07:14:04.000Z</time>
</trkpt>
<trkpt lat="46.1367640" lon="10.1355880">
	<ele>1675.80</ele>
	<time>2024-09-06T07:14:05.000Z</time>
</trkpt>
<trkpt lat="46.1367610" lon="10.1355940">
	<ele>1676.00</ele>
	<time>2024-09-06T07:14:06.000Z</time>
</trkpt>
<trkpt lat="46.1367480" lon="10.1355940">
	<ele>1676.00</ele>
	<time>2024-09-06T07:14:07.000Z</time>
</trkpt>
<trkpt lat="46.1367440" lon="10.1356080">
	<ele>1676.20</ele>
	<time>2024-09-06T07:14:08.000Z</time>
</trkpt>
<trkpt lat="46.1367350" lon="10.1356140">
	<ele>1676.40</ele>
	<time>2024-09-06T07:14:09.000Z</time>
</trkpt>
<trkpt lat="46.1367350" lon="10.1356170">
	<ele>1676.60</ele>
	<time>2024-09-06T07:14:10.000Z</time>
</trkpt>
<trkpt lat="46.1367340" lon="10.1356170">
	<ele>1676.80</ele>
	<time>2024-09-06T07:14:11.000Z</time>
</trkpt>
<trkpt lat="46.1367340" lon="10.1356220">
	<ele>1676.80</ele>
	<time>2024-09-06T07:14:12.000Z</time>
</trkpt>
<trkpt lat="46.1367310" lon="10.1356260">
	<ele>1676.80</ele>
	<time>2024-09-06T07:14:13.000Z</time>
</trkpt>
<trkpt lat="46.1367280" lon="10.1356290">
	<ele>1677.00</ele>
	<time>2024-09-06T07:14:14.000Z</time>
</trkpt>
<trkpt lat="46.1367200" lon="10.1356370">
	<ele>1677.00</ele>
	<time>2024-09-06T07:14:15.000Z</time>
</trkpt>
<trkpt lat="46.1367130" lon="10.1356480">
	<ele>1677.00</ele>
	<time>2024-09-06T07:14:16.000Z</time>
</trkpt>
<trkpt lat="46.1367010" lon="10.1356510">
	<ele>1677.00</ele>
	<time>2024-09-06T07:14:17.000Z</time>
</trkpt>
<trkpt lat="46.1366970" lon="10.1356490">
	<ele>1677.20</ele>
	<time>2024-09-06T07:14:18.000Z</time>
</trkpt>
<trkpt lat="46.1366930" lon="10.1356480">
	<ele>1677.20</ele>
	<time>2024-09-06T07:14:19.000Z</time>
</trkpt>
<trkpt lat="46.1366800" lon="10.1356440">
	<ele>1677.40</ele>
	<time>2024-09-06T07:14:20.000Z</time>
</trkpt>
<trkpt lat="46.1366650" lon="10.1356310">
	<ele>1677.60</ele>
	<time>2024-09-06T07:14:21.000Z</time>
</trkpt>
<trkpt lat="46.1366490" lon="10.1356220">
	<ele>1677.80</ele>
	<time>2024-09-06T07:14:22.000Z</time>
</trkpt>
<trkpt lat="46.1366430" lon="10.1356220">
	<ele>1677.80</ele>
	<time>2024-09-06T07:14:23.000Z</time>
</trkpt>
<trkpt lat="46.1366310" lon="10.1356190">
	<ele>1678.00</ele>
	<time>2024-09-06T07:14:24.000Z</time>
</trkpt>
<trkpt lat="46.1366180" lon="10.1356150">
	<ele>1678.00</ele>
	<time>2024-09-06T07:14:25.000Z</time>
</trkpt>
<trkpt lat="46.1366120" lon="10.1356140">
	<ele>1678.20</ele>
	<time>2024-09-06T07:14:26.000Z</time>
</trkpt>
<trkpt lat="46.1366000" lon="10.1356050">
	<ele>1678.20</ele>
	<time>2024-09-06T07:14:27.000Z</time>
</trkpt>
<trkpt lat="46.1365890" lon="10.1356020">
	<ele>1678.20</ele>
	<time>2024-09-06T07:14:28.000Z</time>
</trkpt>
<trkpt lat="46.1365780" lon="10.1356020">
	<ele>1678.40</ele>
	<time>2024-09-06T07:14:29.000Z</time>
</trkpt>
<trkpt lat="46.1365650" lon="10.1355980">
	<ele>1678.40</ele>
	<time>2024-09-06T07:14:30.000Z</time>
</trkpt>
<trkpt lat="46.1365560" lon="10.1355930">
	<ele>1678.60</ele>
	<time>2024-09-06T07:14:31.000Z</time>
</trkpt>
<trkpt lat="46.1365450" lon="10.1355860">
	<ele>1678.80</ele>
	<time>2024-09-06T07:14:32.000Z</time>
</trkpt>
<trkpt lat="46.1365320" lon="10.1355780">
	<ele>1679.00</ele>
	<time>2024-09-06T07:14:33.000Z</time>
</trkpt>
<trkpt lat="46.1365260" lon="10.1355620">
	<ele>1679.20</ele>
	<time>2024-09-06T07:14:34.000Z</time>
</trkpt>
<trkpt lat="46.1365280" lon="10.1355570">
	<ele>1679.20</ele>
	<time>2024-09-06T07:14:35.000Z</time>
</trkpt>
<trkpt lat="46.1365270" lon="10.1355580">
	<ele>1679.40</ele>
	<time>2024-09-06T07:14:36.000Z</time>
</trkpt>
<trkpt lat="46.1365080" lon="10.1355520">
	<ele>1679.40</ele>
	<time>2024-09-06T07:14:37.000Z</time>
</trkpt>
<trkpt lat="46.1364890" lon="10.1355390">
	<ele>1679.40</ele>
	<time>2024-09-06T07:14:38.000Z</time>
</trkpt>
<trkpt lat="46.1364790" lon="10.1355420">
	<ele>1679.40</ele>
	<time>2024-09-06T07:14:39.000Z</time>
</trkpt>
<trkpt lat="46.1364740" lon="10.1355410">
	<ele>1679.40</ele>
	<time>2024-09-06T07:14:40.000Z</time>
</trkpt>
<trkpt lat="46.1364710" lon="10.1355410">
	<ele>1679.40</ele>
	<time>2024-09-06T07:14:41.000Z</time>
</trkpt>
<trkpt lat="46.1364620" lon="10.1355250">
	<ele>1679.40</ele>
	<time>2024-09-06T07:14:42.000Z</time>
</trkpt>
<trkpt lat="46.1364520" lon="10.1355080">
	<ele>1679.80</ele>
	<time>2024-09-06T07:14:43.000Z</time>
</trkpt>
<trkpt lat="46.1364410" lon="10.1355020">
	<ele>1680.20</ele>
	<time>2024-09-06T07:14:44.000Z</time>
</trkpt>
<trkpt lat="46.1364230" lon="10.1354900">
	<ele>1680.40</ele>
	<time>2024-09-06T07:14:45.000Z</time>
</trkpt>
<trkpt lat="46.1364080" lon="10.1354770">
	<ele>1680.60</ele>
	<time>2024-09-06T07:14:46.000Z</time>
</trkpt>
<trkpt lat="46.1364020" lon="10.1354700">
	<ele>1680.80</ele>
	<time>2024-09-06T07:14:47.000Z</time>
</trkpt>
<trkpt lat="46.1364000" lon="10.1354660">
	<ele>1680.80</ele>
	<time>2024-09-06T07:14:48.000Z</time>
</trkpt>
<trkpt lat="46.1363950" lon="10.1354700">
	<ele>1681.00</ele>
	<time>2024-09-06T07:14:49.000Z</time>
</trkpt>
<trkpt lat="46.1363920" lon="10.1354730">
	<ele>1681.20</ele>
	<time>2024-09-06T07:14:50.000Z</time>
</trkpt>
<trkpt lat="46.1363850" lon="10.1354680">
	<ele>1681.40</ele>
	<time>2024-09-06T07:14:51.000Z</time>
</trkpt>
<trkpt lat="46.1363820" lon="10.1354690">
	<ele>1681.60</ele>
	<time>2024-09-06T07:14:52.000Z</time>
</trkpt>
<trkpt lat="46.1363800" lon="10.1354690">
	<ele>1681.60</ele>
	<time>2024-09-06T07:14:53.000Z</time>
</trkpt>
<trkpt lat="46.1363690" lon="10.1354680">
	<ele>1681.80</ele>
	<time>2024-09-06T07:14:54.000Z</time>
</trkpt>
<trkpt lat="46.1363560" lon="10.1354730">
	<ele>1681.80</ele>
	<time>2024-09-06T07:14:55.000Z</time>
</trkpt>
<trkpt lat="46.1363510" lon="10.1354970">
	<ele>1682.00</ele>
	<time>2024-09-06T07:14:56.000Z</time>
</trkpt>
<trkpt lat="46.1363420" lon="10.1354990">
	<ele>1682.20</ele>
	<time>2024-09-06T07:14:57.000Z</time>
</trkpt>
<trkpt lat="46.1363310" lon="10.1354910">
	<ele>1682.20</ele>
	<time>2024-09-06T07:14:58.000Z</time>
</trkpt>
<trkpt lat="46.1363200" lon="10.1354800">
	<ele>1682.40</ele>
	<time>2024-09-06T07:14:59.000Z</time>
</trkpt>
<trkpt lat="46.1363160" lon="10.1354750">
	<ele>1682.40</ele>
	<time>2024-09-06T07:15:00.000Z</time>
</trkpt>
<trkpt lat="46.1363110" lon="10.1354740">
	<ele>1682.60</ele>
	<time>2024-09-06T07:15:01.000Z</time>
</trkpt>
<trkpt lat="46.1363090" lon="10.1354770">
	<ele>1682.80</ele>
	<time>2024-09-06T07:15:02.000Z</time>
</trkpt>
<trkpt lat="46.1362990" lon="10.1354700">
	<ele>1683.00</ele>
	<time>2024-09-06T07:15:03.000Z</time>
</trkpt>
<trkpt lat="46.1362950" lon="10.1354710">
	<ele>1683.20</ele>
	<time>2024-09-06T07:15:04.000Z</time>
</trkpt>
<trkpt lat="46.1362890" lon="10.1354750">
	<ele>1683.40</ele>
	<time>2024-09-06T07:15:05.000Z</time>
</trkpt>
<trkpt lat="46.1362850" lon="10.1354770">
	<ele>1683.40</ele>
	<time>2024-09-06T07:15:06.000Z</time>
</trkpt>
<trkpt lat="46.1362790" lon="10.1354730">
	<ele>1683.40</ele>
	<time>2024-09-06T07:15:07.000Z</time>
</trkpt>
<trkpt lat="46.1362730" lon="10.1354670">
	<ele>1683.60</ele>
	<time>2024-09-06T07:15:08.000Z</time>
</trkpt>
<trkpt lat="46.1362660" lon="10.1354520">
	<ele>1683.80</ele>
	<time>2024-09-06T07:15:09.000Z</time>
</trkpt>
<trkpt lat="46.1362610" lon="10.1354380">
	<ele>1684.00</ele>
	<time>2024-09-06T07:15:10.000Z</time>
</trkpt>
<trkpt lat="46.1362490" lon="10.1354240">
	<ele>1684.00</ele>
	<time>2024-09-06T07:15:11.000Z</time>
</trkpt>
<trkpt lat="46.1362450" lon="10.1354220">
	<ele>1684.20</ele>
	<time>2024-09-06T07:15:12.000Z</time>
</trkpt>
<trkpt lat="46.1362420" lon="10.1354200">
	<ele>1684.40</ele>
	<time>2024-09-06T07:15:13.000Z</time>
</trkpt>
<trkpt lat="46.1362440" lon="10.1354310">
	<ele>1684.40</ele>
	<time>2024-09-06T07:15:14.000Z</time>
</trkpt>
<trkpt lat="46.1362510" lon="10.1354440">
	<ele>1684.60</ele>
	<time>2024-09-06T07:15:15.000Z</time>
</trkpt>
<trkpt lat="46.1362630" lon="10.1354510">
	<ele>1684.60</ele>
	<time>2024-09-06T07:15:16.000Z</time>
</trkpt>
<trkpt lat="46.1362680" lon="10.1354790">
	<ele>1684.60</ele>
	<time>2024-09-06T07:15:17.000Z</time>
</trkpt>
<trkpt lat="46.1362670" lon="10.1354800">
	<ele>1684.60</ele>
	<time>2024-09-06T07:15:18.000Z</time>
</trkpt>
<trkpt lat="46.1362580" lon="10.1354730">
	<ele>1684.60</ele>
	<time>2024-09-06T07:15:19.000Z</time>
</trkpt>
<trkpt lat="46.1362490" lon="10.1354630">
	<ele>1684.60</ele>
	<time>2024-09-06T07:15:20.000Z</time>
</trkpt>
<trkpt lat="46.1362400" lon="10.1354510">
	<ele>1684.60</ele>
	<time>2024-09-06T07:15:21.000Z</time>
</trkpt>
<trkpt lat="46.1362310" lon="10.1354470">
	<ele>1684.80</ele>
	<time>2024-09-06T07:15:22.000Z</time>
</trkpt>
<trkpt lat="46.1362210" lon="10.1354410">
	<ele>1684.80</ele>
	<time>2024-09-06T07:15:23.000Z</time>
</trkpt>
<trkpt lat="46.1362120" lon="10.1354430">
	<ele>1684.80</ele>
	<time>2024-09-06T07:15:24.000Z</time>
</trkpt>
<trkpt lat="46.1362030" lon="10.1354400">
	<ele>1684.80</ele>
	<time>2024-09-06T07:15:25.000Z</time>
</trkpt>
<trkpt lat="46.1361940" lon="10.1354300">
	<ele>1684.80</ele>
	<time>2024-09-06T07:15:26.000Z</time>
</trkpt>
<trkpt lat="46.1361860" lon="10.1354250">
	<ele>1684.80</ele>
	<time>2024-09-06T07:15:27.000Z</time>
</trkpt>
<trkpt lat="46.1361800" lon="10.1354240">
	<ele>1685.00</ele>
	<time>2024-09-06T07:15:28.000Z</time>
</trkpt>
<trkpt lat="46.1361700" lon="10.1354200">
	<ele>1685.00</ele>
	<time>2024-09-06T07:15:29.000Z</time>
</trkpt>
<trkpt lat="46.1361610" lon="10.1354170">
	<ele>1685.00</ele>
	<time>2024-09-06T07:15:30.000Z</time>
</trkpt>
<trkpt lat="46.1361490" lon="10.1354200">
	<ele>1685.00</ele>
	<time>2024-09-06T07:15:31.000Z</time>
</trkpt>
<trkpt lat="46.1361370" lon="10.1354200">
	<ele>1685.20</ele>
	<time>2024-09-06T07:15:32.000Z</time>
</trkpt>
<trkpt lat="46.1361210" lon="10.1354080">
	<ele>1685.20</ele>
	<time>2024-09-06T07:15:33.000Z</time>
</trkpt>
<trkpt lat="46.1361010" lon="10.1353890">
	<ele>1685.20</ele>
	<time>2024-09-06T07:15:34.000Z</time>
</trkpt>
<trkpt lat="46.1360900" lon="10.1353780">
	<ele>1685.20</ele>
	<time>2024-09-06T07:15:35.000Z</time>
</trkpt>
<trkpt lat="46.1360790" lon="10.1353650">
	<ele>1685.20</ele>
	<time>2024-09-06T07:15:36.000Z</time>
</trkpt>
<trkpt lat="46.1360640" lon="10.1353550">
	<ele>1685.40</ele>
	<time>2024-09-06T07:15:37.000Z</time>
</trkpt>
<trkpt lat="46.1360570" lon="10.1353530">
	<ele>1685.40</ele>
	<time>2024-09-06T07:15:38.000Z</time>
</trkpt>
<trkpt lat="46.1360520" lon="10.1353560">
	<ele>1685.60</ele>
	<time>2024-09-06T07:15:39.000Z</time>
</trkpt>
<trkpt lat="46.1360400" lon="10.1353520">
	<ele>1685.60</ele>
	<time>2024-09-06T07:15:40.000Z</time>
</trkpt>
<trkpt lat="46.1360280" lon="10.1353500">
	<ele>1685.60</ele>
	<time>2024-09-06T07:15:41.000Z</time>
</trkpt>
<trkpt lat="46.1360150" lon="10.1353450">
	<ele>1685.80</ele>
	<time>2024-09-06T07:15:42.000Z</time>
</trkpt>
<trkpt lat="46.1360010" lon="10.1353390">
	<ele>1685.80</ele>
	<time>2024-09-06T07:15:43.000Z</time>
</trkpt>
<trkpt lat="46.1359890" lon="10.1353360">
	<ele>1685.80</ele>
	<time>2024-09-06T07:15:44.000Z</time>
</trkpt>
<trkpt lat="46.1359770" lon="10.1353250">
	<ele>1685.80</ele>
	<time>2024-09-06T07:15:45.000Z</time>
</trkpt>
<trkpt lat="46.1359670" lon="10.1353140">
	<ele>1685.80</ele>
	<time>2024-09-06T07:15:46.000Z</time>
</trkpt>
<trkpt lat="46.1359630" lon="10.1353100">
	<ele>1685.80</ele>
	<time>2024-09-06T07:15:47.000Z</time>
</trkpt>
<trkpt lat="46.1359560" lon="10.1353070">
	<ele>1685.80</ele>
	<time>2024-09-06T07:15:48.000Z</time>
</trkpt>
<trkpt lat="46.1359550" lon="10.1353110">
	<ele>1685.80</ele>
	<time>2024-09-06T07:15:49.000Z</time>
</trkpt>
<trkpt lat="46.1359590" lon="10.1353220">
	<ele>1685.80</ele>
	<time>2024-09-06T07:15:50.000Z</time>
</trkpt>
<trkpt lat="46.1359600" lon="10.1353260">
	<ele>1685.80</ele>
	<time>2024-09-06T07:15:51.000Z</time>
</trkpt>
<trkpt lat="46.1359560" lon="10.1353220">
	<ele>1685.80</ele>
	<time>2024-09-06T07:15:52.000Z</time>
</trkpt>
<trkpt lat="46.1359480" lon="10.1353170">
	<ele>1685.80</ele>
	<time>2024-09-06T07:15:53.000Z</time>
</trkpt>
<trkpt lat="46.1359440" lon="10.1353180">
	<ele>1685.80</ele>
	<time>2024-09-06T07:15:54.000Z</time>
</trkpt>
<trkpt lat="46.1359420" lon="10.1353200">
	<ele>1686.00</ele>
	<time>2024-09-06T07:15:55.000Z</time>
</trkpt>
<trkpt lat="46.1359410" lon="10.1353200">
	<ele>1686.00</ele>
	<time>2024-09-06T07:15:56.000Z</time>
</trkpt>
<trkpt lat="46.1359400" lon="10.1353160">
	<ele>1686.20</ele>
	<time>2024-09-06T07:15:57.000Z</time>
</trkpt>
<trkpt lat="46.1359400" lon="10.1353170">
	<ele>1686.20</ele>
	<time>2024-09-06T07:15:58.000Z</time>
</trkpt>
<trkpt lat="46.1359400" lon="10.1353250">
	<ele>1686.20</ele>
	<time>2024-09-06T07:15:59.000Z</time>
</trkpt>
<trkpt lat="46.1359350" lon="10.1353350">
	<ele>1686.20</ele>
	<time>2024-09-06T07:16:00.000Z</time>
</trkpt>
<trkpt lat="46.1359290" lon="10.1353420">
	<ele>1686.20</ele>
	<time>2024-09-06T07:16:01.000Z</time>
</trkpt>
<trkpt lat="46.1359300" lon="10.1353490">
	<ele>1686.20</ele>
	<time>2024-09-06T07:16:02.000Z</time>
</trkpt>
<trkpt lat="46.1359370" lon="10.1353690">
	<ele>1686.20</ele>
	<time>2024-09-06T07:16:03.000Z</time>
</trkpt>
<trkpt lat="46.1359360" lon="10.1353790">
	<ele>1686.20</ele>
	<time>2024-09-06T07:16:04.000Z</time>
</trkpt>
<trkpt lat="46.1359310" lon="10.1353910">
	<ele>1686.40</ele>
	<time>2024-09-06T07:16:05.000Z</time>
</trkpt>
<trkpt lat="46.1359250" lon="10.1353980">
	<ele>1686.40</ele>
	<time>2024-09-06T07:16:06.000Z</time>
</trkpt>
<trkpt lat="46.1359200" lon="10.1354070">
	<ele>1686.60</ele>
	<time>2024-09-06T07:16:07.000Z</time>
</trkpt>
<trkpt lat="46.1359150" lon="10.1354160">
	<ele>1686.60</ele>
	<time>2024-09-06T07:16:08.000Z</time>
</trkpt>
<trkpt lat="46.1359170" lon="10.1354130">
	<ele>1686.80</ele>
	<time>2024-09-06T07:16:09.000Z</time>
</trkpt>
<trkpt lat="46.1359230" lon="10.1354270">
	<ele>1686.80</ele>
	<time>2024-09-06T07:16:10.000Z</time>
</trkpt>
<trkpt lat="46.1359250" lon="10.1354440">
	<ele>1686.80</ele>
	<time>2024-09-06T07:16:11.000Z</time>
</trkpt>
<trkpt lat="46.1359140" lon="10.1354460">
	<ele>1686.80</ele>
	<time>2024-09-06T07:16:12.000Z</time>
</trkpt>
<trkpt lat="46.1359100" lon="10.1354510">
	<ele>1687.00</ele>
	<time>2024-09-06T07:16:13.000Z</time>
</trkpt>
<trkpt lat="46.1359040" lon="10.1354540">
	<ele>1687.00</ele>
	<time>2024-09-06T07:16:14.000Z</time>
</trkpt>
<trkpt lat="46.1358900" lon="10.1354790">
	<ele>1687.20</ele>
	<time>2024-09-06T07:16:15.000Z</time>
</trkpt>
<trkpt lat="46.1358770" lon="10.1354980">
	<ele>1687.40</ele>
	<time>2024-09-06T07:16:16.000Z</time>
</trkpt>
<trkpt lat="46.1358630" lon="10.1355000">
	<ele>1687.40</ele>
	<time>2024-09-06T07:16:17.000Z</time>
</trkpt>
<trkpt lat="46.1358500" lon="10.1355040">
	<ele>1687.60</ele>
	<time>2024-09-06T07:16:18.000Z</time>
</trkpt>
<trkpt lat="46.1358400" lon="10.1355120">
	<ele>1687.60</ele>
	<time>2024-09-06T07:16:19.000Z</time>
</trkpt>
<trkpt lat="46.1358260" lon="10.1355170">
	<ele>1687.60</ele>
	<time>2024-09-06T07:16:20.000Z</time>
</trkpt>
<trkpt lat="46.1358060" lon="10.1355090">
	<ele>1687.60</ele>
	<time>2024-09-06T07:16:21.000Z</time>
</trkpt>
<trkpt lat="46.1357910" lon="10.1355080">
	<ele>1687.80</ele>
	<time>2024-09-06T07:16:22.000Z</time>
</trkpt>
<trkpt lat="46.1357740" lon="10.1355150">
	<ele>1688.00</ele>
	<time>2024-09-06T07:16:23.000Z</time>
</trkpt>
<trkpt lat="46.1357510" lon="10.1355150">
	<ele>1688.20</ele>
	<time>2024-09-06T07:16:24.000Z</time>
</trkpt>
<trkpt lat="46.1357260" lon="10.1355130">
	<ele>1688.20</ele>
	<time>2024-09-06T07:16:25.000Z</time>
</trkpt>
<trkpt lat="46.1357060" lon="10.1355150">
	<ele>1688.40</ele>
	<time>2024-09-06T07:16:26.000Z</time>
</trkpt>
<trkpt lat="46.1356870" lon="10.1355110">
	<ele>1688.40</ele>
	<time>2024-09-06T07:16:27.000Z</time>
</trkpt>
<trkpt lat="46.1356630" lon="10.1355060">
	<ele>1688.60</ele>
	<time>2024-09-06T07:16:28.000Z</time>
</trkpt>
<trkpt lat="46.1356470" lon="10.1355090">
	<ele>1688.60</ele>
	<time>2024-09-06T07:16:29.000Z</time>
</trkpt>
<trkpt lat="46.1356330" lon="10.1355100">
	<ele>1688.60</ele>
	<time>2024-09-06T07:16:30.000Z</time>
</trkpt>
<trkpt lat="46.1356190" lon="10.1355310">
	<ele>1688.80</ele>
	<time>2024-09-06T07:16:31.000Z</time>
</trkpt>
<trkpt lat="46.1356090" lon="10.1355420">
	<ele>1689.00</ele>
	<time>2024-09-06T07:16:32.000Z</time>
</trkpt>
<trkpt lat="46.1355980" lon="10.1355420">
	<ele>1689.00</ele>
	<time>2024-09-06T07:16:33.000Z</time>
</trkpt>
<trkpt lat="46.1355830" lon="10.1355380">
	<ele>1689.20</ele>
	<time>2024-09-06T07:16:34.000Z</time>
</trkpt>
<trkpt lat="46.1355690" lon="10.1355330">
	<ele>1689.20</ele>
	<time>2024-09-06T07:16:35.000Z</time>
</trkpt>
<trkpt lat="46.1355580" lon="10.1355310">
	<ele>1689.40</ele>
	<time>2024-09-06T07:16:36.000Z</time>
</trkpt>
<trkpt lat="46.1355510" lon="10.1355330">
	<ele>1689.60</ele>
	<time>2024-09-06T07:16:37.000Z</time>
</trkpt>
<trkpt lat="46.1355450" lon="10.1355370">
	<ele>1689.80</ele>
	<time>2024-09-06T07:16:38.000Z</time>
</trkpt>
<trkpt lat="46.1355420" lon="10.1355390">
	<ele>1690.20</ele>
	<time>2024-09-06T07:16:39.000Z</time>
</trkpt>
<trkpt lat="46.1355390" lon="10.1355390">
	<ele>1690.40</ele>
	<time>2024-09-06T07:16:40.000Z</time>
</trkpt>
<trkpt lat="46.1355330" lon="10.1355350">
	<ele>1690.60</ele>
	<time>2024-09-06T07:16:41.000Z</time>
</trkpt>
<trkpt lat="46.1355330" lon="10.1355380">
	<ele>1690.80</ele>
	<time>2024-09-06T07:16:42.000Z</time>
</trkpt>
<trkpt lat="46.1355340" lon="10.1355490">
	<ele>1690.80</ele>
	<time>2024-09-06T07:16:43.000Z</time>
</trkpt>
<trkpt lat="46.1355410" lon="10.1355570">
	<ele>1691.00</ele>
	<time>2024-09-06T07:16:44.000Z</time>
</trkpt>
<trkpt lat="46.1355380" lon="10.1355580">
	<ele>1691.20</ele>
	<time>2024-09-06T07:16:45.000Z</time>
</trkpt>
<trkpt lat="46.1355590" lon="10.1355700">
	<ele>1691.20</ele>
	<time>2024-09-06T07:16:46.000Z</time>
</trkpt>
<trkpt lat="46.1355750" lon="10.1355810">
	<ele>1691.40</ele>
	<time>2024-09-06T07:16:47.000Z</time>
</trkpt>
<trkpt lat="46.1355750" lon="10.1355750">
	<ele>1691.40</ele>
	<time>2024-09-06T07:16:48.000Z</time>
</trkpt>
<trkpt lat="46.1355710" lon="10.1355650">
	<ele>1691.60</ele>
	<time>2024-09-06T07:16:49.000Z</time>
</trkpt>
<trkpt lat="46.1355620" lon="10.1355630">
	<ele>1691.60</ele>
	<time>2024-09-06T07:16:50.000Z</time>
</trkpt>
<trkpt lat="46.1355510" lon="10.1355550">
	<ele>1691.60</ele>
	<time>2024-09-06T07:16:51.000Z</time>
</trkpt>
<trkpt lat="46.1355530" lon="10.1355540">
	<ele>1691.80</ele>
	<time>2024-09-06T07:16:52.000Z</time>
</trkpt>
<trkpt lat="46.1355410" lon="10.1355450">
	<ele>1692.00</ele>
	<time>2024-09-06T07:16:53.000Z</time>
</trkpt>
<trkpt lat="46.1355290" lon="10.1355370">
	<ele>1692.00</ele>
	<time>2024-09-06T07:16:54.000Z</time>
</trkpt>
<trkpt lat="46.1355150" lon="10.1355360">
	<ele>1692.20</ele>
	<time>2024-09-06T07:16:55.000Z</time>
</trkpt>
<trkpt lat="46.1355010" lon="10.1355240">
	<ele>1692.20</ele>
	<time>2024-09-06T07:16:56.000Z</time>
</trkpt>
<trkpt lat="46.1354900" lon="10.1355230">
	<ele>1692.20</ele>
	<time>2024-09-06T07:16:57.000Z</time>
</trkpt>
<trkpt lat="46.1354780" lon="10.1355240">
	<ele>1692.20</ele>
	<time>2024-09-06T07:16:58.000Z</time>
</trkpt>
<trkpt lat="46.1354660" lon="10.1355300">
	<ele>1692.20</ele>
	<time>2024-09-06T07:16:59.000Z</time>
</trkpt>
<trkpt lat="46.1354560" lon="10.1355330">
	<ele>1692.20</ele>
	<time>2024-09-06T07:17:00.000Z</time>
</trkpt>
<trkpt lat="46.1354450" lon="10.1355320">
	<ele>1692.40</ele>
	<time>2024-09-06T07:17:01.000Z</time>
</trkpt>
<trkpt lat="46.1354350" lon="10.1355390">
	<ele>1692.40</ele>
	<time>2024-09-06T07:17:02.000Z</time>
</trkpt>
<trkpt lat="46.1354300" lon="10.1355370">
	<ele>1692.60</ele>
	<time>2024-09-06T07:17:03.000Z</time>
</trkpt>
<trkpt lat="46.1354210" lon="10.1355420">
	<ele>1692.80</ele>
	<time>2024-09-06T07:17:04.000Z</time>
</trkpt>
<trkpt lat="46.1354140" lon="10.1355370">
	<ele>1693.00</ele>
	<time>2024-09-06T07:17:05.000Z</time>
</trkpt>
<trkpt lat="46.1354090" lon="10.1355340">
	<ele>1693.20</ele>
	<time>2024-09-06T07:17:06.000Z</time>
</trkpt>
<trkpt lat="46.1354100" lon="10.1355350">
	<ele>1693.20</ele>
	<time>2024-09-06T07:17:07.000Z</time>
</trkpt>
<trkpt lat="46.1354100" lon="10.1355360">
	<ele>1693.20</ele>
	<time>2024-09-06T07:17:08.000Z</time>
</trkpt>
<trkpt lat="46.1354110" lon="10.1355350">
	<ele>1693.40</ele>
	<time>2024-09-06T07:17:09.000Z</time>
</trkpt>
<trkpt lat="46.1354110" lon="10.1355390">
	<ele>1693.60</ele>
	<time>2024-09-06T07:17:10.000Z</time>
</trkpt>
<trkpt lat="46.1354100" lon="10.1355430">
	<ele>1693.80</ele>
	<time>2024-09-06T07:17:11.000Z</time>
</trkpt>
<trkpt lat="46.1354060" lon="10.1355530">
	<ele>1693.80</ele>
	<time>2024-09-06T07:17:12.000Z</time>
</trkpt>
<trkpt lat="46.1354070" lon="10.1355520">
	<ele>1694.00</ele>
	<time>2024-09-06T07:17:13.000Z</time>
</trkpt>
<trkpt lat="46.1353890" lon="10.1355390">
	<ele>1694.00</ele>
	<time>2024-09-06T07:17:14.000Z</time>
</trkpt>
<trkpt lat="46.1353760" lon="10.1355340">
	<ele>1694.00</ele>
	<time>2024-09-06T07:17:15.000Z</time>
</trkpt>
<trkpt lat="46.1353750" lon="10.1355380">
	<ele>1694.00</ele>
	<time>2024-09-06T07:17:16.000Z</time>
</trkpt>
<trkpt lat="46.1353710" lon="10.1355390">
	<ele>1694.20</ele>
	<time>2024-09-06T07:17:17.000Z</time>
</trkpt>
<trkpt lat="46.1353590" lon="10.1355370">
	<ele>1694.20</ele>
	<time>2024-09-06T07:17:18.000Z</time>
</trkpt>
<trkpt lat="46.1353500" lon="10.1355280">
	<ele>1694.40</ele>
	<time>2024-09-06T07:17:19.000Z</time>
</trkpt>
<trkpt lat="46.1353550" lon="10.1355250">
	<ele>1694.60</ele>
	<time>2024-09-06T07:17:20.000Z</time>
</trkpt>
<trkpt lat="46.1353480" lon="10.1355240">
	<ele>1694.80</ele>
	<time>2024-09-06T07:17:21.000Z</time>
</trkpt>
<trkpt lat="46.1353420" lon="10.1355290">
	<ele>1694.80</ele>
	<time>2024-09-06T07:17:22.000Z</time>
</trkpt>
<trkpt lat="46.1353390" lon="10.1355380">
	<ele>1695.00</ele>
	<time>2024-09-06T07:17:23.000Z</time>
</trkpt>
<trkpt lat="46.1353350" lon="10.1355450">
	<ele>1695.00</ele>
	<time>2024-09-06T07:17:24.000Z</time>
</trkpt>
<trkpt lat="46.1353320" lon="10.1355510">
	<ele>1695.20</ele>
	<time>2024-09-06T07:17:25.000Z</time>
</trkpt>
<trkpt lat="46.1353190" lon="10.1355490">
	<ele>1695.20</ele>
	<time>2024-09-06T07:17:26.000Z</time>
</trkpt>
<trkpt lat="46.1352950" lon="10.1355360">
	<ele>1695.40</ele>
	<time>2024-09-06T07:17:27.000Z</time>
</trkpt>
<trkpt lat="46.1352740" lon="10.1355190">
	<ele>1695.80</ele>
	<time>2024-09-06T07:17:28.000Z</time>
</trkpt>
<trkpt lat="46.1352620" lon="10.1355080">
	<ele>1696.00</ele>
	<time>2024-09-06T07:17:29.000Z</time>
</trkpt>
<trkpt lat="46.1352640" lon="10.1355110">
	<ele>1696.20</ele>
	<time>2024-09-06T07:17:30.000Z</time>
</trkpt>
<trkpt lat="46.1352600" lon="10.1355110">
	<ele>1696.40</ele>
	<time>2024-09-06T07:17:31.000Z</time>
</trkpt>
<trkpt lat="46.1352490" lon="10.1355080">
	<ele>1696.40</ele>
	<time>2024-09-06T07:17:32.000Z</time>
</trkpt>
<trkpt lat="46.1352350" lon="10.1355030">
	<ele>1696.60</ele>
	<time>2024-09-06T07:17:33.000Z</time>
</trkpt>
<trkpt lat="46.1352210" lon="10.1355020">
	<ele>1696.60</ele>
	<time>2024-09-06T07:17:34.000Z</time>
</trkpt>
<trkpt lat="46.1352050" lon="10.1354990">
	<ele>1696.60</ele>
	<time>2024-09-06T07:17:35.000Z</time>
</trkpt>
<trkpt lat="46.1351870" lon="10.1354950">
	<ele>1696.80</ele>
	<time>2024-09-06T07:17:36.000Z</time>
</trkpt>
<trkpt lat="46.1351680" lon="10.1354890">
	<ele>1697.00</ele>
	<time>2024-09-06T07:17:37.000Z</time>
</trkpt>
<trkpt lat="46.1351630" lon="10.1354820">
	<ele>1697.00</ele>
	<time>2024-09-06T07:17:38.000Z</time>
</trkpt>
<trkpt lat="46.1351480" lon="10.1354670">
	<ele>1697.20</ele>
	<time>2024-09-06T07:17:39.000Z</time>
</trkpt>
<trkpt lat="46.1351400" lon="10.1354640">
	<ele>1697.40</ele>
	<time>2024-09-06T07:17:40.000Z</time>
</trkpt>
<trkpt lat="46.1351310" lon="10.1354660">
	<ele>1697.40</ele>
	<time>2024-09-06T07:17:41.000Z</time>
</trkpt>
<trkpt lat="46.1351240" lon="10.1354600">
	<ele>1697.40</ele>
	<time>2024-09-06T07:17:42.000Z</time>
</trkpt>
<trkpt lat="46.1351170" lon="10.1354540">
	<ele>1697.60</ele>
	<time>2024-09-06T07:17:43.000Z</time>
</trkpt>
<trkpt lat="46.1351050" lon="10.1354480">
	<ele>1697.80</ele>
	<time>2024-09-06T07:17:44.000Z</time>
</trkpt>
<trkpt lat="46.1350940" lon="10.1354450">
	<ele>1697.80</ele>
	<time>2024-09-06T07:17:45.000Z</time>
</trkpt>
<trkpt lat="46.1350900" lon="10.1354440">
	<ele>1698.00</ele>
	<time>2024-09-06T07:17:46.000Z</time>
</trkpt>
<trkpt lat="46.1350850" lon="10.1354360">
	<ele>1698.00</ele>
	<time>2024-09-06T07:17:47.000Z</time>
</trkpt>
<trkpt lat="46.1350790" lon="10.1354380">
	<ele>1698.00</ele>
	<time>2024-09-06T07:17:48.000Z</time>
</trkpt>
<trkpt lat="46.1350710" lon="10.1354320">
	<ele>1698.20</ele>
	<time>2024-09-06T07:17:49.000Z</time>
</trkpt>
<trkpt lat="46.1350720" lon="10.1354290">
	<ele>1698.20</ele>
	<time>2024-09-06T07:17:50.000Z</time>
</trkpt>
<trkpt lat="46.1350660" lon="10.1354260">
	<ele>1698.40</ele>
	<time>2024-09-06T07:17:51.000Z</time>
</trkpt>
<trkpt lat="46.1350600" lon="10.1354410">
	<ele>1698.40</ele>
	<time>2024-09-06T07:17:52.000Z</time>
</trkpt>
<trkpt lat="46.1350490" lon="10.1354420">
	<ele>1698.60</ele>
	<time>2024-09-06T07:17:53.000Z</time>
</trkpt>
<trkpt lat="46.1350380" lon="10.1354450">
	<ele>1698.80</ele>
	<time>2024-09-06T07:17:54.000Z</time>
</trkpt>
<trkpt lat="46.1350230" lon="10.1354540">
	<ele>1698.80</ele>
	<time>2024-09-06T07:17:55.000Z</time>
</trkpt>
<trkpt lat="46.1350090" lon="10.1354570">
	<ele>1699.00</ele>
	<time>2024-09-06T07:17:56.000Z</time>
</trkpt>
<trkpt lat="46.1349880" lon="10.1354460">
	<ele>1699.20</ele>
	<time>2024-09-06T07:17:57.000Z</time>
</trkpt>
<trkpt lat="46.1349680" lon="10.1354370">
	<ele>1699.20</ele>
	<time>2024-09-06T07:17:58.000Z</time>
</trkpt>
<trkpt lat="46.1349480" lon="10.1354270">
	<ele>1699.20</ele>
	<time>2024-09-06T07:17:59.000Z</time>
</trkpt>
<trkpt lat="46.1349340" lon="10.1354190">
	<ele>1699.20</ele>
	<time>2024-09-06T07:18:00.000Z</time>
</trkpt>
<trkpt lat="46.1349220" lon="10.1354090">
	<ele>1699.40</ele>
	<time>2024-09-06T07:18:01.000Z</time>
</trkpt>
<trkpt lat="46.1349050" lon="10.1353940">
	<ele>1699.40</ele>
	<time>2024-09-06T07:18:02.000Z</time>
</trkpt>
<trkpt lat="46.1348940" lon="10.1353850">
	<ele>1699.40</ele>
	<time>2024-09-06T07:18:03.000Z</time>
</trkpt>
<trkpt lat="46.1348910" lon="10.1353800">
	<ele>1699.40</ele>
	<time>2024-09-06T07:18:04.000Z</time>
</trkpt>
<trkpt lat="46.1348870" lon="10.1353700">
	<ele>1699.40</ele>
	<time>2024-09-06T07:18:05.000Z</time>
</trkpt>
<trkpt lat="46.1348880" lon="10.1353710">
	<ele>1699.60</ele>
	<time>2024-09-06T07:18:06.000Z</time>
</trkpt>
<trkpt lat="46.1348790" lon="10.1353720">
	<ele>1699.60</ele>
	<time>2024-09-06T07:18:07.000Z</time>
</trkpt>
<trkpt lat="46.1348670" lon="10.1353640">
	<ele>1699.80</ele>
	<time>2024-09-06T07:18:08.000Z</time>
</trkpt>
<trkpt lat="46.1348530" lon="10.1353590">
	<ele>1700.00</ele>
	<time>2024-09-06T07:18:09.000Z</time>
</trkpt>
<trkpt lat="46.1348490" lon="10.1353550">
	<ele>1700.00</ele>
	<time>2024-09-06T07:18:10.000Z</time>
</trkpt>
<trkpt lat="46.1348360" lon="10.1353540">
	<ele>1700.20</ele>
	<time>2024-09-06T07:18:11.000Z</time>
</trkpt>
<trkpt lat="46.1348320" lon="10.1353490">
	<ele>1700.40</ele>
	<time>2024-09-06T07:18:12.000Z</time>
</trkpt>
<trkpt lat="46.1348180" lon="10.1353460">
	<ele>1700.40</ele>
	<time>2024-09-06T07:18:13.000Z</time>
</trkpt>
<trkpt lat="46.1348070" lon="10.1353490">
	<ele>1700.60</ele>
	<time>2024-09-06T07:18:14.000Z</time>
</trkpt>
<trkpt lat="46.1347940" lon="10.1353420">
	<ele>1700.60</ele>
	<time>2024-09-06T07:18:15.000Z</time>
</trkpt>
<trkpt lat="46.1347860" lon="10.1353280">
	<ele>1700.80</ele>
	<time>2024-09-06T07:18:16.000Z</time>
</trkpt>
<trkpt lat="46.1347790" lon="10.1353190">
	<ele>1700.80</ele>
	<time>2024-09-06T07:18:17.000Z</time>
</trkpt>
<trkpt lat="46.1347670" lon="10.1353050">
	<ele>1700.80</ele>
	<time>2024-09-06T07:18:18.000Z</time>
</trkpt>
<trkpt lat="46.1347520" lon="10.1352900">
	<ele>1700.80</ele>
	<time>2024-09-06T07:18:19.000Z</time>
</trkpt>
<trkpt lat="46.1347420" lon="10.1352860">
	<ele>1700.80</ele>
	<time>2024-09-06T07:18:20.000Z</time>
</trkpt>
<trkpt lat="46.1347280" lon="10.1352800">
	<ele>1700.80</ele>
	<time>2024-09-06T07:18:21.000Z</time>
</trkpt>
<trkpt lat="46.1347140" lon="10.1352720">
	<ele>1700.80</ele>
	<time>2024-09-06T07:18:22.000Z</time>
</trkpt>
<trkpt lat="46.1347070" lon="10.1352590">
	<ele>1700.80</ele>
	<time>2024-09-06T07:18:23.000Z</time>
</trkpt>
<trkpt lat="46.1347040" lon="10.1352540">
	<ele>1700.80</ele>
	<time>2024-09-06T07:18:24.000Z</time>
</trkpt>
<trkpt lat="46.1347080" lon="10.1352490">
	<ele>1700.80</ele>
	<time>2024-09-06T07:18:25.000Z</time>
</trkpt>
<trkpt lat="46.1347090" lon="10.1352480">
	<ele>1701.00</ele>
	<time>2024-09-06T07:18:26.000Z</time>
</trkpt>
<trkpt lat="46.1347000" lon="10.1352390">
	<ele>1701.00</ele>
	<time>2024-09-06T07:18:27.000Z</time>
</trkpt>
<trkpt lat="46.1346970" lon="10.1352340">
	<ele>1701.00</ele>
	<time>2024-09-06T07:18:28.000Z</time>
</trkpt>
<trkpt lat="46.1346870" lon="10.1352320">
	<ele>1701.00</ele>
	<time>2024-09-06T07:18:29.000Z</time>
</trkpt>
<trkpt lat="46.1346830" lon="10.1352250">
	<ele>1701.00</ele>
	<time>2024-09-06T07:18:30.000Z</time>
</trkpt>
<trkpt lat="46.1346820" lon="10.1352240">
	<ele>1701.40</ele>
	<time>2024-09-06T07:18:31.000Z</time>
</trkpt>
<trkpt lat="46.1346820" lon="10.1352240">
	<ele>1701.40</ele>
	<time>2024-09-06T07:18:32.000Z</time>
</trkpt>
<trkpt lat="46.1346810" lon="10.1352250">
	<ele>1701.80</ele>
	<time>2024-09-06T07:18:33.000Z</time>
</trkpt>
<trkpt lat="46.1346820" lon="10.1352290">
	<ele>1702.00</ele>
	<time>2024-09-06T07:18:34.000Z</time>
</trkpt>
<trkpt lat="46.1346800" lon="10.1352250">
	<ele>1702.00</ele>
	<time>2024-09-06T07:18:35.000Z</time>
</trkpt>
<trkpt lat="46.1346740" lon="10.1352210">
	<ele>1702.20</ele>
	<time>2024-09-06T07:18:36.000Z</time>
</trkpt>
<trkpt lat="46.1346660" lon="10.1352160">
	<ele>1702.20</ele>
	<time>2024-09-06T07:18:37.000Z</time>
</trkpt>
<trkpt lat="46.1346500" lon="10.1352030">
	<ele>1702.20</ele>
	<time>2024-09-06T07:18:38.000Z</time>
</trkpt>
<trkpt lat="46.1346260" lon="10.1351820">
	<ele>1702.20</ele>
	<time>2024-09-06T07:18:39.000Z</time>
</trkpt>
<trkpt lat="46.1346060" lon="10.1351720">
	<ele>1702.20</ele>
	<time>2024-09-06T07:18:40.000Z</time>
</trkpt>
<trkpt lat="46.1345880" lon="10.1351620">
	<ele>1702.20</ele>
	<time>2024-09-06T07:18:41.000Z</time>
</trkpt>
<trkpt lat="46.1345700" lon="10.1351490">
	<ele>1702.40</ele>
	<time>2024-09-06T07:18:42.000Z</time>
</trkpt>
<trkpt lat="46.1345590" lon="10.1351440">
	<ele>1702.40</ele>
	<time>2024-09-06T07:18:43.000Z</time>
</trkpt>
<trkpt lat="46.1345480" lon="10.1351420">
	<ele>1702.40</ele>
	<time>2024-09-06T07:18:44.000Z</time>
</trkpt>
<trkpt lat="46.1345360" lon="10.1351400">
	<ele>1702.40</ele>
	<time>2024-09-06T07:18:45.000Z</time>
</trkpt>
<trkpt lat="46.1345350" lon="10.1351400">
	<ele>1702.40</ele>
	<time>2024-09-06T07:18:46.000Z</time>
</trkpt>
<trkpt lat="46.1345230" lon="10.1351420">
	<ele>1702.40</ele>
	<time>2024-09-06T07:18:47.000Z</time>
</trkpt>
<trkpt lat="46.1345110" lon="10.1351380">
	<ele>1702.40</ele>
	<time>2024-09-06T07:18:48.000Z</time>
</trkpt>
<trkpt lat="46.1345000" lon="10.1351340">
	<ele>1702.40</ele>
	<time>2024-09-06T07:18:49.000Z</time>
</trkpt>
<trkpt lat="46.1344920" lon="10.1351330">
	<ele>1702.40</ele>
	<time>2024-09-06T07:18:50.000Z</time>
</trkpt>
<trkpt lat="46.1344860" lon="10.1351490">
	<ele>1702.40</ele>
	<time>2024-09-06T07:18:51.000Z</time>
</trkpt>
<trkpt lat="46.1344830" lon="10.1351500">
	<ele>1702.60</ele>
	<time>2024-09-06T07:18:52.000Z</time>
</trkpt>
<trkpt lat="46.1344790" lon="10.1351510">
	<ele>1702.80</ele>
	<time>2024-09-06T07:18:53.000Z</time>
</trkpt>
<trkpt lat="46.1344690" lon="10.1351500">
	<ele>1702.80</ele>
	<time>2024-09-06T07:18:54.000Z</time>
</trkpt>
<trkpt lat="46.1344680" lon="10.1351500">
	<ele>1703.20</ele>
	<time>2024-09-06T07:18:55.000Z</time>
</trkpt>
<trkpt lat="46.1344580" lon="10.1351480">
	<ele>1703.40</ele>
	<time>2024-09-06T07:18:56.000Z</time>
</trkpt>
<trkpt lat="46.1344570" lon="10.1351620">
	<ele>1703.60</ele>
	<time>2024-09-06T07:18:57.000Z</time>
</trkpt>
<trkpt lat="46.1344510" lon="10.1351760">
	<ele>1703.60</ele>
	<time>2024-09-06T07:18:58.000Z</time>
</trkpt>
<trkpt lat="46.1344490" lon="10.1351940">
	<ele>1703.80</ele>
	<time>2024-09-06T07:18:59.000Z</time>
</trkpt>
<trkpt lat="46.1344400" lon="10.1351960">
	<ele>1703.80</ele>
	<time>2024-09-06T07:19:00.000Z</time>
</trkpt>
<trkpt lat="46.1344390" lon="10.1352000">
	<ele>1704.00</ele>
	<time>2024-09-06T07:19:01.000Z</time>
</trkpt>
<trkpt lat="46.1344380" lon="10.1352030">
	<ele>1704.20</ele>
	<time>2024-09-06T07:19:02.000Z</time>
</trkpt>
<trkpt lat="46.1344430" lon="10.1352060">
	<ele>1704.40</ele>
	<time>2024-09-06T07:19:03.000Z</time>
</trkpt>
<trkpt lat="46.1344450" lon="10.1352070">
	<ele>1704.60</ele>
	<time>2024-09-06T07:19:04.000Z</time>
</trkpt>
<trkpt lat="46.1344440" lon="10.1352160">
	<ele>1704.80</ele>
	<time>2024-09-06T07:19:05.000Z</time>
</trkpt>
<trkpt lat="46.1344450" lon="10.1352220">
	<ele>1705.00</ele>
	<time>2024-09-06T07:19:06.000Z</time>
</trkpt>
<trkpt lat="46.1344450" lon="10.1352290">
	<ele>1705.20</ele>
	<time>2024-09-06T07:19:07.000Z</time>
</trkpt>
<trkpt lat="46.1344380" lon="10.1352320">
	<ele>1705.00</ele>
	<time>2024-09-06T07:19:08.000Z</time>
</trkpt>
<trkpt lat="46.1344270" lon="10.1352300">
	<ele>1705.20</ele>
	<time>2024-09-06T07:19:09.000Z</time>
</trkpt>
<trkpt lat="46.1344140" lon="10.1352410">
	<ele>1705.20</ele>
	<time>2024-09-06T07:19:10.000Z</time>
</trkpt>
<trkpt lat="46.1344100" lon="10.1352540">
	<ele>1705.20</ele>
	<time>2024-09-06T07:19:11.000Z</time>
</trkpt>
<trkpt lat="46.1344060" lon="10.1352630">
	<ele>1705.20</ele>
	<time>2024-09-06T07:19:12.000Z</time>
</trkpt>
<trkpt lat="46.1344040" lon="10.1352820">
	<ele>1705.20</ele>
	<time>2024-09-06T07:19:13.000Z</time>
</trkpt>
<trkpt lat="46.1344090" lon="10.1352870">
	<ele>1705.20</ele>
	<time>2024-09-06T07:19:14.000Z</time>
</trkpt>
<trkpt lat="46.1344140" lon="10.1352890">
	<ele>1705.20</ele>
	<time>2024-09-06T07:19:15.000Z</time>
</trkpt>
<trkpt lat="46.1344200" lon="10.1352920">
	<ele>1705.20</ele>
	<time>2024-09-06T07:19:16.000Z</time>
</trkpt>
<trkpt lat="46.1344110" lon="10.1352900">
	<ele>1705.20</ele>
	<time>2024-09-06T07:19:17.000Z</time>
</trkpt>
<trkpt lat="46.1344070" lon="10.1352900">
	<ele>1705.40</ele>
	<time>2024-09-06T07:19:18.000Z</time>
</trkpt>
<trkpt lat="46.1343960" lon="10.1352840">
	<ele>1705.40</ele>
	<time>2024-09-06T07:19:19.000Z</time>
</trkpt>
<trkpt lat="46.1343910" lon="10.1352890">
	<ele>1705.40</ele>
	<time>2024-09-06T07:19:20.000Z</time>
</trkpt>
<trkpt lat="46.1343850" lon="10.1352920">
	<ele>1705.40</ele>
	<time>2024-09-06T07:19:21.000Z</time>
</trkpt>
<trkpt lat="46.1343820" lon="10.1352920">
	<ele>1705.60</ele>
	<time>2024-09-06T07:19:22.000Z</time>
</trkpt>
<trkpt lat="46.1343800" lon="10.1352920">
	<ele>1705.60</ele>
	<time>2024-09-06T07:19:23.000Z</time>
</trkpt>
<trkpt lat="46.1343800" lon="10.1352930">
	<ele>1705.80</ele>
	<time>2024-09-06T07:19:24.000Z</time>
</trkpt>
<trkpt lat="46.1343790" lon="10.1352930">
	<ele>1706.00</ele>
	<time>2024-09-06T07:19:25.000Z</time>
</trkpt>
<trkpt lat="46.1343670" lon="10.1352910">
	<ele>1706.40</ele>
	<time>2024-09-06T07:19:26.000Z</time>
</trkpt>
<trkpt lat="46.1343580" lon="10.1352920">
	<ele>1706.60</ele>
	<time>2024-09-06T07:19:27.000Z</time>
</trkpt>
<trkpt lat="46.1343450" lon="10.1352840">
	<ele>1706.80</ele>
	<time>2024-09-06T07:19:28.000Z</time>
</trkpt>
<trkpt lat="46.1343330" lon="10.1352830">
	<ele>1707.00</ele>
	<time>2024-09-06T07:19:29.000Z</time>
</trkpt>
<trkpt lat="46.1343220" lon="10.1352780">
	<ele>1707.20</ele>
	<time>2024-09-06T07:19:30.000Z</time>
</trkpt>
<trkpt lat="46.1343100" lon="10.1352840">
	<ele>1707.40</ele>
	<time>2024-09-06T07:19:31.000Z</time>
</trkpt>
<trkpt lat="46.1342980" lon="10.1352890">
	<ele>1707.80</ele>
	<time>2024-09-06T07:19:32.000Z</time>
</trkpt>
<trkpt lat="46.1342900" lon="10.1352940">
	<ele>1708.00</ele>
	<time>2024-09-06T07:19:33.000Z</time>
</trkpt>
<trkpt lat="46.1342890" lon="10.1352960">
	<ele>1708.00</ele>
	<time>2024-09-06T07:19:34.000Z</time>
</trkpt>
<trkpt lat="46.1342880" lon="10.1352970">
	<ele>1708.20</ele>
	<time>2024-09-06T07:19:35.000Z</time>
</trkpt>
<trkpt lat="46.1342810" lon="10.1352820">
	<ele>1708.40</ele>
	<time>2024-09-06T07:19:36.000Z</time>
</trkpt>
<trkpt lat="46.1342780" lon="10.1352780">
	<ele>1708.60</ele>
	<time>2024-09-06T07:19:37.000Z</time>
</trkpt>
<trkpt lat="46.1342740" lon="10.1352730">
	<ele>1708.80</ele>
	<time>2024-09-06T07:19:38.000Z</time>
</trkpt>
<trkpt lat="46.1342700" lon="10.1352740">
	<ele>1709.00</ele>
	<time>2024-09-06T07:19:39.000Z</time>
</trkpt>
<trkpt lat="46.1342660" lon="10.1352830">
	<ele>1709.00</ele>
	<time>2024-09-06T07:19:40.000Z</time>
</trkpt>
<trkpt lat="46.1342540" lon="10.1352760">
	<ele>1709.00</ele>
	<time>2024-09-06T07:19:41.000Z</time>
</trkpt>
<trkpt lat="46.1342350" lon="10.1352690">
	<ele>1709.20</ele>
	<time>2024-09-06T07:19:42.000Z</time>
</trkpt>
<trkpt lat="46.1342210" lon="10.1352640">
	<ele>1709.40</ele>
	<time>2024-09-06T07:19:43.000Z</time>
</trkpt>
<trkpt lat="46.1342060" lon="10.1352540">
	<ele>1709.60</ele>
	<time>2024-09-06T07:19:44.000Z</time>
</trkpt>
<trkpt lat="46.1341940" lon="10.1352430">
	<ele>1710.00</ele>
	<time>2024-09-06T07:19:45.000Z</time>
</trkpt>
<trkpt lat="46.1341830" lon="10.1352380">
	<ele>1710.20</ele>
	<time>2024-09-06T07:19:46.000Z</time>
</trkpt>
<trkpt lat="46.1341720" lon="10.1352360">
	<ele>1710.40</ele>
	<time>2024-09-06T07:19:47.000Z</time>
</trkpt>
<trkpt lat="46.1341490" lon="10.1352170">
	<ele>1710.80</ele>
	<time>2024-09-06T07:19:48.000Z</time>
</trkpt>
<trkpt lat="46.1341440" lon="10.1352150">
	<ele>1711.00</ele>
	<time>2024-09-06T07:19:49.000Z</time>
</trkpt>
<trkpt lat="46.1341420" lon="10.1352170">
	<ele>1711.20</ele>
	<time>2024-09-06T07:19:50.000Z</time>
</trkpt>
<trkpt lat="46.1341410" lon="10.1352160">
	<ele>1711.40</ele>
	<time>2024-09-06T07:19:51.000Z</time>
</trkpt>
<trkpt lat="46.1341410" lon="10.1352170">
	<ele>1711.40</ele>
	<time>2024-09-06T07:19:52.000Z</time>
</trkpt>
<trkpt lat="46.1341380" lon="10.1352210">
	<ele>1711.60</ele>
	<time>2024-09-06T07:19:53.000Z</time>
</trkpt>
<trkpt lat="46.1341320" lon="10.1352230">
	<ele>1711.60</ele>
	<time>2024-09-06T07:19:54.000Z</time>
</trkpt>
<trkpt lat="46.1341240" lon="10.1352250">
	<ele>1711.80</ele>
	<time>2024-09-06T07:19:55.000Z</time>
</trkpt>
<trkpt lat="46.1341210" lon="10.1352290">
	<ele>1712.00</ele>
	<time>2024-09-06T07:19:56.000Z</time>
</trkpt>
<trkpt lat="46.1341160" lon="10.1352370">
	<ele>1712.00</ele>
	<time>2024-09-06T07:19:57.000Z</time>
</trkpt>
<trkpt lat="46.1341140" lon="10.1352440">
	<ele>1712.00</ele>
	<time>2024-09-06T07:19:58.000Z</time>
</trkpt>
<trkpt lat="46.1341080" lon="10.1352470">
	<ele>1712.00</ele>
	<time>2024-09-06T07:19:59.000Z</time>
</trkpt>
<trkpt lat="46.1341010" lon="10.1352490">
	<ele>1712.20</ele>
	<time>2024-09-06T07:20:00.000Z</time>
</trkpt>
<trkpt lat="46.1340920" lon="10.1352390">
	<ele>1712.20</ele>
	<time>2024-09-06T07:20:01.000Z</time>
</trkpt>
<trkpt lat="46.1340880" lon="10.1352420">
	<ele>1712.40</ele>
	<time>2024-09-06T07:20:02.000Z</time>
</trkpt>
<trkpt lat="46.1340750" lon="10.1352430">
	<ele>1712.40</ele>
	<time>2024-09-06T07:20:03.000Z</time>
</trkpt>
<trkpt lat="46.1340610" lon="10.1352410">
	<ele>1712.60</ele>
	<time>2024-09-06T07:20:04.000Z</time>
</trkpt>
<trkpt lat="46.1340420" lon="10.1352380">
	<ele>1712.60</ele>
	<time>2024-09-06T07:20:05.000Z</time>
</trkpt>
<trkpt lat="46.1340220" lon="10.1352270">
	<ele>1713.00</ele>
	<time>2024-09-06T07:20:06.000Z</time>
</trkpt>
<trkpt lat="46.1340060" lon="10.1352160">
	<ele>1713.20</ele>
	<time>2024-09-06T07:20:07.000Z</time>
</trkpt>
<trkpt lat="46.1339900" lon="10.1352080">
	<ele>1713.40</ele>
	<time>2024-09-06T07:20:08.000Z</time>
</trkpt>
<trkpt lat="46.1339780" lon="10.1352070">
	<ele>1713.40</ele>
	<time>2024-09-06T07:20:09.000Z</time>
</trkpt>
<trkpt lat="46.1339730" lon="10.1352110">
	<ele>1713.40</ele>
	<time>2024-09-06T07:20:10.000Z</time>
</trkpt>
<trkpt lat="46.1339710" lon="10.1352150">
	<ele>1713.60</ele>
	<time>2024-09-06T07:20:11.000Z</time>
</trkpt>
<trkpt lat="46.1339620" lon="10.1352260">
	<ele>1713.80</ele>
	<time>2024-09-06T07:20:12.000Z</time>
</trkpt>
<trkpt lat="46.1339490" lon="10.1352280">
	<ele>1714.00</ele>
	<time>2024-09-06T07:20:13.000Z</time>
</trkpt>
<trkpt lat="46.1339330" lon="10.1352250">
	<ele>1714.00</ele>
	<time>2024-09-06T07:20:14.000Z</time>
</trkpt>
<trkpt lat="46.1339300" lon="10.1352280">
	<ele>1714.40</ele>
	<time>2024-09-06T07:20:15.000Z</time>
</trkpt>
<trkpt lat="46.1339130" lon="10.1352200">
	<ele>1714.40</ele>
	<time>2024-09-06T07:20:16.000Z</time>
</trkpt>
<trkpt lat="46.1338930" lon="10.1352090">
	<ele>1714.60</ele>
	<time>2024-09-06T07:20:17.000Z</time>
</trkpt>
<trkpt lat="46.1338750" lon="10.1352010">
	<ele>1714.80</ele>
	<time>2024-09-06T07:20:18.000Z</time>
</trkpt>
<trkpt lat="46.1338560" lon="10.1351900">
	<ele>1714.80</ele>
	<time>2024-09-06T07:20:19.000Z</time>
</trkpt>
<trkpt lat="46.1338430" lon="10.1351910">
	<ele>1714.80</ele>
	<time>2024-09-06T07:20:20.000Z</time>
</trkpt>
<trkpt lat="46.1338340" lon="10.1351950">
	<ele>1715.00</ele>
	<time>2024-09-06T07:20:21.000Z</time>
</trkpt>
<trkpt lat="46.1338240" lon="10.1351980">
	<ele>1715.00</ele>
	<time>2024-09-06T07:20:22.000Z</time>
</trkpt>
<trkpt lat="46.1338080" lon="10.1352010">
	<ele>1715.00</ele>
	<time>2024-09-06T07:20:23.000Z</time>
</trkpt>
<trkpt lat="46.1337960" lon="10.1352070">
	<ele>1715.20</ele>
	<time>2024-09-06T07:20:24.000Z</time>
</trkpt>
<trkpt lat="46.1337840" lon="10.1352180">
	<ele>1715.40</ele>
	<time>2024-09-06T07:20:25.000Z</time>
</trkpt>
<trkpt lat="46.1337740" lon="10.1352270">
	<ele>1715.40</ele>
	<time>2024-09-06T07:20:26.000Z</time>
</trkpt>
<trkpt lat="46.1337620" lon="10.1352420">
	<ele>1715.60</ele>
	<time>2024-09-06T07:20:27.000Z</time>
</trkpt>
<trkpt lat="46.1337470" lon="10.1352320">
	<ele>1715.60</ele>
	<time>2024-09-06T07:20:28.000Z</time>
</trkpt>
<trkpt lat="46.1337320" lon="10.1352280">
	<ele>1715.60</ele>
	<time>2024-09-06T07:20:29.000Z</time>
</trkpt>
<trkpt lat="46.1337180" lon="10.1352240">
	<ele>1715.80</ele>
	<time>2024-09-06T07:20:30.000Z</time>
</trkpt>
<trkpt lat="46.1337020" lon="10.1352290">
	<ele>1715.80</ele>
	<time>2024-09-06T07:20:31.000Z</time>
</trkpt>
<trkpt lat="46.1336810" lon="10.1352240">
	<ele>1715.80</ele>
	<time>2024-09-06T07:20:32.000Z</time>
</trkpt>
<trkpt lat="46.1336690" lon="10.1352260">
	<ele>1716.00</ele>
	<time>2024-09-06T07:20:33.000Z</time>
</trkpt>
<trkpt lat="46.1336540" lon="10.1352250">
	<ele>1716.00</ele>
	<time>2024-09-06T07:20:34.000Z</time>
</trkpt>
<trkpt lat="46.1336300" lon="10.1352180">
	<ele>1716.20</ele>
	<time>2024-09-06T07:20:35.000Z</time>
</trkpt>
<trkpt lat="46.1336160" lon="10.1352220">
	<ele>1716.20</ele>
	<time>2024-09-06T07:20:36.000Z</time>
</trkpt>
<trkpt lat="46.1336040" lon="10.1352110">
	<ele>1716.20</ele>
	<time>2024-09-06T07:20:37.000Z</time>
</trkpt>
<trkpt lat="46.1335930" lon="10.1351940">
	<ele>1716.40</ele>
	<time>2024-09-06T07:20:38.000Z</time>
</trkpt>
<trkpt lat="46.1335770" lon="10.1351960">
	<ele>1716.40</ele>
	<time>2024-09-06T07:20:39.000Z</time>
</trkpt>
<trkpt lat="46.1335650" lon="10.1352020">
	<ele>1716.60</ele>
	<time>2024-09-06T07:20:40.000Z</time>
</trkpt>
<trkpt lat="46.1335480" lon="10.1352090">
	<ele>1716.60</ele>
	<time>2024-09-06T07:20:41.000Z</time>
</trkpt>
<trkpt lat="46.1335340" lon="10.1352210">
	<ele>1716.60</ele>
	<time>2024-09-06T07:20:42.000Z</time>
</trkpt>
<trkpt lat="46.1335200" lon="10.1352280">
	<ele>1716.60</ele>
	<time>2024-09-06T07:20:43.000Z</time>
</trkpt>
<trkpt lat="46.1335040" lon="10.1352200">
	<ele>1716.60</ele>
	<time>2024-09-06T07:20:44.000Z</time>
</trkpt>
<trkpt lat="46.1334930" lon="10.1352180">
	<ele>1716.80</ele>
	<time>2024-09-06T07:20:45.000Z</time>
</trkpt>
<trkpt lat="46.1334790" lon="10.1352170">
	<ele>1716.80</ele>
	<time>2024-09-06T07:20:46.000Z</time>
</trkpt>
<trkpt lat="46.1334700" lon="10.1352270">
	<ele>1716.80</ele>
	<time>2024-09-06T07:20:47.000Z</time>
</trkpt>
<trkpt lat="46.1334590" lon="10.1352360">
	<ele>1716.80</ele>
	<time>2024-09-06T07:20:48.000Z</time>
</trkpt>
<trkpt lat="46.1334450" lon="10.1352450">
	<ele>1716.80</ele>
	<time>2024-09-06T07:20:49.000Z</time>
</trkpt>
<trkpt lat="46.1334350" lon="10.1352520">
	<ele>1717.00</ele>
	<time>2024-09-06T07:20:50.000Z</time>
</trkpt>
<trkpt lat="46.1334230" lon="10.1352400">
	<ele>1717.00</ele>
	<time>2024-09-06T07:20:51.000Z</time>
</trkpt>
<trkpt lat="46.1334130" lon="10.1352310">
	<ele>1717.00</ele>
	<time>2024-09-06T07:20:52.000Z</time>
</trkpt>
<trkpt lat="46.1334020" lon="10.1352310">
	<ele>1717.20</ele>
	<time>2024-09-06T07:20:53.000Z</time>
</trkpt>
<trkpt lat="46.1333920" lon="10.1352250">
	<ele>1717.40</ele>
	<time>2024-09-06T07:20:54.000Z</time>
</trkpt>
<trkpt lat="46.1333800" lon="10.1352180">
	<ele>1717.40</ele>
	<time>2024-09-06T07:20:55.000Z</time>
</trkpt>
<trkpt lat="46.1333710" lon="10.1352180">
	<ele>1717.60</ele>
	<time>2024-09-06T07:20:56.000Z</time>
</trkpt>
<trkpt lat="46.1333680" lon="10.1352180">
	<ele>1717.60</ele>
	<time>2024-09-06T07:20:57.000Z</time>
</trkpt>
<trkpt lat="46.1333670" lon="10.1352270">
	<ele>1717.80</ele>
	<time>2024-09-06T07:20:58.000Z</time>
</trkpt>
<trkpt lat="46.1333640" lon="10.1352370">
	<ele>1717.80</ele>
	<time>2024-09-06T07:20:59.000Z</time>
</trkpt>
<trkpt lat="46.1333580" lon="10.1352460">
	<ele>1717.60</ele>
	<time>2024-09-06T07:21:00.000Z</time>
</trkpt>
<trkpt lat="46.1333550" lon="10.1352640">
	<ele>1717.60</ele>
	<time>2024-09-06T07:21:01.000Z</time>
</trkpt>
<trkpt lat="46.1333500" lon="10.1352850">
	<ele>1717.60</ele>
	<time>2024-09-06T07:21:02.000Z</time>
</trkpt>
<trkpt lat="46.1333490" lon="10.1352940">
	<ele>1717.80</ele>
	<time>2024-09-06T07:21:03.000Z</time>
</trkpt>
<trkpt lat="46.1333450" lon="10.1352980">
	<ele>1717.80</ele>
	<time>2024-09-06T07:21:04.000Z</time>
</trkpt>
<trkpt lat="46.1333430" lon="10.1352940">
	<ele>1717.80</ele>
	<time>2024-09-06T07:21:05.000Z</time>
</trkpt>
<trkpt lat="46.1333440" lon="10.1352970">
	<ele>1717.80</ele>
	<time>2024-09-06T07:21:06.000Z</time>
</trkpt>
<trkpt lat="46.1333400" lon="10.1352940">
	<ele>1718.00</ele>
	<time>2024-09-06T07:21:07.000Z</time>
</trkpt>
<trkpt lat="46.1333370" lon="10.1352920">
	<ele>1718.00</ele>
	<time>2024-09-06T07:21:08.000Z</time>
</trkpt>
<trkpt lat="46.1333340" lon="10.1352810">
	<ele>1718.00</ele>
	<time>2024-09-06T07:21:09.000Z</time>
</trkpt>
<trkpt lat="46.1333340" lon="10.1352750">
	<ele>1717.80</ele>
	<time>2024-09-06T07:21:10.000Z</time>
</trkpt>
<trkpt lat="46.1333330" lon="10.1352700">
	<ele>1717.80</ele>
	<time>2024-09-06T07:21:11.000Z</time>
</trkpt>
<trkpt lat="46.1333330" lon="10.1352650">
	<ele>1717.80</ele>
	<time>2024-09-06T07:21:12.000Z</time>
</trkpt>
<trkpt lat="46.1333340" lon="10.1352650">
	<ele>1717.80</ele>
	<time>2024-09-06T07:21:13.000Z</time>
</trkpt>
<trkpt lat="46.1333340" lon="10.1352660">
	<ele>1717.80</ele>
	<time>2024-09-06T07:21:14.000Z</time>
</trkpt>
<trkpt lat="46.1333340" lon="10.1352640">
	<ele>1717.80</ele>
	<time>2024-09-06T07:21:15.000Z</time>
</trkpt>
<trkpt lat="46.1333350" lon="10.1352650">
	<ele>1717.80</ele>
	<time>2024-09-06T07:21:16.000Z</time>
</trkpt>
<trkpt lat="46.1333330" lon="10.1352700">
	<ele>1717.80</ele>
	<time>2024-09-06T07:21:17.000Z</time>
</trkpt>
<trkpt lat="46.1333300" lon="10.1352770">
	<ele>1718.00</ele>
	<time>2024-09-06T07:21:18.000Z</time>
</trkpt>
<trkpt lat="46.1333230" lon="10.1352830">
	<ele>1718.00</ele>
	<time>2024-09-06T07:21:19.000Z</time>
</trkpt>
<trkpt lat="46.1333180" lon="10.1352840">
	<ele>1718.00</ele>
	<time>2024-09-06T07:21:20.000Z</time>
</trkpt>
<trkpt lat="46.1333120" lon="10.1352920">
	<ele>1718.20</ele>
	<time>2024-09-06T07:21:21.000Z</time>
</trkpt>
<trkpt lat="46.1333040" lon="10.1353040">
	<ele>1718.40</ele>
	<time>2024-09-06T07:21:22.000Z</time>
</trkpt>
<trkpt lat="46.1333040" lon="10.1353090">
	<ele>1718.40</ele>
	<time>2024-09-06T07:21:23.000Z</time>
</trkpt>
<trkpt lat="46.1333030" lon="10.1353180">
	<ele>1718.60</ele>
	<time>2024-09-06T07:21:24.000Z</time>
</trkpt>
<trkpt lat="46.1332990" lon="10.1353270">
	<ele>1719.00</ele>
	<time>2024-09-06T07:21:25.000Z</time>
</trkpt>
<trkpt lat="46.1332980" lon="10.1353290">
	<ele>1719.20</ele>
	<time>2024-09-06T07:21:26.000Z</time>
</trkpt>
<trkpt lat="46.1332920" lon="10.1353330">
	<ele>1719.20</ele>
	<time>2024-09-06T07:21:27.000Z</time>
</trkpt>
<trkpt lat="46.1332840" lon="10.1353390">
	<ele>1719.40</ele>
	<time>2024-09-06T07:21:28.000Z</time>
</trkpt>
<trkpt lat="46.1332780" lon="10.1353430">
	<ele>1719.60</ele>
	<time>2024-09-06T07:21:29.000Z</time>
</trkpt>
<trkpt lat="46.1332760" lon="10.1353470">
	<ele>1719.60</ele>
	<time>2024-09-06T07:21:30.000Z</time>
</trkpt>
<trkpt lat="46.1332780" lon="10.1353530">
	<ele>1719.60</ele>
	<time>2024-09-06T07:21:31.000Z</time>
</trkpt>
<trkpt lat="46.1332760" lon="10.1353620">
	<ele>1720.00</ele>
	<time>2024-09-06T07:21:32.000Z</time>
</trkpt>
<trkpt lat="46.1332750" lon="10.1353670">
	<ele>1720.20</ele>
	<time>2024-09-06T07:21:33.000Z</time>
</trkpt>
<trkpt lat="46.1332710" lon="10.1353740">
	<ele>1720.40</ele>
	<time>2024-09-06T07:21:34.000Z</time>
</trkpt>
<trkpt lat="46.1332650" lon="10.1353790">
	<ele>1720.60</ele>
	<time>2024-09-06T07:21:35.000Z</time>
</trkpt>
<trkpt lat="46.1332590" lon="10.1353830">
	<ele>1720.80</ele>
	<time>2024-09-06T07:21:36.000Z</time>
</trkpt>
<trkpt lat="46.1332530" lon="10.1353910">
	<ele>1720.80</ele>
	<time>2024-09-06T07:21:37.000Z</time>
</trkpt>
<trkpt lat="46.1332460" lon="10.1353930">
	<ele>1720.80</ele>
	<time>2024-09-06T07:21:38.000Z</time>
</trkpt>
<trkpt lat="46.1332430" lon="10.1353950">
	<ele>1720.80</ele>
	<time>2024-09-06T07:21:39.000Z</time>
</trkpt>
<trkpt lat="46.1332380" lon="10.1353950">
	<ele>1721.00</ele>
	<time>2024-09-06T07:21:40.000Z</time>
</trkpt>
<trkpt lat="46.1332330" lon="10.1354050">
	<ele>1721.20</ele>
	<time>2024-09-06T07:21:41.000Z</time>
</trkpt>
<trkpt lat="46.1332290" lon="10.1354110">
	<ele>1721.20</ele>
	<time>2024-09-06T07:21:42.000Z</time>
</trkpt>
<trkpt lat="46.1332240" lon="10.1354100">
	<ele>1721.40</ele>
	<time>2024-09-06T07:21:43.000Z</time>
</trkpt>
<trkpt lat="46.1332190" lon="10.1354170">
	<ele>1721.60</ele>
	<time>2024-09-06T07:21:44.000Z</time>
</trkpt>
<trkpt lat="46.1332140" lon="10.1354220">
	<ele>1721.60</ele>
	<time>2024-09-06T07:21:45.000Z</time>
</trkpt>
<trkpt lat="46.1332120" lon="10.1354250">
	<ele>1721.80</ele>
	<time>2024-09-06T07:21:46.000Z</time>
</trkpt>
<trkpt lat="46.1332090" lon="10.1354250">
	<ele>1722.00</ele>
	<time>2024-09-06T07:21:47.000Z</time>
</trkpt>
<trkpt lat="46.1332080" lon="10.1354210">
	<ele>1722.00</ele>
	<time>2024-09-06T07:21:48.000Z</time>
</trkpt>
<trkpt lat="46.1332060" lon="10.1354220">
	<ele>1722.40</ele>
	<time>2024-09-06T07:21:49.000Z</time>
</trkpt>
<trkpt lat="46.1332060" lon="10.1354190">
	<ele>1722.80</ele>
	<time>2024-09-06T07:21:50.000Z</time>
</trkpt>
<trkpt lat="46.1332040" lon="10.1354230">
	<ele>1723.00</ele>
	<time>2024-09-06T07:21:51.000Z</time>
</trkpt>
<trkpt lat="46.1332040" lon="10.1354300">
	<ele>1723.20</ele>
	<time>2024-09-06T07:21:52.000Z</time>
</trkpt>
<trkpt lat="46.1332050" lon="10.1354370">
	<ele>1723.40</ele>
	<time>2024-09-06T07:21:53.000Z</time>
</trkpt>
<trkpt lat="46.1332040" lon="10.1354490">
	<ele>1723.60</ele>
	<time>2024-09-06T07:21:54.000Z</time>
</trkpt>
<trkpt lat="46.1331990" lon="10.1354510">
	<ele>1723.80</ele>
	<time>2024-09-06T07:21:55.000Z</time>
</trkpt>
<trkpt lat="46.1331960" lon="10.1354520">
	<ele>1723.80</ele>
	<time>2024-09-06T07:21:56.000Z</time>
</trkpt>
<trkpt lat="46.1331930" lon="10.1354520">
	<ele>1724.00</ele>
	<time>2024-09-06T07:21:57.000Z</time>
</trkpt>
<trkpt lat="46.1331910" lon="10.1354550">
	<ele>1724.20</ele>
	<time>2024-09-06T07:21:58.000Z</time>
</trkpt>
<trkpt lat="46.1331910" lon="10.1354570">
	<ele>1724.20</ele>
	<time>2024-09-06T07:21:59.000Z</time>
</trkpt>
<trkpt lat="46.1331900" lon="10.1354570">
	<ele>1724.60</ele>
	<time>2024-09-06T07:22:00.000Z</time>
</trkpt>
<trkpt lat="46.1331870" lon="10.1354570">
	<ele>1724.80</ele>
	<time>2024-09-06T07:22:01.000Z</time>
</trkpt>
<trkpt lat="46.1331830" lon="10.1354610">
	<ele>1725.00</ele>
	<time>2024-09-06T07:22:02.000Z</time>
</trkpt>
<trkpt lat="46.1331800" lon="10.1354630">
	<ele>1725.00</ele>
	<time>2024-09-06T07:22:03.000Z</time>
</trkpt>
<trkpt lat="46.1331750" lon="10.1354710">
	<ele>1725.40</ele>
	<time>2024-09-06T07:22:04.000Z</time>
</trkpt>
<trkpt lat="46.1331700" lon="10.1354740">
	<ele>1725.60</ele>
	<time>2024-09-06T07:22:05.000Z</time>
</trkpt>
<trkpt lat="46.1331710" lon="10.1354850">
	<ele>1725.60</ele>
	<time>2024-09-06T07:22:06.000Z</time>
</trkpt>
<trkpt lat="46.1331660" lon="10.1354880">
	<ele>1725.80</ele>
	<time>2024-09-06T07:22:07.000Z</time>
</trkpt>
<trkpt lat="46.1331580" lon="10.1354900">
	<ele>1726.00</ele>
	<time>2024-09-06T07:22:08.000Z</time>
</trkpt>
<trkpt lat="46.1331450" lon="10.1355040">
	<ele>1726.00</ele>
	<time>2024-09-06T07:22:09.000Z</time>
</trkpt>
<trkpt lat="46.1331360" lon="10.1355170">
	<ele>1726.20</ele>
	<time>2024-09-06T07:22:10.000Z</time>
</trkpt>
<trkpt lat="46.1331250" lon="10.1355210">
	<ele>1726.20</ele>
	<time>2024-09-06T07:22:11.000Z</time>
</trkpt>
<trkpt lat="46.1331180" lon="10.1355280">
	<ele>1726.40</ele>
	<time>2024-09-06T07:22:12.000Z</time>
</trkpt>
<trkpt lat="46.1331090" lon="10.1355300">
	<ele>1726.80</ele>
	<time>2024-09-06T07:22:13.000Z</time>
</trkpt>
<trkpt lat="46.1331000" lon="10.1355340">
	<ele>1726.80</ele>
	<time>2024-09-06T07:22:14.000Z</time>
</trkpt>
<trkpt lat="46.1330940" lon="10.1355390">
	<ele>1727.00</ele>
	<time>2024-09-06T07:22:15.000Z</time>
</trkpt>
<trkpt lat="46.1330900" lon="10.1355420">
	<ele>1727.20</ele>
	<time>2024-09-06T07:22:16.000Z</time>
</trkpt>
<trkpt lat="46.1330870" lon="10.1355440">
	<ele>1727.40</ele>
	<time>2024-09-06T07:22:17.000Z</time>
</trkpt>
<trkpt lat="46.1330780" lon="10.1355460">
	<ele>1727.60</ele>
	<time>2024-09-06T07:22:18.000Z</time>
</trkpt>
<trkpt lat="46.1330650" lon="10.1355550">
	<ele>1727.80</ele>
	<time>2024-09-06T07:22:19.000Z</time>
</trkpt>
<trkpt lat="46.1330510" lon="10.1355630">
	<ele>1727.80</ele>
	<time>2024-09-06T07:22:20.000Z</time>
</trkpt>
<trkpt lat="46.1330440" lon="10.1355650">
	<ele>1727.80</ele>
	<time>2024-09-06T07:22:21.000Z</time>
</trkpt>
<trkpt lat="46.1330360" lon="10.1355650">
	<ele>1727.80</ele>
	<time>2024-09-06T07:22:22.000Z</time>
</trkpt>
<trkpt lat="46.1330290" lon="10.1355690">
	<ele>1728.00</ele>
	<time>2024-09-06T07:22:23.000Z</time>
</trkpt>
<trkpt lat="46.1330240" lon="10.1355770">
	<ele>1728.20</ele>
	<time>2024-09-06T07:22:24.000Z</time>
</trkpt>
<trkpt lat="46.1330180" lon="10.1355850">
	<ele>1728.40</ele>
	<time>2024-09-06T07:22:25.000Z</time>
</trkpt>
<trkpt lat="46.1330140" lon="10.1355930">
	<ele>1728.60</ele>
	<time>2024-09-06T07:22:26.000Z</time>
</trkpt>
<trkpt lat="46.1330110" lon="10.1355970">
	<ele>1728.60</ele>
	<time>2024-09-06T07:22:27.000Z</time>
</trkpt>
<trkpt lat="46.1330060" lon="10.1356040">
	<ele>1728.80</ele>
	<time>2024-09-06T07:22:28.000Z</time>
</trkpt>
<trkpt lat="46.1330020" lon="10.1356100">
	<ele>1729.00</ele>
	<time>2024-09-06T07:22:29.000Z</time>
</trkpt>
<trkpt lat="46.1329980" lon="10.1356140">
	<ele>1729.20</ele>
	<time>2024-09-06T07:22:30.000Z</time>
</trkpt>
<trkpt lat="46.1329970" lon="10.1356200">
	<ele>1729.40</ele>
	<time>2024-09-06T07:22:31.000Z</time>
</trkpt>
<trkpt lat="46.1329970" lon="10.1356220">
	<ele>1729.60</ele>
	<time>2024-09-06T07:22:32.000Z</time>
</trkpt>
<trkpt lat="46.1329950" lon="10.1356220">
	<ele>1729.60</ele>
	<time>2024-09-06T07:22:33.000Z</time>
</trkpt>
<trkpt lat="46.1329950" lon="10.1356230">
	<ele>1729.80</ele>
	<time>2024-09-06T07:22:34.000Z</time>
</trkpt>
<trkpt lat="46.1329940" lon="10.1356240">
	<ele>1729.80</ele>
	<time>2024-09-06T07:22:35.000Z</time>
</trkpt>
<trkpt lat="46.1329880" lon="10.1356190">
	<ele>1729.80</ele>
	<time>2024-09-06T07:22:36.000Z</time>
</trkpt>
<trkpt lat="46.1329870" lon="10.1356150">
	<ele>1729.80</ele>
	<time>2024-09-06T07:22:37.000Z</time>
</trkpt>
<trkpt lat="46.1329850" lon="10.1356130">
	<ele>1729.80</ele>
	<time>2024-09-06T07:22:38.000Z</time>
</trkpt>
<trkpt lat="46.1329850" lon="10.1356110">
	<ele>1730.00</ele>
	<time>2024-09-06T07:22:39.000Z</time>
</trkpt>
<trkpt lat="46.1329840" lon="10.1356090">
	<ele>1730.20</ele>
	<time>2024-09-06T07:22:40.000Z</time>
</trkpt>
<trkpt lat="46.1329840" lon="10.1356110">
	<ele>1730.20</ele>
	<time>2024-09-06T07:22:41.000Z</time>
</trkpt>
<trkpt lat="46.1329840" lon="10.1356140">
	<ele>1730.20</ele>
	<time>2024-09-06T07:22:42.000Z</time>
</trkpt>
<trkpt lat="46.1329790" lon="10.1356180">
	<ele>1730.40</ele>
	<time>2024-09-06T07:22:43.000Z</time>
</trkpt>
<trkpt lat="46.1329740" lon="10.1356240">
	<ele>1730.40</ele>
	<time>2024-09-06T07:22:44.000Z</time>
</trkpt>
<trkpt lat="46.1329670" lon="10.1356340">
	<ele>1730.40</ele>
	<time>2024-09-06T07:22:45.000Z</time>
</trkpt>
<trkpt lat="46.1329630" lon="10.1356430">
	<ele>1730.40</ele>
	<time>2024-09-06T07:22:46.000Z</time>
</trkpt>
<trkpt lat="46.1329530" lon="10.1356440">
	<ele>1730.40</ele>
	<time>2024-09-06T07:22:47.000Z</time>
</trkpt>
<trkpt lat="46.1329490" lon="10.1356400">
	<ele>1730.60</ele>
	<time>2024-09-06T07:22:48.000Z</time>
</trkpt>
<trkpt lat="46.1329420" lon="10.1356350">
	<ele>1730.80</ele>
	<time>2024-09-06T07:22:49.000Z</time>
</trkpt>
<trkpt lat="46.1329360" lon="10.1356390">
	<ele>1731.00</ele>
	<time>2024-09-06T07:22:50.000Z</time>
</trkpt>
<trkpt lat="46.1329360" lon="10.1356440">
	<ele>1731.40</ele>
	<time>2024-09-06T07:22:51.000Z</time>
</trkpt>
<trkpt lat="46.1329340" lon="10.1356490">
	<ele>1731.40</ele>
	<time>2024-09-06T07:22:52.000Z</time>
</trkpt>
<trkpt lat="46.1329330" lon="10.1356520">
	<ele>1731.40</ele>
	<time>2024-09-06T07:22:53.000Z</time>
</trkpt>
<trkpt lat="46.1329330" lon="10.1356530">
	<ele>1731.60</ele>
	<time>2024-09-06T07:22:54.000Z</time>
</trkpt>
<trkpt lat="46.1329230" lon="10.1356600">
	<ele>1731.60</ele>
	<time>2024-09-06T07:22:55.000Z</time>
</trkpt>
<trkpt lat="46.1329240" lon="10.1356620">
	<ele>1731.40</ele>
	<time>2024-09-06T07:22:56.000Z</time>
</trkpt>
<trkpt lat="46.1329240" lon="10.1356640">
	<ele>1731.40</ele>
	<time>2024-09-06T07:22:57.000Z</time>
</trkpt>
<trkpt lat="46.1329240" lon="10.1356680">
	<ele>1731.40</ele>
	<time>2024-09-06T07:22:58.000Z</time>
</trkpt>
<trkpt lat="46.1329250" lon="10.1356750">
	<ele>1731.20</ele>
	<time>2024-09-06T07:22:59.000Z</time>
</trkpt>
<trkpt lat="46.1329310" lon="10.1356850">
	<ele>1731.20</ele>
	<time>2024-09-06T07:23:00.000Z</time>
</trkpt>
<trkpt lat="46.1329380" lon="10.1356970">
	<ele>1731.20</ele>
	<time>2024-09-06T07:23:01.000Z</time>
</trkpt>
<trkpt lat="46.1329490" lon="10.1357050">
	<ele>1731.20</ele>
	<time>2024-09-06T07:23:02.000Z</time>
</trkpt>
<trkpt lat="46.1329580" lon="10.1357010">
	<ele>1731.20</ele>
	<time>2024-09-06T07:23:03.000Z</time>
</trkpt>
<trkpt lat="46.1329710" lon="10.1356910">
	<ele>1731.20</ele>
	<time>2024-09-06T07:23:04.000Z</time>
</trkpt>
<trkpt lat="46.1329780" lon="10.1356890">
	<ele>1731.40</ele>
	<time>2024-09-06T07:23:05.000Z</time>
</trkpt>
<trkpt lat="46.1329830" lon="10.1356880">
	<ele>1731.40</ele>
	<time>2024-09-06T07:23:06.000Z</time>
</trkpt>
<trkpt lat="46.1329870" lon="10.1356920">
	<ele>1731.60</ele>
	<time>2024-09-06T07:23:07.000Z</time>
</trkpt>
<trkpt lat="46.1329920" lon="10.1357000">
	<ele>1731.60</ele>
	<time>2024-09-06T07:23:08.000Z</time>
</trkpt>
<trkpt lat="46.1329940" lon="10.1357080">
	<ele>1731.80</ele>
	<time>2024-09-06T07:23:09.000Z</time>
</trkpt>
<trkpt lat="46.1329990" lon="10.1357160">
	<ele>1732.00</ele>
	<time>2024-09-06T07:23:10.000Z</time>
</trkpt>
<trkpt lat="46.1330040" lon="10.1357240">
	<ele>1732.20</ele>
	<time>2024-09-06T07:23:11.000Z</time>
</trkpt>
<trkpt lat="46.1330070" lon="10.1357280">
	<ele>1732.40</ele>
	<time>2024-09-06T07:23:12.000Z</time>
</trkpt>
<trkpt lat="46.1330110" lon="10.1357310">
	<ele>1732.60</ele>
	<time>2024-09-06T07:23:13.000Z</time>
</trkpt>
<trkpt lat="46.1330230" lon="10.1357290">
	<ele>1732.80</ele>
	<time>2024-09-06T07:23:14.000Z</time>
</trkpt>
<trkpt lat="46.1330240" lon="10.1357390">
	<ele>1733.00</ele>
	<time>2024-09-06T07:23:15.000Z</time>
</trkpt>
<trkpt lat="46.1330240" lon="10.1357460">
	<ele>1733.00</ele>
	<time>2024-09-06T07:23:16.000Z</time>
</trkpt>
<trkpt lat="46.1330270" lon="10.1357500">
	<ele>1733.20</ele>
	<time>2024-09-06T07:23:17.000Z</time>
</trkpt>
<trkpt lat="46.1330300" lon="10.1357530">
	<ele>1733.40</ele>
	<time>2024-09-06T07:23:18.000Z</time>
</trkpt>
<trkpt lat="46.1330310" lon="10.1357580">
	<ele>1733.40</ele>
	<time>2024-09-06T07:23:19.000Z</time>
</trkpt>
<trkpt lat="46.1330310" lon="10.1357620">
	<ele>1733.60</ele>
	<time>2024-09-06T07:23:20.000Z</time>
</trkpt>
<trkpt lat="46.1330280" lon="10.1357680">
	<ele>1733.80</ele>
	<time>2024-09-06T07:23:21.000Z</time>
</trkpt>
<trkpt lat="46.1330220" lon="10.1357750">
	<ele>1734.00</ele>
	<time>2024-09-06T07:23:22.000Z</time>
</trkpt>
<trkpt lat="46.1330210" lon="10.1357830">
	<ele>1734.20</ele>
	<time>2024-09-06T07:23:23.000Z</time>
</trkpt>
<trkpt lat="46.1330160" lon="10.1357950">
	<ele>1734.40</ele>
	<time>2024-09-06T07:23:24.000Z</time>
</trkpt>
<trkpt lat="46.1330170" lon="10.1358010">
	<ele>1734.60</ele>
	<time>2024-09-06T07:23:25.000Z</time>
</trkpt>
<trkpt lat="46.1330220" lon="10.1358140">
	<ele>1734.80</ele>
	<time>2024-09-06T07:23:26.000Z</time>
</trkpt>
<trkpt lat="46.1330250" lon="10.1358210">
	<ele>1734.80</ele>
	<time>2024-09-06T07:23:27.000Z</time>
</trkpt>
<trkpt lat="46.1330330" lon="10.1358350">
	<ele>1735.00</ele>
	<time>2024-09-06T07:23:28.000Z</time>
</trkpt>
<trkpt lat="46.1330330" lon="10.1358480">
	<ele>1735.00</ele>
	<time>2024-09-06T07:23:29.000Z</time>
</trkpt>
<trkpt lat="46.1330350" lon="10.1358600">
	<ele>1735.20</ele>
	<time>2024-09-06T07:23:30.000Z</time>
</trkpt>
<trkpt lat="46.1330400" lon="10.1358730">
	<ele>1735.20</ele>
	<time>2024-09-06T07:23:31.000Z</time>
</trkpt>
<trkpt lat="46.1330460" lon="10.1358920">
	<ele>1735.40</ele>
	<time>2024-09-06T07:23:32.000Z</time>
</trkpt>
<trkpt lat="46.1330540" lon="10.1358990">
	<ele>1735.60</ele>
	<time>2024-09-06T07:23:33.000Z</time>
</trkpt>
<trkpt lat="46.1330540" lon="10.1359040">
	<ele>1735.80</ele>
	<time>2024-09-06T07:23:34.000Z</time>
</trkpt>
<trkpt lat="46.1330600" lon="10.1359080">
	<ele>1736.00</ele>
	<time>2024-09-06T07:23:35.000Z</time>
</trkpt>
<trkpt lat="46.1330700" lon="10.1359070">
	<ele>1736.20</ele>
	<time>2024-09-06T07:23:36.000Z</time>
</trkpt>
<trkpt lat="46.1330680" lon="10.1359180">
	<ele>1736.40</ele>
	<time>2024-09-06T07:23:37.000Z</time>
</trkpt>
<trkpt lat="46.1330710" lon="10.1359270">
	<ele>1736.60</ele>
	<time>2024-09-06T07:23:38.000Z</time>
</trkpt>
<trkpt lat="46.1330730" lon="10.1359380">
	<ele>1736.60</ele>
	<time>2024-09-06T07:23:39.000Z</time>
</trkpt>
<trkpt lat="46.1330770" lon="10.1359430">
	<ele>1737.00</ele>
	<time>2024-09-06T07:23:40.000Z</time>
</trkpt>
<trkpt lat="46.1330820" lon="10.1359480">
	<ele>1737.20</ele>
	<time>2024-09-06T07:23:41.000Z</time>
</trkpt>
<trkpt lat="46.1330870" lon="10.1359510">
	<ele>1737.40</ele>
	<time>2024-09-06T07:23:42.000Z</time>
</trkpt>
<trkpt lat="46.1330910" lon="10.1359560">
	<ele>1737.40</ele>
	<time>2024-09-06T07:23:43.000Z</time>
</trkpt>
<trkpt lat="46.1330960" lon="10.1359670">
	<ele>1737.60</ele>
	<time>2024-09-06T07:23:44.000Z</time>
</trkpt>
<trkpt lat="46.1331030" lon="10.1359700">
	<ele>1737.60</ele>
	<time>2024-09-06T07:23:45.000Z</time>
</trkpt>
<trkpt lat="46.1331090" lon="10.1359680">
	<ele>1737.80</ele>
	<time>2024-09-06T07:23:46.000Z</time>
</trkpt>
<trkpt lat="46.1331110" lon="10.1359630">
	<ele>1738.00</ele>
	<time>2024-09-06T07:23:47.000Z</time>
</trkpt>
<trkpt lat="46.1331140" lon="10.1359620">
	<ele>1738.20</ele>
	<time>2024-09-06T07:23:48.000Z</time>
</trkpt>
<trkpt lat="46.1331180" lon="10.1359580">
	<ele>1738.20</ele>
	<time>2024-09-06T07:23:49.000Z</time>
</trkpt>
<trkpt lat="46.1331240" lon="10.1359540">
	<ele>1738.40</ele>
	<time>2024-09-06T07:23:50.000Z</time>
</trkpt>
<trkpt lat="46.1331310" lon="10.1359520">
	<ele>1738.60</ele>
	<time>2024-09-06T07:23:51.000Z</time>
</trkpt>
<trkpt lat="46.1331350" lon="10.1359520">
	<ele>1738.60</ele>
	<time>2024-09-06T07:23:52.000Z</time>
</trkpt>
<trkpt lat="46.1331370" lon="10.1359510">
	<ele>1738.80</ele>
	<time>2024-09-06T07:23:53.000Z</time>
</trkpt>
<trkpt lat="46.1331430" lon="10.1359570">
	<ele>1739.00</ele>
	<time>2024-09-06T07:23:54.000Z</time>
</trkpt>
<trkpt lat="46.1331490" lon="10.1359660">
	<ele>1739.00</ele>
	<time>2024-09-06T07:23:55.000Z</time>
</trkpt>
<trkpt lat="46.1331540" lon="10.1359730">
	<ele>1739.20</ele>
	<time>2024-09-06T07:23:56.000Z</time>
</trkpt>
<trkpt lat="46.1331570" lon="10.1359740">
	<ele>1739.60</ele>
	<time>2024-09-06T07:23:57.000Z</time>
</trkpt>
<trkpt lat="46.1331610" lon="10.1359780">
	<ele>1739.80</ele>
	<time>2024-09-06T07:23:58.000Z</time>
</trkpt>
<trkpt lat="46.1331660" lon="10.1359790">
	<ele>1739.80</ele>
	<time>2024-09-06T07:23:59.000Z</time>
</trkpt>
<trkpt lat="46.1331740" lon="10.1359730">
	<ele>1739.80</ele>
	<time>2024-09-06T07:24:00.000Z</time>
</trkpt>
<trkpt lat="46.1331760" lon="10.1359700">
	<ele>1740.00</ele>
	<time>2024-09-06T07:24:01.000Z</time>
</trkpt>
<trkpt lat="46.1331790" lon="10.1359640">
	<ele>1740.20</ele>
	<time>2024-09-06T07:24:02.000Z</time>
</trkpt>
<trkpt lat="46.1331820" lon="10.1359610">
	<ele>1740.20</ele>
	<time>2024-09-06T07:24:03.000Z</time>
</trkpt>
<trkpt lat="46.1331890" lon="10.1359630">
	<ele>1740.40</ele>
	<time>2024-09-06T07:24:04.000Z</time>
</trkpt>
<trkpt lat="46.1331960" lon="10.1359640">
	<ele>1740.40</ele>
	<time>2024-09-06T07:24:05.000Z</time>
</trkpt>
<trkpt lat="46.1332000" lon="10.1359640">
	<ele>1740.60</ele>
	<time>2024-09-06T07:24:06.000Z</time>
</trkpt>
<trkpt lat="46.1332070" lon="10.1359590">
	<ele>1740.60</ele>
	<time>2024-09-06T07:24:07.000Z</time>
</trkpt>
<trkpt lat="46.1332110" lon="10.1359520">
	<ele>1740.80</ele>
	<time>2024-09-06T07:24:08.000Z</time>
</trkpt>
<trkpt lat="46.1332210" lon="10.1359490">
	<ele>1741.00</ele>
	<time>2024-09-06T07:24:09.000Z</time>
</trkpt>
<trkpt lat="46.1332270" lon="10.1359470">
	<ele>1741.00</ele>
	<time>2024-09-06T07:24:10.000Z</time>
</trkpt>
<trkpt lat="46.1332290" lon="10.1359430">
	<ele>1741.20</ele>
	<time>2024-09-06T07:24:11.000Z</time>
</trkpt>
<trkpt lat="46.1332390" lon="10.1359380">
	<ele>1741.20</ele>
	<time>2024-09-06T07:24:12.000Z</time>
</trkpt>
<trkpt lat="46.1332470" lon="10.1359330">
	<ele>1741.20</ele>
	<time>2024-09-06T07:24:13.000Z</time>
</trkpt>
<trkpt lat="46.1332510" lon="10.1359270">
	<ele>1741.40</ele>
	<time>2024-09-06T07:24:14.000Z</time>
</trkpt>
<trkpt lat="46.1332500" lon="10.1359190">
	<ele>1741.60</ele>
	<time>2024-09-06T07:24:15.000Z</time>
</trkpt>
<trkpt lat="46.1332490" lon="10.1359130">
	<ele>1741.80</ele>
	<time>2024-09-06T07:24:16.000Z</time>
</trkpt>
<trkpt lat="46.1332490" lon="10.1359130">
	<ele>1742.00</ele>
	<time>2024-09-06T07:24:17.000Z</time>
</trkpt>
<trkpt lat="46.1332550" lon="10.1359090">
	<ele>1742.20</ele>
	<time>2024-09-06T07:24:18.000Z</time>
</trkpt>
<trkpt lat="46.1332620" lon="10.1359060">
	<ele>1742.40</ele>
	<time>2024-09-06T07:24:19.000Z</time>
</trkpt>
<trkpt lat="46.1332740" lon="10.1359100">
	<ele>1742.60</ele>
	<time>2024-09-06T07:24:20.000Z</time>
</trkpt>
<trkpt lat="46.1332780" lon="10.1359080">
	<ele>1742.60</ele>
	<time>2024-09-06T07:24:21.000Z</time>
</trkpt>
<trkpt lat="46.1332850" lon="10.1359120">
	<ele>1742.80</ele>
	<time>2024-09-06T07:24:22.000Z</time>
</trkpt>
<trkpt lat="46.1332910" lon="10.1359170">
	<ele>1742.80</ele>
	<time>2024-09-06T07:24:23.000Z</time>
</trkpt>
<trkpt lat="46.1332970" lon="10.1359240">
	<ele>1743.00</ele>
	<time>2024-09-06T07:24:24.000Z</time>
</trkpt>
<trkpt lat="46.1333030" lon="10.1359280">
	<ele>1743.00</ele>
	<time>2024-09-06T07:24:25.000Z</time>
</trkpt>
<trkpt lat="46.1333030" lon="10.1359350">
	<ele>1743.20</ele>
	<time>2024-09-06T07:24:26.000Z</time>
</trkpt>
<trkpt lat="46.1333110" lon="10.1359400">
	<ele>1743.20</ele>
	<time>2024-09-06T07:24:27.000Z</time>
</trkpt>
<trkpt lat="46.1333160" lon="10.1359460">
	<ele>1743.40</ele>
	<time>2024-09-06T07:24:28.000Z</time>
</trkpt>
<trkpt lat="46.1333220" lon="10.1359530">
	<ele>1743.60</ele>
	<time>2024-09-06T07:24:29.000Z</time>
</trkpt>
<trkpt lat="46.1333300" lon="10.1359530">
	<ele>1743.80</ele>
	<time>2024-09-06T07:24:30.000Z</time>
</trkpt>
<trkpt lat="46.1333320" lon="10.1359600">
	<ele>1744.00</ele>
	<time>2024-09-06T07:24:31.000Z</time>
</trkpt>
<trkpt lat="46.1333370" lon="10.1359560">
	<ele>1744.20</ele>
	<time>2024-09-06T07:24:32.000Z</time>
</trkpt>
<trkpt lat="46.1333410" lon="10.1359630">
	<ele>1744.20</ele>
	<time>2024-09-06T07:24:33.000Z</time>
</trkpt>
<trkpt lat="46.1333450" lon="10.1359630">
	<ele>1744.40</ele>
	<time>2024-09-06T07:24:34.000Z</time>
</trkpt>
<trkpt lat="46.1333430" lon="10.1359780">
	<ele>1744.40</ele>
	<time>2024-09-06T07:24:35.000Z</time>
</trkpt>
<trkpt lat="46.1333380" lon="10.1359910">
	<ele>1744.60</ele>
	<time>2024-09-06T07:24:36.000Z</time>
</trkpt>
<trkpt lat="46.1333370" lon="10.1359970">
	<ele>1744.60</ele>
	<time>2024-09-06T07:24:37.000Z</time>
</trkpt>
<trkpt lat="46.1333440" lon="10.1360170">
	<ele>1744.60</ele>
	<time>2024-09-06T07:24:38.000Z</time>
</trkpt>
<trkpt lat="46.1333510" lon="10.1360360">
	<ele>1744.80</ele>
	<time>2024-09-06T07:24:39.000Z</time>
</trkpt>
<trkpt lat="46.1333570" lon="10.1360520">
	<ele>1745.00</ele>
	<time>2024-09-06T07:24:40.000Z</time>
</trkpt>
<trkpt lat="46.1333650" lon="10.1360660">
	<ele>1745.00</ele>
	<time>2024-09-06T07:24:41.000Z</time>
</trkpt>
<trkpt lat="46.1333760" lon="10.1360670">
	<ele>1745.20</ele>
	<time>2024-09-06T07:24:42.000Z</time>
</trkpt>
<trkpt lat="46.1333840" lon="10.1360700">
	<ele>1745.20</ele>
	<time>2024-09-06T07:24:43.000Z</time>
</trkpt>
<trkpt lat="46.1333890" lon="10.1360710">
	<ele>1745.40</ele>
	<time>2024-09-06T07:24:44.000Z</time>
</trkpt>
<trkpt lat="46.1334010" lon="10.1360720">
	<ele>1745.60</ele>
	<time>2024-09-06T07:24:45.000Z</time>
</trkpt>
<trkpt lat="46.1334150" lon="10.1360820">
	<ele>1745.80</ele>
	<time>2024-09-06T07:24:46.000Z</time>
</trkpt>
<trkpt lat="46.1334290" lon="10.1360930">
	<ele>1745.80</ele>
	<time>2024-09-06T07:24:47.000Z</time>
</trkpt>
<trkpt lat="46.1334400" lon="10.1360980">
	<ele>1746.00</ele>
	<time>2024-09-06T07:24:48.000Z</time>
</trkpt>
<trkpt lat="46.1334480" lon="10.1360970">
	<ele>1746.20</ele>
	<time>2024-09-06T07:24:49.000Z</time>
</trkpt>
<trkpt lat="46.1334610" lon="10.1360840">
	<ele>1746.20</ele>
	<time>2024-09-06T07:24:50.000Z</time>
</trkpt>
<trkpt lat="46.1334780" lon="10.1360740">
	<ele>1746.40</ele>
	<time>2024-09-06T07:24:51.000Z</time>
</trkpt>
<trkpt lat="46.1334980" lon="10.1360620">
	<ele>1746.40</ele>
	<time>2024-09-06T07:24:52.000Z</time>
</trkpt>
<trkpt lat="46.1335090" lon="10.1360640">
	<ele>1746.60</ele>
	<time>2024-09-06T07:24:53.000Z</time>
</trkpt>
<trkpt lat="46.1335220" lon="10.1360700">
	<ele>1746.60</ele>
	<time>2024-09-06T07:24:54.000Z</time>
</trkpt>
<trkpt lat="46.1335320" lon="10.1360760">
	<ele>1746.40</ele>
	<time>2024-09-06T07:24:55.000Z</time>
</trkpt>
<trkpt lat="46.1335420" lon="10.1360740">
	<ele>1746.60</ele>
	<time>2024-09-06T07:24:56.000Z</time>
</trkpt>
<trkpt lat="46.1335500" lon="10.1360720">
	<ele>1746.60</ele>
	<time>2024-09-06T07:24:57.000Z</time>
</trkpt>
<trkpt lat="46.1335600" lon="10.1360700">
	<ele>1746.60</ele>
	<time>2024-09-06T07:24:58.000Z</time>
</trkpt>
<trkpt lat="46.1335700" lon="10.1360710">
	<ele>1746.60</ele>
	<time>2024-09-06T07:24:59.000Z</time>
</trkpt>
<trkpt lat="46.1335790" lon="10.1360730">
	<ele>1746.60</ele>
	<time>2024-09-06T07:25:00.000Z</time>
</trkpt>
<trkpt lat="46.1335870" lon="10.1360820">
	<ele>1746.60</ele>
	<time>2024-09-06T07:25:01.000Z</time>
</trkpt>
<trkpt lat="46.1335930" lon="10.1360890">
	<ele>1746.80</ele>
	<time>2024-09-06T07:25:02.000Z</time>
</trkpt>
<trkpt lat="46.1335970" lon="10.1360880">
	<ele>1747.00</ele>
	<time>2024-09-06T07:25:03.000Z</time>
</trkpt>
<trkpt lat="46.1336000" lon="10.1360860">
	<ele>1747.00</ele>
	<time>2024-09-06T07:25:04.000Z</time>
</trkpt>
<trkpt lat="46.1335990" lon="10.1360810">
	<ele>1747.20</ele>
	<time>2024-09-06T07:25:05.000Z</time>
</trkpt>
<trkpt lat="46.1336020" lon="10.1360760">
	<ele>1747.20</ele>
	<time>2024-09-06T07:25:06.000Z</time>
</trkpt>
<trkpt lat="46.1336050" lon="10.1360750">
	<ele>1747.40</ele>
	<time>2024-09-06T07:25:07.000Z</time>
</trkpt>
<trkpt lat="46.1336100" lon="10.1360690">
	<ele>1747.60</ele>
	<time>2024-09-06T07:25:08.000Z</time>
</trkpt>
<trkpt lat="46.1336150" lon="10.1360580">
	<ele>1747.60</ele>
	<time>2024-09-06T07:25:09.000Z</time>
</trkpt>
<trkpt lat="46.1336210" lon="10.1360510">
	<ele>1747.80</ele>
	<time>2024-09-06T07:25:10.000Z</time>
</trkpt>
<trkpt lat="46.1336280" lon="10.1360550">
	<ele>1748.00</ele>
	<time>2024-09-06T07:25:11.000Z</time>
</trkpt>
<trkpt lat="46.1336360" lon="10.1360600">
	<ele>1748.20</ele>
	<time>2024-09-06T07:25:12.000Z</time>
</trkpt>
<trkpt lat="46.1336410" lon="10.1360580">
	<ele>1748.40</ele>
	<time>2024-09-06T07:25:13.000Z</time>
</trkpt>
<trkpt lat="46.1336450" lon="10.1360570">
	<ele>1748.40</ele>
	<time>2024-09-06T07:25:14.000Z</time>
</trkpt>
<trkpt lat="46.1336510" lon="10.1360620">
	<ele>1748.60</ele>
	<time>2024-09-06T07:25:15.000Z</time>
</trkpt>
<trkpt lat="46.1336590" lon="10.1360550">
	<ele>1748.80</ele>
	<time>2024-09-06T07:25:16.000Z</time>
</trkpt>
<trkpt lat="46.1336630" lon="10.1360520">
	<ele>1748.80</ele>
	<time>2024-09-06T07:25:17.000Z</time>
</trkpt>
<trkpt lat="46.1336670" lon="10.1360420">
	<ele>1748.80</ele>
	<time>2024-09-06T07:25:18.000Z</time>
</trkpt>
<trkpt lat="46.1336740" lon="10.1360360">
	<ele>1749.00</ele>
	<time>2024-09-06T07:25:19.000Z</time>
</trkpt>
<trkpt lat="46.1336850" lon="10.1360310">
	<ele>1749.20</ele>
	<time>2024-09-06T07:25:20.000Z</time>
</trkpt>
<trkpt lat="46.1336900" lon="10.1360320">
	<ele>1749.20</ele>
	<time>2024-09-06T07:25:21.000Z</time>
</trkpt>
<trkpt lat="46.1336930" lon="10.1360500">
	<ele>1749.40</ele>
	<time>2024-09-06T07:25:22.000Z</time>
</trkpt>
<trkpt lat="46.1337030" lon="10.1360660">
	<ele>1749.60</ele>
	<time>2024-09-06T07:25:23.000Z</time>
</trkpt>
<trkpt lat="46.1337080" lon="10.1360640">
	<ele>1749.60</ele>
	<time>2024-09-06T07:25:24.000Z</time>
</trkpt>
<trkpt lat="46.1337150" lon="10.1360690">
	<ele>1749.80</ele>
	<time>2024-09-06T07:25:25.000Z</time>
</trkpt>
<trkpt lat="46.1337240" lon="10.1360640">
	<ele>1750.00</ele>
	<time>2024-09-06T07:25:26.000Z</time>
</trkpt>
<trkpt lat="46.1337310" lon="10.1360600">
	<ele>1750.00</ele>
	<time>2024-09-06T07:25:27.000Z</time>
</trkpt>
<trkpt lat="46.1337380" lon="10.1360640">
	<ele>1750.20</ele>
	<time>2024-09-06T07:25:28.000Z</time>
</trkpt>
<trkpt lat="46.1337460" lon="10.1360740">
	<ele>1750.20</ele>
	<time>2024-09-06T07:25:29.000Z</time>
</trkpt>
<trkpt lat="46.1337550" lon="10.1360880">
	<ele>1750.40</ele>
	<time>2024-09-06T07:25:30.000Z</time>
</trkpt>
<trkpt lat="46.1337650" lon="10.1361000">
	<ele>1750.40</ele>
	<time>2024-09-06T07:25:31.000Z</time>
</trkpt>
<trkpt lat="46.1337780" lon="10.1361060">
	<ele>1750.40</ele>
	<time>2024-09-06T07:25:32.000Z</time>
</trkpt>
<trkpt lat="46.1337820" lon="10.1361110">
	<ele>1750.60</ele>
	<time>2024-09-06T07:25:33.000Z</time>
</trkpt>
<trkpt lat="46.1337850" lon="10.1361140">
	<ele>1750.80</ele>
	<time>2024-09-06T07:25:34.000Z</time>
</trkpt>
<trkpt lat="46.1337880" lon="10.1361170">
	<ele>1750.80</ele>
	<time>2024-09-06T07:25:35.000Z</time>
</trkpt>
<trkpt lat="46.1337970" lon="10.1361190">
	<ele>1751.00</ele>
	<time>2024-09-06T07:25:36.000Z</time>
</trkpt>
<trkpt lat="46.1338120" lon="10.1361160">
	<ele>1751.00</ele>
	<time>2024-09-06T07:25:37.000Z</time>
</trkpt>
<trkpt lat="46.1338240" lon="10.1361140">
	<ele>1751.20</ele>
	<time>2024-09-06T07:25:38.000Z</time>
</trkpt>
<trkpt lat="46.1338360" lon="10.1361110">
	<ele>1751.40</ele>
	<time>2024-09-06T07:25:39.000Z</time>
</trkpt>
<trkpt lat="46.1338460" lon="10.1361110">
	<ele>1751.40</ele>
	<time>2024-09-06T07:25:40.000Z</time>
</trkpt>
<trkpt lat="46.1338530" lon="10.1361040">
	<ele>1751.40</ele>
	<time>2024-09-06T07:25:41.000Z</time>
</trkpt>
<trkpt lat="46.1338610" lon="10.1360900">
	<ele>1751.60</ele>
	<time>2024-09-06T07:25:42.000Z</time>
</trkpt>
<trkpt lat="46.1338630" lon="10.1360730">
	<ele>1751.60</ele>
	<time>2024-09-06T07:25:43.000Z</time>
</trkpt>
<trkpt lat="46.1338710" lon="10.1360680">
	<ele>1751.80</ele>
	<time>2024-09-06T07:25:44.000Z</time>
</trkpt>
<trkpt lat="46.1338680" lon="10.1360660">
	<ele>1751.80</ele>
	<time>2024-09-06T07:25:45.000Z</time>
</trkpt>
<trkpt lat="46.1338640" lon="10.1360680">
	<ele>1751.80</ele>
	<time>2024-09-06T07:25:46.000Z</time>
</trkpt>
<trkpt lat="46.1338620" lon="10.1360710">
	<ele>1752.00</ele>
	<time>2024-09-06T07:25:47.000Z</time>
</trkpt>
<trkpt lat="46.1338650" lon="10.1360740">
	<ele>1752.20</ele>
	<time>2024-09-06T07:25:48.000Z</time>
</trkpt>
<trkpt lat="46.1338720" lon="10.1360800">
	<ele>1752.20</ele>
	<time>2024-09-06T07:25:49.000Z</time>
</trkpt>
<trkpt lat="46.1338800" lon="10.1360840">
	<ele>1752.20</ele>
	<time>2024-09-06T07:25:50.000Z</time>
</trkpt>
<trkpt lat="46.1338830" lon="10.1360890">
	<ele>1752.40</ele>
	<time>2024-09-06T07:25:51.000Z</time>
</trkpt>
<trkpt lat="46.1338950" lon="10.1360910">
	<ele>1752.40</ele>
	<time>2024-09-06T07:25:52.000Z</time>
</trkpt>
<trkpt lat="46.1339050" lon="10.1360930">
	<ele>1752.60</ele>
	<time>2024-09-06T07:25:53.000Z</time>
</trkpt>
<trkpt lat="46.1339170" lon="10.1360950">
	<ele>1752.80</ele>
	<time>2024-09-06T07:25:54.000Z</time>
</trkpt>
<trkpt lat="46.1339280" lon="10.1360950">
	<ele>1752.80</ele>
	<time>2024-09-06T07:25:55.000Z</time>
</trkpt>
<trkpt lat="46.1339360" lon="10.1360970">
	<ele>1753.00</ele>
	<time>2024-09-06T07:25:56.000Z</time>
</trkpt>
<trkpt lat="46.1339500" lon="10.1360920">
	<ele>1753.20</ele>
	<time>2024-09-06T07:25:57.000Z</time>
</trkpt>
<trkpt lat="46.1339500" lon="10.1360930">
	<ele>1753.20</ele>
	<time>2024-09-06T07:25:58.000Z</time>
</trkpt>
<trkpt lat="46.1339470" lon="10.1361050">
	<ele>1753.40</ele>
	<time>2024-09-06T07:25:59.000Z</time>
</trkpt>
<trkpt lat="46.1339530" lon="10.1361140">
	<ele>1753.40</ele>
	<time>2024-09-06T07:26:00.000Z</time>
</trkpt>
<trkpt lat="46.1339610" lon="10.1361220">
	<ele>1753.60</ele>
	<time>2024-09-06T07:26:01.000Z</time>
</trkpt>
<trkpt lat="46.1339690" lon="10.1361330">
	<ele>1753.80</ele>
	<time>2024-09-06T07:26:02.000Z</time>
</trkpt>
<trkpt lat="46.1339760" lon="10.1361500">
	<ele>1753.80</ele>
	<time>2024-09-06T07:26:03.000Z</time>
</trkpt>
<trkpt lat="46.1339820" lon="10.1361650">
	<ele>1754.00</ele>
	<time>2024-09-06T07:26:04.000Z</time>
</trkpt>
<trkpt lat="46.1339880" lon="10.1361760">
	<ele>1754.20</ele>
	<time>2024-09-06T07:26:05.000Z</time>
</trkpt>
<trkpt lat="46.1339890" lon="10.1361840">
	<ele>1754.40</ele>
	<time>2024-09-06T07:26:06.000Z</time>
</trkpt>
<trkpt lat="46.1339870" lon="10.1361870">
	<ele>1754.60</ele>
	<time>2024-09-06T07:26:07.000Z</time>
</trkpt>
<trkpt lat="46.1340040" lon="10.1361750">
	<ele>1754.60</ele>
	<time>2024-09-06T07:26:08.000Z</time>
</trkpt>
<trkpt lat="46.1340130" lon="10.1361670">
	<ele>1754.80</ele>
	<time>2024-09-06T07:26:09.000Z</time>
</trkpt>
<trkpt lat="46.1340240" lon="10.1361740">
	<ele>1755.00</ele>
	<time>2024-09-06T07:26:10.000Z</time>
</trkpt>
<trkpt lat="46.1340300" lon="10.1361950">
	<ele>1755.20</ele>
	<time>2024-09-06T07:26:11.000Z</time>
</trkpt>
<trkpt lat="46.1340310" lon="10.1362120">
	<ele>1755.40</ele>
	<time>2024-09-06T07:26:12.000Z</time>
</trkpt>
<trkpt lat="46.1340250" lon="10.1362230">
	<ele>1755.40</ele>
	<time>2024-09-06T07:26:13.000Z</time>
</trkpt>
<trkpt lat="46.1340210" lon="10.1362280">
	<ele>1755.60</ele>
	<time>2024-09-06T07:26:14.000Z</time>
</trkpt>
<trkpt lat="46.1340170" lon="10.1362350">
	<ele>1755.80</ele>
	<time>2024-09-06T07:26:15.000Z</time>
</trkpt>
<trkpt lat="46.1340190" lon="10.1362300">
	<ele>1756.00</ele>
	<time>2024-09-06T07:26:16.000Z</time>
</trkpt>
<trkpt lat="46.1340190" lon="10.1362280">
	<ele>1756.20</ele>
	<time>2024-09-06T07:26:17.000Z</time>
</trkpt>
<trkpt lat="46.1340210" lon="10.1362330">
	<ele>1756.60</ele>
	<time>2024-09-06T07:26:18.000Z</time>
</trkpt>
<trkpt lat="46.1340240" lon="10.1362390">
	<ele>1756.80</ele>
	<time>2024-09-06T07:26:19.000Z</time>
</trkpt>
<trkpt lat="46.1340360" lon="10.1362450">
	<ele>1757.00</ele>
	<time>2024-09-06T07:26:20.000Z</time>
</trkpt>
<trkpt lat="46.1340440" lon="10.1362490">
	<ele>1757.00</ele>
	<time>2024-09-06T07:26:21.000Z</time>
</trkpt>
<trkpt lat="46.1340500" lon="10.1362560">
	<ele>1757.20</ele>
	<time>2024-09-06T07:26:22.000Z</time>
</trkpt>
<trkpt lat="46.1340540" lon="10.1362610">
	<ele>1757.40</ele>
	<time>2024-09-06T07:26:23.000Z</time>
</trkpt>
<trkpt lat="46.1340620" lon="10.1362470">
	<ele>1757.60</ele>
	<time>2024-09-06T07:26:24.000Z</time>
</trkpt>
<trkpt lat="46.1340750" lon="10.1362370">
	<ele>1757.60</ele>
	<time>2024-09-06T07:26:25.000Z</time>
</trkpt>
<trkpt lat="46.1340840" lon="10.1362310">
	<ele>1757.80</ele>
	<time>2024-09-06T07:26:26.000Z</time>
</trkpt>
<trkpt lat="46.1340940" lon="10.1362320">
	<ele>1758.00</ele>
	<time>2024-09-06T07:26:27.000Z</time>
</trkpt>
<trkpt lat="46.1341040" lon="10.1362370">
	<ele>1758.00</ele>
	<time>2024-09-06T07:26:28.000Z</time>
</trkpt>
<trkpt lat="46.1341070" lon="10.1362380">
	<ele>1758.40</ele>
	<time>2024-09-06T07:26:29.000Z</time>
</trkpt>
<trkpt lat="46.1341120" lon="10.1362410">
	<ele>1758.60</ele>
	<time>2024-09-06T07:26:30.000Z</time>
</trkpt>
<trkpt lat="46.1341190" lon="10.1362410">
	<ele>1758.80</ele>
	<time>2024-09-06T07:26:31.000Z</time>
</trkpt>
<trkpt lat="46.1341200" lon="10.1362420">
	<ele>1759.00</ele>
	<time>2024-09-06T07:26:32.000Z</time>
</trkpt>
<trkpt lat="46.1341210" lon="10.1362320">
	<ele>1759.20</ele>
	<time>2024-09-06T07:26:33.000Z</time>
</trkpt>
<trkpt lat="46.1341180" lon="10.1362280">
	<ele>1759.40</ele>
	<time>2024-09-06T07:26:34.000Z</time>
</trkpt>
<trkpt lat="46.1341170" lon="10.1362330">
	<ele>1759.60</ele>
	<time>2024-09-06T07:26:35.000Z</time>
</trkpt>
<trkpt lat="46.1341180" lon="10.1362390">
	<ele>1759.60</ele>
	<time>2024-09-06T07:26:36.000Z</time>
</trkpt>
<trkpt lat="46.1341210" lon="10.1362460">
	<ele>1759.80</ele>
	<time>2024-09-06T07:26:37.000Z</time>
</trkpt>
<trkpt lat="46.1341320" lon="10.1362560">
	<ele>1759.80</ele>
	<time>2024-09-06T07:26:38.000Z</time>
</trkpt>
<trkpt lat="46.1341370" lon="10.1362610">
	<ele>1760.00</ele>
	<time>2024-09-06T07:26:39.000Z</time>
</trkpt>
<trkpt lat="46.1341430" lon="10.1362680">
	<ele>1760.00</ele>
	<time>2024-09-06T07:26:40.000Z</time>
</trkpt>
<trkpt lat="46.1341480" lon="10.1362740">
	<ele>1760.00</ele>
	<time>2024-09-06T07:26:41.000Z</time>
</trkpt>
<trkpt lat="46.1341540" lon="10.1362800">
	<ele>1760.00</ele>
	<time>2024-09-06T07:26:42.000Z</time>
</trkpt>
<trkpt lat="46.1341610" lon="10.1362800">
	<ele>1760.20</ele>
	<time>2024-09-06T07:26:43.000Z</time>
</trkpt>
<trkpt lat="46.1341750" lon="10.1362810">
	<ele>1760.20</ele>
	<time>2024-09-06T07:26:44.000Z</time>
</trkpt>
<trkpt lat="46.1341790" lon="10.1362830">
	<ele>1760.40</ele>
	<time>2024-09-06T07:26:45.000Z</time>
</trkpt>
<trkpt lat="46.1341850" lon="10.1362810">
	<ele>1760.60</ele>
	<time>2024-09-06T07:26:46.000Z</time>
</trkpt>
<trkpt lat="46.1341870" lon="10.1362810">
	<ele>1760.80</ele>
	<time>2024-09-06T07:26:47.000Z</time>
</trkpt>
<trkpt lat="46.1341920" lon="10.1362770">
	<ele>1760.80</ele>
	<time>2024-09-06T07:26:48.000Z</time>
</trkpt>
<trkpt lat="46.1341950" lon="10.1362780">
	<ele>1761.20</ele>
	<time>2024-09-06T07:26:49.000Z</time>
</trkpt>
<trkpt lat="46.1342030" lon="10.1362760">
	<ele>1761.40</ele>
	<time>2024-09-06T07:26:50.000Z</time>
</trkpt>
<trkpt lat="46.1342150" lon="10.1362770">
	<ele>1761.40</ele>
	<time>2024-09-06T07:26:51.000Z</time>
</trkpt>
<trkpt lat="46.1342240" lon="10.1362890">
	<ele>1761.60</ele>
	<time>2024-09-06T07:26:52.000Z</time>
</trkpt>
<trkpt lat="46.1342280" lon="10.1363070">
	<ele>1761.60</ele>
	<time>2024-09-06T07:26:53.000Z</time>
</trkpt>
<trkpt lat="46.1342320" lon="10.1363090">
	<ele>1761.80</ele>
	<time>2024-09-06T07:26:54.000Z</time>
</trkpt>
<trkpt lat="46.1342260" lon="10.1362950">
	<ele>1762.00</ele>
	<time>2024-09-06T07:26:55.000Z</time>
</trkpt>
<trkpt lat="46.1342280" lon="10.1362860">
	<ele>1762.20</ele>
	<time>2024-09-06T07:26:56.000Z</time>
</trkpt>
<trkpt lat="46.1342330" lon="10.1362770">
	<ele>1762.40</ele>
	<time>2024-09-06T07:26:57.000Z</time>
</trkpt>
<trkpt lat="46.1342370" lon="10.1362850">
	<ele>1762.60</ele>
	<time>2024-09-06T07:26:58.000Z</time>
</trkpt>
<trkpt lat="46.1342480" lon="10.1362920">
	<ele>1762.80</ele>
	<time>2024-09-06T07:26:59.000Z</time>
</trkpt>
<trkpt lat="46.1342540" lon="10.1363000">
	<ele>1763.00</ele>
	<time>2024-09-06T07:27:00.000Z</time>
</trkpt>
<trkpt lat="46.1342540" lon="10.1363060">
	<ele>1763.20</ele>
	<time>2024-09-06T07:27:01.000Z</time>
</trkpt>
<trkpt lat="46.1342560" lon="10.1363170">
	<ele>1763.20</ele>
	<time>2024-09-06T07:27:02.000Z</time>
</trkpt>
<trkpt lat="46.1342620" lon="10.1363220">
	<ele>1763.40</ele>
	<time>2024-09-06T07:27:03.000Z</time>
</trkpt>
<trkpt lat="46.1342730" lon="10.1363190">
	<ele>1763.40</ele>
	<time>2024-09-06T07:27:04.000Z</time>
</trkpt>
<trkpt lat="46.1342830" lon="10.1363250">
	<ele>1763.60</ele>
	<time>2024-09-06T07:27:05.000Z</time>
</trkpt>
<trkpt lat="46.1342920" lon="10.1363340">
	<ele>1763.80</ele>
	<time>2024-09-06T07:27:06.000Z</time>
</trkpt>
<trkpt lat="46.1342980" lon="10.1363440">
	<ele>1764.00</ele>
	<time>2024-09-06T07:27:07.000Z</time>
</trkpt>
<trkpt lat="46.1343090" lon="10.1363500">
	<ele>1764.20</ele>
	<time>2024-09-06T07:27:08.000Z</time>
</trkpt>
<trkpt lat="46.1343180" lon="10.1363660">
	<ele>1764.20</ele>
	<time>2024-09-06T07:27:09.000Z</time>
</trkpt>
<trkpt lat="46.1343130" lon="10.1363850">
	<ele>1764.40</ele>
	<time>2024-09-06T07:27:10.000Z</time>
</trkpt>
<trkpt lat="46.1343100" lon="10.1363990">
	<ele>1764.40</ele>
	<time>2024-09-06T07:27:11.000Z</time>
</trkpt>
<trkpt lat="46.1343080" lon="10.1364180">
	<ele>1764.60</ele>
	<time>2024-09-06T07:27:12.000Z</time>
</trkpt>
<trkpt lat="46.1343070" lon="10.1364250">
	<ele>1764.60</ele>
	<time>2024-09-06T07:27:13.000Z</time>
</trkpt>
<trkpt lat="46.1343090" lon="10.1364290">
	<ele>1764.80</ele>
	<time>2024-09-06T07:27:14.000Z</time>
</trkpt>
<trkpt lat="46.1343170" lon="10.1364330">
	<ele>1765.00</ele>
	<time>2024-09-06T07:27:15.000Z</time>
</trkpt>
<trkpt lat="46.1343270" lon="10.1364370">
	<ele>1765.00</ele>
	<time>2024-09-06T07:27:16.000Z</time>
</trkpt>
<trkpt lat="46.1343270" lon="10.1364350">
	<ele>1765.20</ele>
	<time>2024-09-06T07:27:17.000Z</time>
</trkpt>
<trkpt lat="46.1343330" lon="10.1364350">
	<ele>1765.20</ele>
	<time>2024-09-06T07:27:18.000Z</time>
</trkpt>
<trkpt lat="46.1343400" lon="10.1364410">
	<ele>1765.20</ele>
	<time>2024-09-06T07:27:19.000Z</time>
</trkpt>
<trkpt lat="46.1343460" lon="10.1364520">
	<ele>1765.20</ele>
	<time>2024-09-06T07:27:20.000Z</time>
</trkpt>
<trkpt lat="46.1343480" lon="10.1364580">
	<ele>1765.40</ele>
	<time>2024-09-06T07:27:21.000Z</time>
</trkpt>
<trkpt lat="46.1343490" lon="10.1364620">
	<ele>1765.40</ele>
	<time>2024-09-06T07:27:22.000Z</time>
</trkpt>
<trkpt lat="46.1343540" lon="10.1364720">
	<ele>1765.60</ele>
	<time>2024-09-06T07:27:23.000Z</time>
</trkpt>
<trkpt lat="46.1343560" lon="10.1364750">
	<ele>1765.80</ele>
	<time>2024-09-06T07:27:24.000Z</time>
</trkpt>
<trkpt lat="46.1343640" lon="10.1364790">
	<ele>1765.80</ele>
	<time>2024-09-06T07:27:25.000Z</time>
</trkpt>
<trkpt lat="46.1343730" lon="10.1364820">
	<ele>1766.00</ele>
	<time>2024-09-06T07:27:26.000Z</time>
</trkpt>
<trkpt lat="46.1343790" lon="10.1364870">
	<ele>1766.00</ele>
	<time>2024-09-06T07:27:27.000Z</time>
</trkpt>
<trkpt lat="46.1343880" lon="10.1364910">
	<ele>1766.20</ele>
	<time>2024-09-06T07:27:28.000Z</time>
</trkpt>
<trkpt lat="46.1343950" lon="10.1364930">
	<ele>1766.20</ele>
	<time>2024-09-06T07:27:29.000Z</time>
</trkpt>
<trkpt lat="46.1344020" lon="10.1364990">
	<ele>1766.40</ele>
	<time>2024-09-06T07:27:30.000Z</time>
</trkpt>
<trkpt lat="46.1344050" lon="10.1365130">
	<ele>1766.60</ele>
	<time>2024-09-06T07:27:31.000Z</time>
</trkpt>
<trkpt lat="46.1344060" lon="10.1365250">
	<ele>1766.60</ele>
	<time>2024-09-06T07:27:32.000Z</time>
</trkpt>
<trkpt lat="46.1344060" lon="10.1365350">
	<ele>1766.80</ele>
	<time>2024-09-06T07:27:33.000Z</time>
</trkpt>
<trkpt lat="46.1344110" lon="10.1365440">
	<ele>1766.80</ele>
	<time>2024-09-06T07:27:34.000Z</time>
</trkpt>
<trkpt lat="46.1344180" lon="10.1365490">
	<ele>1767.00</ele>
	<time>2024-09-06T07:27:35.000Z</time>
</trkpt>
<trkpt lat="46.1344230" lon="10.1365540">
	<ele>1767.20</ele>
	<time>2024-09-06T07:27:36.000Z</time>
</trkpt>
<trkpt lat="46.1344160" lon="10.1365740">
	<ele>1767.40</ele>
	<time>2024-09-06T07:27:37.000Z</time>
</trkpt>
<trkpt lat="46.1344160" lon="10.1365820">
	<ele>1767.60</ele>
	<time>2024-09-06T07:27:38.000Z</time>
</trkpt>
<trkpt lat="46.1344120" lon="10.1365900">
	<ele>1767.60</ele>
	<time>2024-09-06T07:27:39.000Z</time>
</trkpt>
<trkpt lat="46.1344100" lon="10.1365930">
	<ele>1767.80</ele>
	<time>2024-09-06T07:27:40.000Z</time>
</trkpt>
<trkpt lat="46.1344110" lon="10.1365980">
	<ele>1768.00</ele>
	<time>2024-09-06T07:27:41.000Z</time>
</trkpt>
<trkpt lat="46.1344080" lon="10.1366040">
	<ele>1768.20</ele>
	<time>2024-09-06T07:27:42.000Z</time>
</trkpt>
<trkpt lat="46.1344060" lon="10.1366080">
	<ele>1768.40</ele>
	<time>2024-09-06T07:27:43.000Z</time>
</trkpt>
<trkpt lat="46.1344040" lon="10.1366130">
	<ele>1768.60</ele>
	<time>2024-09-06T07:27:44.000Z</time>
</trkpt>
<trkpt lat="46.1344040" lon="10.1366210">
	<ele>1768.60</ele>
	<time>2024-09-06T07:27:45.000Z</time>
</trkpt>
<trkpt lat="46.1343990" lon="10.1366290">
	<ele>1769.00</ele>
	<time>2024-09-06T07:27:46.000Z</time>
</trkpt>
<trkpt lat="46.1343890" lon="10.1366310">
	<ele>1769.20</ele>
	<time>2024-09-06T07:27:47.000Z</time>
</trkpt>
<trkpt lat="46.1343820" lon="10.1366350">
	<ele>1769.40</ele>
	<time>2024-09-06T07:27:48.000Z</time>
</trkpt>
<trkpt lat="46.1343770" lon="10.1366370">
	<ele>1769.60</ele>
	<time>2024-09-06T07:27:49.000Z</time>
</trkpt>
<trkpt lat="46.1343740" lon="10.1366390">
	<ele>1769.80</ele>
	<time>2024-09-06T07:27:50.000Z</time>
</trkpt>
<trkpt lat="46.1343710" lon="10.1366420">
	<ele>1770.00</ele>
	<time>2024-09-06T07:27:51.000Z</time>
</trkpt>
<trkpt lat="46.1343680" lon="10.1366460">
	<ele>1770.20</ele>
	<time>2024-09-06T07:27:52.000Z</time>
</trkpt>
<trkpt lat="46.1343640" lon="10.1366460">
	<ele>1770.20</ele>
	<time>2024-09-06T07:27:53.000Z</time>
</trkpt>
<trkpt lat="46.1343620" lon="10.1366450">
	<ele>1770.40</ele>
	<time>2024-09-06T07:27:54.000Z</time>
</trkpt>
<trkpt lat="46.1343600" lon="10.1366480">
	<ele>1770.80</ele>
	<time>2024-09-06T07:27:55.000Z</time>
</trkpt>
<trkpt lat="46.1343570" lon="10.1366510">
	<ele>1771.00</ele>
	<time>2024-09-06T07:27:56.000Z</time>
</trkpt>
<trkpt lat="46.1343550" lon="10.1366550">
	<ele>1771.00</ele>
	<time>2024-09-06T07:27:57.000Z</time>
</trkpt>
<trkpt lat="46.1343520" lon="10.1366660">
	<ele>1771.40</ele>
	<time>2024-09-06T07:27:58.000Z</time>
</trkpt>
<trkpt lat="46.1343540" lon="10.1366720">
	<ele>1771.40</ele>
	<time>2024-09-06T07:27:59.000Z</time>
</trkpt>
<trkpt lat="46.1343540" lon="10.1366770">
	<ele>1771.60</ele>
	<time>2024-09-06T07:28:00.000Z</time>
</trkpt>
<trkpt lat="46.1343540" lon="10.1366840">
	<ele>1771.80</ele>
	<time>2024-09-06T07:28:01.000Z</time>
</trkpt>
<trkpt lat="46.1343560" lon="10.1366890">
	<ele>1771.80</ele>
	<time>2024-09-06T07:28:02.000Z</time>
</trkpt>
<trkpt lat="46.1343550" lon="10.1367010">
	<ele>1772.20</ele>
	<time>2024-09-06T07:28:03.000Z</time>
</trkpt>
<trkpt lat="46.1343520" lon="10.1367090">
	<ele>1772.20</ele>
	<time>2024-09-06T07:28:04.000Z</time>
</trkpt>
<trkpt lat="46.1343520" lon="10.1367140">
	<ele>1772.60</ele>
	<time>2024-09-06T07:28:05.000Z</time>
</trkpt>
<trkpt lat="46.1343490" lon="10.1367190">
	<ele>1772.80</ele>
	<time>2024-09-06T07:28:06.000Z</time>
</trkpt>
<trkpt lat="46.1343470" lon="10.1367200">
	<ele>1772.80</ele>
	<time>2024-09-06T07:28:07.000Z</time>
</trkpt>
<trkpt lat="46.1343370" lon="10.1367260">
	<ele>1773.00</ele>
	<time>2024-09-06T07:28:08.000Z</time>
</trkpt>
<trkpt lat="46.1343270" lon="10.1367320">
	<ele>1773.20</ele>
	<time>2024-09-06T07:28:09.000Z</time>
</trkpt>
<trkpt lat="46.1343160" lon="10.1367360">
	<ele>1773.40</ele>
	<time>2024-09-06T07:28:10.000Z</time>
</trkpt>
<trkpt lat="46.1343010" lon="10.1367350">
	<ele>1773.60</ele>
	<time>2024-09-06T07:28:11.000Z</time>
</trkpt>
<trkpt lat="46.1342940" lon="10.1367320">
	<ele>1773.80</ele>
	<time>2024-09-06T07:28:12.000Z</time>
</trkpt>
<trkpt lat="46.1342870" lon="10.1367320">
	<ele>1774.00</ele>
	<time>2024-09-06T07:28:13.000Z</time>
</trkpt>
<trkpt lat="46.1342840" lon="10.1367320">
	<ele>1774.40</ele>
	<time>2024-09-06T07:28:14.000Z</time>
</trkpt>
<trkpt lat="46.1342820" lon="10.1367250">
	<ele>1774.40</ele>
	<time>2024-09-06T07:28:15.000Z</time>
</trkpt>
<trkpt lat="46.1342840" lon="10.1367110">
	<ele>1774.60</ele>
	<time>2024-09-06T07:28:16.000Z</time>
</trkpt>
<trkpt lat="46.1342860" lon="10.1367040">
	<ele>1774.60</ele>
	<time>2024-09-06T07:28:17.000Z</time>
</trkpt>
<trkpt lat="46.1342870" lon="10.1367040">
	<ele>1774.60</ele>
	<time>2024-09-06T07:28:18.000Z</time>
</trkpt>
<trkpt lat="46.1342870" lon="10.1367050">
	<ele>1774.60</ele>
	<time>2024-09-06T07:28:19.000Z</time>
</trkpt>
<trkpt lat="46.1342860" lon="10.1367040">
	<ele>1774.60</ele>
	<time>2024-09-06T07:28:20.000Z</time>
</trkpt>
<trkpt lat="46.1342860" lon="10.1367040">
	<ele>1774.60</ele>
	<time>2024-09-06T07:28:21.000Z</time>
</trkpt>
<trkpt lat="46.1342850" lon="10.1367120">
	<ele>1774.60</ele>
	<time>2024-09-06T07:28:22.000Z</time>
</trkpt>
<trkpt lat="46.1342860" lon="10.1367140">
	<ele>1774.60</ele>
	<time>2024-09-06T07:28:23.000Z</time>
</trkpt>
<trkpt lat="46.1342860" lon="10.1367130">
	<ele>1774.80</ele>
	<time>2024-09-06T07:28:24.000Z</time>
</trkpt>
<trkpt lat="46.1342860" lon="10.1367130">
	<ele>1774.80</ele>
	<time>2024-09-06T07:28:25.000Z</time>
</trkpt>
<trkpt lat="46.1342860" lon="10.1367130">
	<ele>1774.80</ele>
	<time>2024-09-06T07:28:26.000Z</time>
</trkpt>
<trkpt lat="46.1342860" lon="10.1367130">
	<ele>1774.80</ele>
	<time>2024-09-06T07:28:27.000Z</time>
</trkpt>
<trkpt lat="46.1342860" lon="10.1367130">
	<ele>1774.60</ele>
	<time>2024-09-06T07:28:28.000Z</time>
</trkpt>
<trkpt lat="46.1342860" lon="10.1367130">
	<ele>1774.60</ele>
	<time>2024-09-06T07:28:29.000Z</time>
</trkpt>
<trkpt lat="46.1342860" lon="10.1367130">
	<ele>1774.80</ele>
	<time>2024-09-06T07:28:30.000Z</time>
</trkpt>
<trkpt lat="46.1342860" lon="10.1367130">
	<ele>1774.60</ele>
	<time>2024-09-06T07:28:31.000Z</time>
</trkpt>
<trkpt lat="46.1342860" lon="10.1367130">
	<ele>1774.60</ele>
	<time>2024-09-06T07:28:32.000Z</time>
</trkpt>
<trkpt lat="46.1342860" lon="10.1367130">
	<ele>1774.60</ele>
	<time>2024-09-06T07:28:33.000Z</time>
</trkpt>
<trkpt lat="46.1342860" lon="10.1367120">
	<ele>1774.60</ele>
	<time>2024-09-06T07:28:34.000Z</time>
</trkpt>
<trkpt lat="46.1342860" lon="10.1367110">
	<ele>1774.60</ele>
	<time>2024-09-06T07:28:35.000Z</time>
</trkpt>
<trkpt lat="46.1342860" lon="10.1367060">
	<ele>1774.60</ele>
	<time>2024-09-06T07:28:36.000Z</time>
</trkpt>
<trkpt lat="46.1342860" lon="10.1367050">
	<ele>1774.60</ele>
	<time>2024-09-06T07:28:37.000Z</time>
</trkpt>
<trkpt lat="46.1342860" lon="10.1367050">
	<ele>1774.60</ele>
	<time>2024-09-06T07:28:38.000Z</time>
</trkpt>
<trkpt lat="46.1342860" lon="10.1367040">
	<ele>1774.60</ele>
	<time>2024-09-06T07:28:39.000Z</time>
</trkpt>
<trkpt lat="46.1342860" lon="10.1367040">
	<ele>1774.60</ele>
	<time>2024-09-06T07:28:40.000Z</time>
</trkpt>
<trkpt lat="46.1342860" lon="10.1367040">
	<ele>1774.60</ele>
	<time>2024-09-06T07:28:41.000Z</time>
</trkpt>
<trkpt lat="46.1342860" lon="10.1367040">
	<ele>1774.40</ele>
	<time>2024-09-06T07:28:42.000Z</time>
</trkpt>
<trkpt lat="46.1342860" lon="10.1367040">
	<ele>1774.40</ele>
	<time>2024-09-06T07:28:43.000Z</time>
</trkpt>
<trkpt lat="46.1342860" lon="10.1367040">
	<ele>1774.40</ele>
	<time>2024-09-06T07:28:44.000Z</time>
</trkpt>
<trkpt lat="46.1342870" lon="10.1367040">
	<ele>1774.40</ele>
	<time>2024-09-06T07:28:45.000Z</time>
</trkpt>
<trkpt lat="46.1342880" lon="10.1367040">
	<ele>1774.40</ele>
	<time>2024-09-06T07:28:46.000Z</time>
</trkpt>
<trkpt lat="46.1342880" lon="10.1367040">
	<ele>1774.40</ele>
	<time>2024-09-06T07:28:47.000Z</time>
</trkpt>
<trkpt lat="46.1342880" lon="10.1367040">
	<ele>1774.40</ele>
	<time>2024-09-06T07:28:48.000Z</time>
</trkpt>
<trkpt lat="46.1342880" lon="10.1367040">
	<ele>1774.40</ele>
	<time>2024-09-06T07:28:49.000Z</time>
</trkpt>
<trkpt lat="46.1342880" lon="10.1367040">
	<ele>1774.40</ele>
	<time>2024-09-06T07:28:50.000Z</time>
</trkpt>
<trkpt lat="46.1342880" lon="10.1367040">
	<ele>1774.40</ele>
	<time>2024-09-06T07:28:51.000Z</time>
</trkpt>
<trkpt lat="46.1342880" lon="10.1367040">
	<ele>1774.40</ele>
	<time>2024-09-06T07:28:52.000Z</time>
</trkpt>
<trkpt lat="46.1342880" lon="10.1367040">
	<ele>1774.40</ele>
	<time>2024-09-06T07:28:53.000Z</time>
</trkpt>
<trkpt lat="46.1342880" lon="10.1367040">
	<ele>1774.40</ele>
	<time>2024-09-06T07:28:54.000Z</time>
</trkpt>
<trkpt lat="46.1342880" lon="10.1367040">
	<ele>1774.40</ele>
	<time>2024-09-06T07:28:55.000Z</time>
</trkpt>
<trkpt lat="46.1342880" lon="10.1367030">
	<ele>1774.40</ele>
	<time>2024-09-06T07:28:56.000Z</time>
</trkpt>
<trkpt lat="46.1342900" lon="10.1367030">
	<ele>1774.40</ele>
	<time>2024-09-06T07:28:57.000Z</time>
</trkpt>
<trkpt lat="46.1342910" lon="10.1367030">
	<ele>1774.40</ele>
	<time>2024-09-06T07:28:58.000Z</time>
</trkpt>
<trkpt lat="46.1342910" lon="10.1367020">
	<ele>1774.40</ele>
	<time>2024-09-06T07:28:59.000Z</time>
</trkpt>
<trkpt lat="46.1342920" lon="10.1367020">
	<ele>1774.40</ele>
	<time>2024-09-06T07:29:00.000Z</time>
</trkpt>
<trkpt lat="46.1342930" lon="10.1367020">
	<ele>1774.40</ele>
	<time>2024-09-06T07:29:01.000Z</time>
</trkpt>
<trkpt lat="46.1342980" lon="10.1367020">
	<ele>1774.40</ele>
	<time>2024-09-06T07:29:02.000Z</time>
</trkpt>
<trkpt lat="46.1342990" lon="10.1367020">
	<ele>1774.40</ele>
	<time>2024-09-06T07:29:03.000Z</time>
</trkpt>
<trkpt lat="46.1342990" lon="10.1367020">
	<ele>1774.40</ele>
	<time>2024-09-06T07:29:04.000Z</time>
</trkpt>
<trkpt lat="46.1342950" lon="10.1367020">
	<ele>1774.40</ele>
	<time>2024-09-06T07:29:05.000Z</time>
</trkpt>
<trkpt lat="46.1342930" lon="10.1367020">
	<ele>1774.40</ele>
	<time>2024-09-06T07:29:06.000Z</time>
</trkpt>
<trkpt lat="46.1342920" lon="10.1367020">
	<ele>1774.40</ele>
	<time>2024-09-06T07:29:07.000Z</time>
</trkpt>
<trkpt lat="46.1342910" lon="10.1367020">
	<ele>1774.60</ele>
	<time>2024-09-06T07:29:08.000Z</time>
</trkpt>
<trkpt lat="46.1342890" lon="10.1367020">
	<ele>1774.60</ele>
	<time>2024-09-06T07:29:09.000Z</time>
</trkpt>
<trkpt lat="46.1342840" lon="10.1367010">
	<ele>1774.60</ele>
	<time>2024-09-06T07:29:10.000Z</time>
</trkpt>
<trkpt lat="46.1342770" lon="10.1367060">
	<ele>1774.60</ele>
	<time>2024-09-06T07:29:11.000Z</time>
</trkpt>
<trkpt lat="46.1342690" lon="10.1367120">
	<ele>1774.60</ele>
	<time>2024-09-06T07:29:12.000Z</time>
</trkpt>
<trkpt lat="46.1342630" lon="10.1367190">
	<ele>1774.60</ele>
	<time>2024-09-06T07:29:13.000Z</time>
</trkpt>
<trkpt lat="46.1342570" lon="10.1367310">
	<ele>1774.60</ele>
	<time>2024-09-06T07:29:14.000Z</time>
</trkpt>
<trkpt lat="46.1342480" lon="10.1367410">
	<ele>1774.60</ele>
	<time>2024-09-06T07:29:15.000Z</time>
</trkpt>
<trkpt lat="46.1342410" lon="10.1367450">
	<ele>1774.60</ele>
	<time>2024-09-06T07:29:16.000Z</time>
</trkpt>
<trkpt lat="46.1342270" lon="10.1367470">
	<ele>1774.80</ele>
	<time>2024-09-06T07:29:17.000Z</time>
</trkpt>
<trkpt lat="46.1341990" lon="10.1367460">
	<ele>1774.80</ele>
	<time>2024-09-06T07:29:18.000Z</time>
</trkpt>
<trkpt lat="46.1341760" lon="10.1367540">
	<ele>1775.00</ele>
	<time>2024-09-06T07:29:19.000Z</time>
</trkpt>
<trkpt lat="46.1341690" lon="10.1367600">
	<ele>1775.00</ele>
	<time>2024-09-06T07:29:20.000Z</time>
</trkpt>
<trkpt lat="46.1341670" lon="10.1367580">
	<ele>1775.20</ele>
	<time>2024-09-06T07:29:21.000Z</time>
</trkpt>
<trkpt lat="46.1341660" lon="10.1367570">
	<ele>1775.20</ele>
	<time>2024-09-06T07:29:22.000Z</time>
</trkpt>
<trkpt lat="46.1341650" lon="10.1367540">
	<ele>1775.40</ele>
	<time>2024-09-06T07:29:23.000Z</time>
</trkpt>
<trkpt lat="46.1341470" lon="10.1367520">
	<ele>1775.40</ele>
	<time>2024-09-06T07:29:24.000Z</time>
</trkpt>
<trkpt lat="46.1341330" lon="10.1367500">
	<ele>1775.40</ele>
	<time>2024-09-06T07:29:25.000Z</time>
</trkpt>
<trkpt lat="46.1341240" lon="10.1367580">
	<ele>1775.60</ele>
	<time>2024-09-06T07:29:26.000Z</time>
</trkpt>
<trkpt lat="46.1341140" lon="10.1367590">
	<ele>1775.60</ele>
	<time>2024-09-06T07:29:27.000Z</time>
</trkpt>
<trkpt lat="46.1341080" lon="10.1367660">
	<ele>1775.80</ele>
	<time>2024-09-06T07:29:28.000Z</time>
</trkpt>
<trkpt lat="46.1341070" lon="10.1367740">
	<ele>1775.80</ele>
	<time>2024-09-06T07:29:29.000Z</time>
</trkpt>
<trkpt lat="46.1341090" lon="10.1367780">
	<ele>1776.00</ele>
	<time>2024-09-06T07:29:30.000Z</time>
</trkpt>
<trkpt lat="46.1341100" lon="10.1367770">
	<ele>1776.00</ele>
	<time>2024-09-06T07:29:31.000Z</time>
</trkpt>
<trkpt lat="46.1341110" lon="10.1367740">
	<ele>1776.20</ele>
	<time>2024-09-06T07:29:32.000Z</time>
</trkpt>
<trkpt lat="46.1341120" lon="10.1367780">
	<ele>1776.20</ele>
	<time>2024-09-06T07:29:33.000Z</time>
</trkpt>
<trkpt lat="46.1341090" lon="10.1367790">
	<ele>1776.20</ele>
	<time>2024-09-06T07:29:34.000Z</time>
</trkpt>
<trkpt lat="46.1341020" lon="10.1367840">
	<ele>1776.40</ele>
	<time>2024-09-06T07:29:35.000Z</time>
</trkpt>
<trkpt lat="46.1341010" lon="10.1367860">
	<ele>1776.60</ele>
	<time>2024-09-06T07:29:36.000Z</time>
</trkpt>
<trkpt lat="46.1341010" lon="10.1367850">
	<ele>1776.80</ele>
	<time>2024-09-06T07:29:37.000Z</time>
</trkpt>
<trkpt lat="46.1340940" lon="10.1367900">
	<ele>1776.80</ele>
	<time>2024-09-06T07:29:38.000Z</time>
</trkpt>
<trkpt lat="46.1340850" lon="10.1367980">
	<ele>1777.20</ele>
	<time>2024-09-06T07:29:39.000Z</time>
</trkpt>
<trkpt lat="46.1340780" lon="10.1367970">
	<ele>1777.40</ele>
	<time>2024-09-06T07:29:40.000Z</time>
</trkpt>
<trkpt lat="46.1340730" lon="10.1367960">
	<ele>1777.40</ele>
	<time>2024-09-06T07:29:41.000Z</time>
</trkpt>
<trkpt lat="46.1340690" lon="10.1367950">
	<ele>1777.80</ele>
	<time>2024-09-06T07:29:42.000Z</time>
</trkpt>
<trkpt lat="46.1340650" lon="10.1367980">
	<ele>1777.80</ele>
	<time>2024-09-06T07:29:43.000Z</time>
</trkpt>
<trkpt lat="46.1340550" lon="10.1367920">
	<ele>1777.80</ele>
	<time>2024-09-06T07:29:44.000Z</time>
</trkpt>
<trkpt lat="46.1340490" lon="10.1367880">
	<ele>1778.00</ele>
	<time>2024-09-06T07:29:45.000Z</time>
</trkpt>
<trkpt lat="46.1340420" lon="10.1367860">
	<ele>1778.00</ele>
	<time>2024-09-06T07:29:46.000Z</time>
</trkpt>
<trkpt lat="46.1340320" lon="10.1367880">
	<ele>1778.00</ele>
	<time>2024-09-06T07:29:47.000Z</time>
</trkpt>
<trkpt lat="46.1340290" lon="10.1367860">
	<ele>1778.20</ele>
	<time>2024-09-06T07:29:48.000Z</time>
</trkpt>
<trkpt lat="46.1340260" lon="10.1367850">
	<ele>1778.20</ele>
	<time>2024-09-06T07:29:49.000Z</time>
</trkpt>
<trkpt lat="46.1340250" lon="10.1367850">
	<ele>1778.60</ele>
	<time>2024-09-06T07:29:50.000Z</time>
</trkpt>
<trkpt lat="46.1340260" lon="10.1367890">
	<ele>1778.80</ele>
	<time>2024-09-06T07:29:51.000Z</time>
</trkpt>
<trkpt lat="46.1340280" lon="10.1367880">
	<ele>1778.80</ele>
	<time>2024-09-06T07:29:52.000Z</time>
</trkpt>
<trkpt lat="46.1340270" lon="10.1367880">
	<ele>1779.00</ele>
	<time>2024-09-06T07:29:53.000Z</time>
</trkpt>
<trkpt lat="46.1340210" lon="10.1367780">
	<ele>1779.20</ele>
	<time>2024-09-06T07:29:54.000Z</time>
</trkpt>
<trkpt lat="46.1340210" lon="10.1367760">
	<ele>1779.40</ele>
	<time>2024-09-06T07:29:55.000Z</time>
</trkpt>
<trkpt lat="46.1340200" lon="10.1367790">
	<ele>1779.40</ele>
	<time>2024-09-06T07:29:56.000Z</time>
</trkpt>
<trkpt lat="46.1340160" lon="10.1367790">
	<ele>1779.60</ele>
	<time>2024-09-06T07:29:57.000Z</time>
</trkpt>
<trkpt lat="46.1340130" lon="10.1367840">
	<ele>1779.80</ele>
	<time>2024-09-06T07:29:58.000Z</time>
</trkpt>
<trkpt lat="46.1340070" lon="10.1367830">
	<ele>1780.00</ele>
	<time>2024-09-06T07:29:59.000Z</time>
</trkpt>
<trkpt lat="46.1340040" lon="10.1367910">
	<ele>1780.00</ele>
	<time>2024-09-06T07:30:00.000Z</time>
</trkpt>
<trkpt lat="46.1340030" lon="10.1367960">
	<ele>1780.20</ele>
	<time>2024-09-06T07:30:01.000Z</time>
</trkpt>
<trkpt lat="46.1339970" lon="10.1367950">
	<ele>1780.20</ele>
	<time>2024-09-06T07:30:02.000Z</time>
</trkpt>
<trkpt lat="46.1339950" lon="10.1367980">
	<ele>1780.40</ele>
	<time>2024-09-06T07:30:03.000Z</time>
</trkpt>
<trkpt lat="46.1339950" lon="10.1368000">
	<ele>1780.80</ele>
	<time>2024-09-06T07:30:04.000Z</time>
</trkpt>
<trkpt lat="46.1339950" lon="10.1368000">
	<ele>1780.80</ele>
	<time>2024-09-06T07:30:05.000Z</time>
</trkpt>
<trkpt lat="46.1339950" lon="10.1368000">
	<ele>1781.00</ele>
	<time>2024-09-06T07:30:06.000Z</time>
</trkpt>
<trkpt lat="46.1339950" lon="10.1368000">
	<ele>1781.20</ele>
	<time>2024-09-06T07:30:07.000Z</time>
</trkpt>
<trkpt lat="46.1339950" lon="10.1368000">
	<ele>1781.40</ele>
	<time>2024-09-06T07:30:08.000Z</time>
</trkpt>
<trkpt lat="46.1339950" lon="10.1368000">
	<ele>1781.80</ele>
	<time>2024-09-06T07:30:09.000Z</time>
</trkpt>
<trkpt lat="46.1339950" lon="10.1368000">
	<ele>1781.80</ele>
	<time>2024-09-06T07:30:10.000Z</time>
</trkpt>
<trkpt lat="46.1339950" lon="10.1368000">
	<ele>1782.00</ele>
	<time>2024-09-06T07:30:11.000Z</time>
</trkpt>
<trkpt lat="46.1339950" lon="10.1368000">
	<ele>1782.00</ele>
	<time>2024-09-06T07:30:12.000Z</time>
</trkpt>
<trkpt lat="46.1339950" lon="10.1368000">
	<ele>1782.20</ele>
	<time>2024-09-06T07:30:13.000Z</time>
</trkpt>
<trkpt lat="46.1339950" lon="10.1368000">
	<ele>1782.20</ele>
	<time>2024-09-06T07:30:14.000Z</time>
</trkpt>
<trkpt lat="46.1339950" lon="10.1368000">
	<ele>1782.40</ele>
	<time>2024-09-06T07:30:15.000Z</time>
</trkpt>
<trkpt lat="46.1339950" lon="10.1368000">
	<ele>1782.40</ele>
	<time>2024-09-06T07:30:16.000Z</time>
</trkpt>
<trkpt lat="46.1339950" lon="10.1368000">
	<ele>1782.60</ele>
	<time>2024-09-06T07:30:17.000Z</time>
</trkpt>
<trkpt lat="46.1339950" lon="10.1368000">
	<ele>1782.60</ele>
	<time>2024-09-06T07:30:18.000Z</time>
</trkpt>
<trkpt lat="46.1339950" lon="10.1368000">
	<ele>1782.80</ele>
	<time>2024-09-06T07:30:19.000Z</time>
</trkpt>
<trkpt lat="46.1339930" lon="10.1368000">
	<ele>1782.80</ele>
	<time>2024-09-06T07:30:20.000Z</time>
</trkpt>
<trkpt lat="46.1339890" lon="10.1368010">
	<ele>1783.00</ele>
	<time>2024-09-06T07:30:21.000Z</time>
</trkpt>
<trkpt lat="46.1339840" lon="10.1368010">
	<ele>1783.20</ele>
	<time>2024-09-06T07:30:22.000Z</time>
</trkpt>
<trkpt lat="46.1339830" lon="10.1368030">
	<ele>1783.40</ele>
	<time>2024-09-06T07:30:23.000Z</time>
</trkpt>
<trkpt lat="46.1339830" lon="10.1368040">
	<ele>1783.60</ele>
	<time>2024-09-06T07:30:24.000Z</time>
</trkpt>
<trkpt lat="46.1339830" lon="10.1368090">
	<ele>1783.80</ele>
	<time>2024-09-06T07:30:25.000Z</time>
</trkpt>
<trkpt lat="46.1339830" lon="10.1368140">
	<ele>1784.00</ele>
	<time>2024-09-06T07:30:26.000Z</time>
</trkpt>
<trkpt lat="46.1339830" lon="10.1368220">
	<ele>1784.20</ele>
	<time>2024-09-06T07:30:27.000Z</time>
</trkpt>
<trkpt lat="46.1339830" lon="10.1368260">
	<ele>1784.40</ele>
	<time>2024-09-06T07:30:28.000Z</time>
</trkpt>
<trkpt lat="46.1339830" lon="10.1368290">
	<ele>1784.40</ele>
	<time>2024-09-06T07:30:29.000Z</time>
</trkpt>
<trkpt lat="46.1339830" lon="10.1368340">
	<ele>1784.60</ele>
	<time>2024-09-06T07:30:30.000Z</time>
</trkpt>
<trkpt lat="46.1339830" lon="10.1368390">
	<ele>1784.80</ele>
	<time>2024-09-06T07:30:31.000Z</time>
</trkpt>
<trkpt lat="46.1339810" lon="10.1368450">
	<ele>1784.80</ele>
	<time>2024-09-06T07:30:32.000Z</time>
</trkpt>
<trkpt lat="46.1339810" lon="10.1368470">
	<ele>1784.80</ele>
	<time>2024-09-06T07:30:33.000Z</time>
</trkpt>
<trkpt lat="46.1339800" lon="10.1368520">
	<ele>1785.00</ele>
	<time>2024-09-06T07:30:34.000Z</time>
</trkpt>
<trkpt lat="46.1339800" lon="10.1368610">
	<ele>1785.20</ele>
	<time>2024-09-06T07:30:35.000Z</time>
</trkpt>
<trkpt lat="46.1339800" lon="10.1368660">
	<ele>1785.20</ele>
	<time>2024-09-06T07:30:36.000Z</time>
</trkpt>
<trkpt lat="46.1339790" lon="10.1368700">
	<ele>1785.20</ele>
	<time>2024-09-06T07:30:37.000Z</time>
</trkpt>
<trkpt lat="46.1339790" lon="10.1368760">
	<ele>1785.40</ele>
	<time>2024-09-06T07:30:38.000Z</time>
</trkpt>
<trkpt lat="46.1339790" lon="10.1368780">
	<ele>1785.60</ele>
	<time>2024-09-06T07:30:39.000Z</time>
</trkpt>
<trkpt lat="46.1339790" lon="10.1368830">
	<ele>1785.60</ele>
	<time>2024-09-06T07:30:40.000Z</time>
</trkpt>
<trkpt lat="46.1339790" lon="10.1368860">
	<ele>1785.80</ele>
	<time>2024-09-06T07:30:41.000Z</time>
</trkpt>
<trkpt lat="46.1339790" lon="10.1368880">
	<ele>1785.80</ele>
	<time>2024-09-06T07:30:42.000Z</time>
</trkpt>
<trkpt lat="46.1339790" lon="10.1368970">
	<ele>1786.00</ele>
	<time>2024-09-06T07:30:43.000Z</time>
</trkpt>
<trkpt lat="46.1339790" lon="10.1369050">
	<ele>1786.20</ele>
	<time>2024-09-06T07:30:44.000Z</time>
</trkpt>
<trkpt lat="46.1339790" lon="10.1369070">
	<ele>1786.20</ele>
	<time>2024-09-06T07:30:45.000Z</time>
</trkpt>
<trkpt lat="46.1339790" lon="10.1369080">
	<ele>1786.40</ele>
	<time>2024-09-06T07:30:46.000Z</time>
</trkpt>
<trkpt lat="46.1339790" lon="10.1369090">
	<ele>1786.60</ele>
	<time>2024-09-06T07:30:47.000Z</time>
</trkpt>
<trkpt lat="46.1339790" lon="10.1369100">
	<ele>1786.80</ele>
	<time>2024-09-06T07:30:48.000Z</time>
</trkpt>
<trkpt lat="46.1339780" lon="10.1369110">
	<ele>1787.00</ele>
	<time>2024-09-06T07:30:49.000Z</time>
</trkpt>
<trkpt lat="46.1339680" lon="10.1369100">
	<ele>1787.20</ele>
	<time>2024-09-06T07:30:50.000Z</time>
</trkpt>
<trkpt lat="46.1339500" lon="10.1369030">
	<ele>1787.40</ele>
	<time>2024-09-06T07:30:51.000Z</time>
</trkpt>
<trkpt lat="46.1339330" lon="10.1368940">
	<ele>1787.40</ele>
	<time>2024-09-06T07:30:52.000Z</time>
</trkpt>
<trkpt lat="46.1339220" lon="10.1368950">
	<ele>1787.80</ele>
	<time>2024-09-06T07:30:53.000Z</time>
</trkpt>
<trkpt lat="46.1339140" lon="10.1368980">
	<ele>1788.00</ele>
	<time>2024-09-06T07:30:54.000Z</time>
</trkpt>
<trkpt lat="46.1339040" lon="10.1369060">
	<ele>1788.00</ele>
	<time>2024-09-06T07:30:55.000Z</time>
</trkpt>
<trkpt lat="46.1338890" lon="10.1369120">
	<ele>1788.00</ele>
	<time>2024-09-06T07:30:56.000Z</time>
</trkpt>
<trkpt lat="46.1338710" lon="10.1369200">
	<ele>1788.20</ele>
	<time>2024-09-06T07:30:57.000Z</time>
</trkpt>
<trkpt lat="46.1338540" lon="10.1369300">
	<ele>1788.40</ele>
	<time>2024-09-06T07:30:58.000Z</time>
</trkpt>
<trkpt lat="46.1338390" lon="10.1369410">
	<ele>1788.60</ele>
	<time>2024-09-06T07:30:59.000Z</time>
</trkpt>
<trkpt lat="46.1338340" lon="10.1369440">
	<ele>1789.00</ele>
	<time>2024-09-06T07:31:00.000Z</time>
</trkpt>
<trkpt lat="46.1338360" lon="10.1369440">
	<ele>1789.20</ele>
	<time>2024-09-06T07:31:01.000Z</time>
</trkpt>
<trkpt lat="46.1338360" lon="10.1369360">
	<ele>1789.20</ele>
	<time>2024-09-06T07:31:02.000Z</time>
</trkpt>
<trkpt lat="46.1338350" lon="10.1369360">
	<ele>1789.40</ele>
	<time>2024-09-06T07:31:03.000Z</time>
</trkpt>
<trkpt lat="46.1338340" lon="10.1369310">
	<ele>1789.40</ele>
	<time>2024-09-06T07:31:04.000Z</time>
</trkpt>
<trkpt lat="46.1338300" lon="10.1369290">
	<ele>1789.40</ele>
	<time>2024-09-06T07:31:05.000Z</time>
</trkpt>
<trkpt lat="46.1338270" lon="10.1369310">
	<ele>1789.60</ele>
	<time>2024-09-06T07:31:06.000Z</time>
</trkpt>
<trkpt lat="46.1338220" lon="10.1369280">
	<ele>1789.80</ele>
	<time>2024-09-06T07:31:07.000Z</time>
</trkpt>
<trkpt lat="46.1338180" lon="10.1369290">
	<ele>1790.00</ele>
	<time>2024-09-06T07:31:08.000Z</time>
</trkpt>
<trkpt lat="46.1338140" lon="10.1369310">
	<ele>1790.20</ele>
	<time>2024-09-06T07:31:09.000Z</time>
</trkpt>
<trkpt lat="46.1338080" lon="10.1369300">
	<ele>1790.40</ele>
	<time>2024-09-06T07:31:10.000Z</time>
</trkpt>
<trkpt lat="46.1337950" lon="10.1369270">
	<ele>1790.60</ele>
	<time>2024-09-06T07:31:11.000Z</time>
</trkpt>
<trkpt lat="46.1337840" lon="10.1369230">
	<ele>1790.80</ele>
	<time>2024-09-06T07:31:12.000Z</time>
</trkpt>
<trkpt lat="46.1337800" lon="10.1369220">
	<ele>1791.00</ele>
	<time>2024-09-06T07:31:13.000Z</time>
</trkpt>
<trkpt lat="46.1337820" lon="10.1369290">
	<ele>1791.20</ele>
	<time>2024-09-06T07:31:14.000Z</time>
</trkpt>
<trkpt lat="46.1337800" lon="10.1369320">
	<ele>1791.20</ele>
	<time>2024-09-06T07:31:15.000Z</time>
</trkpt>
<trkpt lat="46.1337850" lon="10.1369330">
	<ele>1791.60</ele>
	<time>2024-09-06T07:31:16.000Z</time>
</trkpt>
<trkpt lat="46.1337880" lon="10.1369360">
	<ele>1791.80</ele>
	<time>2024-09-06T07:31:17.000Z</time>
</trkpt>
<trkpt lat="46.1337870" lon="10.1369450">
	<ele>1791.80</ele>
	<time>2024-09-06T07:31:18.000Z</time>
</trkpt>
<trkpt lat="46.1337890" lon="10.1369530">
	<ele>1792.00</ele>
	<time>2024-09-06T07:31:19.000Z</time>
</trkpt>
<trkpt lat="46.1337900" lon="10.1369560">
	<ele>1792.20</ele>
	<time>2024-09-06T07:31:20.000Z</time>
</trkpt>
<trkpt lat="46.1337880" lon="10.1369570">
	<ele>1792.20</ele>
	<time>2024-09-06T07:31:21.000Z</time>
</trkpt>
<trkpt lat="46.1337860" lon="10.1369590">
	<ele>1792.40</ele>
	<time>2024-09-06T07:31:22.000Z</time>
</trkpt>
<trkpt lat="46.1337780" lon="10.1369600">
	<ele>1792.40</ele>
	<time>2024-09-06T07:31:23.000Z</time>
</trkpt>
<trkpt lat="46.1337710" lon="10.1369550">
	<ele>1792.60</ele>
	<time>2024-09-06T07:31:24.000Z</time>
</trkpt>
<trkpt lat="46.1337690" lon="10.1369590">
	<ele>1792.80</ele>
	<time>2024-09-06T07:31:25.000Z</time>
</trkpt>
<trkpt lat="46.1337670" lon="10.1369600">
	<ele>1793.00</ele>
	<time>2024-09-06T07:31:26.000Z</time>
</trkpt>
<trkpt lat="46.1337630" lon="10.1369640">
	<ele>1793.20</ele>
	<time>2024-09-06T07:31:27.000Z</time>
</trkpt>
<trkpt lat="46.1337590" lon="10.1369680">
	<ele>1793.40</ele>
	<time>2024-09-06T07:31:28.000Z</time>
</trkpt>
<trkpt lat="46.1337510" lon="10.1369690">
	<ele>1793.60</ele>
	<time>2024-09-06T07:31:29.000Z</time>
</trkpt>
<trkpt lat="46.1337430" lon="10.1369700">
	<ele>1793.80</ele>
	<time>2024-09-06T07:31:30.000Z</time>
</trkpt>
<trkpt lat="46.1337410" lon="10.1369750">
	<ele>1794.00</ele>
	<time>2024-09-06T07:31:31.000Z</time>
</trkpt>
<trkpt lat="46.1337430" lon="10.1369780">
	<ele>1794.20</ele>
	<time>2024-09-06T07:31:32.000Z</time>
</trkpt>
<trkpt lat="46.1337370" lon="10.1369770">
	<ele>1794.40</ele>
	<time>2024-09-06T07:31:33.000Z</time>
</trkpt>
<trkpt lat="46.1337370" lon="10.1369820">
	<ele>1794.60</ele>
	<time>2024-09-06T07:31:34.000Z</time>
</trkpt>
<trkpt lat="46.1337340" lon="10.1369870">
	<ele>1794.80</ele>
	<time>2024-09-06T07:31:35.000Z</time>
</trkpt>
<trkpt lat="46.1337310" lon="10.1369850">
	<ele>1794.80</ele>
	<time>2024-09-06T07:31:36.000Z</time>
</trkpt>
<trkpt lat="46.1337210" lon="10.1369820">
	<ele>1795.20</ele>
	<time>2024-09-06T07:31:37.000Z</time>
</trkpt>
<trkpt lat="46.1337100" lon="10.1369860">
	<ele>1795.40</ele>
	<time>2024-09-06T07:31:38.000Z</time>
</trkpt>
<trkpt lat="46.1337080" lon="10.1369870">
	<ele>1795.40</ele>
	<time>2024-09-06T07:31:39.000Z</time>
</trkpt>
<trkpt lat="46.1337040" lon="10.1369870">
	<ele>1795.60</ele>
	<time>2024-09-06T07:31:40.000Z</time>
</trkpt>
<trkpt lat="46.1337020" lon="10.1369900">
	<ele>1795.60</ele>
	<time>2024-09-06T07:31:41.000Z</time>
</trkpt>
<trkpt lat="46.1336970" lon="10.1369970">
	<ele>1795.80</ele>
	<time>2024-09-06T07:31:42.000Z</time>
</trkpt>
<trkpt lat="46.1336950" lon="10.1369950">
	<ele>1795.80</ele>
	<time>2024-09-06T07:31:43.000Z</time>
</trkpt>
<trkpt lat="46.1336930" lon="10.1369950">
	<ele>1796.00</ele>
	<time>2024-09-06T07:31:44.000Z</time>
</trkpt>
<trkpt lat="46.1336920" lon="10.1369950">
	<ele>1796.00</ele>
	<time>2024-09-06T07:31:45.000Z</time>
</trkpt>
<trkpt lat="46.1336900" lon="10.1369960">
	<ele>1796.20</ele>
	<time>2024-09-06T07:31:46.000Z</time>
</trkpt>
<trkpt lat="46.1336860" lon="10.1370010">
	<ele>1796.40</ele>
	<time>2024-09-06T07:31:47.000Z</time>
</trkpt>
<trkpt lat="46.1336840" lon="10.1370080">
	<ele>1796.60</ele>
	<time>2024-09-06T07:31:48.000Z</time>
</trkpt>
<trkpt lat="46.1336820" lon="10.1370110">
	<ele>1796.80</ele>
	<time>2024-09-06T07:31:49.000Z</time>
</trkpt>
<trkpt lat="46.1336850" lon="10.1370130">
	<ele>1796.80</ele>
	<time>2024-09-06T07:31:50.000Z</time>
</trkpt>
<trkpt lat="46.1336820" lon="10.1370190">
	<ele>1797.00</ele>
	<time>2024-09-06T07:31:51.000Z</time>
</trkpt>
<trkpt lat="46.1336840" lon="10.1370180">
	<ele>1797.00</ele>
	<time>2024-09-06T07:31:52.000Z</time>
</trkpt>
<trkpt lat="46.1336840" lon="10.1370240">
	<ele>1797.00</ele>
	<time>2024-09-06T07:31:53.000Z</time>
</trkpt>
<trkpt lat="46.1336870" lon="10.1370210">
	<ele>1797.00</ele>
	<time>2024-09-06T07:31:54.000Z</time>
</trkpt>
<trkpt lat="46.1336880" lon="10.1370180">
	<ele>1797.00</ele>
	<time>2024-09-06T07:31:55.000Z</time>
</trkpt>
<trkpt lat="46.1336910" lon="10.1370160">
	<ele>1797.20</ele>
	<time>2024-09-06T07:31:56.000Z</time>
</trkpt>
<trkpt lat="46.1336920" lon="10.1370150">
	<ele>1797.20</ele>
	<time>2024-09-06T07:31:57.000Z</time>
</trkpt>
<trkpt lat="46.1336920" lon="10.1370150">
	<ele>1797.20</ele>
	<time>2024-09-06T07:31:58.000Z</time>
</trkpt>
<trkpt lat="46.1336860" lon="10.1370250">
	<ele>1797.20</ele>
	<time>2024-09-06T07:31:59.000Z</time>
</trkpt>
<trkpt lat="46.1336860" lon="10.1370290">
	<ele>1797.20</ele>
	<time>2024-09-06T07:32:00.000Z</time>
</trkpt>
<trkpt lat="46.1336930" lon="10.1370230">
	<ele>1797.40</ele>
	<time>2024-09-06T07:32:01.000Z</time>
</trkpt>
<trkpt lat="46.1336940" lon="10.1370230">
	<ele>1797.40</ele>
	<time>2024-09-06T07:32:02.000Z</time>
</trkpt>
<trkpt lat="46.1336930" lon="10.1370260">
	<ele>1797.60</ele>
	<time>2024-09-06T07:32:03.000Z</time>
</trkpt>
<trkpt lat="46.1336810" lon="10.1370490">
	<ele>1797.60</ele>
	<time>2024-09-06T07:32:04.000Z</time>
</trkpt>
<trkpt lat="46.1336800" lon="10.1370520">
	<ele>1797.80</ele>
	<time>2024-09-06T07:32:05.000Z</time>
</trkpt>
<trkpt lat="46.1336780" lon="10.1370550">
	<ele>1797.80</ele>
	<time>2024-09-06T07:32:06.000Z</time>
</trkpt>
<trkpt lat="46.1336740" lon="10.1370650">
	<ele>1798.00</ele>
	<time>2024-09-06T07:32:07.000Z</time>
</trkpt>
<trkpt lat="46.1336710" lon="10.1370700">
	<ele>1798.00</ele>
	<time>2024-09-06T07:32:08.000Z</time>
</trkpt>
<trkpt lat="46.1336690" lon="10.1370670">
	<ele>1798.20</ele>
	<time>2024-09-06T07:32:09.000Z</time>
</trkpt>
<trkpt lat="46.1336680" lon="10.1370740">
	<ele>1798.40</ele>
	<time>2024-09-06T07:32:10.000Z</time>
</trkpt>
<trkpt lat="46.1336680" lon="10.1370820">
	<ele>1798.40</ele>
	<time>2024-09-06T07:32:11.000Z</time>
</trkpt>
<trkpt lat="46.1336670" lon="10.1370870">
	<ele>1798.60</ele>
	<time>2024-09-06T07:32:12.000Z</time>
</trkpt>
<trkpt lat="46.1336630" lon="10.1370970">
	<ele>1798.60</ele>
	<time>2024-09-06T07:32:13.000Z</time>
</trkpt>
<trkpt lat="46.1336610" lon="10.1371050">
	<ele>1798.80</ele>
	<time>2024-09-06T07:32:14.000Z</time>
</trkpt>
<trkpt lat="46.1336580" lon="10.1371160">
	<ele>1799.00</ele>
	<time>2024-09-06T07:32:15.000Z</time>
</trkpt>
<trkpt lat="46.1336580" lon="10.1371230">
	<ele>1799.20</ele>
	<time>2024-09-06T07:32:16.000Z</time>
</trkpt>
<trkpt lat="46.1336590" lon="10.1371330">
	<ele>1799.20</ele>
	<time>2024-09-06T07:32:17.000Z</time>
</trkpt>
<trkpt lat="46.1336600" lon="10.1371420">
	<ele>1799.40</ele>
	<time>2024-09-06T07:32:18.000Z</time>
</trkpt>
<trkpt lat="46.1336600" lon="10.1371540">
	<ele>1799.60</ele>
	<time>2024-09-06T07:32:19.000Z</time>
</trkpt>
<trkpt lat="46.1336630" lon="10.1371590">
	<ele>1799.60</ele>
	<time>2024-09-06T07:32:20.000Z</time>
</trkpt>
<trkpt lat="46.1336650" lon="10.1371660">
	<ele>1799.80</ele>
	<time>2024-09-06T07:32:21.000Z</time>
</trkpt>
<trkpt lat="46.1336690" lon="10.1371740">
	<ele>1800.00</ele>
	<time>2024-09-06T07:32:22.000Z</time>
</trkpt>
<trkpt lat="46.1336780" lon="10.1371800">
	<ele>1800.20</ele>
	<time>2024-09-06T07:32:23.000Z</time>
</trkpt>
<trkpt lat="46.1336820" lon="10.1371870">
	<ele>1800.40</ele>
	<time>2024-09-06T07:32:24.000Z</time>
</trkpt>
<trkpt lat="46.1336800" lon="10.1371970">
	<ele>1800.80</ele>
	<time>2024-09-06T07:32:25.000Z</time>
</trkpt>
<trkpt lat="46.1336760" lon="10.1372100">
	<ele>1800.80</ele>
	<time>2024-09-06T07:32:26.000Z</time>
</trkpt>
<trkpt lat="46.1336760" lon="10.1372180">
	<ele>1801.00</ele>
	<time>2024-09-06T07:32:27.000Z</time>
</trkpt>
<trkpt lat="46.1336750" lon="10.1372230">
	<ele>1801.00</ele>
	<time>2024-09-06T07:32:28.000Z</time>
</trkpt>
<trkpt lat="46.1336680" lon="10.1372270">
	<ele>1801.20</ele>
	<time>2024-09-06T07:32:29.000Z</time>
</trkpt>
<trkpt lat="46.1336640" lon="10.1372330">
	<ele>1801.40</ele>
	<time>2024-09-06T07:32:30.000Z</time>
</trkpt>
<trkpt lat="46.1336610" lon="10.1372380">
	<ele>1801.40</ele>
	<time>2024-09-06T07:32:31.000Z</time>
</trkpt>
<trkpt lat="46.1336590" lon="10.1372480">
	<ele>1801.60</ele>
	<time>2024-09-06T07:32:32.000Z</time>
</trkpt>
<trkpt lat="46.1336540" lon="10.1372500">
	<ele>1801.60</ele>
	<time>2024-09-06T07:32:33.000Z</time>
</trkpt>
<trkpt lat="46.1336610" lon="10.1372600">
	<ele>1801.80</ele>
	<time>2024-09-06T07:32:34.000Z</time>
</trkpt>
<trkpt lat="46.1336640" lon="10.1372760">
	<ele>1802.00</ele>
	<time>2024-09-06T07:32:35.000Z</time>
</trkpt>
<trkpt lat="46.1336600" lon="10.1372880">
	<ele>1802.00</ele>
	<time>2024-09-06T07:32:36.000Z</time>
</trkpt>
<trkpt lat="46.1336530" lon="10.1372920">
	<ele>1802.20</ele>
	<time>2024-09-06T07:32:37.000Z</time>
</trkpt>
<trkpt lat="46.1336480" lon="10.1372990">
	<ele>1802.40</ele>
	<time>2024-09-06T07:32:38.000Z</time>
</trkpt>
<trkpt lat="46.1336400" lon="10.1373270">
	<ele>1802.60</ele>
	<time>2024-09-06T07:32:39.000Z</time>
</trkpt>
<trkpt lat="46.1336420" lon="10.1373310">
	<ele>1802.60</ele>
	<time>2024-09-06T07:32:40.000Z</time>
</trkpt>
<trkpt lat="46.1336460" lon="10.1373380">
	<ele>1802.80</ele>
	<time>2024-09-06T07:32:41.000Z</time>
</trkpt>
<trkpt lat="46.1336510" lon="10.1373480">
	<ele>1803.00</ele>
	<time>2024-09-06T07:32:42.000Z</time>
</trkpt>
<trkpt lat="46.1336570" lon="10.1373550">
	<ele>1803.20</ele>
	<time>2024-09-06T07:32:43.000Z</time>
</trkpt>
<trkpt lat="46.1336620" lon="10.1373580">
	<ele>1803.20</ele>
	<time>2024-09-06T07:32:44.000Z</time>
</trkpt>
<trkpt lat="46.1336560" lon="10.1373700">
	<ele>1803.40</ele>
	<time>2024-09-06T07:32:45.000Z</time>
</trkpt>
<trkpt lat="46.1336520" lon="10.1373820">
	<ele>1803.40</ele>
	<time>2024-09-06T07:32:46.000Z</time>
</trkpt>
<trkpt lat="46.1336470" lon="10.1373990">
	<ele>1803.60</ele>
	<time>2024-09-06T07:32:47.000Z</time>
</trkpt>
<trkpt lat="46.1336430" lon="10.1374160">
	<ele>1803.60</ele>
	<time>2024-09-06T07:32:48.000Z</time>
</trkpt>
<trkpt lat="46.1336380" lon="10.1374350">
	<ele>1803.80</ele>
	<time>2024-09-06T07:32:49.000Z</time>
</trkpt>
<trkpt lat="46.1336320" lon="10.1374500">
	<ele>1803.80</ele>
	<time>2024-09-06T07:32:50.000Z</time>
</trkpt>
<trkpt lat="46.1336270" lon="10.1374580">
	<ele>1804.00</ele>
	<time>2024-09-06T07:32:51.000Z</time>
</trkpt>
<trkpt lat="46.1336210" lon="10.1374680">
	<ele>1804.00</ele>
	<time>2024-09-06T07:32:52.000Z</time>
</trkpt>
<trkpt lat="46.1336130" lon="10.1374830">
	<ele>1804.20</ele>
	<time>2024-09-06T07:32:53.000Z</time>
</trkpt>
<trkpt lat="46.1336090" lon="10.1374950">
	<ele>1804.20</ele>
	<time>2024-09-06T07:32:54.000Z</time>
</trkpt>
<trkpt lat="46.1336060" lon="10.1375100">
	<ele>1804.40</ele>
	<time>2024-09-06T07:32:55.000Z</time>
</trkpt>
<trkpt lat="46.1335980" lon="10.1375280">
	<ele>1804.40</ele>
	<time>2024-09-06T07:32:56.000Z</time>
</trkpt>
<trkpt lat="46.1335910" lon="10.1375490">
	<ele>1804.40</ele>
	<time>2024-09-06T07:32:57.000Z</time>
</trkpt>
<trkpt lat="46.1335880" lon="10.1375610">
	<ele>1804.40</ele>
	<time>2024-09-06T07:32:58.000Z</time>
</trkpt>
<trkpt lat="46.1335850" lon="10.1375670">
	<ele>1804.60</ele>
	<time>2024-09-06T07:32:59.000Z</time>
</trkpt>
<trkpt lat="46.1335840" lon="10.1375800">
	<ele>1804.60</ele>
	<time>2024-09-06T07:33:00.000Z</time>
</trkpt>
<trkpt lat="46.1335820" lon="10.1375870">
	<ele>1804.60</ele>
	<time>2024-09-06T07:33:01.000Z</time>
</trkpt>
<trkpt lat="46.1335790" lon="10.1375920">
	<ele>1804.60</ele>
	<time>2024-09-06T07:33:02.000Z</time>
</trkpt>
<trkpt lat="46.1335790" lon="10.1376000">
	<ele>1804.60</ele>
	<time>2024-09-06T07:33:03.000Z</time>
</trkpt>
<trkpt lat="46.1335760" lon="10.1376140">
	<ele>1804.80</ele>
	<time>2024-09-06T07:33:04.000Z</time>
</trkpt>
<trkpt lat="46.1335680" lon="10.1376290">
	<ele>1804.80</ele>
	<time>2024-09-06T07:33:05.000Z</time>
</trkpt>
<trkpt lat="46.1335610" lon="10.1376440">
	<ele>1805.00</ele>
	<time>2024-09-06T07:33:06.000Z</time>
</trkpt>
<trkpt lat="46.1335620" lon="10.1376590">
	<ele>1805.00</ele>
	<time>2024-09-06T07:33:07.000Z</time>
</trkpt>
<trkpt lat="46.1335620" lon="10.1376710">
	<ele>1805.20</ele>
	<time>2024-09-06T07:33:08.000Z</time>
</trkpt>
<trkpt lat="46.1335630" lon="10.1376830">
	<ele>1805.20</ele>
	<time>2024-09-06T07:33:09.000Z</time>
</trkpt>
<trkpt lat="46.1335620" lon="10.1376930">
	<ele>1805.40</ele>
	<time>2024-09-06T07:33:10.000Z</time>
</trkpt>
<trkpt lat="46.1335600" lon="10.1377090">
	<ele>1805.60</ele>
	<time>2024-09-06T07:33:11.000Z</time>
</trkpt>
<trkpt lat="46.1335630" lon="10.1377180">
	<ele>1805.80</ele>
	<time>2024-09-06T07:33:12.000Z</time>
</trkpt>
<trkpt lat="46.1335670" lon="10.1377270">
	<ele>1805.80</ele>
	<time>2024-09-06T07:33:13.000Z</time>
</trkpt>
<trkpt lat="46.1335700" lon="10.1377300">
	<ele>1806.00</ele>
	<time>2024-09-06T07:33:14.000Z</time>
</trkpt>
<trkpt lat="46.1335760" lon="10.1377350">
	<ele>1806.20</ele>
	<time>2024-09-06T07:33:15.000Z</time>
</trkpt>
<trkpt lat="46.1335830" lon="10.1377430">
	<ele>1806.20</ele>
	<time>2024-09-06T07:33:16.000Z</time>
</trkpt>
<trkpt lat="46.1335910" lon="10.1377540">
	<ele>1806.40</ele>
	<time>2024-09-06T07:33:17.000Z</time>
</trkpt>
<trkpt lat="46.1335950" lon="10.1377660">
	<ele>1806.40</ele>
	<time>2024-09-06T07:33:18.000Z</time>
</trkpt>
<trkpt lat="46.1335960" lon="10.1377740">
	<ele>1806.60</ele>
	<time>2024-09-06T07:33:19.000Z</time>
</trkpt>
<trkpt lat="46.1335960" lon="10.1377860">
	<ele>1806.80</ele>
	<time>2024-09-06T07:33:20.000Z</time>
</trkpt>
<trkpt lat="46.1336010" lon="10.1377940">
	<ele>1806.80</ele>
	<time>2024-09-06T07:33:21.000Z</time>
</trkpt>
<trkpt lat="46.1336000" lon="10.1378030">
	<ele>1807.00</ele>
	<time>2024-09-06T07:33:22.000Z</time>
</trkpt>
<trkpt lat="46.1335940" lon="10.1378110">
	<ele>1807.00</ele>
	<time>2024-09-06T07:33:23.000Z</time>
</trkpt>
<trkpt lat="46.1335950" lon="10.1378110">
	<ele>1807.00</ele>
	<time>2024-09-06T07:33:24.000Z</time>
</trkpt>
<trkpt lat="46.1335930" lon="10.1378160">
	<ele>1807.20</ele>
	<time>2024-09-06T07:33:25.000Z</time>
</trkpt>
<trkpt lat="46.1335940" lon="10.1378150">
	<ele>1807.20</ele>
	<time>2024-09-06T07:33:26.000Z</time>
</trkpt>
<trkpt lat="46.1335930" lon="10.1378270">
	<ele>1807.40</ele>
	<time>2024-09-06T07:33:27.000Z</time>
</trkpt>
<trkpt lat="46.1335940" lon="10.1378380">
	<ele>1807.60</ele>
	<time>2024-09-06T07:33:28.000Z</time>
</trkpt>
<trkpt lat="46.1335890" lon="10.1378510">
	<ele>1807.80</ele>
	<time>2024-09-06T07:33:29.000Z</time>
</trkpt>
<trkpt lat="46.1335900" lon="10.1378620">
	<ele>1808.00</ele>
	<time>2024-09-06T07:33:30.000Z</time>
</trkpt>
<trkpt lat="46.1335910" lon="10.1378660">
	<ele>1808.00</ele>
	<time>2024-09-06T07:33:31.000Z</time>
</trkpt>
<trkpt lat="46.1335880" lon="10.1378750">
	<ele>1808.00</ele>
	<time>2024-09-06T07:33:32.000Z</time>
</trkpt>
<trkpt lat="46.1335870" lon="10.1378800">
	<ele>1808.20</ele>
	<time>2024-09-06T07:33:33.000Z</time>
</trkpt>
<trkpt lat="46.1335860" lon="10.1378880">
	<ele>1808.40</ele>
	<time>2024-09-06T07:33:34.000Z</time>
</trkpt>
<trkpt lat="46.1335890" lon="10.1378970">
	<ele>1808.40</ele>
	<time>2024-09-06T07:33:35.000Z</time>
</trkpt>
<trkpt lat="46.1336000" lon="10.1379010">
	<ele>1808.60</ele>
	<time>2024-09-06T07:33:36.000Z</time>
</trkpt>
<trkpt lat="46.1336040" lon="10.1379130">
	<ele>1808.60</ele>
	<time>2024-09-06T07:33:37.000Z</time>
</trkpt>
<trkpt lat="46.1336020" lon="10.1379260">
	<ele>1808.80</ele>
	<time>2024-09-06T07:33:38.000Z</time>
</trkpt>
<trkpt lat="46.1336020" lon="10.1379280">
	<ele>1808.80</ele>
	<time>2024-09-06T07:33:39.000Z</time>
</trkpt>
<trkpt lat="46.1335940" lon="10.1379430">
	<ele>1808.80</ele>
	<time>2024-09-06T07:33:40.000Z</time>
</trkpt>
<trkpt lat="46.1335890" lon="10.1379550">
	<ele>1808.80</ele>
	<time>2024-09-06T07:33:41.000Z</time>
</trkpt>
<trkpt lat="46.1335860" lon="10.1379670">
	<ele>1809.00</ele>
	<time>2024-09-06T07:33:42.000Z</time>
</trkpt>
<trkpt lat="46.1335820" lon="10.1379830">
	<ele>1809.00</ele>
	<time>2024-09-06T07:33:43.000Z</time>
</trkpt>
<trkpt lat="46.1335860" lon="10.1380060">
	<ele>1809.00</ele>
	<time>2024-09-06T07:33:44.000Z</time>
</trkpt>
<trkpt lat="46.1335930" lon="10.1380210">
	<ele>1809.20</ele>
	<time>2024-09-06T07:33:45.000Z</time>
</trkpt>
<trkpt lat="46.1335930" lon="10.1380380">
	<ele>1809.20</ele>
	<time>2024-09-06T07:33:46.000Z</time>
</trkpt>
<trkpt lat="46.1335940" lon="10.1380540">
	<ele>1809.20</ele>
	<time>2024-09-06T07:33:47.000Z</time>
</trkpt>
<trkpt lat="46.1335970" lon="10.1380660">
	<ele>1809.40</ele>
	<time>2024-09-06T07:33:48.000Z</time>
</trkpt>
<trkpt lat="46.1336030" lon="10.1380700">
	<ele>1809.40</ele>
	<time>2024-09-06T07:33:49.000Z</time>
</trkpt>
<trkpt lat="46.1336020" lon="10.1380860">
	<ele>1809.40</ele>
	<time>2024-09-06T07:33:50.000Z</time>
</trkpt>
<trkpt lat="46.1336040" lon="10.1381030">
	<ele>1809.60</ele>
	<time>2024-09-06T07:33:51.000Z</time>
</trkpt>
<trkpt lat="46.1336040" lon="10.1381140">
	<ele>1809.80</ele>
	<time>2024-09-06T07:33:52.000Z</time>
</trkpt>
<trkpt lat="46.1335980" lon="10.1381260">
	<ele>1810.00</ele>
	<time>2024-09-06T07:33:53.000Z</time>
</trkpt>
<trkpt lat="46.1335910" lon="10.1381400">
	<ele>1810.00</ele>
	<time>2024-09-06T07:33:54.000Z</time>
</trkpt>
<trkpt lat="46.1335910" lon="10.1381500">
	<ele>1810.00</ele>
	<time>2024-09-06T07:33:55.000Z</time>
</trkpt>
<trkpt lat="46.1335920" lon="10.1381570">
	<ele>1810.20</ele>
	<time>2024-09-06T07:33:56.000Z</time>
</trkpt>
<trkpt lat="46.1336040" lon="10.1381580">
	<ele>1810.40</ele>
	<time>2024-09-06T07:33:57.000Z</time>
</trkpt>
<trkpt lat="46.1336200" lon="10.1381620">
	<ele>1810.40</ele>
	<time>2024-09-06T07:33:58.000Z</time>
</trkpt>
<trkpt lat="46.1336260" lon="10.1381650">
	<ele>1810.60</ele>
	<time>2024-09-06T07:33:59.000Z</time>
</trkpt>
<trkpt lat="46.1336300" lon="10.1381670">
	<ele>1810.80</ele>
	<time>2024-09-06T07:34:00.000Z</time>
</trkpt>
<trkpt lat="46.1336300" lon="10.1381650">
	<ele>1811.20</ele>
	<time>2024-09-06T07:34:01.000Z</time>
</trkpt>
<trkpt lat="46.1336300" lon="10.1381670">
	<ele>1811.40</ele>
	<time>2024-09-06T07:34:02.000Z</time>
</trkpt>
<trkpt lat="46.1336340" lon="10.1381800">
	<ele>1811.60</ele>
	<time>2024-09-06T07:34:03.000Z</time>
</trkpt>
<trkpt lat="46.1336410" lon="10.1381970">
	<ele>1811.80</ele>
	<time>2024-09-06T07:34:04.000Z</time>
</trkpt>
<trkpt lat="46.1336480" lon="10.1382260">
	<ele>1811.80</ele>
	<time>2024-09-06T07:34:05.000Z</time>
</trkpt>
<trkpt lat="46.1336510" lon="10.1382430">
	<ele>1812.00</ele>
	<time>2024-09-06T07:34:06.000Z</time>
</trkpt>
<trkpt lat="46.1336460" lon="10.1382580">
	<ele>1812.20</ele>
	<time>2024-09-06T07:34:07.000Z</time>
</trkpt>
<trkpt lat="46.1336470" lon="10.1382700">
	<ele>1812.20</ele>
	<time>2024-09-06T07:34:08.000Z</time>
</trkpt>
<trkpt lat="46.1336550" lon="10.1382760">
	<ele>1812.40</ele>
	<time>2024-09-06T07:34:09.000Z</time>
</trkpt>
<trkpt lat="46.1336620" lon="10.1382830">
	<ele>1812.40</ele>
	<time>2024-09-06T07:34:10.000Z</time>
</trkpt>
<trkpt lat="46.1336670" lon="10.1382870">
	<ele>1812.60</ele>
	<time>2024-09-06T07:34:11.000Z</time>
</trkpt>
<trkpt lat="46.1336710" lon="10.1382920">
	<ele>1812.80</ele>
	<time>2024-09-06T07:34:12.000Z</time>
</trkpt>
<trkpt lat="46.1336750" lon="10.1382950">
	<ele>1812.80</ele>
	<time>2024-09-06T07:34:13.000Z</time>
</trkpt>
<trkpt lat="46.1336820" lon="10.1383000">
	<ele>1813.00</ele>
	<time>2024-09-06T07:34:14.000Z</time>
</trkpt>
<trkpt lat="46.1336860" lon="10.1383020">
	<ele>1813.20</ele>
	<time>2024-09-06T07:34:15.000Z</time>
</trkpt>
<trkpt lat="46.1336890" lon="10.1383030">
	<ele>1813.60</ele>
	<time>2024-09-06T07:34:16.000Z</time>
</trkpt>
<trkpt lat="46.1336880" lon="10.1383090">
	<ele>1813.80</ele>
	<time>2024-09-06T07:34:17.000Z</time>
</trkpt>
<trkpt lat="46.1336900" lon="10.1383170">
	<ele>1814.00</ele>
	<time>2024-09-06T07:34:18.000Z</time>
</trkpt>
<trkpt lat="46.1337010" lon="10.1383230">
	<ele>1814.00</ele>
	<time>2024-09-06T07:34:19.000Z</time>
</trkpt>
<trkpt lat="46.1337080" lon="10.1383280">
	<ele>1814.20</ele>
	<time>2024-09-06T07:34:20.000Z</time>
</trkpt>
<trkpt lat="46.1337160" lon="10.1383290">
	<ele>1814.20</ele>
	<time>2024-09-06T07:34:21.000Z</time>
</trkpt>
<trkpt lat="46.1337260" lon="10.1383240">
	<ele>1814.20</ele>
	<time>2024-09-06T07:34:22.000Z</time>
</trkpt>
<trkpt lat="46.1337260" lon="10.1383270">
	<ele>1814.20</ele>
	<time>2024-09-06T07:34:23.000Z</time>
</trkpt>
<trkpt lat="46.1337270" lon="10.1383400">
	<ele>1814.60</ele>
	<time>2024-09-06T07:34:24.000Z</time>
</trkpt>
<trkpt lat="46.1337270" lon="10.1383450">
	<ele>1814.60</ele>
	<time>2024-09-06T07:34:25.000Z</time>
</trkpt>
<trkpt lat="46.1337320" lon="10.1383410">
	<ele>1814.80</ele>
	<time>2024-09-06T07:34:26.000Z</time>
</trkpt>
<trkpt lat="46.1337340" lon="10.1383450">
	<ele>1814.80</ele>
	<time>2024-09-06T07:34:27.000Z</time>
</trkpt>
<trkpt lat="46.1337320" lon="10.1383600">
	<ele>1815.00</ele>
	<time>2024-09-06T07:34:28.000Z</time>
</trkpt>
<trkpt lat="46.1337340" lon="10.1383710">
	<ele>1815.20</ele>
	<time>2024-09-06T07:34:29.000Z</time>
</trkpt>
<trkpt lat="46.1337330" lon="10.1383760">
	<ele>1815.20</ele>
	<time>2024-09-06T07:34:30.000Z</time>
</trkpt>
<trkpt lat="46.1337300" lon="10.1383820">
	<ele>1815.40</ele>
	<time>2024-09-06T07:34:31.000Z</time>
</trkpt>
<trkpt lat="46.1337230" lon="10.1383820">
	<ele>1815.40</ele>
	<time>2024-09-06T07:34:32.000Z</time>
</trkpt>
<trkpt lat="46.1337180" lon="10.1383820">
	<ele>1815.60</ele>
	<time>2024-09-06T07:34:33.000Z</time>
</trkpt>
<trkpt lat="46.1337120" lon="10.1383840">
	<ele>1815.60</ele>
	<time>2024-09-06T07:34:34.000Z</time>
</trkpt>
<trkpt lat="46.1337060" lon="10.1383950">
	<ele>1815.80</ele>
	<time>2024-09-06T07:34:35.000Z</time>
</trkpt>
<trkpt lat="46.1336990" lon="10.1384030">
	<ele>1816.00</ele>
	<time>2024-09-06T07:34:36.000Z</time>
</trkpt>
<trkpt lat="46.1336950" lon="10.1384050">
	<ele>1816.20</ele>
	<time>2024-09-06T07:34:37.000Z</time>
</trkpt>
<trkpt lat="46.1336880" lon="10.1384130">
	<ele>1816.40</ele>
	<time>2024-09-06T07:34:38.000Z</time>
</trkpt>
<trkpt lat="46.1336820" lon="10.1384180">
	<ele>1816.40</ele>
	<time>2024-09-06T07:34:39.000Z</time>
</trkpt>
<trkpt lat="46.1336790" lon="10.1384190">
	<ele>1816.60</ele>
	<time>2024-09-06T07:34:40.000Z</time>
</trkpt>
<trkpt lat="46.1336740" lon="10.1384210">
	<ele>1816.80</ele>
	<time>2024-09-06T07:34:41.000Z</time>
</trkpt>
<trkpt lat="46.1336700" lon="10.1384190">
	<ele>1817.00</ele>
	<time>2024-09-06T07:34:42.000Z</time>
</trkpt>
<trkpt lat="46.1336660" lon="10.1384130">
	<ele>1817.00</ele>
	<time>2024-09-06T07:34:43.000Z</time>
</trkpt>
<trkpt lat="46.1336590" lon="10.1384130">
	<ele>1817.20</ele>
	<time>2024-09-06T07:34:44.000Z</time>
</trkpt>
<trkpt lat="46.1336520" lon="10.1384200">
	<ele>1817.40</ele>
	<time>2024-09-06T07:34:45.000Z</time>
</trkpt>
<trkpt lat="46.1336470" lon="10.1384310">
	<ele>1817.40</ele>
	<time>2024-09-06T07:34:46.000Z</time>
</trkpt>
<trkpt lat="46.1336420" lon="10.1384370">
	<ele>1817.60</ele>
	<time>2024-09-06T07:34:47.000Z</time>
</trkpt>
<trkpt lat="46.1336350" lon="10.1384460">
	<ele>1817.80</ele>
	<time>2024-09-06T07:34:48.000Z</time>
</trkpt>
<trkpt lat="46.1336290" lon="10.1384460">
	<ele>1818.00</ele>
	<time>2024-09-06T07:34:49.000Z</time>
</trkpt>
<trkpt lat="46.1336200" lon="10.1384480">
	<ele>1818.20</ele>
	<time>2024-09-06T07:34:50.000Z</time>
</trkpt>
<trkpt lat="46.1336130" lon="10.1384490">
	<ele>1818.20</ele>
	<time>2024-09-06T07:34:51.000Z</time>
</trkpt>
<trkpt lat="46.1336090" lon="10.1384520">
	<ele>1818.20</ele>
	<time>2024-09-06T07:34:52.000Z</time>
</trkpt>
<trkpt lat="46.1336100" lon="10.1384530">
	<ele>1818.40</ele>
	<time>2024-09-06T07:34:53.000Z</time>
</trkpt>
<trkpt lat="46.1336060" lon="10.1384560">
	<ele>1818.40</ele>
	<time>2024-09-06T07:34:54.000Z</time>
</trkpt>
<trkpt lat="46.1335990" lon="10.1384570">
	<ele>1818.40</ele>
	<time>2024-09-06T07:34:55.000Z</time>
</trkpt>
<trkpt lat="46.1335930" lon="10.1384620">
	<ele>1818.60</ele>
	<time>2024-09-06T07:34:56.000Z</time>
</trkpt>
<trkpt lat="46.1335870" lon="10.1384640">
	<ele>1818.60</ele>
	<time>2024-09-06T07:34:57.000Z</time>
</trkpt>
<trkpt lat="46.1335790" lon="10.1384660">
	<ele>1818.80</ele>
	<time>2024-09-06T07:34:58.000Z</time>
</trkpt>
<trkpt lat="46.1335710" lon="10.1384700">
	<ele>1818.80</ele>
	<time>2024-09-06T07:34:59.000Z</time>
</trkpt>
<trkpt lat="46.1335630" lon="10.1384760">
	<ele>1818.80</ele>
	<time>2024-09-06T07:35:00.000Z</time>
</trkpt>
<trkpt lat="46.1335540" lon="10.1384840">
	<ele>1819.00</ele>
	<time>2024-09-06T07:35:01.000Z</time>
</trkpt>
<trkpt lat="46.1335470" lon="10.1384950">
	<ele>1819.00</ele>
	<time>2024-09-06T07:35:02.000Z</time>
</trkpt>
<trkpt lat="46.1335430" lon="10.1385070">
	<ele>1819.00</ele>
	<time>2024-09-06T07:35:03.000Z</time>
</trkpt>
<trkpt lat="46.1335370" lon="10.1385150">
	<ele>1819.20</ele>
	<time>2024-09-06T07:35:04.000Z</time>
</trkpt>
<trkpt lat="46.1335330" lon="10.1385190">
	<ele>1819.20</ele>
	<time>2024-09-06T07:35:05.000Z</time>
</trkpt>
<trkpt lat="46.1335260" lon="10.1385230">
	<ele>1819.20</ele>
	<time>2024-09-06T07:35:06.000Z</time>
</trkpt>
<trkpt lat="46.1335200" lon="10.1385290">
	<ele>1819.40</ele>
	<time>2024-09-06T07:35:07.000Z</time>
</trkpt>
<trkpt lat="46.1335140" lon="10.1385340">
	<ele>1819.40</ele>
	<time>2024-09-06T07:35:08.000Z</time>
</trkpt>
<trkpt lat="46.1335070" lon="10.1385410">
	<ele>1819.40</ele>
	<time>2024-09-06T07:35:09.000Z</time>
</trkpt>
<trkpt lat="46.1334990" lon="10.1385470">
	<ele>1819.20</ele>
	<time>2024-09-06T07:35:10.000Z</time>
</trkpt>
<trkpt lat="46.1334900" lon="10.1385580">
	<ele>1819.40</ele>
	<time>2024-09-06T07:35:11.000Z</time>
</trkpt>
<trkpt lat="46.1334780" lon="10.1385680">
	<ele>1819.40</ele>
	<time>2024-09-06T07:35:12.000Z</time>
</trkpt>
<trkpt lat="46.1334620" lon="10.1385720">
	<ele>1819.40</ele>
	<time>2024-09-06T07:35:13.000Z</time>
</trkpt>
<trkpt lat="46.1334560" lon="10.1385720">
	<ele>1819.40</ele>
	<time>2024-09-06T07:35:14.000Z</time>
</trkpt>
<trkpt lat="46.1334520" lon="10.1385800">
	<ele>1819.40</ele>
	<time>2024-09-06T07:35:15.000Z</time>
</trkpt>
<trkpt lat="46.1334470" lon="10.1385840">
	<ele>1819.40</ele>
	<time>2024-09-06T07:35:16.000Z</time>
</trkpt>
<trkpt lat="46.1334350" lon="10.1385930">
	<ele>1819.40</ele>
	<time>2024-09-06T07:35:17.000Z</time>
</trkpt>
<trkpt lat="46.1334230" lon="10.1385960">
	<ele>1819.40</ele>
	<time>2024-09-06T07:35:18.000Z</time>
</trkpt>
<trkpt lat="46.1334160" lon="10.1386020">
	<ele>1819.40</ele>
	<time>2024-09-06T07:35:19.000Z</time>
</trkpt>
<trkpt lat="46.1334090" lon="10.1386120">
	<ele>1819.40</ele>
	<time>2024-09-06T07:35:20.000Z</time>
</trkpt>
<trkpt lat="46.1334020" lon="10.1386160">
	<ele>1819.40</ele>
	<time>2024-09-06T07:35:21.000Z</time>
</trkpt>
<trkpt lat="46.1333990" lon="10.1386180">
	<ele>1819.40</ele>
	<time>2024-09-06T07:35:22.000Z</time>
</trkpt>
<trkpt lat="46.1334010" lon="10.1386240">
	<ele>1819.40</ele>
	<time>2024-09-06T07:35:23.000Z</time>
</trkpt>
<trkpt lat="46.1334060" lon="10.1386290">
	<ele>1819.40</ele>
	<time>2024-09-06T07:35:24.000Z</time>
</trkpt>
<trkpt lat="46.1334070" lon="10.1386340">
	<ele>1819.40</ele>
	<time>2024-09-06T07:35:25.000Z</time>
</trkpt>
<trkpt lat="46.1334070" lon="10.1386340">
	<ele>1819.20</ele>
	<time>2024-09-06T07:35:26.000Z</time>
</trkpt>
<trkpt lat="46.1334070" lon="10.1386330">
	<ele>1819.20</ele>
	<time>2024-09-06T07:35:27.000Z</time>
</trkpt>
<trkpt lat="46.1334080" lon="10.1386320">
	<ele>1819.20</ele>
	<time>2024-09-06T07:35:28.000Z</time>
</trkpt>
<trkpt lat="46.1334070" lon="10.1386300">
	<ele>1819.20</ele>
	<time>2024-09-06T07:35:29.000Z</time>
</trkpt>
<trkpt lat="46.1334060" lon="10.1386280">
	<ele>1819.20</ele>
	<time>2024-09-06T07:35:30.000Z</time>
</trkpt>
<trkpt lat="46.1334050" lon="10.1386260">
	<ele>1819.20</ele>
	<time>2024-09-06T07:35:31.000Z</time>
</trkpt>
<trkpt lat="46.1334040" lon="10.1386230">
	<ele>1819.20</ele>
	<time>2024-09-06T07:35:32.000Z</time>
</trkpt>
<trkpt lat="46.1334060" lon="10.1386240">
	<ele>1819.20</ele>
	<time>2024-09-06T07:35:33.000Z</time>
</trkpt>
<trkpt lat="46.1334060" lon="10.1386240">
	<ele>1819.20</ele>
	<time>2024-09-06T07:35:34.000Z</time>
</trkpt>
<trkpt lat="46.1334060" lon="10.1386240">
	<ele>1819.20</ele>
	<time>2024-09-06T07:35:35.000Z</time>
</trkpt>
<trkpt lat="46.1334060" lon="10.1386240">
	<ele>1819.20</ele>
	<time>2024-09-06T07:35:36.000Z</time>
</trkpt>
<trkpt lat="46.1334060" lon="10.1386240">
	<ele>1819.20</ele>
	<time>2024-09-06T07:35:37.000Z</time>
</trkpt>
<trkpt lat="46.1334060" lon="10.1386240">
	<ele>1819.20</ele>
	<time>2024-09-06T07:35:38.000Z</time>
</trkpt>
<trkpt lat="46.1334060" lon="10.1386240">
	<ele>1819.20</ele>
	<time>2024-09-06T07:35:39.000Z</time>
</trkpt>
<trkpt lat="46.1334060" lon="10.1386240">
	<ele>1819.20</ele>
	<time>2024-09-06T07:35:40.000Z</time>
</trkpt>
<trkpt lat="46.1334060" lon="10.1386240">
	<ele>1819.00</ele>
	<time>2024-09-06T07:35:41.000Z</time>
</trkpt>
<trkpt lat="46.1334060" lon="10.1386260">
	<ele>1819.00</ele>
	<time>2024-09-06T07:35:42.000Z</time>
</trkpt>
<trkpt lat="46.1334020" lon="10.1386290">
	<ele>1819.00</ele>
	<time>2024-09-06T07:35:43.000Z</time>
</trkpt>
<trkpt lat="46.1333900" lon="10.1386270">
	<ele>1819.00</ele>
	<time>2024-09-06T07:35:44.000Z</time>
</trkpt>
<trkpt lat="46.1333780" lon="10.1386270">
	<ele>1818.80</ele>
	<time>2024-09-06T07:35:45.000Z</time>
</trkpt>
<trkpt lat="46.1333670" lon="10.1386270">
	<ele>1818.80</ele>
	<time>2024-09-06T07:35:46.000Z</time>
</trkpt>
<trkpt lat="46.1333540" lon="10.1386250">
	<ele>1818.80</ele>
	<time>2024-09-06T07:35:47.000Z</time>
</trkpt>
<trkpt lat="46.1333410" lon="10.1386270">
	<ele>1819.00</ele>
	<time>2024-09-06T07:35:48.000Z</time>
</trkpt>
<trkpt lat="46.1333270" lon="10.1386330">
	<ele>1819.00</ele>
	<time>2024-09-06T07:35:49.000Z</time>
</trkpt>
<trkpt lat="46.1333170" lon="10.1386390">
	<ele>1819.00</ele>
	<time>2024-09-06T07:35:50.000Z</time>
</trkpt>
<trkpt lat="46.1333010" lon="10.1386310">
	<ele>1819.00</ele>
	<time>2024-09-06T07:35:51.000Z</time>
</trkpt>
<trkpt lat="46.1332850" lon="10.1386190">
	<ele>1819.00</ele>
	<time>2024-09-06T07:35:52.000Z</time>
</trkpt>
<trkpt lat="46.1332750" lon="10.1386030">
	<ele>1819.00</ele>
	<time>2024-09-06T07:35:53.000Z</time>
</trkpt>
<trkpt lat="46.1332690" lon="10.1386010">
	<ele>1819.00</ele>
	<time>2024-09-06T07:35:54.000Z</time>
</trkpt>
<trkpt lat="46.1332610" lon="10.1386020">
	<ele>1819.20</ele>
	<time>2024-09-06T07:35:55.000Z</time>
</trkpt>
<trkpt lat="46.1332500" lon="10.1386020">
	<ele>1819.20</ele>
	<time>2024-09-06T07:35:56.000Z</time>
</trkpt>
<trkpt lat="46.1332390" lon="10.1386010">
	<ele>1819.40</ele>
	<time>2024-09-06T07:35:57.000Z</time>
</trkpt>
<trkpt lat="46.1332340" lon="10.1385990">
	<ele>1819.40</ele>
	<time>2024-09-06T07:35:58.000Z</time>
</trkpt>
<trkpt lat="46.1332230" lon="10.1386010">
	<ele>1819.40</ele>
	<time>2024-09-06T07:35:59.000Z</time>
</trkpt>
<trkpt lat="46.1332140" lon="10.1385960">
	<ele>1819.60</ele>
	<time>2024-09-06T07:36:00.000Z</time>
</trkpt>
<trkpt lat="46.1332030" lon="10.1385840">
	<ele>1819.80</ele>
	<time>2024-09-06T07:36:01.000Z</time>
</trkpt>
<trkpt lat="46.1331840" lon="10.1385780">
	<ele>1819.80</ele>
	<time>2024-09-06T07:36:02.000Z</time>
</trkpt>
<trkpt lat="46.1331650" lon="10.1385690">
	<ele>1820.00</ele>
	<time>2024-09-06T07:36:03.000Z</time>
</trkpt>
<trkpt lat="46.1331510" lon="10.1385620">
	<ele>1820.00</ele>
	<time>2024-09-06T07:36:04.000Z</time>
</trkpt>
<trkpt lat="46.1331410" lon="10.1385630">
	<ele>1820.20</ele>
	<time>2024-09-06T07:36:05.000Z</time>
</trkpt>
<trkpt lat="46.1331280" lon="10.1385640">
	<ele>1820.40</ele>
	<time>2024-09-06T07:36:06.000Z</time>
</trkpt>
<trkpt lat="46.1331160" lon="10.1385590">
	<ele>1820.60</ele>
	<time>2024-09-06T07:36:07.000Z</time>
</trkpt>
<trkpt lat="46.1331030" lon="10.1385540">
	<ele>1820.60</ele>
	<time>2024-09-06T07:36:08.000Z</time>
</trkpt>
<trkpt lat="46.1330970" lon="10.1385460">
	<ele>1820.80</ele>
	<time>2024-09-06T07:36:09.000Z</time>
</trkpt>
<trkpt lat="46.1330900" lon="10.1385410">
	<ele>1820.80</ele>
	<time>2024-09-06T07:36:10.000Z</time>
</trkpt>
<trkpt lat="46.1330830" lon="10.1385380">
	<ele>1821.00</ele>
	<time>2024-09-06T07:36:11.000Z</time>
</trkpt>
<trkpt lat="46.1330790" lon="10.1385370">
	<ele>1821.00</ele>
	<time>2024-09-06T07:36:12.000Z</time>
</trkpt>
<trkpt lat="46.1330790" lon="10.1385380">
	<ele>1821.00</ele>
	<time>2024-09-06T07:36:13.000Z</time>
</trkpt>
<trkpt lat="46.1330790" lon="10.1385380">
	<ele>1821.20</ele>
	<time>2024-09-06T07:36:14.000Z</time>
</trkpt>
<trkpt lat="46.1330800" lon="10.1385370">
	<ele>1821.40</ele>
	<time>2024-09-06T07:36:15.000Z</time>
</trkpt>
<trkpt lat="46.1330800" lon="10.1385360">
	<ele>1821.40</ele>
	<time>2024-09-06T07:36:16.000Z</time>
</trkpt>
<trkpt lat="46.1330810" lon="10.1385350">
	<ele>1821.40</ele>
	<time>2024-09-06T07:36:17.000Z</time>
</trkpt>
<trkpt lat="46.1330820" lon="10.1385360">
	<ele>1821.60</ele>
	<time>2024-09-06T07:36:18.000Z</time>
</trkpt>
<trkpt lat="46.1330840" lon="10.1385300">
	<ele>1821.60</ele>
	<time>2024-09-06T07:36:19.000Z</time>
</trkpt>
<trkpt lat="46.1330840" lon="10.1385300">
	<ele>1821.60</ele>
	<time>2024-09-06T07:36:20.000Z</time>
</trkpt>
<trkpt lat="46.1330840" lon="10.1385300">
	<ele>1821.60</ele>
	<time>2024-09-06T07:36:21.000Z</time>
</trkpt>
<trkpt lat="46.1330850" lon="10.1385300">
	<ele>1821.60</ele>
	<time>2024-09-06T07:36:22.000Z</time>
</trkpt>
<trkpt lat="46.1330790" lon="10.1385280">
	<ele>1821.60</ele>
	<time>2024-09-06T07:36:23.000Z</time>
</trkpt>
<trkpt lat="46.1330700" lon="10.1385210">
	<ele>1821.60</ele>
	<time>2024-09-06T07:36:24.000Z</time>
</trkpt>
<trkpt lat="46.1330610" lon="10.1385120">
	<ele>1821.60</ele>
	<time>2024-09-06T07:36:25.000Z</time>
</trkpt>
<trkpt lat="46.1330550" lon="10.1385030">
	<ele>1821.40</ele>
	<time>2024-09-06T07:36:26.000Z</time>
</trkpt>
<trkpt lat="46.1330540" lon="10.1384940">
	<ele>1821.40</ele>
	<time>2024-09-06T07:36:27.000Z</time>
</trkpt>
<trkpt lat="46.1330540" lon="10.1384790">
	<ele>1821.60</ele>
	<time>2024-09-06T07:36:28.000Z</time>
</trkpt>
<trkpt lat="46.1330580" lon="10.1384620">
	<ele>1821.60</ele>
	<time>2024-09-06T07:36:29.000Z</time>
</trkpt>
<trkpt lat="46.1330640" lon="10.1384480">
	<ele>1821.60</ele>
	<time>2024-09-06T07:36:30.000Z</time>
</trkpt>
<trkpt lat="46.1330670" lon="10.1384390">
	<ele>1821.80</ele>
	<time>2024-09-06T07:36:31.000Z</time>
</trkpt>
<trkpt lat="46.1330660" lon="10.1384300">
	<ele>1821.80</ele>
	<time>2024-09-06T07:36:32.000Z</time>
</trkpt>
<trkpt lat="46.1330670" lon="10.1384240">
	<ele>1821.80</ele>
	<time>2024-09-06T07:36:33.000Z</time>
</trkpt>
<trkpt lat="46.1330700" lon="10.1384150">
	<ele>1822.00</ele>
	<time>2024-09-06T07:36:34.000Z</time>
</trkpt>
<trkpt lat="46.1330740" lon="10.1384070">
	<ele>1822.00</ele>
	<time>2024-09-06T07:36:35.000Z</time>
</trkpt>
<trkpt lat="46.1330760" lon="10.1384050">
	<ele>1822.00</ele>
	<time>2024-09-06T07:36:36.000Z</time>
</trkpt>
<trkpt lat="46.1330750" lon="10.1384050">
	<ele>1822.00</ele>
	<time>2024-09-06T07:36:37.000Z</time>
</trkpt>
<trkpt lat="46.1330740" lon="10.1384080">
	<ele>1822.00</ele>
	<time>2024-09-06T07:36:38.000Z</time>
</trkpt>
<trkpt lat="46.1330730" lon="10.1384110">
	<ele>1822.00</ele>
	<time>2024-09-06T07:36:39.000Z</time>
</trkpt>
<trkpt lat="46.1330720" lon="10.1384130">
	<ele>1822.00</ele>
	<time>2024-09-06T07:36:40.000Z</time>
</trkpt>
<trkpt lat="46.1330710" lon="10.1384140">
	<ele>1822.20</ele>
	<time>2024-09-06T07:36:41.000Z</time>
</trkpt>
<trkpt lat="46.1330720" lon="10.1384140">
	<ele>1822.20</ele>
	<time>2024-09-06T07:36:42.000Z</time>
</trkpt>
<trkpt lat="46.1330720" lon="10.1384120">
	<ele>1822.20</ele>
	<time>2024-09-06T07:36:43.000Z</time>
</trkpt>
<trkpt lat="46.1330710" lon="10.1384020">
	<ele>1822.20</ele>
	<time>2024-09-06T07:36:44.000Z</time>
</trkpt>
<trkpt lat="46.1330710" lon="10.1384000">
	<ele>1822.00</ele>
	<time>2024-09-06T07:36:45.000Z</time>
</trkpt>
<trkpt lat="46.1330710" lon="10.1383990">
	<ele>1822.00</ele>
	<time>2024-09-06T07:36:46.000Z</time>
</trkpt>
<trkpt lat="46.1330720" lon="10.1383990">
	<ele>1822.00</ele>
	<time>2024-09-06T07:36:47.000Z</time>
</trkpt>
<trkpt lat="46.1330730" lon="10.1383990">
	<ele>1822.00</ele>
	<time>2024-09-06T07:36:48.000Z</time>
</trkpt>
<trkpt lat="46.1330720" lon="10.1383990">
	<ele>1822.00</ele>
	<time>2024-09-06T07:36:49.000Z</time>
</trkpt>
<trkpt lat="46.1330720" lon="10.1383990">
	<ele>1822.00</ele>
	<time>2024-09-06T07:36:50.000Z</time>
</trkpt>
<trkpt lat="46.1330720" lon="10.1383990">
	<ele>1822.00</ele>
	<time>2024-09-06T07:36:51.000Z</time>
</trkpt>
<trkpt lat="46.1330720" lon="10.1383990">
	<ele>1822.00</ele>
	<time>2024-09-06T07:36:52.000Z</time>
</trkpt>
<trkpt lat="46.1330720" lon="10.1383990">
	<ele>1822.00</ele>
	<time>2024-09-06T07:36:53.000Z</time>
</trkpt>
<trkpt lat="46.1330720" lon="10.1383990">
	<ele>1822.00</ele>
	<time>2024-09-06T07:36:54.000Z</time>
</trkpt>
<trkpt lat="46.1330720" lon="10.1383990">
	<ele>1822.00</ele>
	<time>2024-09-06T07:36:55.000Z</time>
</trkpt>
<trkpt lat="46.1330720" lon="10.1383990">
	<ele>1822.00</ele>
	<time>2024-09-06T07:36:56.000Z</time>
</trkpt>
<trkpt lat="46.1330680" lon="10.1384030">
	<ele>1822.00</ele>
	<time>2024-09-06T07:36:57.000Z</time>
</trkpt>
<trkpt lat="46.1330550" lon="10.1384120">
	<ele>1822.00</ele>
	<time>2024-09-06T07:36:58.000Z</time>
</trkpt>
<trkpt lat="46.1330420" lon="10.1384200">
	<ele>1822.00</ele>
	<time>2024-09-06T07:36:59.000Z</time>
</trkpt>
<trkpt lat="46.1330290" lon="10.1384300">
	<ele>1822.00</ele>
	<time>2024-09-06T07:37:00.000Z</time>
</trkpt>
<trkpt lat="46.1330170" lon="10.1384340">
	<ele>1822.00</ele>
	<time>2024-09-06T07:37:01.000Z</time>
</trkpt>
<trkpt lat="46.1330020" lon="10.1384390">
	<ele>1822.00</ele>
	<time>2024-09-06T07:37:02.000Z</time>
</trkpt>
<trkpt lat="46.1329880" lon="10.1384440">
	<ele>1822.20</ele>
	<time>2024-09-06T07:37:03.000Z</time>
</trkpt>
<trkpt lat="46.1329770" lon="10.1384510">
	<ele>1822.40</ele>
	<time>2024-09-06T07:37:04.000Z</time>
</trkpt>
<trkpt lat="46.1329650" lon="10.1384610">
	<ele>1822.40</ele>
	<time>2024-09-06T07:37:05.000Z</time>
</trkpt>
<trkpt lat="46.1329590" lon="10.1384690">
	<ele>1822.60</ele>
	<time>2024-09-06T07:37:06.000Z</time>
</trkpt>
<trkpt lat="46.1329570" lon="10.1384800">
	<ele>1822.60</ele>
	<time>2024-09-06T07:37:07.000Z</time>
</trkpt>
<trkpt lat="46.1329550" lon="10.1384830">
	<ele>1822.80</ele>
	<time>2024-09-06T07:37:08.000Z</time>
</trkpt>
<trkpt lat="46.1329530" lon="10.1384970">
	<ele>1822.80</ele>
	<time>2024-09-06T07:37:09.000Z</time>
</trkpt>
<trkpt lat="46.1329470" lon="10.1385010">
	<ele>1823.00</ele>
	<time>2024-09-06T07:37:10.000Z</time>
</trkpt>
<trkpt lat="46.1329440" lon="10.1385120">
	<ele>1823.20</ele>
	<time>2024-09-06T07:37:11.000Z</time>
</trkpt>
<trkpt lat="46.1329400" lon="10.1385190">
	<ele>1823.60</ele>
	<time>2024-09-06T07:37:12.000Z</time>
</trkpt>
<trkpt lat="46.1329370" lon="10.1385270">
	<ele>1823.80</ele>
	<time>2024-09-06T07:37:13.000Z</time>
</trkpt>
<trkpt lat="46.1329350" lon="10.1385410">
	<ele>1823.80</ele>
	<time>2024-09-06T07:37:14.000Z</time>
</trkpt>
<trkpt lat="46.1329330" lon="10.1385450">
	<ele>1824.20</ele>
	<time>2024-09-06T07:37:15.000Z</time>
</trkpt>
<trkpt lat="46.1329350" lon="10.1385520">
	<ele>1824.40</ele>
	<time>2024-09-06T07:37:16.000Z</time>
</trkpt>
<trkpt lat="46.1329370" lon="10.1385580">
	<ele>1824.60</ele>
	<time>2024-09-06T07:37:17.000Z</time>
</trkpt>
<trkpt lat="46.1329330" lon="10.1385620">
	<ele>1824.60</ele>
	<time>2024-09-06T07:37:18.000Z</time>
</trkpt>
<trkpt lat="46.1329290" lon="10.1385640">
	<ele>1824.80</ele>
	<time>2024-09-06T07:37:19.000Z</time>
</trkpt>
<trkpt lat="46.1329230" lon="10.1385670">
	<ele>1825.00</ele>
	<time>2024-09-06T07:37:20.000Z</time>
</trkpt>
<trkpt lat="46.1329170" lon="10.1385730">
	<ele>1825.00</ele>
	<time>2024-09-06T07:37:21.000Z</time>
</trkpt>
<trkpt lat="46.1329110" lon="10.1385720">
	<ele>1825.40</ele>
	<time>2024-09-06T07:37:22.000Z</time>
</trkpt>
<trkpt lat="46.1329060" lon="10.1385720">
	<ele>1825.60</ele>
	<time>2024-09-06T07:37:23.000Z</time>
</trkpt>
<trkpt lat="46.1329010" lon="10.1385740">
	<ele>1825.80</ele>
	<time>2024-09-06T07:37:24.000Z</time>
</trkpt>
<trkpt lat="46.1328930" lon="10.1385750">
	<ele>1826.00</ele>
	<time>2024-09-06T07:37:25.000Z</time>
</trkpt>
<trkpt lat="46.1328880" lon="10.1385750">
	<ele>1826.00</ele>
	<time>2024-09-06T07:37:26.000Z</time>
</trkpt>
<trkpt lat="46.1328810" lon="10.1385820">
	<ele>1826.20</ele>
	<time>2024-09-06T07:37:27.000Z</time>
</trkpt>
<trkpt lat="46.1328740" lon="10.1385870">
	<ele>1826.20</ele>
	<time>2024-09-06T07:37:28.000Z</time>
</trkpt>
<trkpt lat="46.1328690" lon="10.1385890">
	<ele>1826.40</ele>
	<time>2024-09-06T07:37:29.000Z</time>
</trkpt>
<trkpt lat="46.1328660" lon="10.1385910">
	<ele>1826.40</ele>
	<time>2024-09-06T07:37:30.000Z</time>
</trkpt>
<trkpt lat="46.1328620" lon="10.1385950">
	<ele>1826.60</ele>
	<time>2024-09-06T07:37:31.000Z</time>
</trkpt>
<trkpt lat="46.1328560" lon="10.1385990">
	<ele>1826.80</ele>
	<time>2024-09-06T07:37:32.000Z</time>
</trkpt>
<trkpt lat="46.1328530" lon="10.1386030">
	<ele>1827.00</ele>
	<time>2024-09-06T07:37:33.000Z</time>
</trkpt>
<trkpt lat="46.1328500" lon="10.1386030">
	<ele>1827.20</ele>
	<time>2024-09-06T07:37:34.000Z</time>
</trkpt>
<trkpt lat="46.1328460" lon="10.1386060">
	<ele>1827.20</ele>
	<time>2024-09-06T07:37:35.000Z</time>
</trkpt>
<trkpt lat="46.1328420" lon="10.1386130">
	<ele>1827.40</ele>
	<time>2024-09-06T07:37:36.000Z</time>
</trkpt>
<trkpt lat="46.1328340" lon="10.1386110">
	<ele>1827.40</ele>
	<time>2024-09-06T07:37:37.000Z</time>
</trkpt>
<trkpt lat="46.1328260" lon="10.1386110">
	<ele>1827.60</ele>
	<time>2024-09-06T07:37:38.000Z</time>
</trkpt>
<trkpt lat="46.1328190" lon="10.1386140">
	<ele>1827.80</ele>
	<time>2024-09-06T07:37:39.000Z</time>
</trkpt>
<trkpt lat="46.1328130" lon="10.1386190">
	<ele>1827.80</ele>
	<time>2024-09-06T07:37:40.000Z</time>
</trkpt>
<trkpt lat="46.1328080" lon="10.1386250">
	<ele>1828.00</ele>
	<time>2024-09-06T07:37:41.000Z</time>
</trkpt>
<trkpt lat="46.1328030" lon="10.1386330">
	<ele>1828.20</ele>
	<time>2024-09-06T07:37:42.000Z</time>
</trkpt>
<trkpt lat="46.1327990" lon="10.1386400">
	<ele>1828.40</ele>
	<time>2024-09-06T07:37:43.000Z</time>
</trkpt>
<trkpt lat="46.1327940" lon="10.1386490">
	<ele>1828.60</ele>
	<time>2024-09-06T07:37:44.000Z</time>
</trkpt>
<trkpt lat="46.1327880" lon="10.1386580">
	<ele>1828.80</ele>
	<time>2024-09-06T07:37:45.000Z</time>
</trkpt>
<trkpt lat="46.1327820" lon="10.1386640">
	<ele>1828.80</ele>
	<time>2024-09-06T07:37:46.000Z</time>
</trkpt>
<trkpt lat="46.1327780" lon="10.1386710">
	<ele>1829.00</ele>
	<time>2024-09-06T07:37:47.000Z</time>
</trkpt>
<trkpt lat="46.1327740" lon="10.1386740">
	<ele>1829.20</ele>
	<time>2024-09-06T07:37:48.000Z</time>
</trkpt>
<trkpt lat="46.1327720" lon="10.1386780">
	<ele>1829.40</ele>
	<time>2024-09-06T07:37:49.000Z</time>
</trkpt>
<trkpt lat="46.1327720" lon="10.1386890">
	<ele>1829.40</ele>
	<time>2024-09-06T07:37:50.000Z</time>
</trkpt>
<trkpt lat="46.1327730" lon="10.1386980">
	<ele>1829.40</ele>
	<time>2024-09-06T07:37:51.000Z</time>
</trkpt>
<trkpt lat="46.1327720" lon="10.1387110">
	<ele>1829.60</ele>
	<time>2024-09-06T07:37:52.000Z</time>
</trkpt>
<trkpt lat="46.1327690" lon="10.1387250">
	<ele>1829.80</ele>
	<time>2024-09-06T07:37:53.000Z</time>
</trkpt>
<trkpt lat="46.1327660" lon="10.1387370">
	<ele>1829.80</ele>
	<time>2024-09-06T07:37:54.000Z</time>
</trkpt>
<trkpt lat="46.1327620" lon="10.1387490">
	<ele>1830.00</ele>
	<time>2024-09-06T07:37:55.000Z</time>
</trkpt>
<trkpt lat="46.1327600" lon="10.1387630">
	<ele>1830.20</ele>
	<time>2024-09-06T07:37:56.000Z</time>
</trkpt>
<trkpt lat="46.1327630" lon="10.1387770">
	<ele>1830.20</ele>
	<time>2024-09-06T07:37:57.000Z</time>
</trkpt>
<trkpt lat="46.1327640" lon="10.1387900">
	<ele>1830.40</ele>
	<time>2024-09-06T07:37:58.000Z</time>
</trkpt>
<trkpt lat="46.1327650" lon="10.1388060">
	<ele>1830.40</ele>
	<time>2024-09-06T07:37:59.000Z</time>
</trkpt>
<trkpt lat="46.1327670" lon="10.1388220">
	<ele>1830.40</ele>
	<time>2024-09-06T07:38:00.000Z</time>
</trkpt>
<trkpt lat="46.1327680" lon="10.1388350">
	<ele>1830.60</ele>
	<time>2024-09-06T07:38:01.000Z</time>
</trkpt>
<trkpt lat="46.1327700" lon="10.1388480">
	<ele>1830.60</ele>
	<time>2024-09-06T07:38:02.000Z</time>
</trkpt>
<trkpt lat="46.1327730" lon="10.1388630">
	<ele>1830.80</ele>
	<time>2024-09-06T07:38:03.000Z</time>
</trkpt>
<trkpt lat="46.1327780" lon="10.1388710">
	<ele>1831.00</ele>
	<time>2024-09-06T07:38:04.000Z</time>
</trkpt>
<trkpt lat="46.1327820" lon="10.1388740">
	<ele>1831.00</ele>
	<time>2024-09-06T07:38:05.000Z</time>
</trkpt>
<trkpt lat="46.1327900" lon="10.1388770">
	<ele>1831.20</ele>
	<time>2024-09-06T07:38:06.000Z</time>
</trkpt>
<trkpt lat="46.1327970" lon="10.1388810">
	<ele>1831.20</ele>
	<time>2024-09-06T07:38:07.000Z</time>
</trkpt>
<trkpt lat="46.1328060" lon="10.1388850">
	<ele>1831.40</ele>
	<time>2024-09-06T07:38:08.000Z</time>
</trkpt>
<trkpt lat="46.1328120" lon="10.1388930">
	<ele>1831.40</ele>
	<time>2024-09-06T07:38:09.000Z</time>
</trkpt>
<trkpt lat="46.1328230" lon="10.1388990">
	<ele>1831.80</ele>
	<time>2024-09-06T07:38:10.000Z</time>
</trkpt>
<trkpt lat="46.1328340" lon="10.1389020">
	<ele>1831.80</ele>
	<time>2024-09-06T07:38:11.000Z</time>
</trkpt>
<trkpt lat="46.1328490" lon="10.1389030">
	<ele>1831.80</ele>
	<time>2024-09-06T07:38:12.000Z</time>
</trkpt>
<trkpt lat="46.1328660" lon="10.1389050">
	<ele>1832.00</ele>
	<time>2024-09-06T07:38:13.000Z</time>
</trkpt>
<trkpt lat="46.1328770" lon="10.1389100">
	<ele>1832.00</ele>
	<time>2024-09-06T07:38:14.000Z</time>
</trkpt>
<trkpt lat="46.1328880" lon="10.1389150">
	<ele>1832.20</ele>
	<time>2024-09-06T07:38:15.000Z</time>
</trkpt>
<trkpt lat="46.1328960" lon="10.1389230">
	<ele>1832.20</ele>
	<time>2024-09-06T07:38:16.000Z</time>
</trkpt>
<trkpt lat="46.1329010" lon="10.1389310">
	<ele>1832.40</ele>
	<time>2024-09-06T07:38:17.000Z</time>
</trkpt>
<trkpt lat="46.1329060" lon="10.1389380">
	<ele>1832.60</ele>
	<time>2024-09-06T07:38:18.000Z</time>
</trkpt>
<trkpt lat="46.1329100" lon="10.1389470">
	<ele>1832.80</ele>
	<time>2024-09-06T07:38:19.000Z</time>
</trkpt>
<trkpt lat="46.1329150" lon="10.1389580">
	<ele>1832.80</ele>
	<time>2024-09-06T07:38:20.000Z</time>
</trkpt>
<trkpt lat="46.1329170" lon="10.1389730">
	<ele>1833.00</ele>
	<time>2024-09-06T07:38:21.000Z</time>
</trkpt>
<trkpt lat="46.1329210" lon="10.1389890">
	<ele>1833.00</ele>
	<time>2024-09-06T07:38:22.000Z</time>
</trkpt>
<trkpt lat="46.1329250" lon="10.1390030">
	<ele>1833.20</ele>
	<time>2024-09-06T07:38:23.000Z</time>
</trkpt>
<trkpt lat="46.1329280" lon="10.1390180">
	<ele>1833.40</ele>
	<time>2024-09-06T07:38:24.000Z</time>
</trkpt>
<trkpt lat="46.1329290" lon="10.1390360">
	<ele>1833.40</ele>
	<time>2024-09-06T07:38:25.000Z</time>
</trkpt>
<trkpt lat="46.1329330" lon="10.1390530">
	<ele>1833.60</ele>
	<time>2024-09-06T07:38:26.000Z</time>
</trkpt>
<trkpt lat="46.1329390" lon="10.1390660">
	<ele>1833.80</ele>
	<time>2024-09-06T07:38:27.000Z</time>
</trkpt>
<trkpt lat="46.1329430" lon="10.1390780">
	<ele>1834.00</ele>
	<time>2024-09-06T07:38:28.000Z</time>
</trkpt>
<trkpt lat="46.1329480" lon="10.1390870">
	<ele>1834.00</ele>
	<time>2024-09-06T07:38:29.000Z</time>
</trkpt>
<trkpt lat="46.1329540" lon="10.1390980">
	<ele>1834.20</ele>
	<time>2024-09-06T07:38:30.000Z</time>
</trkpt>
<trkpt lat="46.1329580" lon="10.1391110">
	<ele>1834.40</ele>
	<time>2024-09-06T07:38:31.000Z</time>
</trkpt>
<trkpt lat="46.1329610" lon="10.1391210">
	<ele>1834.60</ele>
	<time>2024-09-06T07:38:32.000Z</time>
</trkpt>
<trkpt lat="46.1329620" lon="10.1391300">
	<ele>1834.60</ele>
	<time>2024-09-06T07:38:33.000Z</time>
</trkpt>
<trkpt lat="46.1329670" lon="10.1391390">
	<ele>1834.80</ele>
	<time>2024-09-06T07:38:34.000Z</time>
</trkpt>
<trkpt lat="46.1329710" lon="10.1391470">
	<ele>1834.80</ele>
	<time>2024-09-06T07:38:35.000Z</time>
</trkpt>
<trkpt lat="46.1329720" lon="10.1391610">
	<ele>1835.00</ele>
	<time>2024-09-06T07:38:36.000Z</time>
</trkpt>
<trkpt lat="46.1329670" lon="10.1391780">
	<ele>1835.00</ele>
	<time>2024-09-06T07:38:37.000Z</time>
</trkpt>
<trkpt lat="46.1329740" lon="10.1391950">
	<ele>1835.20</ele>
	<time>2024-09-06T07:38:38.000Z</time>
</trkpt>
<trkpt lat="46.1329770" lon="10.1392060">
	<ele>1835.40</ele>
	<time>2024-09-06T07:38:39.000Z</time>
</trkpt>
<trkpt lat="46.1329770" lon="10.1392210">
	<ele>1835.40</ele>
	<time>2024-09-06T07:38:40.000Z</time>
</trkpt>
<trkpt lat="46.1329760" lon="10.1392360">
	<ele>1835.60</ele>
	<time>2024-09-06T07:38:41.000Z</time>
</trkpt>
<trkpt lat="46.1329770" lon="10.1392500">
	<ele>1835.60</ele>
	<time>2024-09-06T07:38:42.000Z</time>
</trkpt>
<trkpt lat="46.1329810" lon="10.1392620">
	<ele>1835.80</ele>
	<time>2024-09-06T07:38:43.000Z</time>
</trkpt>
<trkpt lat="46.1329840" lon="10.1392760">
	<ele>1836.00</ele>
	<time>2024-09-06T07:38:44.000Z</time>
</trkpt>
<trkpt lat="46.1329880" lon="10.1392900">
	<ele>1836.20</ele>
	<time>2024-09-06T07:38:45.000Z</time>
</trkpt>
<trkpt lat="46.1329900" lon="10.1393030">
	<ele>1836.40</ele>
	<time>2024-09-06T07:38:46.000Z</time>
</trkpt>
<trkpt lat="46.1329910" lon="10.1393170">
	<ele>1836.60</ele>
	<time>2024-09-06T07:38:47.000Z</time>
</trkpt>
<trkpt lat="46.1329940" lon="10.1393280">
	<ele>1836.60</ele>
	<time>2024-09-06T07:38:48.000Z</time>
</trkpt>
<trkpt lat="46.1329990" lon="10.1393380">
	<ele>1836.80</ele>
	<time>2024-09-06T07:38:49.000Z</time>
</trkpt>
<trkpt lat="46.1330020" lon="10.1393480">
	<ele>1837.00</ele>
	<time>2024-09-06T07:38:50.000Z</time>
</trkpt>
<trkpt lat="46.1330060" lon="10.1393570">
	<ele>1837.00</ele>
	<time>2024-09-06T07:38:51.000Z</time>
</trkpt>
<trkpt lat="46.1330100" lon="10.1393670">
	<ele>1837.20</ele>
	<time>2024-09-06T07:38:52.000Z</time>
</trkpt>
<trkpt lat="46.1330110" lon="10.1393810">
	<ele>1837.40</ele>
	<time>2024-09-06T07:38:53.000Z</time>
</trkpt>
<trkpt lat="46.1330140" lon="10.1393940">
	<ele>1837.60</ele>
	<time>2024-09-06T07:38:54.000Z</time>
</trkpt>
<trkpt lat="46.1330150" lon="10.1394090">
	<ele>1837.80</ele>
	<time>2024-09-06T07:38:55.000Z</time>
</trkpt>
<trkpt lat="46.1330180" lon="10.1394220">
	<ele>1837.80</ele>
	<time>2024-09-06T07:38:56.000Z</time>
</trkpt>
<trkpt lat="46.1330250" lon="10.1394320">
	<ele>1838.00</ele>
	<time>2024-09-06T07:38:57.000Z</time>
</trkpt>
<trkpt lat="46.1330280" lon="10.1394430">
	<ele>1838.00</ele>
	<time>2024-09-06T07:38:58.000Z</time>
</trkpt>
<trkpt lat="46.1330310" lon="10.1394500">
	<ele>1838.20</ele>
	<time>2024-09-06T07:38:59.000Z</time>
</trkpt>
<trkpt lat="46.1330290" lon="10.1394650">
	<ele>1838.20</ele>
	<time>2024-09-06T07:39:00.000Z</time>
</trkpt>
<trkpt lat="46.1330250" lon="10.1394800">
	<ele>1838.40</ele>
	<time>2024-09-06T07:39:01.000Z</time>
</trkpt>
<trkpt lat="46.1330230" lon="10.1394950">
	<ele>1838.60</ele>
	<time>2024-09-06T07:39:02.000Z</time>
</trkpt>
<trkpt lat="46.1330220" lon="10.1395060">
	<ele>1838.60</ele>
	<time>2024-09-06T07:39:03.000Z</time>
</trkpt>
<trkpt lat="46.1330210" lon="10.1395200">
	<ele>1838.80</ele>
	<time>2024-09-06T07:39:04.000Z</time>
</trkpt>
<trkpt lat="46.1330190" lon="10.1395320">
	<ele>1839.00</ele>
	<time>2024-09-06T07:39:05.000Z</time>
</trkpt>
<trkpt lat="46.1330160" lon="10.1395440">
	<ele>1839.00</ele>
	<time>2024-09-06T07:39:06.000Z</time>
</trkpt>
<trkpt lat="46.1330120" lon="10.1395550">
	<ele>1839.00</ele>
	<time>2024-09-06T07:39:07.000Z</time>
</trkpt>
<trkpt lat="46.1330100" lon="10.1395590">
	<ele>1839.20</ele>
	<time>2024-09-06T07:39:08.000Z</time>
</trkpt>
<trkpt lat="46.1330100" lon="10.1395610">
	<ele>1839.20</ele>
	<time>2024-09-06T07:39:09.000Z</time>
</trkpt>
<trkpt lat="46.1330100" lon="10.1395610">
	<ele>1839.40</ele>
	<time>2024-09-06T07:39:10.000Z</time>
</trkpt>
<trkpt lat="46.1330110" lon="10.1395600">
	<ele>1839.40</ele>
	<time>2024-09-06T07:39:11.000Z</time>
</trkpt>
<trkpt lat="46.1330110" lon="10.1395600">
	<ele>1839.40</ele>
	<time>2024-09-06T07:39:12.000Z</time>
</trkpt>
<trkpt lat="46.1330110" lon="10.1395600">
	<ele>1839.40</ele>
	<time>2024-09-06T07:39:13.000Z</time>
</trkpt>
<trkpt lat="46.1330100" lon="10.1395600">
	<ele>1839.60</ele>
	<time>2024-09-06T07:39:14.000Z</time>
</trkpt>
<trkpt lat="46.1330090" lon="10.1395600">
	<ele>1839.60</ele>
	<time>2024-09-06T07:39:15.000Z</time>
</trkpt>
<trkpt lat="46.1330080" lon="10.1395580">
	<ele>1839.60</ele>
	<time>2024-09-06T07:39:16.000Z</time>
</trkpt>
<trkpt lat="46.1330100" lon="10.1395560">
	<ele>1839.60</ele>
	<time>2024-09-06T07:39:17.000Z</time>
</trkpt>
<trkpt lat="46.1330100" lon="10.1395540">
	<ele>1839.60</ele>
	<time>2024-09-06T07:39:18.000Z</time>
</trkpt>
<trkpt lat="46.1330110" lon="10.1395540">
	<ele>1839.60</ele>
	<time>2024-09-06T07:39:19.000Z</time>
</trkpt>
<trkpt lat="46.1330110" lon="10.1395560">
	<ele>1839.60</ele>
	<time>2024-09-06T07:39:20.000Z</time>
</trkpt>
<trkpt lat="46.1330100" lon="10.1395580">
	<ele>1839.60</ele>
	<time>2024-09-06T07:39:21.000Z</time>
</trkpt>
<trkpt lat="46.1330090" lon="10.1395650">
	<ele>1839.60</ele>
	<time>2024-09-06T07:39:22.000Z</time>
</trkpt>
<trkpt lat="46.1330040" lon="10.1395690">
	<ele>1839.60</ele>
	<time>2024-09-06T07:39:23.000Z</time>
</trkpt>
<trkpt lat="46.1329960" lon="10.1395760">
	<ele>1839.60</ele>
	<time>2024-09-06T07:39:24.000Z</time>
</trkpt>
<trkpt lat="46.1329850" lon="10.1395810">
	<ele>1839.60</ele>
	<time>2024-09-06T07:39:25.000Z</time>
</trkpt>
<trkpt lat="46.1329720" lon="10.1395850">
	<ele>1839.60</ele>
	<time>2024-09-06T07:39:26.000Z</time>
</trkpt>
<trkpt lat="46.1329610" lon="10.1395930">
	<ele>1839.80</ele>
	<time>2024-09-06T07:39:27.000Z</time>
</trkpt>
<trkpt lat="46.1329500" lon="10.1396030">
	<ele>1840.00</ele>
	<time>2024-09-06T07:39:28.000Z</time>
</trkpt>
<trkpt lat="46.1329400" lon="10.1396140">
	<ele>1840.00</ele>
	<time>2024-09-06T07:39:29.000Z</time>
</trkpt>
<trkpt lat="46.1329320" lon="10.1396230">
	<ele>1840.00</ele>
	<time>2024-09-06T07:39:30.000Z</time>
</trkpt>
<trkpt lat="46.1329260" lon="10.1396290">
	<ele>1840.20</ele>
	<time>2024-09-06T07:39:31.000Z</time>
</trkpt>
<trkpt lat="46.1329250" lon="10.1396310">
	<ele>1840.40</ele>
	<time>2024-09-06T07:39:32.000Z</time>
</trkpt>
<trkpt lat="46.1329210" lon="10.1396330">
	<ele>1840.40</ele>
	<time>2024-09-06T07:39:33.000Z</time>
</trkpt>
<trkpt lat="46.1329140" lon="10.1396380">
	<ele>1840.80</ele>
	<time>2024-09-06T07:39:34.000Z</time>
</trkpt>
<trkpt lat="46.1329020" lon="10.1396450">
	<ele>1841.00</ele>
	<time>2024-09-06T07:39:35.000Z</time>
</trkpt>
<trkpt lat="46.1328970" lon="10.1396520">
	<ele>1841.20</ele>
	<time>2024-09-06T07:39:36.000Z</time>
</trkpt>
<trkpt lat="46.1328880" lon="10.1396590">
	<ele>1841.20</ele>
	<time>2024-09-06T07:39:37.000Z</time>
</trkpt>
<trkpt lat="46.1328760" lon="10.1396620">
	<ele>1841.40</ele>
	<time>2024-09-06T07:39:38.000Z</time>
</trkpt>
<trkpt lat="46.1328640" lon="10.1396630">
	<ele>1841.40</ele>
	<time>2024-09-06T07:39:39.000Z</time>
</trkpt>
<trkpt lat="46.1328510" lon="10.1396710">
	<ele>1841.40</ele>
	<time>2024-09-06T07:39:40.000Z</time>
</trkpt>
<trkpt lat="46.1328390" lon="10.1396770">
	<ele>1841.60</ele>
	<time>2024-09-06T07:39:41.000Z</time>
</trkpt>
<trkpt lat="46.1328290" lon="10.1396820">
	<ele>1841.60</ele>
	<time>2024-09-06T07:39:42.000Z</time>
</trkpt>
<trkpt lat="46.1328210" lon="10.1396880">
	<ele>1841.60</ele>
	<time>2024-09-06T07:39:43.000Z</time>
</trkpt>
<trkpt lat="46.1328130" lon="10.1396950">
	<ele>1841.80</ele>
	<time>2024-09-06T07:39:44.000Z</time>
</trkpt>
<trkpt lat="46.1328060" lon="10.1397020">
	<ele>1842.00</ele>
	<time>2024-09-06T07:39:45.000Z</time>
</trkpt>
<trkpt lat="46.1328020" lon="10.1397090">
	<ele>1842.20</ele>
	<time>2024-09-06T07:39:46.000Z</time>
</trkpt>
<trkpt lat="46.1327970" lon="10.1397200">
	<ele>1842.40</ele>
	<time>2024-09-06T07:39:47.000Z</time>
</trkpt>
<trkpt lat="46.1327940" lon="10.1397260">
	<ele>1842.60</ele>
	<time>2024-09-06T07:39:48.000Z</time>
</trkpt>
<trkpt lat="46.1327880" lon="10.1397340">
	<ele>1842.60</ele>
	<time>2024-09-06T07:39:49.000Z</time>
</trkpt>
<trkpt lat="46.1327820" lon="10.1397410">
	<ele>1842.60</ele>
	<time>2024-09-06T07:39:50.000Z</time>
</trkpt>
<trkpt lat="46.1327770" lon="10.1397500">
	<ele>1842.80</ele>
	<time>2024-09-06T07:39:51.000Z</time>
</trkpt>
<trkpt lat="46.1327720" lon="10.1397550">
	<ele>1843.00</ele>
	<time>2024-09-06T07:39:52.000Z</time>
</trkpt>
<trkpt lat="46.1327610" lon="10.1397570">
	<ele>1843.40</ele>
	<time>2024-09-06T07:39:53.000Z</time>
</trkpt>
<trkpt lat="46.1327470" lon="10.1397550">
	<ele>1843.60</ele>
	<time>2024-09-06T07:39:54.000Z</time>
</trkpt>
<trkpt lat="46.1327330" lon="10.1397490">
	<ele>1843.80</ele>
	<time>2024-09-06T07:39:55.000Z</time>
</trkpt>
<trkpt lat="46.1327250" lon="10.1397440">
	<ele>1844.00</ele>
	<time>2024-09-06T07:39:56.000Z</time>
</trkpt>
<trkpt lat="46.1327150" lon="10.1397390">
	<ele>1844.00</ele>
	<time>2024-09-06T07:39:57.000Z</time>
</trkpt>
<trkpt lat="46.1327040" lon="10.1397360">
	<ele>1844.00</ele>
	<time>2024-09-06T07:39:58.000Z</time>
</trkpt>
<trkpt lat="46.1326900" lon="10.1397310">
	<ele>1844.00</ele>
	<time>2024-09-06T07:39:59.000Z</time>
</trkpt>
<trkpt lat="46.1326760" lon="10.1397270">
	<ele>1844.00</ele>
	<time>2024-09-06T07:40:00.000Z</time>
</trkpt>
<trkpt lat="46.1326630" lon="10.1397220">
	<ele>1844.00</ele>
	<time>2024-09-06T07:40:01.000Z</time>
</trkpt>
<trkpt lat="46.1326500" lon="10.1397220">
	<ele>1844.00</ele>
	<time>2024-09-06T07:40:02.000Z</time>
</trkpt>
<trkpt lat="46.1326360" lon="10.1397260">
	<ele>1844.00</ele>
	<time>2024-09-06T07:40:03.000Z</time>
</trkpt>
<trkpt lat="46.1326240" lon="10.1397270">
	<ele>1844.20</ele>
	<time>2024-09-06T07:40:04.000Z</time>
</trkpt>
<trkpt lat="46.1326090" lon="10.1397270">
	<ele>1844.20</ele>
	<time>2024-09-06T07:40:05.000Z</time>
</trkpt>
<trkpt lat="46.1325960" lon="10.1397230">
	<ele>1844.40</ele>
	<time>2024-09-06T07:40:06.000Z</time>
</trkpt>
<trkpt lat="46.1325880" lon="10.1397200">
	<ele>1844.60</ele>
	<time>2024-09-06T07:40:07.000Z</time>
</trkpt>
<trkpt lat="46.1325740" lon="10.1397130">
	<ele>1844.60</ele>
	<time>2024-09-06T07:40:08.000Z</time>
</trkpt>
<trkpt lat="46.1325620" lon="10.1397060">
	<ele>1844.80</ele>
	<time>2024-09-06T07:40:09.000Z</time>
</trkpt>
<trkpt lat="46.1325490" lon="10.1396980">
	<ele>1844.80</ele>
	<time>2024-09-06T07:40:10.000Z</time>
</trkpt>
<trkpt lat="46.1325360" lon="10.1396920">
	<ele>1844.80</ele>
	<time>2024-09-06T07:40:11.000Z</time>
</trkpt>
<trkpt lat="46.1325240" lon="10.1396900">
	<ele>1844.80</ele>
	<time>2024-09-06T07:40:12.000Z</time>
</trkpt>
<trkpt lat="46.1325150" lon="10.1396920">
	<ele>1845.00</ele>
	<time>2024-09-06T07:40:13.000Z</time>
</trkpt>
<trkpt lat="46.1325050" lon="10.1396970">
	<ele>1845.00</ele>
	<time>2024-09-06T07:40:14.000Z</time>
</trkpt>
<trkpt lat="46.1324930" lon="10.1396980">
	<ele>1845.00</ele>
	<time>2024-09-06T07:40:15.000Z</time>
</trkpt>
<trkpt lat="46.1324820" lon="10.1397000">
	<ele>1845.00</ele>
	<time>2024-09-06T07:40:16.000Z</time>
</trkpt>
<trkpt lat="46.1324740" lon="10.1397050">
	<ele>1845.00</ele>
	<time>2024-09-06T07:40:17.000Z</time>
</trkpt>
<trkpt lat="46.1324640" lon="10.1397100">
	<ele>1845.20</ele>
	<time>2024-09-06T07:40:18.000Z</time>
</trkpt>
<trkpt lat="46.1324510" lon="10.1397150">
	<ele>1845.20</ele>
	<time>2024-09-06T07:40:19.000Z</time>
</trkpt>
<trkpt lat="46.1324380" lon="10.1397250">
	<ele>1845.20</ele>
	<time>2024-09-06T07:40:20.000Z</time>
</trkpt>
<trkpt lat="46.1324300" lon="10.1397320">
	<ele>1845.20</ele>
	<time>2024-09-06T07:40:21.000Z</time>
</trkpt>
<trkpt lat="46.1324200" lon="10.1397370">
	<ele>1845.20</ele>
	<time>2024-09-06T07:40:22.000Z</time>
</trkpt>
<trkpt lat="46.1324120" lon="10.1397430">
	<ele>1845.20</ele>
	<time>2024-09-06T07:40:23.000Z</time>
</trkpt>
<trkpt lat="46.1324030" lon="10.1397490">
	<ele>1845.40</ele>
	<time>2024-09-06T07:40:24.000Z</time>
</trkpt>
<trkpt lat="46.1323920" lon="10.1397550">
	<ele>1845.60</ele>
	<time>2024-09-06T07:40:25.000Z</time>
</trkpt>
<trkpt lat="46.1323820" lon="10.1397610">
	<ele>1845.60</ele>
	<time>2024-09-06T07:40:26.000Z</time>
</trkpt>
<trkpt lat="46.1323730" lon="10.1397670">
	<ele>1845.80</ele>
	<time>2024-09-06T07:40:27.000Z</time>
</trkpt>
<trkpt lat="46.1323680" lon="10.1397770">
	<ele>1846.00</ele>
	<time>2024-09-06T07:40:28.000Z</time>
</trkpt>
<trkpt lat="46.1323610" lon="10.1397860">
	<ele>1846.00</ele>
	<time>2024-09-06T07:40:29.000Z</time>
</trkpt>
<trkpt lat="46.1323540" lon="10.1397990">
	<ele>1846.00</ele>
	<time>2024-09-06T07:40:30.000Z</time>
</trkpt>
<trkpt lat="46.1323480" lon="10.1398180">
	<ele>1846.00</ele>
	<time>2024-09-06T07:40:31.000Z</time>
</trkpt>
<trkpt lat="46.1323400" lon="10.1398290">
	<ele>1846.00</ele>
	<time>2024-09-06T07:40:32.000Z</time>
</trkpt>
<trkpt lat="46.1323310" lon="10.1398330">
	<ele>1846.20</ele>
	<time>2024-09-06T07:40:33.000Z</time>
</trkpt>
<trkpt lat="46.1323230" lon="10.1398380">
	<ele>1846.20</ele>
	<time>2024-09-06T07:40:34.000Z</time>
</trkpt>
<trkpt lat="46.1323160" lon="10.1398480">
	<ele>1846.40</ele>
	<time>2024-09-06T07:40:35.000Z</time>
</trkpt>
<trkpt lat="46.1323150" lon="10.1398640">
	<ele>1846.40</ele>
	<time>2024-09-06T07:40:36.000Z</time>
</trkpt>
<trkpt lat="46.1323140" lon="10.1398810">
	<ele>1846.40</ele>
	<time>2024-09-06T07:40:37.000Z</time>
</trkpt>
<trkpt lat="46.1323150" lon="10.1398880">
	<ele>1846.60</ele>
	<time>2024-09-06T07:40:38.000Z</time>
</trkpt>
<trkpt lat="46.1323150" lon="10.1398920">
	<ele>1846.80</ele>
	<time>2024-09-06T07:40:39.000Z</time>
</trkpt>
<trkpt lat="46.1323150" lon="10.1398920">
	<ele>1846.80</ele>
	<time>2024-09-06T07:40:40.000Z</time>
</trkpt>
<trkpt lat="46.1323140" lon="10.1398920">
	<ele>1846.80</ele>
	<time>2024-09-06T07:40:41.000Z</time>
</trkpt>
<trkpt lat="46.1323150" lon="10.1398920">
	<ele>1847.00</ele>
	<time>2024-09-06T07:40:42.000Z</time>
</trkpt>
<trkpt lat="46.1323140" lon="10.1398910">
	<ele>1847.00</ele>
	<time>2024-09-06T07:40:43.000Z</time>
</trkpt>
<trkpt lat="46.1323150" lon="10.1398890">
	<ele>1847.00</ele>
	<time>2024-09-06T07:40:44.000Z</time>
</trkpt>
<trkpt lat="46.1323130" lon="10.1398900">
	<ele>1847.00</ele>
	<time>2024-09-06T07:40:45.000Z</time>
</trkpt>
<trkpt lat="46.1323100" lon="10.1398930">
	<ele>1847.00</ele>
	<time>2024-09-06T07:40:46.000Z</time>
</trkpt>
<trkpt lat="46.1323060" lon="10.1399030">
	<ele>1847.20</ele>
	<time>2024-09-06T07:40:47.000Z</time>
</trkpt>
<trkpt lat="46.1323030" lon="10.1399100">
	<ele>1847.20</ele>
	<time>2024-09-06T07:40:48.000Z</time>
</trkpt>
<trkpt lat="46.1322990" lon="10.1399170">
	<ele>1847.20</ele>
	<time>2024-09-06T07:40:49.000Z</time>
</trkpt>
<trkpt lat="46.1322940" lon="10.1399280">
	<ele>1847.20</ele>
	<time>2024-09-06T07:40:50.000Z</time>
</trkpt>
<trkpt lat="46.1322910" lon="10.1399390">
	<ele>1847.20</ele>
	<time>2024-09-06T07:40:51.000Z</time>
</trkpt>
<trkpt lat="46.1322860" lon="10.1399510">
	<ele>1847.40</ele>
	<time>2024-09-06T07:40:52.000Z</time>
</trkpt>
<trkpt lat="46.1322810" lon="10.1399640">
	<ele>1847.40</ele>
	<time>2024-09-06T07:40:53.000Z</time>
</trkpt>
<trkpt lat="46.1322780" lon="10.1399750">
	<ele>1847.60</ele>
	<time>2024-09-06T07:40:54.000Z</time>
</trkpt>
<trkpt lat="46.1322740" lon="10.1399870">
	<ele>1847.60</ele>
	<time>2024-09-06T07:40:55.000Z</time>
</trkpt>
<trkpt lat="46.1322680" lon="10.1400000">
	<ele>1847.80</ele>
	<time>2024-09-06T07:40:56.000Z</time>
</trkpt>
<trkpt lat="46.1322610" lon="10.1400120">
	<ele>1847.80</ele>
	<time>2024-09-06T07:40:57.000Z</time>
</trkpt>
<trkpt lat="46.1322560" lon="10.1400210">
	<ele>1847.80</ele>
	<time>2024-09-06T07:40:58.000Z</time>
</trkpt>
<trkpt lat="46.1322500" lon="10.1400270">
	<ele>1848.00</ele>
	<time>2024-09-06T07:40:59.000Z</time>
</trkpt>
<trkpt lat="46.1322420" lon="10.1400330">
	<ele>1848.00</ele>
	<time>2024-09-06T07:41:00.000Z</time>
</trkpt>
<trkpt lat="46.1322360" lon="10.1400430">
	<ele>1848.20</ele>
	<time>2024-09-06T07:41:01.000Z</time>
</trkpt>
<trkpt lat="46.1322300" lon="10.1400580">
	<ele>1848.40</ele>
	<time>2024-09-06T07:41:02.000Z</time>
</trkpt>
<trkpt lat="46.1322250" lon="10.1400700">
	<ele>1848.60</ele>
	<time>2024-09-06T07:41:03.000Z</time>
</trkpt>
<trkpt lat="46.1322210" lon="10.1400810">
	<ele>1848.60</ele>
	<time>2024-09-06T07:41:04.000Z</time>
</trkpt>
<trkpt lat="46.1322190" lon="10.1400900">
	<ele>1848.80</ele>
	<time>2024-09-06T07:41:05.000Z</time>
</trkpt>
<trkpt lat="46.1322190" lon="10.1401020">
	<ele>1848.80</ele>
	<time>2024-09-06T07:41:06.000Z</time>
</trkpt>
<trkpt lat="46.1322160" lon="10.1401140">
	<ele>1849.00</ele>
	<time>2024-09-06T07:41:07.000Z</time>
</trkpt>
<trkpt lat="46.1322140" lon="10.1401240">
	<ele>1849.00</ele>
	<time>2024-09-06T07:41:08.000Z</time>
</trkpt>
<trkpt lat="46.1322100" lon="10.1401320">
	<ele>1849.20</ele>
	<time>2024-09-06T07:41:09.000Z</time>
</trkpt>
<trkpt lat="46.1322050" lon="10.1401420">
	<ele>1849.40</ele>
	<time>2024-09-06T07:41:10.000Z</time>
</trkpt>
<trkpt lat="46.1321990" lon="10.1401530">
	<ele>1849.40</ele>
	<time>2024-09-06T07:41:11.000Z</time>
</trkpt>
<trkpt lat="46.1321940" lon="10.1401640">
	<ele>1849.40</ele>
	<time>2024-09-06T07:41:12.000Z</time>
</trkpt>
<trkpt lat="46.1321890" lon="10.1401730">
	<ele>1849.60</ele>
	<time>2024-09-06T07:41:13.000Z</time>
</trkpt>
<trkpt lat="46.1321830" lon="10.1401850">
	<ele>1849.60</ele>
	<time>2024-09-06T07:41:14.000Z</time>
</trkpt>
<trkpt lat="46.1321760" lon="10.1401970">
	<ele>1849.80</ele>
	<time>2024-09-06T07:41:15.000Z</time>
</trkpt>
<trkpt lat="46.1321710" lon="10.1402070">
	<ele>1849.80</ele>
	<time>2024-09-06T07:41:16.000Z</time>
</trkpt>
<trkpt lat="46.1321660" lon="10.1402100">
	<ele>1849.80</ele>
	<time>2024-09-06T07:41:17.000Z</time>
</trkpt>
<trkpt lat="46.1321620" lon="10.1402110">
	<ele>1850.00</ele>
	<time>2024-09-06T07:41:18.000Z</time>
</trkpt>
<trkpt lat="46.1321590" lon="10.1402090">
	<ele>1850.20</ele>
	<time>2024-09-06T07:41:19.000Z</time>
</trkpt>
<trkpt lat="46.1321580" lon="10.1402040">
	<ele>1850.20</ele>
	<time>2024-09-06T07:41:20.000Z</time>
</trkpt>
<trkpt lat="46.1321550" lon="10.1401920">
	<ele>1850.20</ele>
	<time>2024-09-06T07:41:21.000Z</time>
</trkpt>
<trkpt lat="46.1321480" lon="10.1401770">
	<ele>1850.20</ele>
	<time>2024-09-06T07:41:22.000Z</time>
</trkpt>
<trkpt lat="46.1321420" lon="10.1401640">
	<ele>1850.20</ele>
	<time>2024-09-06T07:41:23.000Z</time>
</trkpt>
<trkpt lat="46.1321340" lon="10.1401570">
	<ele>1850.20</ele>
	<time>2024-09-06T07:41:24.000Z</time>
</trkpt>
<trkpt lat="46.1321230" lon="10.1401470">
	<ele>1850.20</ele>
	<time>2024-09-06T07:41:25.000Z</time>
</trkpt>
<trkpt lat="46.1321090" lon="10.1401390">
	<ele>1850.00</ele>
	<time>2024-09-06T07:41:26.000Z</time>
</trkpt>
<trkpt lat="46.1320970" lon="10.1401270">
	<ele>1850.00</ele>
	<time>2024-09-06T07:41:27.000Z</time>
</trkpt>
<trkpt lat="46.1320920" lon="10.1401230">
	<ele>1850.00</ele>
	<time>2024-09-06T07:41:28.000Z</time>
</trkpt>
<trkpt lat="46.1320840" lon="10.1401190">
	<ele>1850.00</ele>
	<time>2024-09-06T07:41:29.000Z</time>
</trkpt>
<trkpt lat="46.1320730" lon="10.1401120">
	<ele>1850.00</ele>
	<time>2024-09-06T07:41:30.000Z</time>
</trkpt>
<trkpt lat="46.1320630" lon="10.1401030">
	<ele>1849.80</ele>
	<time>2024-09-06T07:41:31.000Z</time>
</trkpt>
<trkpt lat="46.1320520" lon="10.1400980">
	<ele>1850.00</ele>
	<time>2024-09-06T07:41:32.000Z</time>
</trkpt>
<trkpt lat="46.1320420" lon="10.1400920">
	<ele>1850.00</ele>
	<time>2024-09-06T07:41:33.000Z</time>
</trkpt>
<trkpt lat="46.1320290" lon="10.1400850">
	<ele>1850.00</ele>
	<time>2024-09-06T07:41:34.000Z</time>
</trkpt>
<trkpt lat="46.1320210" lon="10.1400800">
	<ele>1850.20</ele>
	<time>2024-09-06T07:41:35.000Z</time>
</trkpt>
<trkpt lat="46.1320120" lon="10.1400760">
	<ele>1850.40</ele>
	<time>2024-09-06T07:41:36.000Z</time>
</trkpt>
<trkpt lat="46.1320030" lon="10.1400730">
	<ele>1850.40</ele>
	<time>2024-09-06T07:41:37.000Z</time>
</trkpt>
<trkpt lat="46.1319950" lon="10.1400680">
	<ele>1850.60</ele>
	<time>2024-09-06T07:41:38.000Z</time>
</trkpt>
<trkpt lat="46.1319890" lon="10.1400670">
	<ele>1850.60</ele>
	<time>2024-09-06T07:41:39.000Z</time>
</trkpt>
<trkpt lat="46.1319830" lon="10.1400690">
	<ele>1850.80</ele>
	<time>2024-09-06T07:41:40.000Z</time>
</trkpt>
<trkpt lat="46.1319760" lon="10.1400690">
	<ele>1851.00</ele>
	<time>2024-09-06T07:41:41.000Z</time>
</trkpt>
<trkpt lat="46.1319680" lon="10.1400690">
	<ele>1851.20</ele>
	<time>2024-09-06T07:41:42.000Z</time>
</trkpt>
<trkpt lat="46.1319580" lon="10.1400720">
	<ele>1851.20</ele>
	<time>2024-09-06T07:41:43.000Z</time>
</trkpt>
<trkpt lat="46.1319500" lon="10.1400740">
	<ele>1851.40</ele>
	<time>2024-09-06T07:41:44.000Z</time>
</trkpt>
<trkpt lat="46.1319440" lon="10.1400770">
	<ele>1851.80</ele>
	<time>2024-09-06T07:41:45.000Z</time>
</trkpt>
<trkpt lat="46.1319340" lon="10.1400830">
	<ele>1852.00</ele>
	<time>2024-09-06T07:41:46.000Z</time>
</trkpt>
<trkpt lat="46.1319250" lon="10.1400910">
	<ele>1852.20</ele>
	<time>2024-09-06T07:41:47.000Z</time>
</trkpt>
<trkpt lat="46.1319150" lon="10.1401000">
	<ele>1852.40</ele>
	<time>2024-09-06T07:41:48.000Z</time>
</trkpt>
<trkpt lat="46.1319030" lon="10.1401060">
	<ele>1852.60</ele>
	<time>2024-09-06T07:41:49.000Z</time>
</trkpt>
<trkpt lat="46.1318920" lon="10.1401100">
	<ele>1852.80</ele>
	<time>2024-09-06T07:41:50.000Z</time>
</trkpt>
<trkpt lat="46.1318860" lon="10.1401130">
	<ele>1853.00</ele>
	<time>2024-09-06T07:41:51.000Z</time>
</trkpt>
<trkpt lat="46.1318850" lon="10.1401140">
	<ele>1853.40</ele>
	<time>2024-09-06T07:41:52.000Z</time>
</trkpt>
<trkpt lat="46.1318840" lon="10.1401170">
	<ele>1853.40</ele>
	<time>2024-09-06T07:41:53.000Z</time>
</trkpt>
<trkpt lat="46.1318800" lon="10.1401210">
	<ele>1853.60</ele>
	<time>2024-09-06T07:41:54.000Z</time>
</trkpt>
<trkpt lat="46.1318730" lon="10.1401280">
	<ele>1853.60</ele>
	<time>2024-09-06T07:41:55.000Z</time>
</trkpt>
<trkpt lat="46.1318650" lon="10.1401350">
	<ele>1853.60</ele>
	<time>2024-09-06T07:41:56.000Z</time>
</trkpt>
<trkpt lat="46.1318560" lon="10.1401380">
	<ele>1853.60</ele>
	<time>2024-09-06T07:41:57.000Z</time>
</trkpt>
<trkpt lat="46.1318440" lon="10.1401410">
	<ele>1853.60</ele>
	<time>2024-09-06T07:41:58.000Z</time>
</trkpt>
<trkpt lat="46.1318340" lon="10.1401490">
	<ele>1853.80</ele>
	<time>2024-09-06T07:41:59.000Z</time>
</trkpt>
<trkpt lat="46.1318250" lon="10.1401560">
	<ele>1854.00</ele>
	<time>2024-09-06T07:42:00.000Z</time>
</trkpt>
<trkpt lat="46.1318170" lon="10.1401650">
	<ele>1854.00</ele>
	<time>2024-09-06T07:42:01.000Z</time>
</trkpt>
<trkpt lat="46.1318090" lon="10.1401700">
	<ele>1854.20</ele>
	<time>2024-09-06T07:42:02.000Z</time>
</trkpt>
<trkpt lat="46.1318030" lon="10.1401750">
	<ele>1854.20</ele>
	<time>2024-09-06T07:42:03.000Z</time>
</trkpt>
<trkpt lat="46.1317920" lon="10.1401810">
	<ele>1854.20</ele>
	<time>2024-09-06T07:42:04.000Z</time>
</trkpt>
<trkpt lat="46.1317810" lon="10.1401890">
	<ele>1854.20</ele>
	<time>2024-09-06T07:42:05.000Z</time>
</trkpt>
<trkpt lat="46.1317710" lon="10.1401940">
	<ele>1854.20</ele>
	<time>2024-09-06T07:42:06.000Z</time>
</trkpt>
<trkpt lat="46.1317620" lon="10.1402000">
	<ele>1854.20</ele>
	<time>2024-09-06T07:42:07.000Z</time>
</trkpt>
<trkpt lat="46.1317530" lon="10.1402030">
	<ele>1854.40</ele>
	<time>2024-09-06T07:42:08.000Z</time>
</trkpt>
<trkpt lat="46.1317400" lon="10.1402110">
	<ele>1854.40</ele>
	<time>2024-09-06T07:42:09.000Z</time>
</trkpt>
<trkpt lat="46.1317300" lon="10.1402190">
	<ele>1854.40</ele>
	<time>2024-09-06T07:42:10.000Z</time>
</trkpt>
<trkpt lat="46.1317200" lon="10.1402250">
	<ele>1854.40</ele>
	<time>2024-09-06T07:42:11.000Z</time>
</trkpt>
<trkpt lat="46.1317180" lon="10.1402300">
	<ele>1854.60</ele>
	<time>2024-09-06T07:42:12.000Z</time>
</trkpt>
<trkpt lat="46.1317160" lon="10.1402300">
	<ele>1854.60</ele>
	<time>2024-09-06T07:42:13.000Z</time>
</trkpt>
<trkpt lat="46.1317150" lon="10.1402260">
	<ele>1854.60</ele>
	<time>2024-09-06T07:42:14.000Z</time>
</trkpt>
<trkpt lat="46.1317120" lon="10.1402280">
	<ele>1854.80</ele>
	<time>2024-09-06T07:42:15.000Z</time>
</trkpt>
<trkpt lat="46.1317030" lon="10.1402380">
	<ele>1854.80</ele>
	<time>2024-09-06T07:42:16.000Z</time>
</trkpt>
<trkpt lat="46.1316920" lon="10.1402420">
	<ele>1854.80</ele>
	<time>2024-09-06T07:42:17.000Z</time>
</trkpt>
<trkpt lat="46.1316830" lon="10.1402440">
	<ele>1855.00</ele>
	<time>2024-09-06T07:42:18.000Z</time>
</trkpt>
<trkpt lat="46.1316730" lon="10.1402460">
	<ele>1855.00</ele>
	<time>2024-09-06T07:42:19.000Z</time>
</trkpt>
<trkpt lat="46.1316590" lon="10.1402420">
	<ele>1855.00</ele>
	<time>2024-09-06T07:42:20.000Z</time>
</trkpt>
<trkpt lat="46.1316530" lon="10.1402410">
	<ele>1855.20</ele>
	<time>2024-09-06T07:42:21.000Z</time>
</trkpt>
<trkpt lat="46.1316500" lon="10.1402350">
	<ele>1855.20</ele>
	<time>2024-09-06T07:42:22.000Z</time>
</trkpt>
<trkpt lat="46.1316350" lon="10.1402360">
	<ele>1855.40</ele>
	<time>2024-09-06T07:42:23.000Z</time>
</trkpt>
<trkpt lat="46.1316240" lon="10.1402370">
	<ele>1855.40</ele>
	<time>2024-09-06T07:42:24.000Z</time>
</trkpt>
<trkpt lat="46.1316200" lon="10.1402330">
	<ele>1855.60</ele>
	<time>2024-09-06T07:42:25.000Z</time>
</trkpt>
<trkpt lat="46.1316100" lon="10.1402320">
	<ele>1855.60</ele>
	<time>2024-09-06T07:42:26.000Z</time>
</trkpt>
<trkpt lat="46.1316010" lon="10.1402340">
	<ele>1855.60</ele>
	<time>2024-09-06T07:42:27.000Z</time>
</trkpt>
<trkpt lat="46.1315930" lon="10.1402370">
	<ele>1855.80</ele>
	<time>2024-09-06T07:42:28.000Z</time>
</trkpt>
<trkpt lat="46.1315850" lon="10.1402380">
	<ele>1855.80</ele>
	<time>2024-09-06T07:42:29.000Z</time>
</trkpt>
<trkpt lat="46.1315740" lon="10.1402410">
	<ele>1856.00</ele>
	<time>2024-09-06T07:42:30.000Z</time>
</trkpt>
<trkpt lat="46.1315620" lon="10.1402440">
	<ele>1856.00</ele>
	<time>2024-09-06T07:42:31.000Z</time>
</trkpt>
<trkpt lat="46.1315470" lon="10.1402460">
	<ele>1856.20</ele>
	<time>2024-09-06T07:42:32.000Z</time>
</trkpt>
<trkpt lat="46.1315370" lon="10.1402390">
	<ele>1856.20</ele>
	<time>2024-09-06T07:42:33.000Z</time>
</trkpt>
<trkpt lat="46.1315290" lon="10.1402340">
	<ele>1856.40</ele>
	<time>2024-09-06T07:42:34.000Z</time>
</trkpt>
<trkpt lat="46.1315250" lon="10.1402370">
	<ele>1856.80</ele>
	<time>2024-09-06T07:42:35.000Z</time>
</trkpt>
<trkpt lat="46.1315230" lon="10.1402280">
	<ele>1857.00</ele>
	<time>2024-09-06T07:42:36.000Z</time>
</trkpt>
<trkpt lat="46.1315220" lon="10.1402140">
	<ele>1857.20</ele>
	<time>2024-09-06T07:42:37.000Z</time>
</trkpt>
<trkpt lat="46.1315160" lon="10.1402010">
	<ele>1857.20</ele>
	<time>2024-09-06T07:42:38.000Z</time>
</trkpt>
<trkpt lat="46.1315090" lon="10.1401900">
	<ele>1857.40</ele>
	<time>2024-09-06T07:42:39.000Z</time>
</trkpt>
<trkpt lat="46.1315080" lon="10.1401870">
	<ele>1857.60</ele>
	<time>2024-09-06T07:42:40.000Z</time>
</trkpt>
<trkpt lat="46.1315020" lon="10.1401790">
	<ele>1857.80</ele>
	<time>2024-09-06T07:42:41.000Z</time>
</trkpt>
<trkpt lat="46.1314900" lon="10.1401750">
	<ele>1858.00</ele>
	<time>2024-09-06T07:42:42.000Z</time>
</trkpt>
<trkpt lat="46.1314760" lon="10.1401740">
	<ele>1858.20</ele>
	<time>2024-09-06T07:42:43.000Z</time>
</trkpt>
<trkpt lat="46.1314670" lon="10.1401660">
	<ele>1858.20</ele>
	<time>2024-09-06T07:42:44.000Z</time>
</trkpt>
<trkpt lat="46.1314570" lon="10.1401610">
	<ele>1858.40</ele>
	<time>2024-09-06T07:42:45.000Z</time>
</trkpt>
<trkpt lat="46.1314490" lon="10.1401580">
	<ele>1858.40</ele>
	<time>2024-09-06T07:42:46.000Z</time>
</trkpt>
<trkpt lat="46.1314410" lon="10.1401530">
	<ele>1858.60</ele>
	<time>2024-09-06T07:42:47.000Z</time>
</trkpt>
<trkpt lat="46.1314290" lon="10.1401540">
	<ele>1858.80</ele>
	<time>2024-09-06T07:42:48.000Z</time>
</trkpt>
<trkpt lat="46.1314150" lon="10.1401550">
	<ele>1858.80</ele>
	<time>2024-09-06T07:42:49.000Z</time>
</trkpt>
<trkpt lat="46.1313950" lon="10.1401640">
	<ele>1859.00</ele>
	<time>2024-09-06T07:42:50.000Z</time>
</trkpt>
<trkpt lat="46.1313850" lon="10.1401730">
	<ele>1859.20</ele>
	<time>2024-09-06T07:42:51.000Z</time>
</trkpt>
<trkpt lat="46.1313760" lon="10.1401790">
	<ele>1859.20</ele>
	<time>2024-09-06T07:42:52.000Z</time>
</trkpt>
<trkpt lat="46.1313660" lon="10.1401830">
	<ele>1859.40</ele>
	<time>2024-09-06T07:42:53.000Z</time>
</trkpt>
<trkpt lat="46.1313460" lon="10.1401920">
	<ele>1859.60</ele>
	<time>2024-09-06T07:42:54.000Z</time>
</trkpt>
<trkpt lat="46.1313280" lon="10.1401970">
	<ele>1859.80</ele>
	<time>2024-09-06T07:42:55.000Z</time>
</trkpt>
<trkpt lat="46.1313180" lon="10.1401920">
	<ele>1860.00</ele>
	<time>2024-09-06T07:42:56.000Z</time>
</trkpt>
<trkpt lat="46.1313110" lon="10.1401970">
	<ele>1860.20</ele>
	<time>2024-09-06T07:42:57.000Z</time>
</trkpt>
<trkpt lat="46.1313100" lon="10.1401890">
	<ele>1860.20</ele>
	<time>2024-09-06T07:42:58.000Z</time>
</trkpt>
<trkpt lat="46.1313000" lon="10.1401940">
	<ele>1860.40</ele>
	<time>2024-09-06T07:42:59.000Z</time>
</trkpt>
<trkpt lat="46.1312890" lon="10.1401950">
	<ele>1860.40</ele>
	<time>2024-09-06T07:43:00.000Z</time>
</trkpt>
<trkpt lat="46.1312760" lon="10.1401930">
	<ele>1860.60</ele>
	<time>2024-09-06T07:43:01.000Z</time>
</trkpt>
<trkpt lat="46.1312710" lon="10.1401960">
	<ele>1860.60</ele>
	<time>2024-09-06T07:43:02.000Z</time>
</trkpt>
<trkpt lat="46.1312610" lon="10.1401870">
	<ele>1860.60</ele>
	<time>2024-09-06T07:43:03.000Z</time>
</trkpt>
<trkpt lat="46.1312480" lon="10.1401850">
	<ele>1860.60</ele>
	<time>2024-09-06T07:43:04.000Z</time>
</trkpt>
<trkpt lat="46.1312400" lon="10.1401910">
	<ele>1860.80</ele>
	<time>2024-09-06T07:43:05.000Z</time>
</trkpt>
<trkpt lat="46.1312370" lon="10.1401920">
	<ele>1860.80</ele>
	<time>2024-09-06T07:43:06.000Z</time>
</trkpt>
<trkpt lat="46.1312350" lon="10.1401970">
	<ele>1860.80</ele>
	<time>2024-09-06T07:43:07.000Z</time>
</trkpt>
<trkpt lat="46.1312300" lon="10.1402040">
	<ele>1861.00</ele>
	<time>2024-09-06T07:43:08.000Z</time>
</trkpt>
<trkpt lat="46.1312200" lon="10.1402160">
	<ele>1861.00</ele>
	<time>2024-09-06T07:43:09.000Z</time>
</trkpt>
<trkpt lat="46.1312170" lon="10.1402220">
	<ele>1861.20</ele>
	<time>2024-09-06T07:43:10.000Z</time>
</trkpt>
<trkpt lat="46.1312030" lon="10.1402400">
	<ele>1861.40</ele>
	<time>2024-09-06T07:43:11.000Z</time>
</trkpt>
<trkpt lat="46.1311890" lon="10.1402440">
	<ele>1861.40</ele>
	<time>2024-09-06T07:43:12.000Z</time>
</trkpt>
<trkpt lat="46.1311740" lon="10.1402570">
	<ele>1861.60</ele>
	<time>2024-09-06T07:43:13.000Z</time>
</trkpt>
<trkpt lat="46.1311640" lon="10.1402640">
	<ele>1861.60</ele>
	<time>2024-09-06T07:43:14.000Z</time>
</trkpt>
<trkpt lat="46.1311530" lon="10.1402670">
	<ele>1861.80</ele>
	<time>2024-09-06T07:43:15.000Z</time>
</trkpt>
<trkpt lat="46.1311480" lon="10.1402690">
	<ele>1862.00</ele>
	<time>2024-09-06T07:43:16.000Z</time>
</trkpt>
<trkpt lat="46.1311460" lon="10.1402690">
	<ele>1862.20</ele>
	<time>2024-09-06T07:43:17.000Z</time>
</trkpt>
<trkpt lat="46.1311450" lon="10.1402700">
	<ele>1862.20</ele>
	<time>2024-09-06T07:43:18.000Z</time>
</trkpt>
<trkpt lat="46.1311390" lon="10.1402800">
	<ele>1862.40</ele>
	<time>2024-09-06T07:43:19.000Z</time>
</trkpt>
<trkpt lat="46.1311360" lon="10.1402910">
	<ele>1862.60</ele>
	<time>2024-09-06T07:43:20.000Z</time>
</trkpt>
<trkpt lat="46.1311290" lon="10.1403000">
	<ele>1862.60</ele>
	<time>2024-09-06T07:43:21.000Z</time>
</trkpt>
<trkpt lat="46.1311240" lon="10.1403040">
	<ele>1862.80</ele>
	<time>2024-09-06T07:43:22.000Z</time>
</trkpt>
<trkpt lat="46.1311180" lon="10.1403090">
	<ele>1863.00</ele>
	<time>2024-09-06T07:43:23.000Z</time>
</trkpt>
<trkpt lat="46.1311150" lon="10.1403140">
	<ele>1863.20</ele>
	<time>2024-09-06T07:43:24.000Z</time>
</trkpt>
<trkpt lat="46.1311130" lon="10.1403160">
	<ele>1863.40</ele>
	<time>2024-09-06T07:43:25.000Z</time>
</trkpt>
<trkpt lat="46.1311050" lon="10.1403200">
	<ele>1863.80</ele>
	<time>2024-09-06T07:43:26.000Z</time>
</trkpt>
<trkpt lat="46.1311010" lon="10.1403220">
	<ele>1864.00</ele>
	<time>2024-09-06T07:43:27.000Z</time>
</trkpt>
<trkpt lat="46.1310970" lon="10.1403320">
	<ele>1864.00</ele>
	<time>2024-09-06T07:43:28.000Z</time>
</trkpt>
<trkpt lat="46.1310880" lon="10.1403390">
	<ele>1864.20</ele>
	<time>2024-09-06T07:43:29.000Z</time>
</trkpt>
<trkpt lat="46.1310840" lon="10.1403520">
	<ele>1864.20</ele>
	<time>2024-09-06T07:43:30.000Z</time>
</trkpt>
<trkpt lat="46.1310810" lon="10.1403660">
	<ele>1864.60</ele>
	<time>2024-09-06T07:43:31.000Z</time>
</trkpt>
<trkpt lat="46.1310820" lon="10.1403820">
	<ele>1864.80</ele>
	<time>2024-09-06T07:43:32.000Z</time>
</trkpt>
<trkpt lat="46.1310840" lon="10.1403980">
	<ele>1864.80</ele>
	<time>2024-09-06T07:43:33.000Z</time>
</trkpt>
<trkpt lat="46.1310770" lon="10.1404120">
	<ele>1865.00</ele>
	<time>2024-09-06T07:43:34.000Z</time>
</trkpt>
<trkpt lat="46.1310670" lon="10.1404210">
	<ele>1865.20</ele>
	<time>2024-09-06T07:43:35.000Z</time>
</trkpt>
<trkpt lat="46.1310620" lon="10.1404290">
	<ele>1865.60</ele>
	<time>2024-09-06T07:43:36.000Z</time>
</trkpt>
<trkpt lat="46.1310560" lon="10.1404290">
	<ele>1865.80</ele>
	<time>2024-09-06T07:43:37.000Z</time>
</trkpt>
<trkpt lat="46.1310480" lon="10.1404310">
	<ele>1865.80</ele>
	<time>2024-09-06T07:43:38.000Z</time>
</trkpt>
<trkpt lat="46.1310340" lon="10.1404370">
	<ele>1866.20</ele>
	<time>2024-09-06T07:43:39.000Z</time>
</trkpt>
<trkpt lat="46.1310200" lon="10.1404450">
	<ele>1866.20</ele>
	<time>2024-09-06T07:43:40.000Z</time>
</trkpt>
<trkpt lat="46.1310080" lon="10.1404520">
	<ele>1866.60</ele>
	<time>2024-09-06T07:43:41.000Z</time>
</trkpt>
<trkpt lat="46.1310030" lon="10.1404570">
	<ele>1866.80</ele>
	<time>2024-09-06T07:43:42.000Z</time>
</trkpt>
<trkpt lat="46.1310010" lon="10.1404610">
	<ele>1867.00</ele>
	<time>2024-09-06T07:43:43.000Z</time>
</trkpt>
<trkpt lat="46.1309960" lon="10.1404650">
	<ele>1867.00</ele>
	<time>2024-09-06T07:43:44.000Z</time>
</trkpt>
<trkpt lat="46.1309910" lon="10.1404700">
	<ele>1867.20</ele>
	<time>2024-09-06T07:43:45.000Z</time>
</trkpt>
<trkpt lat="46.1309830" lon="10.1404770">
	<ele>1867.20</ele>
	<time>2024-09-06T07:43:46.000Z</time>
</trkpt>
<trkpt lat="46.1309770" lon="10.1404780">
	<ele>1867.40</ele>
	<time>2024-09-06T07:43:47.000Z</time>
</trkpt>
<trkpt lat="46.1309710" lon="10.1404810">
	<ele>1867.60</ele>
	<time>2024-09-06T07:43:48.000Z</time>
</trkpt>
<trkpt lat="46.1309620" lon="10.1404850">
	<ele>1867.60</ele>
	<time>2024-09-06T07:43:49.000Z</time>
</trkpt>
<trkpt lat="46.1309500" lon="10.1404900">
	<ele>1867.60</ele>
	<time>2024-09-06T07:43:50.000Z</time>
</trkpt>
<trkpt lat="46.1309400" lon="10.1405000">
	<ele>1867.80</ele>
	<time>2024-09-06T07:43:51.000Z</time>
</trkpt>
<trkpt lat="46.1309340" lon="10.1405110">
	<ele>1867.80</ele>
	<time>2024-09-06T07:43:52.000Z</time>
</trkpt>
<trkpt lat="46.1309300" lon="10.1405230">
	<ele>1868.00</ele>
	<time>2024-09-06T07:43:53.000Z</time>
</trkpt>
<trkpt lat="46.1309260" lon="10.1405290">
	<ele>1868.00</ele>
	<time>2024-09-06T07:43:54.000Z</time>
</trkpt>
<trkpt lat="46.1309230" lon="10.1405310">
	<ele>1868.20</ele>
	<time>2024-09-06T07:43:55.000Z</time>
</trkpt>
<trkpt lat="46.1309170" lon="10.1405320">
	<ele>1868.20</ele>
	<time>2024-09-06T07:43:56.000Z</time>
</trkpt>
<trkpt lat="46.1309130" lon="10.1405340">
	<ele>1868.20</ele>
	<time>2024-09-06T07:43:57.000Z</time>
</trkpt>
<trkpt lat="46.1309080" lon="10.1405370">
	<ele>1868.20</ele>
	<time>2024-09-06T07:43:58.000Z</time>
</trkpt>
<trkpt lat="46.1308990" lon="10.1405400">
	<ele>1868.40</ele>
	<time>2024-09-06T07:43:59.000Z</time>
</trkpt>
<trkpt lat="46.1308900" lon="10.1405470">
	<ele>1868.40</ele>
	<time>2024-09-06T07:44:00.000Z</time>
</trkpt>
<trkpt lat="46.1308820" lon="10.1405620">
	<ele>1868.40</ele>
	<time>2024-09-06T07:44:01.000Z</time>
</trkpt>
<trkpt lat="46.1308750" lon="10.1405700">
	<ele>1868.40</ele>
	<time>2024-09-06T07:44:02.000Z</time>
</trkpt>
<trkpt lat="46.1308690" lon="10.1405760">
	<ele>1868.40</ele>
	<time>2024-09-06T07:44:03.000Z</time>
</trkpt>
<trkpt lat="46.1308660" lon="10.1405790">
	<ele>1868.40</ele>
	<time>2024-09-06T07:44:04.000Z</time>
</trkpt>
<trkpt lat="46.1308590" lon="10.1405830">
	<ele>1868.40</ele>
	<time>2024-09-06T07:44:05.000Z</time>
</trkpt>
<trkpt lat="46.1308470" lon="10.1405880">
	<ele>1868.40</ele>
	<time>2024-09-06T07:44:06.000Z</time>
</trkpt>
<trkpt lat="46.1308340" lon="10.1405940">
	<ele>1868.60</ele>
	<time>2024-09-06T07:44:07.000Z</time>
</trkpt>
<trkpt lat="46.1308290" lon="10.1406000">
	<ele>1868.60</ele>
	<time>2024-09-06T07:44:08.000Z</time>
</trkpt>
<trkpt lat="46.1308230" lon="10.1406000">
	<ele>1868.80</ele>
	<time>2024-09-06T07:44:09.000Z</time>
</trkpt>
<trkpt lat="46.1308160" lon="10.1406010">
	<ele>1868.80</ele>
	<time>2024-09-06T07:44:10.000Z</time>
</trkpt>
<trkpt lat="46.1308070" lon="10.1406040">
	<ele>1868.80</ele>
	<time>2024-09-06T07:44:11.000Z</time>
</trkpt>
<trkpt lat="46.1307990" lon="10.1406100">
	<ele>1869.00</ele>
	<time>2024-09-06T07:44:12.000Z</time>
</trkpt>
<trkpt lat="46.1307920" lon="10.1406200">
	<ele>1869.00</ele>
	<time>2024-09-06T07:44:13.000Z</time>
</trkpt>
<trkpt lat="46.1307850" lon="10.1406270">
	<ele>1869.00</ele>
	<time>2024-09-06T07:44:14.000Z</time>
</trkpt>
<trkpt lat="46.1307770" lon="10.1406310">
	<ele>1869.20</ele>
	<time>2024-09-06T07:44:15.000Z</time>
</trkpt>
<trkpt lat="46.1307660" lon="10.1406350">
	<ele>1869.20</ele>
	<time>2024-09-06T07:44:16.000Z</time>
</trkpt>
<trkpt lat="46.1307570" lon="10.1406360">
	<ele>1869.20</ele>
	<time>2024-09-06T07:44:17.000Z</time>
</trkpt>
<trkpt lat="46.1307500" lon="10.1406370">
	<ele>1869.40</ele>
	<time>2024-09-06T07:44:18.000Z</time>
</trkpt>
<trkpt lat="46.1307430" lon="10.1406410">
	<ele>1869.40</ele>
	<time>2024-09-06T07:44:19.000Z</time>
</trkpt>
<trkpt lat="46.1307340" lon="10.1406490">
	<ele>1869.60</ele>
	<time>2024-09-06T07:44:20.000Z</time>
</trkpt>
<trkpt lat="46.1307270" lon="10.1406580">
	<ele>1869.60</ele>
	<time>2024-09-06T07:44:21.000Z</time>
</trkpt>
<trkpt lat="46.1307200" lon="10.1406710">
	<ele>1869.80</ele>
	<time>2024-09-06T07:44:22.000Z</time>
</trkpt>
<trkpt lat="46.1307120" lon="10.1406850">
	<ele>1870.00</ele>
	<time>2024-09-06T07:44:23.000Z</time>
</trkpt>
<trkpt lat="46.1307050" lon="10.1407000">
	<ele>1870.00</ele>
	<time>2024-09-06T07:44:24.000Z</time>
</trkpt>
<trkpt lat="46.1306950" lon="10.1407100">
	<ele>1870.00</ele>
	<time>2024-09-06T07:44:25.000Z</time>
</trkpt>
<trkpt lat="46.1306890" lon="10.1407160">
	<ele>1870.20</ele>
	<time>2024-09-06T07:44:26.000Z</time>
</trkpt>
<trkpt lat="46.1306860" lon="10.1407200">
	<ele>1870.20</ele>
	<time>2024-09-06T07:44:27.000Z</time>
</trkpt>
<trkpt lat="46.1306840" lon="10.1407240">
	<ele>1870.40</ele>
	<time>2024-09-06T07:44:28.000Z</time>
</trkpt>
<trkpt lat="46.1306830" lon="10.1407260">
	<ele>1870.40</ele>
	<time>2024-09-06T07:44:29.000Z</time>
</trkpt>
<trkpt lat="46.1306710" lon="10.1407270">
	<ele>1870.60</ele>
	<time>2024-09-06T07:44:30.000Z</time>
</trkpt>
<trkpt lat="46.1306580" lon="10.1407250">
	<ele>1870.80</ele>
	<time>2024-09-06T07:44:31.000Z</time>
</trkpt>
<trkpt lat="46.1306480" lon="10.1407220">
	<ele>1870.80</ele>
	<time>2024-09-06T07:44:32.000Z</time>
</trkpt>
<trkpt lat="46.1306440" lon="10.1407200">
	<ele>1871.00</ele>
	<time>2024-09-06T07:44:33.000Z</time>
</trkpt>
<trkpt lat="46.1306360" lon="10.1407290">
	<ele>1871.20</ele>
	<time>2024-09-06T07:44:34.000Z</time>
</trkpt>
<trkpt lat="46.1306280" lon="10.1407320">
	<ele>1871.20</ele>
	<time>2024-09-06T07:44:35.000Z</time>
</trkpt>
<trkpt lat="46.1306290" lon="10.1407400">
	<ele>1871.20</ele>
	<time>2024-09-06T07:44:36.000Z</time>
</trkpt>
<trkpt lat="46.1306290" lon="10.1407420">
	<ele>1871.20</ele>
	<time>2024-09-06T07:44:37.000Z</time>
</trkpt>
<trkpt lat="46.1306200" lon="10.1407570">
	<ele>1871.20</ele>
	<time>2024-09-06T07:44:38.000Z</time>
</trkpt>
<trkpt lat="46.1306060" lon="10.1407730">
	<ele>1871.20</ele>
	<time>2024-09-06T07:44:39.000Z</time>
</trkpt>
<trkpt lat="46.1305960" lon="10.1407830">
	<ele>1871.40</ele>
	<time>2024-09-06T07:44:40.000Z</time>
</trkpt>
<trkpt lat="46.1305830" lon="10.1407900">
	<ele>1871.40</ele>
	<time>2024-09-06T07:44:41.000Z</time>
</trkpt>
<trkpt lat="46.1305770" lon="10.1407940">
	<ele>1871.40</ele>
	<time>2024-09-06T07:44:42.000Z</time>
</trkpt>
<trkpt lat="46.1305800" lon="10.1407950">
	<ele>1871.60</ele>
	<time>2024-09-06T07:44:43.000Z</time>
</trkpt>
<trkpt lat="46.1305730" lon="10.1407960">
	<ele>1871.60</ele>
	<time>2024-09-06T07:44:44.000Z</time>
</trkpt>
<trkpt lat="46.1305830" lon="10.1408040">
	<ele>1871.60</ele>
	<time>2024-09-06T07:44:45.000Z</time>
</trkpt>
<trkpt lat="46.1305790" lon="10.1408180">
	<ele>1871.60</ele>
	<time>2024-09-06T07:44:46.000Z</time>
</trkpt>
<trkpt lat="46.1305800" lon="10.1408290">
	<ele>1871.60</ele>
	<time>2024-09-06T07:44:47.000Z</time>
</trkpt>
<trkpt lat="46.1305780" lon="10.1408330">
	<ele>1871.60</ele>
	<time>2024-09-06T07:44:48.000Z</time>
</trkpt>
<trkpt lat="46.1305750" lon="10.1408340">
	<ele>1871.80</ele>
	<time>2024-09-06T07:44:49.000Z</time>
</trkpt>
<trkpt lat="46.1305720" lon="10.1408380">
	<ele>1871.80</ele>
	<time>2024-09-06T07:44:50.000Z</time>
</trkpt>
<trkpt lat="46.1305660" lon="10.1408440">
	<ele>1871.80</ele>
	<time>2024-09-06T07:44:51.000Z</time>
</trkpt>
<trkpt lat="46.1305590" lon="10.1408560">
	<ele>1872.00</ele>
	<time>2024-09-06T07:44:52.000Z</time>
</trkpt>
<trkpt lat="46.1305550" lon="10.1408680">
	<ele>1872.00</ele>
	<time>2024-09-06T07:44:53.000Z</time>
</trkpt>
<trkpt lat="46.1305510" lon="10.1408760">
	<ele>1872.40</ele>
	<time>2024-09-06T07:44:54.000Z</time>
</trkpt>
<trkpt lat="46.1305470" lon="10.1408790">
	<ele>1872.60</ele>
	<time>2024-09-06T07:44:55.000Z</time>
</trkpt>
<trkpt lat="46.1305430" lon="10.1408860">
	<ele>1872.80</ele>
	<time>2024-09-06T07:44:56.000Z</time>
</trkpt>
<trkpt lat="46.1305370" lon="10.1408900">
	<ele>1872.80</ele>
	<time>2024-09-06T07:44:57.000Z</time>
</trkpt>
<trkpt lat="46.1305350" lon="10.1408990">
	<ele>1873.00</ele>
	<time>2024-09-06T07:44:58.000Z</time>
</trkpt>
<trkpt lat="46.1305320" lon="10.1409160">
	<ele>1873.00</ele>
	<time>2024-09-06T07:44:59.000Z</time>
</trkpt>
<trkpt lat="46.1305290" lon="10.1409280">
	<ele>1873.20</ele>
	<time>2024-09-06T07:45:00.000Z</time>
</trkpt>
<trkpt lat="46.1305180" lon="10.1409520">
	<ele>1873.20</ele>
	<time>2024-09-06T07:45:01.000Z</time>
</trkpt>
<trkpt lat="46.1305130" lon="10.1409660">
	<ele>1873.40</ele>
	<time>2024-09-06T07:45:02.000Z</time>
</trkpt>
<trkpt lat="46.1305110" lon="10.1409780">
	<ele>1873.40</ele>
	<time>2024-09-06T07:45:03.000Z</time>
</trkpt>
<trkpt lat="46.1305110" lon="10.1409860">
	<ele>1873.60</ele>
	<time>2024-09-06T07:45:04.000Z</time>
</trkpt>
<trkpt lat="46.1305110" lon="10.1409900">
	<ele>1873.80</ele>
	<time>2024-09-06T07:45:05.000Z</time>
</trkpt>
<trkpt lat="46.1305100" lon="10.1409970">
	<ele>1874.00</ele>
	<time>2024-09-06T07:45:06.000Z</time>
</trkpt>
<trkpt lat="46.1305090" lon="10.1410050">
	<ele>1874.00</ele>
	<time>2024-09-06T07:45:07.000Z</time>
</trkpt>
<trkpt lat="46.1305100" lon="10.1410140">
	<ele>1874.00</ele>
	<time>2024-09-06T07:45:08.000Z</time>
</trkpt>
<trkpt lat="46.1305080" lon="10.1410210">
	<ele>1874.20</ele>
	<time>2024-09-06T07:45:09.000Z</time>
</trkpt>
<trkpt lat="46.1305090" lon="10.1410300">
	<ele>1874.20</ele>
	<time>2024-09-06T07:45:10.000Z</time>
</trkpt>
<trkpt lat="46.1305140" lon="10.1410410">
	<ele>1874.40</ele>
	<time>2024-09-06T07:45:11.000Z</time>
</trkpt>
<trkpt lat="46.1305140" lon="10.1410530">
	<ele>1874.40</ele>
	<time>2024-09-06T07:45:12.000Z</time>
</trkpt>
<trkpt lat="46.1305130" lon="10.1410680">
	<ele>1874.60</ele>
	<time>2024-09-06T07:45:13.000Z</time>
</trkpt>
<trkpt lat="46.1305100" lon="10.1410800">
	<ele>1874.60</ele>
	<time>2024-09-06T07:45:14.000Z</time>
</trkpt>
<trkpt lat="46.1305000" lon="10.1411040">
	<ele>1874.80</ele>
	<time>2024-09-06T07:45:15.000Z</time>
</trkpt>
<trkpt lat="46.1305010" lon="10.1411330">
	<ele>1874.80</ele>
	<time>2024-09-06T07:45:16.000Z</time>
</trkpt>
<trkpt lat="46.1305030" lon="10.1411500">
	<ele>1874.80</ele>
	<time>2024-09-06T07:45:17.000Z</time>
</trkpt>
<trkpt lat="46.1305040" lon="10.1411610">
	<ele>1874.80</ele>
	<time>2024-09-06T07:45:18.000Z</time>
</trkpt>
<trkpt lat="46.1305040" lon="10.1411710">
	<ele>1874.80</ele>
	<time>2024-09-06T07:45:19.000Z</time>
</trkpt>
<trkpt lat="46.1304990" lon="10.1411810">
	<ele>1875.00</ele>
	<time>2024-09-06T07:45:20.000Z</time>
</trkpt>
<trkpt lat="46.1304900" lon="10.1411950">
	<ele>1875.00</ele>
	<time>2024-09-06T07:45:21.000Z</time>
</trkpt>
<trkpt lat="46.1304840" lon="10.1412150">
	<ele>1875.20</ele>
	<time>2024-09-06T07:45:22.000Z</time>
</trkpt>
<trkpt lat="46.1304820" lon="10.1412280">
	<ele>1875.40</ele>
	<time>2024-09-06T07:45:23.000Z</time>
</trkpt>
<trkpt lat="46.1304830" lon="10.1412340">
	<ele>1875.60</ele>
	<time>2024-09-06T07:45:24.000Z</time>
</trkpt>
<trkpt lat="46.1304880" lon="10.1412420">
	<ele>1875.60</ele>
	<time>2024-09-06T07:45:25.000Z</time>
</trkpt>
<trkpt lat="46.1304990" lon="10.1412440">
	<ele>1875.80</ele>
	<time>2024-09-06T07:45:26.000Z</time>
</trkpt>
<trkpt lat="46.1305000" lon="10.1412530">
	<ele>1875.80</ele>
	<time>2024-09-06T07:45:27.000Z</time>
</trkpt>
<trkpt lat="46.1304930" lon="10.1412640">
	<ele>1876.00</ele>
	<time>2024-09-06T07:45:28.000Z</time>
</trkpt>
<trkpt lat="46.1304850" lon="10.1412780">
	<ele>1876.20</ele>
	<time>2024-09-06T07:45:29.000Z</time>
</trkpt>
<trkpt lat="46.1304820" lon="10.1412910">
	<ele>1876.40</ele>
	<time>2024-09-06T07:45:30.000Z</time>
</trkpt>
<trkpt lat="46.1304770" lon="10.1413040">
	<ele>1876.40</ele>
	<time>2024-09-06T07:45:31.000Z</time>
</trkpt>
<trkpt lat="46.1304770" lon="10.1413070">
	<ele>1876.60</ele>
	<time>2024-09-06T07:45:32.000Z</time>
</trkpt>
<trkpt lat="46.1304830" lon="10.1413070">
	<ele>1876.80</ele>
	<time>2024-09-06T07:45:33.000Z</time>
</trkpt>
<trkpt lat="46.1304880" lon="10.1413150">
	<ele>1877.00</ele>
	<time>2024-09-06T07:45:34.000Z</time>
</trkpt>
<trkpt lat="46.1304890" lon="10.1413250">
	<ele>1877.20</ele>
	<time>2024-09-06T07:45:35.000Z</time>
</trkpt>
<trkpt lat="46.1304850" lon="10.1413340">
	<ele>1877.40</ele>
	<time>2024-09-06T07:45:36.000Z</time>
</trkpt>
<trkpt lat="46.1304760" lon="10.1413430">
	<ele>1877.60</ele>
	<time>2024-09-06T07:45:37.000Z</time>
</trkpt>
<trkpt lat="46.1304660" lon="10.1413550">
	<ele>1877.60</ele>
	<time>2024-09-06T07:45:38.000Z</time>
</trkpt>
<trkpt lat="46.1304610" lon="10.1413650">
	<ele>1877.80</ele>
	<time>2024-09-06T07:45:39.000Z</time>
</trkpt>
<trkpt lat="46.1304560" lon="10.1413760">
	<ele>1877.80</ele>
	<time>2024-09-06T07:45:40.000Z</time>
</trkpt>
<trkpt lat="46.1304460" lon="10.1413950">
	<ele>1878.00</ele>
	<time>2024-09-06T07:45:41.000Z</time>
</trkpt>
<trkpt lat="46.1304420" lon="10.1414090">
	<ele>1878.20</ele>
	<time>2024-09-06T07:45:42.000Z</time>
</trkpt>
<trkpt lat="46.1304380" lon="10.1414320">
	<ele>1878.20</ele>
	<time>2024-09-06T07:45:43.000Z</time>
</trkpt>
<trkpt lat="46.1304420" lon="10.1414430">
	<ele>1878.40</ele>
	<time>2024-09-06T07:45:44.000Z</time>
</trkpt>
<trkpt lat="46.1304450" lon="10.1414490">
	<ele>1878.40</ele>
	<time>2024-09-06T07:45:45.000Z</time>
</trkpt>
<trkpt lat="46.1304430" lon="10.1414650">
	<ele>1878.60</ele>
	<time>2024-09-06T07:45:46.000Z</time>
</trkpt>
<trkpt lat="46.1304410" lon="10.1414780">
	<ele>1878.60</ele>
	<time>2024-09-06T07:45:47.000Z</time>
</trkpt>
<trkpt lat="46.1304410" lon="10.1414950">
	<ele>1878.80</ele>
	<time>2024-09-06T07:45:48.000Z</time>
</trkpt>
<trkpt lat="46.1304450" lon="10.1415100">
	<ele>1878.80</ele>
	<time>2024-09-06T07:45:49.000Z</time>
</trkpt>
<trkpt lat="46.1304460" lon="10.1415290">
	<ele>1879.00</ele>
	<time>2024-09-06T07:45:50.000Z</time>
</trkpt>
<trkpt lat="46.1304470" lon="10.1415400">
	<ele>1879.00</ele>
	<time>2024-09-06T07:45:51.000Z</time>
</trkpt>
<trkpt lat="46.1304410" lon="10.1415580">
	<ele>1879.00</ele>
	<time>2024-09-06T07:45:52.000Z</time>
</trkpt>
<trkpt lat="46.1304410" lon="10.1415690">
	<ele>1879.00</ele>
	<time>2024-09-06T07:45:53.000Z</time>
</trkpt>
<trkpt lat="46.1304510" lon="10.1415800">
	<ele>1879.20</ele>
	<time>2024-09-06T07:45:54.000Z</time>
</trkpt>
<trkpt lat="46.1304610" lon="10.1415910">
	<ele>1879.20</ele>
	<time>2024-09-06T07:45:55.000Z</time>
</trkpt>
<trkpt lat="46.1304720" lon="10.1415960">
	<ele>1879.40</ele>
	<time>2024-09-06T07:45:56.000Z</time>
</trkpt>
<trkpt lat="46.1304750" lon="10.1416030">
	<ele>1879.40</ele>
	<time>2024-09-06T07:45:57.000Z</time>
</trkpt>
<trkpt lat="46.1304770" lon="10.1416170">
	<ele>1879.60</ele>
	<time>2024-09-06T07:45:58.000Z</time>
</trkpt>
<trkpt lat="46.1304770" lon="10.1416280">
	<ele>1879.60</ele>
	<time>2024-09-06T07:45:59.000Z</time>
</trkpt>
<trkpt lat="46.1304830" lon="10.1416370">
	<ele>1879.80</ele>
	<time>2024-09-06T07:46:00.000Z</time>
</trkpt>
<trkpt lat="46.1304930" lon="10.1416500">
	<ele>1879.80</ele>
	<time>2024-09-06T07:46:01.000Z</time>
</trkpt>
<trkpt lat="46.1305040" lon="10.1416540">
	<ele>1880.00</ele>
	<time>2024-09-06T07:46:02.000Z</time>
</trkpt>
<trkpt lat="46.1305110" lon="10.1416540">
	<ele>1880.20</ele>
	<time>2024-09-06T07:46:03.000Z</time>
</trkpt>
<trkpt lat="46.1305090" lon="10.1416570">
	<ele>1880.40</ele>
	<time>2024-09-06T07:46:04.000Z</time>
</trkpt>
<trkpt lat="46.1305090" lon="10.1416560">
	<ele>1880.40</ele>
	<time>2024-09-06T07:46:05.000Z</time>
</trkpt>
<trkpt lat="46.1305160" lon="10.1416560">
	<ele>1880.40</ele>
	<time>2024-09-06T07:46:06.000Z</time>
</trkpt>
<trkpt lat="46.1305160" lon="10.1416570">
	<ele>1880.60</ele>
	<time>2024-09-06T07:46:07.000Z</time>
</trkpt>
<trkpt lat="46.1305180" lon="10.1416590">
	<ele>1880.60</ele>
	<time>2024-09-06T07:46:08.000Z</time>
</trkpt>
<trkpt lat="46.1305170" lon="10.1416590">
	<ele>1880.60</ele>
	<time>2024-09-06T07:46:09.000Z</time>
</trkpt>
<trkpt lat="46.1305170" lon="10.1416580">
	<ele>1880.60</ele>
	<time>2024-09-06T07:46:10.000Z</time>
</trkpt>
<trkpt lat="46.1305180" lon="10.1416570">
	<ele>1880.60</ele>
	<time>2024-09-06T07:46:11.000Z</time>
</trkpt>
<trkpt lat="46.1305180" lon="10.1416580">
	<ele>1880.60</ele>
	<time>2024-09-06T07:46:12.000Z</time>
</trkpt>
<trkpt lat="46.1305160" lon="10.1416590">
	<ele>1880.80</ele>
	<time>2024-09-06T07:46:13.000Z</time>
</trkpt>
<trkpt lat="46.1305120" lon="10.1416610">
	<ele>1880.80</ele>
	<time>2024-09-06T07:46:14.000Z</time>
</trkpt>
<trkpt lat="46.1305110" lon="10.1416640">
	<ele>1880.80</ele>
	<time>2024-09-06T07:46:15.000Z</time>
</trkpt>
<trkpt lat="46.1305100" lon="10.1416610">
	<ele>1880.80</ele>
	<time>2024-09-06T07:46:16.000Z</time>
</trkpt>
<trkpt lat="46.1305130" lon="10.1416510">
	<ele>1880.80</ele>
	<time>2024-09-06T07:46:17.000Z</time>
</trkpt>
<trkpt lat="46.1305110" lon="10.1416390">
	<ele>1880.80</ele>
	<time>2024-09-06T07:46:18.000Z</time>
</trkpt>
<trkpt lat="46.1305140" lon="10.1416250">
	<ele>1880.80</ele>
	<time>2024-09-06T07:46:19.000Z</time>
</trkpt>
<trkpt lat="46.1305160" lon="10.1416110">
	<ele>1880.60</ele>
	<time>2024-09-06T07:46:20.000Z</time>
</trkpt>
<trkpt lat="46.1305180" lon="10.1416000">
	<ele>1880.60</ele>
	<time>2024-09-06T07:46:21.000Z</time>
</trkpt>
<trkpt lat="46.1305240" lon="10.1415860">
	<ele>1880.60</ele>
	<time>2024-09-06T07:46:22.000Z</time>
</trkpt>
<trkpt lat="46.1305260" lon="10.1415730">
	<ele>1880.60</ele>
	<time>2024-09-06T07:46:23.000Z</time>
</trkpt>
<trkpt lat="46.1305310" lon="10.1415580">
	<ele>1880.80</ele>
	<time>2024-09-06T07:46:24.000Z</time>
</trkpt>
<trkpt lat="46.1305350" lon="10.1415470">
	<ele>1880.60</ele>
	<time>2024-09-06T07:46:25.000Z</time>
</trkpt>
<trkpt lat="46.1305520" lon="10.1415190">
	<ele>1880.60</ele>
	<time>2024-09-06T07:46:26.000Z</time>
</trkpt>
<trkpt lat="46.1305610" lon="10.1415050">
	<ele>1880.60</ele>
	<time>2024-09-06T07:46:27.000Z</time>
</trkpt>
<trkpt lat="46.1305720" lon="10.1414890">
	<ele>1880.60</ele>
	<time>2024-09-06T07:46:28.000Z</time>
</trkpt>
<trkpt lat="46.1305790" lon="10.1414750">
	<ele>1880.40</ele>
	<time>2024-09-06T07:46:29.000Z</time>
</trkpt>
<trkpt lat="46.1305860" lon="10.1414590">
	<ele>1880.40</ele>
	<time>2024-09-06T07:46:30.000Z</time>
</trkpt>
<trkpt lat="46.1305910" lon="10.1414560">
	<ele>1880.60</ele>
	<time>2024-09-06T07:46:31.000Z</time>
</trkpt>
<trkpt lat="46.1306000" lon="10.1414480">
	<ele>1880.60</ele>
	<time>2024-09-06T07:46:32.000Z</time>
</trkpt>
<trkpt lat="46.1306100" lon="10.1414450">
	<ele>1880.60</ele>
	<time>2024-09-06T07:46:33.000Z</time>
</trkpt>
<trkpt lat="46.1306240" lon="10.1414360">
	<ele>1880.60</ele>
	<time>2024-09-06T07:46:34.000Z</time>
</trkpt>
<trkpt lat="46.1306340" lon="10.1414330">
	<ele>1880.60</ele>
	<time>2024-09-06T07:46:35.000Z</time>
</trkpt>
<trkpt lat="46.1306420" lon="10.1414280">
	<ele>1880.60</ele>
	<time>2024-09-06T07:46:36.000Z</time>
</trkpt>
<trkpt lat="46.1306510" lon="10.1414240">
	<ele>1880.60</ele>
	<time>2024-09-06T07:46:37.000Z</time>
</trkpt>
<trkpt lat="46.1306620" lon="10.1414180">
	<ele>1880.60</ele>
	<time>2024-09-06T07:46:38.000Z</time>
</trkpt>
<trkpt lat="46.1306730" lon="10.1414150">
	<ele>1880.60</ele>
	<time>2024-09-06T07:46:39.000Z</time>
</trkpt>
<trkpt lat="46.1306810" lon="10.1414140">
	<ele>1880.60</ele>
	<time>2024-09-06T07:46:40.000Z</time>
</trkpt>
<trkpt lat="46.1306880" lon="10.1414120">
	<ele>1880.60</ele>
	<time>2024-09-06T07:46:41.000Z</time>
</trkpt>
<trkpt lat="46.1307010" lon="10.1414050">
	<ele>1880.60</ele>
	<time>2024-09-06T07:46:42.000Z</time>
</trkpt>
<trkpt lat="46.1307120" lon="10.1414020">
	<ele>1880.60</ele>
	<time>2024-09-06T07:46:43.000Z</time>
</trkpt>
<trkpt lat="46.1307220" lon="10.1413940">
	<ele>1880.60</ele>
	<time>2024-09-06T07:46:44.000Z</time>
</trkpt>
<trkpt lat="46.1307320" lon="10.1413880">
	<ele>1880.60</ele>
	<time>2024-09-06T07:46:45.000Z</time>
</trkpt>
<trkpt lat="46.1307430" lon="10.1413810">
	<ele>1880.60</ele>
	<time>2024-09-06T07:46:46.000Z</time>
</trkpt>
<trkpt lat="46.1307550" lon="10.1413720">
	<ele>1880.40</ele>
	<time>2024-09-06T07:46:47.000Z</time>
</trkpt>
<trkpt lat="46.1307650" lon="10.1413650">
	<ele>1880.40</ele>
	<time>2024-09-06T07:46:48.000Z</time>
</trkpt>
<trkpt lat="46.1307760" lon="10.1413570">
	<ele>1880.40</ele>
	<time>2024-09-06T07:46:49.000Z</time>
</trkpt>
<trkpt lat="46.1307860" lon="10.1413490">
	<ele>1880.40</ele>
	<time>2024-09-06T07:46:50.000Z</time>
</trkpt>
<trkpt lat="46.1307940" lon="10.1413430">
	<ele>1880.40</ele>
	<time>2024-09-06T07:46:51.000Z</time>
</trkpt>
<trkpt lat="46.1308040" lon="10.1413340">
	<ele>1880.40</ele>
	<time>2024-09-06T07:46:52.000Z</time>
</trkpt>
<trkpt lat="46.1308130" lon="10.1413270">
	<ele>1880.60</ele>
	<time>2024-09-06T07:46:53.000Z</time>
</trkpt>
<trkpt lat="46.1308220" lon="10.1413210">
	<ele>1880.60</ele>
	<time>2024-09-06T07:46:54.000Z</time>
</trkpt>
<trkpt lat="46.1308330" lon="10.1413140">
	<ele>1880.60</ele>
	<time>2024-09-06T07:46:55.000Z</time>
</trkpt>
<trkpt lat="46.1308420" lon="10.1413050">
	<ele>1880.60</ele>
	<time>2024-09-06T07:46:56.000Z</time>
</trkpt>
<trkpt lat="46.1308520" lon="10.1412990">
	<ele>1880.60</ele>
	<time>2024-09-06T07:46:57.000Z</time>
</trkpt>
<trkpt lat="46.1308600" lon="10.1413000">
	<ele>1880.60</ele>
	<time>2024-09-06T07:46:58.000Z</time>
</trkpt>
<trkpt lat="46.1308690" lon="10.1412980">
	<ele>1880.60</ele>
	<time>2024-09-06T07:46:59.000Z</time>
</trkpt>
<trkpt lat="46.1308790" lon="10.1412910">
	<ele>1880.40</ele>
	<time>2024-09-06T07:47:00.000Z</time>
</trkpt>
<trkpt lat="46.1308890" lon="10.1412850">
	<ele>1880.60</ele>
	<time>2024-09-06T07:47:01.000Z</time>
</trkpt>
<trkpt lat="46.1308980" lon="10.1412770">
	<ele>1880.40</ele>
	<time>2024-09-06T07:47:02.000Z</time>
</trkpt>
<trkpt lat="46.1309050" lon="10.1412700">
	<ele>1880.60</ele>
	<time>2024-09-06T07:47:03.000Z</time>
</trkpt>
<trkpt lat="46.1309140" lon="10.1412660">
	<ele>1880.60</ele>
	<time>2024-09-06T07:47:04.000Z</time>
</trkpt>
<trkpt lat="46.1309250" lon="10.1412640">
	<ele>1880.60</ele>
	<time>2024-09-06T07:47:05.000Z</time>
</trkpt>
<trkpt lat="46.1309350" lon="10.1412640">
	<ele>1880.60</ele>
	<time>2024-09-06T07:47:06.000Z</time>
</trkpt>
<trkpt lat="46.1309400" lon="10.1412690">
	<ele>1880.60</ele>
	<time>2024-09-06T07:47:07.000Z</time>
</trkpt>
<trkpt lat="46.1309480" lon="10.1412740">
	<ele>1880.40</ele>
	<time>2024-09-06T07:47:08.000Z</time>
</trkpt>
<trkpt lat="46.1309590" lon="10.1412740">
	<ele>1880.40</ele>
	<time>2024-09-06T07:47:09.000Z</time>
</trkpt>
<trkpt lat="46.1309670" lon="10.1412760">
	<ele>1880.40</ele>
	<time>2024-09-06T07:47:10.000Z</time>
</trkpt>
<trkpt lat="46.1309770" lon="10.1412770">
	<ele>1880.40</ele>
	<time>2024-09-06T07:47:11.000Z</time>
</trkpt>
<trkpt lat="46.1309810" lon="10.1412780">
	<ele>1880.40</ele>
	<time>2024-09-06T07:47:12.000Z</time>
</trkpt>
<trkpt lat="46.1309820" lon="10.1412810">
	<ele>1880.40</ele>
	<time>2024-09-06T07:47:13.000Z</time>
</trkpt>
<trkpt lat="46.1309820" lon="10.1412830">
	<ele>1880.40</ele>
	<time>2024-09-06T07:47:14.000Z</time>
</trkpt>
<trkpt lat="46.1309830" lon="10.1412840">
	<ele>1880.40</ele>
	<time>2024-09-06T07:47:15.000Z</time>
</trkpt>
<trkpt lat="46.1309830" lon="10.1412850">
	<ele>1880.40</ele>
	<time>2024-09-06T07:47:16.000Z</time>
</trkpt>
<trkpt lat="46.1309830" lon="10.1412860">
	<ele>1880.40</ele>
	<time>2024-09-06T07:47:17.000Z</time>
</trkpt>
<trkpt lat="46.1309820" lon="10.1412880">
	<ele>1880.60</ele>
	<time>2024-09-06T07:47:18.000Z</time>
</trkpt>
<trkpt lat="46.1309820" lon="10.1412900">
	<ele>1880.60</ele>
	<time>2024-09-06T07:47:19.000Z</time>
</trkpt>
<trkpt lat="46.1309820" lon="10.1412920">
	<ele>1880.60</ele>
	<time>2024-09-06T07:47:20.000Z</time>
</trkpt>
<trkpt lat="46.1309820" lon="10.1412940">
	<ele>1880.60</ele>
	<time>2024-09-06T07:47:21.000Z</time>
</trkpt>
<trkpt lat="46.1309810" lon="10.1412970">
	<ele>1880.60</ele>
	<time>2024-09-06T07:47:22.000Z</time>
</trkpt>
<trkpt lat="46.1309810" lon="10.1412980">
	<ele>1880.80</ele>
	<time>2024-09-06T07:47:23.000Z</time>
</trkpt>
<trkpt lat="46.1309830" lon="10.1412970">
	<ele>1880.80</ele>
	<time>2024-09-06T07:47:24.000Z</time>
</trkpt>
<trkpt lat="46.1309830" lon="10.1412970">
	<ele>1880.80</ele>
	<time>2024-09-06T07:47:25.000Z</time>
</trkpt>
<trkpt lat="46.1309830" lon="10.1412970">
	<ele>1880.80</ele>
	<time>2024-09-06T07:47:26.000Z</time>
</trkpt>
<trkpt lat="46.1309830" lon="10.1412970">
	<ele>1880.60</ele>
	<time>2024-09-06T07:47:27.000Z</time>
</trkpt>
<trkpt lat="46.1309830" lon="10.1412970">
	<ele>1880.60</ele>
	<time>2024-09-06T07:47:28.000Z</time>
</trkpt>
<trkpt lat="46.1309830" lon="10.1412970">
	<ele>1880.40</ele>
	<time>2024-09-06T07:47:29.000Z</time>
</trkpt>
<trkpt lat="46.1309830" lon="10.1412970">
	<ele>1880.40</ele>
	<time>2024-09-06T07:47:30.000Z</time>
</trkpt>
<trkpt lat="46.1309830" lon="10.1412970">
	<ele>1880.40</ele>
	<time>2024-09-06T07:47:31.000Z</time>
</trkpt>
<trkpt lat="46.1309830" lon="10.1412970">
	<ele>1880.40</ele>
	<time>2024-09-06T07:47:32.000Z</time>
</trkpt>
<trkpt lat="46.1309830" lon="10.1412970">
	<ele>1880.40</ele>
	<time>2024-09-06T07:47:33.000Z</time>
</trkpt>
<trkpt lat="46.1309830" lon="10.1412960">
	<ele>1880.40</ele>
	<time>2024-09-06T07:47:34.000Z</time>
</trkpt>
<trkpt lat="46.1309830" lon="10.1412940">
	<ele>1880.40</ele>
	<time>2024-09-06T07:47:35.000Z</time>
</trkpt>
<trkpt lat="46.1309830" lon="10.1412940">
	<ele>1880.40</ele>
	<time>2024-09-06T07:47:36.000Z</time>
</trkpt>
<trkpt lat="46.1309830" lon="10.1412930">
	<ele>1880.40</ele>
	<time>2024-09-06T07:47:37.000Z</time>
</trkpt>
<trkpt lat="46.1309830" lon="10.1412920">
	<ele>1880.60</ele>
	<time>2024-09-06T07:47:38.000Z</time>
</trkpt>
<trkpt lat="46.1309830" lon="10.1412920">
	<ele>1880.60</ele>
	<time>2024-09-06T07:47:39.000Z</time>
</trkpt>
<trkpt lat="46.1309830" lon="10.1412910">
	<ele>1880.80</ele>
	<time>2024-09-06T07:47:40.000Z</time>
</trkpt>
<trkpt lat="46.1309830" lon="10.1412900">
	<ele>1880.80</ele>
	<time>2024-09-06T07:47:41.000Z</time>
</trkpt>
<trkpt lat="46.1309830" lon="10.1412900">
	<ele>1880.80</ele>
	<time>2024-09-06T07:47:42.000Z</time>
</trkpt>
<trkpt lat="46.1309830" lon="10.1412900">
	<ele>1880.60</ele>
	<time>2024-09-06T07:47:43.000Z</time>
</trkpt>
<trkpt lat="46.1309830" lon="10.1412890">
	<ele>1880.60</ele>
	<time>2024-09-06T07:47:44.000Z</time>
</trkpt>
<trkpt lat="46.1309830" lon="10.1412890">
	<ele>1880.40</ele>
	<time>2024-09-06T07:47:45.000Z</time>
</trkpt>
<trkpt lat="46.1309830" lon="10.1412890">
	<ele>1880.40</ele>
	<time>2024-09-06T07:47:46.000Z</time>
</trkpt>
<trkpt lat="46.1309840" lon="10.1412890">
	<ele>1880.40</ele>
	<time>2024-09-06T07:47:47.000Z</time>
</trkpt>
<trkpt lat="46.1309900" lon="10.1412900">
	<ele>1880.20</ele>
	<time>2024-09-06T07:47:48.000Z</time>
</trkpt>
<trkpt lat="46.1310070" lon="10.1412980">
	<ele>1880.20</ele>
	<time>2024-09-06T07:47:49.000Z</time>
</trkpt>
<trkpt lat="46.1310190" lon="10.1413000">
	<ele>1880.40</ele>
	<time>2024-09-06T07:47:50.000Z</time>
</trkpt>
<trkpt lat="46.1310380" lon="10.1413100">
	<ele>1880.40</ele>
	<time>2024-09-06T07:47:51.000Z</time>
</trkpt>
<trkpt lat="46.1310540" lon="10.1413240">
	<ele>1880.60</ele>
	<time>2024-09-06T07:47:52.000Z</time>
</trkpt>
<trkpt lat="46.1310670" lon="10.1413470">
	<ele>1880.60</ele>
	<time>2024-09-06T07:47:53.000Z</time>
</trkpt>
<trkpt lat="46.1310770" lon="10.1413690">
	<ele>1880.60</ele>
	<time>2024-09-06T07:47:54.000Z</time>
</trkpt>
<trkpt lat="46.1310890" lon="10.1413820">
	<ele>1880.60</ele>
	<time>2024-09-06T07:47:55.000Z</time>
</trkpt>
<trkpt lat="46.1311040" lon="10.1413940">
	<ele>1880.60</ele>
	<time>2024-09-06T07:47:56.000Z</time>
</trkpt>
<trkpt lat="46.1311180" lon="10.1414000">
	<ele>1880.60</ele>
	<time>2024-09-06T07:47:57.000Z</time>
</trkpt>
<trkpt lat="46.1311260" lon="10.1414030">
	<ele>1880.40</ele>
	<time>2024-09-06T07:47:58.000Z</time>
</trkpt>
<trkpt lat="46.1311330" lon="10.1414160">
	<ele>1880.40</ele>
	<time>2024-09-06T07:47:59.000Z</time>
</trkpt>
<trkpt lat="46.1311390" lon="10.1414310">
	<ele>1880.40</ele>
	<time>2024-09-06T07:48:00.000Z</time>
</trkpt>
<trkpt lat="46.1311430" lon="10.1414470">
	<ele>1880.40</ele>
	<time>2024-09-06T07:48:01.000Z</time>
</trkpt>
<trkpt lat="46.1311480" lon="10.1414620">
	<ele>1880.40</ele>
	<time>2024-09-06T07:48:02.000Z</time>
</trkpt>
<trkpt lat="46.1311500" lon="10.1414710">
	<ele>1880.40</ele>
	<time>2024-09-06T07:48:03.000Z</time>
</trkpt>
<trkpt lat="46.1311530" lon="10.1414850">
	<ele>1880.40</ele>
	<time>2024-09-06T07:48:04.000Z</time>
</trkpt>
<trkpt lat="46.1311560" lon="10.1415030">
	<ele>1880.20</ele>
	<time>2024-09-06T07:48:05.000Z</time>
</trkpt>
<trkpt lat="46.1311580" lon="10.1415180">
	<ele>1880.20</ele>
	<time>2024-09-06T07:48:06.000Z</time>
</trkpt>
<trkpt lat="46.1311570" lon="10.1415300">
	<ele>1880.20</ele>
	<time>2024-09-06T07:48:07.000Z</time>
</trkpt>
<trkpt lat="46.1311560" lon="10.1415470">
	<ele>1880.20</ele>
	<time>2024-09-06T07:48:08.000Z</time>
</trkpt>
<trkpt lat="46.1311560" lon="10.1415640">
	<ele>1880.20</ele>
	<time>2024-09-06T07:48:09.000Z</time>
</trkpt>
<trkpt lat="46.1311550" lon="10.1415800">
	<ele>1880.20</ele>
	<time>2024-09-06T07:48:10.000Z</time>
</trkpt>
<trkpt lat="46.1311530" lon="10.1415950">
	<ele>1880.20</ele>
	<time>2024-09-06T07:48:11.000Z</time>
</trkpt>
<trkpt lat="46.1311550" lon="10.1416030">
	<ele>1880.20</ele>
	<time>2024-09-06T07:48:12.000Z</time>
</trkpt>
<trkpt lat="46.1311530" lon="10.1416170">
	<ele>1880.20</ele>
	<time>2024-09-06T07:48:13.000Z</time>
</trkpt>
<trkpt lat="46.1311520" lon="10.1416310">
	<ele>1880.20</ele>
	<time>2024-09-06T07:48:14.000Z</time>
</trkpt>
<trkpt lat="46.1311500" lon="10.1416460">
	<ele>1880.20</ele>
	<time>2024-09-06T07:48:15.000Z</time>
</trkpt>
<trkpt lat="46.1311460" lon="10.1416660">
	<ele>1880.20</ele>
	<time>2024-09-06T07:48:16.000Z</time>
</trkpt>
<trkpt lat="46.1311430" lon="10.1416830">
	<ele>1880.20</ele>
	<time>2024-09-06T07:48:17.000Z</time>
</trkpt>
<trkpt lat="46.1311420" lon="10.1417010">
	<ele>1880.20</ele>
	<time>2024-09-06T07:48:18.000Z</time>
</trkpt>
<trkpt lat="46.1311380" lon="10.1417150">
	<ele>1880.20</ele>
	<time>2024-09-06T07:48:19.000Z</time>
</trkpt>
<trkpt lat="46.1311340" lon="10.1417270">
	<ele>1880.20</ele>
	<time>2024-09-06T07:48:20.000Z</time>
</trkpt>
<trkpt lat="46.1311320" lon="10.1417380">
	<ele>1880.20</ele>
	<time>2024-09-06T07:48:21.000Z</time>
</trkpt>
<trkpt lat="46.1311300" lon="10.1417450">
	<ele>1880.00</ele>
	<time>2024-09-06T07:48:22.000Z</time>
</trkpt>
<trkpt lat="46.1311280" lon="10.1417460">
	<ele>1880.00</ele>
	<time>2024-09-06T07:48:23.000Z</time>
</trkpt>
<trkpt lat="46.1311270" lon="10.1417450">
	<ele>1880.00</ele>
	<time>2024-09-06T07:48:24.000Z</time>
</trkpt>
<trkpt lat="46.1311270" lon="10.1417470">
	<ele>1880.00</ele>
	<time>2024-09-06T07:48:25.000Z</time>
</trkpt>
<trkpt lat="46.1311270" lon="10.1417480">
	<ele>1880.00</ele>
	<time>2024-09-06T07:48:26.000Z</time>
</trkpt>
<trkpt lat="46.1311280" lon="10.1417500">
	<ele>1880.00</ele>
	<time>2024-09-06T07:48:27.000Z</time>
</trkpt>
<trkpt lat="46.1311280" lon="10.1417510">
	<ele>1880.00</ele>
	<time>2024-09-06T07:48:28.000Z</time>
</trkpt>
<trkpt lat="46.1311270" lon="10.1417520">
	<ele>1880.00</ele>
	<time>2024-09-06T07:48:29.000Z</time>
</trkpt>
<trkpt lat="46.1311250" lon="10.1417510">
	<ele>1880.00</ele>
	<time>2024-09-06T07:48:30.000Z</time>
</trkpt>
<trkpt lat="46.1311250" lon="10.1417510">
	<ele>1880.00</ele>
	<time>2024-09-06T07:48:31.000Z</time>
</trkpt>
<trkpt lat="46.1311270" lon="10.1417510">
	<ele>1880.00</ele>
	<time>2024-09-06T07:48:32.000Z</time>
</trkpt>
<trkpt lat="46.1311290" lon="10.1417520">
	<ele>1880.00</ele>
	<time>2024-09-06T07:48:33.000Z</time>
</trkpt>
<trkpt lat="46.1311280" lon="10.1417610">
	<ele>1880.00</ele>
	<time>2024-09-06T07:48:34.000Z</time>
</trkpt>
<trkpt lat="46.1311260" lon="10.1417770">
	<ele>1880.00</ele>
	<time>2024-09-06T07:48:35.000Z</time>
</trkpt>
<trkpt lat="46.1311250" lon="10.1417910">
	<ele>1880.00</ele>
	<time>2024-09-06T07:48:36.000Z</time>
</trkpt>
<trkpt lat="46.1311200" lon="10.1418030">
	<ele>1880.00</ele>
	<time>2024-09-06T07:48:37.000Z</time>
</trkpt>
<trkpt lat="46.1311140" lon="10.1418150">
	<ele>1880.00</ele>
	<time>2024-09-06T07:48:38.000Z</time>
</trkpt>
<trkpt lat="46.1311090" lon="10.1418280">
	<ele>1880.00</ele>
	<time>2024-09-06T07:48:39.000Z</time>
</trkpt>
<trkpt lat="46.1311000" lon="10.1418410">
	<ele>1880.00</ele>
	<time>2024-09-06T07:48:40.000Z</time>
</trkpt>
<trkpt lat="46.1310900" lon="10.1418540">
	<ele>1880.00</ele>
	<time>2024-09-06T07:48:41.000Z</time>
</trkpt>
<trkpt lat="46.1310800" lon="10.1418680">
	<ele>1880.00</ele>
	<time>2024-09-06T07:48:42.000Z</time>
</trkpt>
<trkpt lat="46.1310730" lon="10.1418760">
	<ele>1880.00</ele>
	<time>2024-09-06T07:48:43.000Z</time>
</trkpt>
<trkpt lat="46.1310640" lon="10.1418830">
	<ele>1880.00</ele>
	<time>2024-09-06T07:48:44.000Z</time>
</trkpt>
<trkpt lat="46.1310550" lon="10.1418920">
	<ele>1880.00</ele>
	<time>2024-09-06T07:48:45.000Z</time>
</trkpt>
<trkpt lat="46.1310470" lon="10.1418960">
	<ele>1880.00</ele>
	<time>2024-09-06T07:48:46.000Z</time>
</trkpt>
<trkpt lat="46.1310420" lon="10.1418980">
	<ele>1880.00</ele>
	<time>2024-09-06T07:48:47.000Z</time>
</trkpt>
<trkpt lat="46.1310360" lon="10.1419010">
	<ele>1880.00</ele>
	<time>2024-09-06T07:48:48.000Z</time>
</trkpt>
<trkpt lat="46.1310290" lon="10.1419050">
	<ele>1880.00</ele>
	<time>2024-09-06T07:48:49.000Z</time>
</trkpt>
<trkpt lat="46.1310190" lon="10.1419060">
	<ele>1880.00</ele>
	<time>2024-09-06T07:48:50.000Z</time>
</trkpt>
<trkpt lat="46.1310060" lon="10.1419040">
	<ele>1880.00</ele>
	<time>2024-09-06T07:48:51.000Z</time>
</trkpt>
<trkpt lat="46.1309930" lon="10.1419070">
	<ele>1880.00</ele>
	<time>2024-09-06T07:48:52.000Z</time>
</trkpt>
<trkpt lat="46.1309830" lon="10.1419110">
	<ele>1880.00</ele>
	<time>2024-09-06T07:48:53.000Z</time>
</trkpt>
<trkpt lat="46.1309760" lon="10.1419130">
	<ele>1880.00</ele>
	<time>2024-09-06T07:48:54.000Z</time>
</trkpt>
<trkpt lat="46.1309670" lon="10.1419210">
	<ele>1880.00</ele>
	<time>2024-09-06T07:48:55.000Z</time>
</trkpt>
<trkpt lat="46.1309550" lon="10.1419240">
	<ele>1880.00</ele>
	<time>2024-09-06T07:48:56.000Z</time>
</trkpt>
<trkpt lat="46.1309460" lon="10.1419310">
	<ele>1880.00</ele>
	<time>2024-09-06T07:48:57.000Z</time>
</trkpt>
<trkpt lat="46.1309320" lon="10.1419330">
	<ele>1880.00</ele>
	<time>2024-09-06T07:48:58.000Z</time>
</trkpt>
<trkpt lat="46.1309240" lon="10.1419370">
	<ele>1880.00</ele>
	<time>2024-09-06T07:48:59.000Z</time>
</trkpt>
<trkpt lat="46.1309120" lon="10.1419390">
	<ele>1880.00</ele>
	<time>2024-09-06T07:49:00.000Z</time>
</trkpt>
<trkpt lat="46.1309010" lon="10.1419440">
	<ele>1880.00</ele>
	<time>2024-09-06T07:49:01.000Z</time>
</trkpt>
<trkpt lat="46.1308920" lon="10.1419500">
	<ele>1880.00</ele>
	<time>2024-09-06T07:49:02.000Z</time>
</trkpt>
<trkpt lat="46.1308850" lon="10.1419580">
	<ele>1880.60</ele>
	<time>2024-09-06T07:49:03.000Z</time>
</trkpt>
<trkpt lat="46.1308780" lon="10.1419660">
	<ele>1880.80</ele>
	<time>2024-09-06T07:49:04.000Z</time>
</trkpt>
<trkpt lat="46.1308700" lon="10.1419720">
	<ele>1881.20</ele>
	<time>2024-09-06T07:49:05.000Z</time>
</trkpt>
<trkpt lat="46.1308630" lon="10.1419760">
	<ele>1881.40</ele>
	<time>2024-09-06T07:49:06.000Z</time>
</trkpt>
<trkpt lat="46.1308590" lon="10.1419780">
	<ele>1881.40</ele>
	<time>2024-09-06T07:49:07.000Z</time>
</trkpt>
<trkpt lat="46.1308560" lon="10.1419810">
	<ele>1881.40</ele>
	<time>2024-09-06T07:49:08.000Z</time>
</trkpt>
<trkpt lat="46.1308560" lon="10.1419810">
	<ele>1881.80</ele>
	<time>2024-09-06T07:49:09.000Z</time>
</trkpt>
<trkpt lat="46.1308560" lon="10.1419800">
	<ele>1881.80</ele>
	<time>2024-09-06T07:49:10.000Z</time>
</trkpt>
<trkpt lat="46.1308550" lon="10.1419790">
	<ele>1882.00</ele>
	<time>2024-09-06T07:49:11.000Z</time>
</trkpt>
<trkpt lat="46.1308550" lon="10.1419780">
	<ele>1882.00</ele>
	<time>2024-09-06T07:49:12.000Z</time>
</trkpt>
<trkpt lat="46.1308540" lon="10.1419740">
	<ele>1882.00</ele>
	<time>2024-09-06T07:49:13.000Z</time>
</trkpt>
<trkpt lat="46.1308530" lon="10.1419720">
	<ele>1882.00</ele>
	<time>2024-09-06T07:49:14.000Z</time>
</trkpt>
<trkpt lat="46.1308540" lon="10.1419710">
	<ele>1882.00</ele>
	<time>2024-09-06T07:49:15.000Z</time>
</trkpt>
<trkpt lat="46.1308540" lon="10.1419720">
	<ele>1882.00</ele>
	<time>2024-09-06T07:49:16.000Z</time>
</trkpt>
<trkpt lat="46.1308520" lon="10.1419750">
	<ele>1882.00</ele>
	<time>2024-09-06T07:49:17.000Z</time>
</trkpt>
<trkpt lat="46.1308480" lon="10.1419730">
	<ele>1882.00</ele>
	<time>2024-09-06T07:49:18.000Z</time>
</trkpt>
<trkpt lat="46.1308420" lon="10.1419710">
	<ele>1882.00</ele>
	<time>2024-09-06T07:49:19.000Z</time>
</trkpt>
<trkpt lat="46.1308340" lon="10.1419660">
	<ele>1882.00</ele>
	<time>2024-09-06T07:49:20.000Z</time>
</trkpt>
<trkpt lat="46.1308260" lon="10.1419600">
	<ele>1882.00</ele>
	<time>2024-09-06T07:49:21.000Z</time>
</trkpt>
<trkpt lat="46.1308190" lon="10.1419530">
	<ele>1882.00</ele>
	<time>2024-09-06T07:49:22.000Z</time>
</trkpt>
<trkpt lat="46.1308110" lon="10.1419480">
	<ele>1882.00</ele>
	<time>2024-09-06T07:49:23.000Z</time>
</trkpt>
<trkpt lat="46.1308030" lon="10.1419430">
	<ele>1882.00</ele>
	<time>2024-09-06T07:49:24.000Z</time>
</trkpt>
<trkpt lat="46.1307960" lon="10.1419400">
	<ele>1882.20</ele>
	<time>2024-09-06T07:49:25.000Z</time>
</trkpt>
<trkpt lat="46.1307880" lon="10.1419370">
	<ele>1882.20</ele>
	<time>2024-09-06T07:49:26.000Z</time>
</trkpt>
<trkpt lat="46.1307830" lon="10.1419310">
	<ele>1882.20</ele>
	<time>2024-09-06T07:49:27.000Z</time>
</trkpt>
<trkpt lat="46.1307780" lon="10.1419250">
	<ele>1882.20</ele>
	<time>2024-09-06T07:49:28.000Z</time>
</trkpt>
<trkpt lat="46.1307710" lon="10.1419210">
	<ele>1882.20</ele>
	<time>2024-09-06T07:49:29.000Z</time>
</trkpt>
<trkpt lat="46.1307620" lon="10.1419180">
	<ele>1882.20</ele>
	<time>2024-09-06T07:49:30.000Z</time>
</trkpt>
<trkpt lat="46.1307540" lon="10.1419140">
	<ele>1882.20</ele>
	<time>2024-09-06T07:49:31.000Z</time>
</trkpt>
<trkpt lat="46.1307470" lon="10.1419080">
	<ele>1882.20</ele>
	<time>2024-09-06T07:49:32.000Z</time>
</trkpt>
<trkpt lat="46.1307440" lon="10.1419050">
	<ele>1882.20</ele>
	<time>2024-09-06T07:49:33.000Z</time>
</trkpt>
<trkpt lat="46.1307390" lon="10.1419010">
	<ele>1882.20</ele>
	<time>2024-09-06T07:49:34.000Z</time>
</trkpt>
<trkpt lat="46.1307350" lon="10.1418960">
	<ele>1882.20</ele>
	<time>2024-09-06T07:49:35.000Z</time>
</trkpt>
<trkpt lat="46.1307330" lon="10.1418940">
	<ele>1882.20</ele>
	<time>2024-09-06T07:49:36.000Z</time>
</trkpt>
<trkpt lat="46.1307320" lon="10.1418940">
	<ele>1882.00</ele>
	<time>2024-09-06T07:49:37.000Z</time>
</trkpt>
<trkpt lat="46.1307300" lon="10.1418950">
	<ele>1882.00</ele>
	<time>2024-09-06T07:49:38.000Z</time>
</trkpt>
<trkpt lat="46.1307290" lon="10.1418970">
	<ele>1882.00</ele>
	<time>2024-09-06T07:49:39.000Z</time>
</trkpt>
<trkpt lat="46.1307270" lon="10.1419000">
	<ele>1882.00</ele>
	<time>2024-09-06T07:49:40.000Z</time>
</trkpt>
<trkpt lat="46.1307250" lon="10.1419050">
	<ele>1882.00</ele>
	<time>2024-09-06T07:49:41.000Z</time>
</trkpt>
<trkpt lat="46.1307210" lon="10.1419120">
	<ele>1881.80</ele>
	<time>2024-09-06T07:49:42.000Z</time>
</trkpt>
<trkpt lat="46.1307130" lon="10.1419250">
	<ele>1881.80</ele>
	<time>2024-09-06T07:49:43.000Z</time>
</trkpt>
<trkpt lat="46.1307090" lon="10.1419370">
	<ele>1881.80</ele>
	<time>2024-09-06T07:49:44.000Z</time>
</trkpt>
<trkpt lat="46.1307090" lon="10.1419430">
	<ele>1881.80</ele>
	<time>2024-09-06T07:49:45.000Z</time>
</trkpt>
<trkpt lat="46.1307080" lon="10.1419530">
	<ele>1881.60</ele>
	<time>2024-09-06T07:49:46.000Z</time>
</trkpt>
<trkpt lat="46.1307070" lon="10.1419580">
	<ele>1881.60</ele>
	<time>2024-09-06T07:49:47.000Z</time>
</trkpt>
<trkpt lat="46.1307030" lon="10.1419620">
	<ele>1881.60</ele>
	<time>2024-09-06T07:49:48.000Z</time>
</trkpt>
<trkpt lat="46.1307020" lon="10.1419640">
	<ele>1881.60</ele>
	<time>2024-09-06T07:49:49.000Z</time>
</trkpt>
<trkpt lat="46.1307010" lon="10.1419650">
	<ele>1881.40</ele>
	<time>2024-09-06T07:49:50.000Z</time>
</trkpt>
<trkpt lat="46.1307010" lon="10.1419660">
	<ele>1881.40</ele>
	<time>2024-09-06T07:49:51.000Z</time>
</trkpt>
<trkpt lat="46.1307020" lon="10.1419670">
	<ele>1881.40</ele>
	<time>2024-09-06T07:49:52.000Z</time>
</trkpt>
<trkpt lat="46.1307020" lon="10.1419670">
	<ele>1881.40</ele>
	<time>2024-09-06T07:49:53.000Z</time>
</trkpt>
<trkpt lat="46.1307010" lon="10.1419670">
	<ele>1881.40</ele>
	<time>2024-09-06T07:49:54.000Z</time>
</trkpt>
<trkpt lat="46.1307010" lon="10.1419670">
	<ele>1881.40</ele>
	<time>2024-09-06T07:49:55.000Z</time>
</trkpt>
<trkpt lat="46.1307010" lon="10.1419680">
	<ele>1881.40</ele>
	<time>2024-09-06T07:49:56.000Z</time>
</trkpt>
<trkpt lat="46.1307010" lon="10.1419680">
	<ele>1881.40</ele>
	<time>2024-09-06T07:49:57.000Z</time>
</trkpt>
<trkpt lat="46.1307010" lon="10.1419680">
	<ele>1881.40</ele>
	<time>2024-09-06T07:49:58.000Z</time>
</trkpt>
<trkpt lat="46.1307010" lon="10.1419680">
	<ele>1881.40</ele>
	<time>2024-09-06T07:49:59.000Z</time>
</trkpt>
<trkpt lat="46.1307010" lon="10.1419680">
	<ele>1881.40</ele>
	<time>2024-09-06T07:50:00.000Z</time>
</trkpt>
<trkpt lat="46.1307010" lon="10.1419680">
	<ele>1881.40</ele>
	<time>2024-09-06T07:50:01.000Z</time>
</trkpt>
<trkpt lat="46.1307010" lon="10.1419680">
	<ele>1881.40</ele>
	<time>2024-09-06T07:50:02.000Z</time>
</trkpt>
<trkpt lat="46.1307010" lon="10.1419680">
	<ele>1881.40</ele>
	<time>2024-09-06T07:50:03.000Z</time>
</trkpt>
<trkpt lat="46.1307010" lon="10.1419680">
	<ele>1881.40</ele>
	<time>2024-09-06T07:50:04.000Z</time>
</trkpt>
<trkpt lat="46.1307010" lon="10.1419680">
	<ele>1881.40</ele>
	<time>2024-09-06T07:50:05.000Z</time>
</trkpt>
<trkpt lat="46.1307010" lon="10.1419680">
	<ele>1881.20</ele>
	<time>2024-09-06T07:50:06.000Z</time>
</trkpt>
<trkpt lat="46.1307010" lon="10.1419680">
	<ele>1881.20</ele>
	<time>2024-09-06T07:50:07.000Z</time>
</trkpt>
<trkpt lat="46.1307010" lon="10.1419740">
	<ele>1881.20</ele>
	<time>2024-09-06T07:50:08.000Z</time>
</trkpt>
<trkpt lat="46.1307020" lon="10.1419980">
	<ele>1881.20</ele>
	<time>2024-09-06T07:50:09.000Z</time>
</trkpt>
<trkpt lat="46.1307040" lon="10.1420200">
	<ele>1881.00</ele>
	<time>2024-09-06T07:50:10.000Z</time>
</trkpt>
<trkpt lat="46.1307070" lon="10.1420460">
	<ele>1881.00</ele>
	<time>2024-09-06T07:50:11.000Z</time>
</trkpt>
<trkpt lat="46.1307120" lon="10.1420660">
	<ele>1881.00</ele>
	<time>2024-09-06T07:50:12.000Z</time>
</trkpt>
<trkpt lat="46.1307140" lon="10.1420900">
	<ele>1881.00</ele>
	<time>2024-09-06T07:50:13.000Z</time>
</trkpt>
<trkpt lat="46.1307160" lon="10.1421110">
	<ele>1880.80</ele>
	<time>2024-09-06T07:50:14.000Z</time>
</trkpt>
<trkpt lat="46.1307210" lon="10.1421330">
	<ele>1880.80</ele>
	<time>2024-09-06T07:50:15.000Z</time>
</trkpt>
<trkpt lat="46.1307290" lon="10.1421670">
	<ele>1880.80</ele>
	<time>2024-09-06T07:50:16.000Z</time>
</trkpt>
<trkpt lat="46.1307310" lon="10.1421890">
	<ele>1880.80</ele>
	<time>2024-09-06T07:50:17.000Z</time>
</trkpt>
<trkpt lat="46.1307330" lon="10.1422040">
	<ele>1880.60</ele>
	<time>2024-09-06T07:50:18.000Z</time>
</trkpt>
<trkpt lat="46.1307370" lon="10.1422180">
	<ele>1880.40</ele>
	<time>2024-09-06T07:50:19.000Z</time>
</trkpt>
<trkpt lat="46.1307420" lon="10.1422300">
	<ele>1880.20</ele>
	<time>2024-09-06T07:50:20.000Z</time>
</trkpt>
<trkpt lat="46.1307450" lon="10.1422440">
	<ele>1880.00</ele>
	<time>2024-09-06T07:50:21.000Z</time>
</trkpt>
<trkpt lat="46.1307470" lon="10.1422560">
	<ele>1879.80</ele>
	<time>2024-09-06T07:50:22.000Z</time>
</trkpt>
<trkpt lat="46.1307490" lon="10.1422650">
	<ele>1879.80</ele>
	<time>2024-09-06T07:50:23.000Z</time>
</trkpt>
<trkpt lat="46.1307520" lon="10.1422790">
	<ele>1879.60</ele>
	<time>2024-09-06T07:50:24.000Z</time>
</trkpt>
<trkpt lat="46.1307590" lon="10.1422940">
	<ele>1879.40</ele>
	<time>2024-09-06T07:50:25.000Z</time>
</trkpt>
<trkpt lat="46.1307660" lon="10.1423070">
	<ele>1879.20</ele>
	<time>2024-09-06T07:50:26.000Z</time>
</trkpt>
<trkpt lat="46.1307720" lon="10.1423190">
	<ele>1879.20</ele>
	<time>2024-09-06T07:50:27.000Z</time>
</trkpt>
<trkpt lat="46.1307770" lon="10.1423270">
	<ele>1879.00</ele>
	<time>2024-09-06T07:50:28.000Z</time>
</trkpt>
<trkpt lat="46.1307830" lon="10.1423380">
	<ele>1878.80</ele>
	<time>2024-09-06T07:50:29.000Z</time>
</trkpt>
<trkpt lat="46.1307850" lon="10.1423460">
	<ele>1878.60</ele>
	<time>2024-09-06T07:50:30.000Z</time>
</trkpt>
<trkpt lat="46.1307850" lon="10.1423590">
	<ele>1878.40</ele>
	<time>2024-09-06T07:50:31.000Z</time>
</trkpt>
<trkpt lat="46.1307870" lon="10.1423680">
	<ele>1878.40</ele>
	<time>2024-09-06T07:50:32.000Z</time>
</trkpt>
<trkpt lat="46.1307960" lon="10.1423800">
	<ele>1878.20</ele>
	<time>2024-09-06T07:50:33.000Z</time>
</trkpt>
<trkpt lat="46.1308010" lon="10.1423990">
	<ele>1878.00</ele>
	<time>2024-09-06T07:50:34.000Z</time>
</trkpt>
<trkpt lat="46.1308060" lon="10.1424110">
	<ele>1878.00</ele>
	<time>2024-09-06T07:50:35.000Z</time>
</trkpt>
<trkpt lat="46.1308120" lon="10.1424230">
	<ele>1877.80</ele>
	<time>2024-09-06T07:50:36.000Z</time>
</trkpt>
<trkpt lat="46.1308140" lon="10.1424390">
	<ele>1877.60</ele>
	<time>2024-09-06T07:50:37.000Z</time>
</trkpt>
<trkpt lat="46.1308200" lon="10.1424570">
	<ele>1877.60</ele>
	<time>2024-09-06T07:50:38.000Z</time>
</trkpt>
<trkpt lat="46.1308220" lon="10.1424720">
	<ele>1877.40</ele>
	<time>2024-09-06T07:50:39.000Z</time>
</trkpt>
<trkpt lat="46.1308270" lon="10.1424900">
	<ele>1877.40</ele>
	<time>2024-09-06T07:50:40.000Z</time>
</trkpt>
<trkpt lat="46.1308350" lon="10.1425110">
	<ele>1877.00</ele>
	<time>2024-09-06T07:50:41.000Z</time>
</trkpt>
<trkpt lat="46.1308390" lon="10.1425280">
	<ele>1876.80</ele>
	<time>2024-09-06T07:50:42.000Z</time>
</trkpt>
<trkpt lat="46.1308420" lon="10.1425430">
	<ele>1876.80</ele>
	<time>2024-09-06T07:50:43.000Z</time>
</trkpt>
<trkpt lat="46.1308410" lon="10.1425610">
	<ele>1876.60</ele>
	<time>2024-09-06T07:50:44.000Z</time>
</trkpt>
<trkpt lat="46.1308370" lon="10.1425780">
	<ele>1876.60</ele>
	<time>2024-09-06T07:50:45.000Z</time>
</trkpt>
<trkpt lat="46.1308350" lon="10.1425880">
	<ele>1876.60</ele>
	<time>2024-09-06T07:50:46.000Z</time>
</trkpt>
<trkpt lat="46.1308350" lon="10.1426060">
	<ele>1876.60</ele>
	<time>2024-09-06T07:50:47.000Z</time>
</trkpt>
<trkpt lat="46.1308330" lon="10.1426230">
	<ele>1876.60</ele>
	<time>2024-09-06T07:50:48.000Z</time>
</trkpt>
<trkpt lat="46.1308350" lon="10.1426430">
	<ele>1876.60</ele>
	<time>2024-09-06T07:50:49.000Z</time>
</trkpt>
<trkpt lat="46.1308370" lon="10.1426610">
	<ele>1876.60</ele>
	<time>2024-09-06T07:50:50.000Z</time>
</trkpt>
<trkpt lat="46.1308380" lon="10.1426710">
	<ele>1876.60</ele>
	<time>2024-09-06T07:50:51.000Z</time>
</trkpt>
<trkpt lat="46.1308370" lon="10.1426900">
	<ele>1876.60</ele>
	<time>2024-09-06T07:50:52.000Z</time>
</trkpt>
<trkpt lat="46.1308360" lon="10.1427010">
	<ele>1876.60</ele>
	<time>2024-09-06T07:50:53.000Z</time>
</trkpt>
<trkpt lat="46.1308280" lon="10.1427160">
	<ele>1876.60</ele>
	<time>2024-09-06T07:50:54.000Z</time>
</trkpt>
<trkpt lat="46.1308210" lon="10.1427220">
	<ele>1876.60</ele>
	<time>2024-09-06T07:50:55.000Z</time>
</trkpt>
<trkpt lat="46.1308150" lon="10.1427320">
	<ele>1876.60</ele>
	<time>2024-09-06T07:50:56.000Z</time>
</trkpt>
<trkpt lat="46.1308050" lon="10.1427400">
	<ele>1876.60</ele>
	<time>2024-09-06T07:50:57.000Z</time>
</trkpt>
<trkpt lat="46.1308000" lon="10.1427620">
	<ele>1876.60</ele>
	<time>2024-09-06T07:50:58.000Z</time>
</trkpt>
<trkpt lat="46.1307960" lon="10.1427760">
	<ele>1876.80</ele>
	<time>2024-09-06T07:50:59.000Z</time>
</trkpt>
<trkpt lat="46.1307870" lon="10.1427870">
	<ele>1876.80</ele>
	<time>2024-09-06T07:51:00.000Z</time>
</trkpt>
<trkpt lat="46.1307750" lon="10.1427980">
	<ele>1876.80</ele>
	<time>2024-09-06T07:51:01.000Z</time>
</trkpt>
<trkpt lat="46.1307670" lon="10.1428020">
	<ele>1877.00</ele>
	<time>2024-09-06T07:51:02.000Z</time>
</trkpt>
<trkpt lat="46.1307570" lon="10.1428100">
	<ele>1877.00</ele>
	<time>2024-09-06T07:51:03.000Z</time>
</trkpt>
<trkpt lat="46.1307490" lon="10.1428200">
	<ele>1877.20</ele>
	<time>2024-09-06T07:51:04.000Z</time>
</trkpt>
<trkpt lat="46.1307410" lon="10.1428300">
	<ele>1877.40</ele>
	<time>2024-09-06T07:51:05.000Z</time>
</trkpt>
<trkpt lat="46.1307340" lon="10.1428390">
	<ele>1877.40</ele>
	<time>2024-09-06T07:51:06.000Z</time>
</trkpt>
<trkpt lat="46.1307240" lon="10.1428470">
	<ele>1877.40</ele>
	<time>2024-09-06T07:51:07.000Z</time>
</trkpt>
<trkpt lat="46.1307160" lon="10.1428540">
	<ele>1877.60</ele>
	<time>2024-09-06T07:51:08.000Z</time>
</trkpt>
<trkpt lat="46.1307080" lon="10.1428610">
	<ele>1877.60</ele>
	<time>2024-09-06T07:51:09.000Z</time>
</trkpt>
<trkpt lat="46.1306990" lon="10.1428710">
	<ele>1877.80</ele>
	<time>2024-09-06T07:51:10.000Z</time>
</trkpt>
<trkpt lat="46.1306900" lon="10.1428810">
	<ele>1878.00</ele>
	<time>2024-09-06T07:51:11.000Z</time>
</trkpt>
<trkpt lat="46.1306830" lon="10.1428890">
	<ele>1878.00</ele>
	<time>2024-09-06T07:51:12.000Z</time>
</trkpt>
<trkpt lat="46.1306780" lon="10.1428980">
	<ele>1878.20</ele>
	<time>2024-09-06T07:51:13.000Z</time>
</trkpt>
<trkpt lat="46.1306720" lon="10.1429080">
	<ele>1878.20</ele>
	<time>2024-09-06T07:51:14.000Z</time>
</trkpt>
<trkpt lat="46.1306640" lon="10.1429160">
	<ele>1878.40</ele>
	<time>2024-09-06T07:51:15.000Z</time>
</trkpt>
<trkpt lat="46.1306550" lon="10.1429260">
	<ele>1878.40</ele>
	<time>2024-09-06T07:51:16.000Z</time>
</trkpt>
<trkpt lat="46.1306460" lon="10.1429330">
	<ele>1878.40</ele>
	<time>2024-09-06T07:51:17.000Z</time>
</trkpt>
<trkpt lat="46.1306400" lon="10.1429410">
	<ele>1878.60</ele>
	<time>2024-09-06T07:51:18.000Z</time>
</trkpt>
<trkpt lat="46.1306340" lon="10.1429550">
	<ele>1878.80</ele>
	<time>2024-09-06T07:51:19.000Z</time>
</trkpt>
<trkpt lat="46.1306250" lon="10.1429640">
	<ele>1878.80</ele>
	<time>2024-09-06T07:51:20.000Z</time>
</trkpt>
<trkpt lat="46.1306180" lon="10.1429750">
	<ele>1879.00</ele>
	<time>2024-09-06T07:51:21.000Z</time>
</trkpt>
<trkpt lat="46.1306130" lon="10.1429870">
	<ele>1879.00</ele>
	<time>2024-09-06T07:51:22.000Z</time>
</trkpt>
<trkpt lat="46.1306070" lon="10.1429990">
	<ele>1879.20</ele>
	<time>2024-09-06T07:51:23.000Z</time>
</trkpt>
<trkpt lat="46.1306000" lon="10.1430100">
	<ele>1879.20</ele>
	<time>2024-09-06T07:51:24.000Z</time>
</trkpt>
<trkpt lat="46.1305940" lon="10.1430180">
	<ele>1879.40</ele>
	<time>2024-09-06T07:51:25.000Z</time>
</trkpt>
<trkpt lat="46.1305870" lon="10.1430280">
	<ele>1879.40</ele>
	<time>2024-09-06T07:51:26.000Z</time>
</trkpt>
<trkpt lat="46.1305810" lon="10.1430380">
	<ele>1879.60</ele>
	<time>2024-09-06T07:51:27.000Z</time>
</trkpt>
<trkpt lat="46.1305750" lon="10.1430480">
	<ele>1879.80</ele>
	<time>2024-09-06T07:51:28.000Z</time>
</trkpt>
<trkpt lat="46.1305700" lon="10.1430580">
	<ele>1880.00</ele>
	<time>2024-09-06T07:51:29.000Z</time>
</trkpt>
<trkpt lat="46.1305640" lon="10.1430680">
	<ele>1880.00</ele>
	<time>2024-09-06T07:51:30.000Z</time>
</trkpt>
<trkpt lat="46.1305580" lon="10.1430780">
	<ele>1880.20</ele>
	<time>2024-09-06T07:51:31.000Z</time>
</trkpt>
<trkpt lat="46.1305480" lon="10.1430910">
	<ele>1880.40</ele>
	<time>2024-09-06T07:51:32.000Z</time>
</trkpt>
<trkpt lat="46.1305450" lon="10.1430990">
	<ele>1880.40</ele>
	<time>2024-09-06T07:51:33.000Z</time>
</trkpt>
<trkpt lat="46.1305400" lon="10.1431090">
	<ele>1880.60</ele>
	<time>2024-09-06T07:51:34.000Z</time>
</trkpt>
<trkpt lat="46.1305340" lon="10.1431190">
	<ele>1880.80</ele>
	<time>2024-09-06T07:51:35.000Z</time>
</trkpt>
<trkpt lat="46.1305280" lon="10.1431290">
	<ele>1881.00</ele>
	<time>2024-09-06T07:51:36.000Z</time>
</trkpt>
<trkpt lat="46.1305230" lon="10.1431360">
	<ele>1881.00</ele>
	<time>2024-09-06T07:51:37.000Z</time>
</trkpt>
<trkpt lat="46.1305180" lon="10.1431430">
	<ele>1881.40</ele>
	<time>2024-09-06T07:51:38.000Z</time>
</trkpt>
<trkpt lat="46.1305150" lon="10.1431530">
	<ele>1881.60</ele>
	<time>2024-09-06T07:51:39.000Z</time>
</trkpt>
<trkpt lat="46.1305110" lon="10.1431630">
	<ele>1881.80</ele>
	<time>2024-09-06T07:51:40.000Z</time>
</trkpt>
<trkpt lat="46.1305070" lon="10.1431740">
	<ele>1882.00</ele>
	<time>2024-09-06T07:51:41.000Z</time>
</trkpt>
<trkpt lat="46.1305040" lon="10.1431850">
	<ele>1882.20</ele>
	<time>2024-09-06T07:51:42.000Z</time>
</trkpt>
<trkpt lat="46.1305020" lon="10.1431970">
	<ele>1882.20</ele>
	<time>2024-09-06T07:51:43.000Z</time>
</trkpt>
<trkpt lat="46.1305000" lon="10.1432080">
	<ele>1882.40</ele>
	<time>2024-09-06T07:51:44.000Z</time>
</trkpt>
<trkpt lat="46.1304960" lon="10.1432200">
	<ele>1882.60</ele>
	<time>2024-09-06T07:51:45.000Z</time>
</trkpt>
<trkpt lat="46.1304910" lon="10.1432300">
	<ele>1882.80</ele>
	<time>2024-09-06T07:51:46.000Z</time>
</trkpt>
<trkpt lat="46.1304840" lon="10.1432390">
	<ele>1883.00</ele>
	<time>2024-09-06T07:51:47.000Z</time>
</trkpt>
<trkpt lat="46.1304790" lon="10.1432490">
	<ele>1883.20</ele>
	<time>2024-09-06T07:51:48.000Z</time>
</trkpt>
<trkpt lat="46.1304740" lon="10.1432600">
	<ele>1883.40</ele>
	<time>2024-09-06T07:51:49.000Z</time>
</trkpt>
<trkpt lat="46.1304670" lon="10.1432710">
	<ele>1883.60</ele>
	<time>2024-09-06T07:51:50.000Z</time>
</trkpt>
<trkpt lat="46.1304650" lon="10.1432820">
	<ele>1883.80</ele>
	<time>2024-09-06T07:51:51.000Z</time>
</trkpt>
<trkpt lat="46.1304620" lon="10.1432930">
	<ele>1884.20</ele>
	<time>2024-09-06T07:51:52.000Z</time>
</trkpt>
<trkpt lat="46.1304590" lon="10.1433040">
	<ele>1884.20</ele>
	<time>2024-09-06T07:51:53.000Z</time>
</trkpt>
<trkpt lat="46.1304530" lon="10.1433120">
	<ele>1884.40</ele>
	<time>2024-09-06T07:51:54.000Z</time>
</trkpt>
<trkpt lat="46.1304460" lon="10.1433190">
	<ele>1884.40</ele>
	<time>2024-09-06T07:51:55.000Z</time>
</trkpt>
<trkpt lat="46.1304400" lon="10.1433290">
	<ele>1884.60</ele>
	<time>2024-09-06T07:51:56.000Z</time>
</trkpt>
<trkpt lat="46.1304350" lon="10.1433400">
	<ele>1884.60</ele>
	<time>2024-09-06T07:51:57.000Z</time>
</trkpt>
<trkpt lat="46.1304300" lon="10.1433510">
	<ele>1884.80</ele>
	<time>2024-09-06T07:51:58.000Z</time>
</trkpt>
<trkpt lat="46.1304240" lon="10.1433630">
	<ele>1885.00</ele>
	<time>2024-09-06T07:51:59.000Z</time>
</trkpt>
<trkpt lat="46.1304200" lon="10.1433730">
	<ele>1885.20</ele>
	<time>2024-09-06T07:52:00.000Z</time>
</trkpt>
<trkpt lat="46.1304120" lon="10.1433840">
	<ele>1885.20</ele>
	<time>2024-09-06T07:52:01.000Z</time>
</trkpt>
<trkpt lat="46.1304070" lon="10.1433910">
	<ele>1885.40</ele>
	<time>2024-09-06T07:52:02.000Z</time>
</trkpt>
<trkpt lat="46.1303980" lon="10.1434010">
	<ele>1885.40</ele>
	<time>2024-09-06T07:52:03.000Z</time>
</trkpt>
<trkpt lat="46.1303900" lon="10.1434160">
	<ele>1885.60</ele>
	<time>2024-09-06T07:52:04.000Z</time>
</trkpt>
<trkpt lat="46.1303880" lon="10.1434260">
	<ele>1885.80</ele>
	<time>2024-09-06T07:52:05.000Z</time>
</trkpt>
<trkpt lat="46.1303840" lon="10.1434320">
	<ele>1886.00</ele>
	<time>2024-09-06T07:52:06.000Z</time>
</trkpt>
<trkpt lat="46.1303790" lon="10.1434410">
	<ele>1886.00</ele>
	<time>2024-09-06T07:52:07.000Z</time>
</trkpt>
<trkpt lat="46.1303720" lon="10.1434510">
	<ele>1886.00</ele>
	<time>2024-09-06T07:52:08.000Z</time>
</trkpt>
<trkpt lat="46.1303670" lon="10.1434610">
	<ele>1886.00</ele>
	<time>2024-09-06T07:52:09.000Z</time>
</trkpt>
<trkpt lat="46.1303620" lon="10.1434740">
	<ele>1886.40</ele>
	<time>2024-09-06T07:52:10.000Z</time>
</trkpt>
<trkpt lat="46.1303560" lon="10.1434870">
	<ele>1886.40</ele>
	<time>2024-09-06T07:52:11.000Z</time>
</trkpt>
<trkpt lat="46.1303500" lon="10.1434980">
	<ele>1886.60</ele>
	<time>2024-09-06T07:52:12.000Z</time>
</trkpt>
<trkpt lat="46.1303440" lon="10.1435100">
	<ele>1886.60</ele>
	<time>2024-09-06T07:52:13.000Z</time>
</trkpt>
<trkpt lat="46.1303360" lon="10.1435190">
	<ele>1886.60</ele>
	<time>2024-09-06T07:52:14.000Z</time>
</trkpt>
<trkpt lat="46.1303290" lon="10.1435270">
	<ele>1886.80</ele>
	<time>2024-09-06T07:52:15.000Z</time>
</trkpt>
<trkpt lat="46.1303250" lon="10.1435360">
	<ele>1886.80</ele>
	<time>2024-09-06T07:52:16.000Z</time>
</trkpt>
<trkpt lat="46.1303200" lon="10.1435450">
	<ele>1886.80</ele>
	<time>2024-09-06T07:52:17.000Z</time>
</trkpt>
<trkpt lat="46.1303150" lon="10.1435550">
	<ele>1887.00</ele>
	<time>2024-09-06T07:52:18.000Z</time>
</trkpt>
<trkpt lat="46.1303090" lon="10.1435630">
	<ele>1887.20</ele>
	<time>2024-09-06T07:52:19.000Z</time>
</trkpt>
<trkpt lat="46.1303010" lon="10.1435720">
	<ele>1887.20</ele>
	<time>2024-09-06T07:52:20.000Z</time>
</trkpt>
<trkpt lat="46.1302950" lon="10.1435830">
	<ele>1887.20</ele>
	<time>2024-09-06T07:52:21.000Z</time>
</trkpt>
<trkpt lat="46.1302880" lon="10.1435950">
	<ele>1887.40</ele>
	<time>2024-09-06T07:52:22.000Z</time>
</trkpt>
<trkpt lat="46.1302830" lon="10.1436060">
	<ele>1887.40</ele>
	<time>2024-09-06T07:52:23.000Z</time>
</trkpt>
<trkpt lat="46.1302770" lon="10.1436160">
	<ele>1887.60</ele>
	<time>2024-09-06T07:52:24.000Z</time>
</trkpt>
<trkpt lat="46.1302740" lon="10.1436250">
	<ele>1887.60</ele>
	<time>2024-09-06T07:52:25.000Z</time>
</trkpt>
<trkpt lat="46.1302700" lon="10.1436370">
	<ele>1887.80</ele>
	<time>2024-09-06T07:52:26.000Z</time>
</trkpt>
<trkpt lat="46.1302670" lon="10.1436450">
	<ele>1888.00</ele>
	<time>2024-09-06T07:52:27.000Z</time>
</trkpt>
<trkpt lat="46.1302610" lon="10.1436550">
	<ele>1888.00</ele>
	<time>2024-09-06T07:52:28.000Z</time>
</trkpt>
<trkpt lat="46.1302530" lon="10.1436580">
	<ele>1888.20</ele>
	<time>2024-09-06T07:52:29.000Z</time>
</trkpt>
<trkpt lat="46.1302470" lon="10.1436600">
	<ele>1888.40</ele>
	<time>2024-09-06T07:52:30.000Z</time>
</trkpt>
<trkpt lat="46.1302400" lon="10.1436650">
	<ele>1888.60</ele>
	<time>2024-09-06T07:52:31.000Z</time>
</trkpt>
<trkpt lat="46.1302350" lon="10.1436730">
	<ele>1888.60</ele>
	<time>2024-09-06T07:52:32.000Z</time>
</trkpt>
<trkpt lat="46.1302310" lon="10.1436830">
	<ele>1888.80</ele>
	<time>2024-09-06T07:52:33.000Z</time>
</trkpt>
<trkpt lat="46.1302270" lon="10.1436960">
	<ele>1888.80</ele>
	<time>2024-09-06T07:52:34.000Z</time>
</trkpt>
<trkpt lat="46.1302230" lon="10.1437060">
	<ele>1888.80</ele>
	<time>2024-09-06T07:52:35.000Z</time>
</trkpt>
<trkpt lat="46.1302210" lon="10.1437170">
	<ele>1889.00</ele>
	<time>2024-09-06T07:52:36.000Z</time>
</trkpt>
<trkpt lat="46.1302150" lon="10.1437280">
	<ele>1889.20</ele>
	<time>2024-09-06T07:52:37.000Z</time>
</trkpt>
<trkpt lat="46.1302100" lon="10.1437350">
	<ele>1889.20</ele>
	<time>2024-09-06T07:52:38.000Z</time>
</trkpt>
<trkpt lat="46.1302040" lon="10.1437420">
	<ele>1889.40</ele>
	<time>2024-09-06T07:52:39.000Z</time>
</trkpt>
<trkpt lat="46.1301980" lon="10.1437550">
	<ele>1889.40</ele>
	<time>2024-09-06T07:52:40.000Z</time>
</trkpt>
<trkpt lat="46.1301930" lon="10.1437660">
	<ele>1889.40</ele>
	<time>2024-09-06T07:52:41.000Z</time>
</trkpt>
<trkpt lat="46.1301900" lon="10.1437760">
	<ele>1889.60</ele>
	<time>2024-09-06T07:52:42.000Z</time>
</trkpt>
<trkpt lat="46.1301870" lon="10.1437900">
	<ele>1889.80</ele>
	<time>2024-09-06T07:52:43.000Z</time>
</trkpt>
<trkpt lat="46.1301820" lon="10.1438010">
	<ele>1890.00</ele>
	<time>2024-09-06T07:52:44.000Z</time>
</trkpt>
<trkpt lat="46.1301770" lon="10.1438090">
	<ele>1890.00</ele>
	<time>2024-09-06T07:52:45.000Z</time>
</trkpt>
<trkpt lat="46.1301730" lon="10.1438220">
	<ele>1890.20</ele>
	<time>2024-09-06T07:52:46.000Z</time>
</trkpt>
<trkpt lat="46.1301660" lon="10.1438300">
	<ele>1890.20</ele>
	<time>2024-09-06T07:52:47.000Z</time>
</trkpt>
<trkpt lat="46.1301610" lon="10.1438370">
	<ele>1890.40</ele>
	<time>2024-09-06T07:52:48.000Z</time>
</trkpt>
<trkpt lat="46.1301530" lon="10.1438410">
	<ele>1890.60</ele>
	<time>2024-09-06T07:52:49.000Z</time>
</trkpt>
<trkpt lat="46.1301480" lon="10.1438490">
	<ele>1890.80</ele>
	<time>2024-09-06T07:52:50.000Z</time>
</trkpt>
<trkpt lat="46.1301410" lon="10.1438580">
	<ele>1890.80</ele>
	<time>2024-09-06T07:52:51.000Z</time>
</trkpt>
<trkpt lat="46.1301360" lon="10.1438680">
	<ele>1891.00</ele>
	<time>2024-09-06T07:52:52.000Z</time>
</trkpt>
<trkpt lat="46.1301300" lon="10.1438760">
	<ele>1891.00</ele>
	<time>2024-09-06T07:52:53.000Z</time>
</trkpt>
<trkpt lat="46.1301280" lon="10.1438840">
	<ele>1891.20</ele>
	<time>2024-09-06T07:52:54.000Z</time>
</trkpt>
<trkpt lat="46.1301240" lon="10.1438950">
	<ele>1891.40</ele>
	<time>2024-09-06T07:52:55.000Z</time>
</trkpt>
<trkpt lat="46.1301210" lon="10.1439050">
	<ele>1891.60</ele>
	<time>2024-09-06T07:52:56.000Z</time>
</trkpt>
<trkpt lat="46.1301150" lon="10.1439120">
	<ele>1891.60</ele>
	<time>2024-09-06T07:52:57.000Z</time>
</trkpt>
<trkpt lat="46.1301110" lon="10.1439220">
	<ele>1891.80</ele>
	<time>2024-09-06T07:52:58.000Z</time>
</trkpt>
<trkpt lat="46.1301080" lon="10.1439350">
	<ele>1892.00</ele>
	<time>2024-09-06T07:52:59.000Z</time>
</trkpt>
<trkpt lat="46.1301050" lon="10.1439480">
	<ele>1892.00</ele>
	<time>2024-09-06T07:53:00.000Z</time>
</trkpt>
<trkpt lat="46.1301030" lon="10.1439580">
	<ele>1892.20</ele>
	<time>2024-09-06T07:53:01.000Z</time>
</trkpt>
<trkpt lat="46.1300970" lon="10.1439670">
	<ele>1892.20</ele>
	<time>2024-09-06T07:53:02.000Z</time>
</trkpt>
<trkpt lat="46.1300910" lon="10.1439740">
	<ele>1892.40</ele>
	<time>2024-09-06T07:53:03.000Z</time>
</trkpt>
<trkpt lat="46.1300850" lon="10.1439760">
	<ele>1892.60</ele>
	<time>2024-09-06T07:53:04.000Z</time>
</trkpt>
<trkpt lat="46.1300780" lon="10.1439790">
	<ele>1892.60</ele>
	<time>2024-09-06T07:53:05.000Z</time>
</trkpt>
<trkpt lat="46.1300720" lon="10.1439840">
	<ele>1892.80</ele>
	<time>2024-09-06T07:53:06.000Z</time>
</trkpt>
<trkpt lat="46.1300680" lon="10.1439860">
	<ele>1892.80</ele>
	<time>2024-09-06T07:53:07.000Z</time>
</trkpt>
<trkpt lat="46.1300670" lon="10.1439870">
	<ele>1893.00</ele>
	<time>2024-09-06T07:53:08.000Z</time>
</trkpt>
<trkpt lat="46.1300670" lon="10.1439860">
	<ele>1893.00</ele>
	<time>2024-09-06T07:53:09.000Z</time>
</trkpt>
<trkpt lat="46.1300670" lon="10.1439850">
	<ele>1893.00</ele>
	<time>2024-09-06T07:53:10.000Z</time>
</trkpt>
<trkpt lat="46.1300670" lon="10.1439820">
	<ele>1893.20</ele>
	<time>2024-09-06T07:53:11.000Z</time>
</trkpt>
<trkpt lat="46.1300670" lon="10.1439830">
	<ele>1893.20</ele>
	<time>2024-09-06T07:53:12.000Z</time>
</trkpt>
<trkpt lat="46.1300680" lon="10.1439820">
	<ele>1893.20</ele>
	<time>2024-09-06T07:53:13.000Z</time>
</trkpt>
<trkpt lat="46.1300690" lon="10.1439810">
	<ele>1893.20</ele>
	<time>2024-09-06T07:53:14.000Z</time>
</trkpt>
<trkpt lat="46.1300690" lon="10.1439810">
	<ele>1893.20</ele>
	<time>2024-09-06T07:53:15.000Z</time>
</trkpt>
<trkpt lat="46.1300670" lon="10.1439810">
	<ele>1893.20</ele>
	<time>2024-09-06T07:53:16.000Z</time>
</trkpt>
<trkpt lat="46.1300630" lon="10.1439850">
	<ele>1893.20</ele>
	<time>2024-09-06T07:53:17.000Z</time>
</trkpt>
<trkpt lat="46.1300590" lon="10.1439920">
	<ele>1893.20</ele>
	<time>2024-09-06T07:53:18.000Z</time>
</trkpt>
<trkpt lat="46.1300550" lon="10.1440010">
	<ele>1893.20</ele>
	<time>2024-09-06T07:53:19.000Z</time>
</trkpt>
<trkpt lat="46.1300510" lon="10.1440130">
	<ele>1893.20</ele>
	<time>2024-09-06T07:53:20.000Z</time>
</trkpt>
<trkpt lat="46.1300480" lon="10.1440250">
	<ele>1893.20</ele>
	<time>2024-09-06T07:53:21.000Z</time>
</trkpt>
<trkpt lat="46.1300440" lon="10.1440340">
	<ele>1893.40</ele>
	<time>2024-09-06T07:53:22.000Z</time>
</trkpt>
<trkpt lat="46.1300410" lon="10.1440460">
	<ele>1893.40</ele>
	<time>2024-09-06T07:53:23.000Z</time>
</trkpt>
<trkpt lat="46.1300370" lon="10.1440590">
	<ele>1893.40</ele>
	<time>2024-09-06T07:53:24.000Z</time>
</trkpt>
<trkpt lat="46.1300320" lon="10.1440760">
	<ele>1893.60</ele>
	<time>2024-09-06T07:53:25.000Z</time>
</trkpt>
<trkpt lat="46.1300250" lon="10.1440870">
	<ele>1893.80</ele>
	<time>2024-09-06T07:53:26.000Z</time>
</trkpt>
<trkpt lat="46.1300190" lon="10.1440970">
	<ele>1894.00</ele>
	<time>2024-09-06T07:53:27.000Z</time>
</trkpt>
<trkpt lat="46.1300110" lon="10.1441060">
	<ele>1894.20</ele>
	<time>2024-09-06T07:53:28.000Z</time>
</trkpt>
<trkpt lat="46.1300030" lon="10.1441140">
	<ele>1894.20</ele>
	<time>2024-09-06T07:53:29.000Z</time>
</trkpt>
<trkpt lat="46.1299960" lon="10.1441220">
	<ele>1894.40</ele>
	<time>2024-09-06T07:53:30.000Z</time>
</trkpt>
<trkpt lat="46.1299890" lon="10.1441310">
	<ele>1894.60</ele>
	<time>2024-09-06T07:53:31.000Z</time>
</trkpt>
<trkpt lat="46.1299830" lon="10.1441380">
	<ele>1894.60</ele>
	<time>2024-09-06T07:53:32.000Z</time>
</trkpt>
<trkpt lat="46.1299780" lon="10.1441470">
	<ele>1894.80</ele>
	<time>2024-09-06T07:53:33.000Z</time>
</trkpt>
<trkpt lat="46.1299720" lon="10.1441590">
	<ele>1894.80</ele>
	<time>2024-09-06T07:53:34.000Z</time>
</trkpt>
<trkpt lat="46.1299660" lon="10.1441720">
	<ele>1894.80</ele>
	<time>2024-09-06T07:53:35.000Z</time>
</trkpt>
<trkpt lat="46.1299620" lon="10.1441870">
	<ele>1895.00</ele>
	<time>2024-09-06T07:53:36.000Z</time>
</trkpt>
<trkpt lat="46.1299560" lon="10.1441980">
	<ele>1895.00</ele>
	<time>2024-09-06T07:53:37.000Z</time>
</trkpt>
<trkpt lat="46.1299510" lon="10.1442130">
	<ele>1895.20</ele>
	<time>2024-09-06T07:53:38.000Z</time>
</trkpt>
<trkpt lat="46.1299440" lon="10.1442270">
	<ele>1895.40</ele>
	<time>2024-09-06T07:53:39.000Z</time>
</trkpt>
<trkpt lat="46.1299380" lon="10.1442400">
	<ele>1895.60</ele>
	<time>2024-09-06T07:53:40.000Z</time>
</trkpt>
<trkpt lat="46.1299330" lon="10.1442520">
	<ele>1895.60</ele>
	<time>2024-09-06T07:53:41.000Z</time>
</trkpt>
<trkpt lat="46.1299290" lon="10.1442670">
	<ele>1895.80</ele>
	<time>2024-09-06T07:53:42.000Z</time>
</trkpt>
<trkpt lat="46.1299240" lon="10.1442810">
	<ele>1896.00</ele>
	<time>2024-09-06T07:53:43.000Z</time>
</trkpt>
<trkpt lat="46.1299170" lon="10.1442950">
	<ele>1896.00</ele>
	<time>2024-09-06T07:53:44.000Z</time>
</trkpt>
<trkpt lat="46.1299110" lon="10.1443080">
	<ele>1896.00</ele>
	<time>2024-09-06T07:53:45.000Z</time>
</trkpt>
<trkpt lat="46.1299050" lon="10.1443200">
	<ele>1896.20</ele>
	<time>2024-09-06T07:53:46.000Z</time>
</trkpt>
<trkpt lat="46.1299010" lon="10.1443330">
	<ele>1896.20</ele>
	<time>2024-09-06T07:53:47.000Z</time>
</trkpt>
<trkpt lat="46.1298940" lon="10.1443420">
	<ele>1896.20</ele>
	<time>2024-09-06T07:53:48.000Z</time>
</trkpt>
<trkpt lat="46.1298880" lon="10.1443510">
	<ele>1896.40</ele>
	<time>2024-09-06T07:53:49.000Z</time>
</trkpt>
<trkpt lat="46.1298800" lon="10.1443620">
	<ele>1896.40</ele>
	<time>2024-09-06T07:53:50.000Z</time>
</trkpt>
<trkpt lat="46.1298750" lon="10.1443730">
	<ele>1896.40</ele>
	<time>2024-09-06T07:53:51.000Z</time>
</trkpt>
<trkpt lat="46.1298700" lon="10.1443840">
	<ele>1896.60</ele>
	<time>2024-09-06T07:53:52.000Z</time>
</trkpt>
<trkpt lat="46.1298650" lon="10.1443960">
	<ele>1896.60</ele>
	<time>2024-09-06T07:53:53.000Z</time>
</trkpt>
<trkpt lat="46.1298600" lon="10.1444080">
	<ele>1896.80</ele>
	<time>2024-09-06T07:53:54.000Z</time>
</trkpt>
<trkpt lat="46.1298540" lon="10.1444200">
	<ele>1897.00</ele>
	<time>2024-09-06T07:53:55.000Z</time>
</trkpt>
<trkpt lat="46.1298480" lon="10.1444320">
	<ele>1897.00</ele>
	<time>2024-09-06T07:53:56.000Z</time>
</trkpt>
<trkpt lat="46.1298430" lon="10.1444440">
	<ele>1897.20</ele>
	<time>2024-09-06T07:53:57.000Z</time>
</trkpt>
<trkpt lat="46.1298390" lon="10.1444560">
	<ele>1897.40</ele>
	<time>2024-09-06T07:53:58.000Z</time>
</trkpt>
<trkpt lat="46.1298340" lon="10.1444680">
	<ele>1897.60</ele>
	<time>2024-09-06T07:53:59.000Z</time>
</trkpt>
<trkpt lat="46.1298300" lon="10.1444800">
	<ele>1897.60</ele>
	<time>2024-09-06T07:54:00.000Z</time>
</trkpt>
<trkpt lat="46.1298260" lon="10.1444920">
	<ele>1897.80</ele>
	<time>2024-09-06T07:54:01.000Z</time>
</trkpt>
<trkpt lat="46.1298210" lon="10.1445020">
	<ele>1897.80</ele>
	<time>2024-09-06T07:54:02.000Z</time>
</trkpt>
<trkpt lat="46.1298170" lon="10.1445130">
	<ele>1897.80</ele>
	<time>2024-09-06T07:54:03.000Z</time>
</trkpt>
<trkpt lat="46.1298120" lon="10.1445240">
	<ele>1898.00</ele>
	<time>2024-09-06T07:54:04.000Z</time>
</trkpt>
<trkpt lat="46.1298080" lon="10.1445340">
	<ele>1898.20</ele>
	<time>2024-09-06T07:54:05.000Z</time>
</trkpt>
<trkpt lat="46.1298020" lon="10.1445430">
	<ele>1898.40</ele>
	<time>2024-09-06T07:54:06.000Z</time>
</trkpt>
<trkpt lat="46.1297970" lon="10.1445550">
	<ele>1898.60</ele>
	<time>2024-09-06T07:54:07.000Z</time>
</trkpt>
<trkpt lat="46.1297940" lon="10.1445660">
	<ele>1898.60</ele>
	<time>2024-09-06T07:54:08.000Z</time>
</trkpt>
<trkpt lat="46.1297900" lon="10.1445760">
	<ele>1898.80</ele>
	<time>2024-09-06T07:54:09.000Z</time>
</trkpt>
<trkpt lat="46.1297850" lon="10.1445880">
	<ele>1899.00</ele>
	<time>2024-09-06T07:54:10.000Z</time>
</trkpt>
<trkpt lat="46.1297820" lon="10.1445980">
	<ele>1899.00</ele>
	<time>2024-09-06T07:54:11.000Z</time>
</trkpt>
<trkpt lat="46.1297780" lon="10.1446100">
	<ele>1899.00</ele>
	<time>2024-09-06T07:54:12.000Z</time>
</trkpt>
<trkpt lat="46.1297740" lon="10.1446210">
	<ele>1899.20</ele>
	<time>2024-09-06T07:54:13.000Z</time>
</trkpt>
<trkpt lat="46.1297700" lon="10.1446330">
	<ele>1899.40</ele>
	<time>2024-09-06T07:54:14.000Z</time>
</trkpt>
<trkpt lat="46.1297690" lon="10.1446470">
	<ele>1899.60</ele>
	<time>2024-09-06T07:54:15.000Z</time>
</trkpt>
<trkpt lat="46.1297640" lon="10.1446610">
	<ele>1899.60</ele>
	<time>2024-09-06T07:54:16.000Z</time>
</trkpt>
<trkpt lat="46.1297620" lon="10.1446770">
	<ele>1899.80</ele>
	<time>2024-09-06T07:54:17.000Z</time>
</trkpt>
<trkpt lat="46.1297600" lon="10.1446900">
	<ele>1899.80</ele>
	<time>2024-09-06T07:54:18.000Z</time>
</trkpt>
<trkpt lat="46.1297550" lon="10.1447070">
	<ele>1899.80</ele>
	<time>2024-09-06T07:54:19.000Z</time>
</trkpt>
<trkpt lat="46.1297500" lon="10.1447180">
	<ele>1900.00</ele>
	<time>2024-09-06T07:54:20.000Z</time>
</trkpt>
<trkpt lat="46.1297470" lon="10.1447300">
	<ele>1900.20</ele>
	<time>2024-09-06T07:54:21.000Z</time>
</trkpt>
<trkpt lat="46.1297420" lon="10.1447440">
	<ele>1900.20</ele>
	<time>2024-09-06T07:54:22.000Z</time>
</trkpt>
<trkpt lat="46.1297370" lon="10.1447590">
	<ele>1900.60</ele>
	<time>2024-09-06T07:54:23.000Z</time>
</trkpt>
<trkpt lat="46.1297370" lon="10.1447700">
	<ele>1900.80</ele>
	<time>2024-09-06T07:54:24.000Z</time>
</trkpt>
<trkpt lat="46.1297380" lon="10.1447810">
	<ele>1901.00</ele>
	<time>2024-09-06T07:54:25.000Z</time>
</trkpt>
<trkpt lat="46.1297380" lon="10.1447940">
	<ele>1901.20</ele>
	<time>2024-09-06T07:54:26.000Z</time>
</trkpt>
<trkpt lat="46.1297370" lon="10.1448130">
	<ele>1901.20</ele>
	<time>2024-09-06T07:54:27.000Z</time>
</trkpt>
<trkpt lat="46.1297380" lon="10.1448290">
	<ele>1901.40</ele>
	<time>2024-09-06T07:54:28.000Z</time>
</trkpt>
<trkpt lat="46.1297400" lon="10.1448420">
	<ele>1901.60</ele>
	<time>2024-09-06T07:54:29.000Z</time>
</trkpt>
<trkpt lat="46.1297410" lon="10.1448530">
	<ele>1901.60</ele>
	<time>2024-09-06T07:54:30.000Z</time>
</trkpt>
<trkpt lat="46.1297420" lon="10.1448710">
	<ele>1901.80</ele>
	<time>2024-09-06T07:54:31.000Z</time>
</trkpt>
<trkpt lat="46.1297420" lon="10.1448840">
	<ele>1901.80</ele>
	<time>2024-09-06T07:54:32.000Z</time>
</trkpt>
<trkpt lat="46.1297420" lon="10.1448970">
	<ele>1901.80</ele>
	<time>2024-09-06T07:54:33.000Z</time>
</trkpt>
<trkpt lat="46.1297420" lon="10.1449090">
	<ele>1901.80</ele>
	<time>2024-09-06T07:54:34.000Z</time>
</trkpt>
<trkpt lat="46.1297430" lon="10.1449230">
	<ele>1901.80</ele>
	<time>2024-09-06T07:54:35.000Z</time>
</trkpt>
<trkpt lat="46.1297450" lon="10.1449390">
	<ele>1902.00</ele>
	<time>2024-09-06T07:54:36.000Z</time>
</trkpt>
<trkpt lat="46.1297450" lon="10.1449480">
	<ele>1902.00</ele>
	<time>2024-09-06T07:54:37.000Z</time>
</trkpt>
<trkpt lat="46.1297450" lon="10.1449620">
	<ele>1902.20</ele>
	<time>2024-09-06T07:54:38.000Z</time>
</trkpt>
<trkpt lat="46.1297460" lon="10.1449770">
	<ele>1902.20</ele>
	<time>2024-09-06T07:54:39.000Z</time>
</trkpt>
<trkpt lat="46.1297480" lon="10.1449900">
	<ele>1902.20</ele>
	<time>2024-09-06T07:54:40.000Z</time>
</trkpt>
<trkpt lat="46.1297510" lon="10.1450020">
	<ele>1902.20</ele>
	<time>2024-09-06T07:54:41.000Z</time>
</trkpt>
<trkpt lat="46.1297530" lon="10.1450140">
	<ele>1902.40</ele>
	<time>2024-09-06T07:54:42.000Z</time>
</trkpt>
<trkpt lat="46.1297560" lon="10.1450260">
	<ele>1902.40</ele>
	<time>2024-09-06T07:54:43.000Z</time>
</trkpt>
<trkpt lat="46.1297590" lon="10.1450390">
	<ele>1902.60</ele>
	<time>2024-09-06T07:54:44.000Z</time>
</trkpt>
<trkpt lat="46.1297620" lon="10.1450530">
	<ele>1902.80</ele>
	<time>2024-09-06T07:54:45.000Z</time>
</trkpt>
<trkpt lat="46.1297640" lon="10.1450690">
	<ele>1902.80</ele>
	<time>2024-09-06T07:54:46.000Z</time>
</trkpt>
<trkpt lat="46.1297660" lon="10.1450820">
	<ele>1903.00</ele>
	<time>2024-09-06T07:54:47.000Z</time>
</trkpt>
<trkpt lat="46.1297660" lon="10.1451000">
	<ele>1903.00</ele>
	<time>2024-09-06T07:54:48.000Z</time>
</trkpt>
<trkpt lat="46.1297670" lon="10.1451150">
	<ele>1903.00</ele>
	<time>2024-09-06T07:54:49.000Z</time>
</trkpt>
<trkpt lat="46.1297660" lon="10.1451210">
	<ele>1903.20</ele>
	<time>2024-09-06T07:54:50.000Z</time>
</trkpt>
<trkpt lat="46.1297660" lon="10.1451350">
	<ele>1903.40</ele>
	<time>2024-09-06T07:54:51.000Z</time>
</trkpt>
<trkpt lat="46.1297660" lon="10.1451480">
	<ele>1903.40</ele>
	<time>2024-09-06T07:54:52.000Z</time>
</trkpt>
<trkpt lat="46.1297660" lon="10.1451630">
	<ele>1903.40</ele>
	<time>2024-09-06T07:54:53.000Z</time>
</trkpt>
<trkpt lat="46.1297650" lon="10.1451730">
	<ele>1903.60</ele>
	<time>2024-09-06T07:54:54.000Z</time>
</trkpt>
<trkpt lat="46.1297640" lon="10.1451840">
	<ele>1903.80</ele>
	<time>2024-09-06T07:54:55.000Z</time>
</trkpt>
<trkpt lat="46.1297610" lon="10.1451980">
	<ele>1904.00</ele>
	<time>2024-09-06T07:54:56.000Z</time>
</trkpt>
<trkpt lat="46.1297610" lon="10.1452170">
	<ele>1904.00</ele>
	<time>2024-09-06T07:54:57.000Z</time>
</trkpt>
<trkpt lat="46.1297610" lon="10.1452290">
	<ele>1904.00</ele>
	<time>2024-09-06T07:54:58.000Z</time>
</trkpt>
<trkpt lat="46.1297640" lon="10.1452450">
	<ele>1904.20</ele>
	<time>2024-09-06T07:54:59.000Z</time>
</trkpt>
<trkpt lat="46.1297670" lon="10.1452640">
	<ele>1904.20</ele>
	<time>2024-09-06T07:55:00.000Z</time>
</trkpt>
<trkpt lat="46.1297670" lon="10.1452780">
	<ele>1904.20</ele>
	<time>2024-09-06T07:55:01.000Z</time>
</trkpt>
<trkpt lat="46.1297680" lon="10.1452910">
	<ele>1904.20</ele>
	<time>2024-09-06T07:55:02.000Z</time>
</trkpt>
<trkpt lat="46.1297680" lon="10.1453090">
	<ele>1904.20</ele>
	<time>2024-09-06T07:55:03.000Z</time>
</trkpt>
<trkpt lat="46.1297680" lon="10.1453260">
	<ele>1904.40</ele>
	<time>2024-09-06T07:55:04.000Z</time>
</trkpt>
<trkpt lat="46.1297670" lon="10.1453440">
	<ele>1904.60</ele>
	<time>2024-09-06T07:55:05.000Z</time>
</trkpt>
<trkpt lat="46.1297680" lon="10.1453600">
	<ele>1904.60</ele>
	<time>2024-09-06T07:55:06.000Z</time>
</trkpt>
<trkpt lat="46.1297700" lon="10.1453770">
	<ele>1904.80</ele>
	<time>2024-09-06T07:55:07.000Z</time>
</trkpt>
<trkpt lat="46.1297700" lon="10.1453900">
	<ele>1904.80</ele>
	<time>2024-09-06T07:55:08.000Z</time>
</trkpt>
<trkpt lat="46.1297710" lon="10.1454080">
	<ele>1904.80</ele>
	<time>2024-09-06T07:55:09.000Z</time>
</trkpt>
<trkpt lat="46.1297670" lon="10.1454210">
	<ele>1905.00</ele>
	<time>2024-09-06T07:55:10.000Z</time>
</trkpt>
<trkpt lat="46.1297630" lon="10.1454340">
	<ele>1905.00</ele>
	<time>2024-09-06T07:55:11.000Z</time>
</trkpt>
<trkpt lat="46.1297610" lon="10.1454480">
	<ele>1905.00</ele>
	<time>2024-09-06T07:55:12.000Z</time>
</trkpt>
<trkpt lat="46.1297620" lon="10.1454650">
	<ele>1905.00</ele>
	<time>2024-09-06T07:55:13.000Z</time>
</trkpt>
<trkpt lat="46.1297640" lon="10.1454820">
	<ele>1905.00</ele>
	<time>2024-09-06T07:55:14.000Z</time>
</trkpt>
<trkpt lat="46.1297670" lon="10.1454930">
	<ele>1905.20</ele>
	<time>2024-09-06T07:55:15.000Z</time>
</trkpt>
<trkpt lat="46.1297700" lon="10.1455020">
	<ele>1905.20</ele>
	<time>2024-09-06T07:55:16.000Z</time>
</trkpt>
<trkpt lat="46.1297750" lon="10.1455140">
	<ele>1905.40</ele>
	<time>2024-09-06T07:55:17.000Z</time>
</trkpt>
<trkpt lat="46.1297790" lon="10.1455210">
	<ele>1905.40</ele>
	<time>2024-09-06T07:55:18.000Z</time>
</trkpt>
<trkpt lat="46.1297780" lon="10.1455230">
	<ele>1905.40</ele>
	<time>2024-09-06T07:55:19.000Z</time>
</trkpt>
<trkpt lat="46.1297770" lon="10.1455230">
	<ele>1905.60</ele>
	<time>2024-09-06T07:55:20.000Z</time>
</trkpt>
<trkpt lat="46.1297760" lon="10.1455250">
	<ele>1905.60</ele>
	<time>2024-09-06T07:55:21.000Z</time>
</trkpt>
<trkpt lat="46.1297760" lon="10.1455260">
	<ele>1905.60</ele>
	<time>2024-09-06T07:55:22.000Z</time>
</trkpt>
<trkpt lat="46.1297780" lon="10.1455260">
	<ele>1905.60</ele>
	<time>2024-09-06T07:55:23.000Z</time>
</trkpt>
<trkpt lat="46.1297800" lon="10.1455250">
	<ele>1905.80</ele>
	<time>2024-09-06T07:55:24.000Z</time>
</trkpt>
<trkpt lat="46.1297820" lon="10.1455250">
	<ele>1905.80</ele>
	<time>2024-09-06T07:55:25.000Z</time>
</trkpt>
<trkpt lat="46.1297800" lon="10.1455310">
	<ele>1905.80</ele>
	<time>2024-09-06T07:55:26.000Z</time>
</trkpt>
<trkpt lat="46.1297780" lon="10.1455350">
	<ele>1905.80</ele>
	<time>2024-09-06T07:55:27.000Z</time>
</trkpt>
<trkpt lat="46.1297770" lon="10.1455380">
	<ele>1905.80</ele>
	<time>2024-09-06T07:55:28.000Z</time>
</trkpt>
<trkpt lat="46.1297750" lon="10.1455430">
	<ele>1905.60</ele>
	<time>2024-09-06T07:55:29.000Z</time>
</trkpt>
<trkpt lat="46.1297710" lon="10.1455520">
	<ele>1905.60</ele>
	<time>2024-09-06T07:55:30.000Z</time>
</trkpt>
<trkpt lat="46.1297670" lon="10.1455620">
	<ele>1905.60</ele>
	<time>2024-09-06T07:55:31.000Z</time>
</trkpt>
<trkpt lat="46.1297610" lon="10.1455720">
	<ele>1905.60</ele>
	<time>2024-09-06T07:55:32.000Z</time>
</trkpt>
<trkpt lat="46.1297550" lon="10.1455810">
	<ele>1905.60</ele>
	<time>2024-09-06T07:55:33.000Z</time>
</trkpt>
<trkpt lat="46.1297500" lon="10.1455930">
	<ele>1905.80</ele>
	<time>2024-09-06T07:55:34.000Z</time>
</trkpt>
<trkpt lat="46.1297410" lon="10.1456060">
	<ele>1905.80</ele>
	<time>2024-09-06T07:55:35.000Z</time>
</trkpt>
<trkpt lat="46.1297360" lon="10.1456170">
	<ele>1906.00</ele>
	<time>2024-09-06T07:55:36.000Z</time>
</trkpt>
<trkpt lat="46.1297320" lon="10.1456280">
	<ele>1906.20</ele>
	<time>2024-09-06T07:55:37.000Z</time>
</trkpt>
<trkpt lat="46.1297300" lon="10.1456370">
	<ele>1906.20</ele>
	<time>2024-09-06T07:55:38.000Z</time>
</trkpt>
<trkpt lat="46.1297300" lon="10.1456480">
	<ele>1906.40</ele>
	<time>2024-09-06T07:55:39.000Z</time>
</trkpt>
<trkpt lat="46.1297290" lon="10.1456640">
	<ele>1906.60</ele>
	<time>2024-09-06T07:55:40.000Z</time>
</trkpt>
<trkpt lat="46.1297270" lon="10.1456730">
	<ele>1906.80</ele>
	<time>2024-09-06T07:55:41.000Z</time>
</trkpt>
<trkpt lat="46.1297250" lon="10.1456840">
	<ele>1907.00</ele>
	<time>2024-09-06T07:55:42.000Z</time>
</trkpt>
<trkpt lat="46.1297240" lon="10.1456950">
	<ele>1907.00</ele>
	<time>2024-09-06T07:55:43.000Z</time>
</trkpt>
<trkpt lat="46.1297220" lon="10.1457050">
	<ele>1907.20</ele>
	<time>2024-09-06T07:55:44.000Z</time>
</trkpt>
<trkpt lat="46.1297200" lon="10.1457130">
	<ele>1907.40</ele>
	<time>2024-09-06T07:55:45.000Z</time>
</trkpt>
<trkpt lat="46.1297190" lon="10.1457270">
	<ele>1907.60</ele>
	<time>2024-09-06T07:55:46.000Z</time>
</trkpt>
<trkpt lat="46.1297180" lon="10.1457410">
	<ele>1907.80</ele>
	<time>2024-09-06T07:55:47.000Z</time>
</trkpt>
<trkpt lat="46.1297170" lon="10.1457540">
	<ele>1908.20</ele>
	<time>2024-09-06T07:55:48.000Z</time>
</trkpt>
<trkpt lat="46.1297170" lon="10.1457630">
	<ele>1908.40</ele>
	<time>2024-09-06T07:55:49.000Z</time>
</trkpt>
<trkpt lat="46.1297140" lon="10.1457700">
	<ele>1908.60</ele>
	<time>2024-09-06T07:55:50.000Z</time>
</trkpt>
<trkpt lat="46.1297130" lon="10.1457800">
	<ele>1908.80</ele>
	<time>2024-09-06T07:55:51.000Z</time>
</trkpt>
<trkpt lat="46.1297140" lon="10.1457940">
	<ele>1908.80</ele>
	<time>2024-09-06T07:55:52.000Z</time>
</trkpt>
<trkpt lat="46.1297140" lon="10.1458050">
	<ele>1909.00</ele>
	<time>2024-09-06T07:55:53.000Z</time>
</trkpt>
<trkpt lat="46.1297120" lon="10.1458130">
	<ele>1909.40</ele>
	<time>2024-09-06T07:55:54.000Z</time>
</trkpt>
<trkpt lat="46.1297110" lon="10.1458240">
	<ele>1909.60</ele>
	<time>2024-09-06T07:55:55.000Z</time>
</trkpt>
<trkpt lat="46.1297080" lon="10.1458310">
	<ele>1909.80</ele>
	<time>2024-09-06T07:55:56.000Z</time>
</trkpt>
<trkpt lat="46.1297040" lon="10.1458370">
	<ele>1910.00</ele>
	<time>2024-09-06T07:55:57.000Z</time>
</trkpt>
<trkpt lat="46.1297030" lon="10.1458500">
	<ele>1910.00</ele>
	<time>2024-09-06T07:55:58.000Z</time>
</trkpt>
<trkpt lat="46.1297020" lon="10.1458630">
	<ele>1910.40</ele>
	<time>2024-09-06T07:55:59.000Z</time>
</trkpt>
<trkpt lat="46.1297010" lon="10.1458730">
	<ele>1910.60</ele>
	<time>2024-09-06T07:56:00.000Z</time>
</trkpt>
<trkpt lat="46.1297020" lon="10.1458870">
	<ele>1910.80</ele>
	<time>2024-09-06T07:56:01.000Z</time>
</trkpt>
<trkpt lat="46.1297050" lon="10.1459000">
	<ele>1910.80</ele>
	<time>2024-09-06T07:56:02.000Z</time>
</trkpt>
<trkpt lat="46.1297060" lon="10.1459100">
	<ele>1911.20</ele>
	<time>2024-09-06T07:56:03.000Z</time>
</trkpt>
<trkpt lat="46.1297070" lon="10.1459200">
	<ele>1911.20</ele>
	<time>2024-09-06T07:56:04.000Z</time>
</trkpt>
<trkpt lat="46.1297080" lon="10.1459290">
	<ele>1911.40</ele>
	<time>2024-09-06T07:56:05.000Z</time>
</trkpt>
<trkpt lat="46.1297120" lon="10.1459380">
	<ele>1911.40</ele>
	<time>2024-09-06T07:56:06.000Z</time>
</trkpt>
<trkpt lat="46.1297230" lon="10.1459450">
	<ele>1911.40</ele>
	<time>2024-09-06T07:56:07.000Z</time>
</trkpt>
<trkpt lat="46.1297290" lon="10.1459530">
	<ele>1911.80</ele>
	<time>2024-09-06T07:56:08.000Z</time>
</trkpt>
<trkpt lat="46.1297290" lon="10.1459650">
	<ele>1912.00</ele>
	<time>2024-09-06T07:56:09.000Z</time>
</trkpt>
<trkpt lat="46.1297270" lon="10.1459760">
	<ele>1912.20</ele>
	<time>2024-09-06T07:56:10.000Z</time>
</trkpt>
<trkpt lat="46.1297260" lon="10.1459870">
	<ele>1912.20</ele>
	<time>2024-09-06T07:56:11.000Z</time>
</trkpt>
<trkpt lat="46.1297250" lon="10.1460050">
	<ele>1912.20</ele>
	<time>2024-09-06T07:56:12.000Z</time>
</trkpt>
<trkpt lat="46.1297260" lon="10.1460180">
	<ele>1912.40</ele>
	<time>2024-09-06T07:56:13.000Z</time>
</trkpt>
<trkpt lat="46.1297250" lon="10.1460280">
	<ele>1912.60</ele>
	<time>2024-09-06T07:56:14.000Z</time>
</trkpt>
<trkpt lat="46.1297230" lon="10.1460470">
	<ele>1912.60</ele>
	<time>2024-09-06T07:56:15.000Z</time>
</trkpt>
<trkpt lat="46.1297260" lon="10.1460560">
	<ele>1912.60</ele>
	<time>2024-09-06T07:56:16.000Z</time>
</trkpt>
<trkpt lat="46.1297260" lon="10.1460710">
	<ele>1912.60</ele>
	<time>2024-09-06T07:56:17.000Z</time>
</trkpt>
<trkpt lat="46.1297270" lon="10.1460850">
	<ele>1912.60</ele>
	<time>2024-09-06T07:56:18.000Z</time>
</trkpt>
<trkpt lat="46.1297280" lon="10.1460960">
	<ele>1912.80</ele>
	<time>2024-09-06T07:56:19.000Z</time>
</trkpt>
<trkpt lat="46.1297230" lon="10.1461100">
	<ele>1912.80</ele>
	<time>2024-09-06T07:56:20.000Z</time>
</trkpt>
<trkpt lat="46.1297160" lon="10.1461210">
	<ele>1912.80</ele>
	<time>2024-09-06T07:56:21.000Z</time>
</trkpt>
<trkpt lat="46.1297050" lon="10.1461300">
	<ele>1913.00</ele>
	<time>2024-09-06T07:56:22.000Z</time>
</trkpt>
<trkpt lat="46.1296960" lon="10.1461340">
	<ele>1913.00</ele>
	<time>2024-09-06T07:56:23.000Z</time>
</trkpt>
<trkpt lat="46.1296890" lon="10.1461320">
	<ele>1913.00</ele>
	<time>2024-09-06T07:56:24.000Z</time>
</trkpt>
<trkpt lat="46.1296830" lon="10.1461260">
	<ele>1912.80</ele>
	<time>2024-09-06T07:56:25.000Z</time>
</trkpt>
<trkpt lat="46.1296750" lon="10.1461180">
	<ele>1912.80</ele>
	<time>2024-09-06T07:56:26.000Z</time>
</trkpt>
<trkpt lat="46.1296690" lon="10.1461100">
	<ele>1912.80</ele>
	<time>2024-09-06T07:56:27.000Z</time>
</trkpt>
<trkpt lat="46.1296680" lon="10.1461030">
	<ele>1912.80</ele>
	<time>2024-09-06T07:56:28.000Z</time>
</trkpt>
<trkpt lat="46.1296650" lon="10.1460980">
	<ele>1912.80</ele>
	<time>2024-09-06T07:56:29.000Z</time>
</trkpt>
<trkpt lat="46.1296650" lon="10.1460950">
	<ele>1912.80</ele>
	<time>2024-09-06T07:56:30.000Z</time>
</trkpt>
<trkpt lat="46.1296640" lon="10.1460930">
	<ele>1913.00</ele>
	<time>2024-09-06T07:56:31.000Z</time>
</trkpt>
<trkpt lat="46.1296610" lon="10.1460910">
	<ele>1913.20</ele>
	<time>2024-09-06T07:56:32.000Z</time>
</trkpt>
<trkpt lat="46.1296610" lon="10.1460870">
	<ele>1913.40</ele>
	<time>2024-09-06T07:56:33.000Z</time>
</trkpt>
<trkpt lat="46.1296590" lon="10.1460810">
	<ele>1913.60</ele>
	<time>2024-09-06T07:56:34.000Z</time>
</trkpt>
<trkpt lat="46.1296560" lon="10.1460760">
	<ele>1913.80</ele>
	<time>2024-09-06T07:56:35.000Z</time>
</trkpt>
<trkpt lat="46.1296550" lon="10.1460730">
	<ele>1914.00</ele>
	<time>2024-09-06T07:56:36.000Z</time>
</trkpt>
<trkpt lat="46.1296540" lon="10.1460690">
	<ele>1914.20</ele>
	<time>2024-09-06T07:56:37.000Z</time>
</trkpt>
<trkpt lat="46.1296530" lon="10.1460640">
	<ele>1914.40</ele>
	<time>2024-09-06T07:56:38.000Z</time>
</trkpt>
<trkpt lat="46.1296570" lon="10.1460570">
	<ele>1914.60</ele>
	<time>2024-09-06T07:56:39.000Z</time>
</trkpt>
<trkpt lat="46.1296580" lon="10.1460480">
	<ele>1914.80</ele>
	<time>2024-09-06T07:56:40.000Z</time>
</trkpt>
<trkpt lat="46.1296640" lon="10.1460380">
	<ele>1915.00</ele>
	<time>2024-09-06T07:56:41.000Z</time>
</trkpt>
<trkpt lat="46.1296670" lon="10.1460240">
	<ele>1915.00</ele>
	<time>2024-09-06T07:56:42.000Z</time>
</trkpt>
<trkpt lat="46.1296670" lon="10.1460140">
	<ele>1915.20</ele>
	<time>2024-09-06T07:56:43.000Z</time>
</trkpt>
<trkpt lat="46.1296700" lon="10.1460010">
	<ele>1915.20</ele>
	<time>2024-09-06T07:56:44.000Z</time>
</trkpt>
<trkpt lat="46.1296720" lon="10.1459870">
	<ele>1915.20</ele>
	<time>2024-09-06T07:56:45.000Z</time>
</trkpt>
<trkpt lat="46.1296720" lon="10.1459790">
	<ele>1915.20</ele>
	<time>2024-09-06T07:56:46.000Z</time>
</trkpt>
<trkpt lat="46.1296720" lon="10.1459740">
	<ele>1915.20</ele>
	<time>2024-09-06T07:56:47.000Z</time>
</trkpt>
<trkpt lat="46.1296700" lon="10.1459740">
	<ele>1915.20</ele>
	<time>2024-09-06T07:56:48.000Z</time>
</trkpt>
<trkpt lat="46.1296650" lon="10.1459690">
	<ele>1915.20</ele>
	<time>2024-09-06T07:56:49.000Z</time>
</trkpt>
<trkpt lat="46.1296620" lon="10.1459680">
	<ele>1915.20</ele>
	<time>2024-09-06T07:56:50.000Z</time>
</trkpt>
<trkpt lat="46.1296590" lon="10.1459660">
	<ele>1915.40</ele>
	<time>2024-09-06T07:56:51.000Z</time>
</trkpt>
<trkpt lat="46.1296570" lon="10.1459670">
	<ele>1915.40</ele>
	<time>2024-09-06T07:56:52.000Z</time>
</trkpt>
<trkpt lat="46.1296540" lon="10.1459670">
	<ele>1915.40</ele>
	<time>2024-09-06T07:56:53.000Z</time>
</trkpt>
<trkpt lat="46.1296480" lon="10.1459680">
	<ele>1915.40</ele>
	<time>2024-09-06T07:56:54.000Z</time>
</trkpt>
<trkpt lat="46.1296430" lon="10.1459710">
	<ele>1915.60</ele>
	<time>2024-09-06T07:56:55.000Z</time>
</trkpt>
<trkpt lat="46.1296400" lon="10.1459750">
	<ele>1915.60</ele>
	<time>2024-09-06T07:56:56.000Z</time>
</trkpt>
<trkpt lat="46.1296360" lon="10.1459800">
	<ele>1915.60</ele>
	<time>2024-09-06T07:56:57.000Z</time>
</trkpt>
<trkpt lat="46.1296320" lon="10.1459840">
	<ele>1915.60</ele>
	<time>2024-09-06T07:56:58.000Z</time>
</trkpt>
<trkpt lat="46.1296290" lon="10.1459860">
	<ele>1915.60</ele>
	<time>2024-09-06T07:56:59.000Z</time>
</trkpt>
<trkpt lat="46.1296260" lon="10.1459860">
	<ele>1915.60</ele>
	<time>2024-09-06T07:57:00.000Z</time>
</trkpt>
<trkpt lat="46.1296240" lon="10.1459830">
	<ele>1915.60</ele>
	<time>2024-09-06T07:57:01.000Z</time>
</trkpt>
<trkpt lat="46.1296250" lon="10.1459840">
	<ele>1915.60</ele>
	<time>2024-09-06T07:57:02.000Z</time>
</trkpt>
<trkpt lat="46.1296250" lon="10.1459850">
	<ele>1915.40</ele>
	<time>2024-09-06T07:57:03.000Z</time>
</trkpt>
<trkpt lat="46.1296240" lon="10.1459820">
	<ele>1915.40</ele>
	<time>2024-09-06T07:57:04.000Z</time>
</trkpt>
<trkpt lat="46.1296240" lon="10.1459820">
	<ele>1915.40</ele>
	<time>2024-09-06T07:57:05.000Z</time>
</trkpt>
<trkpt lat="46.1296240" lon="10.1459820">
	<ele>1915.40</ele>
	<time>2024-09-06T07:57:06.000Z</time>
</trkpt>
<trkpt lat="46.1296240" lon="10.1459820">
	<ele>1915.60</ele>
	<time>2024-09-06T07:57:07.000Z</time>
</trkpt>
<trkpt lat="46.1296240" lon="10.1459820">
	<ele>1915.60</ele>
	<time>2024-09-06T07:57:08.000Z</time>
</trkpt>
<trkpt lat="46.1296240" lon="10.1459820">
	<ele>1915.60</ele>
	<time>2024-09-06T07:57:09.000Z</time>
</trkpt>
<trkpt lat="46.1296240" lon="10.1459820">
	<ele>1915.60</ele>
	<time>2024-09-06T07:57:10.000Z</time>
</trkpt>
<trkpt lat="46.1296240" lon="10.1459820">
	<ele>1915.60</ele>
	<time>2024-09-06T07:57:11.000Z</time>
</trkpt>
<trkpt lat="46.1296240" lon="10.1459820">
	<ele>1915.60</ele>
	<time>2024-09-06T07:57:12.000Z</time>
</trkpt>
<trkpt lat="46.1296240" lon="10.1459820">
	<ele>1915.40</ele>
	<time>2024-09-06T07:57:13.000Z</time>
</trkpt>
<trkpt lat="46.1296240" lon="10.1459820">
	<ele>1915.40</ele>
	<time>2024-09-06T07:57:14.000Z</time>
</trkpt>
<trkpt lat="46.1296240" lon="10.1459820">
	<ele>1915.20</ele>
	<time>2024-09-06T07:57:15.000Z</time>
</trkpt>
<trkpt lat="46.1296240" lon="10.1459820">
	<ele>1915.20</ele>
	<time>2024-09-06T07:57:16.000Z</time>
</trkpt>
<trkpt lat="46.1296240" lon="10.1459820">
	<ele>1915.20</ele>
	<time>2024-09-06T07:57:17.000Z</time>
</trkpt>
<trkpt lat="46.1296240" lon="10.1459820">
	<ele>1915.20</ele>
	<time>2024-09-06T07:57:18.000Z</time>
</trkpt>
<trkpt lat="46.1296240" lon="10.1459820">
	<ele>1915.20</ele>
	<time>2024-09-06T07:57:19.000Z</time>
</trkpt>
<trkpt lat="46.1296240" lon="10.1459820">
	<ele>1915.20</ele>
	<time>2024-09-06T07:57:20.000Z</time>
</trkpt>
<trkpt lat="46.1296220" lon="10.1459820">
	<ele>1915.40</ele>
	<time>2024-09-06T07:57:21.000Z</time>
</trkpt>
<trkpt lat="46.1296210" lon="10.1459820">
	<ele>1915.40</ele>
	<time>2024-09-06T07:57:22.000Z</time>
</trkpt>
<trkpt lat="46.1296200" lon="10.1459880">
	<ele>1915.40</ele>
	<time>2024-09-06T07:57:23.000Z</time>
</trkpt>
<trkpt lat="46.1296220" lon="10.1460040">
	<ele>1915.40</ele>
	<time>2024-09-06T07:57:24.000Z</time>
</trkpt>
<trkpt lat="46.1296230" lon="10.1460230">
	<ele>1915.20</ele>
	<time>2024-09-06T07:57:25.000Z</time>
</trkpt>
<trkpt lat="46.1296230" lon="10.1460390">
	<ele>1915.20</ele>
	<time>2024-09-06T07:57:26.000Z</time>
</trkpt>
<trkpt lat="46.1296230" lon="10.1460530">
	<ele>1915.20</ele>
	<time>2024-09-06T07:57:27.000Z</time>
</trkpt>
<trkpt lat="46.1296250" lon="10.1460690">
	<ele>1915.20</ele>
	<time>2024-09-06T07:57:28.000Z</time>
</trkpt>
<trkpt lat="46.1296250" lon="10.1460740">
	<ele>1915.40</ele>
	<time>2024-09-06T07:57:29.000Z</time>
</trkpt>
<trkpt lat="46.1296260" lon="10.1460850">
	<ele>1915.40</ele>
	<time>2024-09-06T07:57:30.000Z</time>
</trkpt>
<trkpt lat="46.1296280" lon="10.1460950">
	<ele>1915.40</ele>
	<time>2024-09-06T07:57:31.000Z</time>
</trkpt>
<trkpt lat="46.1296290" lon="10.1461030">
	<ele>1915.40</ele>
	<time>2024-09-06T07:57:32.000Z</time>
</trkpt>
<trkpt lat="46.1296310" lon="10.1461080">
	<ele>1915.40</ele>
	<time>2024-09-06T07:57:33.000Z</time>
</trkpt>
<trkpt lat="46.1296330" lon="10.1461140">
	<ele>1915.60</ele>
	<time>2024-09-06T07:57:34.000Z</time>
</trkpt>
<trkpt lat="46.1296370" lon="10.1461190">
	<ele>1915.60</ele>
	<time>2024-09-06T07:57:35.000Z</time>
</trkpt>
<trkpt lat="46.1296300" lon="10.1461240">
	<ele>1915.60</ele>
	<time>2024-09-06T07:57:36.000Z</time>
</trkpt>
<trkpt lat="46.1296230" lon="10.1461360">
	<ele>1915.80</ele>
	<time>2024-09-06T07:57:37.000Z</time>
</trkpt>
<trkpt lat="46.1296100" lon="10.1461520">
	<ele>1915.80</ele>
	<time>2024-09-06T07:57:38.000Z</time>
</trkpt>
<trkpt lat="46.1296030" lon="10.1461290">
	<ele>1915.40</ele>
	<time>2024-09-06T07:57:39.000Z</time>
</trkpt>
<trkpt lat="46.1295950" lon="10.1461240">
	<ele>1915.20</ele>
	<time>2024-09-06T07:57:40.000Z</time>
</trkpt>
<trkpt lat="46.1295900" lon="10.1461240">
	<ele>1915.20</ele>
	<time>2024-09-06T07:57:41.000Z</time>
</trkpt>
<trkpt lat="46.1295810" lon="10.1461380">
	<ele>1915.20</ele>
	<time>2024-09-06T07:57:42.000Z</time>
</trkpt>
<trkpt lat="46.1295730" lon="10.1461510">
	<ele>1915.00</ele>
	<time>2024-09-06T07:57:43.000Z</time>
</trkpt>
<trkpt lat="46.1295800" lon="10.1461750">
	<ele>1915.00</ele>
	<time>2024-09-06T07:57:44.000Z</time>
</trkpt>
<trkpt lat="46.1295830" lon="10.1461790">
	<ele>1915.00</ele>
	<time>2024-09-06T07:57:45.000Z</time>
</trkpt>
<trkpt lat="46.1295880" lon="10.1461850">
	<ele>1915.00</ele>
	<time>2024-09-06T07:57:46.000Z</time>
</trkpt>
<trkpt lat="46.1295990" lon="10.1461950">
	<ele>1915.00</ele>
	<time>2024-09-06T07:57:47.000Z</time>
</trkpt>
<trkpt lat="46.1295990" lon="10.1461910">
	<ele>1915.00</ele>
	<time>2024-09-06T07:57:48.000Z</time>
</trkpt>
<trkpt lat="46.1296020" lon="10.1461890">
	<ele>1915.00</ele>
	<time>2024-09-06T07:57:49.000Z</time>
</trkpt>
<trkpt lat="46.1296090" lon="10.1461750">
	<ele>1915.00</ele>
	<time>2024-09-06T07:57:50.000Z</time>
</trkpt>
<trkpt lat="46.1295930" lon="10.1461480">
	<ele>1915.00</ele>
	<time>2024-09-06T07:57:51.000Z</time>
</trkpt>
<trkpt lat="46.1295960" lon="10.1461430">
	<ele>1915.00</ele>
	<time>2024-09-06T07:57:52.000Z</time>
</trkpt>
<trkpt lat="46.1295920" lon="10.1461310">
	<ele>1915.00</ele>
	<time>2024-09-06T07:57:53.000Z</time>
</trkpt>
<trkpt lat="46.1295960" lon="10.1461110">
	<ele>1915.00</ele>
	<time>2024-09-06T07:57:54.000Z</time>
</trkpt>
<trkpt lat="46.1295980" lon="10.1460940">
	<ele>1915.00</ele>
	<time>2024-09-06T07:57:55.000Z</time>
</trkpt>
<trkpt lat="46.1295950" lon="10.1460730">
	<ele>1915.00</ele>
	<time>2024-09-06T07:57:56.000Z</time>
</trkpt>
<trkpt lat="46.1295960" lon="10.1460920">
	<ele>1915.00</ele>
	<time>2024-09-06T07:57:57.000Z</time>
</trkpt>
<trkpt lat="46.1295980" lon="10.1460940">
	<ele>1915.00</ele>
	<time>2024-09-06T07:57:58.000Z</time>
</trkpt>
<trkpt lat="46.1296070" lon="10.1461230">
	<ele>1915.00</ele>
	<time>2024-09-06T07:57:59.000Z</time>
</trkpt>
<trkpt lat="46.1296130" lon="10.1461380">
	<ele>1915.00</ele>
	<time>2024-09-06T07:58:00.000Z</time>
</trkpt>
<trkpt lat="46.1296180" lon="10.1461420">
	<ele>1914.80</ele>
	<time>2024-09-06T07:58:01.000Z</time>
</trkpt>
<trkpt lat="46.1296180" lon="10.1461490">
	<ele>1914.80</ele>
	<time>2024-09-06T07:58:02.000Z</time>
</trkpt>
<trkpt lat="46.1296200" lon="10.1461700">
	<ele>1915.00</ele>
	<time>2024-09-06T07:58:03.000Z</time>
</trkpt>
<trkpt lat="46.1296230" lon="10.1461740">
	<ele>1915.40</ele>
	<time>2024-09-06T07:58:04.000Z</time>
</trkpt>
<trkpt lat="46.1296200" lon="10.1461780">
	<ele>1915.40</ele>
	<time>2024-09-06T07:58:05.000Z</time>
</trkpt>
<trkpt lat="46.1296190" lon="10.1461880">
	<ele>1915.40</ele>
	<time>2024-09-06T07:58:06.000Z</time>
</trkpt>
<trkpt lat="46.1296130" lon="10.1462040">
	<ele>1915.40</ele>
	<time>2024-09-06T07:58:07.000Z</time>
</trkpt>
<trkpt lat="46.1296140" lon="10.1462070">
	<ele>1915.40</ele>
	<time>2024-09-06T07:58:08.000Z</time>
</trkpt>
<trkpt lat="46.1296100" lon="10.1462200">
	<ele>1915.40</ele>
	<time>2024-09-06T07:58:09.000Z</time>
</trkpt>
<trkpt lat="46.1296050" lon="10.1462300">
	<ele>1915.40</ele>
	<time>2024-09-06T07:58:10.000Z</time>
</trkpt>
<trkpt lat="46.1296010" lon="10.1462380">
	<ele>1915.40</ele>
	<time>2024-09-06T07:58:11.000Z</time>
</trkpt>
<trkpt lat="46.1296010" lon="10.1462400">
	<ele>1915.40</ele>
	<time>2024-09-06T07:58:12.000Z</time>
</trkpt>
<trkpt lat="46.1295970" lon="10.1462440">
	<ele>1915.40</ele>
	<time>2024-09-06T07:58:13.000Z</time>
</trkpt>
<trkpt lat="46.1295920" lon="10.1462530">
	<ele>1915.40</ele>
	<time>2024-09-06T07:58:14.000Z</time>
</trkpt>
<trkpt lat="46.1295900" lon="10.1462590">
	<ele>1915.40</ele>
	<time>2024-09-06T07:58:15.000Z</time>
</trkpt>
<trkpt lat="46.1295800" lon="10.1462790">
	<ele>1915.40</ele>
	<time>2024-09-06T07:58:16.000Z</time>
</trkpt>
<trkpt lat="46.1295620" lon="10.1463040">
	<ele>1915.40</ele>
	<time>2024-09-06T07:58:17.000Z</time>
</trkpt>
<trkpt lat="46.1295520" lon="10.1463340">
	<ele>1915.40</ele>
	<time>2024-09-06T07:58:18.000Z</time>
</trkpt>
<trkpt lat="46.1295460" lon="10.1463420">
	<ele>1915.40</ele>
	<time>2024-09-06T07:58:19.000Z</time>
</trkpt>
<trkpt lat="46.1295260" lon="10.1463400">
	<ele>1915.40</ele>
	<time>2024-09-06T07:58:21.000Z</time>
</trkpt>
<trkpt lat="46.1295110" lon="10.1463510">
	<ele>1915.40</ele>
	<time>2024-09-06T07:58:22.000Z</time>
</trkpt>
<trkpt lat="46.1295080" lon="10.1463320">
	<ele>1915.40</ele>
	<time>2024-09-06T07:58:23.000Z</time>
</trkpt>
<trkpt lat="46.1295030" lon="10.1463250">
	<ele>1915.40</ele>
	<time>2024-09-06T07:58:24.000Z</time>
</trkpt>
<trkpt lat="46.1294950" lon="10.1463430">
	<ele>1915.40</ele>
	<time>2024-09-06T07:58:25.000Z</time>
</trkpt>
<trkpt lat="46.1295050" lon="10.1463460">
	<ele>1915.40</ele>
	<time>2024-09-06T07:58:26.000Z</time>
</trkpt>
<trkpt lat="46.1295000" lon="10.1463560">
	<ele>1915.40</ele>
	<time>2024-09-06T07:58:27.000Z</time>
</trkpt>
<trkpt lat="46.1295090" lon="10.1463620">
	<ele>1915.40</ele>
	<time>2024-09-06T07:58:28.000Z</time>
</trkpt>
<trkpt lat="46.1295210" lon="10.1463840">
	<ele>1915.40</ele>
	<time>2024-09-06T07:58:30.000Z</time>
</trkpt>
<trkpt lat="46.1295210" lon="10.1463810">
	<ele>1915.40</ele>
	<time>2024-09-06T07:58:31.000Z</time>
</trkpt>
<trkpt lat="46.1295200" lon="10.1463540">
	<ele>1915.40</ele>
	<time>2024-09-06T07:58:33.000Z</time>
</trkpt>
<trkpt lat="46.1295240" lon="10.1463580">
	<ele>1915.40</ele>
	<time>2024-09-06T07:58:34.000Z</time>
</trkpt>
<trkpt lat="46.1295330" lon="10.1463430">
	<ele>1915.40</ele>
	<time>2024-09-06T07:58:35.000Z</time>
</trkpt>
<trkpt lat="46.1295290" lon="10.1463350">
	<ele>1915.40</ele>
	<time>2024-09-06T07:58:36.000Z</time>
</trkpt>
<trkpt lat="46.1295290" lon="10.1463330">
	<ele>1915.40</ele>
	<time>2024-09-06T07:58:37.000Z</time>
</trkpt>
<trkpt lat="46.1295260" lon="10.1463320">
	<ele>1915.40</ele>
	<time>2024-09-06T07:58:38.000Z</time>
</trkpt>
<trkpt lat="46.1295120" lon="10.1462570">
	<ele>1915.40</ele>
	<time>2024-09-06T07:58:42.000Z</time>
</trkpt>
<trkpt lat="46.1294510" lon="10.1463990">
	<ele>1915.40</ele>
	<time>2024-09-06T07:58:43.000Z</time>
</trkpt>
<trkpt lat="46.1294250" lon="10.1463220">
	<ele>1915.40</ele>
	<time>2024-09-06T07:58:44.000Z</time>
</trkpt>
<trkpt lat="46.1293970" lon="10.1461660">
	<ele>1915.40</ele>
	<time>2024-09-06T07:58:45.000Z</time>
</trkpt>
<trkpt lat="46.1293900" lon="10.1461570">
	<ele>1915.40</ele>
	<time>2024-09-06T07:58:46.000Z</time>
</trkpt>
<trkpt lat="46.1293850" lon="10.1461290">
	<ele>1915.40</ele>
	<time>2024-09-06T07:58:47.000Z</time>
</trkpt>
<trkpt lat="46.1293780" lon="10.1460910">
	<ele>1915.40</ele>
	<time>2024-09-06T07:58:48.000Z</time>
</trkpt>
<trkpt lat="46.1293650" lon="10.1460770">
	<ele>1915.40</ele>
	<time>2024-09-06T07:58:49.000Z</time>
</trkpt>
<trkpt lat="46.1293570" lon="10.1460830">
	<ele>1915.40</ele>
	<time>2024-09-06T07:58:50.000Z</time>
</trkpt>
<trkpt lat="46.1293590" lon="10.1460960">
	<ele>1915.40</ele>
	<time>2024-09-06T07:58:51.000Z</time>
</trkpt>
<trkpt lat="46.1293770" lon="10.1461020">
	<ele>1915.40</ele>
	<time>2024-09-06T07:58:52.000Z</time>
</trkpt>
<trkpt lat="46.1293870" lon="10.1461150">
	<ele>1915.40</ele>
	<time>2024-09-06T07:58:53.000Z</time>
</trkpt>
<trkpt lat="46.1293900" lon="10.1461140">
	<ele>1915.40</ele>
	<time>2024-09-06T07:58:54.000Z</time>
</trkpt>
<trkpt lat="46.1293940" lon="10.1461230">
	<ele>1915.40</ele>
	<time>2024-09-06T07:58:55.000Z</time>
</trkpt>
<trkpt lat="46.1293960" lon="10.1461300">
	<ele>1915.40</ele>
	<time>2024-09-06T07:58:56.000Z</time>
</trkpt>
<trkpt lat="46.1293930" lon="10.1461450">
	<ele>1915.40</ele>
	<time>2024-09-06T07:58:57.000Z</time>
</trkpt>
<trkpt lat="46.1293990" lon="10.1461560">
	<ele>1915.40</ele>
	<time>2024-09-06T07:58:58.000Z</time>
</trkpt>
<trkpt lat="46.1294000" lon="10.1461510">
	<ele>1915.40</ele>
	<time>2024-09-06T07:58:59.000Z</time>
</trkpt>
<trkpt lat="46.1294020" lon="10.1461490">
	<ele>1915.40</ele>
	<time>2024-09-06T07:59:00.000Z</time>
</trkpt>
<trkpt lat="46.1294130" lon="10.1461510">
	<ele>1915.40</ele>
	<time>2024-09-06T07:59:01.000Z</time>
</trkpt>
<trkpt lat="46.1294300" lon="10.1461570">
	<ele>1915.40</ele>
	<time>2024-09-06T07:59:02.000Z</time>
</trkpt>
<trkpt lat="46.1294290" lon="10.1461590">
	<ele>1915.40</ele>
	<time>2024-09-06T07:59:03.000Z</time>
</trkpt>
<trkpt lat="46.1294310" lon="10.1461500">
	<ele>1915.40</ele>
	<time>2024-09-06T07:59:04.000Z</time>
</trkpt>
<trkpt lat="46.1294270" lon="10.1461470">
	<ele>1915.40</ele>
	<time>2024-09-06T07:59:05.000Z</time>
</trkpt>
<trkpt lat="46.1294450" lon="10.1461300">
	<ele>1915.40</ele>
	<time>2024-09-06T07:59:06.000Z</time>
</trkpt>
<trkpt lat="46.1294460" lon="10.1461260">
	<ele>1915.40</ele>
	<time>2024-09-06T07:59:07.000Z</time>
</trkpt>
<trkpt lat="46.1294470" lon="10.1461190">
	<ele>1915.40</ele>
	<time>2024-09-06T07:59:08.000Z</time>
</trkpt>
<trkpt lat="46.1294530" lon="10.1461090">
	<ele>1915.40</ele>
	<time>2024-09-06T07:59:09.000Z</time>
</trkpt>
<trkpt lat="46.1294650" lon="10.1461060">
	<ele>1915.40</ele>
	<time>2024-09-06T07:59:10.000Z</time>
</trkpt>
<trkpt lat="46.1294770" lon="10.1461070">
	<ele>1915.40</ele>
	<time>2024-09-06T07:59:11.000Z</time>
</trkpt>
<trkpt lat="46.1294860" lon="10.1461120">
	<ele>1915.40</ele>
	<time>2024-09-06T07:59:12.000Z</time>
</trkpt>
<trkpt lat="46.1294860" lon="10.1461160">
	<ele>1915.40</ele>
	<time>2024-09-06T07:59:13.000Z</time>
</trkpt>
<trkpt lat="46.1294930" lon="10.1461200">
	<ele>1915.40</ele>
	<time>2024-09-06T07:59:14.000Z</time>
</trkpt>
<trkpt lat="46.1294970" lon="10.1461290">
	<ele>1915.40</ele>
	<time>2024-09-06T07:59:15.000Z</time>
</trkpt>
<trkpt lat="46.1295020" lon="10.1461420">
	<ele>1915.40</ele>
	<time>2024-09-06T07:59:16.000Z</time>
</trkpt>
<trkpt lat="46.1295080" lon="10.1461630">
	<ele>1915.40</ele>
	<time>2024-09-06T07:59:17.000Z</time>
</trkpt>
<trkpt lat="46.1294860" lon="10.1461390">
	<ele>1915.40</ele>
	<time>2024-09-06T07:59:18.000Z</time>
</trkpt>
<trkpt lat="46.1294770" lon="10.1461390">
	<ele>1915.40</ele>
	<time>2024-09-06T07:59:19.000Z</time>
</trkpt>
<trkpt lat="46.1294630" lon="10.1461400">
	<ele>1915.40</ele>
	<time>2024-09-06T07:59:20.000Z</time>
</trkpt>
<trkpt lat="46.1294500" lon="10.1461270">
	<ele>1915.40</ele>
	<time>2024-09-06T07:59:21.000Z</time>
</trkpt>
<trkpt lat="46.1294480" lon="10.1461170">
	<ele>1915.40</ele>
	<time>2024-09-06T07:59:22.000Z</time>
</trkpt>
<trkpt lat="46.1294640" lon="10.1461130">
	<ele>1915.40</ele>
	<time>2024-09-06T07:59:23.000Z</time>
</trkpt>
<trkpt lat="46.1294680" lon="10.1461200">
	<ele>1915.40</ele>
	<time>2024-09-06T07:59:24.000Z</time>
</trkpt>
<trkpt lat="46.1294840" lon="10.1461220">
	<ele>1915.40</ele>
	<time>2024-09-06T07:59:25.000Z</time>
</trkpt>
<trkpt lat="46.1294910" lon="10.1461150">
	<ele>1915.40</ele>
	<time>2024-09-06T07:59:26.000Z</time>
</trkpt>
<trkpt lat="46.1295150" lon="10.1461110">
	<ele>1915.40</ele>
	<time>2024-09-06T07:59:27.000Z</time>
</trkpt>
<trkpt lat="46.1295230" lon="10.1461070">
	<ele>1915.40</ele>
	<time>2024-09-06T07:59:28.000Z</time>
</trkpt>
<trkpt lat="46.1295350" lon="10.1461030">
	<ele>1915.40</ele>
	<time>2024-09-06T07:59:29.000Z</time>
</trkpt>
<trkpt lat="46.1295530" lon="10.1461020">
	<ele>1915.40</ele>
	<time>2024-09-06T07:59:30.000Z</time>
</trkpt>
<trkpt lat="46.1295670" lon="10.1461020">
	<ele>1915.40</ele>
	<time>2024-09-06T07:59:31.000Z</time>
</trkpt>
<trkpt lat="46.1295880" lon="10.1461030">
	<ele>1915.40</ele>
	<time>2024-09-06T07:59:32.000Z</time>
</trkpt>
<trkpt lat="46.1296230" lon="10.1461160">
	<ele>1915.40</ele>
	<time>2024-09-06T07:59:33.000Z</time>
</trkpt>
<trkpt lat="46.1296510" lon="10.1461280">
	<ele>1915.40</ele>
	<time>2024-09-06T07:59:34.000Z</time>
</trkpt>
<trkpt lat="46.1296620" lon="10.1461620">
	<ele>1915.40</ele>
	<time>2024-09-06T07:59:35.000Z</time>
</trkpt>
<trkpt lat="46.1296680" lon="10.1461740">
	<ele>1915.40</ele>
	<time>2024-09-06T07:59:36.000Z</time>
</trkpt>
<trkpt lat="46.1296730" lon="10.1461810">
	<ele>1915.40</ele>
	<time>2024-09-06T07:59:37.000Z</time>
</trkpt>
<trkpt lat="46.1296710" lon="10.1461790">
	<ele>1915.40</ele>
	<time>2024-09-06T07:59:38.000Z</time>
</trkpt>
<trkpt lat="46.1296770" lon="10.1461760">
	<ele>1915.40</ele>
	<time>2024-09-06T07:59:39.000Z</time>
</trkpt>
<trkpt lat="46.1296790" lon="10.1461740">
	<ele>1915.40</ele>
	<time>2024-09-06T07:59:40.000Z</time>
</trkpt>
<trkpt lat="46.1296830" lon="10.1461780">
	<ele>1915.40</ele>
	<time>2024-09-06T07:59:41.000Z</time>
</trkpt>
<trkpt lat="46.1296920" lon="10.1461750">
	<ele>1915.40</ele>
	<time>2024-09-06T07:59:42.000Z</time>
</trkpt>
<trkpt lat="46.1296780" lon="10.1461550">
	<ele>1915.40</ele>
	<time>2024-09-06T07:59:43.000Z</time>
</trkpt>
<trkpt lat="46.1296690" lon="10.1461360">
	<ele>1915.40</ele>
	<time>2024-09-06T07:59:44.000Z</time>
</trkpt>
<trkpt lat="46.1296540" lon="10.1461160">
	<ele>1915.40</ele>
	<time>2024-09-06T07:59:45.000Z</time>
</trkpt>
<trkpt lat="46.1296450" lon="10.1460990">
	<ele>1915.40</ele>
	<time>2024-09-06T07:59:46.000Z</time>
</trkpt>
<trkpt lat="46.1296410" lon="10.1460910">
	<ele>1915.40</ele>
	<time>2024-09-06T07:59:47.000Z</time>
</trkpt>
<trkpt lat="46.1296400" lon="10.1460900">
	<ele>1915.40</ele>
	<time>2024-09-06T07:59:48.000Z</time>
</trkpt>
<trkpt lat="46.1296380" lon="10.1460870">
	<ele>1915.40</ele>
	<time>2024-09-06T07:59:49.000Z</time>
</trkpt>
<trkpt lat="46.1296380" lon="10.1460860">
	<ele>1915.40</ele>
	<time>2024-09-06T07:59:50.000Z</time>
</trkpt>
<trkpt lat="46.1296380" lon="10.1460860">
	<ele>1915.40</ele>
	<time>2024-09-06T07:59:51.000Z</time>
</trkpt>
<trkpt lat="46.1296380" lon="10.1460860">
	<ele>1915.40</ele>
	<time>2024-09-06T07:59:52.000Z</time>
</trkpt>
<trkpt lat="46.1296380" lon="10.1460860">
	<ele>1915.40</ele>
	<time>2024-09-06T07:59:53.000Z</time>
</trkpt>
<trkpt lat="46.1296380" lon="10.1460860">
	<ele>1915.40</ele>
	<time>2024-09-06T07:59:54.000Z</time>
</trkpt>
<trkpt lat="46.1296380" lon="10.1460860">
	<ele>1915.40</ele>
	<time>2024-09-06T07:59:55.000Z</time>
</trkpt>
<trkpt lat="46.1296380" lon="10.1460860">
	<ele>1915.40</ele>
	<time>2024-09-06T07:59:56.000Z</time>
</trkpt>
<trkpt lat="46.1296380" lon="10.1460860">
	<ele>1915.40</ele>
	<time>2024-09-06T07:59:57.000Z</time>
</trkpt>
<trkpt lat="46.1296380" lon="10.1460860">
	<ele>1915.40</ele>
	<time>2024-09-06T07:59:58.000Z</time>
</trkpt>
<trkpt lat="46.1296380" lon="10.1460860">
	<ele>1915.40</ele>
	<time>2024-09-06T07:59:59.000Z</time>
</trkpt>
<trkpt lat="46.1296380" lon="10.1460860">
	<ele>1915.40</ele>
	<time>2024-09-06T08:00:00.000Z</time>
</trkpt>
<trkpt lat="46.1296380" lon="10.1460860">
	<ele>1915.40</ele>
	<time>2024-09-06T08:00:01.000Z</time>
</trkpt>
<trkpt lat="46.1296380" lon="10.1460860">
	<ele>1915.40</ele>
	<time>2024-09-06T08:00:02.000Z</time>
</trkpt>
<trkpt lat="46.1296380" lon="10.1460860">
	<ele>1915.40</ele>
	<time>2024-09-06T08:00:03.000Z</time>
</trkpt>
<trkpt lat="46.1296380" lon="10.1460860">
	<ele>1915.40</ele>
	<time>2024-09-06T08:00:04.000Z</time>
</trkpt>
<trkpt lat="46.1296380" lon="10.1460860">
	<ele>1915.40</ele>
	<time>2024-09-06T08:00:05.000Z</time>
</trkpt>
<trkpt lat="46.1296320" lon="10.1460680">
	<ele>1915.40</ele>
	<time>2024-09-06T08:00:06.000Z</time>
</trkpt>
<trkpt lat="46.1296200" lon="10.1460440">
	<ele>1915.40</ele>
	<time>2024-09-06T08:00:07.000Z</time>
</trkpt>
<trkpt lat="46.1296190" lon="10.1460300">
	<ele>1915.40</ele>
	<time>2024-09-06T08:00:08.000Z</time>
</trkpt>
<trkpt lat="46.1296180" lon="10.1460280">
	<ele>1915.40</ele>
	<time>2024-09-06T08:00:09.000Z</time>
</trkpt>
<trkpt lat="46.1296180" lon="10.1460280">
	<ele>1915.40</ele>
	<time>2024-09-06T08:00:10.000Z</time>
</trkpt>
<trkpt lat="46.1296180" lon="10.1460270">
	<ele>1915.40</ele>
	<time>2024-09-06T08:00:11.000Z</time>
</trkpt>
<trkpt lat="46.1296180" lon="10.1460260">
	<ele>1915.40</ele>
	<time>2024-09-06T08:00:12.000Z</time>
</trkpt>
<trkpt lat="46.1296180" lon="10.1460240">
	<ele>1915.40</ele>
	<time>2024-09-06T08:00:13.000Z</time>
</trkpt>
<trkpt lat="46.1296180" lon="10.1460210">
	<ele>1915.40</ele>
	<time>2024-09-06T08:00:14.000Z</time>
</trkpt>
<trkpt lat="46.1296180" lon="10.1460210">
	<ele>1915.40</ele>
	<time>2024-09-06T08:00:15.000Z</time>
</trkpt>
<trkpt lat="46.1296180" lon="10.1460190">
	<ele>1915.40</ele>
	<time>2024-09-06T08:00:16.000Z</time>
</trkpt>
<trkpt lat="46.1296170" lon="10.1460190">
	<ele>1915.40</ele>
	<time>2024-09-06T08:00:17.000Z</time>
</trkpt>
<trkpt lat="46.1296170" lon="10.1460190">
	<ele>1915.40</ele>
	<time>2024-09-06T08:00:18.000Z</time>
</trkpt>
<trkpt lat="46.1296170" lon="10.1460180">
	<ele>1915.40</ele>
	<time>2024-09-06T08:00:19.000Z</time>
</trkpt>
<trkpt lat="46.1296160" lon="10.1460180">
	<ele>1915.40</ele>
	<time>2024-09-06T08:00:20.000Z</time>
</trkpt>
<trkpt lat="46.1296160" lon="10.1460180">
	<ele>1915.40</ele>
	<time>2024-09-06T08:00:21.000Z</time>
</trkpt>
<trkpt lat="46.1296160" lon="10.1460180">
	<ele>1915.40</ele>
	<time>2024-09-06T08:00:22.000Z</time>
</trkpt>
<trkpt lat="46.1296160" lon="10.1460180">
	<ele>1915.40</ele>
	<time>2024-09-06T08:00:23.000Z</time>
</trkpt>
<trkpt lat="46.1296160" lon="10.1460170">
	<ele>1915.40</ele>
	<time>2024-09-06T08:00:24.000Z</time>
</trkpt>
<trkpt lat="46.1296160" lon="10.1460170">
	<ele>1915.40</ele>
	<time>2024-09-06T08:00:25.000Z</time>
</trkpt>
<trkpt lat="46.1296160" lon="10.1460170">
	<ele>1915.40</ele>
	<time>2024-09-06T08:00:26.000Z</time>
</trkpt>
<trkpt lat="46.1296170" lon="10.1460150">
	<ele>1915.40</ele>
	<time>2024-09-06T08:00:27.000Z</time>
</trkpt>
<trkpt lat="46.1296170" lon="10.1460140">
	<ele>1915.40</ele>
	<time>2024-09-06T08:00:28.000Z</time>
</trkpt>
<trkpt lat="46.1296170" lon="10.1460130">
	<ele>1915.40</ele>
	<time>2024-09-06T08:00:29.000Z</time>
</trkpt>
<trkpt lat="46.1296170" lon="10.1460130">
	<ele>1915.40</ele>
	<time>2024-09-06T08:00:30.000Z</time>
</trkpt>
<trkpt lat="46.1296180" lon="10.1460130">
	<ele>1915.40</ele>
	<time>2024-09-06T08:00:31.000Z</time>
</trkpt>
<trkpt lat="46.1296180" lon="10.1460120">
	<ele>1915.40</ele>
	<time>2024-09-06T08:00:32.000Z</time>
</trkpt>
<trkpt lat="46.1296180" lon="10.1460110">
	<ele>1915.40</ele>
	<time>2024-09-06T08:00:33.000Z</time>
</trkpt>
<trkpt lat="46.1296180" lon="10.1460110">
	<ele>1915.40</ele>
	<time>2024-09-06T08:00:34.000Z</time>
</trkpt>
<trkpt lat="46.1296180" lon="10.1460100">
	<ele>1915.40</ele>
	<time>2024-09-06T08:00:35.000Z</time>
</trkpt>
<trkpt lat="46.1296180" lon="10.1460090">
	<ele>1915.40</ele>
	<time>2024-09-06T08:00:36.000Z</time>
</trkpt>
<trkpt lat="46.1296180" lon="10.1460090">
	<ele>1915.40</ele>
	<time>2024-09-06T08:00:37.000Z</time>
</trkpt>
<trkpt lat="46.1296190" lon="10.1460090">
	<ele>1915.40</ele>
	<time>2024-09-06T08:00:38.000Z</time>
</trkpt>
<trkpt lat="46.1296190" lon="10.1460090">
	<ele>1915.40</ele>
	<time>2024-09-06T08:00:39.000Z</time>
</trkpt>
<trkpt lat="46.1296180" lon="10.1460080">
	<ele>1915.40</ele>
	<time>2024-09-06T08:00:40.000Z</time>
</trkpt>
<trkpt lat="46.1296180" lon="10.1460020">
	<ele>1915.40</ele>
	<time>2024-09-06T08:00:41.000Z</time>
</trkpt>
<trkpt lat="46.1296190" lon="10.1459910">
	<ele>1915.40</ele>
	<time>2024-09-06T08:00:42.000Z</time>
</trkpt>
<trkpt lat="46.1296200" lon="10.1459830">
	<ele>1915.40</ele>
	<time>2024-09-06T08:00:43.000Z</time>
</trkpt>
<trkpt lat="46.1296250" lon="10.1459760">
	<ele>1915.40</ele>
	<time>2024-09-06T08:00:44.000Z</time>
</trkpt>
<trkpt lat="46.1296310" lon="10.1459690">
	<ele>1915.40</ele>
	<time>2024-09-06T08:00:45.000Z</time>
</trkpt>
<trkpt lat="46.1296350" lon="10.1459570">
	<ele>1915.40</ele>
	<time>2024-09-06T08:00:46.000Z</time>
</trkpt>
<trkpt lat="46.1296420" lon="10.1459550">
	<ele>1915.40</ele>
	<time>2024-09-06T08:00:47.000Z</time>
</trkpt>
<trkpt lat="46.1296520" lon="10.1459550">
	<ele>1915.40</ele>
	<time>2024-09-06T08:00:48.000Z</time>
</trkpt>
<trkpt lat="46.1296600" lon="10.1459530">
	<ele>1915.40</ele>
	<time>2024-09-06T08:00:49.000Z</time>
</trkpt>
<trkpt lat="46.1296650" lon="10.1459470">
	<ele>1915.40</ele>
	<time>2024-09-06T08:00:50.000Z</time>
</trkpt>
<trkpt lat="46.1296680" lon="10.1459490">
	<ele>1915.40</ele>
	<time>2024-09-06T08:00:51.000Z</time>
</trkpt>
<trkpt lat="46.1296710" lon="10.1459480">
	<ele>1915.40</ele>
	<time>2024-09-06T08:00:52.000Z</time>
</trkpt>
<trkpt lat="46.1296720" lon="10.1459490">
	<ele>1915.40</ele>
	<time>2024-09-06T08:00:53.000Z</time>
</trkpt>
<trkpt lat="46.1296730" lon="10.1459490">
	<ele>1915.40</ele>
	<time>2024-09-06T08:00:54.000Z</time>
</trkpt>
<trkpt lat="46.1296740" lon="10.1459480">
	<ele>1915.40</ele>
	<time>2024-09-06T08:00:55.000Z</time>
</trkpt>
<trkpt lat="46.1296730" lon="10.1459500">
	<ele>1915.40</ele>
	<time>2024-09-06T08:00:56.000Z</time>
</trkpt>
<trkpt lat="46.1296690" lon="10.1459490">
	<ele>1915.40</ele>
	<time>2024-09-06T08:00:57.000Z</time>
</trkpt>
<trkpt lat="46.1296610" lon="10.1459500">
	<ele>1915.40</ele>
	<time>2024-09-06T08:00:58.000Z</time>
</trkpt>
<trkpt lat="46.1296520" lon="10.1459540">
	<ele>1915.40</ele>
	<time>2024-09-06T08:00:59.000Z</time>
</trkpt>
<trkpt lat="46.1296480" lon="10.1459610">
	<ele>1915.40</ele>
	<time>2024-09-06T08:01:00.000Z</time>
</trkpt>
<trkpt lat="46.1296420" lon="10.1459650">
	<ele>1915.40</ele>
	<time>2024-09-06T08:01:01.000Z</time>
</trkpt>
<trkpt lat="46.1296380" lon="10.1459680">
	<ele>1915.40</ele>
	<time>2024-09-06T08:01:02.000Z</time>
</trkpt>
<trkpt lat="46.1296330" lon="10.1459660">
	<ele>1915.40</ele>
	<time>2024-09-06T08:01:03.000Z</time>
</trkpt>
<trkpt lat="46.1296300" lon="10.1459670">
	<ele>1915.40</ele>
	<time>2024-09-06T08:01:04.000Z</time>
</trkpt>
<trkpt lat="46.1296280" lon="10.1459670">
	<ele>1915.40</ele>
	<time>2024-09-06T08:01:05.000Z</time>
</trkpt>
<trkpt lat="46.1296270" lon="10.1459670">
	<ele>1915.40</ele>
	<time>2024-09-06T08:01:06.000Z</time>
</trkpt>
<trkpt lat="46.1296270" lon="10.1459670">
	<ele>1915.40</ele>
	<time>2024-09-06T08:01:07.000Z</time>
</trkpt>
<trkpt lat="46.1296270" lon="10.1459670">
	<ele>1915.40</ele>
	<time>2024-09-06T08:01:08.000Z</time>
</trkpt>
<trkpt lat="46.1296270" lon="10.1459670">
	<ele>1915.40</ele>
	<time>2024-09-06T08:01:09.000Z</time>
</trkpt>
<trkpt lat="46.1296270" lon="10.1459670">
	<ele>1915.40</ele>
	<time>2024-09-06T08:01:10.000Z</time>
</trkpt>
<trkpt lat="46.1296270" lon="10.1459670">
	<ele>1915.40</ele>
	<time>2024-09-06T08:01:11.000Z</time>
</trkpt>
<trkpt lat="46.1296270" lon="10.1459670">
	<ele>1915.40</ele>
	<time>2024-09-06T08:01:12.000Z</time>
</trkpt>
<trkpt lat="46.1296270" lon="10.1459670">
	<ele>1915.40</ele>
	<time>2024-09-06T08:01:13.000Z</time>
</trkpt>
<trkpt lat="46.1296270" lon="10.1459670">
	<ele>1915.40</ele>
	<time>2024-09-06T08:01:14.000Z</time>
</trkpt>
<trkpt lat="46.1296270" lon="10.1459670">
	<ele>1915.40</ele>
	<time>2024-09-06T08:01:15.000Z</time>
</trkpt>
<trkpt lat="46.1296270" lon="10.1459670">
	<ele>1915.40</ele>
	<time>2024-09-06T08:01:16.000Z</time>
</trkpt>
<trkpt lat="46.1296270" lon="10.1459670">
	<ele>1915.40</ele>
	<time>2024-09-06T08:01:17.000Z</time>
</trkpt>
<trkpt lat="46.1296270" lon="10.1459670">
	<ele>1915.40</ele>
	<time>2024-09-06T08:01:18.000Z</time>
</trkpt>
<trkpt lat="46.1296270" lon="10.1459670">
	<ele>1915.40</ele>
	<time>2024-09-06T08:01:19.000Z</time>
</trkpt>
<trkpt lat="46.1296270" lon="10.1459670">
	<ele>1915.40</ele>
	<time>2024-09-06T08:01:20.000Z</time>
</trkpt>
<trkpt lat="46.1296270" lon="10.1459670">
	<ele>1915.40</ele>
	<time>2024-09-06T08:01:21.000Z</time>
</trkpt>
<trkpt lat="46.1296270" lon="10.1459670">
	<ele>1915.40</ele>
	<time>2024-09-06T08:01:22.000Z</time>
</trkpt>
<trkpt lat="46.1296270" lon="10.1459660">
	<ele>1915.40</ele>
	<time>2024-09-06T08:01:23.000Z</time>
</trkpt>
<trkpt lat="46.1296270" lon="10.1459660">
	<ele>1915.40</ele>
	<time>2024-09-06T08:01:24.000Z</time>
</trkpt>
<trkpt lat="46.1296260" lon="10.1459650">
	<ele>1915.40</ele>
	<time>2024-09-06T08:01:25.000Z</time>
</trkpt>
<trkpt lat="46.1296260" lon="10.1459630">
	<ele>1915.40</ele>
	<time>2024-09-06T08:01:26.000Z</time>
</trkpt>
<trkpt lat="46.1296260" lon="10.1459620">
	<ele>1915.40</ele>
	<time>2024-09-06T08:01:27.000Z</time>
</trkpt>
<trkpt lat="46.1296260" lon="10.1459620">
	<ele>1915.40</ele>
	<time>2024-09-06T08:01:28.000Z</time>
</trkpt>
<trkpt lat="46.1296290" lon="10.1459640">
	<ele>1915.40</ele>
	<time>2024-09-06T08:01:29.000Z</time>
</trkpt>
<trkpt lat="46.1296390" lon="10.1459700">
	<ele>1915.40</ele>
	<time>2024-09-06T08:01:30.000Z</time>
</trkpt>
<trkpt lat="46.1296480" lon="10.1459790">
	<ele>1915.40</ele>
	<time>2024-09-06T08:01:31.000Z</time>
</trkpt>
<trkpt lat="46.1296530" lon="10.1459860">
	<ele>1915.40</ele>
	<time>2024-09-06T08:01:32.000Z</time>
</trkpt>
<trkpt lat="46.1296550" lon="10.1459950">
	<ele>1915.40</ele>
	<time>2024-09-06T08:01:33.000Z</time>
</trkpt>
<trkpt lat="46.1296550" lon="10.1460050">
	<ele>1915.40</ele>
	<time>2024-09-06T08:01:34.000Z</time>
</trkpt>
<trkpt lat="46.1296590" lon="10.1460120">
	<ele>1915.40</ele>
	<time>2024-09-06T08:01:35.000Z</time>
</trkpt>
<trkpt lat="46.1296620" lon="10.1460170">
	<ele>1915.40</ele>
	<time>2024-09-06T08:01:36.000Z</time>
</trkpt>
<trkpt lat="46.1296640" lon="10.1460200">
	<ele>1915.40</ele>
	<time>2024-09-06T08:01:37.000Z</time>
</trkpt>
<trkpt lat="46.1296650" lon="10.1460230">
	<ele>1915.40</ele>
	<time>2024-09-06T08:01:38.000Z</time>
</trkpt>
<trkpt lat="46.1296630" lon="10.1460220">
	<ele>1915.40</ele>
	<time>2024-09-06T08:01:39.000Z</time>
</trkpt>
<trkpt lat="46.1296620" lon="10.1460170">
	<ele>1915.40</ele>
	<time>2024-09-06T08:01:40.000Z</time>
</trkpt>
<trkpt lat="46.1296610" lon="10.1460150">
	<ele>1915.40</ele>
	<time>2024-09-06T08:01:41.000Z</time>
</trkpt>
<trkpt lat="46.1296600" lon="10.1460150">
	<ele>1915.40</ele>
	<time>2024-09-06T08:01:42.000Z</time>
</trkpt>
<trkpt lat="46.1296600" lon="10.1460160">
	<ele>1915.40</ele>
	<time>2024-09-06T08:01:43.000Z</time>
</trkpt>
<trkpt lat="46.1296600" lon="10.1460160">
	<ele>1915.40</ele>
	<time>2024-09-06T08:01:44.000Z</time>
</trkpt>
<trkpt lat="46.1296580" lon="10.1460160">
	<ele>1915.40</ele>
	<time>2024-09-06T08:01:45.000Z</time>
</trkpt>
<trkpt lat="46.1296490" lon="10.1460160">
	<ele>1915.40</ele>
	<time>2024-09-06T08:01:46.000Z</time>
</trkpt>
<trkpt lat="46.1296380" lon="10.1460150">
	<ele>1915.40</ele>
	<time>2024-09-06T08:01:47.000Z</time>
</trkpt>
<trkpt lat="46.1296280" lon="10.1460180">
	<ele>1915.40</ele>
	<time>2024-09-06T08:01:48.000Z</time>
</trkpt>
<trkpt lat="46.1296170" lon="10.1460170">
	<ele>1915.40</ele>
	<time>2024-09-06T08:01:49.000Z</time>
</trkpt>
<trkpt lat="46.1296070" lon="10.1460180">
	<ele>1915.40</ele>
	<time>2024-09-06T08:01:50.000Z</time>
</trkpt>
<trkpt lat="46.1295950" lon="10.1460270">
	<ele>1915.40</ele>
	<time>2024-09-06T08:01:51.000Z</time>
</trkpt>
<trkpt lat="46.1295830" lon="10.1460310">
	<ele>1915.40</ele>
	<time>2024-09-06T08:01:52.000Z</time>
</trkpt>
<trkpt lat="46.1295690" lon="10.1460360">
	<ele>1915.40</ele>
	<time>2024-09-06T08:01:53.000Z</time>
</trkpt>
<trkpt lat="46.1295610" lon="10.1460410">
	<ele>1915.40</ele>
	<time>2024-09-06T08:01:54.000Z</time>
</trkpt>
<trkpt lat="46.1295490" lon="10.1460470">
	<ele>1915.40</ele>
	<time>2024-09-06T08:01:55.000Z</time>
</trkpt>
<trkpt lat="46.1295380" lon="10.1460630">
	<ele>1915.40</ele>
	<time>2024-09-06T08:01:56.000Z</time>
</trkpt>
<trkpt lat="46.1295280" lon="10.1460790">
	<ele>1915.40</ele>
	<time>2024-09-06T08:01:57.000Z</time>
</trkpt>
<trkpt lat="46.1295210" lon="10.1460960">
	<ele>1915.60</ele>
	<time>2024-09-06T08:01:58.000Z</time>
</trkpt>
<trkpt lat="46.1295150" lon="10.1461120">
	<ele>1915.60</ele>
	<time>2024-09-06T08:01:59.000Z</time>
</trkpt>
<trkpt lat="46.1295080" lon="10.1461330">
	<ele>1915.60</ele>
	<time>2024-09-06T08:02:00.000Z</time>
</trkpt>
<trkpt lat="46.1295050" lon="10.1461520">
	<ele>1915.80</ele>
	<time>2024-09-06T08:02:01.000Z</time>
</trkpt>
<trkpt lat="46.1294970" lon="10.1461670">
	<ele>1915.80</ele>
	<time>2024-09-06T08:02:02.000Z</time>
</trkpt>
<trkpt lat="46.1294950" lon="10.1461850">
	<ele>1915.80</ele>
	<time>2024-09-06T08:02:03.000Z</time>
</trkpt>
<trkpt lat="46.1294930" lon="10.1462040">
	<ele>1915.80</ele>
	<time>2024-09-06T08:02:04.000Z</time>
</trkpt>
<trkpt lat="46.1294930" lon="10.1462230">
	<ele>1915.80</ele>
	<time>2024-09-06T08:02:05.000Z</time>
</trkpt>
<trkpt lat="46.1294980" lon="10.1462410">
	<ele>1915.80</ele>
	<time>2024-09-06T08:02:06.000Z</time>
</trkpt>
<trkpt lat="46.1295020" lon="10.1462530">
	<ele>1915.80</ele>
	<time>2024-09-06T08:02:07.000Z</time>
</trkpt>
<trkpt lat="46.1295050" lon="10.1462680">
	<ele>1915.80</ele>
	<time>2024-09-06T08:02:08.000Z</time>
</trkpt>
<trkpt lat="46.1295120" lon="10.1462810">
	<ele>1915.80</ele>
	<time>2024-09-06T08:02:09.000Z</time>
</trkpt>
<trkpt lat="46.1295180" lon="10.1462980">
	<ele>1915.80</ele>
	<time>2024-09-06T08:02:10.000Z</time>
</trkpt>
<trkpt lat="46.1295220" lon="10.1463130">
	<ele>1915.80</ele>
	<time>2024-09-06T08:02:11.000Z</time>
</trkpt>
<trkpt lat="46.1295240" lon="10.1463260">
	<ele>1915.60</ele>
	<time>2024-09-06T08:02:12.000Z</time>
</trkpt>
<trkpt lat="46.1295310" lon="10.1463360">
	<ele>1915.40</ele>
	<time>2024-09-06T08:02:13.000Z</time>
</trkpt>
<trkpt lat="46.1295380" lon="10.1463470">
	<ele>1915.40</ele>
	<time>2024-09-06T08:02:14.000Z</time>
</trkpt>
<trkpt lat="46.1295480" lon="10.1463590">
	<ele>1915.40</ele>
	<time>2024-09-06T08:02:15.000Z</time>
</trkpt>
<trkpt lat="46.1295560" lon="10.1463730">
	<ele>1915.40</ele>
	<time>2024-09-06T08:02:16.000Z</time>
</trkpt>
<trkpt lat="46.1295630" lon="10.1463820">
	<ele>1915.40</ele>
	<time>2024-09-06T08:02:17.000Z</time>
</trkpt>
<trkpt lat="46.1295700" lon="10.1463930">
	<ele>1915.60</ele>
	<time>2024-09-06T08:02:18.000Z</time>
</trkpt>
<trkpt lat="46.1295770" lon="10.1463970">
	<ele>1915.60</ele>
	<time>2024-09-06T08:02:19.000Z</time>
</trkpt>
<trkpt lat="46.1295840" lon="10.1464050">
	<ele>1915.60</ele>
	<time>2024-09-06T08:02:20.000Z</time>
</trkpt>
<trkpt lat="46.1295880" lon="10.1464160">
	<ele>1915.60</ele>
	<time>2024-09-06T08:02:21.000Z</time>
</trkpt>
<trkpt lat="46.1295940" lon="10.1464270">
	<ele>1915.60</ele>
	<time>2024-09-06T08:02:22.000Z</time>
</trkpt>
<trkpt lat="46.1295950" lon="10.1464380">
	<ele>1915.80</ele>
	<time>2024-09-06T08:02:23.000Z</time>
</trkpt>
<trkpt lat="46.1295920" lon="10.1464460">
	<ele>1915.80</ele>
	<time>2024-09-06T08:02:24.000Z</time>
</trkpt>
<trkpt lat="46.1295890" lon="10.1464500">
	<ele>1916.00</ele>
	<time>2024-09-06T08:02:25.000Z</time>
</trkpt>
<trkpt lat="46.1295850" lon="10.1464540">
	<ele>1916.00</ele>
	<time>2024-09-06T08:02:26.000Z</time>
</trkpt>
<trkpt lat="46.1295810" lon="10.1464620">
	<ele>1916.20</ele>
	<time>2024-09-06T08:02:27.000Z</time>
</trkpt>
<trkpt lat="46.1295790" lon="10.1464710">
	<ele>1916.40</ele>
	<time>2024-09-06T08:02:28.000Z</time>
</trkpt>
<trkpt lat="46.1295780" lon="10.1464830">
	<ele>1916.60</ele>
	<time>2024-09-06T08:02:29.000Z</time>
</trkpt>
<trkpt lat="46.1295770" lon="10.1464920">
	<ele>1916.80</ele>
	<time>2024-09-06T08:02:30.000Z</time>
</trkpt>
<trkpt lat="46.1295740" lon="10.1465040">
	<ele>1916.80</ele>
	<time>2024-09-06T08:02:31.000Z</time>
</trkpt>
<trkpt lat="46.1295700" lon="10.1465120">
	<ele>1917.20</ele>
	<time>2024-09-06T08:02:32.000Z</time>
</trkpt>
<trkpt lat="46.1295670" lon="10.1465180">
	<ele>1917.60</ele>
	<time>2024-09-06T08:02:33.000Z</time>
</trkpt>
<trkpt lat="46.1295630" lon="10.1465290">
	<ele>1917.80</ele>
	<time>2024-09-06T08:02:34.000Z</time>
</trkpt>
<trkpt lat="46.1295590" lon="10.1465410">
	<ele>1918.00</ele>
	<time>2024-09-06T08:02:35.000Z</time>
</trkpt>
<trkpt lat="46.1295560" lon="10.1465520">
	<ele>1918.20</ele>
	<time>2024-09-06T08:02:36.000Z</time>
</trkpt>
<trkpt lat="46.1295490" lon="10.1465630">
	<ele>1918.40</ele>
	<time>2024-09-06T08:02:37.000Z</time>
</trkpt>
<trkpt lat="46.1295450" lon="10.1465700">
	<ele>1918.40</ele>
	<time>2024-09-06T08:02:38.000Z</time>
</trkpt>
<trkpt lat="46.1295440" lon="10.1465810">
	<ele>1918.60</ele>
	<time>2024-09-06T08:02:39.000Z</time>
</trkpt>
<trkpt lat="46.1295420" lon="10.1465930">
	<ele>1918.80</ele>
	<time>2024-09-06T08:02:40.000Z</time>
</trkpt>
<trkpt lat="46.1295380" lon="10.1466070">
	<ele>1918.80</ele>
	<time>2024-09-06T08:02:41.000Z</time>
</trkpt>
<trkpt lat="46.1295330" lon="10.1466180">
	<ele>1919.00</ele>
	<time>2024-09-06T08:02:42.000Z</time>
</trkpt>
<trkpt lat="46.1295270" lon="10.1466290">
	<ele>1919.00</ele>
	<time>2024-09-06T08:02:43.000Z</time>
</trkpt>
<trkpt lat="46.1295230" lon="10.1466420">
	<ele>1919.20</ele>
	<time>2024-09-06T08:02:44.000Z</time>
</trkpt>
<trkpt lat="46.1295230" lon="10.1466530">
	<ele>1919.40</ele>
	<time>2024-09-06T08:02:45.000Z</time>
</trkpt>
<trkpt lat="46.1295210" lon="10.1466680">
	<ele>1919.60</ele>
	<time>2024-09-06T08:02:46.000Z</time>
</trkpt>
<trkpt lat="46.1295180" lon="10.1466850">
	<ele>1919.80</ele>
	<time>2024-09-06T08:02:47.000Z</time>
</trkpt>
<trkpt lat="46.1295150" lon="10.1467010">
	<ele>1919.80</ele>
	<time>2024-09-06T08:02:48.000Z</time>
</trkpt>
<trkpt lat="46.1295110" lon="10.1467170">
	<ele>1920.00</ele>
	<time>2024-09-06T08:02:49.000Z</time>
</trkpt>
<trkpt lat="46.1295070" lon="10.1467270">
	<ele>1920.00</ele>
	<time>2024-09-06T08:02:50.000Z</time>
</trkpt>
<trkpt lat="46.1295030" lon="10.1467420">
	<ele>1920.20</ele>
	<time>2024-09-06T08:02:51.000Z</time>
</trkpt>
<trkpt lat="46.1295000" lon="10.1467560">
	<ele>1920.40</ele>
	<time>2024-09-06T08:02:52.000Z</time>
</trkpt>
<trkpt lat="46.1294980" lon="10.1467720">
	<ele>1920.40</ele>
	<time>2024-09-06T08:02:53.000Z</time>
</trkpt>
<trkpt lat="46.1294930" lon="10.1467850">
	<ele>1920.60</ele>
	<time>2024-09-06T08:02:54.000Z</time>
</trkpt>
<trkpt lat="46.1294860" lon="10.1467940">
	<ele>1920.60</ele>
	<time>2024-09-06T08:02:55.000Z</time>
</trkpt>
<trkpt lat="46.1294800" lon="10.1468050">
	<ele>1920.80</ele>
	<time>2024-09-06T08:02:56.000Z</time>
</trkpt>
<trkpt lat="46.1294760" lon="10.1468150">
	<ele>1920.80</ele>
	<time>2024-09-06T08:02:57.000Z</time>
</trkpt>
<trkpt lat="46.1294720" lon="10.1468320">
	<ele>1920.80</ele>
	<time>2024-09-06T08:02:58.000Z</time>
</trkpt>
<trkpt lat="46.1294690" lon="10.1468520">
	<ele>1921.00</ele>
	<time>2024-09-06T08:02:59.000Z</time>
</trkpt>
<trkpt lat="46.1294660" lon="10.1468700">
	<ele>1921.00</ele>
	<time>2024-09-06T08:03:00.000Z</time>
</trkpt>
<trkpt lat="46.1294590" lon="10.1468840">
	<ele>1921.00</ele>
	<time>2024-09-06T08:03:01.000Z</time>
</trkpt>
<trkpt lat="46.1294540" lon="10.1468950">
	<ele>1921.20</ele>
	<time>2024-09-06T08:03:02.000Z</time>
</trkpt>
<trkpt lat="46.1294500" lon="10.1469040">
	<ele>1921.40</ele>
	<time>2024-09-06T08:03:03.000Z</time>
</trkpt>
<trkpt lat="46.1294460" lon="10.1469170">
	<ele>1921.40</ele>
	<time>2024-09-06T08:03:04.000Z</time>
</trkpt>
<trkpt lat="46.1294420" lon="10.1469270">
	<ele>1921.60</ele>
	<time>2024-09-06T08:03:05.000Z</time>
</trkpt>
<trkpt lat="46.1294410" lon="10.1469440">
	<ele>1921.80</ele>
	<time>2024-09-06T08:03:06.000Z</time>
</trkpt>
<trkpt lat="46.1294340" lon="10.1469640">
	<ele>1922.00</ele>
	<time>2024-09-06T08:03:07.000Z</time>
</trkpt>
<trkpt lat="46.1294200" lon="10.1469840">
	<ele>1922.00</ele>
	<time>2024-09-06T08:03:08.000Z</time>
</trkpt>
<trkpt lat="46.1294130" lon="10.1470030">
	<ele>1922.20</ele>
	<time>2024-09-06T08:03:09.000Z</time>
</trkpt>
<trkpt lat="46.1294050" lon="10.1470210">
	<ele>1922.20</ele>
	<time>2024-09-06T08:03:10.000Z</time>
</trkpt>
<trkpt lat="46.1293960" lon="10.1470340">
	<ele>1922.20</ele>
	<time>2024-09-06T08:03:11.000Z</time>
</trkpt>
<trkpt lat="46.1293940" lon="10.1470490">
	<ele>1922.20</ele>
	<time>2024-09-06T08:03:12.000Z</time>
</trkpt>
<trkpt lat="46.1293870" lon="10.1470680">
	<ele>1922.20</ele>
	<time>2024-09-06T08:03:13.000Z</time>
</trkpt>
<trkpt lat="46.1293830" lon="10.1470820">
	<ele>1922.20</ele>
	<time>2024-09-06T08:03:14.000Z</time>
</trkpt>
<trkpt lat="46.1293810" lon="10.1470980">
	<ele>1922.40</ele>
	<time>2024-09-06T08:03:15.000Z</time>
</trkpt>
<trkpt lat="46.1293760" lon="10.1471160">
	<ele>1922.40</ele>
	<time>2024-09-06T08:03:16.000Z</time>
</trkpt>
<trkpt lat="46.1293690" lon="10.1471350">
	<ele>1922.40</ele>
	<time>2024-09-06T08:03:17.000Z</time>
</trkpt>
<trkpt lat="46.1293540" lon="10.1471500">
	<ele>1922.40</ele>
	<time>2024-09-06T08:03:18.000Z</time>
</trkpt>
<trkpt lat="46.1293470" lon="10.1471590">
	<ele>1922.40</ele>
	<time>2024-09-06T08:03:19.000Z</time>
</trkpt>
<trkpt lat="46.1293420" lon="10.1471740">
	<ele>1922.40</ele>
	<time>2024-09-06T08:03:20.000Z</time>
</trkpt>
<trkpt lat="46.1293420" lon="10.1471870">
	<ele>1922.40</ele>
	<time>2024-09-06T08:03:21.000Z</time>
</trkpt>
<trkpt lat="46.1293410" lon="10.1471990">
	<ele>1922.40</ele>
	<time>2024-09-06T08:03:22.000Z</time>
</trkpt>
<trkpt lat="46.1293400" lon="10.1472170">
	<ele>1922.40</ele>
	<time>2024-09-06T08:03:23.000Z</time>
</trkpt>
<trkpt lat="46.1293400" lon="10.1472360">
	<ele>1922.40</ele>
	<time>2024-09-06T08:03:24.000Z</time>
</trkpt>
<trkpt lat="46.1293350" lon="10.1472570">
	<ele>1922.60</ele>
	<time>2024-09-06T08:03:25.000Z</time>
</trkpt>
<trkpt lat="46.1293350" lon="10.1472680">
	<ele>1922.60</ele>
	<time>2024-09-06T08:03:26.000Z</time>
</trkpt>
<trkpt lat="46.1293340" lon="10.1472820">
	<ele>1922.60</ele>
	<time>2024-09-06T08:03:27.000Z</time>
</trkpt>
<trkpt lat="46.1293310" lon="10.1472950">
	<ele>1922.60</ele>
	<time>2024-09-06T08:03:28.000Z</time>
</trkpt>
<trkpt lat="46.1293270" lon="10.1473110">
	<ele>1922.60</ele>
	<time>2024-09-06T08:03:29.000Z</time>
</trkpt>
<trkpt lat="46.1293210" lon="10.1473290">
	<ele>1922.60</ele>
	<time>2024-09-06T08:03:30.000Z</time>
</trkpt>
<trkpt lat="46.1293090" lon="10.1473400">
	<ele>1922.80</ele>
	<time>2024-09-06T08:03:31.000Z</time>
</trkpt>
<trkpt lat="46.1293050" lon="10.1473520">
	<ele>1922.80</ele>
	<time>2024-09-06T08:03:32.000Z</time>
</trkpt>
<trkpt lat="46.1293010" lon="10.1473630">
	<ele>1922.80</ele>
	<time>2024-09-06T08:03:33.000Z</time>
</trkpt>
<trkpt lat="46.1293080" lon="10.1473790">
	<ele>1923.00</ele>
	<time>2024-09-06T08:03:34.000Z</time>
</trkpt>
<trkpt lat="46.1293070" lon="10.1473850">
	<ele>1923.00</ele>
	<time>2024-09-06T08:03:35.000Z</time>
</trkpt>
<trkpt lat="46.1293020" lon="10.1474000">
	<ele>1923.00</ele>
	<time>2024-09-06T08:03:36.000Z</time>
</trkpt>
<trkpt lat="46.1293000" lon="10.1474140">
	<ele>1923.20</ele>
	<time>2024-09-06T08:03:37.000Z</time>
</trkpt>
<trkpt lat="46.1292940" lon="10.1474330">
	<ele>1923.20</ele>
	<time>2024-09-06T08:03:38.000Z</time>
</trkpt>
<trkpt lat="46.1292910" lon="10.1474500">
	<ele>1923.20</ele>
	<time>2024-09-06T08:03:39.000Z</time>
</trkpt>
<trkpt lat="46.1292880" lon="10.1474620">
	<ele>1923.40</ele>
	<time>2024-09-06T08:03:40.000Z</time>
</trkpt>
<trkpt lat="46.1292840" lon="10.1474810">
	<ele>1923.40</ele>
	<time>2024-09-06T08:03:41.000Z</time>
</trkpt>
<trkpt lat="46.1292810" lon="10.1475000">
	<ele>1923.60</ele>
	<time>2024-09-06T08:03:42.000Z</time>
</trkpt>
<trkpt lat="46.1292770" lon="10.1475170">
	<ele>1923.60</ele>
	<time>2024-09-06T08:03:43.000Z</time>
</trkpt>
<trkpt lat="46.1292800" lon="10.1475320">
	<ele>1923.60</ele>
	<time>2024-09-06T08:03:44.000Z</time>
</trkpt>
<trkpt lat="46.1292780" lon="10.1475500">
	<ele>1923.80</ele>
	<time>2024-09-06T08:03:45.000Z</time>
</trkpt>
<trkpt lat="46.1292730" lon="10.1475690">
	<ele>1923.80</ele>
	<time>2024-09-06T08:03:46.000Z</time>
</trkpt>
<trkpt lat="46.1292680" lon="10.1475860">
	<ele>1923.80</ele>
	<time>2024-09-06T08:03:47.000Z</time>
</trkpt>
<trkpt lat="46.1292620" lon="10.1476050">
	<ele>1924.00</ele>
	<time>2024-09-06T08:03:48.000Z</time>
</trkpt>
<trkpt lat="46.1292560" lon="10.1476240">
	<ele>1924.00</ele>
	<time>2024-09-06T08:03:49.000Z</time>
</trkpt>
<trkpt lat="46.1292500" lon="10.1476430">
	<ele>1924.20</ele>
	<time>2024-09-06T08:03:50.000Z</time>
</trkpt>
<trkpt lat="46.1292430" lon="10.1476610">
	<ele>1924.40</ele>
	<time>2024-09-06T08:03:51.000Z</time>
</trkpt>
<trkpt lat="46.1292460" lon="10.1476790">
	<ele>1924.40</ele>
	<time>2024-09-06T08:03:52.000Z</time>
</trkpt>
<trkpt lat="46.1292510" lon="10.1476970">
	<ele>1924.60</ele>
	<time>2024-09-06T08:03:53.000Z</time>
</trkpt>
<trkpt lat="46.1292530" lon="10.1477140">
	<ele>1924.60</ele>
	<time>2024-09-06T08:03:54.000Z</time>
</trkpt>
<trkpt lat="46.1292510" lon="10.1477300">
	<ele>1924.60</ele>
	<time>2024-09-06T08:03:55.000Z</time>
</trkpt>
<trkpt lat="46.1292510" lon="10.1477620">
	<ele>1924.60</ele>
	<time>2024-09-06T08:03:56.000Z</time>
</trkpt>
<trkpt lat="46.1292500" lon="10.1477780">
	<ele>1924.60</ele>
	<time>2024-09-06T08:03:57.000Z</time>
</trkpt>
<trkpt lat="46.1292450" lon="10.1477880">
	<ele>1924.80</ele>
	<time>2024-09-06T08:03:58.000Z</time>
</trkpt>
<trkpt lat="46.1292440" lon="10.1478050">
	<ele>1925.00</ele>
	<time>2024-09-06T08:03:59.000Z</time>
</trkpt>
<trkpt lat="46.1292500" lon="10.1478200">
	<ele>1925.00</ele>
	<time>2024-09-06T08:04:00.000Z</time>
</trkpt>
<trkpt lat="46.1292510" lon="10.1478280">
	<ele>1925.20</ele>
	<time>2024-09-06T08:04:01.000Z</time>
</trkpt>
<trkpt lat="46.1292530" lon="10.1478450">
	<ele>1925.20</ele>
	<time>2024-09-06T08:04:02.000Z</time>
</trkpt>
<trkpt lat="46.1292510" lon="10.1478620">
	<ele>1925.20</ele>
	<time>2024-09-06T08:04:03.000Z</time>
</trkpt>
<trkpt lat="46.1292470" lon="10.1478820">
	<ele>1925.20</ele>
	<time>2024-09-06T08:04:04.000Z</time>
</trkpt>
<trkpt lat="46.1292430" lon="10.1478970">
	<ele>1925.40</ele>
	<time>2024-09-06T08:04:05.000Z</time>
</trkpt>
<trkpt lat="46.1292370" lon="10.1479080">
	<ele>1925.40</ele>
	<time>2024-09-06T08:04:06.000Z</time>
</trkpt>
<trkpt lat="46.1292330" lon="10.1479210">
	<ele>1925.60</ele>
	<time>2024-09-06T08:04:07.000Z</time>
</trkpt>
<trkpt lat="46.1292320" lon="10.1479310">
	<ele>1925.60</ele>
	<time>2024-09-06T08:04:08.000Z</time>
</trkpt>
<trkpt lat="46.1292320" lon="10.1479460">
	<ele>1925.80</ele>
	<time>2024-09-06T08:04:09.000Z</time>
</trkpt>
<trkpt lat="46.1292260" lon="10.1479700">
	<ele>1926.00</ele>
	<time>2024-09-06T08:04:10.000Z</time>
</trkpt>
<trkpt lat="46.1292220" lon="10.1479830">
	<ele>1926.20</ele>
	<time>2024-09-06T08:04:11.000Z</time>
</trkpt>
<trkpt lat="46.1292200" lon="10.1480010">
	<ele>1926.40</ele>
	<time>2024-09-06T08:04:12.000Z</time>
</trkpt>
<trkpt lat="46.1292200" lon="10.1480200">
	<ele>1926.40</ele>
	<time>2024-09-06T08:04:13.000Z</time>
</trkpt>
<trkpt lat="46.1292230" lon="10.1480310">
	<ele>1926.60</ele>
	<time>2024-09-06T08:04:14.000Z</time>
</trkpt>
<trkpt lat="46.1292210" lon="10.1480520">
	<ele>1926.60</ele>
	<time>2024-09-06T08:04:15.000Z</time>
</trkpt>
<trkpt lat="46.1292190" lon="10.1480720">
	<ele>1926.80</ele>
	<time>2024-09-06T08:04:16.000Z</time>
</trkpt>
<trkpt lat="46.1292160" lon="10.1480890">
	<ele>1926.80</ele>
	<time>2024-09-06T08:04:17.000Z</time>
</trkpt>
<trkpt lat="46.1292140" lon="10.1481100">
	<ele>1926.80</ele>
	<time>2024-09-06T08:04:18.000Z</time>
</trkpt>
<trkpt lat="46.1292120" lon="10.1481300">
	<ele>1927.00</ele>
	<time>2024-09-06T08:04:19.000Z</time>
</trkpt>
<trkpt lat="46.1292090" lon="10.1481450">
	<ele>1927.00</ele>
	<time>2024-09-06T08:04:20.000Z</time>
</trkpt>
<trkpt lat="46.1292070" lon="10.1481630">
	<ele>1927.20</ele>
	<time>2024-09-06T08:04:21.000Z</time>
</trkpt>
<trkpt lat="46.1292040" lon="10.1481790">
	<ele>1927.20</ele>
	<time>2024-09-06T08:04:22.000Z</time>
</trkpt>
<trkpt lat="46.1291980" lon="10.1481970">
	<ele>1927.40</ele>
	<time>2024-09-06T08:04:23.000Z</time>
</trkpt>
<trkpt lat="46.1291940" lon="10.1482160">
	<ele>1927.40</ele>
	<time>2024-09-06T08:04:24.000Z</time>
</trkpt>
<trkpt lat="46.1291950" lon="10.1482380">
	<ele>1927.40</ele>
	<time>2024-09-06T08:04:25.000Z</time>
</trkpt>
<trkpt lat="46.1291930" lon="10.1482620">
	<ele>1927.40</ele>
	<time>2024-09-06T08:04:26.000Z</time>
</trkpt>
<trkpt lat="46.1291930" lon="10.1482820">
	<ele>1927.60</ele>
	<time>2024-09-06T08:04:27.000Z</time>
</trkpt>
<trkpt lat="46.1292000" lon="10.1482980">
	<ele>1927.80</ele>
	<time>2024-09-06T08:04:28.000Z</time>
</trkpt>
<trkpt lat="46.1292030" lon="10.1483190">
	<ele>1927.80</ele>
	<time>2024-09-06T08:04:29.000Z</time>
</trkpt>
<trkpt lat="46.1292070" lon="10.1483310">
	<ele>1928.00</ele>
	<time>2024-09-06T08:04:30.000Z</time>
</trkpt>
<trkpt lat="46.1292130" lon="10.1483390">
	<ele>1928.00</ele>
	<time>2024-09-06T08:04:31.000Z</time>
</trkpt>
<trkpt lat="46.1292170" lon="10.1483500">
	<ele>1928.20</ele>
	<time>2024-09-06T08:04:32.000Z</time>
</trkpt>
<trkpt lat="46.1292180" lon="10.1483720">
	<ele>1928.40</ele>
	<time>2024-09-06T08:04:33.000Z</time>
</trkpt>
<trkpt lat="46.1292150" lon="10.1483980">
	<ele>1928.60</ele>
	<time>2024-09-06T08:04:34.000Z</time>
</trkpt>
<trkpt lat="46.1292160" lon="10.1484150">
	<ele>1928.60</ele>
	<time>2024-09-06T08:04:35.000Z</time>
</trkpt>
<trkpt lat="46.1292200" lon="10.1484350">
	<ele>1928.60</ele>
	<time>2024-09-06T08:04:36.000Z</time>
</trkpt>
<trkpt lat="46.1292220" lon="10.1484550">
	<ele>1928.80</ele>
	<time>2024-09-06T08:04:37.000Z</time>
</trkpt>
<trkpt lat="46.1292230" lon="10.1484740">
	<ele>1928.80</ele>
	<time>2024-09-06T08:04:38.000Z</time>
</trkpt>
<trkpt lat="46.1292210" lon="10.1484980">
	<ele>1928.80</ele>
	<time>2024-09-06T08:04:39.000Z</time>
</trkpt>
<trkpt lat="46.1292220" lon="10.1485090">
	<ele>1928.80</ele>
	<time>2024-09-06T08:04:40.000Z</time>
</trkpt>
<trkpt lat="46.1292280" lon="10.1485310">
	<ele>1929.00</ele>
	<time>2024-09-06T08:04:41.000Z</time>
</trkpt>
<trkpt lat="46.1292330" lon="10.1485470">
	<ele>1929.00</ele>
	<time>2024-09-06T08:04:42.000Z</time>
</trkpt>
<trkpt lat="46.1292380" lon="10.1485590">
	<ele>1929.20</ele>
	<time>2024-09-06T08:04:43.000Z</time>
</trkpt>
<trkpt lat="46.1292430" lon="10.1485710">
	<ele>1929.20</ele>
	<time>2024-09-06T08:04:44.000Z</time>
</trkpt>
<trkpt lat="46.1292450" lon="10.1485900">
	<ele>1929.20</ele>
	<time>2024-09-06T08:04:45.000Z</time>
</trkpt>
<trkpt lat="46.1292440" lon="10.1486070">
	<ele>1929.40</ele>
	<time>2024-09-06T08:04:46.000Z</time>
</trkpt>
<trkpt lat="46.1292460" lon="10.1486250">
	<ele>1929.40</ele>
	<time>2024-09-06T08:04:47.000Z</time>
</trkpt>
<trkpt lat="46.1292460" lon="10.1486450">
	<ele>1929.40</ele>
	<time>2024-09-06T08:04:48.000Z</time>
</trkpt>
<trkpt lat="46.1292480" lon="10.1486630">
	<ele>1929.60</ele>
	<time>2024-09-06T08:04:49.000Z</time>
</trkpt>
<trkpt lat="46.1292460" lon="10.1486800">
	<ele>1929.60</ele>
	<time>2024-09-06T08:04:50.000Z</time>
</trkpt>
<trkpt lat="46.1292440" lon="10.1486930">
	<ele>1929.80</ele>
	<time>2024-09-06T08:04:51.000Z</time>
</trkpt>
<trkpt lat="46.1292420" lon="10.1487060">
	<ele>1929.80</ele>
	<time>2024-09-06T08:04:52.000Z</time>
</trkpt>
<trkpt lat="46.1292390" lon="10.1487230">
	<ele>1929.80</ele>
	<time>2024-09-06T08:04:53.000Z</time>
</trkpt>
<trkpt lat="46.1292360" lon="10.1487390">
	<ele>1929.80</ele>
	<time>2024-09-06T08:04:54.000Z</time>
</trkpt>
<trkpt lat="46.1292320" lon="10.1487560">
	<ele>1929.80</ele>
	<time>2024-09-06T08:04:55.000Z</time>
</trkpt>
<trkpt lat="46.1292240" lon="10.1487780">
	<ele>1929.80</ele>
	<time>2024-09-06T08:04:56.000Z</time>
</trkpt>
<trkpt lat="46.1292140" lon="10.1487930">
	<ele>1929.80</ele>
	<time>2024-09-06T08:04:57.000Z</time>
</trkpt>
<trkpt lat="46.1292070" lon="10.1488100">
	<ele>1929.80</ele>
	<time>2024-09-06T08:04:58.000Z</time>
</trkpt>
<trkpt lat="46.1292040" lon="10.1488270">
	<ele>1929.80</ele>
	<time>2024-09-06T08:04:59.000Z</time>
</trkpt>
<trkpt lat="46.1292000" lon="10.1488370">
	<ele>1929.80</ele>
	<time>2024-09-06T08:05:00.000Z</time>
</trkpt>
<trkpt lat="46.1291910" lon="10.1488520">
	<ele>1929.80</ele>
	<time>2024-09-06T08:05:01.000Z</time>
</trkpt>
<trkpt lat="46.1291830" lon="10.1488710">
	<ele>1929.80</ele>
	<time>2024-09-06T08:05:02.000Z</time>
</trkpt>
<trkpt lat="46.1291740" lon="10.1488820">
	<ele>1929.80</ele>
	<time>2024-09-06T08:05:03.000Z</time>
</trkpt>
<trkpt lat="46.1291690" lon="10.1488950">
	<ele>1929.80</ele>
	<time>2024-09-06T08:05:04.000Z</time>
</trkpt>
<trkpt lat="46.1291620" lon="10.1489100">
	<ele>1929.80</ele>
	<time>2024-09-06T08:05:05.000Z</time>
</trkpt>
<trkpt lat="46.1291580" lon="10.1489250">
	<ele>1930.00</ele>
	<time>2024-09-06T08:05:06.000Z</time>
</trkpt>
<trkpt lat="46.1291550" lon="10.1489430">
	<ele>1930.00</ele>
	<time>2024-09-06T08:05:07.000Z</time>
</trkpt>
<trkpt lat="46.1291480" lon="10.1489570">
	<ele>1930.00</ele>
	<time>2024-09-06T08:05:08.000Z</time>
</trkpt>
<trkpt lat="46.1291430" lon="10.1489790">
	<ele>1930.20</ele>
	<time>2024-09-06T08:05:09.000Z</time>
</trkpt>
<trkpt lat="46.1291410" lon="10.1489960">
	<ele>1930.40</ele>
	<time>2024-09-06T08:05:10.000Z</time>
</trkpt>
<trkpt lat="46.1291400" lon="10.1490060">
	<ele>1930.60</ele>
	<time>2024-09-06T08:05:11.000Z</time>
</trkpt>
<trkpt lat="46.1291390" lon="10.1490140">
	<ele>1930.60</ele>
	<time>2024-09-06T08:05:12.000Z</time>
</trkpt>
<trkpt lat="46.1291330" lon="10.1490240">
	<ele>1930.80</ele>
	<time>2024-09-06T08:05:13.000Z</time>
</trkpt>
<trkpt lat="46.1291220" lon="10.1490380">
	<ele>1930.80</ele>
	<time>2024-09-06T08:05:14.000Z</time>
</trkpt>
<trkpt lat="46.1291130" lon="10.1490510">
	<ele>1930.80</ele>
	<time>2024-09-06T08:05:15.000Z</time>
</trkpt>
<trkpt lat="46.1291070" lon="10.1490540">
	<ele>1930.80</ele>
	<time>2024-09-06T08:05:16.000Z</time>
</trkpt>
<trkpt lat="46.1290940" lon="10.1490700">
	<ele>1930.80</ele>
	<time>2024-09-06T08:05:17.000Z</time>
</trkpt>
<trkpt lat="46.1290880" lon="10.1490830">
	<ele>1930.80</ele>
	<time>2024-09-06T08:05:18.000Z</time>
</trkpt>
<trkpt lat="46.1290830" lon="10.1490990">
	<ele>1931.00</ele>
	<time>2024-09-06T08:05:19.000Z</time>
</trkpt>
<trkpt lat="46.1290790" lon="10.1491200">
	<ele>1931.20</ele>
	<time>2024-09-06T08:05:20.000Z</time>
</trkpt>
<trkpt lat="46.1290730" lon="10.1491380">
	<ele>1931.20</ele>
	<time>2024-09-06T08:05:21.000Z</time>
</trkpt>
<trkpt lat="46.1290640" lon="10.1491480">
	<ele>1931.20</ele>
	<time>2024-09-06T08:05:22.000Z</time>
</trkpt>
<trkpt lat="46.1290610" lon="10.1491610">
	<ele>1931.20</ele>
	<time>2024-09-06T08:05:23.000Z</time>
</trkpt>
<trkpt lat="46.1290540" lon="10.1491640">
	<ele>1931.20</ele>
	<time>2024-09-06T08:05:24.000Z</time>
</trkpt>
<trkpt lat="46.1290450" lon="10.1491660">
	<ele>1931.40</ele>
	<time>2024-09-06T08:05:25.000Z</time>
</trkpt>
<trkpt lat="46.1290350" lon="10.1491740">
	<ele>1931.40</ele>
	<time>2024-09-06T08:05:26.000Z</time>
</trkpt>
<trkpt lat="46.1290320" lon="10.1491860">
	<ele>1931.20</ele>
	<time>2024-09-06T08:05:27.000Z</time>
</trkpt>
<trkpt lat="46.1290240" lon="10.1491980">
	<ele>1931.20</ele>
	<time>2024-09-06T08:05:28.000Z</time>
</trkpt>
<trkpt lat="46.1290130" lon="10.1492120">
	<ele>1931.40</ele>
	<time>2024-09-06T08:05:29.000Z</time>
</trkpt>
<trkpt lat="46.1290010" lon="10.1492260">
	<ele>1931.40</ele>
	<time>2024-09-06T08:05:30.000Z</time>
</trkpt>
<trkpt lat="46.1289900" lon="10.1492440">
	<ele>1931.40</ele>
	<time>2024-09-06T08:05:31.000Z</time>
</trkpt>
<trkpt lat="46.1289820" lon="10.1492590">
	<ele>1931.60</ele>
	<time>2024-09-06T08:05:32.000Z</time>
</trkpt>
<trkpt lat="46.1289720" lon="10.1492690">
	<ele>1931.60</ele>
	<time>2024-09-06T08:05:33.000Z</time>
</trkpt>
<trkpt lat="46.1289670" lon="10.1492810">
	<ele>1931.40</ele>
	<time>2024-09-06T08:05:34.000Z</time>
</trkpt>
<trkpt lat="46.1289640" lon="10.1493010">
	<ele>1931.40</ele>
	<time>2024-09-06T08:05:35.000Z</time>
</trkpt>
<trkpt lat="46.1289610" lon="10.1493240">
	<ele>1931.40</ele>
	<time>2024-09-06T08:05:36.000Z</time>
</trkpt>
<trkpt lat="46.1289560" lon="10.1493440">
	<ele>1931.20</ele>
	<time>2024-09-06T08:05:37.000Z</time>
</trkpt>
<trkpt lat="46.1289520" lon="10.1493650">
	<ele>1931.20</ele>
	<time>2024-09-06T08:05:38.000Z</time>
</trkpt>
<trkpt lat="46.1289460" lon="10.1493880">
	<ele>1931.40</ele>
	<time>2024-09-06T08:05:39.000Z</time>
</trkpt>
<trkpt lat="46.1289430" lon="10.1494100">
	<ele>1931.40</ele>
	<time>2024-09-06T08:05:40.000Z</time>
</trkpt>
<trkpt lat="46.1289370" lon="10.1494280">
	<ele>1931.40</ele>
	<time>2024-09-06T08:05:41.000Z</time>
</trkpt>
<trkpt lat="46.1289310" lon="10.1494430">
	<ele>1931.40</ele>
	<time>2024-09-06T08:05:42.000Z</time>
</trkpt>
<trkpt lat="46.1289250" lon="10.1494570">
	<ele>1931.60</ele>
	<time>2024-09-06T08:05:43.000Z</time>
</trkpt>
<trkpt lat="46.1289170" lon="10.1494760">
	<ele>1931.60</ele>
	<time>2024-09-06T08:05:44.000Z</time>
</trkpt>
<trkpt lat="46.1289150" lon="10.1494940">
	<ele>1931.60</ele>
	<time>2024-09-06T08:05:45.000Z</time>
</trkpt>
<trkpt lat="46.1289150" lon="10.1495120">
	<ele>1931.80</ele>
	<time>2024-09-06T08:05:46.000Z</time>
</trkpt>
<trkpt lat="46.1289160" lon="10.1495320">
	<ele>1932.00</ele>
	<time>2024-09-06T08:05:47.000Z</time>
</trkpt>
<trkpt lat="46.1289080" lon="10.1495440">
	<ele>1932.20</ele>
	<time>2024-09-06T08:05:48.000Z</time>
</trkpt>
<trkpt lat="46.1289000" lon="10.1495570">
	<ele>1932.40</ele>
	<time>2024-09-06T08:05:49.000Z</time>
</trkpt>
<trkpt lat="46.1288940" lon="10.1495700">
	<ele>1932.60</ele>
	<time>2024-09-06T08:05:50.000Z</time>
</trkpt>
<trkpt lat="46.1288880" lon="10.1495860">
	<ele>1932.80</ele>
	<time>2024-09-06T08:05:51.000Z</time>
</trkpt>
<trkpt lat="46.1288860" lon="10.1496030">
	<ele>1933.00</ele>
	<time>2024-09-06T08:05:52.000Z</time>
</trkpt>
<trkpt lat="46.1288820" lon="10.1496170">
	<ele>1933.20</ele>
	<time>2024-09-06T08:05:53.000Z</time>
</trkpt>
<trkpt lat="46.1288730" lon="10.1496290">
	<ele>1933.20</ele>
	<time>2024-09-06T08:05:54.000Z</time>
</trkpt>
<trkpt lat="46.1288730" lon="10.1496430">
	<ele>1933.40</ele>
	<time>2024-09-06T08:05:55.000Z</time>
</trkpt>
<trkpt lat="46.1288720" lon="10.1496530">
	<ele>1933.60</ele>
	<time>2024-09-06T08:05:56.000Z</time>
</trkpt>
<trkpt lat="46.1288680" lon="10.1496660">
	<ele>1933.60</ele>
	<time>2024-09-06T08:05:57.000Z</time>
</trkpt>
<trkpt lat="46.1288580" lon="10.1496790">
	<ele>1933.60</ele>
	<time>2024-09-06T08:05:58.000Z</time>
</trkpt>
<trkpt lat="46.1288470" lon="10.1496890">
	<ele>1933.80</ele>
	<time>2024-09-06T08:05:59.000Z</time>
</trkpt>
<trkpt lat="46.1288430" lon="10.1497050">
	<ele>1933.80</ele>
	<time>2024-09-06T08:06:00.000Z</time>
</trkpt>
<trkpt lat="46.1288390" lon="10.1497240">
	<ele>1933.80</ele>
	<time>2024-09-06T08:06:01.000Z</time>
</trkpt>
<trkpt lat="46.1288350" lon="10.1497430">
	<ele>1933.80</ele>
	<time>2024-09-06T08:06:02.000Z</time>
</trkpt>
<trkpt lat="46.1288300" lon="10.1497580">
	<ele>1933.80</ele>
	<time>2024-09-06T08:06:03.000Z</time>
</trkpt>
<trkpt lat="46.1288230" lon="10.1497720">
	<ele>1933.80</ele>
	<time>2024-09-06T08:06:04.000Z</time>
</trkpt>
<trkpt lat="46.1288190" lon="10.1497850">
	<ele>1933.80</ele>
	<time>2024-09-06T08:06:05.000Z</time>
</trkpt>
<trkpt lat="46.1288150" lon="10.1497980">
	<ele>1934.00</ele>
	<time>2024-09-06T08:06:06.000Z</time>
</trkpt>
<trkpt lat="46.1288090" lon="10.1498130">
	<ele>1934.00</ele>
	<time>2024-09-06T08:06:07.000Z</time>
</trkpt>
<trkpt lat="46.1287990" lon="10.1498270">
	<ele>1934.00</ele>
	<time>2024-09-06T08:06:08.000Z</time>
</trkpt>
<trkpt lat="46.1287920" lon="10.1498400">
	<ele>1934.20</ele>
	<time>2024-09-06T08:06:09.000Z</time>
</trkpt>
<trkpt lat="46.1287800" lon="10.1498480">
	<ele>1934.20</ele>
	<time>2024-09-06T08:06:10.000Z</time>
</trkpt>
<trkpt lat="46.1287700" lon="10.1498580">
	<ele>1934.20</ele>
	<time>2024-09-06T08:06:11.000Z</time>
</trkpt>
<trkpt lat="46.1287560" lon="10.1498690">
	<ele>1934.20</ele>
	<time>2024-09-06T08:06:12.000Z</time>
</trkpt>
<trkpt lat="46.1287460" lon="10.1498790">
	<ele>1934.20</ele>
	<time>2024-09-06T08:06:13.000Z</time>
</trkpt>
<trkpt lat="46.1287370" lon="10.1498870">
	<ele>1934.20</ele>
	<time>2024-09-06T08:06:14.000Z</time>
</trkpt>
<trkpt lat="46.1287290" lon="10.1498940">
	<ele>1934.60</ele>
	<time>2024-09-06T08:06:15.000Z</time>
</trkpt>
<trkpt lat="46.1287230" lon="10.1499020">
	<ele>1934.60</ele>
	<time>2024-09-06T08:06:16.000Z</time>
</trkpt>
<trkpt lat="46.1287160" lon="10.1499110">
	<ele>1934.80</ele>
	<time>2024-09-06T08:06:17.000Z</time>
</trkpt>
<trkpt lat="46.1287120" lon="10.1499160">
	<ele>1934.80</ele>
	<time>2024-09-06T08:06:18.000Z</time>
</trkpt>
<trkpt lat="46.1287030" lon="10.1499170">
	<ele>1934.80</ele>
	<time>2024-09-06T08:06:19.000Z</time>
</trkpt>
<trkpt lat="46.1286970" lon="10.1499190">
	<ele>1934.80</ele>
	<time>2024-09-06T08:06:20.000Z</time>
</trkpt>
<trkpt lat="46.1286930" lon="10.1499220">
	<ele>1935.00</ele>
	<time>2024-09-06T08:06:21.000Z</time>
</trkpt>
<trkpt lat="46.1286890" lon="10.1499250">
	<ele>1935.20</ele>
	<time>2024-09-06T08:06:22.000Z</time>
</trkpt>
<trkpt lat="46.1286870" lon="10.1499200">
	<ele>1935.40</ele>
	<time>2024-09-06T08:06:23.000Z</time>
</trkpt>
<trkpt lat="46.1286840" lon="10.1499230">
	<ele>1935.40</ele>
	<time>2024-09-06T08:06:24.000Z</time>
</trkpt>
<trkpt lat="46.1286860" lon="10.1499240">
	<ele>1935.60</ele>
	<time>2024-09-06T08:06:25.000Z</time>
</trkpt>
<trkpt lat="46.1286800" lon="10.1499360">
	<ele>1935.60</ele>
	<time>2024-09-06T08:06:26.000Z</time>
</trkpt>
<trkpt lat="46.1286730" lon="10.1499440">
	<ele>1935.40</ele>
	<time>2024-09-06T08:06:27.000Z</time>
</trkpt>
<trkpt lat="46.1286670" lon="10.1499530">
	<ele>1935.20</ele>
	<time>2024-09-06T08:06:28.000Z</time>
</trkpt>
<trkpt lat="46.1286600" lon="10.1499630">
	<ele>1935.20</ele>
	<time>2024-09-06T08:06:29.000Z</time>
</trkpt>
<trkpt lat="46.1286540" lon="10.1499720">
	<ele>1935.00</ele>
	<time>2024-09-06T08:06:30.000Z</time>
</trkpt>
<trkpt lat="46.1286530" lon="10.1499760">
	<ele>1935.20</ele>
	<time>2024-09-06T08:06:31.000Z</time>
</trkpt>
<trkpt lat="46.1286490" lon="10.1499850">
	<ele>1935.20</ele>
	<time>2024-09-06T08:06:32.000Z</time>
</trkpt>
<trkpt lat="46.1286360" lon="10.1499880">
	<ele>1935.20</ele>
	<time>2024-09-06T08:06:33.000Z</time>
</trkpt>
<trkpt lat="46.1286220" lon="10.1499960">
	<ele>1935.40</ele>
	<time>2024-09-06T08:06:34.000Z</time>
</trkpt>
<trkpt lat="46.1286190" lon="10.1500100">
	<ele>1935.40</ele>
	<time>2024-09-06T08:06:35.000Z</time>
</trkpt>
<trkpt lat="46.1286100" lon="10.1500240">
	<ele>1935.40</ele>
	<time>2024-09-06T08:06:36.000Z</time>
</trkpt>
<trkpt lat="46.1285980" lon="10.1500450">
	<ele>1935.40</ele>
	<time>2024-09-06T08:06:37.000Z</time>
</trkpt>
<trkpt lat="46.1285890" lon="10.1500570">
	<ele>1935.40</ele>
	<time>2024-09-06T08:06:38.000Z</time>
</trkpt>
<trkpt lat="46.1285840" lon="10.1500650">
	<ele>1935.60</ele>
	<time>2024-09-06T08:06:39.000Z</time>
</trkpt>
<trkpt lat="46.1285810" lon="10.1500820">
	<ele>1935.60</ele>
	<time>2024-09-06T08:06:40.000Z</time>
</trkpt>
<trkpt lat="46.1285730" lon="10.1500980">
	<ele>1935.60</ele>
	<time>2024-09-06T08:06:41.000Z</time>
</trkpt>
<trkpt lat="46.1285620" lon="10.1501130">
	<ele>1935.60</ele>
	<time>2024-09-06T08:06:42.000Z</time>
</trkpt>
<trkpt lat="46.1285500" lon="10.1501280">
	<ele>1935.80</ele>
	<time>2024-09-06T08:06:43.000Z</time>
</trkpt>
<trkpt lat="46.1285400" lon="10.1501400">
	<ele>1935.80</ele>
	<time>2024-09-06T08:06:44.000Z</time>
</trkpt>
<trkpt lat="46.1285230" lon="10.1501560">
	<ele>1935.80</ele>
	<time>2024-09-06T08:06:45.000Z</time>
</trkpt>
<trkpt lat="46.1285120" lon="10.1501760">
	<ele>1935.80</ele>
	<time>2024-09-06T08:06:46.000Z</time>
</trkpt>
<trkpt lat="46.1285030" lon="10.1501950">
	<ele>1936.00</ele>
	<time>2024-09-06T08:06:47.000Z</time>
</trkpt>
<trkpt lat="46.1284920" lon="10.1502080">
	<ele>1936.00</ele>
	<time>2024-09-06T08:06:48.000Z</time>
</trkpt>
<trkpt lat="46.1284830" lon="10.1502210">
	<ele>1936.20</ele>
	<time>2024-09-06T08:06:49.000Z</time>
</trkpt>
<trkpt lat="46.1284770" lon="10.1502320">
	<ele>1936.20</ele>
	<time>2024-09-06T08:06:50.000Z</time>
</trkpt>
<trkpt lat="46.1284810" lon="10.1502450">
	<ele>1936.40</ele>
	<time>2024-09-06T08:06:51.000Z</time>
</trkpt>
<trkpt lat="46.1284810" lon="10.1502620">
	<ele>1936.40</ele>
	<time>2024-09-06T08:06:52.000Z</time>
</trkpt>
<trkpt lat="46.1284800" lon="10.1502760">
	<ele>1936.60</ele>
	<time>2024-09-06T08:06:53.000Z</time>
</trkpt>
<trkpt lat="46.1284770" lon="10.1502880">
	<ele>1936.60</ele>
	<time>2024-09-06T08:06:54.000Z</time>
</trkpt>
<trkpt lat="46.1284730" lon="10.1503040">
	<ele>1936.80</ele>
	<time>2024-09-06T08:06:55.000Z</time>
</trkpt>
<trkpt lat="46.1284740" lon="10.1503190">
	<ele>1936.80</ele>
	<time>2024-09-06T08:06:56.000Z</time>
</trkpt>
<trkpt lat="46.1284760" lon="10.1503280">
	<ele>1937.00</ele>
	<time>2024-09-06T08:06:57.000Z</time>
</trkpt>
<trkpt lat="46.1284750" lon="10.1503330">
	<ele>1937.00</ele>
	<time>2024-09-06T08:06:58.000Z</time>
</trkpt>
<trkpt lat="46.1284700" lon="10.1503440">
	<ele>1937.20</ele>
	<time>2024-09-06T08:06:59.000Z</time>
</trkpt>
<trkpt lat="46.1284670" lon="10.1503570">
	<ele>1937.40</ele>
	<time>2024-09-06T08:07:00.000Z</time>
</trkpt>
<trkpt lat="46.1284650" lon="10.1503740">
	<ele>1937.40</ele>
	<time>2024-09-06T08:07:01.000Z</time>
</trkpt>
<trkpt lat="46.1284620" lon="10.1503890">
	<ele>1937.60</ele>
	<time>2024-09-06T08:07:02.000Z</time>
</trkpt>
<trkpt lat="46.1284570" lon="10.1504060">
	<ele>1937.60</ele>
	<time>2024-09-06T08:07:03.000Z</time>
</trkpt>
<trkpt lat="46.1284570" lon="10.1504240">
	<ele>1937.80</ele>
	<time>2024-09-06T08:07:04.000Z</time>
</trkpt>
<trkpt lat="46.1284580" lon="10.1504380">
	<ele>1938.20</ele>
	<time>2024-09-06T08:07:05.000Z</time>
</trkpt>
<trkpt lat="46.1284560" lon="10.1504580">
	<ele>1938.40</ele>
	<time>2024-09-06T08:07:06.000Z</time>
</trkpt>
<trkpt lat="46.1284530" lon="10.1504740">
	<ele>1938.60</ele>
	<time>2024-09-06T08:07:07.000Z</time>
</trkpt>
<trkpt lat="46.1284520" lon="10.1504820">
	<ele>1938.60</ele>
	<time>2024-09-06T08:07:08.000Z</time>
</trkpt>
<trkpt lat="46.1284540" lon="10.1504870">
	<ele>1938.80</ele>
	<time>2024-09-06T08:07:09.000Z</time>
</trkpt>
<trkpt lat="46.1284700" lon="10.1504910">
	<ele>1939.00</ele>
	<time>2024-09-06T08:07:10.000Z</time>
</trkpt>
<trkpt lat="46.1284720" lon="10.1504910">
	<ele>1939.20</ele>
	<time>2024-09-06T08:07:11.000Z</time>
</trkpt>
<trkpt lat="46.1284730" lon="10.1504900">
	<ele>1939.20</ele>
	<time>2024-09-06T08:07:12.000Z</time>
</trkpt>
<trkpt lat="46.1284740" lon="10.1504900">
	<ele>1939.40</ele>
	<time>2024-09-06T08:07:13.000Z</time>
</trkpt>
<trkpt lat="46.1284780" lon="10.1504880">
	<ele>1939.40</ele>
	<time>2024-09-06T08:07:14.000Z</time>
</trkpt>
<trkpt lat="46.1284840" lon="10.1504890">
	<ele>1939.40</ele>
	<time>2024-09-06T08:07:15.000Z</time>
</trkpt>
<trkpt lat="46.1284890" lon="10.1504930">
	<ele>1939.40</ele>
	<time>2024-09-06T08:07:16.000Z</time>
</trkpt>
<trkpt lat="46.1284930" lon="10.1505040">
	<ele>1939.40</ele>
	<time>2024-09-06T08:07:17.000Z</time>
</trkpt>
<trkpt lat="46.1284950" lon="10.1505180">
	<ele>1939.40</ele>
	<time>2024-09-06T08:07:18.000Z</time>
</trkpt>
<trkpt lat="46.1284970" lon="10.1505270">
	<ele>1939.20</ele>
	<time>2024-09-06T08:07:19.000Z</time>
</trkpt>
<trkpt lat="46.1285010" lon="10.1505400">
	<ele>1939.20</ele>
	<time>2024-09-06T08:07:20.000Z</time>
</trkpt>
<trkpt lat="46.1285110" lon="10.1505490">
	<ele>1939.20</ele>
	<time>2024-09-06T08:07:21.000Z</time>
</trkpt>
<trkpt lat="46.1285220" lon="10.1505680">
	<ele>1939.20</ele>
	<time>2024-09-06T08:07:22.000Z</time>
</trkpt>
<trkpt lat="46.1285300" lon="10.1505870">
	<ele>1939.20</ele>
	<time>2024-09-06T08:07:23.000Z</time>
</trkpt>
<trkpt lat="46.1285390" lon="10.1506020">
	<ele>1939.00</ele>
	<time>2024-09-06T08:07:24.000Z</time>
</trkpt>
<trkpt lat="46.1285450" lon="10.1506190">
	<ele>1939.00</ele>
	<time>2024-09-06T08:07:25.000Z</time>
</trkpt>
<trkpt lat="46.1285510" lon="10.1506390">
	<ele>1939.00</ele>
	<time>2024-09-06T08:07:26.000Z</time>
</trkpt>
<trkpt lat="46.1285520" lon="10.1506530">
	<ele>1939.00</ele>
	<time>2024-09-06T08:07:27.000Z</time>
</trkpt>
<trkpt lat="46.1285550" lon="10.1506680">
	<ele>1939.00</ele>
	<time>2024-09-06T08:07:28.000Z</time>
</trkpt>
<trkpt lat="46.1285590" lon="10.1506860">
	<ele>1939.00</ele>
	<time>2024-09-06T08:07:29.000Z</time>
</trkpt>
<trkpt lat="46.1285650" lon="10.1507020">
	<ele>1938.80</ele>
	<time>2024-09-06T08:07:30.000Z</time>
</trkpt>
<trkpt lat="46.1285760" lon="10.1507190">
	<ele>1938.60</ele>
	<time>2024-09-06T08:07:31.000Z</time>
</trkpt>
<trkpt lat="46.1285840" lon="10.1507360">
	<ele>1938.60</ele>
	<time>2024-09-06T08:07:32.000Z</time>
</trkpt>
<trkpt lat="46.1285850" lon="10.1507520">
	<ele>1938.60</ele>
	<time>2024-09-06T08:07:33.000Z</time>
</trkpt>
<trkpt lat="46.1285850" lon="10.1507710">
	<ele>1938.60</ele>
	<time>2024-09-06T08:07:34.000Z</time>
</trkpt>
<trkpt lat="46.1285800" lon="10.1507900">
	<ele>1938.60</ele>
	<time>2024-09-06T08:07:35.000Z</time>
</trkpt>
<trkpt lat="46.1285760" lon="10.1508110">
	<ele>1938.60</ele>
	<time>2024-09-06T08:07:36.000Z</time>
</trkpt>
<trkpt lat="46.1285820" lon="10.1508270">
	<ele>1938.40</ele>
	<time>2024-09-06T08:07:37.000Z</time>
</trkpt>
<trkpt lat="46.1285890" lon="10.1508400">
	<ele>1938.40</ele>
	<time>2024-09-06T08:07:38.000Z</time>
</trkpt>
<trkpt lat="46.1285910" lon="10.1508550">
	<ele>1938.40</ele>
	<time>2024-09-06T08:07:39.000Z</time>
</trkpt>
<trkpt lat="46.1285930" lon="10.1508720">
	<ele>1938.20</ele>
	<time>2024-09-06T08:07:40.000Z</time>
</trkpt>
<trkpt lat="46.1285990" lon="10.1508900">
	<ele>1938.20</ele>
	<time>2024-09-06T08:07:41.000Z</time>
</trkpt>
<trkpt lat="46.1286010" lon="10.1509080">
	<ele>1938.20</ele>
	<time>2024-09-06T08:07:42.000Z</time>
</trkpt>
<trkpt lat="46.1286050" lon="10.1509250">
	<ele>1938.20</ele>
	<time>2024-09-06T08:07:43.000Z</time>
</trkpt>
<trkpt lat="46.1286090" lon="10.1509370">
	<ele>1938.20</ele>
	<time>2024-09-06T08:07:44.000Z</time>
</trkpt>
<trkpt lat="46.1286170" lon="10.1509510">
	<ele>1938.20</ele>
	<time>2024-09-06T08:07:45.000Z</time>
</trkpt>
<trkpt lat="46.1286240" lon="10.1509670">
	<ele>1938.20</ele>
	<time>2024-09-06T08:07:46.000Z</time>
</trkpt>
<trkpt lat="46.1286270" lon="10.1509810">
	<ele>1938.20</ele>
	<time>2024-09-06T08:07:47.000Z</time>
</trkpt>
<trkpt lat="46.1286270" lon="10.1509960">
	<ele>1938.20</ele>
	<time>2024-09-06T08:07:48.000Z</time>
</trkpt>
<trkpt lat="46.1286340" lon="10.1510080">
	<ele>1938.20</ele>
	<time>2024-09-06T08:07:49.000Z</time>
</trkpt>
<trkpt lat="46.1286420" lon="10.1510210">
	<ele>1938.20</ele>
	<time>2024-09-06T08:07:50.000Z</time>
</trkpt>
<trkpt lat="46.1286490" lon="10.1510380">
	<ele>1938.20</ele>
	<time>2024-09-06T08:07:51.000Z</time>
</trkpt>
<trkpt lat="46.1286560" lon="10.1510570">
	<ele>1938.00</ele>
	<time>2024-09-06T08:07:52.000Z</time>
</trkpt>
<trkpt lat="46.1286590" lon="10.1510750">
	<ele>1938.00</ele>
	<time>2024-09-06T08:07:53.000Z</time>
</trkpt>
<trkpt lat="46.1286600" lon="10.1510910">
	<ele>1937.80</ele>
	<time>2024-09-06T08:07:54.000Z</time>
</trkpt>
<trkpt lat="46.1286630" lon="10.1511000">
	<ele>1937.80</ele>
	<time>2024-09-06T08:07:55.000Z</time>
</trkpt>
<trkpt lat="46.1286680" lon="10.1511040">
	<ele>1937.60</ele>
	<time>2024-09-06T08:07:56.000Z</time>
</trkpt>
<trkpt lat="46.1286750" lon="10.1511010">
	<ele>1937.60</ele>
	<time>2024-09-06T08:07:57.000Z</time>
</trkpt>
<trkpt lat="46.1286760" lon="10.1511010">
	<ele>1937.60</ele>
	<time>2024-09-06T08:07:58.000Z</time>
</trkpt>
<trkpt lat="46.1286760" lon="10.1510930">
	<ele>1937.60</ele>
	<time>2024-09-06T08:07:59.000Z</time>
</trkpt>
<trkpt lat="46.1286730" lon="10.1510920">
	<ele>1937.40</ele>
	<time>2024-09-06T08:08:00.000Z</time>
</trkpt>
<trkpt lat="46.1286700" lon="10.1510960">
	<ele>1937.60</ele>
	<time>2024-09-06T08:08:01.000Z</time>
</trkpt>
<trkpt lat="46.1286690" lon="10.1510950">
	<ele>1937.40</ele>
	<time>2024-09-06T08:08:02.000Z</time>
</trkpt>
<trkpt lat="46.1286680" lon="10.1510940">
	<ele>1937.60</ele>
	<time>2024-09-06T08:08:03.000Z</time>
</trkpt>
<trkpt lat="46.1286700" lon="10.1510930">
	<ele>1937.60</ele>
	<time>2024-09-06T08:08:04.000Z</time>
</trkpt>
<trkpt lat="46.1286700" lon="10.1510920">
	<ele>1937.60</ele>
	<time>2024-09-06T08:08:05.000Z</time>
</trkpt>
<trkpt lat="46.1286700" lon="10.1511000">
	<ele>1937.40</ele>
	<time>2024-09-06T08:08:06.000Z</time>
</trkpt>
<trkpt lat="46.1286720" lon="10.1511080">
	<ele>1937.40</ele>
	<time>2024-09-06T08:08:07.000Z</time>
</trkpt>
<trkpt lat="46.1286730" lon="10.1511210">
	<ele>1937.40</ele>
	<time>2024-09-06T08:08:08.000Z</time>
</trkpt>
<trkpt lat="46.1286750" lon="10.1511340">
	<ele>1937.40</ele>
	<time>2024-09-06T08:08:09.000Z</time>
</trkpt>
<trkpt lat="46.1286770" lon="10.1511540">
	<ele>1937.40</ele>
	<time>2024-09-06T08:08:10.000Z</time>
</trkpt>
<trkpt lat="46.1286790" lon="10.1511700">
	<ele>1937.20</ele>
	<time>2024-09-06T08:08:11.000Z</time>
</trkpt>
<trkpt lat="46.1286830" lon="10.1511890">
	<ele>1937.20</ele>
	<time>2024-09-06T08:08:12.000Z</time>
</trkpt>
<trkpt lat="46.1286830" lon="10.1512070">
	<ele>1937.20</ele>
	<time>2024-09-06T08:08:13.000Z</time>
</trkpt>
<trkpt lat="46.1286850" lon="10.1512280">
	<ele>1937.20</ele>
	<time>2024-09-06T08:08:14.000Z</time>
</trkpt>
<trkpt lat="46.1286900" lon="10.1512440">
	<ele>1937.00</ele>
	<time>2024-09-06T08:08:15.000Z</time>
</trkpt>
<trkpt lat="46.1287010" lon="10.1512620">
	<ele>1937.00</ele>
	<time>2024-09-06T08:08:16.000Z</time>
</trkpt>
<trkpt lat="46.1287060" lon="10.1512790">
	<ele>1937.00</ele>
	<time>2024-09-06T08:08:17.000Z</time>
</trkpt>
<trkpt lat="46.1287160" lon="10.1513020">
	<ele>1937.00</ele>
	<time>2024-09-06T08:08:18.000Z</time>
</trkpt>
<trkpt lat="46.1287190" lon="10.1513160">
	<ele>1936.80</ele>
	<time>2024-09-06T08:08:19.000Z</time>
</trkpt>
<trkpt lat="46.1287230" lon="10.1513370">
	<ele>1936.60</ele>
	<time>2024-09-06T08:08:20.000Z</time>
</trkpt>
<trkpt lat="46.1287260" lon="10.1513530">
	<ele>1936.40</ele>
	<time>2024-09-06T08:08:21.000Z</time>
</trkpt>
<trkpt lat="46.1287250" lon="10.1513760">
	<ele>1936.40</ele>
	<time>2024-09-06T08:08:22.000Z</time>
</trkpt>
<trkpt lat="46.1287230" lon="10.1513970">
	<ele>1936.20</ele>
	<time>2024-09-06T08:08:23.000Z</time>
</trkpt>
<trkpt lat="46.1287260" lon="10.1514130">
	<ele>1936.20</ele>
	<time>2024-09-06T08:08:24.000Z</time>
</trkpt>
<trkpt lat="46.1287330" lon="10.1514280">
	<ele>1936.00</ele>
	<time>2024-09-06T08:08:25.000Z</time>
</trkpt>
<trkpt lat="46.1287400" lon="10.1514430">
	<ele>1935.80</ele>
	<time>2024-09-06T08:08:26.000Z</time>
</trkpt>
<trkpt lat="46.1287480" lon="10.1514590">
	<ele>1935.80</ele>
	<time>2024-09-06T08:08:27.000Z</time>
</trkpt>
<trkpt lat="46.1287540" lon="10.1514740">
	<ele>1935.60</ele>
	<time>2024-09-06T08:08:28.000Z</time>
</trkpt>
<trkpt lat="46.1287610" lon="10.1514900">
	<ele>1935.60</ele>
	<time>2024-09-06T08:08:29.000Z</time>
</trkpt>
<trkpt lat="46.1287670" lon="10.1515030">
	<ele>1935.60</ele>
	<time>2024-09-06T08:08:30.000Z</time>
</trkpt>
<trkpt lat="46.1287690" lon="10.1515130">
	<ele>1935.40</ele>
	<time>2024-09-06T08:08:31.000Z</time>
</trkpt>
<trkpt lat="46.1287780" lon="10.1515240">
	<ele>1935.20</ele>
	<time>2024-09-06T08:08:32.000Z</time>
</trkpt>
<trkpt lat="46.1287880" lon="10.1515410">
	<ele>1935.00</ele>
	<time>2024-09-06T08:08:33.000Z</time>
</trkpt>
<trkpt lat="46.1287940" lon="10.1515560">
	<ele>1934.80</ele>
	<time>2024-09-06T08:08:34.000Z</time>
</trkpt>
<trkpt lat="46.1288020" lon="10.1515740">
	<ele>1934.60</ele>
	<time>2024-09-06T08:08:35.000Z</time>
</trkpt>
<trkpt lat="46.1288100" lon="10.1515900">
	<ele>1934.60</ele>
	<time>2024-09-06T08:08:36.000Z</time>
</trkpt>
<trkpt lat="46.1288140" lon="10.1516010">
	<ele>1934.40</ele>
	<time>2024-09-06T08:08:37.000Z</time>
</trkpt>
<trkpt lat="46.1288210" lon="10.1516160">
	<ele>1934.40</ele>
	<time>2024-09-06T08:08:38.000Z</time>
</trkpt>
<trkpt lat="46.1288300" lon="10.1516240">
	<ele>1934.20</ele>
	<time>2024-09-06T08:08:39.000Z</time>
</trkpt>
<trkpt lat="46.1288330" lon="10.1516310">
	<ele>1934.20</ele>
	<time>2024-09-06T08:08:40.000Z</time>
</trkpt>
<trkpt lat="46.1288340" lon="10.1516370">
	<ele>1934.20</ele>
	<time>2024-09-06T08:08:41.000Z</time>
</trkpt>
<trkpt lat="46.1288400" lon="10.1516430">
	<ele>1934.00</ele>
	<time>2024-09-06T08:08:42.000Z</time>
</trkpt>
<trkpt lat="46.1288490" lon="10.1516500">
	<ele>1934.00</ele>
	<time>2024-09-06T08:08:43.000Z</time>
</trkpt>
<trkpt lat="46.1288600" lon="10.1516600">
	<ele>1934.00</ele>
	<time>2024-09-06T08:08:44.000Z</time>
</trkpt>
<trkpt lat="46.1288780" lon="10.1516790">
	<ele>1933.80</ele>
	<time>2024-09-06T08:08:45.000Z</time>
</trkpt>
<trkpt lat="46.1288840" lon="10.1517040">
	<ele>1933.80</ele>
	<time>2024-09-06T08:08:46.000Z</time>
</trkpt>
<trkpt lat="46.1288900" lon="10.1517220">
	<ele>1933.60</ele>
	<time>2024-09-06T08:08:47.000Z</time>
</trkpt>
<trkpt lat="46.1288930" lon="10.1517430">
	<ele>1933.40</ele>
	<time>2024-09-06T08:08:48.000Z</time>
</trkpt>
<trkpt lat="46.1288930" lon="10.1517620">
	<ele>1933.40</ele>
	<time>2024-09-06T08:08:49.000Z</time>
</trkpt>
<trkpt lat="46.1288950" lon="10.1517690">
	<ele>1933.20</ele>
	<time>2024-09-06T08:08:50.000Z</time>
</trkpt>
<trkpt lat="46.1288950" lon="10.1517720">
	<ele>1933.20</ele>
	<time>2024-09-06T08:08:51.000Z</time>
</trkpt>
<trkpt lat="46.1288930" lon="10.1517720">
	<ele>1933.20</ele>
	<time>2024-09-06T08:08:52.000Z</time>
</trkpt>
<trkpt lat="46.1288900" lon="10.1517750">
	<ele>1933.20</ele>
	<time>2024-09-06T08:08:53.000Z</time>
</trkpt>
<trkpt lat="46.1288860" lon="10.1517750">
	<ele>1933.20</ele>
	<time>2024-09-06T08:08:54.000Z</time>
</trkpt>
<trkpt lat="46.1288840" lon="10.1517750">
	<ele>1933.20</ele>
	<time>2024-09-06T08:08:55.000Z</time>
</trkpt>
<trkpt lat="46.1288830" lon="10.1517750">
	<ele>1933.00</ele>
	<time>2024-09-06T08:08:56.000Z</time>
</trkpt>
<trkpt lat="46.1288820" lon="10.1517770">
	<ele>1933.20</ele>
	<time>2024-09-06T08:08:57.000Z</time>
</trkpt>
<trkpt lat="46.1288830" lon="10.1517770">
	<ele>1933.20</ele>
	<time>2024-09-06T08:08:58.000Z</time>
</trkpt>
<trkpt lat="46.1288910" lon="10.1517730">
	<ele>1933.20</ele>
	<time>2024-09-06T08:08:59.000Z</time>
</trkpt>
<trkpt lat="46.1289010" lon="10.1517800">
	<ele>1933.20</ele>
	<time>2024-09-06T08:09:00.000Z</time>
</trkpt>
<trkpt lat="46.1289120" lon="10.1517840">
	<ele>1933.00</ele>
	<time>2024-09-06T08:09:01.000Z</time>
</trkpt>
<trkpt lat="46.1289210" lon="10.1517900">
	<ele>1933.00</ele>
	<time>2024-09-06T08:09:02.000Z</time>
</trkpt>
<trkpt lat="46.1289270" lon="10.1517950">
	<ele>1933.00</ele>
	<time>2024-09-06T08:09:03.000Z</time>
</trkpt>
<trkpt lat="46.1289270" lon="10.1518060">
	<ele>1933.00</ele>
	<time>2024-09-06T08:09:04.000Z</time>
</trkpt>
<trkpt lat="46.1289290" lon="10.1518200">
	<ele>1932.80</ele>
	<time>2024-09-06T08:09:05.000Z</time>
</trkpt>
<trkpt lat="46.1289310" lon="10.1518320">
	<ele>1932.80</ele>
	<time>2024-09-06T08:09:06.000Z</time>
</trkpt>
<trkpt lat="46.1289360" lon="10.1518470">
	<ele>1932.80</ele>
	<time>2024-09-06T08:09:07.000Z</time>
</trkpt>
<trkpt lat="46.1289390" lon="10.1518580">
	<ele>1932.80</ele>
	<time>2024-09-06T08:09:08.000Z</time>
</trkpt>
<trkpt lat="46.1289420" lon="10.1518710">
	<ele>1932.60</ele>
	<time>2024-09-06T08:09:09.000Z</time>
</trkpt>
<trkpt lat="46.1289470" lon="10.1518830">
	<ele>1932.60</ele>
	<time>2024-09-06T08:09:10.000Z</time>
</trkpt>
<trkpt lat="46.1289500" lon="10.1518940">
	<ele>1932.60</ele>
	<time>2024-09-06T08:09:11.000Z</time>
</trkpt>
<trkpt lat="46.1289570" lon="10.1519080">
	<ele>1932.40</ele>
	<time>2024-09-06T08:09:12.000Z</time>
</trkpt>
<trkpt lat="46.1289630" lon="10.1519190">
	<ele>1932.40</ele>
	<time>2024-09-06T08:09:13.000Z</time>
</trkpt>
<trkpt lat="46.1289700" lon="10.1519310">
	<ele>1932.20</ele>
	<time>2024-09-06T08:09:14.000Z</time>
</trkpt>
<trkpt lat="46.1289800" lon="10.1519450">
	<ele>1932.20</ele>
	<time>2024-09-06T08:09:15.000Z</time>
</trkpt>
<trkpt lat="46.1289860" lon="10.1519620">
	<ele>1932.00</ele>
	<time>2024-09-06T08:09:16.000Z</time>
</trkpt>
<trkpt lat="46.1289990" lon="10.1519770">
	<ele>1932.00</ele>
	<time>2024-09-06T08:09:17.000Z</time>
</trkpt>
<trkpt lat="46.1290090" lon="10.1519910">
	<ele>1932.00</ele>
	<time>2024-09-06T08:09:18.000Z</time>
</trkpt>
<trkpt lat="46.1290210" lon="10.1520050">
	<ele>1932.20</ele>
	<time>2024-09-06T08:09:19.000Z</time>
</trkpt>
<trkpt lat="46.1290310" lon="10.1520180">
	<ele>1932.20</ele>
	<time>2024-09-06T08:09:20.000Z</time>
</trkpt>
<trkpt lat="46.1290370" lon="10.1520300">
	<ele>1932.40</ele>
	<time>2024-09-06T08:09:21.000Z</time>
</trkpt>
<trkpt lat="46.1290430" lon="10.1520390">
	<ele>1932.40</ele>
	<time>2024-09-06T08:09:22.000Z</time>
</trkpt>
<trkpt lat="46.1290490" lon="10.1520530">
	<ele>1932.40</ele>
	<time>2024-09-06T08:09:23.000Z</time>
</trkpt>
<trkpt lat="46.1290510" lon="10.1520670">
	<ele>1932.60</ele>
	<time>2024-09-06T08:09:24.000Z</time>
</trkpt>
<trkpt lat="46.1290580" lon="10.1520800">
	<ele>1932.60</ele>
	<time>2024-09-06T08:09:25.000Z</time>
</trkpt>
<trkpt lat="46.1290700" lon="10.1520930">
	<ele>1932.80</ele>
	<time>2024-09-06T08:09:26.000Z</time>
</trkpt>
<trkpt lat="46.1290770" lon="10.1521030">
	<ele>1932.80</ele>
	<time>2024-09-06T08:09:27.000Z</time>
</trkpt>
<trkpt lat="46.1290860" lon="10.1521200">
	<ele>1933.00</ele>
	<time>2024-09-06T08:09:28.000Z</time>
</trkpt>
<trkpt lat="46.1290900" lon="10.1521330">
	<ele>1933.00</ele>
	<time>2024-09-06T08:09:29.000Z</time>
</trkpt>
<trkpt lat="46.1290920" lon="10.1521500">
	<ele>1933.00</ele>
	<time>2024-09-06T08:09:30.000Z</time>
</trkpt>
<trkpt lat="46.1290960" lon="10.1521630">
	<ele>1933.00</ele>
	<time>2024-09-06T08:09:31.000Z</time>
</trkpt>
<trkpt lat="46.1291020" lon="10.1521740">
	<ele>1933.20</ele>
	<time>2024-09-06T08:09:32.000Z</time>
</trkpt>
<trkpt lat="46.1291140" lon="10.1521890">
	<ele>1933.40</ele>
	<time>2024-09-06T08:09:33.000Z</time>
</trkpt>
<trkpt lat="46.1291190" lon="10.1522000">
	<ele>1933.40</ele>
	<time>2024-09-06T08:09:34.000Z</time>
</trkpt>
<trkpt lat="46.1291240" lon="10.1522090">
	<ele>1933.40</ele>
	<time>2024-09-06T08:09:35.000Z</time>
</trkpt>
<trkpt lat="46.1291290" lon="10.1522180">
	<ele>1933.60</ele>
	<time>2024-09-06T08:09:36.000Z</time>
</trkpt>
<trkpt lat="46.1291350" lon="10.1522270">
	<ele>1933.60</ele>
	<time>2024-09-06T08:09:37.000Z</time>
</trkpt>
<trkpt lat="46.1291380" lon="10.1522380">
	<ele>1933.80</ele>
	<time>2024-09-06T08:09:38.000Z</time>
</trkpt>
<trkpt lat="46.1291460" lon="10.1522490">
	<ele>1934.00</ele>
	<time>2024-09-06T08:09:39.000Z</time>
</trkpt>
<trkpt lat="46.1291560" lon="10.1522640">
	<ele>1934.00</ele>
	<time>2024-09-06T08:09:40.000Z</time>
</trkpt>
<trkpt lat="46.1291620" lon="10.1522780">
	<ele>1934.20</ele>
	<time>2024-09-06T08:09:41.000Z</time>
</trkpt>
<trkpt lat="46.1291720" lon="10.1522930">
	<ele>1934.20</ele>
	<time>2024-09-06T08:09:42.000Z</time>
</trkpt>
<trkpt lat="46.1291790" lon="10.1523060">
	<ele>1934.20</ele>
	<time>2024-09-06T08:09:43.000Z</time>
</trkpt>
<trkpt lat="46.1291870" lon="10.1523160">
	<ele>1934.40</ele>
	<time>2024-09-06T08:09:44.000Z</time>
</trkpt>
<trkpt lat="46.1291940" lon="10.1523280">
	<ele>1934.40</ele>
	<time>2024-09-06T08:09:45.000Z</time>
</trkpt>
<trkpt lat="46.1291960" lon="10.1523360">
	<ele>1934.40</ele>
	<time>2024-09-06T08:09:46.000Z</time>
</trkpt>
<trkpt lat="46.1292000" lon="10.1523460">
	<ele>1934.60</ele>
	<time>2024-09-06T08:09:47.000Z</time>
</trkpt>
<trkpt lat="46.1292030" lon="10.1523580">
	<ele>1934.60</ele>
	<time>2024-09-06T08:09:48.000Z</time>
</trkpt>
<trkpt lat="46.1292020" lon="10.1523710">
	<ele>1934.80</ele>
	<time>2024-09-06T08:09:49.000Z</time>
</trkpt>
<trkpt lat="46.1292020" lon="10.1523900">
	<ele>1934.80</ele>
	<time>2024-09-06T08:09:50.000Z</time>
</trkpt>
<trkpt lat="46.1292130" lon="10.1524080">
	<ele>1934.80</ele>
	<time>2024-09-06T08:09:51.000Z</time>
</trkpt>
<trkpt lat="46.1292240" lon="10.1524250">
	<ele>1934.80</ele>
	<time>2024-09-06T08:09:52.000Z</time>
</trkpt>
<trkpt lat="46.1292300" lon="10.1524390">
	<ele>1935.00</ele>
	<time>2024-09-06T08:09:53.000Z</time>
</trkpt>
<trkpt lat="46.1292360" lon="10.1524530">
	<ele>1935.00</ele>
	<time>2024-09-06T08:09:54.000Z</time>
</trkpt>
<trkpt lat="46.1292360" lon="10.1524730">
	<ele>1935.20</ele>
	<time>2024-09-06T08:09:55.000Z</time>
</trkpt>
<trkpt lat="46.1292470" lon="10.1524890">
	<ele>1935.20</ele>
	<time>2024-09-06T08:09:56.000Z</time>
</trkpt>
<trkpt lat="46.1292530" lon="10.1525060">
	<ele>1935.40</ele>
	<time>2024-09-06T08:09:57.000Z</time>
</trkpt>
<trkpt lat="46.1292660" lon="10.1525100">
	<ele>1935.40</ele>
	<time>2024-09-06T08:09:58.000Z</time>
</trkpt>
<trkpt lat="46.1292790" lon="10.1525160">
	<ele>1935.40</ele>
	<time>2024-09-06T08:09:59.000Z</time>
</trkpt>
<trkpt lat="46.1292880" lon="10.1525250">
	<ele>1935.60</ele>
	<time>2024-09-06T08:10:00.000Z</time>
</trkpt>
<trkpt lat="46.1292960" lon="10.1525360">
	<ele>1935.60</ele>
	<time>2024-09-06T08:10:01.000Z</time>
</trkpt>
<trkpt lat="46.1293050" lon="10.1525520">
	<ele>1935.60</ele>
	<time>2024-09-06T08:10:02.000Z</time>
</trkpt>
<trkpt lat="46.1293150" lon="10.1525680">
	<ele>1935.80</ele>
	<time>2024-09-06T08:10:03.000Z</time>
</trkpt>
<trkpt lat="46.1293250" lon="10.1525830">
	<ele>1935.80</ele>
	<time>2024-09-06T08:10:04.000Z</time>
</trkpt>
<trkpt lat="46.1293340" lon="10.1525940">
	<ele>1936.00</ele>
	<time>2024-09-06T08:10:05.000Z</time>
</trkpt>
<trkpt lat="46.1293410" lon="10.1526060">
	<ele>1936.00</ele>
	<time>2024-09-06T08:10:06.000Z</time>
</trkpt>
<trkpt lat="46.1293460" lon="10.1526180">
	<ele>1936.00</ele>
	<time>2024-09-06T08:10:07.000Z</time>
</trkpt>
<trkpt lat="46.1293530" lon="10.1526330">
	<ele>1936.00</ele>
	<time>2024-09-06T08:10:08.000Z</time>
</trkpt>
<trkpt lat="46.1293620" lon="10.1526460">
	<ele>1936.20</ele>
	<time>2024-09-06T08:10:09.000Z</time>
</trkpt>
<trkpt lat="46.1293720" lon="10.1526570">
	<ele>1936.20</ele>
	<time>2024-09-06T08:10:10.000Z</time>
</trkpt>
<trkpt lat="46.1293830" lon="10.1526680">
	<ele>1936.20</ele>
	<time>2024-09-06T08:10:11.000Z</time>
</trkpt>
<trkpt lat="46.1293930" lon="10.1526800">
	<ele>1936.20</ele>
	<time>2024-09-06T08:10:12.000Z</time>
</trkpt>
<trkpt lat="46.1294010" lon="10.1526910">
	<ele>1936.40</ele>
	<time>2024-09-06T08:10:13.000Z</time>
</trkpt>
<trkpt lat="46.1294100" lon="10.1527030">
	<ele>1936.60</ele>
	<time>2024-09-06T08:10:14.000Z</time>
</trkpt>
<trkpt lat="46.1294190" lon="10.1527190">
	<ele>1936.60</ele>
	<time>2024-09-06T08:10:15.000Z</time>
</trkpt>
<trkpt lat="46.1294300" lon="10.1527330">
	<ele>1936.60</ele>
	<time>2024-09-06T08:10:16.000Z</time>
</trkpt>
<trkpt lat="46.1294340" lon="10.1527420">
	<ele>1936.60</ele>
	<time>2024-09-06T08:10:17.000Z</time>
</trkpt>
<trkpt lat="46.1294390" lon="10.1527580">
	<ele>1936.80</ele>
	<time>2024-09-06T08:10:18.000Z</time>
</trkpt>
<trkpt lat="46.1294430" lon="10.1527680">
	<ele>1936.80</ele>
	<time>2024-09-06T08:10:19.000Z</time>
</trkpt>
<trkpt lat="46.1294500" lon="10.1527820">
	<ele>1936.80</ele>
	<time>2024-09-06T08:10:20.000Z</time>
</trkpt>
<trkpt lat="46.1294630" lon="10.1527940">
	<ele>1937.00</ele>
	<time>2024-09-06T08:10:21.000Z</time>
</trkpt>
<trkpt lat="46.1294740" lon="10.1528100">
	<ele>1937.00</ele>
	<time>2024-09-06T08:10:22.000Z</time>
</trkpt>
<trkpt lat="46.1294850" lon="10.1528230">
	<ele>1937.00</ele>
	<time>2024-09-06T08:10:23.000Z</time>
</trkpt>
<trkpt lat="46.1294930" lon="10.1528350">
	<ele>1937.20</ele>
	<time>2024-09-06T08:10:24.000Z</time>
</trkpt>
<trkpt lat="46.1294950" lon="10.1528460">
	<ele>1937.20</ele>
	<time>2024-09-06T08:10:25.000Z</time>
</trkpt>
<trkpt lat="46.1294980" lon="10.1528560">
	<ele>1937.20</ele>
	<time>2024-09-06T08:10:26.000Z</time>
</trkpt>
<trkpt lat="46.1294980" lon="10.1528680">
	<ele>1937.20</ele>
	<time>2024-09-06T08:10:27.000Z</time>
</trkpt>
<trkpt lat="46.1294990" lon="10.1528820">
	<ele>1937.40</ele>
	<time>2024-09-06T08:10:28.000Z</time>
</trkpt>
<trkpt lat="46.1295070" lon="10.1529000">
	<ele>1937.40</ele>
	<time>2024-09-06T08:10:29.000Z</time>
</trkpt>
<trkpt lat="46.1295130" lon="10.1529160">
	<ele>1937.40</ele>
	<time>2024-09-06T08:10:30.000Z</time>
</trkpt>
<trkpt lat="46.1295200" lon="10.1529300">
	<ele>1937.60</ele>
	<time>2024-09-06T08:10:31.000Z</time>
</trkpt>
<trkpt lat="46.1295250" lon="10.1529410">
	<ele>1937.80</ele>
	<time>2024-09-06T08:10:32.000Z</time>
</trkpt>
<trkpt lat="46.1295370" lon="10.1529480">
	<ele>1937.80</ele>
	<time>2024-09-06T08:10:33.000Z</time>
</trkpt>
<trkpt lat="46.1295480" lon="10.1529580">
	<ele>1937.80</ele>
	<time>2024-09-06T08:10:34.000Z</time>
</trkpt>
<trkpt lat="46.1295600" lon="10.1529720">
	<ele>1938.00</ele>
	<time>2024-09-06T08:10:35.000Z</time>
</trkpt>
<trkpt lat="46.1295600" lon="10.1529870">
	<ele>1938.00</ele>
	<time>2024-09-06T08:10:36.000Z</time>
</trkpt>
<trkpt lat="46.1295760" lon="10.1530050">
	<ele>1938.00</ele>
	<time>2024-09-06T08:10:37.000Z</time>
</trkpt>
<trkpt lat="46.1295870" lon="10.1530190">
	<ele>1938.00</ele>
	<time>2024-09-06T08:10:38.000Z</time>
</trkpt>
<trkpt lat="46.1295930" lon="10.1530280">
	<ele>1938.00</ele>
	<time>2024-09-06T08:10:39.000Z</time>
</trkpt>
<trkpt lat="46.1296030" lon="10.1530410">
	<ele>1938.20</ele>
	<time>2024-09-06T08:10:40.000Z</time>
</trkpt>
<trkpt lat="46.1296120" lon="10.1530510">
	<ele>1938.20</ele>
	<time>2024-09-06T08:10:41.000Z</time>
</trkpt>
<trkpt lat="46.1296230" lon="10.1530610">
	<ele>1938.20</ele>
	<time>2024-09-06T08:10:42.000Z</time>
</trkpt>
<trkpt lat="46.1296320" lon="10.1530710">
	<ele>1938.20</ele>
	<time>2024-09-06T08:10:43.000Z</time>
</trkpt>
<trkpt lat="46.1296410" lon="10.1530820">
	<ele>1938.20</ele>
	<time>2024-09-06T08:10:44.000Z</time>
</trkpt>
<trkpt lat="46.1296490" lon="10.1530960">
	<ele>1938.40</ele>
	<time>2024-09-06T08:10:45.000Z</time>
</trkpt>
<trkpt lat="46.1296630" lon="10.1531030">
	<ele>1938.40</ele>
	<time>2024-09-06T08:10:46.000Z</time>
</trkpt>
<trkpt lat="46.1296820" lon="10.1531150">
	<ele>1938.60</ele>
	<time>2024-09-06T08:10:47.000Z</time>
</trkpt>
<trkpt lat="46.1296960" lon="10.1531280">
	<ele>1938.60</ele>
	<time>2024-09-06T08:10:48.000Z</time>
</trkpt>
<trkpt lat="46.1297040" lon="10.1531360">
	<ele>1938.80</ele>
	<time>2024-09-06T08:10:49.000Z</time>
</trkpt>
<trkpt lat="46.1297160" lon="10.1531460">
	<ele>1938.80</ele>
	<time>2024-09-06T08:10:50.000Z</time>
</trkpt>
<trkpt lat="46.1297240" lon="10.1531550">
	<ele>1938.80</ele>
	<time>2024-09-06T08:10:51.000Z</time>
</trkpt>
<trkpt lat="46.1297280" lon="10.1531680">
	<ele>1939.00</ele>
	<time>2024-09-06T08:10:52.000Z</time>
</trkpt>
<trkpt lat="46.1297340" lon="10.1531800">
	<ele>1939.00</ele>
	<time>2024-09-06T08:10:53.000Z</time>
</trkpt>
<trkpt lat="46.1297440" lon="10.1531960">
	<ele>1939.00</ele>
	<time>2024-09-06T08:10:54.000Z</time>
</trkpt>
<trkpt lat="46.1297530" lon="10.1532110">
	<ele>1939.00</ele>
	<time>2024-09-06T08:10:55.000Z</time>
</trkpt>
<trkpt lat="46.1297600" lon="10.1532250">
	<ele>1939.00</ele>
	<time>2024-09-06T08:10:56.000Z</time>
</trkpt>
<trkpt lat="46.1297650" lon="10.1532380">
	<ele>1939.00</ele>
	<time>2024-09-06T08:10:57.000Z</time>
</trkpt>
<trkpt lat="46.1297690" lon="10.1532590">
	<ele>1939.20</ele>
	<time>2024-09-06T08:10:58.000Z</time>
</trkpt>
<trkpt lat="46.1297750" lon="10.1532680">
	<ele>1939.20</ele>
	<time>2024-09-06T08:10:59.000Z</time>
</trkpt>
<trkpt lat="46.1297820" lon="10.1532760">
	<ele>1939.40</ele>
	<time>2024-09-06T08:11:00.000Z</time>
</trkpt>
<trkpt lat="46.1297920" lon="10.1532860">
	<ele>1939.40</ele>
	<time>2024-09-06T08:11:01.000Z</time>
</trkpt>
<trkpt lat="46.1297950" lon="10.1532950">
	<ele>1939.60</ele>
	<time>2024-09-06T08:11:02.000Z</time>
</trkpt>
<trkpt lat="46.1298030" lon="10.1533090">
	<ele>1939.60</ele>
	<time>2024-09-06T08:11:03.000Z</time>
</trkpt>
<trkpt lat="46.1298150" lon="10.1533280">
	<ele>1939.80</ele>
	<time>2024-09-06T08:11:04.000Z</time>
</trkpt>
<trkpt lat="46.1298230" lon="10.1533450">
	<ele>1939.80</ele>
	<time>2024-09-06T08:11:05.000Z</time>
</trkpt>
<trkpt lat="46.1298370" lon="10.1533600">
	<ele>1939.80</ele>
	<time>2024-09-06T08:11:06.000Z</time>
</trkpt>
<trkpt lat="46.1298460" lon="10.1533700">
	<ele>1939.80</ele>
	<time>2024-09-06T08:11:07.000Z</time>
</trkpt>
<trkpt lat="46.1298520" lon="10.1533770">
	<ele>1939.80</ele>
	<time>2024-09-06T08:11:08.000Z</time>
</trkpt>
<trkpt lat="46.1298560" lon="10.1533910">
	<ele>1939.80</ele>
	<time>2024-09-06T08:11:09.000Z</time>
</trkpt>
<trkpt lat="46.1298600" lon="10.1534020">
	<ele>1939.80</ele>
	<time>2024-09-06T08:11:10.000Z</time>
</trkpt>
<trkpt lat="46.1298690" lon="10.1534140">
	<ele>1940.00</ele>
	<time>2024-09-06T08:11:11.000Z</time>
</trkpt>
<trkpt lat="46.1298820" lon="10.1534270">
	<ele>1940.20</ele>
	<time>2024-09-06T08:11:12.000Z</time>
</trkpt>
<trkpt lat="46.1298870" lon="10.1534410">
	<ele>1940.20</ele>
	<time>2024-09-06T08:11:13.000Z</time>
</trkpt>
<trkpt lat="46.1298940" lon="10.1534540">
	<ele>1940.40</ele>
	<time>2024-09-06T08:11:14.000Z</time>
</trkpt>
<trkpt lat="46.1299040" lon="10.1534610">
	<ele>1940.40</ele>
	<time>2024-09-06T08:11:15.000Z</time>
</trkpt>
<trkpt lat="46.1299150" lon="10.1534680">
	<ele>1940.60</ele>
	<time>2024-09-06T08:11:16.000Z</time>
</trkpt>
<trkpt lat="46.1299270" lon="10.1534770">
	<ele>1940.60</ele>
	<time>2024-09-06T08:11:17.000Z</time>
</trkpt>
<trkpt lat="46.1299400" lon="10.1534920">
	<ele>1940.60</ele>
	<time>2024-09-06T08:11:18.000Z</time>
</trkpt>
<trkpt lat="46.1299550" lon="10.1535090">
	<ele>1940.60</ele>
	<time>2024-09-06T08:11:19.000Z</time>
</trkpt>
<trkpt lat="46.1299640" lon="10.1535250">
	<ele>1940.60</ele>
	<time>2024-09-06T08:11:20.000Z</time>
</trkpt>
<trkpt lat="46.1299700" lon="10.1535420">
	<ele>1940.80</ele>
	<time>2024-09-06T08:11:21.000Z</time>
</trkpt>
<trkpt lat="46.1299770" lon="10.1535550">
	<ele>1940.80</ele>
	<time>2024-09-06T08:11:22.000Z</time>
</trkpt>
<trkpt lat="46.1299840" lon="10.1535650">
	<ele>1940.80</ele>
	<time>2024-09-06T08:11:23.000Z</time>
</trkpt>
<trkpt lat="46.1299880" lon="10.1535750">
	<ele>1940.80</ele>
	<time>2024-09-06T08:11:24.000Z</time>
</trkpt>
<trkpt lat="46.1299950" lon="10.1535870">
	<ele>1941.00</ele>
	<time>2024-09-06T08:11:25.000Z</time>
</trkpt>
<trkpt lat="46.1300030" lon="10.1535970">
	<ele>1941.00</ele>
	<time>2024-09-06T08:11:26.000Z</time>
</trkpt>
<trkpt lat="46.1300120" lon="10.1536030">
	<ele>1941.20</ele>
	<time>2024-09-06T08:11:27.000Z</time>
</trkpt>
<trkpt lat="46.1300210" lon="10.1536110">
	<ele>1941.20</ele>
	<time>2024-09-06T08:11:28.000Z</time>
</trkpt>
<trkpt lat="46.1300300" lon="10.1536270">
	<ele>1941.20</ele>
	<time>2024-09-06T08:11:29.000Z</time>
</trkpt>
<trkpt lat="46.1300440" lon="10.1536440">
	<ele>1941.40</ele>
	<time>2024-09-06T08:11:30.000Z</time>
</trkpt>
<trkpt lat="46.1300530" lon="10.1536580">
	<ele>1941.40</ele>
	<time>2024-09-06T08:11:31.000Z</time>
</trkpt>
<trkpt lat="46.1300630" lon="10.1536690">
	<ele>1941.60</ele>
	<time>2024-09-06T08:11:32.000Z</time>
</trkpt>
<trkpt lat="46.1300730" lon="10.1536800">
	<ele>1941.60</ele>
	<time>2024-09-06T08:11:33.000Z</time>
</trkpt>
<trkpt lat="46.1300820" lon="10.1536870">
	<ele>1941.60</ele>
	<time>2024-09-06T08:11:34.000Z</time>
</trkpt>
<trkpt lat="46.1300890" lon="10.1536940">
	<ele>1941.80</ele>
	<time>2024-09-06T08:11:35.000Z</time>
</trkpt>
<trkpt lat="46.1301020" lon="10.1536970">
	<ele>1941.80</ele>
	<time>2024-09-06T08:11:36.000Z</time>
</trkpt>
<trkpt lat="46.1301140" lon="10.1537030">
	<ele>1942.00</ele>
	<time>2024-09-06T08:11:37.000Z</time>
</trkpt>
<trkpt lat="46.1301200" lon="10.1537060">
	<ele>1942.00</ele>
	<time>2024-09-06T08:11:38.000Z</time>
</trkpt>
<trkpt lat="46.1301240" lon="10.1537090">
	<ele>1942.20</ele>
	<time>2024-09-06T08:11:39.000Z</time>
</trkpt>
<trkpt lat="46.1301340" lon="10.1537190">
	<ele>1942.40</ele>
	<time>2024-09-06T08:11:40.000Z</time>
</trkpt>
<trkpt lat="46.1301460" lon="10.1537310">
	<ele>1942.40</ele>
	<time>2024-09-06T08:11:41.000Z</time>
</trkpt>
<trkpt lat="46.1301600" lon="10.1537420">
	<ele>1942.40</ele>
	<time>2024-09-06T08:11:42.000Z</time>
</trkpt>
<trkpt lat="46.1301730" lon="10.1537520">
	<ele>1942.40</ele>
	<time>2024-09-06T08:11:43.000Z</time>
</trkpt>
<trkpt lat="46.1301830" lon="10.1537700">
	<ele>1942.40</ele>
	<time>2024-09-06T08:11:44.000Z</time>
</trkpt>
<trkpt lat="46.1301890" lon="10.1537800">
	<ele>1942.40</ele>
	<time>2024-09-06T08:11:45.000Z</time>
</trkpt>
<trkpt lat="46.1301970" lon="10.1537890">
	<ele>1942.60</ele>
	<time>2024-09-06T08:11:46.000Z</time>
</trkpt>
<trkpt lat="46.1302000" lon="10.1538010">
	<ele>1942.60</ele>
	<time>2024-09-06T08:11:47.000Z</time>
</trkpt>
<trkpt lat="46.1302120" lon="10.1538190">
	<ele>1942.80</ele>
	<time>2024-09-06T08:11:48.000Z</time>
</trkpt>
<trkpt lat="46.1302230" lon="10.1538390">
	<ele>1942.80</ele>
	<time>2024-09-06T08:11:49.000Z</time>
</trkpt>
<trkpt lat="46.1302320" lon="10.1538580">
	<ele>1942.80</ele>
	<time>2024-09-06T08:11:50.000Z</time>
</trkpt>
<trkpt lat="46.1302350" lon="10.1538660">
	<ele>1943.00</ele>
	<time>2024-09-06T08:11:51.000Z</time>
</trkpt>
<trkpt lat="46.1302440" lon="10.1538740">
	<ele>1943.00</ele>
	<time>2024-09-06T08:11:52.000Z</time>
</trkpt>
<trkpt lat="46.1302550" lon="10.1538830">
	<ele>1943.00</ele>
	<time>2024-09-06T08:11:53.000Z</time>
</trkpt>
<trkpt lat="46.1302660" lon="10.1538940">
	<ele>1943.20</ele>
	<time>2024-09-06T08:11:54.000Z</time>
</trkpt>
<trkpt lat="46.1302780" lon="10.1538990">
	<ele>1943.20</ele>
	<time>2024-09-06T08:11:55.000Z</time>
</trkpt>
<trkpt lat="46.1302840" lon="10.1539130">
	<ele>1943.40</ele>
	<time>2024-09-06T08:11:56.000Z</time>
</trkpt>
<trkpt lat="46.1302870" lon="10.1539280">
	<ele>1943.40</ele>
	<time>2024-09-06T08:11:57.000Z</time>
</trkpt>
<trkpt lat="46.1302950" lon="10.1539460">
	<ele>1943.60</ele>
	<time>2024-09-06T08:11:58.000Z</time>
</trkpt>
<trkpt lat="46.1303070" lon="10.1539540">
	<ele>1943.80</ele>
	<time>2024-09-06T08:11:59.000Z</time>
</trkpt>
<trkpt lat="46.1303200" lon="10.1539600">
	<ele>1943.80</ele>
	<time>2024-09-06T08:12:00.000Z</time>
</trkpt>
<trkpt lat="46.1303330" lon="10.1539650">
	<ele>1943.80</ele>
	<time>2024-09-06T08:12:01.000Z</time>
</trkpt>
<trkpt lat="46.1303430" lon="10.1539810">
	<ele>1943.80</ele>
	<time>2024-09-06T08:12:02.000Z</time>
</trkpt>
<trkpt lat="46.1303530" lon="10.1540000">
	<ele>1943.80</ele>
	<time>2024-09-06T08:12:03.000Z</time>
</trkpt>
<trkpt lat="46.1303740" lon="10.1540220">
	<ele>1944.00</ele>
	<time>2024-09-06T08:12:04.000Z</time>
</trkpt>
<trkpt lat="46.1303840" lon="10.1540320">
	<ele>1944.20</ele>
	<time>2024-09-06T08:12:05.000Z</time>
</trkpt>
<trkpt lat="46.1303930" lon="10.1540420">
	<ele>1944.40</ele>
	<time>2024-09-06T08:12:06.000Z</time>
</trkpt>
<trkpt lat="46.1304090" lon="10.1540600">
	<ele>1944.60</ele>
	<time>2024-09-06T08:12:07.000Z</time>
</trkpt>
<trkpt lat="46.1304170" lon="10.1540740">
	<ele>1944.60</ele>
	<time>2024-09-06T08:12:08.000Z</time>
</trkpt>
<trkpt lat="46.1304280" lon="10.1540810">
	<ele>1944.60</ele>
	<time>2024-09-06T08:12:09.000Z</time>
</trkpt>
<trkpt lat="46.1304400" lon="10.1540930">
	<ele>1944.80</ele>
	<time>2024-09-06T08:12:10.000Z</time>
</trkpt>
<trkpt lat="46.1304510" lon="10.1541050">
	<ele>1944.80</ele>
	<time>2024-09-06T08:12:11.000Z</time>
</trkpt>
<trkpt lat="46.1304640" lon="10.1541210">
	<ele>1944.80</ele>
	<time>2024-09-06T08:12:12.000Z</time>
</trkpt>
<trkpt lat="46.1304700" lon="10.1541290">
	<ele>1945.00</ele>
	<time>2024-09-06T08:12:13.000Z</time>
</trkpt>
<trkpt lat="46.1304730" lon="10.1541380">
	<ele>1945.00</ele>
	<time>2024-09-06T08:12:14.000Z</time>
</trkpt>
<trkpt lat="46.1304820" lon="10.1541510">
	<ele>1945.20</ele>
	<time>2024-09-06T08:12:15.000Z</time>
</trkpt>
<trkpt lat="46.1304850" lon="10.1541670">
	<ele>1945.20</ele>
	<time>2024-09-06T08:12:16.000Z</time>
</trkpt>
<trkpt lat="46.1304980" lon="10.1541820">
	<ele>1945.20</ele>
	<time>2024-09-06T08:12:17.000Z</time>
</trkpt>
<trkpt lat="46.1305060" lon="10.1541950">
	<ele>1945.20</ele>
	<time>2024-09-06T08:12:18.000Z</time>
</trkpt>
<trkpt lat="46.1305120" lon="10.1542050">
	<ele>1945.20</ele>
	<time>2024-09-06T08:12:19.000Z</time>
</trkpt>
<trkpt lat="46.1305220" lon="10.1542170">
	<ele>1945.40</ele>
	<time>2024-09-06T08:12:20.000Z</time>
</trkpt>
<trkpt lat="46.1305350" lon="10.1542280">
	<ele>1945.40</ele>
	<time>2024-09-06T08:12:21.000Z</time>
</trkpt>
<trkpt lat="46.1305420" lon="10.1542390">
	<ele>1945.60</ele>
	<time>2024-09-06T08:12:22.000Z</time>
</trkpt>
<trkpt lat="46.1305510" lon="10.1542520">
	<ele>1945.80</ele>
	<time>2024-09-06T08:12:23.000Z</time>
</trkpt>
<trkpt lat="46.1305590" lon="10.1542630">
	<ele>1946.00</ele>
	<time>2024-09-06T08:12:24.000Z</time>
</trkpt>
<trkpt lat="46.1305690" lon="10.1542760">
	<ele>1946.00</ele>
	<time>2024-09-06T08:12:25.000Z</time>
</trkpt>
<trkpt lat="46.1305820" lon="10.1542880">
	<ele>1946.20</ele>
	<time>2024-09-06T08:12:26.000Z</time>
</trkpt>
<trkpt lat="46.1305910" lon="10.1542960">
	<ele>1946.20</ele>
	<time>2024-09-06T08:12:27.000Z</time>
</trkpt>
<trkpt lat="46.1305970" lon="10.1543080">
	<ele>1946.20</ele>
	<time>2024-09-06T08:12:28.000Z</time>
</trkpt>
<trkpt lat="46.1306070" lon="10.1543240">
	<ele>1946.20</ele>
	<time>2024-09-06T08:12:29.000Z</time>
</trkpt>
<trkpt lat="46.1306150" lon="10.1543350">
	<ele>1946.20</ele>
	<time>2024-09-06T08:12:30.000Z</time>
</trkpt>
<trkpt lat="46.1306190" lon="10.1543420">
	<ele>1946.40</ele>
	<time>2024-09-06T08:12:31.000Z</time>
</trkpt>
<trkpt lat="46.1306280" lon="10.1543520">
	<ele>1946.40</ele>
	<time>2024-09-06T08:12:32.000Z</time>
</trkpt>
<trkpt lat="46.1306370" lon="10.1543600">
	<ele>1946.40</ele>
	<time>2024-09-06T08:12:33.000Z</time>
</trkpt>
<trkpt lat="46.1306430" lon="10.1543670">
	<ele>1946.40</ele>
	<time>2024-09-06T08:12:34.000Z</time>
</trkpt>
<trkpt lat="46.1306500" lon="10.1543800">
	<ele>1946.60</ele>
	<time>2024-09-06T08:12:35.000Z</time>
</trkpt>
<trkpt lat="46.1306570" lon="10.1543890">
	<ele>1946.60</ele>
	<time>2024-09-06T08:12:36.000Z</time>
</trkpt>
<trkpt lat="46.1306640" lon="10.1544040">
	<ele>1946.60</ele>
	<time>2024-09-06T08:12:37.000Z</time>
</trkpt>
<trkpt lat="46.1306680" lon="10.1544160">
	<ele>1946.80</ele>
	<time>2024-09-06T08:12:38.000Z</time>
</trkpt>
<trkpt lat="46.1306770" lon="10.1544240">
	<ele>1947.00</ele>
	<time>2024-09-06T08:12:39.000Z</time>
</trkpt>
<trkpt lat="46.1306830" lon="10.1544290">
	<ele>1947.00</ele>
	<time>2024-09-06T08:12:40.000Z</time>
</trkpt>
<trkpt lat="46.1306900" lon="10.1544420">
	<ele>1947.20</ele>
	<time>2024-09-06T08:12:41.000Z</time>
</trkpt>
<trkpt lat="46.1307030" lon="10.1544540">
	<ele>1947.20</ele>
	<time>2024-09-06T08:12:42.000Z</time>
</trkpt>
<trkpt lat="46.1307130" lon="10.1544680">
	<ele>1947.20</ele>
	<time>2024-09-06T08:12:43.000Z</time>
</trkpt>
<trkpt lat="46.1307270" lon="10.1544770">
	<ele>1947.40</ele>
	<time>2024-09-06T08:12:44.000Z</time>
</trkpt>
<trkpt lat="46.1307360" lon="10.1544870">
	<ele>1947.40</ele>
	<time>2024-09-06T08:12:45.000Z</time>
</trkpt>
<trkpt lat="46.1307470" lon="10.1545030">
	<ele>1947.40</ele>
	<time>2024-09-06T08:12:46.000Z</time>
</trkpt>
<trkpt lat="46.1307540" lon="10.1545200">
	<ele>1947.40</ele>
	<time>2024-09-06T08:12:47.000Z</time>
</trkpt>
<trkpt lat="46.1307660" lon="10.1545340">
	<ele>1947.60</ele>
	<time>2024-09-06T08:12:48.000Z</time>
</trkpt>
<trkpt lat="46.1307780" lon="10.1545470">
	<ele>1947.60</ele>
	<time>2024-09-06T08:12:49.000Z</time>
</trkpt>
<trkpt lat="46.1307900" lon="10.1545570">
	<ele>1947.80</ele>
	<time>2024-09-06T08:12:50.000Z</time>
</trkpt>
<trkpt lat="46.1307960" lon="10.1545690">
	<ele>1947.80</ele>
	<time>2024-09-06T08:12:51.000Z</time>
</trkpt>
<trkpt lat="46.1308080" lon="10.1545750">
	<ele>1948.00</ele>
	<time>2024-09-06T08:12:52.000Z</time>
</trkpt>
<trkpt lat="46.1308210" lon="10.1545820">
	<ele>1948.00</ele>
	<time>2024-09-06T08:12:53.000Z</time>
</trkpt>
<trkpt lat="46.1308330" lon="10.1545920">
	<ele>1948.20</ele>
	<time>2024-09-06T08:12:54.000Z</time>
</trkpt>
<trkpt lat="46.1308480" lon="10.1546070">
	<ele>1948.20</ele>
	<time>2024-09-06T08:12:55.000Z</time>
</trkpt>
<trkpt lat="46.1308560" lon="10.1546190">
	<ele>1948.40</ele>
	<time>2024-09-06T08:12:56.000Z</time>
</trkpt>
<trkpt lat="46.1308660" lon="10.1546310">
	<ele>1948.40</ele>
	<time>2024-09-06T08:12:57.000Z</time>
</trkpt>
<trkpt lat="46.1308710" lon="10.1546450">
	<ele>1948.40</ele>
	<time>2024-09-06T08:12:58.000Z</time>
</trkpt>
<trkpt lat="46.1308790" lon="10.1546580">
	<ele>1948.40</ele>
	<time>2024-09-06T08:12:59.000Z</time>
</trkpt>
<trkpt lat="46.1308910" lon="10.1546670">
	<ele>1948.40</ele>
	<time>2024-09-06T08:13:00.000Z</time>
</trkpt>
<trkpt lat="46.1309030" lon="10.1546810">
	<ele>1948.40</ele>
	<time>2024-09-06T08:13:01.000Z</time>
</trkpt>
<trkpt lat="46.1309100" lon="10.1546920">
	<ele>1948.40</ele>
	<time>2024-09-06T08:13:02.000Z</time>
</trkpt>
<trkpt lat="46.1309220" lon="10.1547060">
	<ele>1948.40</ele>
	<time>2024-09-06T08:13:03.000Z</time>
</trkpt>
<trkpt lat="46.1309400" lon="10.1547190">
	<ele>1948.60</ele>
	<time>2024-09-06T08:13:04.000Z</time>
</trkpt>
<trkpt lat="46.1309500" lon="10.1547280">
	<ele>1948.60</ele>
	<time>2024-09-06T08:13:05.000Z</time>
</trkpt>
<trkpt lat="46.1309630" lon="10.1547410">
	<ele>1948.80</ele>
	<time>2024-09-06T08:13:06.000Z</time>
</trkpt>
<trkpt lat="46.1309680" lon="10.1547550">
	<ele>1948.80</ele>
	<time>2024-09-06T08:13:07.000Z</time>
</trkpt>
<trkpt lat="46.1309750" lon="10.1547660">
	<ele>1949.00</ele>
	<time>2024-09-06T08:13:08.000Z</time>
</trkpt>
<trkpt lat="46.1309890" lon="10.1547790">
	<ele>1949.20</ele>
	<time>2024-09-06T08:13:09.000Z</time>
</trkpt>
<trkpt lat="46.1309970" lon="10.1547880">
	<ele>1949.20</ele>
	<time>2024-09-06T08:13:10.000Z</time>
</trkpt>
<trkpt lat="46.1310070" lon="10.1547980">
	<ele>1949.20</ele>
	<time>2024-09-06T08:13:11.000Z</time>
</trkpt>
<trkpt lat="46.1310150" lon="10.1548020">
	<ele>1949.40</ele>
	<time>2024-09-06T08:13:12.000Z</time>
</trkpt>
<trkpt lat="46.1310260" lon="10.1548100">
	<ele>1949.40</ele>
	<time>2024-09-06T08:13:13.000Z</time>
</trkpt>
<trkpt lat="46.1310330" lon="10.1548150">
	<ele>1949.40</ele>
	<time>2024-09-06T08:13:14.000Z</time>
</trkpt>
<trkpt lat="46.1310450" lon="10.1548280">
	<ele>1949.40</ele>
	<time>2024-09-06T08:13:15.000Z</time>
</trkpt>
<trkpt lat="46.1310560" lon="10.1548400">
	<ele>1949.40</ele>
	<time>2024-09-06T08:13:16.000Z</time>
</trkpt>
<trkpt lat="46.1310700" lon="10.1548510">
	<ele>1949.60</ele>
	<time>2024-09-06T08:13:17.000Z</time>
</trkpt>
<trkpt lat="46.1310830" lon="10.1548630">
	<ele>1949.60</ele>
	<time>2024-09-06T08:13:18.000Z</time>
</trkpt>
<trkpt lat="46.1310950" lon="10.1548700">
	<ele>1949.80</ele>
	<time>2024-09-06T08:13:19.000Z</time>
</trkpt>
<trkpt lat="46.1311010" lon="10.1548780">
	<ele>1949.80</ele>
	<time>2024-09-06T08:13:20.000Z</time>
</trkpt>
<trkpt lat="46.1311080" lon="10.1548880">
	<ele>1949.80</ele>
	<time>2024-09-06T08:13:21.000Z</time>
</trkpt>
<trkpt lat="46.1311140" lon="10.1549030">
	<ele>1950.00</ele>
	<time>2024-09-06T08:13:22.000Z</time>
</trkpt>
<trkpt lat="46.1311160" lon="10.1549170">
	<ele>1950.00</ele>
	<time>2024-09-06T08:13:23.000Z</time>
</trkpt>
<trkpt lat="46.1311210" lon="10.1549280">
	<ele>1950.00</ele>
	<time>2024-09-06T08:13:24.000Z</time>
</trkpt>
<trkpt lat="46.1311210" lon="10.1549480">
	<ele>1950.20</ele>
	<time>2024-09-06T08:13:25.000Z</time>
</trkpt>
<trkpt lat="46.1311260" lon="10.1549600">
	<ele>1950.40</ele>
	<time>2024-09-06T08:13:26.000Z</time>
</trkpt>
<trkpt lat="46.1311380" lon="10.1549760">
	<ele>1950.40</ele>
	<time>2024-09-06T08:13:27.000Z</time>
</trkpt>
<trkpt lat="46.1311500" lon="10.1549880">
	<ele>1950.40</ele>
	<time>2024-09-06T08:13:28.000Z</time>
</trkpt>
<trkpt lat="46.1311630" lon="10.1550000">
	<ele>1950.60</ele>
	<time>2024-09-06T08:13:29.000Z</time>
</trkpt>
<trkpt lat="46.1311760" lon="10.1550150">
	<ele>1950.60</ele>
	<time>2024-09-06T08:13:30.000Z</time>
</trkpt>
<trkpt lat="46.1311840" lon="10.1550320">
	<ele>1950.60</ele>
	<time>2024-09-06T08:13:31.000Z</time>
</trkpt>
<trkpt lat="46.1311880" lon="10.1550500">
	<ele>1950.60</ele>
	<time>2024-09-06T08:13:32.000Z</time>
</trkpt>
<trkpt lat="46.1311920" lon="10.1550650">
	<ele>1950.60</ele>
	<time>2024-09-06T08:13:33.000Z</time>
</trkpt>
<trkpt lat="46.1311970" lon="10.1550780">
	<ele>1950.80</ele>
	<time>2024-09-06T08:13:34.000Z</time>
</trkpt>
<trkpt lat="46.1312050" lon="10.1550920">
	<ele>1950.80</ele>
	<time>2024-09-06T08:13:35.000Z</time>
</trkpt>
<trkpt lat="46.1312100" lon="10.1551070">
	<ele>1950.80</ele>
	<time>2024-09-06T08:13:36.000Z</time>
</trkpt>
<trkpt lat="46.1312110" lon="10.1551230">
	<ele>1950.80</ele>
	<time>2024-09-06T08:13:37.000Z</time>
</trkpt>
<trkpt lat="46.1312150" lon="10.1551370">
	<ele>1951.00</ele>
	<time>2024-09-06T08:13:38.000Z</time>
</trkpt>
<trkpt lat="46.1312160" lon="10.1551490">
	<ele>1951.20</ele>
	<time>2024-09-06T08:13:39.000Z</time>
</trkpt>
<trkpt lat="46.1312250" lon="10.1551630">
	<ele>1951.20</ele>
	<time>2024-09-06T08:13:40.000Z</time>
</trkpt>
<trkpt lat="46.1312350" lon="10.1551730">
	<ele>1951.20</ele>
	<time>2024-09-06T08:13:41.000Z</time>
</trkpt>
<trkpt lat="46.1312380" lon="10.1551900">
	<ele>1951.20</ele>
	<time>2024-09-06T08:13:42.000Z</time>
</trkpt>
<trkpt lat="46.1312460" lon="10.1551990">
	<ele>1951.20</ele>
	<time>2024-09-06T08:13:43.000Z</time>
</trkpt>
<trkpt lat="46.1312520" lon="10.1552120">
	<ele>1951.20</ele>
	<time>2024-09-06T08:13:44.000Z</time>
</trkpt>
<trkpt lat="46.1312630" lon="10.1552270">
	<ele>1951.40</ele>
	<time>2024-09-06T08:13:45.000Z</time>
</trkpt>
<trkpt lat="46.1312690" lon="10.1552400">
	<ele>1951.40</ele>
	<time>2024-09-06T08:13:46.000Z</time>
</trkpt>
<trkpt lat="46.1312760" lon="10.1552540">
	<ele>1951.40</ele>
	<time>2024-09-06T08:13:47.000Z</time>
</trkpt>
<trkpt lat="46.1312830" lon="10.1552710">
	<ele>1951.60</ele>
	<time>2024-09-06T08:13:48.000Z</time>
</trkpt>
<trkpt lat="46.1312900" lon="10.1552830">
	<ele>1951.60</ele>
	<time>2024-09-06T08:13:49.000Z</time>
</trkpt>
<trkpt lat="46.1312960" lon="10.1553020">
	<ele>1951.80</ele>
	<time>2024-09-06T08:13:50.000Z</time>
</trkpt>
<trkpt lat="46.1313070" lon="10.1553180">
	<ele>1951.80</ele>
	<time>2024-09-06T08:13:51.000Z</time>
</trkpt>
<trkpt lat="46.1313200" lon="10.1553300">
	<ele>1951.80</ele>
	<time>2024-09-06T08:13:52.000Z</time>
</trkpt>
<trkpt lat="46.1313340" lon="10.1553420">
	<ele>1952.00</ele>
	<time>2024-09-06T08:13:53.000Z</time>
</trkpt>
<trkpt lat="46.1313410" lon="10.1553540">
	<ele>1952.00</ele>
	<time>2024-09-06T08:13:54.000Z</time>
</trkpt>
<trkpt lat="46.1313480" lon="10.1553640">
	<ele>1952.00</ele>
	<time>2024-09-06T08:13:55.000Z</time>
</trkpt>
<trkpt lat="46.1313550" lon="10.1553780">
	<ele>1952.20</ele>
	<time>2024-09-06T08:13:56.000Z</time>
</trkpt>
<trkpt lat="46.1313570" lon="10.1553940">
	<ele>1952.20</ele>
	<time>2024-09-06T08:13:57.000Z</time>
</trkpt>
<trkpt lat="46.1313570" lon="10.1554120">
	<ele>1952.20</ele>
	<time>2024-09-06T08:13:58.000Z</time>
</trkpt>
<trkpt lat="46.1313610" lon="10.1554320">
	<ele>1952.20</ele>
	<time>2024-09-06T08:13:59.000Z</time>
</trkpt>
<trkpt lat="46.1313660" lon="10.1554490">
	<ele>1952.20</ele>
	<time>2024-09-06T08:14:00.000Z</time>
</trkpt>
<trkpt lat="46.1313730" lon="10.1554640">
	<ele>1952.40</ele>
	<time>2024-09-06T08:14:01.000Z</time>
</trkpt>
<trkpt lat="46.1313790" lon="10.1554760">
	<ele>1952.40</ele>
	<time>2024-09-06T08:14:02.000Z</time>
</trkpt>
<trkpt lat="46.1313800" lon="10.1554890">
	<ele>1952.60</ele>
	<time>2024-09-06T08:14:03.000Z</time>
</trkpt>
<trkpt lat="46.1313820" lon="10.1555020">
	<ele>1952.60</ele>
	<time>2024-09-06T08:14:04.000Z</time>
</trkpt>
<trkpt lat="46.1313840" lon="10.1555170">
	<ele>1952.80</ele>
	<time>2024-09-06T08:14:05.000Z</time>
</trkpt>
<trkpt lat="46.1313850" lon="10.1555370">
	<ele>1952.80</ele>
	<time>2024-09-06T08:14:06.000Z</time>
</trkpt>
<trkpt lat="46.1313840" lon="10.1555540">
	<ele>1953.00</ele>
	<time>2024-09-06T08:14:07.000Z</time>
</trkpt>
<trkpt lat="46.1313810" lon="10.1555720">
	<ele>1953.00</ele>
	<time>2024-09-06T08:14:08.000Z</time>
</trkpt>
<trkpt lat="46.1313800" lon="10.1555860">
	<ele>1953.00</ele>
	<time>2024-09-06T08:14:09.000Z</time>
</trkpt>
<trkpt lat="46.1313810" lon="10.1556000">
	<ele>1953.00</ele>
	<time>2024-09-06T08:14:10.000Z</time>
</trkpt>
<trkpt lat="46.1313840" lon="10.1556150">
	<ele>1953.20</ele>
	<time>2024-09-06T08:14:11.000Z</time>
</trkpt>
<trkpt lat="46.1313830" lon="10.1556330">
	<ele>1953.20</ele>
	<time>2024-09-06T08:14:12.000Z</time>
</trkpt>
<trkpt lat="46.1313870" lon="10.1556490">
	<ele>1953.40</ele>
	<time>2024-09-06T08:14:13.000Z</time>
</trkpt>
<trkpt lat="46.1313920" lon="10.1556670">
	<ele>1953.40</ele>
	<time>2024-09-06T08:14:14.000Z</time>
</trkpt>
<trkpt lat="46.1313940" lon="10.1556830">
	<ele>1953.40</ele>
	<time>2024-09-06T08:14:15.000Z</time>
</trkpt>
<trkpt lat="46.1314060" lon="10.1557040">
	<ele>1953.40</ele>
	<time>2024-09-06T08:14:16.000Z</time>
</trkpt>
<trkpt lat="46.1314110" lon="10.1557270">
	<ele>1953.40</ele>
	<time>2024-09-06T08:14:17.000Z</time>
</trkpt>
<trkpt lat="46.1314080" lon="10.1557460">
	<ele>1953.40</ele>
	<time>2024-09-06T08:14:18.000Z</time>
</trkpt>
<trkpt lat="46.1314040" lon="10.1557580">
	<ele>1953.40</ele>
	<time>2024-09-06T08:14:19.000Z</time>
</trkpt>
<trkpt lat="46.1313990" lon="10.1557760">
	<ele>1953.40</ele>
	<time>2024-09-06T08:14:20.000Z</time>
</trkpt>
<trkpt lat="46.1313930" lon="10.1557870">
	<ele>1953.60</ele>
	<time>2024-09-06T08:14:21.000Z</time>
</trkpt>
<trkpt lat="46.1313820" lon="10.1557990">
	<ele>1953.60</ele>
	<time>2024-09-06T08:14:22.000Z</time>
</trkpt>
<trkpt lat="46.1313760" lon="10.1558160">
	<ele>1953.80</ele>
	<time>2024-09-06T08:14:23.000Z</time>
</trkpt>
<trkpt lat="46.1313730" lon="10.1558270">
	<ele>1953.80</ele>
	<time>2024-09-06T08:14:24.000Z</time>
</trkpt>
<trkpt lat="46.1313590" lon="10.1558350">
	<ele>1953.80</ele>
	<time>2024-09-06T08:14:25.000Z</time>
</trkpt>
<trkpt lat="46.1313400" lon="10.1558430">
	<ele>1954.00</ele>
	<time>2024-09-06T08:14:26.000Z</time>
</trkpt>
<trkpt lat="46.1313280" lon="10.1558490">
	<ele>1954.00</ele>
	<time>2024-09-06T08:14:27.000Z</time>
</trkpt>
<trkpt lat="46.1313150" lon="10.1558540">
	<ele>1954.20</ele>
	<time>2024-09-06T08:14:28.000Z</time>
</trkpt>
<trkpt lat="46.1313000" lon="10.1558650">
	<ele>1954.20</ele>
	<time>2024-09-06T08:14:29.000Z</time>
</trkpt>
<trkpt lat="46.1312910" lon="10.1558760">
	<ele>1954.20</ele>
	<time>2024-09-06T08:14:30.000Z</time>
</trkpt>
<trkpt lat="46.1312790" lon="10.1558900">
	<ele>1954.20</ele>
	<time>2024-09-06T08:14:31.000Z</time>
</trkpt>
<trkpt lat="46.1312770" lon="10.1559020">
	<ele>1954.20</ele>
	<time>2024-09-06T08:14:32.000Z</time>
</trkpt>
<trkpt lat="46.1312830" lon="10.1559120">
	<ele>1954.20</ele>
	<time>2024-09-06T08:14:33.000Z</time>
</trkpt>
<trkpt lat="46.1312930" lon="10.1559190">
	<ele>1954.20</ele>
	<time>2024-09-06T08:14:34.000Z</time>
</trkpt>
<trkpt lat="46.1313050" lon="10.1559180">
	<ele>1954.20</ele>
	<time>2024-09-06T08:14:35.000Z</time>
</trkpt>
<trkpt lat="46.1313160" lon="10.1559090">
	<ele>1954.20</ele>
	<time>2024-09-06T08:14:36.000Z</time>
</trkpt>
<trkpt lat="46.1313280" lon="10.1558990">
	<ele>1954.20</ele>
	<time>2024-09-06T08:14:37.000Z</time>
</trkpt>
<trkpt lat="46.1313410" lon="10.1558880">
	<ele>1954.20</ele>
	<time>2024-09-06T08:14:38.000Z</time>
</trkpt>
<trkpt lat="46.1313510" lon="10.1558770">
	<ele>1954.20</ele>
	<time>2024-09-06T08:14:39.000Z</time>
</trkpt>
<trkpt lat="46.1313630" lon="10.1558660">
	<ele>1954.20</ele>
	<time>2024-09-06T08:14:40.000Z</time>
</trkpt>
<trkpt lat="46.1313710" lon="10.1558560">
	<ele>1954.20</ele>
	<time>2024-09-06T08:14:41.000Z</time>
</trkpt>
<trkpt lat="46.1313770" lon="10.1558450">
	<ele>1954.20</ele>
	<time>2024-09-06T08:14:42.000Z</time>
</trkpt>
<trkpt lat="46.1313840" lon="10.1558350">
	<ele>1954.20</ele>
	<time>2024-09-06T08:14:43.000Z</time>
</trkpt>
<trkpt lat="46.1313920" lon="10.1558280">
	<ele>1954.00</ele>
	<time>2024-09-06T08:14:44.000Z</time>
</trkpt>
<trkpt lat="46.1314020" lon="10.1558220">
	<ele>1954.00</ele>
	<time>2024-09-06T08:14:45.000Z</time>
</trkpt>
<trkpt lat="46.1314080" lon="10.1558160">
	<ele>1954.00</ele>
	<time>2024-09-06T08:14:46.000Z</time>
</trkpt>
<trkpt lat="46.1314150" lon="10.1558110">
	<ele>1954.00</ele>
	<time>2024-09-06T08:14:47.000Z</time>
</trkpt>
<trkpt lat="46.1314210" lon="10.1557970">
	<ele>1953.80</ele>
	<time>2024-09-06T08:14:48.000Z</time>
</trkpt>
<trkpt lat="46.1314190" lon="10.1557820">
	<ele>1953.80</ele>
	<time>2024-09-06T08:14:49.000Z</time>
</trkpt>
<trkpt lat="46.1314220" lon="10.1557690">
	<ele>1953.80</ele>
	<time>2024-09-06T08:14:50.000Z</time>
</trkpt>
<trkpt lat="46.1314240" lon="10.1557530">
	<ele>1953.60</ele>
	<time>2024-09-06T08:14:51.000Z</time>
</trkpt>
<trkpt lat="46.1314270" lon="10.1557350">
	<ele>1953.60</ele>
	<time>2024-09-06T08:14:52.000Z</time>
</trkpt>
<trkpt lat="46.1314300" lon="10.1557160">
	<ele>1953.60</ele>
	<time>2024-09-06T08:14:53.000Z</time>
</trkpt>
<trkpt lat="46.1314330" lon="10.1556990">
	<ele>1953.60</ele>
	<time>2024-09-06T08:14:54.000Z</time>
</trkpt>
<trkpt lat="46.1314340" lon="10.1556870">
	<ele>1953.60</ele>
	<time>2024-09-06T08:14:55.000Z</time>
</trkpt>
<trkpt lat="46.1314340" lon="10.1556720">
	<ele>1953.40</ele>
	<time>2024-09-06T08:14:56.000Z</time>
</trkpt>
<trkpt lat="46.1314330" lon="10.1556560">
	<ele>1953.40</ele>
	<time>2024-09-06T08:14:57.000Z</time>
</trkpt>
<trkpt lat="46.1314310" lon="10.1556430">
	<ele>1953.40</ele>
	<time>2024-09-06T08:14:58.000Z</time>
</trkpt>
<trkpt lat="46.1314290" lon="10.1556330">
	<ele>1953.40</ele>
	<time>2024-09-06T08:14:59.000Z</time>
</trkpt>
<trkpt lat="46.1314250" lon="10.1556260">
	<ele>1953.40</ele>
	<time>2024-09-06T08:15:00.000Z</time>
</trkpt>
<trkpt lat="46.1314230" lon="10.1556230">
	<ele>1953.20</ele>
	<time>2024-09-06T08:15:01.000Z</time>
</trkpt>
<trkpt lat="46.1314220" lon="10.1556220">
	<ele>1953.20</ele>
	<time>2024-09-06T08:15:02.000Z</time>
</trkpt>
<trkpt lat="46.1314210" lon="10.1556220">
	<ele>1953.20</ele>
	<time>2024-09-06T08:15:03.000Z</time>
</trkpt>
<trkpt lat="46.1314210" lon="10.1556220">
	<ele>1953.20</ele>
	<time>2024-09-06T08:15:04.000Z</time>
</trkpt>
<trkpt lat="46.1314210" lon="10.1556220">
	<ele>1953.20</ele>
	<time>2024-09-06T08:15:05.000Z</time>
</trkpt>
<trkpt lat="46.1314210" lon="10.1556220">
	<ele>1953.20</ele>
	<time>2024-09-06T08:15:06.000Z</time>
</trkpt>
<trkpt lat="46.1314210" lon="10.1556210">
	<ele>1953.20</ele>
	<time>2024-09-06T08:15:07.000Z</time>
</trkpt>
<trkpt lat="46.1314200" lon="10.1556210">
	<ele>1953.20</ele>
	<time>2024-09-06T08:15:08.000Z</time>
</trkpt>
<trkpt lat="46.1314190" lon="10.1556200">
	<ele>1953.20</ele>
	<time>2024-09-06T08:15:09.000Z</time>
</trkpt>
<trkpt lat="46.1314190" lon="10.1556210">
	<ele>1953.40</ele>
	<time>2024-09-06T08:15:10.000Z</time>
</trkpt>
<trkpt lat="46.1314190" lon="10.1556210">
	<ele>1953.40</ele>
	<time>2024-09-06T08:15:11.000Z</time>
</trkpt>
<trkpt lat="46.1314190" lon="10.1556210">
	<ele>1953.40</ele>
	<time>2024-09-06T08:15:12.000Z</time>
</trkpt>
<trkpt lat="46.1314190" lon="10.1556210">
	<ele>1953.60</ele>
	<time>2024-09-06T08:15:13.000Z</time>
</trkpt>
<trkpt lat="46.1314190" lon="10.1556210">
	<ele>1953.60</ele>
	<time>2024-09-06T08:15:14.000Z</time>
</trkpt>
<trkpt lat="46.1314190" lon="10.1556210">
	<ele>1953.60</ele>
	<time>2024-09-06T08:15:15.000Z</time>
</trkpt>
<trkpt lat="46.1314190" lon="10.1556210">
	<ele>1953.80</ele>
	<time>2024-09-06T08:15:16.000Z</time>
</trkpt>
<trkpt lat="46.1314190" lon="10.1556210">
	<ele>1953.80</ele>
	<time>2024-09-06T08:15:17.000Z</time>
</trkpt>
<trkpt lat="46.1314190" lon="10.1556210">
	<ele>1953.80</ele>
	<time>2024-09-06T08:15:18.000Z</time>
</trkpt>
<trkpt lat="46.1314190" lon="10.1556210">
	<ele>1953.80</ele>
	<time>2024-09-06T08:15:19.000Z</time>
</trkpt>
<trkpt lat="46.1314190" lon="10.1556210">
	<ele>1953.80</ele>
	<time>2024-09-06T08:15:20.000Z</time>
</trkpt>
<trkpt lat="46.1314190" lon="10.1556210">
	<ele>1953.60</ele>
	<time>2024-09-06T08:15:21.000Z</time>
</trkpt>
<trkpt lat="46.1314180" lon="10.1556260">
	<ele>1953.60</ele>
	<time>2024-09-06T08:15:22.000Z</time>
</trkpt>
<trkpt lat="46.1314110" lon="10.1556480">
	<ele>1953.40</ele>
	<time>2024-09-06T08:15:23.000Z</time>
</trkpt>
<trkpt lat="46.1314050" lon="10.1556690">
	<ele>1953.40</ele>
	<time>2024-09-06T08:15:24.000Z</time>
</trkpt>
<trkpt lat="46.1314000" lon="10.1556880">
	<ele>1953.40</ele>
	<time>2024-09-06T08:15:25.000Z</time>
</trkpt>
<trkpt lat="46.1313950" lon="10.1557070">
	<ele>1953.40</ele>
	<time>2024-09-06T08:15:26.000Z</time>
</trkpt>
<trkpt lat="46.1313910" lon="10.1557310">
	<ele>1953.40</ele>
	<time>2024-09-06T08:15:27.000Z</time>
</trkpt>
<trkpt lat="46.1313850" lon="10.1557490">
	<ele>1953.40</ele>
	<time>2024-09-06T08:15:28.000Z</time>
</trkpt>
<trkpt lat="46.1313770" lon="10.1557690">
	<ele>1953.60</ele>
	<time>2024-09-06T08:15:29.000Z</time>
</trkpt>
<trkpt lat="46.1313690" lon="10.1557870">
	<ele>1953.60</ele>
	<time>2024-09-06T08:15:30.000Z</time>
</trkpt>
<trkpt lat="46.1313580" lon="10.1558060">
	<ele>1953.60</ele>
	<time>2024-09-06T08:15:31.000Z</time>
</trkpt>
<trkpt lat="46.1313520" lon="10.1558190">
	<ele>1953.80</ele>
	<time>2024-09-06T08:15:32.000Z</time>
</trkpt>
<trkpt lat="46.1313450" lon="10.1558290">
	<ele>1954.00</ele>
	<time>2024-09-06T08:15:33.000Z</time>
</trkpt>
<trkpt lat="46.1313380" lon="10.1558400">
	<ele>1954.00</ele>
	<time>2024-09-06T08:15:34.000Z</time>
</trkpt>
<trkpt lat="46.1313290" lon="10.1558490">
	<ele>1954.00</ele>
	<time>2024-09-06T08:15:35.000Z</time>
</trkpt>
<trkpt lat="46.1313190" lon="10.1558600">
	<ele>1954.20</ele>
	<time>2024-09-06T08:15:36.000Z</time>
</trkpt>
<trkpt lat="46.1313130" lon="10.1558730">
	<ele>1954.20</ele>
	<time>2024-09-06T08:15:37.000Z</time>
</trkpt>
<trkpt lat="46.1313060" lon="10.1558850">
	<ele>1954.20</ele>
	<time>2024-09-06T08:15:38.000Z</time>
</trkpt>
<trkpt lat="46.1312980" lon="10.1558970">
	<ele>1954.40</ele>
	<time>2024-09-06T08:15:39.000Z</time>
</trkpt>
<trkpt lat="46.1312860" lon="10.1559110">
	<ele>1954.40</ele>
	<time>2024-09-06T08:15:40.000Z</time>
</trkpt>
<trkpt lat="46.1312740" lon="10.1559230">
	<ele>1954.40</ele>
	<time>2024-09-06T08:15:41.000Z</time>
</trkpt>
<trkpt lat="46.1312660" lon="10.1559380">
	<ele>1954.40</ele>
	<time>2024-09-06T08:15:42.000Z</time>
</trkpt>
<trkpt lat="46.1312580" lon="10.1559540">
	<ele>1954.40</ele>
	<time>2024-09-06T08:15:43.000Z</time>
</trkpt>
<trkpt lat="46.1312470" lon="10.1559640">
	<ele>1954.40</ele>
	<time>2024-09-06T08:15:44.000Z</time>
</trkpt>
<trkpt lat="46.1312290" lon="10.1559680">
	<ele>1954.60</ele>
	<time>2024-09-06T08:15:45.000Z</time>
</trkpt>
<trkpt lat="46.1312120" lon="10.1559760">
	<ele>1954.60</ele>
	<time>2024-09-06T08:15:46.000Z</time>
</trkpt>
<trkpt lat="46.1312030" lon="10.1559840">
	<ele>1954.60</ele>
	<time>2024-09-06T08:15:47.000Z</time>
</trkpt>
<trkpt lat="46.1311930" lon="10.1559940">
	<ele>1954.60</ele>
	<time>2024-09-06T08:15:48.000Z</time>
</trkpt>
<trkpt lat="46.1311770" lon="10.1559970">
	<ele>1954.60</ele>
	<time>2024-09-06T08:15:49.000Z</time>
</trkpt>
<trkpt lat="46.1311640" lon="10.1560130">
	<ele>1954.60</ele>
	<time>2024-09-06T08:15:50.000Z</time>
</trkpt>
<trkpt lat="46.1311480" lon="10.1560270">
	<ele>1954.80</ele>
	<time>2024-09-06T08:15:51.000Z</time>
</trkpt>
<trkpt lat="46.1311380" lon="10.1560390">
	<ele>1954.80</ele>
	<time>2024-09-06T08:15:52.000Z</time>
</trkpt>
<trkpt lat="46.1311300" lon="10.1560550">
	<ele>1954.80</ele>
	<time>2024-09-06T08:15:53.000Z</time>
</trkpt>
<trkpt lat="46.1311300" lon="10.1560690">
	<ele>1955.00</ele>
	<time>2024-09-06T08:15:54.000Z</time>
</trkpt>
<trkpt lat="46.1311260" lon="10.1560710">
	<ele>1955.00</ele>
	<time>2024-09-06T08:15:55.000Z</time>
</trkpt>
<trkpt lat="46.1311200" lon="10.1560830">
	<ele>1955.00</ele>
	<time>2024-09-06T08:15:56.000Z</time>
</trkpt>
<trkpt lat="46.1311110" lon="10.1560980">
	<ele>1955.00</ele>
	<time>2024-09-06T08:15:57.000Z</time>
</trkpt>
<trkpt lat="46.1310960" lon="10.1561110">
	<ele>1955.00</ele>
	<time>2024-09-06T08:15:58.000Z</time>
</trkpt>
<trkpt lat="46.1310740" lon="10.1561180">
	<ele>1955.20</ele>
	<time>2024-09-06T08:15:59.000Z</time>
</trkpt>
<trkpt lat="46.1310450" lon="10.1561260">
	<ele>1955.20</ele>
	<time>2024-09-06T08:16:00.000Z</time>
</trkpt>
<trkpt lat="46.1310300" lon="10.1561330">
	<ele>1955.40</ele>
	<time>2024-09-06T08:16:01.000Z</time>
</trkpt>
<trkpt lat="46.1310240" lon="10.1561430">
	<ele>1955.40</ele>
	<time>2024-09-06T08:16:02.000Z</time>
</trkpt>
<trkpt lat="46.1310230" lon="10.1561540">
	<ele>1955.40</ele>
	<time>2024-09-06T08:16:03.000Z</time>
</trkpt>
<trkpt lat="46.1310180" lon="10.1561700">
	<ele>1955.40</ele>
	<time>2024-09-06T08:16:04.000Z</time>
</trkpt>
<trkpt lat="46.1310070" lon="10.1561800">
	<ele>1955.60</ele>
	<time>2024-09-06T08:16:05.000Z</time>
</trkpt>
<trkpt lat="46.1309990" lon="10.1561920">
	<ele>1955.60</ele>
	<time>2024-09-06T08:16:06.000Z</time>
</trkpt>
<trkpt lat="46.1309930" lon="10.1562030">
	<ele>1955.60</ele>
	<time>2024-09-06T08:16:07.000Z</time>
</trkpt>
<trkpt lat="46.1309880" lon="10.1562130">
	<ele>1955.80</ele>
	<time>2024-09-06T08:16:08.000Z</time>
</trkpt>
<trkpt lat="46.1309830" lon="10.1562230">
	<ele>1955.80</ele>
	<time>2024-09-06T08:16:09.000Z</time>
</trkpt>
<trkpt lat="46.1309810" lon="10.1562330">
	<ele>1955.80</ele>
	<time>2024-09-06T08:16:10.000Z</time>
</trkpt>
<trkpt lat="46.1309760" lon="10.1562440">
	<ele>1956.00</ele>
	<time>2024-09-06T08:16:11.000Z</time>
</trkpt>
<trkpt lat="46.1309670" lon="10.1562550">
	<ele>1956.00</ele>
	<time>2024-09-06T08:16:12.000Z</time>
</trkpt>
<trkpt lat="46.1309600" lon="10.1562700">
	<ele>1956.20</ele>
	<time>2024-09-06T08:16:13.000Z</time>
</trkpt>
<trkpt lat="46.1309530" lon="10.1562830">
	<ele>1956.20</ele>
	<time>2024-09-06T08:16:14.000Z</time>
</trkpt>
<trkpt lat="46.1309470" lon="10.1562940">
	<ele>1956.20</ele>
	<time>2024-09-06T08:16:15.000Z</time>
</trkpt>
<trkpt lat="46.1309390" lon="10.1562990">
	<ele>1956.20</ele>
	<time>2024-09-06T08:16:16.000Z</time>
</trkpt>
<trkpt lat="46.1309260" lon="10.1563020">
	<ele>1956.20</ele>
	<time>2024-09-06T08:16:17.000Z</time>
</trkpt>
<trkpt lat="46.1309140" lon="10.1563090">
	<ele>1956.40</ele>
	<time>2024-09-06T08:16:18.000Z</time>
</trkpt>
<trkpt lat="46.1309020" lon="10.1563210">
	<ele>1956.60</ele>
	<time>2024-09-06T08:16:19.000Z</time>
</trkpt>
<trkpt lat="46.1308980" lon="10.1563320">
	<ele>1956.60</ele>
	<time>2024-09-06T08:16:20.000Z</time>
</trkpt>
<trkpt lat="46.1308920" lon="10.1563400">
	<ele>1956.60</ele>
	<time>2024-09-06T08:16:21.000Z</time>
</trkpt>
<trkpt lat="46.1308850" lon="10.1563490">
	<ele>1956.80</ele>
	<time>2024-09-06T08:16:22.000Z</time>
</trkpt>
<trkpt lat="46.1308820" lon="10.1563590">
	<ele>1956.80</ele>
	<time>2024-09-06T08:16:23.000Z</time>
</trkpt>
<trkpt lat="46.1308660" lon="10.1563700">
	<ele>1957.00</ele>
	<time>2024-09-06T08:16:24.000Z</time>
</trkpt>
<trkpt lat="46.1308570" lon="10.1563740">
	<ele>1957.00</ele>
	<time>2024-09-06T08:16:25.000Z</time>
</trkpt>
<trkpt lat="46.1308390" lon="10.1563870">
	<ele>1957.20</ele>
	<time>2024-09-06T08:16:26.000Z</time>
</trkpt>
<trkpt lat="46.1308280" lon="10.1563990">
	<ele>1957.20</ele>
	<time>2024-09-06T08:16:27.000Z</time>
</trkpt>
<trkpt lat="46.1308200" lon="10.1564080">
	<ele>1957.20</ele>
	<time>2024-09-06T08:16:28.000Z</time>
</trkpt>
<trkpt lat="46.1308020" lon="10.1564100">
	<ele>1957.20</ele>
	<time>2024-09-06T08:16:29.000Z</time>
</trkpt>
<trkpt lat="46.1307900" lon="10.1564210">
	<ele>1957.20</ele>
	<time>2024-09-06T08:16:30.000Z</time>
</trkpt>
<trkpt lat="46.1307830" lon="10.1564410">
	<ele>1957.40</ele>
	<time>2024-09-06T08:16:31.000Z</time>
</trkpt>
<trkpt lat="46.1307740" lon="10.1564560">
	<ele>1957.40</ele>
	<time>2024-09-06T08:16:32.000Z</time>
</trkpt>
<trkpt lat="46.1307650" lon="10.1564740">
	<ele>1957.60</ele>
	<time>2024-09-06T08:16:33.000Z</time>
</trkpt>
<trkpt lat="46.1307620" lon="10.1564930">
	<ele>1957.60</ele>
	<time>2024-09-06T08:16:34.000Z</time>
</trkpt>
<trkpt lat="46.1307460" lon="10.1565070">
	<ele>1957.80</ele>
	<time>2024-09-06T08:16:35.000Z</time>
</trkpt>
<trkpt lat="46.1307340" lon="10.1565210">
	<ele>1957.80</ele>
	<time>2024-09-06T08:16:36.000Z</time>
</trkpt>
<trkpt lat="46.1307200" lon="10.1565280">
	<ele>1957.80</ele>
	<time>2024-09-06T08:16:37.000Z</time>
</trkpt>
<trkpt lat="46.1307020" lon="10.1565400">
	<ele>1957.80</ele>
	<time>2024-09-06T08:16:38.000Z</time>
</trkpt>
<trkpt lat="46.1306890" lon="10.1565520">
	<ele>1957.80</ele>
	<time>2024-09-06T08:16:39.000Z</time>
</trkpt>
<trkpt lat="46.1306750" lon="10.1565640">
	<ele>1958.00</ele>
	<time>2024-09-06T08:16:40.000Z</time>
</trkpt>
<trkpt lat="46.1306610" lon="10.1565860">
	<ele>1958.00</ele>
	<time>2024-09-06T08:16:41.000Z</time>
</trkpt>
<trkpt lat="46.1306390" lon="10.1565930">
	<ele>1958.00</ele>
	<time>2024-09-06T08:16:42.000Z</time>
</trkpt>
<trkpt lat="46.1306260" lon="10.1566030">
	<ele>1958.00</ele>
	<time>2024-09-06T08:16:43.000Z</time>
</trkpt>
<trkpt lat="46.1306160" lon="10.1566040">
	<ele>1958.00</ele>
	<time>2024-09-06T08:16:44.000Z</time>
</trkpt>
<trkpt lat="46.1306050" lon="10.1566150">
	<ele>1958.00</ele>
	<time>2024-09-06T08:16:45.000Z</time>
</trkpt>
<trkpt lat="46.1306020" lon="10.1566250">
	<ele>1958.00</ele>
	<time>2024-09-06T08:16:46.000Z</time>
</trkpt>
<trkpt lat="46.1305960" lon="10.1566280">
	<ele>1958.20</ele>
	<time>2024-09-06T08:16:47.000Z</time>
</trkpt>
<trkpt lat="46.1305890" lon="10.1566440">
	<ele>1958.20</ele>
	<time>2024-09-06T08:16:48.000Z</time>
</trkpt>
<trkpt lat="46.1305850" lon="10.1566560">
	<ele>1958.20</ele>
	<time>2024-09-06T08:16:49.000Z</time>
</trkpt>
<trkpt lat="46.1305770" lon="10.1566770">
	<ele>1958.20</ele>
	<time>2024-09-06T08:16:50.000Z</time>
</trkpt>
<trkpt lat="46.1305810" lon="10.1566970">
	<ele>1958.40</ele>
	<time>2024-09-06T08:16:51.000Z</time>
</trkpt>
<trkpt lat="46.1305890" lon="10.1567130">
	<ele>1958.60</ele>
	<time>2024-09-06T08:16:52.000Z</time>
</trkpt>
<trkpt lat="46.1305840" lon="10.1567310">
	<ele>1958.80</ele>
	<time>2024-09-06T08:16:53.000Z</time>
</trkpt>
<trkpt lat="46.1305770" lon="10.1567470">
	<ele>1958.80</ele>
	<time>2024-09-06T08:16:54.000Z</time>
</trkpt>
<trkpt lat="46.1305710" lon="10.1567560">
	<ele>1959.00</ele>
	<time>2024-09-06T08:16:55.000Z</time>
</trkpt>
<trkpt lat="46.1305660" lon="10.1567660">
	<ele>1959.00</ele>
	<time>2024-09-06T08:16:56.000Z</time>
</trkpt>
<trkpt lat="46.1305590" lon="10.1567790">
	<ele>1959.00</ele>
	<time>2024-09-06T08:16:57.000Z</time>
</trkpt>
<trkpt lat="46.1305560" lon="10.1567880">
	<ele>1959.00</ele>
	<time>2024-09-06T08:16:58.000Z</time>
</trkpt>
<trkpt lat="46.1305530" lon="10.1568030">
	<ele>1959.00</ele>
	<time>2024-09-06T08:16:59.000Z</time>
</trkpt>
<trkpt lat="46.1305470" lon="10.1568150">
	<ele>1959.00</ele>
	<time>2024-09-06T08:17:00.000Z</time>
</trkpt>
<trkpt lat="46.1305500" lon="10.1568250">
	<ele>1959.20</ele>
	<time>2024-09-06T08:17:01.000Z</time>
</trkpt>
<trkpt lat="46.1305450" lon="10.1568390">
	<ele>1959.20</ele>
	<time>2024-09-06T08:17:02.000Z</time>
</trkpt>
<trkpt lat="46.1305420" lon="10.1568560">
	<ele>1959.20</ele>
	<time>2024-09-06T08:17:03.000Z</time>
</trkpt>
<trkpt lat="46.1305370" lon="10.1568700">
	<ele>1959.40</ele>
	<time>2024-09-06T08:17:04.000Z</time>
</trkpt>
<trkpt lat="46.1305310" lon="10.1568860">
	<ele>1959.40</ele>
	<time>2024-09-06T08:17:05.000Z</time>
</trkpt>
<trkpt lat="46.1305200" lon="10.1568980">
	<ele>1959.40</ele>
	<time>2024-09-06T08:17:06.000Z</time>
</trkpt>
<trkpt lat="46.1305210" lon="10.1569160">
	<ele>1959.40</ele>
	<time>2024-09-06T08:17:07.000Z</time>
</trkpt>
<trkpt lat="46.1305090" lon="10.1569210">
	<ele>1959.40</ele>
	<time>2024-09-06T08:17:08.000Z</time>
</trkpt>
<trkpt lat="46.1305060" lon="10.1569320">
	<ele>1959.40</ele>
	<time>2024-09-06T08:17:09.000Z</time>
</trkpt>
<trkpt lat="46.1305000" lon="10.1569430">
	<ele>1959.60</ele>
	<time>2024-09-06T08:17:10.000Z</time>
</trkpt>
<trkpt lat="46.1304880" lon="10.1569540">
	<ele>1959.60</ele>
	<time>2024-09-06T08:17:11.000Z</time>
</trkpt>
<trkpt lat="46.1304780" lon="10.1569750">
	<ele>1959.60</ele>
	<time>2024-09-06T08:17:12.000Z</time>
</trkpt>
<trkpt lat="46.1304620" lon="10.1569890">
	<ele>1959.80</ele>
	<time>2024-09-06T08:17:13.000Z</time>
</trkpt>
<trkpt lat="46.1304590" lon="10.1570040">
	<ele>1959.80</ele>
	<time>2024-09-06T08:17:14.000Z</time>
</trkpt>
<trkpt lat="46.1304560" lon="10.1570180">
	<ele>1960.00</ele>
	<time>2024-09-06T08:17:15.000Z</time>
</trkpt>
<trkpt lat="46.1304560" lon="10.1570290">
	<ele>1960.00</ele>
	<time>2024-09-06T08:17:16.000Z</time>
</trkpt>
<trkpt lat="46.1304470" lon="10.1570390">
	<ele>1960.00</ele>
	<time>2024-09-06T08:17:17.000Z</time>
</trkpt>
<trkpt lat="46.1304390" lon="10.1570490">
	<ele>1960.20</ele>
	<time>2024-09-06T08:17:18.000Z</time>
</trkpt>
<trkpt lat="46.1304310" lon="10.1570580">
	<ele>1960.20</ele>
	<time>2024-09-06T08:17:19.000Z</time>
</trkpt>
<trkpt lat="46.1304250" lon="10.1570740">
	<ele>1960.20</ele>
	<time>2024-09-06T08:17:20.000Z</time>
</trkpt>
<trkpt lat="46.1304180" lon="10.1570880">
	<ele>1960.20</ele>
	<time>2024-09-06T08:17:21.000Z</time>
</trkpt>
<trkpt lat="46.1304110" lon="10.1571010">
	<ele>1960.40</ele>
	<time>2024-09-06T08:17:22.000Z</time>
</trkpt>
<trkpt lat="46.1304020" lon="10.1571170">
	<ele>1960.40</ele>
	<time>2024-09-06T08:17:23.000Z</time>
</trkpt>
<trkpt lat="46.1303990" lon="10.1571290">
	<ele>1960.60</ele>
	<time>2024-09-06T08:17:24.000Z</time>
</trkpt>
<trkpt lat="46.1303890" lon="10.1571410">
	<ele>1960.60</ele>
	<time>2024-09-06T08:17:25.000Z</time>
</trkpt>
<trkpt lat="46.1303710" lon="10.1571510">
	<ele>1960.60</ele>
	<time>2024-09-06T08:17:26.000Z</time>
</trkpt>
<trkpt lat="46.1303600" lon="10.1571590">
	<ele>1960.80</ele>
	<time>2024-09-06T08:17:27.000Z</time>
</trkpt>
<trkpt lat="46.1303440" lon="10.1571630">
	<ele>1960.80</ele>
	<time>2024-09-06T08:17:28.000Z</time>
</trkpt>
<trkpt lat="46.1303350" lon="10.1571680">
	<ele>1960.80</ele>
	<time>2024-09-06T08:17:29.000Z</time>
</trkpt>
<trkpt lat="46.1303260" lon="10.1571760">
	<ele>1961.00</ele>
	<time>2024-09-06T08:17:30.000Z</time>
</trkpt>
<trkpt lat="46.1303150" lon="10.1571870">
	<ele>1961.00</ele>
	<time>2024-09-06T08:17:31.000Z</time>
</trkpt>
<trkpt lat="46.1303090" lon="10.1572010">
	<ele>1961.00</ele>
	<time>2024-09-06T08:17:32.000Z</time>
</trkpt>
<trkpt lat="46.1302910" lon="10.1572140">
	<ele>1961.20</ele>
	<time>2024-09-06T08:17:33.000Z</time>
</trkpt>
<trkpt lat="46.1302790" lon="10.1572240">
	<ele>1961.20</ele>
	<time>2024-09-06T08:17:34.000Z</time>
</trkpt>
<trkpt lat="46.1302650" lon="10.1572410">
	<ele>1961.40</ele>
	<time>2024-09-06T08:17:35.000Z</time>
</trkpt>
<trkpt lat="46.1302510" lon="10.1572500">
	<ele>1961.40</ele>
	<time>2024-09-06T08:17:36.000Z</time>
</trkpt>
<trkpt lat="46.1302440" lon="10.1572620">
	<ele>1961.60</ele>
	<time>2024-09-06T08:17:37.000Z</time>
</trkpt>
<trkpt lat="46.1302340" lon="10.1572690">
	<ele>1961.60</ele>
	<time>2024-09-06T08:17:38.000Z</time>
</trkpt>
<trkpt lat="46.1302280" lon="10.1572780">
	<ele>1961.60</ele>
	<time>2024-09-06T08:17:39.000Z</time>
</trkpt>
<trkpt lat="46.1302210" lon="10.1572920">
	<ele>1961.60</ele>
	<time>2024-09-06T08:17:40.000Z</time>
</trkpt>
<trkpt lat="46.1302160" lon="10.1573010">
	<ele>1961.60</ele>
	<time>2024-09-06T08:17:41.000Z</time>
</trkpt>
<trkpt lat="46.1302040" lon="10.1573110">
	<ele>1961.80</ele>
	<time>2024-09-06T08:17:42.000Z</time>
</trkpt>
<trkpt lat="46.1301890" lon="10.1573200">
	<ele>1961.80</ele>
	<time>2024-09-06T08:17:43.000Z</time>
</trkpt>
<trkpt lat="46.1301720" lon="10.1573320">
	<ele>1961.80</ele>
	<time>2024-09-06T08:17:44.000Z</time>
</trkpt>
<trkpt lat="46.1301640" lon="10.1573430">
	<ele>1962.00</ele>
	<time>2024-09-06T08:17:45.000Z</time>
</trkpt>
<trkpt lat="46.1301570" lon="10.1573580">
	<ele>1962.20</ele>
	<time>2024-09-06T08:17:46.000Z</time>
</trkpt>
<trkpt lat="46.1301590" lon="10.1573730">
	<ele>1962.20</ele>
	<time>2024-09-06T08:17:47.000Z</time>
</trkpt>
<trkpt lat="46.1301540" lon="10.1573930">
	<ele>1962.40</ele>
	<time>2024-09-06T08:17:48.000Z</time>
</trkpt>
<trkpt lat="46.1301450" lon="10.1574080">
	<ele>1962.40</ele>
	<time>2024-09-06T08:17:49.000Z</time>
</trkpt>
<trkpt lat="46.1301380" lon="10.1574170">
	<ele>1962.60</ele>
	<time>2024-09-06T08:17:50.000Z</time>
</trkpt>
<trkpt lat="46.1301280" lon="10.1574320">
	<ele>1962.60</ele>
	<time>2024-09-06T08:17:51.000Z</time>
</trkpt>
<trkpt lat="46.1301180" lon="10.1574450">
	<ele>1962.60</ele>
	<time>2024-09-06T08:17:52.000Z</time>
</trkpt>
<trkpt lat="46.1301060" lon="10.1574550">
	<ele>1962.80</ele>
	<time>2024-09-06T08:17:53.000Z</time>
</trkpt>
<trkpt lat="46.1300940" lon="10.1574700">
	<ele>1962.80</ele>
	<time>2024-09-06T08:17:54.000Z</time>
</trkpt>
<trkpt lat="46.1300840" lon="10.1574880">
	<ele>1962.80</ele>
	<time>2024-09-06T08:17:55.000Z</time>
</trkpt>
<trkpt lat="46.1300750" lon="10.1575020">
	<ele>1962.80</ele>
	<time>2024-09-06T08:17:56.000Z</time>
</trkpt>
<trkpt lat="46.1300680" lon="10.1575220">
	<ele>1962.80</ele>
	<time>2024-09-06T08:17:57.000Z</time>
</trkpt>
<trkpt lat="46.1300610" lon="10.1575400">
	<ele>1962.80</ele>
	<time>2024-09-06T08:17:58.000Z</time>
</trkpt>
<trkpt lat="46.1300590" lon="10.1575510">
	<ele>1962.80</ele>
	<time>2024-09-06T08:17:59.000Z</time>
</trkpt>
<trkpt lat="46.1300470" lon="10.1575710">
	<ele>1963.00</ele>
	<time>2024-09-06T08:18:00.000Z</time>
</trkpt>
<trkpt lat="46.1300340" lon="10.1575810">
	<ele>1963.00</ele>
	<time>2024-09-06T08:18:01.000Z</time>
</trkpt>
<trkpt lat="46.1300170" lon="10.1575720">
	<ele>1963.00</ele>
	<time>2024-09-06T08:18:02.000Z</time>
</trkpt>
<trkpt lat="46.1299990" lon="10.1575780">
	<ele>1963.00</ele>
	<time>2024-09-06T08:18:03.000Z</time>
</trkpt>
<trkpt lat="46.1299830" lon="10.1575830">
	<ele>1963.20</ele>
	<time>2024-09-06T08:18:04.000Z</time>
</trkpt>
<trkpt lat="46.1299770" lon="10.1576010">
	<ele>1963.20</ele>
	<time>2024-09-06T08:18:05.000Z</time>
</trkpt>
<trkpt lat="46.1299620" lon="10.1576150">
	<ele>1963.20</ele>
	<time>2024-09-06T08:18:06.000Z</time>
</trkpt>
<trkpt lat="46.1299520" lon="10.1576270">
	<ele>1963.20</ele>
	<time>2024-09-06T08:18:07.000Z</time>
</trkpt>
<trkpt lat="46.1299450" lon="10.1576370">
	<ele>1963.40</ele>
	<time>2024-09-06T08:18:08.000Z</time>
</trkpt>
<trkpt lat="46.1299380" lon="10.1576500">
	<ele>1963.40</ele>
	<time>2024-09-06T08:18:09.000Z</time>
</trkpt>
<trkpt lat="46.1299310" lon="10.1576610">
	<ele>1963.40</ele>
	<time>2024-09-06T08:18:10.000Z</time>
</trkpt>
<trkpt lat="46.1299210" lon="10.1576760">
	<ele>1963.40</ele>
	<time>2024-09-06T08:18:11.000Z</time>
</trkpt>
<trkpt lat="46.1299070" lon="10.1576920">
	<ele>1963.40</ele>
	<time>2024-09-06T08:18:12.000Z</time>
</trkpt>
<trkpt lat="46.1299080" lon="10.1577110">
	<ele>1963.60</ele>
	<time>2024-09-06T08:18:13.000Z</time>
</trkpt>
<trkpt lat="46.1299080" lon="10.1577240">
	<ele>1963.60</ele>
	<time>2024-09-06T08:18:14.000Z</time>
</trkpt>
<trkpt lat="46.1299050" lon="10.1577280">
	<ele>1963.80</ele>
	<time>2024-09-06T08:18:15.000Z</time>
</trkpt>
<trkpt lat="46.1299050" lon="10.1577290">
	<ele>1964.00</ele>
	<time>2024-09-06T08:18:16.000Z</time>
</trkpt>
<trkpt lat="46.1299080" lon="10.1577400">
	<ele>1964.00</ele>
	<time>2024-09-06T08:18:17.000Z</time>
</trkpt>
<trkpt lat="46.1299090" lon="10.1577550">
	<ele>1964.00</ele>
	<time>2024-09-06T08:18:18.000Z</time>
</trkpt>
<trkpt lat="46.1299070" lon="10.1577660">
	<ele>1964.00</ele>
	<time>2024-09-06T08:18:19.000Z</time>
</trkpt>
<trkpt lat="46.1299050" lon="10.1577760">
	<ele>1964.00</ele>
	<time>2024-09-06T08:18:20.000Z</time>
</trkpt>
<trkpt lat="46.1299060" lon="10.1577830">
	<ele>1964.00</ele>
	<time>2024-09-06T08:18:21.000Z</time>
</trkpt>
<trkpt lat="46.1299040" lon="10.1577920">
	<ele>1964.00</ele>
	<time>2024-09-06T08:18:22.000Z</time>
</trkpt>
<trkpt lat="46.1299030" lon="10.1577960">
	<ele>1964.00</ele>
	<time>2024-09-06T08:18:23.000Z</time>
</trkpt>
<trkpt lat="46.1299120" lon="10.1578040">
	<ele>1964.00</ele>
	<time>2024-09-06T08:18:24.000Z</time>
</trkpt>
<trkpt lat="46.1299260" lon="10.1578140">
	<ele>1964.00</ele>
	<time>2024-09-06T08:18:25.000Z</time>
</trkpt>
<trkpt lat="46.1299330" lon="10.1578240">
	<ele>1963.80</ele>
	<time>2024-09-06T08:18:26.000Z</time>
</trkpt>
<trkpt lat="46.1299320" lon="10.1578360">
	<ele>1963.60</ele>
	<time>2024-09-06T08:18:27.000Z</time>
</trkpt>
<trkpt lat="46.1299240" lon="10.1578470">
	<ele>1963.40</ele>
	<time>2024-09-06T08:18:28.000Z</time>
</trkpt>
<trkpt lat="46.1299230" lon="10.1578640">
	<ele>1963.00</ele>
	<time>2024-09-06T08:18:29.000Z</time>
</trkpt>
<trkpt lat="46.1299250" lon="10.1578800">
	<ele>1962.80</ele>
	<time>2024-09-06T08:18:30.000Z</time>
</trkpt>
<trkpt lat="46.1299270" lon="10.1578900">
	<ele>1962.40</ele>
	<time>2024-09-06T08:18:31.000Z</time>
</trkpt>
<trkpt lat="46.1299320" lon="10.1579050">
	<ele>1962.20</ele>
	<time>2024-09-06T08:18:32.000Z</time>
</trkpt>
<trkpt lat="46.1299280" lon="10.1579250">
	<ele>1962.00</ele>
	<time>2024-09-06T08:18:33.000Z</time>
</trkpt>
<trkpt lat="46.1299350" lon="10.1579370">
	<ele>1961.80</ele>
	<time>2024-09-06T08:18:34.000Z</time>
</trkpt>
<trkpt lat="46.1299370" lon="10.1579430">
	<ele>1961.60</ele>
	<time>2024-09-06T08:18:35.000Z</time>
</trkpt>
<trkpt lat="46.1299370" lon="10.1579580">
	<ele>1961.40</ele>
	<time>2024-09-06T08:18:36.000Z</time>
</trkpt>
<trkpt lat="46.1299390" lon="10.1579730">
	<ele>1961.00</ele>
	<time>2024-09-06T08:18:37.000Z</time>
</trkpt>
<trkpt lat="46.1299410" lon="10.1579940">
	<ele>1960.60</ele>
	<time>2024-09-06T08:18:38.000Z</time>
</trkpt>
<trkpt lat="46.1299440" lon="10.1580040">
	<ele>1960.20</ele>
	<time>2024-09-06T08:18:39.000Z</time>
</trkpt>
<trkpt lat="46.1299440" lon="10.1580150">
	<ele>1960.00</ele>
	<time>2024-09-06T08:18:40.000Z</time>
</trkpt>
<trkpt lat="46.1299410" lon="10.1580240">
	<ele>1960.00</ele>
	<time>2024-09-06T08:18:41.000Z</time>
</trkpt>
<trkpt lat="46.1299420" lon="10.1580350">
	<ele>1959.80</ele>
	<time>2024-09-06T08:18:42.000Z</time>
</trkpt>
<trkpt lat="46.1299460" lon="10.1580520">
	<ele>1959.40</ele>
	<time>2024-09-06T08:18:43.000Z</time>
</trkpt>
<trkpt lat="46.1299520" lon="10.1580640">
	<ele>1959.20</ele>
	<time>2024-09-06T08:18:44.000Z</time>
</trkpt>
<trkpt lat="46.1299460" lon="10.1580790">
	<ele>1959.00</ele>
	<time>2024-09-06T08:18:45.000Z</time>
</trkpt>
<trkpt lat="46.1299440" lon="10.1580970">
	<ele>1958.60</ele>
	<time>2024-09-06T08:18:46.000Z</time>
</trkpt>
<trkpt lat="46.1299470" lon="10.1581170">
	<ele>1958.40</ele>
	<time>2024-09-06T08:18:47.000Z</time>
</trkpt>
<trkpt lat="46.1299450" lon="10.1581400">
	<ele>1958.40</ele>
	<time>2024-09-06T08:18:48.000Z</time>
</trkpt>
<trkpt lat="46.1299460" lon="10.1581620">
	<ele>1958.20</ele>
	<time>2024-09-06T08:18:49.000Z</time>
</trkpt>
<trkpt lat="46.1299530" lon="10.1581810">
	<ele>1958.20</ele>
	<time>2024-09-06T08:18:50.000Z</time>
</trkpt>
<trkpt lat="46.1299560" lon="10.1581980">
	<ele>1958.00</ele>
	<time>2024-09-06T08:18:51.000Z</time>
</trkpt>
<trkpt lat="46.1299610" lon="10.1582150">
	<ele>1957.80</ele>
	<time>2024-09-06T08:18:52.000Z</time>
</trkpt>
<trkpt lat="46.1299680" lon="10.1582360">
	<ele>1957.80</ele>
	<time>2024-09-06T08:18:53.000Z</time>
</trkpt>
<trkpt lat="46.1299650" lon="10.1582520">
	<ele>1957.80</ele>
	<time>2024-09-06T08:18:54.000Z</time>
</trkpt>
<trkpt lat="46.1299650" lon="10.1582720">
	<ele>1957.80</ele>
	<time>2024-09-06T08:18:55.000Z</time>
</trkpt>
<trkpt lat="46.1299680" lon="10.1582850">
	<ele>1957.80</ele>
	<time>2024-09-06T08:18:56.000Z</time>
</trkpt>
<trkpt lat="46.1299630" lon="10.1582930">
	<ele>1957.60</ele>
	<time>2024-09-06T08:18:57.000Z</time>
</trkpt>
<trkpt lat="46.1299610" lon="10.1582990">
	<ele>1957.60</ele>
	<time>2024-09-06T08:18:58.000Z</time>
</trkpt>
<trkpt lat="46.1299610" lon="10.1583110">
	<ele>1957.40</ele>
	<time>2024-09-06T08:18:59.000Z</time>
</trkpt>
<trkpt lat="46.1299680" lon="10.1583190">
	<ele>1957.40</ele>
	<time>2024-09-06T08:19:00.000Z</time>
</trkpt>
<trkpt lat="46.1299760" lon="10.1583370">
	<ele>1957.40</ele>
	<time>2024-09-06T08:19:01.000Z</time>
</trkpt>
<trkpt lat="46.1299780" lon="10.1583560">
	<ele>1957.20</ele>
	<time>2024-09-06T08:19:02.000Z</time>
</trkpt>
<trkpt lat="46.1299810" lon="10.1583740">
	<ele>1957.00</ele>
	<time>2024-09-06T08:19:03.000Z</time>
</trkpt>
<trkpt lat="46.1299860" lon="10.1583890">
	<ele>1956.60</ele>
	<time>2024-09-06T08:19:04.000Z</time>
</trkpt>
<trkpt lat="46.1299870" lon="10.1584010">
	<ele>1956.60</ele>
	<time>2024-09-06T08:19:05.000Z</time>
</trkpt>
<trkpt lat="46.1299880" lon="10.1584140">
	<ele>1956.20</ele>
	<time>2024-09-06T08:19:06.000Z</time>
</trkpt>
<trkpt lat="46.1299950" lon="10.1584300">
	<ele>1956.00</ele>
	<time>2024-09-06T08:19:07.000Z</time>
</trkpt>
<trkpt lat="46.1300070" lon="10.1584450">
	<ele>1955.80</ele>
	<time>2024-09-06T08:19:08.000Z</time>
</trkpt>
<trkpt lat="46.1300180" lon="10.1584550">
	<ele>1955.60</ele>
	<time>2024-09-06T08:19:09.000Z</time>
</trkpt>
<trkpt lat="46.1300340" lon="10.1584650">
	<ele>1955.40</ele>
	<time>2024-09-06T08:19:10.000Z</time>
</trkpt>
<trkpt lat="46.1300400" lon="10.1584720">
	<ele>1955.20</ele>
	<time>2024-09-06T08:19:11.000Z</time>
</trkpt>
<trkpt lat="46.1300440" lon="10.1584750">
	<ele>1955.00</ele>
	<time>2024-09-06T08:19:12.000Z</time>
</trkpt>
<trkpt lat="46.1300470" lon="10.1584800">
	<ele>1954.60</ele>
	<time>2024-09-06T08:19:13.000Z</time>
</trkpt>
<trkpt lat="46.1300520" lon="10.1584870">
	<ele>1954.20</ele>
	<time>2024-09-06T08:19:14.000Z</time>
</trkpt>
<trkpt lat="46.1300590" lon="10.1584960">
	<ele>1954.20</ele>
	<time>2024-09-06T08:19:15.000Z</time>
</trkpt>
<trkpt lat="46.1300650" lon="10.1584950">
	<ele>1954.00</ele>
	<time>2024-09-06T08:19:16.000Z</time>
</trkpt>
<trkpt lat="46.1300770" lon="10.1585000">
	<ele>1953.60</ele>
	<time>2024-09-06T08:19:17.000Z</time>
</trkpt>
<trkpt lat="46.1300880" lon="10.1585060">
	<ele>1953.60</ele>
	<time>2024-09-06T08:19:18.000Z</time>
</trkpt>
<trkpt lat="46.1300930" lon="10.1585090">
	<ele>1953.40</ele>
	<time>2024-09-06T08:19:19.000Z</time>
</trkpt>
<trkpt lat="46.1300960" lon="10.1585100">
	<ele>1953.00</ele>
	<time>2024-09-06T08:19:20.000Z</time>
</trkpt>
<trkpt lat="46.1301000" lon="10.1585160">
	<ele>1952.60</ele>
	<time>2024-09-06T08:19:21.000Z</time>
</trkpt>
<trkpt lat="46.1301060" lon="10.1585230">
	<ele>1952.40</ele>
	<time>2024-09-06T08:19:22.000Z</time>
</trkpt>
<trkpt lat="46.1301110" lon="10.1585320">
	<ele>1952.20</ele>
	<time>2024-09-06T08:19:23.000Z</time>
</trkpt>
<trkpt lat="46.1301130" lon="10.1585340">
	<ele>1952.00</ele>
	<time>2024-09-06T08:19:24.000Z</time>
</trkpt>
<trkpt lat="46.1301160" lon="10.1585370">
	<ele>1951.80</ele>
	<time>2024-09-06T08:19:25.000Z</time>
</trkpt>
<trkpt lat="46.1301220" lon="10.1585440">
	<ele>1951.80</ele>
	<time>2024-09-06T08:19:26.000Z</time>
</trkpt>
<trkpt lat="46.1301320" lon="10.1585530">
	<ele>1951.40</ele>
	<time>2024-09-06T08:19:27.000Z</time>
</trkpt>
<trkpt lat="46.1301400" lon="10.1585570">
	<ele>1951.20</ele>
	<time>2024-09-06T08:19:28.000Z</time>
</trkpt>
<trkpt lat="46.1301480" lon="10.1585600">
	<ele>1951.00</ele>
	<time>2024-09-06T08:19:29.000Z</time>
</trkpt>
<trkpt lat="46.1301550" lon="10.1585660">
	<ele>1951.00</ele>
	<time>2024-09-06T08:19:30.000Z</time>
</trkpt>
<trkpt lat="46.1301620" lon="10.1585730">
	<ele>1950.80</ele>
	<time>2024-09-06T08:19:31.000Z</time>
</trkpt>
<trkpt lat="46.1301650" lon="10.1585780">
	<ele>1950.40</ele>
	<time>2024-09-06T08:19:32.000Z</time>
</trkpt>
<trkpt lat="46.1301680" lon="10.1585810">
	<ele>1950.20</ele>
	<time>2024-09-06T08:19:33.000Z</time>
</trkpt>
<trkpt lat="46.1301770" lon="10.1585820">
	<ele>1950.20</ele>
	<time>2024-09-06T08:19:34.000Z</time>
</trkpt>
<trkpt lat="46.1301840" lon="10.1585860">
	<ele>1950.00</ele>
	<time>2024-09-06T08:19:35.000Z</time>
</trkpt>
<trkpt lat="46.1301890" lon="10.1585900">
	<ele>1949.80</ele>
	<time>2024-09-06T08:19:36.000Z</time>
</trkpt>
<trkpt lat="46.1302010" lon="10.1586040">
	<ele>1949.60</ele>
	<time>2024-09-06T08:19:37.000Z</time>
</trkpt>
<trkpt lat="46.1302130" lon="10.1586130">
	<ele>1949.60</ele>
	<time>2024-09-06T08:19:38.000Z</time>
</trkpt>
<trkpt lat="46.1302240" lon="10.1586240">
	<ele>1949.40</ele>
	<time>2024-09-06T08:19:39.000Z</time>
</trkpt>
<trkpt lat="46.1302300" lon="10.1586320">
	<ele>1949.20</ele>
	<time>2024-09-06T08:19:40.000Z</time>
</trkpt>
<trkpt lat="46.1302390" lon="10.1586420">
	<ele>1949.00</ele>
	<time>2024-09-06T08:19:41.000Z</time>
</trkpt>
<trkpt lat="46.1302410" lon="10.1586530">
	<ele>1948.80</ele>
	<time>2024-09-06T08:19:42.000Z</time>
</trkpt>
<trkpt lat="46.1302420" lon="10.1586550">
	<ele>1948.80</ele>
	<time>2024-09-06T08:19:43.000Z</time>
</trkpt>
<trkpt lat="46.1302430" lon="10.1586640">
	<ele>1948.80</ele>
	<time>2024-09-06T08:19:44.000Z</time>
</trkpt>
<trkpt lat="46.1302540" lon="10.1586750">
	<ele>1948.80</ele>
	<time>2024-09-06T08:19:45.000Z</time>
</trkpt>
<trkpt lat="46.1302530" lon="10.1586830">
	<ele>1948.20</ele>
	<time>2024-09-06T08:19:46.000Z</time>
</trkpt>
<trkpt lat="46.1302520" lon="10.1586920">
	<ele>1947.80</ele>
	<time>2024-09-06T08:19:47.000Z</time>
</trkpt>
<trkpt lat="46.1302580" lon="10.1587020">
	<ele>1947.60</ele>
	<time>2024-09-06T08:19:48.000Z</time>
</trkpt>
<trkpt lat="46.1302610" lon="10.1587050">
	<ele>1947.40</ele>
	<time>2024-09-06T08:19:49.000Z</time>
</trkpt>
<trkpt lat="46.1302620" lon="10.1587070">
	<ele>1947.20</ele>
	<time>2024-09-06T08:19:50.000Z</time>
</trkpt>
<trkpt lat="46.1302630" lon="10.1587080">
	<ele>1947.00</ele>
	<time>2024-09-06T08:19:51.000Z</time>
</trkpt>
<trkpt lat="46.1302670" lon="10.1587090">
	<ele>1947.00</ele>
	<time>2024-09-06T08:19:52.000Z</time>
</trkpt>
<trkpt lat="46.1302760" lon="10.1587130">
	<ele>1946.80</ele>
	<time>2024-09-06T08:19:53.000Z</time>
</trkpt>
<trkpt lat="46.1302820" lon="10.1587180">
	<ele>1946.60</ele>
	<time>2024-09-06T08:19:54.000Z</time>
</trkpt>
<trkpt lat="46.1302900" lon="10.1587280">
	<ele>1946.40</ele>
	<time>2024-09-06T08:19:55.000Z</time>
</trkpt>
<trkpt lat="46.1302930" lon="10.1587370">
	<ele>1946.40</ele>
	<time>2024-09-06T08:19:56.000Z</time>
</trkpt>
<trkpt lat="46.1302950" lon="10.1587460">
	<ele>1946.20</ele>
	<time>2024-09-06T08:19:57.000Z</time>
</trkpt>
<trkpt lat="46.1302990" lon="10.1587570">
	<ele>1945.80</ele>
	<time>2024-09-06T08:19:58.000Z</time>
</trkpt>
<trkpt lat="46.1303000" lon="10.1587690">
	<ele>1945.80</ele>
	<time>2024-09-06T08:19:59.000Z</time>
</trkpt>
<trkpt lat="46.1303040" lon="10.1587830">
	<ele>1945.40</ele>
	<time>2024-09-06T08:20:00.000Z</time>
</trkpt>
<trkpt lat="46.1303040" lon="10.1587930">
	<ele>1945.20</ele>
	<time>2024-09-06T08:20:01.000Z</time>
</trkpt>
<trkpt lat="46.1303040" lon="10.1588090">
	<ele>1945.00</ele>
	<time>2024-09-06T08:20:02.000Z</time>
</trkpt>
<trkpt lat="46.1303060" lon="10.1588190">
	<ele>1945.00</ele>
	<time>2024-09-06T08:20:03.000Z</time>
</trkpt>
<trkpt lat="46.1303050" lon="10.1588280">
	<ele>1944.80</ele>
	<time>2024-09-06T08:20:04.000Z</time>
</trkpt>
<trkpt lat="46.1303080" lon="10.1588330">
	<ele>1944.60</ele>
	<time>2024-09-06T08:20:05.000Z</time>
</trkpt>
<trkpt lat="46.1303130" lon="10.1588270">
	<ele>1944.40</ele>
	<time>2024-09-06T08:20:06.000Z</time>
</trkpt>
<trkpt lat="46.1303190" lon="10.1588180">
	<ele>1944.20</ele>
	<time>2024-09-06T08:20:07.000Z</time>
</trkpt>
<trkpt lat="46.1303200" lon="10.1588140">
	<ele>1944.00</ele>
	<time>2024-09-06T08:20:08.000Z</time>
</trkpt>
<trkpt lat="46.1303240" lon="10.1588090">
	<ele>1943.80</ele>
	<time>2024-09-06T08:20:09.000Z</time>
</trkpt>
<trkpt lat="46.1303290" lon="10.1588020">
	<ele>1943.60</ele>
	<time>2024-09-06T08:20:10.000Z</time>
</trkpt>
<trkpt lat="46.1303340" lon="10.1587970">
	<ele>1943.40</ele>
	<time>2024-09-06T08:20:11.000Z</time>
</trkpt>
<trkpt lat="46.1303380" lon="10.1587890">
	<ele>1943.20</ele>
	<time>2024-09-06T08:20:12.000Z</time>
</trkpt>
<trkpt lat="46.1303460" lon="10.1587860">
	<ele>1943.00</ele>
	<time>2024-09-06T08:20:13.000Z</time>
</trkpt>
<trkpt lat="46.1303480" lon="10.1587830">
	<ele>1942.60</ele>
	<time>2024-09-06T08:20:14.000Z</time>
</trkpt>
<trkpt lat="46.1303650" lon="10.1587850">
	<ele>1942.40</ele>
	<time>2024-09-06T08:20:15.000Z</time>
</trkpt>
<trkpt lat="46.1303820" lon="10.1587880">
	<ele>1942.40</ele>
	<time>2024-09-06T08:20:16.000Z</time>
</trkpt>
<trkpt lat="46.1303930" lon="10.1587940">
	<ele>1942.20</ele>
	<time>2024-09-06T08:20:17.000Z</time>
</trkpt>
<trkpt lat="46.1303970" lon="10.1587960">
	<ele>1942.00</ele>
	<time>2024-09-06T08:20:18.000Z</time>
</trkpt>
<trkpt lat="46.1304090" lon="10.1588030">
	<ele>1942.00</ele>
	<time>2024-09-06T08:20:19.000Z</time>
</trkpt>
<trkpt lat="46.1304090" lon="10.1588040">
	<ele>1942.00</ele>
	<time>2024-09-06T08:20:20.000Z</time>
</trkpt>
<trkpt lat="46.1304080" lon="10.1588030">
	<ele>1941.80</ele>
	<time>2024-09-06T08:20:21.000Z</time>
</trkpt>
<trkpt lat="46.1304090" lon="10.1588050">
	<ele>1941.80</ele>
	<time>2024-09-06T08:20:22.000Z</time>
</trkpt>
<trkpt lat="46.1304190" lon="10.1588120">
	<ele>1941.80</ele>
	<time>2024-09-06T08:20:23.000Z</time>
</trkpt>
<trkpt lat="46.1304220" lon="10.1588150">
	<ele>1941.60</ele>
	<time>2024-09-06T08:20:24.000Z</time>
</trkpt>
<trkpt lat="46.1304260" lon="10.1588220">
	<ele>1941.60</ele>
	<time>2024-09-06T08:20:25.000Z</time>
</trkpt>
<trkpt lat="46.1304280" lon="10.1588260">
	<ele>1941.40</ele>
	<time>2024-09-06T08:20:26.000Z</time>
</trkpt>
<trkpt lat="46.1304300" lon="10.1588290">
	<ele>1941.40</ele>
	<time>2024-09-06T08:20:27.000Z</time>
</trkpt>
<trkpt lat="46.1304300" lon="10.1588340">
	<ele>1941.00</ele>
	<time>2024-09-06T08:20:28.000Z</time>
</trkpt>
<trkpt lat="46.1304270" lon="10.1588400">
	<ele>1940.80</ele>
	<time>2024-09-06T08:20:29.000Z</time>
</trkpt>
<trkpt lat="46.1304370" lon="10.1588410">
	<ele>1940.80</ele>
	<time>2024-09-06T08:20:30.000Z</time>
</trkpt>
<trkpt lat="46.1304480" lon="10.1588450">
	<ele>1940.60</ele>
	<time>2024-09-06T08:20:31.000Z</time>
</trkpt>
<trkpt lat="46.1304500" lon="10.1588490">
	<ele>1940.60</ele>
	<time>2024-09-06T08:20:32.000Z</time>
</trkpt>
<trkpt lat="46.1304490" lon="10.1588550">
	<ele>1940.60</ele>
	<time>2024-09-06T08:20:33.000Z</time>
</trkpt>
<trkpt lat="46.1304510" lon="10.1588630">
	<ele>1940.40</ele>
	<time>2024-09-06T08:20:34.000Z</time>
</trkpt>
<trkpt lat="46.1304500" lon="10.1588680">
	<ele>1940.20</ele>
	<time>2024-09-06T08:20:35.000Z</time>
</trkpt>
<trkpt lat="46.1304450" lon="10.1588710">
	<ele>1940.00</ele>
	<time>2024-09-06T08:20:36.000Z</time>
</trkpt>
<trkpt lat="46.1304400" lon="10.1588740">
	<ele>1939.80</ele>
	<time>2024-09-06T08:20:37.000Z</time>
</trkpt>
<trkpt lat="46.1304410" lon="10.1588810">
	<ele>1939.40</ele>
	<time>2024-09-06T08:20:38.000Z</time>
</trkpt>
<trkpt lat="46.1304360" lon="10.1588820">
	<ele>1939.20</ele>
	<time>2024-09-06T08:20:39.000Z</time>
</trkpt>
<trkpt lat="46.1304320" lon="10.1588840">
	<ele>1939.20</ele>
	<time>2024-09-06T08:20:40.000Z</time>
</trkpt>
<trkpt lat="46.1304270" lon="10.1588870">
	<ele>1939.00</ele>
	<time>2024-09-06T08:20:41.000Z</time>
</trkpt>
<trkpt lat="46.1304290" lon="10.1588990">
	<ele>1938.80</ele>
	<time>2024-09-06T08:20:42.000Z</time>
</trkpt>
<trkpt lat="46.1304300" lon="10.1589120">
	<ele>1938.40</ele>
	<time>2024-09-06T08:20:43.000Z</time>
</trkpt>
<trkpt lat="46.1304250" lon="10.1589180">
	<ele>1938.20</ele>
	<time>2024-09-06T08:20:44.000Z</time>
</trkpt>
<trkpt lat="46.1304240" lon="10.1589280">
	<ele>1938.00</ele>
	<time>2024-09-06T08:20:45.000Z</time>
</trkpt>
<trkpt lat="46.1304200" lon="10.1589380">
	<ele>1937.80</ele>
	<time>2024-09-06T08:20:46.000Z</time>
</trkpt>
<trkpt lat="46.1304180" lon="10.1589510">
	<ele>1937.60</ele>
	<time>2024-09-06T08:20:47.000Z</time>
</trkpt>
<trkpt lat="46.1304210" lon="10.1589550">
	<ele>1937.40</ele>
	<time>2024-09-06T08:20:48.000Z</time>
</trkpt>
<trkpt lat="46.1304250" lon="10.1589630">
	<ele>1937.40</ele>
	<time>2024-09-06T08:20:49.000Z</time>
</trkpt>
<trkpt lat="46.1304280" lon="10.1589740">
	<ele>1937.20</ele>
	<time>2024-09-06T08:20:50.000Z</time>
</trkpt>
<trkpt lat="46.1304290" lon="10.1589830">
	<ele>1937.00</ele>
	<time>2024-09-06T08:20:51.000Z</time>
</trkpt>
<trkpt lat="46.1304300" lon="10.1589920">
	<ele>1936.80</ele>
	<time>2024-09-06T08:20:52.000Z</time>
</trkpt>
<trkpt lat="46.1304280" lon="10.1590040">
	<ele>1936.60</ele>
	<time>2024-09-06T08:20:53.000Z</time>
</trkpt>
<trkpt lat="46.1304300" lon="10.1590140">
	<ele>1936.60</ele>
	<time>2024-09-06T08:20:54.000Z</time>
</trkpt>
<trkpt lat="46.1304380" lon="10.1590240">
	<ele>1936.40</ele>
	<time>2024-09-06T08:20:55.000Z</time>
</trkpt>
<trkpt lat="46.1304450" lon="10.1590320">
	<ele>1936.00</ele>
	<time>2024-09-06T08:20:56.000Z</time>
</trkpt>
<trkpt lat="46.1304510" lon="10.1590400">
	<ele>1935.60</ele>
	<time>2024-09-06T08:20:57.000Z</time>
</trkpt>
<trkpt lat="46.1304550" lon="10.1590480">
	<ele>1935.60</ele>
	<time>2024-09-06T08:20:58.000Z</time>
</trkpt>
<trkpt lat="46.1304550" lon="10.1590580">
	<ele>1935.40</ele>
	<time>2024-09-06T08:20:59.000Z</time>
</trkpt>
<trkpt lat="46.1304550" lon="10.1590700">
	<ele>1935.40</ele>
	<time>2024-09-06T08:21:00.000Z</time>
</trkpt>
<trkpt lat="46.1304560" lon="10.1590830">
	<ele>1935.20</ele>
	<time>2024-09-06T08:21:01.000Z</time>
</trkpt>
<trkpt lat="46.1304620" lon="10.1590950">
	<ele>1935.00</ele>
	<time>2024-09-06T08:21:02.000Z</time>
</trkpt>
<trkpt lat="46.1304730" lon="10.1591030">
	<ele>1935.00</ele>
	<time>2024-09-06T08:21:03.000Z</time>
</trkpt>
<trkpt lat="46.1305010" lon="10.1591170">
	<ele>1934.80</ele>
	<time>2024-09-06T08:21:04.000Z</time>
</trkpt>
<trkpt lat="46.1305160" lon="10.1591370">
	<ele>1934.60</ele>
	<time>2024-09-06T08:21:05.000Z</time>
</trkpt>
<trkpt lat="46.1305240" lon="10.1591500">
	<ele>1934.60</ele>
	<time>2024-09-06T08:21:06.000Z</time>
</trkpt>
<trkpt lat="46.1305260" lon="10.1591580">
	<ele>1934.40</ele>
	<time>2024-09-06T08:21:07.000Z</time>
</trkpt>
<trkpt lat="46.1305320" lon="10.1591660">
	<ele>1934.40</ele>
	<time>2024-09-06T08:21:08.000Z</time>
</trkpt>
<trkpt lat="46.1305400" lon="10.1591710">
	<ele>1934.40</ele>
	<time>2024-09-06T08:21:09.000Z</time>
</trkpt>
<trkpt lat="46.1305440" lon="10.1591770">
	<ele>1934.40</ele>
	<time>2024-09-06T08:21:10.000Z</time>
</trkpt>
<trkpt lat="46.1305440" lon="10.1591840">
	<ele>1934.20</ele>
	<time>2024-09-06T08:21:11.000Z</time>
</trkpt>
<trkpt lat="46.1305450" lon="10.1591940">
	<ele>1934.00</ele>
	<time>2024-09-06T08:21:12.000Z</time>
</trkpt>
<trkpt lat="46.1305380" lon="10.1592100">
	<ele>1933.80</ele>
	<time>2024-09-06T08:21:13.000Z</time>
</trkpt>
<trkpt lat="46.1305340" lon="10.1592280">
	<ele>1933.60</ele>
	<time>2024-09-06T08:21:14.000Z</time>
</trkpt>
<trkpt lat="46.1305370" lon="10.1592410">
	<ele>1933.40</ele>
	<time>2024-09-06T08:21:15.000Z</time>
</trkpt>
<trkpt lat="46.1305460" lon="10.1592600">
	<ele>1933.00</ele>
	<time>2024-09-06T08:21:16.000Z</time>
</trkpt>
<trkpt lat="46.1305510" lon="10.1592780">
	<ele>1932.80</ele>
	<time>2024-09-06T08:21:17.000Z</time>
</trkpt>
<trkpt lat="46.1305500" lon="10.1592910">
	<ele>1932.80</ele>
	<time>2024-09-06T08:21:18.000Z</time>
</trkpt>
<trkpt lat="46.1305510" lon="10.1593060">
	<ele>1932.60</ele>
	<time>2024-09-06T08:21:19.000Z</time>
</trkpt>
<trkpt lat="46.1305530" lon="10.1593170">
	<ele>1932.40</ele>
	<time>2024-09-06T08:21:20.000Z</time>
</trkpt>
<trkpt lat="46.1305560" lon="10.1593250">
	<ele>1932.00</ele>
	<time>2024-09-06T08:21:21.000Z</time>
</trkpt>
<trkpt lat="46.1305630" lon="10.1593370">
	<ele>1931.60</ele>
	<time>2024-09-06T08:21:22.000Z</time>
</trkpt>
<trkpt lat="46.1305660" lon="10.1593490">
	<ele>1931.40</ele>
	<time>2024-09-06T08:21:23.000Z</time>
</trkpt>
<trkpt lat="46.1305640" lon="10.1593540">
	<ele>1931.40</ele>
	<time>2024-09-06T08:21:24.000Z</time>
</trkpt>
<trkpt lat="46.1305510" lon="10.1593620">
	<ele>1931.20</ele>
	<time>2024-09-06T08:21:25.000Z</time>
</trkpt>
<trkpt lat="46.1305480" lon="10.1593790">
	<ele>1930.80</ele>
	<time>2024-09-06T08:21:26.000Z</time>
</trkpt>
<trkpt lat="46.1305450" lon="10.1593910">
	<ele>1930.60</ele>
	<time>2024-09-06T08:21:27.000Z</time>
</trkpt>
<trkpt lat="46.1305420" lon="10.1593980">
	<ele>1930.40</ele>
	<time>2024-09-06T08:21:28.000Z</time>
</trkpt>
<trkpt lat="46.1305430" lon="10.1594050">
	<ele>1930.20</ele>
	<time>2024-09-06T08:21:29.000Z</time>
</trkpt>
<trkpt lat="46.1305450" lon="10.1594110">
	<ele>1930.20</ele>
	<time>2024-09-06T08:21:30.000Z</time>
</trkpt>
<trkpt lat="46.1305460" lon="10.1594210">
	<ele>1930.00</ele>
	<time>2024-09-06T08:21:31.000Z</time>
</trkpt>
<trkpt lat="46.1305430" lon="10.1594300">
	<ele>1929.80</ele>
	<time>2024-09-06T08:21:32.000Z</time>
</trkpt>
<trkpt lat="46.1305380" lon="10.1594430">
	<ele>1929.60</ele>
	<time>2024-09-06T08:21:33.000Z</time>
</trkpt>
<trkpt lat="46.1305370" lon="10.1594500">
	<ele>1929.40</ele>
	<time>2024-09-06T08:21:34.000Z</time>
</trkpt>
<trkpt lat="46.1305390" lon="10.1594580">
	<ele>1929.20</ele>
	<time>2024-09-06T08:21:35.000Z</time>
</trkpt>
<trkpt lat="46.1305430" lon="10.1594630">
	<ele>1929.00</ele>
	<time>2024-09-06T08:21:36.000Z</time>
</trkpt>
<trkpt lat="46.1305430" lon="10.1594670">
	<ele>1929.00</ele>
	<time>2024-09-06T08:21:37.000Z</time>
</trkpt>
<trkpt lat="46.1305420" lon="10.1594760">
	<ele>1928.80</ele>
	<time>2024-09-06T08:21:38.000Z</time>
</trkpt>
<trkpt lat="46.1305440" lon="10.1594900">
	<ele>1928.80</ele>
	<time>2024-09-06T08:21:39.000Z</time>
</trkpt>
<trkpt lat="46.1305490" lon="10.1595050">
	<ele>1928.80</ele>
	<time>2024-09-06T08:21:40.000Z</time>
</trkpt>
<trkpt lat="46.1305570" lon="10.1595230">
	<ele>1928.60</ele>
	<time>2024-09-06T08:21:41.000Z</time>
</trkpt>
<trkpt lat="46.1305690" lon="10.1595380">
	<ele>1928.60</ele>
	<time>2024-09-06T08:21:42.000Z</time>
</trkpt>
<trkpt lat="46.1305790" lon="10.1595560">
	<ele>1928.60</ele>
	<time>2024-09-06T08:21:43.000Z</time>
</trkpt>
<trkpt lat="46.1305840" lon="10.1595740">
	<ele>1928.60</ele>
	<time>2024-09-06T08:21:44.000Z</time>
</trkpt>
<trkpt lat="46.1305890" lon="10.1595920">
	<ele>1928.40</ele>
	<time>2024-09-06T08:21:45.000Z</time>
</trkpt>
<trkpt lat="46.1305920" lon="10.1596080">
	<ele>1928.40</ele>
	<time>2024-09-06T08:21:46.000Z</time>
</trkpt>
<trkpt lat="46.1305940" lon="10.1596290">
	<ele>1928.40</ele>
	<time>2024-09-06T08:21:47.000Z</time>
</trkpt>
<trkpt lat="46.1305930" lon="10.1596490">
	<ele>1928.40</ele>
	<time>2024-09-06T08:21:48.000Z</time>
</trkpt>
<trkpt lat="46.1305930" lon="10.1596660">
	<ele>1928.40</ele>
	<time>2024-09-06T08:21:49.000Z</time>
</trkpt>
<trkpt lat="46.1305960" lon="10.1596790">
	<ele>1928.40</ele>
	<time>2024-09-06T08:21:50.000Z</time>
</trkpt>
<trkpt lat="46.1306000" lon="10.1596840">
	<ele>1928.40</ele>
	<time>2024-09-06T08:21:51.000Z</time>
</trkpt>
<trkpt lat="46.1306020" lon="10.1596940">
	<ele>1928.40</ele>
	<time>2024-09-06T08:21:52.000Z</time>
</trkpt>
<trkpt lat="46.1306050" lon="10.1597120">
	<ele>1928.40</ele>
	<time>2024-09-06T08:21:53.000Z</time>
</trkpt>
<trkpt lat="46.1306110" lon="10.1597370">
	<ele>1928.40</ele>
	<time>2024-09-06T08:21:54.000Z</time>
</trkpt>
<trkpt lat="46.1306190" lon="10.1597560">
	<ele>1928.20</ele>
	<time>2024-09-06T08:21:55.000Z</time>
</trkpt>
<trkpt lat="46.1306230" lon="10.1597720">
	<ele>1928.00</ele>
	<time>2024-09-06T08:21:56.000Z</time>
</trkpt>
<trkpt lat="46.1306180" lon="10.1597810">
	<ele>1928.00</ele>
	<time>2024-09-06T08:21:57.000Z</time>
</trkpt>
<trkpt lat="46.1306130" lon="10.1597980">
	<ele>1927.80</ele>
	<time>2024-09-06T08:21:58.000Z</time>
</trkpt>
<trkpt lat="46.1306120" lon="10.1598100">
	<ele>1927.80</ele>
	<time>2024-09-06T08:21:59.000Z</time>
</trkpt>
<trkpt lat="46.1306100" lon="10.1598160">
	<ele>1927.60</ele>
	<time>2024-09-06T08:22:00.000Z</time>
</trkpt>
<trkpt lat="46.1306030" lon="10.1598250">
	<ele>1927.40</ele>
	<time>2024-09-06T08:22:01.000Z</time>
</trkpt>
<trkpt lat="46.1305970" lon="10.1598380">
	<ele>1927.00</ele>
	<time>2024-09-06T08:22:02.000Z</time>
</trkpt>
<trkpt lat="46.1305950" lon="10.1598480">
	<ele>1926.80</ele>
	<time>2024-09-06T08:22:03.000Z</time>
</trkpt>
<trkpt lat="46.1305950" lon="10.1598680">
	<ele>1926.40</ele>
	<time>2024-09-06T08:22:04.000Z</time>
</trkpt>
<trkpt lat="46.1306000" lon="10.1598900">
	<ele>1926.20</ele>
	<time>2024-09-06T08:22:05.000Z</time>
</trkpt>
<trkpt lat="46.1306020" lon="10.1599050">
	<ele>1926.00</ele>
	<time>2024-09-06T08:22:06.000Z</time>
</trkpt>
<trkpt lat="46.1305990" lon="10.1599150">
	<ele>1926.00</ele>
	<time>2024-09-06T08:22:07.000Z</time>
</trkpt>
<trkpt lat="46.1305980" lon="10.1599230">
	<ele>1925.80</ele>
	<time>2024-09-06T08:22:08.000Z</time>
</trkpt>
<trkpt lat="46.1306000" lon="10.1599350">
	<ele>1925.80</ele>
	<time>2024-09-06T08:22:09.000Z</time>
</trkpt>
<trkpt lat="46.1306020" lon="10.1599490">
	<ele>1925.60</ele>
	<time>2024-09-06T08:22:10.000Z</time>
</trkpt>
<trkpt lat="46.1305970" lon="10.1599620">
	<ele>1925.60</ele>
	<time>2024-09-06T08:22:11.000Z</time>
</trkpt>
<trkpt lat="46.1305870" lon="10.1599700">
	<ele>1925.40</ele>
	<time>2024-09-06T08:22:12.000Z</time>
</trkpt>
<trkpt lat="46.1305820" lon="10.1599780">
	<ele>1925.40</ele>
	<time>2024-09-06T08:22:13.000Z</time>
</trkpt>
<trkpt lat="46.1305740" lon="10.1599830">
	<ele>1925.60</ele>
	<time>2024-09-06T08:22:14.000Z</time>
</trkpt>
<trkpt lat="46.1305660" lon="10.1599890">
	<ele>1925.60</ele>
	<time>2024-09-06T08:22:15.000Z</time>
</trkpt>
<trkpt lat="46.1305610" lon="10.1599940">
	<ele>1926.00</ele>
	<time>2024-09-06T08:22:16.000Z</time>
</trkpt>
<trkpt lat="46.1305580" lon="10.1599990">
	<ele>1926.20</ele>
	<time>2024-09-06T08:22:17.000Z</time>
</trkpt>
<trkpt lat="46.1305580" lon="10.1600010">
	<ele>1926.20</ele>
	<time>2024-09-06T08:22:18.000Z</time>
</trkpt>
<trkpt lat="46.1305640" lon="10.1600060">
	<ele>1926.40</ele>
	<time>2024-09-06T08:22:19.000Z</time>
</trkpt>
<trkpt lat="46.1305640" lon="10.1600040">
	<ele>1926.40</ele>
	<time>2024-09-06T08:22:20.000Z</time>
</trkpt>
<trkpt lat="46.1305660" lon="10.1600090">
	<ele>1926.40</ele>
	<time>2024-09-06T08:22:21.000Z</time>
</trkpt>
<trkpt lat="46.1305740" lon="10.1600160">
	<ele>1926.60</ele>
	<time>2024-09-06T08:22:22.000Z</time>
</trkpt>
<trkpt lat="46.1305770" lon="10.1600180">
	<ele>1926.60</ele>
	<time>2024-09-06T08:22:23.000Z</time>
</trkpt>
<trkpt lat="46.1305790" lon="10.1600170">
	<ele>1926.80</ele>
	<time>2024-09-06T08:22:24.000Z</time>
</trkpt>
<trkpt lat="46.1305830" lon="10.1600200">
	<ele>1926.80</ele>
	<time>2024-09-06T08:22:25.000Z</time>
</trkpt>
<trkpt lat="46.1305870" lon="10.1600240">
	<ele>1926.80</ele>
	<time>2024-09-06T08:22:26.000Z</time>
</trkpt>
<trkpt lat="46.1305900" lon="10.1600350">
	<ele>1926.80</ele>
	<time>2024-09-06T08:22:27.000Z</time>
</trkpt>
<trkpt lat="46.1305920" lon="10.1600330">
	<ele>1926.80</ele>
	<time>2024-09-06T08:22:28.000Z</time>
</trkpt>
<trkpt lat="46.1306020" lon="10.1600370">
	<ele>1926.60</ele>
	<time>2024-09-06T08:22:29.000Z</time>
</trkpt>
<trkpt lat="46.1306060" lon="10.1600350">
	<ele>1926.60</ele>
	<time>2024-09-06T08:22:30.000Z</time>
</trkpt>
<trkpt lat="46.1306110" lon="10.1600330">
	<ele>1926.40</ele>
	<time>2024-09-06T08:22:31.000Z</time>
</trkpt>
<trkpt lat="46.1306140" lon="10.1600330">
	<ele>1926.40</ele>
	<time>2024-09-06T08:22:32.000Z</time>
</trkpt>
<trkpt lat="46.1306170" lon="10.1600370">
	<ele>1926.40</ele>
	<time>2024-09-06T08:22:33.000Z</time>
</trkpt>
<trkpt lat="46.1306220" lon="10.1600410">
	<ele>1926.40</ele>
	<time>2024-09-06T08:22:34.000Z</time>
</trkpt>
<trkpt lat="46.1306310" lon="10.1600440">
	<ele>1926.40</ele>
	<time>2024-09-06T08:22:35.000Z</time>
</trkpt>
<trkpt lat="46.1306400" lon="10.1600520">
	<ele>1926.40</ele>
	<time>2024-09-06T08:22:36.000Z</time>
</trkpt>
<trkpt lat="46.1306420" lon="10.1600490">
	<ele>1926.60</ele>
	<time>2024-09-06T08:22:37.000Z</time>
</trkpt>
<trkpt lat="46.1306430" lon="10.1600480">
	<ele>1926.60</ele>
	<time>2024-09-06T08:22:38.000Z</time>
</trkpt>
<trkpt lat="46.1306510" lon="10.1600580">
	<ele>1926.60</ele>
	<time>2024-09-06T08:22:39.000Z</time>
</trkpt>
<trkpt lat="46.1306480" lon="10.1600750">
	<ele>1926.40</ele>
	<time>2024-09-06T08:22:40.000Z</time>
</trkpt>
<trkpt lat="46.1306440" lon="10.1600880">
	<ele>1926.20</ele>
	<time>2024-09-06T08:22:41.000Z</time>
</trkpt>
<trkpt lat="46.1306480" lon="10.1600990">
	<ele>1926.00</ele>
	<time>2024-09-06T08:22:42.000Z</time>
</trkpt>
<trkpt lat="46.1306500" lon="10.1601140">
	<ele>1925.80</ele>
	<time>2024-09-06T08:22:43.000Z</time>
</trkpt>
<trkpt lat="46.1306480" lon="10.1601350">
	<ele>1925.40</ele>
	<time>2024-09-06T08:22:44.000Z</time>
</trkpt>
<trkpt lat="46.1306470" lon="10.1601500">
	<ele>1925.20</ele>
	<time>2024-09-06T08:22:45.000Z</time>
</trkpt>
<trkpt lat="46.1306400" lon="10.1601620">
	<ele>1925.00</ele>
	<time>2024-09-06T08:22:46.000Z</time>
</trkpt>
<trkpt lat="46.1306430" lon="10.1601670">
	<ele>1924.80</ele>
	<time>2024-09-06T08:22:47.000Z</time>
</trkpt>
<trkpt lat="46.1306420" lon="10.1601820">
	<ele>1924.80</ele>
	<time>2024-09-06T08:22:48.000Z</time>
</trkpt>
<trkpt lat="46.1306460" lon="10.1601870">
	<ele>1924.60</ele>
	<time>2024-09-06T08:22:49.000Z</time>
</trkpt>
<trkpt lat="46.1306500" lon="10.1602000">
	<ele>1924.40</ele>
	<time>2024-09-06T08:22:50.000Z</time>
</trkpt>
<trkpt lat="46.1306530" lon="10.1602000">
	<ele>1924.20</ele>
	<time>2024-09-06T08:22:51.000Z</time>
</trkpt>
<trkpt lat="46.1306640" lon="10.1602120">
	<ele>1924.00</ele>
	<time>2024-09-06T08:22:52.000Z</time>
</trkpt>
<trkpt lat="46.1306690" lon="10.1602250">
	<ele>1923.80</ele>
	<time>2024-09-06T08:22:53.000Z</time>
</trkpt>
<trkpt lat="46.1306700" lon="10.1602380">
	<ele>1923.80</ele>
	<time>2024-09-06T08:22:54.000Z</time>
</trkpt>
<trkpt lat="46.1306700" lon="10.1602510">
	<ele>1923.20</ele>
	<time>2024-09-06T08:22:55.000Z</time>
</trkpt>
<trkpt lat="46.1306650" lon="10.1602660">
	<ele>1923.00</ele>
	<time>2024-09-06T08:22:56.000Z</time>
</trkpt>
<trkpt lat="46.1306580" lon="10.1602890">
	<ele>1922.80</ele>
	<time>2024-09-06T08:22:57.000Z</time>
</trkpt>
<trkpt lat="46.1306610" lon="10.1603070">
	<ele>1922.60</ele>
	<time>2024-09-06T08:22:58.000Z</time>
</trkpt>
<trkpt lat="46.1306600" lon="10.1603220">
	<ele>1922.40</ele>
	<time>2024-09-06T08:22:59.000Z</time>
</trkpt>
<trkpt lat="46.1306630" lon="10.1603300">
	<ele>1922.40</ele>
	<time>2024-09-06T08:23:00.000Z</time>
</trkpt>
<trkpt lat="46.1306700" lon="10.1603360">
	<ele>1922.40</ele>
	<time>2024-09-06T08:23:01.000Z</time>
</trkpt>
<trkpt lat="46.1306810" lon="10.1603480">
	<ele>1922.40</ele>
	<time>2024-09-06T08:23:02.000Z</time>
</trkpt>
<trkpt lat="46.1306860" lon="10.1603610">
	<ele>1922.20</ele>
	<time>2024-09-06T08:23:03.000Z</time>
</trkpt>
<trkpt lat="46.1306890" lon="10.1603670">
	<ele>1921.80</ele>
	<time>2024-09-06T08:23:04.000Z</time>
</trkpt>
<trkpt lat="46.1306960" lon="10.1603790">
	<ele>1921.60</ele>
	<time>2024-09-06T08:23:05.000Z</time>
</trkpt>
<trkpt lat="46.1307030" lon="10.1603880">
	<ele>1921.40</ele>
	<time>2024-09-06T08:23:06.000Z</time>
</trkpt>
<trkpt lat="46.1307080" lon="10.1604010">
	<ele>1921.20</ele>
	<time>2024-09-06T08:23:07.000Z</time>
</trkpt>
<trkpt lat="46.1307190" lon="10.1604130">
	<ele>1921.00</ele>
	<time>2024-09-06T08:23:08.000Z</time>
</trkpt>
<trkpt lat="46.1307290" lon="10.1604250">
	<ele>1921.00</ele>
	<time>2024-09-06T08:23:09.000Z</time>
</trkpt>
<trkpt lat="46.1307410" lon="10.1604380">
	<ele>1920.80</ele>
	<time>2024-09-06T08:23:10.000Z</time>
</trkpt>
<trkpt lat="46.1307470" lon="10.1604470">
	<ele>1920.80</ele>
	<time>2024-09-06T08:23:11.000Z</time>
</trkpt>
<trkpt lat="46.1307480" lon="10.1604530">
	<ele>1920.60</ele>
	<time>2024-09-06T08:23:12.000Z</time>
</trkpt>
<trkpt lat="46.1307500" lon="10.1604530">
	<ele>1920.60</ele>
	<time>2024-09-06T08:23:13.000Z</time>
</trkpt>
<trkpt lat="46.1307570" lon="10.1604590">
	<ele>1920.40</ele>
	<time>2024-09-06T08:23:14.000Z</time>
</trkpt>
<trkpt lat="46.1307600" lon="10.1604640">
	<ele>1920.20</ele>
	<time>2024-09-06T08:23:15.000Z</time>
</trkpt>
<trkpt lat="46.1307620" lon="10.1604720">
	<ele>1920.20</ele>
	<time>2024-09-06T08:23:16.000Z</time>
</trkpt>
<trkpt lat="46.1307630" lon="10.1604790">
	<ele>1920.00</ele>
	<time>2024-09-06T08:23:17.000Z</time>
</trkpt>
<trkpt lat="46.1307650" lon="10.1604880">
	<ele>1919.80</ele>
	<time>2024-09-06T08:23:18.000Z</time>
</trkpt>
<trkpt lat="46.1307670" lon="10.1604930">
	<ele>1919.80</ele>
	<time>2024-09-06T08:23:19.000Z</time>
</trkpt>
<trkpt lat="46.1307700" lon="10.1604930">
	<ele>1919.60</ele>
	<time>2024-09-06T08:23:20.000Z</time>
</trkpt>
<trkpt lat="46.1307730" lon="10.1604950">
	<ele>1919.40</ele>
	<time>2024-09-06T08:23:21.000Z</time>
</trkpt>
<trkpt lat="46.1307770" lon="10.1605000">
	<ele>1919.20</ele>
	<time>2024-09-06T08:23:22.000Z</time>
</trkpt>
<trkpt lat="46.1307870" lon="10.1605060">
	<ele>1919.20</ele>
	<time>2024-09-06T08:23:23.000Z</time>
</trkpt>
<trkpt lat="46.1307970" lon="10.1605110">
	<ele>1918.80</ele>
	<time>2024-09-06T08:23:24.000Z</time>
</trkpt>
<trkpt lat="46.1307990" lon="10.1605240">
	<ele>1918.60</ele>
	<time>2024-09-06T08:23:25.000Z</time>
</trkpt>
<trkpt lat="46.1308110" lon="10.1605370">
	<ele>1918.20</ele>
	<time>2024-09-06T08:23:26.000Z</time>
</trkpt>
<trkpt lat="46.1308160" lon="10.1605560">
	<ele>1918.00</ele>
	<time>2024-09-06T08:23:27.000Z</time>
</trkpt>
<trkpt lat="46.1308210" lon="10.1605700">
	<ele>1917.80</ele>
	<time>2024-09-06T08:23:28.000Z</time>
</trkpt>
<trkpt lat="46.1308290" lon="10.1605870">
	<ele>1917.60</ele>
	<time>2024-09-06T08:23:29.000Z</time>
</trkpt>
<trkpt lat="46.1308350" lon="10.1605960">
	<ele>1917.20</ele>
	<time>2024-09-06T08:23:30.000Z</time>
</trkpt>
<trkpt lat="46.1308370" lon="10.1606080">
	<ele>1917.00</ele>
	<time>2024-09-06T08:23:31.000Z</time>
</trkpt>
<trkpt lat="46.1308370" lon="10.1606210">
	<ele>1916.80</ele>
	<time>2024-09-06T08:23:32.000Z</time>
</trkpt>
<trkpt lat="46.1308370" lon="10.1606410">
	<ele>1916.80</ele>
	<time>2024-09-06T08:23:33.000Z</time>
</trkpt>
<trkpt lat="46.1308440" lon="10.1606560">
	<ele>1916.60</ele>
	<time>2024-09-06T08:23:34.000Z</time>
</trkpt>
<trkpt lat="46.1308540" lon="10.1606710">
	<ele>1916.60</ele>
	<time>2024-09-06T08:23:35.000Z</time>
</trkpt>
<trkpt lat="46.1308650" lon="10.1606840">
	<ele>1916.40</ele>
	<time>2024-09-06T08:23:36.000Z</time>
</trkpt>
<trkpt lat="46.1308690" lon="10.1607040">
	<ele>1916.40</ele>
	<time>2024-09-06T08:23:37.000Z</time>
</trkpt>
<trkpt lat="46.1308710" lon="10.1607260">
	<ele>1916.40</ele>
	<time>2024-09-06T08:23:38.000Z</time>
</trkpt>
<trkpt lat="46.1308710" lon="10.1607470">
	<ele>1916.20</ele>
	<time>2024-09-06T08:23:39.000Z</time>
</trkpt>
<trkpt lat="46.1308710" lon="10.1607650">
	<ele>1916.20</ele>
	<time>2024-09-06T08:23:40.000Z</time>
</trkpt>
<trkpt lat="46.1308700" lon="10.1607790">
	<ele>1916.00</ele>
	<time>2024-09-06T08:23:41.000Z</time>
</trkpt>
<trkpt lat="46.1308780" lon="10.1608010">
	<ele>1916.00</ele>
	<time>2024-09-06T08:23:42.000Z</time>
</trkpt>
<trkpt lat="46.1308810" lon="10.1608180">
	<ele>1916.00</ele>
	<time>2024-09-06T08:23:43.000Z</time>
</trkpt>
<trkpt lat="46.1308820" lon="10.1608350">
	<ele>1916.00</ele>
	<time>2024-09-06T08:23:44.000Z</time>
</trkpt>
<trkpt lat="46.1308850" lon="10.1608530">
	<ele>1915.80</ele>
	<time>2024-09-06T08:23:45.000Z</time>
</trkpt>
<trkpt lat="46.1308910" lon="10.1608680">
	<ele>1915.80</ele>
	<time>2024-09-06T08:23:46.000Z</time>
</trkpt>
<trkpt lat="46.1308920" lon="10.1608760">
	<ele>1916.00</ele>
	<time>2024-09-06T08:23:47.000Z</time>
</trkpt>
<trkpt lat="46.1308930" lon="10.1608920">
	<ele>1916.00</ele>
	<time>2024-09-06T08:23:48.000Z</time>
</trkpt>
<trkpt lat="46.1308970" lon="10.1609060">
	<ele>1916.00</ele>
	<time>2024-09-06T08:23:49.000Z</time>
</trkpt>
<trkpt lat="46.1308910" lon="10.1609190">
	<ele>1916.20</ele>
	<time>2024-09-06T08:23:50.000Z</time>
</trkpt>
<trkpt lat="46.1308930" lon="10.1609340">
	<ele>1916.20</ele>
	<time>2024-09-06T08:23:51.000Z</time>
</trkpt>
<trkpt lat="46.1308950" lon="10.1609450">
	<ele>1916.20</ele>
	<time>2024-09-06T08:23:52.000Z</time>
</trkpt>
<trkpt lat="46.1308940" lon="10.1609540">
	<ele>1916.40</ele>
	<time>2024-09-06T08:23:53.000Z</time>
</trkpt>
<trkpt lat="46.1308940" lon="10.1609540">
	<ele>1916.60</ele>
	<time>2024-09-06T08:23:54.000Z</time>
</trkpt>
<trkpt lat="46.1308960" lon="10.1609590">
	<ele>1916.80</ele>
	<time>2024-09-06T08:23:55.000Z</time>
</trkpt>
<trkpt lat="46.1309000" lon="10.1609650">
	<ele>1917.00</ele>
	<time>2024-09-06T08:23:56.000Z</time>
</trkpt>
<trkpt lat="46.1309020" lon="10.1609700">
	<ele>1917.20</ele>
	<time>2024-09-06T08:23:57.000Z</time>
</trkpt>
<trkpt lat="46.1309100" lon="10.1609810">
	<ele>1917.40</ele>
	<time>2024-09-06T08:23:58.000Z</time>
</trkpt>
<trkpt lat="46.1309210" lon="10.1609950">
	<ele>1917.60</ele>
	<time>2024-09-06T08:23:59.000Z</time>
</trkpt>
<trkpt lat="46.1309260" lon="10.1610060">
	<ele>1917.60</ele>
	<time>2024-09-06T08:24:00.000Z</time>
</trkpt>
<trkpt lat="46.1309280" lon="10.1610190">
	<ele>1917.60</ele>
	<time>2024-09-06T08:24:01.000Z</time>
</trkpt>
<trkpt lat="46.1309280" lon="10.1610290">
	<ele>1917.80</ele>
	<time>2024-09-06T08:24:02.000Z</time>
</trkpt>
<trkpt lat="46.1309220" lon="10.1610360">
	<ele>1917.80</ele>
	<time>2024-09-06T08:24:03.000Z</time>
</trkpt>
<trkpt lat="46.1309150" lon="10.1610470">
	<ele>1918.00</ele>
	<time>2024-09-06T08:24:04.000Z</time>
</trkpt>
<trkpt lat="46.1309110" lon="10.1610600">
	<ele>1918.00</ele>
	<time>2024-09-06T08:24:05.000Z</time>
</trkpt>
<trkpt lat="46.1309130" lon="10.1610690">
	<ele>1918.20</ele>
	<time>2024-09-06T08:24:06.000Z</time>
</trkpt>
<trkpt lat="46.1309160" lon="10.1610750">
	<ele>1918.40</ele>
	<time>2024-09-06T08:24:07.000Z</time>
</trkpt>
<trkpt lat="46.1309200" lon="10.1610840">
	<ele>1918.60</ele>
	<time>2024-09-06T08:24:08.000Z</time>
</trkpt>
<trkpt lat="46.1309210" lon="10.1610880">
	<ele>1918.80</ele>
	<time>2024-09-06T08:24:09.000Z</time>
</trkpt>
<trkpt lat="46.1309220" lon="10.1610980">
	<ele>1918.80</ele>
	<time>2024-09-06T08:24:10.000Z</time>
</trkpt>
<trkpt lat="46.1309250" lon="10.1611110">
	<ele>1918.80</ele>
	<time>2024-09-06T08:24:11.000Z</time>
</trkpt>
<trkpt lat="46.1309320" lon="10.1611230">
	<ele>1918.80</ele>
	<time>2024-09-06T08:24:12.000Z</time>
</trkpt>
<trkpt lat="46.1309400" lon="10.1611340">
	<ele>1918.80</ele>
	<time>2024-09-06T08:24:13.000Z</time>
</trkpt>
<trkpt lat="46.1309400" lon="10.1611390">
	<ele>1919.00</ele>
	<time>2024-09-06T08:24:14.000Z</time>
</trkpt>
<trkpt lat="46.1309490" lon="10.1611480">
	<ele>1919.00</ele>
	<time>2024-09-06T08:24:15.000Z</time>
</trkpt>
<trkpt lat="46.1309580" lon="10.1611600">
	<ele>1919.00</ele>
	<time>2024-09-06T08:24:16.000Z</time>
</trkpt>
<trkpt lat="46.1309570" lon="10.1611710">
	<ele>1919.00</ele>
	<time>2024-09-06T08:24:17.000Z</time>
</trkpt>
<trkpt lat="46.1309660" lon="10.1611840">
	<ele>1919.00</ele>
	<time>2024-09-06T08:24:18.000Z</time>
</trkpt>
<trkpt lat="46.1309710" lon="10.1611890">
	<ele>1919.00</ele>
	<time>2024-09-06T08:24:19.000Z</time>
</trkpt>
<trkpt lat="46.1309820" lon="10.1612020">
	<ele>1919.00</ele>
	<time>2024-09-06T08:24:20.000Z</time>
</trkpt>
<trkpt lat="46.1309950" lon="10.1612160">
	<ele>1918.80</ele>
	<time>2024-09-06T08:24:21.000Z</time>
</trkpt>
<trkpt lat="46.1310010" lon="10.1612230">
	<ele>1918.40</ele>
	<time>2024-09-06T08:24:22.000Z</time>
</trkpt>
<trkpt lat="46.1310060" lon="10.1612330">
	<ele>1918.20</ele>
	<time>2024-09-06T08:24:23.000Z</time>
</trkpt>
<trkpt lat="46.1310070" lon="10.1612440">
	<ele>1918.00</ele>
	<time>2024-09-06T08:24:24.000Z</time>
</trkpt>
<trkpt lat="46.1310090" lon="10.1612530">
	<ele>1918.00</ele>
	<time>2024-09-06T08:24:25.000Z</time>
</trkpt>
<trkpt lat="46.1310110" lon="10.1612650">
	<ele>1917.80</ele>
	<time>2024-09-06T08:24:26.000Z</time>
</trkpt>
<trkpt lat="46.1310170" lon="10.1612790">
	<ele>1917.80</ele>
	<time>2024-09-06T08:24:27.000Z</time>
</trkpt>
<trkpt lat="46.1310220" lon="10.1612910">
	<ele>1917.80</ele>
	<time>2024-09-06T08:24:28.000Z</time>
</trkpt>
<trkpt lat="46.1310330" lon="10.1613130">
	<ele>1917.80</ele>
	<time>2024-09-06T08:24:29.000Z</time>
</trkpt>
<trkpt lat="46.1310380" lon="10.1613250">
	<ele>1917.80</ele>
	<time>2024-09-06T08:24:30.000Z</time>
</trkpt>
<trkpt lat="46.1310410" lon="10.1613370">
	<ele>1917.80</ele>
	<time>2024-09-06T08:24:31.000Z</time>
</trkpt>
<trkpt lat="46.1310440" lon="10.1613510">
	<ele>1917.80</ele>
	<time>2024-09-06T08:24:32.000Z</time>
</trkpt>
<trkpt lat="46.1310490" lon="10.1613660">
	<ele>1917.60</ele>
	<time>2024-09-06T08:24:33.000Z</time>
</trkpt>
<trkpt lat="46.1310510" lon="10.1613760">
	<ele>1917.40</ele>
	<time>2024-09-06T08:24:34.000Z</time>
</trkpt>
<trkpt lat="46.1310540" lon="10.1613960">
	<ele>1917.20</ele>
	<time>2024-09-06T08:24:35.000Z</time>
</trkpt>
<trkpt lat="46.1310580" lon="10.1614150">
	<ele>1917.20</ele>
	<time>2024-09-06T08:24:36.000Z</time>
</trkpt>
<trkpt lat="46.1310580" lon="10.1614280">
	<ele>1917.00</ele>
	<time>2024-09-06T08:24:37.000Z</time>
</trkpt>
<trkpt lat="46.1310600" lon="10.1614440">
	<ele>1916.80</ele>
	<time>2024-09-06T08:24:38.000Z</time>
</trkpt>
<trkpt lat="46.1310640" lon="10.1614600">
	<ele>1916.40</ele>
	<time>2024-09-06T08:24:39.000Z</time>
</trkpt>
<trkpt lat="46.1310660" lon="10.1614760">
	<ele>1916.20</ele>
	<time>2024-09-06T08:24:40.000Z</time>
</trkpt>
<trkpt lat="46.1310680" lon="10.1614990">
	<ele>1916.00</ele>
	<time>2024-09-06T08:24:41.000Z</time>
</trkpt>
<trkpt lat="46.1310640" lon="10.1615200">
	<ele>1915.80</ele>
	<time>2024-09-06T08:24:42.000Z</time>
</trkpt>
<trkpt lat="46.1310640" lon="10.1615390">
	<ele>1915.60</ele>
	<time>2024-09-06T08:24:43.000Z</time>
</trkpt>
<trkpt lat="46.1310720" lon="10.1615590">
	<ele>1915.20</ele>
	<time>2024-09-06T08:24:44.000Z</time>
</trkpt>
<trkpt lat="46.1310840" lon="10.1615690">
	<ele>1915.00</ele>
	<time>2024-09-06T08:24:45.000Z</time>
</trkpt>
<trkpt lat="46.1310980" lon="10.1615790">
	<ele>1914.80</ele>
	<time>2024-09-06T08:24:46.000Z</time>
</trkpt>
<trkpt lat="46.1311080" lon="10.1615960">
	<ele>1914.80</ele>
	<time>2024-09-06T08:24:47.000Z</time>
</trkpt>
<trkpt lat="46.1311200" lon="10.1616050">
	<ele>1914.80</ele>
	<time>2024-09-06T08:24:48.000Z</time>
</trkpt>
<trkpt lat="46.1311260" lon="10.1616140">
	<ele>1914.60</ele>
	<time>2024-09-06T08:24:49.000Z</time>
</trkpt>
<trkpt lat="46.1311380" lon="10.1616210">
	<ele>1914.60</ele>
	<time>2024-09-06T08:24:50.000Z</time>
</trkpt>
<trkpt lat="46.1311470" lon="10.1616300">
	<ele>1914.60</ele>
	<time>2024-09-06T08:24:51.000Z</time>
</trkpt>
<trkpt lat="46.1311560" lon="10.1616380">
	<ele>1914.40</ele>
	<time>2024-09-06T08:24:52.000Z</time>
</trkpt>
<trkpt lat="46.1311660" lon="10.1616400">
	<ele>1914.40</ele>
	<time>2024-09-06T08:24:53.000Z</time>
</trkpt>
<trkpt lat="46.1311730" lon="10.1616360">
	<ele>1914.40</ele>
	<time>2024-09-06T08:24:54.000Z</time>
</trkpt>
<trkpt lat="46.1311790" lon="10.1616270">
	<ele>1914.40</ele>
	<time>2024-09-06T08:24:55.000Z</time>
</trkpt>
<trkpt lat="46.1311800" lon="10.1616150">
	<ele>1914.20</ele>
	<time>2024-09-06T08:24:56.000Z</time>
</trkpt>
<trkpt lat="46.1311820" lon="10.1616090">
	<ele>1914.00</ele>
	<time>2024-09-06T08:24:57.000Z</time>
</trkpt>
<trkpt lat="46.1311900" lon="10.1616040">
	<ele>1914.00</ele>
	<time>2024-09-06T08:24:58.000Z</time>
</trkpt>
<trkpt lat="46.1311950" lon="10.1616020">
	<ele>1913.80</ele>
	<time>2024-09-06T08:24:59.000Z</time>
</trkpt>
<trkpt lat="46.1312060" lon="10.1616000">
	<ele>1913.60</ele>
	<time>2024-09-06T08:25:00.000Z</time>
</trkpt>
<trkpt lat="46.1312140" lon="10.1615970">
	<ele>1913.40</ele>
	<time>2024-09-06T08:25:01.000Z</time>
</trkpt>
<trkpt lat="46.1312190" lon="10.1615940">
	<ele>1913.20</ele>
	<time>2024-09-06T08:25:02.000Z</time>
</trkpt>
<trkpt lat="46.1312220" lon="10.1615890">
	<ele>1913.00</ele>
	<time>2024-09-06T08:25:03.000Z</time>
</trkpt>
<trkpt lat="46.1312190" lon="10.1615810">
	<ele>1913.00</ele>
	<time>2024-09-06T08:25:04.000Z</time>
</trkpt>
<trkpt lat="46.1312180" lon="10.1615750">
	<ele>1912.80</ele>
	<time>2024-09-06T08:25:05.000Z</time>
</trkpt>
<trkpt lat="46.1312240" lon="10.1615720">
	<ele>1912.80</ele>
	<time>2024-09-06T08:25:06.000Z</time>
</trkpt>
<trkpt lat="46.1312280" lon="10.1615680">
	<ele>1912.60</ele>
	<time>2024-09-06T08:25:07.000Z</time>
</trkpt>
<trkpt lat="46.1312340" lon="10.1615600">
	<ele>1912.60</ele>
	<time>2024-09-06T08:25:08.000Z</time>
</trkpt>
<trkpt lat="46.1312440" lon="10.1615590">
	<ele>1912.60</ele>
	<time>2024-09-06T08:25:09.000Z</time>
</trkpt>
<trkpt lat="46.1312520" lon="10.1615610">
	<ele>1912.40</ele>
	<time>2024-09-06T08:25:10.000Z</time>
</trkpt>
<trkpt lat="46.1312610" lon="10.1615610">
	<ele>1912.20</ele>
	<time>2024-09-06T08:25:11.000Z</time>
</trkpt>
<trkpt lat="46.1312670" lon="10.1615580">
	<ele>1912.00</ele>
	<time>2024-09-06T08:25:12.000Z</time>
</trkpt>
<trkpt lat="46.1312720" lon="10.1615550">
	<ele>1911.60</ele>
	<time>2024-09-06T08:25:13.000Z</time>
</trkpt>
<trkpt lat="46.1312830" lon="10.1615520">
	<ele>1911.20</ele>
	<time>2024-09-06T08:25:14.000Z</time>
</trkpt>
<trkpt lat="46.1312940" lon="10.1615460">
	<ele>1911.00</ele>
	<time>2024-09-06T08:25:15.000Z</time>
</trkpt>
<trkpt lat="46.1313020" lon="10.1615350">
	<ele>1910.60</ele>
	<time>2024-09-06T08:25:16.000Z</time>
</trkpt>
<trkpt lat="46.1313070" lon="10.1615180">
	<ele>1910.60</ele>
	<time>2024-09-06T08:25:17.000Z</time>
</trkpt>
<trkpt lat="46.1313100" lon="10.1615050">
	<ele>1910.40</ele>
	<time>2024-09-06T08:25:18.000Z</time>
</trkpt>
<trkpt lat="46.1313080" lon="10.1614980">
	<ele>1910.20</ele>
	<time>2024-09-06T08:25:19.000Z</time>
</trkpt>
<trkpt lat="46.1313050" lon="10.1614950">
	<ele>1910.00</ele>
	<time>2024-09-06T08:25:20.000Z</time>
</trkpt>
<trkpt lat="46.1313040" lon="10.1614890">
	<ele>1910.00</ele>
	<time>2024-09-06T08:25:21.000Z</time>
</trkpt>
<trkpt lat="46.1313150" lon="10.1614850">
	<ele>1909.80</ele>
	<time>2024-09-06T08:25:22.000Z</time>
</trkpt>
<trkpt lat="46.1313220" lon="10.1614750">
	<ele>1909.80</ele>
	<time>2024-09-06T08:25:23.000Z</time>
</trkpt>
<trkpt lat="46.1313260" lon="10.1614610">
	<ele>1909.60</ele>
	<time>2024-09-06T08:25:24.000Z</time>
</trkpt>
<trkpt lat="46.1313280" lon="10.1614550">
	<ele>1909.60</ele>
	<time>2024-09-06T08:25:25.000Z</time>
</trkpt>
<trkpt lat="46.1313280" lon="10.1614570">
	<ele>1909.40</ele>
	<time>2024-09-06T08:25:26.000Z</time>
</trkpt>
<trkpt lat="46.1313350" lon="10.1614640">
	<ele>1909.20</ele>
	<time>2024-09-06T08:25:27.000Z</time>
</trkpt>
<trkpt lat="46.1313360" lon="10.1614720">
	<ele>1909.00</ele>
	<time>2024-09-06T08:25:28.000Z</time>
</trkpt>
<trkpt lat="46.1313430" lon="10.1614730">
	<ele>1908.80</ele>
	<time>2024-09-06T08:25:29.000Z</time>
</trkpt>
<trkpt lat="46.1313490" lon="10.1614760">
	<ele>1908.60</ele>
	<time>2024-09-06T08:25:30.000Z</time>
</trkpt>
<trkpt lat="46.1313470" lon="10.1614800">
	<ele>1908.40</ele>
	<time>2024-09-06T08:25:31.000Z</time>
</trkpt>
<trkpt lat="46.1313570" lon="10.1614900">
	<ele>1908.40</ele>
	<time>2024-09-06T08:25:32.000Z</time>
</trkpt>
<trkpt lat="46.1313670" lon="10.1614980">
	<ele>1908.20</ele>
	<time>2024-09-06T08:25:33.000Z</time>
</trkpt>
<trkpt lat="46.1313700" lon="10.1615030">
	<ele>1908.20</ele>
	<time>2024-09-06T08:25:34.000Z</time>
</trkpt>
<trkpt lat="46.1313740" lon="10.1615110">
	<ele>1908.00</ele>
	<time>2024-09-06T08:25:35.000Z</time>
</trkpt>
<trkpt lat="46.1313770" lon="10.1615190">
	<ele>1907.60</ele>
	<time>2024-09-06T08:25:36.000Z</time>
</trkpt>
<trkpt lat="46.1313810" lon="10.1615250">
	<ele>1907.20</ele>
	<time>2024-09-06T08:25:37.000Z</time>
</trkpt>
<trkpt lat="46.1313850" lon="10.1615310">
	<ele>1907.00</ele>
	<time>2024-09-06T08:25:38.000Z</time>
</trkpt>
<trkpt lat="46.1313900" lon="10.1615410">
	<ele>1906.80</ele>
	<time>2024-09-06T08:25:39.000Z</time>
</trkpt>
<trkpt lat="46.1313950" lon="10.1615510">
	<ele>1906.40</ele>
	<time>2024-09-06T08:25:40.000Z</time>
</trkpt>
<trkpt lat="46.1314000" lon="10.1615620">
	<ele>1906.20</ele>
	<time>2024-09-06T08:25:41.000Z</time>
</trkpt>
<trkpt lat="46.1313930" lon="10.1615750">
	<ele>1905.80</ele>
	<time>2024-09-06T08:25:42.000Z</time>
</trkpt>
<trkpt lat="46.1313960" lon="10.1615940">
	<ele>1905.60</ele>
	<time>2024-09-06T08:25:43.000Z</time>
</trkpt>
<trkpt lat="46.1313900" lon="10.1616060">
	<ele>1905.40</ele>
	<time>2024-09-06T08:25:44.000Z</time>
</trkpt>
<trkpt lat="46.1313930" lon="10.1616210">
	<ele>1905.40</ele>
	<time>2024-09-06T08:25:45.000Z</time>
</trkpt>
<trkpt lat="46.1313940" lon="10.1616350">
	<ele>1905.20</ele>
	<time>2024-09-06T08:25:46.000Z</time>
</trkpt>
<trkpt lat="46.1313870" lon="10.1616490">
	<ele>1905.00</ele>
	<time>2024-09-06T08:25:47.000Z</time>
</trkpt>
<trkpt lat="46.1313870" lon="10.1616670">
	<ele>1904.80</ele>
	<time>2024-09-06T08:25:48.000Z</time>
</trkpt>
<trkpt lat="46.1313870" lon="10.1616800">
	<ele>1904.80</ele>
	<time>2024-09-06T08:25:49.000Z</time>
</trkpt>
<trkpt lat="46.1313890" lon="10.1616980">
	<ele>1904.60</ele>
	<time>2024-09-06T08:25:50.000Z</time>
</trkpt>
<trkpt lat="46.1313960" lon="10.1617160">
	<ele>1904.60</ele>
	<time>2024-09-06T08:25:51.000Z</time>
</trkpt>
<trkpt lat="46.1314000" lon="10.1617320">
	<ele>1904.40</ele>
	<time>2024-09-06T08:25:52.000Z</time>
</trkpt>
<trkpt lat="46.1313990" lon="10.1617480">
	<ele>1904.40</ele>
	<time>2024-09-06T08:25:53.000Z</time>
</trkpt>
<trkpt lat="46.1313970" lon="10.1617610">
	<ele>1904.40</ele>
	<time>2024-09-06T08:25:54.000Z</time>
</trkpt>
<trkpt lat="46.1313910" lon="10.1617770">
	<ele>1904.20</ele>
	<time>2024-09-06T08:25:55.000Z</time>
</trkpt>
<trkpt lat="46.1313880" lon="10.1617880">
	<ele>1904.20</ele>
	<time>2024-09-06T08:25:56.000Z</time>
</trkpt>
<trkpt lat="46.1313810" lon="10.1618020">
	<ele>1904.00</ele>
	<time>2024-09-06T08:25:57.000Z</time>
</trkpt>
<trkpt lat="46.1313750" lon="10.1618100">
	<ele>1903.80</ele>
	<time>2024-09-06T08:25:58.000Z</time>
</trkpt>
<trkpt lat="46.1313690" lon="10.1618210">
	<ele>1903.80</ele>
	<time>2024-09-06T08:25:59.000Z</time>
</trkpt>
<trkpt lat="46.1313630" lon="10.1618360">
	<ele>1903.60</ele>
	<time>2024-09-06T08:26:00.000Z</time>
</trkpt>
<trkpt lat="46.1313620" lon="10.1618500">
	<ele>1903.60</ele>
	<time>2024-09-06T08:26:01.000Z</time>
</trkpt>
<trkpt lat="46.1313630" lon="10.1618690">
	<ele>1903.40</ele>
	<time>2024-09-06T08:26:02.000Z</time>
</trkpt>
<trkpt lat="46.1313550" lon="10.1618830">
	<ele>1903.00</ele>
	<time>2024-09-06T08:26:03.000Z</time>
</trkpt>
<trkpt lat="46.1313490" lon="10.1618910">
	<ele>1902.80</ele>
	<time>2024-09-06T08:26:04.000Z</time>
</trkpt>
<trkpt lat="46.1313500" lon="10.1619060">
	<ele>1902.60</ele>
	<time>2024-09-06T08:26:05.000Z</time>
</trkpt>
<trkpt lat="46.1313540" lon="10.1619220">
	<ele>1902.60</ele>
	<time>2024-09-06T08:26:06.000Z</time>
</trkpt>
<trkpt lat="46.1313610" lon="10.1619350">
	<ele>1902.40</ele>
	<time>2024-09-06T08:26:07.000Z</time>
</trkpt>
<trkpt lat="46.1313680" lon="10.1619510">
	<ele>1902.40</ele>
	<time>2024-09-06T08:26:08.000Z</time>
</trkpt>
<trkpt lat="46.1313760" lon="10.1619580">
	<ele>1902.20</ele>
	<time>2024-09-06T08:26:09.000Z</time>
</trkpt>
<trkpt lat="46.1313830" lon="10.1619700">
	<ele>1902.00</ele>
	<time>2024-09-06T08:26:10.000Z</time>
</trkpt>
<trkpt lat="46.1313900" lon="10.1619820">
	<ele>1901.80</ele>
	<time>2024-09-06T08:26:11.000Z</time>
</trkpt>
<trkpt lat="46.1313940" lon="10.1619940">
	<ele>1901.60</ele>
	<time>2024-09-06T08:26:12.000Z</time>
</trkpt>
<trkpt lat="46.1314010" lon="10.1619990">
	<ele>1901.40</ele>
	<time>2024-09-06T08:26:13.000Z</time>
</trkpt>
<trkpt lat="46.1314080" lon="10.1620030">
	<ele>1901.20</ele>
	<time>2024-09-06T08:26:14.000Z</time>
</trkpt>
<trkpt lat="46.1314100" lon="10.1620040">
	<ele>1901.00</ele>
	<time>2024-09-06T08:26:15.000Z</time>
</trkpt>
<trkpt lat="46.1314100" lon="10.1620030">
	<ele>1900.60</ele>
	<time>2024-09-06T08:26:16.000Z</time>
</trkpt>
<trkpt lat="46.1314140" lon="10.1620030">
	<ele>1900.40</ele>
	<time>2024-09-06T08:26:17.000Z</time>
</trkpt>
<trkpt lat="46.1314160" lon="10.1620030">
	<ele>1900.40</ele>
	<time>2024-09-06T08:26:18.000Z</time>
</trkpt>
<trkpt lat="46.1314160" lon="10.1620010">
	<ele>1900.40</ele>
	<time>2024-09-06T08:26:19.000Z</time>
</trkpt>
<trkpt lat="46.1314160" lon="10.1619990">
	<ele>1900.40</ele>
	<time>2024-09-06T08:26:20.000Z</time>
</trkpt>
<trkpt lat="46.1314180" lon="10.1619980">
	<ele>1900.60</ele>
	<time>2024-09-06T08:26:21.000Z</time>
</trkpt>
<trkpt lat="46.1314180" lon="10.1619990">
	<ele>1900.60</ele>
	<time>2024-09-06T08:26:22.000Z</time>
</trkpt>
<trkpt lat="46.1314200" lon="10.1620000">
	<ele>1900.60</ele>
	<time>2024-09-06T08:26:23.000Z</time>
</trkpt>
<trkpt lat="46.1314220" lon="10.1620010">
	<ele>1900.80</ele>
	<time>2024-09-06T08:26:24.000Z</time>
</trkpt>
<trkpt lat="46.1314230" lon="10.1620020">
	<ele>1900.80</ele>
	<time>2024-09-06T08:26:25.000Z</time>
</trkpt>
<trkpt lat="46.1314260" lon="10.1620050">
	<ele>1900.60</ele>
	<time>2024-09-06T08:26:26.000Z</time>
</trkpt>
<trkpt lat="46.1314330" lon="10.1620140">
	<ele>1900.60</ele>
	<time>2024-09-06T08:26:27.000Z</time>
</trkpt>
<trkpt lat="46.1314420" lon="10.1620240">
	<ele>1900.40</ele>
	<time>2024-09-06T08:26:28.000Z</time>
</trkpt>
<trkpt lat="46.1314510" lon="10.1620340">
	<ele>1900.20</ele>
	<time>2024-09-06T08:26:29.000Z</time>
</trkpt>
<trkpt lat="46.1314600" lon="10.1620420">
	<ele>1900.20</ele>
	<time>2024-09-06T08:26:30.000Z</time>
</trkpt>
<trkpt lat="46.1314680" lon="10.1620480">
	<ele>1900.00</ele>
	<time>2024-09-06T08:26:31.000Z</time>
</trkpt>
<trkpt lat="46.1314800" lon="10.1620550">
	<ele>1900.00</ele>
	<time>2024-09-06T08:26:32.000Z</time>
</trkpt>
<trkpt lat="46.1314910" lon="10.1620580">
	<ele>1900.00</ele>
	<time>2024-09-06T08:26:33.000Z</time>
</trkpt>
<trkpt lat="46.1315020" lon="10.1620590">
	<ele>1899.80</ele>
	<time>2024-09-06T08:26:34.000Z</time>
</trkpt>
<trkpt lat="46.1315170" lon="10.1620600">
	<ele>1899.60</ele>
	<time>2024-09-06T08:26:35.000Z</time>
</trkpt>
<trkpt lat="46.1315310" lon="10.1620600">
	<ele>1899.60</ele>
	<time>2024-09-06T08:26:36.000Z</time>
</trkpt>
<trkpt lat="46.1315430" lon="10.1620590">
	<ele>1899.60</ele>
	<time>2024-09-06T08:26:37.000Z</time>
</trkpt>
<trkpt lat="46.1315570" lon="10.1620600">
	<ele>1899.40</ele>
	<time>2024-09-06T08:26:38.000Z</time>
</trkpt>
<trkpt lat="46.1315640" lon="10.1620610">
	<ele>1899.40</ele>
	<time>2024-09-06T08:26:39.000Z</time>
</trkpt>
<trkpt lat="46.1315740" lon="10.1620600">
	<ele>1899.20</ele>
	<time>2024-09-06T08:26:40.000Z</time>
</trkpt>
<trkpt lat="46.1315840" lon="10.1620580">
	<ele>1899.00</ele>
	<time>2024-09-06T08:26:41.000Z</time>
</trkpt>
<trkpt lat="46.1315950" lon="10.1620570">
	<ele>1898.80</ele>
	<time>2024-09-06T08:26:42.000Z</time>
</trkpt>
<trkpt lat="46.1316080" lon="10.1620580">
	<ele>1898.60</ele>
	<time>2024-09-06T08:26:43.000Z</time>
</trkpt>
<trkpt lat="46.1316160" lon="10.1620590">
	<ele>1898.60</ele>
	<time>2024-09-06T08:26:44.000Z</time>
</trkpt>
<trkpt lat="46.1316240" lon="10.1620600">
	<ele>1898.60</ele>
	<time>2024-09-06T08:26:45.000Z</time>
</trkpt>
<trkpt lat="46.1316320" lon="10.1620610">
	<ele>1898.40</ele>
	<time>2024-09-06T08:26:46.000Z</time>
</trkpt>
<trkpt lat="46.1316400" lon="10.1620590">
	<ele>1898.40</ele>
	<time>2024-09-06T08:26:47.000Z</time>
</trkpt>
<trkpt lat="46.1316460" lon="10.1620590">
	<ele>1898.40</ele>
	<time>2024-09-06T08:26:48.000Z</time>
</trkpt>
<trkpt lat="46.1316530" lon="10.1620570">
	<ele>1898.20</ele>
	<time>2024-09-06T08:26:49.000Z</time>
</trkpt>
<trkpt lat="46.1316550" lon="10.1620570">
	<ele>1898.20</ele>
	<time>2024-09-06T08:26:50.000Z</time>
</trkpt>
<trkpt lat="46.1316580" lon="10.1620570">
	<ele>1898.20</ele>
	<time>2024-09-06T08:26:51.000Z</time>
</trkpt>
<trkpt lat="46.1316570" lon="10.1620590">
	<ele>1898.20</ele>
	<time>2024-09-06T08:26:52.000Z</time>
</trkpt>
<trkpt lat="46.1316580" lon="10.1620600">
	<ele>1898.20</ele>
	<time>2024-09-06T08:26:53.000Z</time>
</trkpt>
<trkpt lat="46.1316580" lon="10.1620590">
	<ele>1898.20</ele>
	<time>2024-09-06T08:26:54.000Z</time>
</trkpt>
<trkpt lat="46.1316590" lon="10.1620570">
	<ele>1898.20</ele>
	<time>2024-09-06T08:26:55.000Z</time>
</trkpt>
<trkpt lat="46.1316610" lon="10.1620550">
	<ele>1898.20</ele>
	<time>2024-09-06T08:26:56.000Z</time>
</trkpt>
<trkpt lat="46.1316640" lon="10.1620550">
	<ele>1898.20</ele>
	<time>2024-09-06T08:26:57.000Z</time>
</trkpt>
<trkpt lat="46.1316700" lon="10.1620580">
	<ele>1898.20</ele>
	<time>2024-09-06T08:26:58.000Z</time>
</trkpt>
<trkpt lat="46.1316810" lon="10.1620630">
	<ele>1898.20</ele>
	<time>2024-09-06T08:26:59.000Z</time>
</trkpt>
<trkpt lat="46.1316930" lon="10.1620620">
	<ele>1898.20</ele>
	<time>2024-09-06T08:27:00.000Z</time>
</trkpt>
<trkpt lat="46.1317070" lon="10.1620600">
	<ele>1898.00</ele>
	<time>2024-09-06T08:27:01.000Z</time>
</trkpt>
<trkpt lat="46.1317190" lon="10.1620540">
	<ele>1897.80</ele>
	<time>2024-09-06T08:27:02.000Z</time>
</trkpt>
<trkpt lat="46.1317320" lon="10.1620490">
	<ele>1897.80</ele>
	<time>2024-09-06T08:27:03.000Z</time>
</trkpt>
<trkpt lat="46.1317430" lon="10.1620450">
	<ele>1897.80</ele>
	<time>2024-09-06T08:27:04.000Z</time>
</trkpt>
<trkpt lat="46.1317520" lon="10.1620390">
	<ele>1897.80</ele>
	<time>2024-09-06T08:27:05.000Z</time>
</trkpt>
<trkpt lat="46.1317620" lon="10.1620330">
	<ele>1897.80</ele>
	<time>2024-09-06T08:27:06.000Z</time>
</trkpt>
<trkpt lat="46.1317710" lon="10.1620260">
	<ele>1897.60</ele>
	<time>2024-09-06T08:27:07.000Z</time>
</trkpt>
<trkpt lat="46.1317780" lon="10.1620190">
	<ele>1897.60</ele>
	<time>2024-09-06T08:27:08.000Z</time>
</trkpt>
<trkpt lat="46.1317840" lon="10.1620110">
	<ele>1897.80</ele>
	<time>2024-09-06T08:27:09.000Z</time>
</trkpt>
<trkpt lat="46.1317910" lon="10.1620030">
	<ele>1897.80</ele>
	<time>2024-09-06T08:27:10.000Z</time>
</trkpt>
<trkpt lat="46.1318010" lon="10.1619980">
	<ele>1897.80</ele>
	<time>2024-09-06T08:27:11.000Z</time>
</trkpt>
<trkpt lat="46.1318120" lon="10.1619940">
	<ele>1897.80</ele>
	<time>2024-09-06T08:27:12.000Z</time>
</trkpt>
<trkpt lat="46.1318220" lon="10.1619930">
	<ele>1897.80</ele>
	<time>2024-09-06T08:27:13.000Z</time>
</trkpt>
<trkpt lat="46.1318310" lon="10.1619950">
	<ele>1897.80</ele>
	<time>2024-09-06T08:27:14.000Z</time>
</trkpt>
<trkpt lat="46.1318400" lon="10.1619960">
	<ele>1897.60</ele>
	<time>2024-09-06T08:27:15.000Z</time>
</trkpt>
<trkpt lat="46.1318470" lon="10.1620020">
	<ele>1897.60</ele>
	<time>2024-09-06T08:27:16.000Z</time>
</trkpt>
<trkpt lat="46.1318600" lon="10.1619990">
	<ele>1897.60</ele>
	<time>2024-09-06T08:27:17.000Z</time>
</trkpt>
<trkpt lat="46.1318730" lon="10.1619920">
	<ele>1897.40</ele>
	<time>2024-09-06T08:27:18.000Z</time>
</trkpt>
<trkpt lat="46.1318820" lon="10.1619890">
	<ele>1897.40</ele>
	<time>2024-09-06T08:27:19.000Z</time>
</trkpt>
<trkpt lat="46.1318920" lon="10.1619860">
	<ele>1897.40</ele>
	<time>2024-09-06T08:27:20.000Z</time>
</trkpt>
<trkpt lat="46.1319020" lon="10.1619820">
	<ele>1897.20</ele>
	<time>2024-09-06T08:27:21.000Z</time>
</trkpt>
<trkpt lat="46.1319130" lon="10.1619760">
	<ele>1897.20</ele>
	<time>2024-09-06T08:27:22.000Z</time>
</trkpt>
<trkpt lat="46.1319220" lon="10.1619680">
	<ele>1897.00</ele>
	<time>2024-09-06T08:27:23.000Z</time>
</trkpt>
<trkpt lat="46.1319300" lon="10.1619610">
	<ele>1897.00</ele>
	<time>2024-09-06T08:27:24.000Z</time>
</trkpt>
<trkpt lat="46.1319370" lon="10.1619560">
	<ele>1897.00</ele>
	<time>2024-09-06T08:27:25.000Z</time>
</trkpt>
<trkpt lat="46.1319460" lon="10.1619510">
	<ele>1896.80</ele>
	<time>2024-09-06T08:27:26.000Z</time>
</trkpt>
<trkpt lat="46.1319580" lon="10.1619420">
	<ele>1896.80</ele>
	<time>2024-09-06T08:27:27.000Z</time>
</trkpt>
<trkpt lat="46.1319680" lon="10.1619310">
	<ele>1896.80</ele>
	<time>2024-09-06T08:27:28.000Z</time>
</trkpt>
<trkpt lat="46.1319750" lon="10.1619240">
	<ele>1896.60</ele>
	<time>2024-09-06T08:27:29.000Z</time>
</trkpt>
<trkpt lat="46.1319820" lon="10.1619210">
	<ele>1896.60</ele>
	<time>2024-09-06T08:27:30.000Z</time>
</trkpt>
<trkpt lat="46.1319910" lon="10.1619160">
	<ele>1896.40</ele>
	<time>2024-09-06T08:27:31.000Z</time>
</trkpt>
<trkpt lat="46.1320000" lon="10.1619130">
	<ele>1896.40</ele>
	<time>2024-09-06T08:27:32.000Z</time>
</trkpt>
<trkpt lat="46.1320170" lon="10.1619100">
	<ele>1896.40</ele>
	<time>2024-09-06T08:27:33.000Z</time>
</trkpt>
<trkpt lat="46.1320290" lon="10.1619080">
	<ele>1896.40</ele>
	<time>2024-09-06T08:27:34.000Z</time>
</trkpt>
<trkpt lat="46.1320400" lon="10.1619050">
	<ele>1896.40</ele>
	<time>2024-09-06T08:27:35.000Z</time>
</trkpt>
<trkpt lat="46.1320470" lon="10.1619030">
	<ele>1896.20</ele>
	<time>2024-09-06T08:27:36.000Z</time>
</trkpt>
<trkpt lat="46.1320530" lon="10.1618990">
	<ele>1896.20</ele>
	<time>2024-09-06T08:27:37.000Z</time>
</trkpt>
<trkpt lat="46.1320590" lon="10.1618940">
	<ele>1896.20</ele>
	<time>2024-09-06T08:27:38.000Z</time>
</trkpt>
<trkpt lat="46.1320660" lon="10.1618910">
	<ele>1896.20</ele>
	<time>2024-09-06T08:27:39.000Z</time>
</trkpt>
<trkpt lat="46.1320700" lon="10.1618860">
	<ele>1896.20</ele>
	<time>2024-09-06T08:27:40.000Z</time>
</trkpt>
<trkpt lat="46.1320720" lon="10.1618820">
	<ele>1896.20</ele>
	<time>2024-09-06T08:27:41.000Z</time>
</trkpt>
<trkpt lat="46.1320730" lon="10.1618790">
	<ele>1896.20</ele>
	<time>2024-09-06T08:27:42.000Z</time>
</trkpt>
<trkpt lat="46.1320720" lon="10.1618770">
	<ele>1896.40</ele>
	<time>2024-09-06T08:27:43.000Z</time>
</trkpt>
<trkpt lat="46.1320720" lon="10.1618750">
	<ele>1896.40</ele>
	<time>2024-09-06T08:27:44.000Z</time>
</trkpt>
<trkpt lat="46.1320730" lon="10.1618720">
	<ele>1896.40</ele>
	<time>2024-09-06T08:27:45.000Z</time>
</trkpt>
<trkpt lat="46.1320730" lon="10.1618720">
	<ele>1896.40</ele>
	<time>2024-09-06T08:27:46.000Z</time>
</trkpt>
<trkpt lat="46.1320730" lon="10.1618720">
	<ele>1896.60</ele>
	<time>2024-09-06T08:27:47.000Z</time>
</trkpt>
<trkpt lat="46.1320730" lon="10.1618730">
	<ele>1896.60</ele>
	<time>2024-09-06T08:27:48.000Z</time>
</trkpt>
<trkpt lat="46.1320720" lon="10.1618710">
	<ele>1896.60</ele>
	<time>2024-09-06T08:27:49.000Z</time>
</trkpt>
<trkpt lat="46.1320720" lon="10.1618710">
	<ele>1896.60</ele>
	<time>2024-09-06T08:27:50.000Z</time>
</trkpt>
<trkpt lat="46.1320720" lon="10.1618710">
	<ele>1896.60</ele>
	<time>2024-09-06T08:27:51.000Z</time>
</trkpt>
<trkpt lat="46.1320720" lon="10.1618710">
	<ele>1896.60</ele>
	<time>2024-09-06T08:27:52.000Z</time>
</trkpt>
<trkpt lat="46.1320720" lon="10.1618710">
	<ele>1896.60</ele>
	<time>2024-09-06T08:27:53.000Z</time>
</trkpt>
<trkpt lat="46.1320720" lon="10.1618710">
	<ele>1896.60</ele>
	<time>2024-09-06T08:27:54.000Z</time>
</trkpt>
<trkpt lat="46.1320720" lon="10.1618710">
	<ele>1896.60</ele>
	<time>2024-09-06T08:27:55.000Z</time>
</trkpt>
<trkpt lat="46.1320720" lon="10.1618710">
	<ele>1896.80</ele>
	<time>2024-09-06T08:27:56.000Z</time>
</trkpt>
<trkpt lat="46.1320720" lon="10.1618710">
	<ele>1896.80</ele>
	<time>2024-09-06T08:27:57.000Z</time>
</trkpt>
<trkpt lat="46.1320720" lon="10.1618710">
	<ele>1896.80</ele>
	<time>2024-09-06T08:27:58.000Z</time>
</trkpt>
<trkpt lat="46.1320720" lon="10.1618710">
	<ele>1896.80</ele>
	<time>2024-09-06T08:27:59.000Z</time>
</trkpt>
<trkpt lat="46.1320720" lon="10.1618710">
	<ele>1896.80</ele>
	<time>2024-09-06T08:28:00.000Z</time>
</trkpt>
<trkpt lat="46.1320720" lon="10.1618710">
	<ele>1896.80</ele>
	<time>2024-09-06T08:28:01.000Z</time>
</trkpt>
<trkpt lat="46.1320720" lon="10.1618710">
	<ele>1896.80</ele>
	<time>2024-09-06T08:28:02.000Z</time>
</trkpt>
<trkpt lat="46.1320720" lon="10.1618710">
	<ele>1896.80</ele>
	<time>2024-09-06T08:28:03.000Z</time>
</trkpt>
<trkpt lat="46.1320720" lon="10.1618710">
	<ele>1896.80</ele>
	<time>2024-09-06T08:28:04.000Z</time>
</trkpt>
<trkpt lat="46.1320710" lon="10.1618640">
	<ele>1896.80</ele>
	<time>2024-09-06T08:28:05.000Z</time>
</trkpt>
<trkpt lat="46.1320690" lon="10.1618510">
	<ele>1896.80</ele>
	<time>2024-09-06T08:28:06.000Z</time>
</trkpt>
<trkpt lat="46.1320670" lon="10.1618350">
	<ele>1896.80</ele>
	<time>2024-09-06T08:28:07.000Z</time>
</trkpt>
<trkpt lat="46.1320610" lon="10.1618240">
	<ele>1896.80</ele>
	<time>2024-09-06T08:28:08.000Z</time>
</trkpt>
<trkpt lat="46.1320570" lon="10.1618190">
	<ele>1896.80</ele>
	<time>2024-09-06T08:28:09.000Z</time>
</trkpt>
<trkpt lat="46.1320520" lon="10.1618140">
	<ele>1896.60</ele>
	<time>2024-09-06T08:28:10.000Z</time>
</trkpt>
<trkpt lat="46.1320430" lon="10.1618050">
	<ele>1896.60</ele>
	<time>2024-09-06T08:28:11.000Z</time>
</trkpt>
<trkpt lat="46.1320400" lon="10.1617970">
	<ele>1896.60</ele>
	<time>2024-09-06T08:28:12.000Z</time>
</trkpt>
<trkpt lat="46.1320370" lon="10.1617860">
	<ele>1896.60</ele>
	<time>2024-09-06T08:28:13.000Z</time>
</trkpt>
<trkpt lat="46.1320410" lon="10.1617860">
	<ele>1896.60</ele>
	<time>2024-09-06T08:28:14.000Z</time>
</trkpt>
<trkpt lat="46.1320480" lon="10.1617780">
	<ele>1896.80</ele>
	<time>2024-09-06T08:28:15.000Z</time>
</trkpt>
<trkpt lat="46.1320490" lon="10.1617660">
	<ele>1896.80</ele>
	<time>2024-09-06T08:28:16.000Z</time>
</trkpt>
<trkpt lat="46.1320530" lon="10.1617680">
	<ele>1896.80</ele>
	<time>2024-09-06T08:28:17.000Z</time>
</trkpt>
<trkpt lat="46.1320580" lon="10.1617750">
	<ele>1896.80</ele>
	<time>2024-09-06T08:28:18.000Z</time>
</trkpt>
<trkpt lat="46.1320590" lon="10.1617730">
	<ele>1896.80</ele>
	<time>2024-09-06T08:28:19.000Z</time>
</trkpt>
<trkpt lat="46.1320610" lon="10.1617720">
	<ele>1896.80</ele>
	<time>2024-09-06T08:28:20.000Z</time>
</trkpt>
<trkpt lat="46.1320650" lon="10.1617790">
	<ele>1896.80</ele>
	<time>2024-09-06T08:28:21.000Z</time>
</trkpt>
<trkpt lat="46.1320690" lon="10.1617840">
	<ele>1896.80</ele>
	<time>2024-09-06T08:28:22.000Z</time>
</trkpt>
<trkpt lat="46.1320720" lon="10.1617840">
	<ele>1896.60</ele>
	<time>2024-09-06T08:28:23.000Z</time>
</trkpt>
<trkpt lat="46.1320810" lon="10.1617890">
	<ele>1896.60</ele>
	<time>2024-09-06T08:28:24.000Z</time>
</trkpt>
<trkpt lat="46.1320890" lon="10.1617950">
	<ele>1896.60</ele>
	<time>2024-09-06T08:28:25.000Z</time>
</trkpt>
<trkpt lat="46.1320910" lon="10.1617950">
	<ele>1896.60</ele>
	<time>2024-09-06T08:28:26.000Z</time>
</trkpt>
<trkpt lat="46.1320920" lon="10.1617940">
	<ele>1896.60</ele>
	<time>2024-09-06T08:28:27.000Z</time>
</trkpt>
<trkpt lat="46.1321010" lon="10.1617850">
	<ele>1896.60</ele>
	<time>2024-09-06T08:28:28.000Z</time>
</trkpt>
<trkpt lat="46.1321080" lon="10.1617790">
	<ele>1896.60</ele>
	<time>2024-09-06T08:28:29.000Z</time>
</trkpt>
<trkpt lat="46.1321140" lon="10.1617690">
	<ele>1896.60</ele>
	<time>2024-09-06T08:28:30.000Z</time>
</trkpt>
<trkpt lat="46.1321230" lon="10.1617650">
	<ele>1896.60</ele>
	<time>2024-09-06T08:28:31.000Z</time>
</trkpt>
<trkpt lat="46.1321270" lon="10.1617550">
	<ele>1896.60</ele>
	<time>2024-09-06T08:28:32.000Z</time>
</trkpt>
<trkpt lat="46.1321290" lon="10.1617550">
	<ele>1896.60</ele>
	<time>2024-09-06T08:28:33.000Z</time>
</trkpt>
<trkpt lat="46.1321290" lon="10.1617560">
	<ele>1896.60</ele>
	<time>2024-09-06T08:28:34.000Z</time>
</trkpt>
<trkpt lat="46.1321280" lon="10.1617480">
	<ele>1896.60</ele>
	<time>2024-09-06T08:28:35.000Z</time>
</trkpt>
<trkpt lat="46.1321340" lon="10.1617440">
	<ele>1896.60</ele>
	<time>2024-09-06T08:28:36.000Z</time>
</trkpt>
<trkpt lat="46.1321380" lon="10.1617430">
	<ele>1896.60</ele>
	<time>2024-09-06T08:28:37.000Z</time>
</trkpt>
<trkpt lat="46.1321330" lon="10.1617450">
	<ele>1896.60</ele>
	<time>2024-09-06T08:28:38.000Z</time>
</trkpt>
<trkpt lat="46.1321300" lon="10.1617470">
	<ele>1896.60</ele>
	<time>2024-09-06T08:28:39.000Z</time>
</trkpt>
<trkpt lat="46.1321300" lon="10.1617460">
	<ele>1896.60</ele>
	<time>2024-09-06T08:28:40.000Z</time>
</trkpt>
<trkpt lat="46.1321280" lon="10.1617490">
	<ele>1896.60</ele>
	<time>2024-09-06T08:28:41.000Z</time>
</trkpt>
<trkpt lat="46.1321280" lon="10.1617510">
	<ele>1896.60</ele>
	<time>2024-09-06T08:28:42.000Z</time>
</trkpt>
<trkpt lat="46.1321280" lon="10.1617510">
	<ele>1896.60</ele>
	<time>2024-09-06T08:28:43.000Z</time>
</trkpt>
<trkpt lat="46.1321280" lon="10.1617510">
	<ele>1896.60</ele>
	<time>2024-09-06T08:28:44.000Z</time>
</trkpt>
<trkpt lat="46.1321280" lon="10.1617510">
	<ele>1896.60</ele>
	<time>2024-09-06T08:28:45.000Z</time>
</trkpt>
<trkpt lat="46.1321280" lon="10.1617510">
	<ele>1896.60</ele>
	<time>2024-09-06T08:28:46.000Z</time>
</trkpt>
<trkpt lat="46.1321280" lon="10.1617510">
	<ele>1896.60</ele>
	<time>2024-09-06T08:28:47.000Z</time>
</trkpt>
<trkpt lat="46.1321280" lon="10.1617510">
	<ele>1896.60</ele>
	<time>2024-09-06T08:28:48.000Z</time>
</trkpt>
<trkpt lat="46.1321280" lon="10.1617510">
	<ele>1896.60</ele>
	<time>2024-09-06T08:28:49.000Z</time>
</trkpt>
<trkpt lat="46.1321280" lon="10.1617510">
	<ele>1896.60</ele>
	<time>2024-09-06T08:28:50.000Z</time>
</trkpt>
<trkpt lat="46.1321280" lon="10.1617510">
	<ele>1896.60</ele>
	<time>2024-09-06T08:28:51.000Z</time>
</trkpt>
<trkpt lat="46.1321280" lon="10.1617510">
	<ele>1896.60</ele>
	<time>2024-09-06T08:28:52.000Z</time>
</trkpt>
<trkpt lat="46.1321280" lon="10.1617510">
	<ele>1896.40</ele>
	<time>2024-09-06T08:28:53.000Z</time>
</trkpt>
<trkpt lat="46.1321280" lon="10.1617510">
	<ele>1896.40</ele>
	<time>2024-09-06T08:28:54.000Z</time>
</trkpt>
<trkpt lat="46.1321280" lon="10.1617510">
	<ele>1896.40</ele>
	<time>2024-09-06T08:28:55.000Z</time>
</trkpt>
<trkpt lat="46.1321280" lon="10.1617510">
	<ele>1896.40</ele>
	<time>2024-09-06T08:28:56.000Z</time>
</trkpt>
<trkpt lat="46.1321280" lon="10.1617510">
	<ele>1896.60</ele>
	<time>2024-09-06T08:28:57.000Z</time>
</trkpt>
<trkpt lat="46.1321280" lon="10.1617510">
	<ele>1896.80</ele>
	<time>2024-09-06T08:28:58.000Z</time>
</trkpt>
<trkpt lat="46.1321280" lon="10.1617540">
	<ele>1896.80</ele>
	<time>2024-09-06T08:28:59.000Z</time>
</trkpt>
<trkpt lat="46.1321270" lon="10.1617550">
	<ele>1896.80</ele>
	<time>2024-09-06T08:29:00.000Z</time>
</trkpt>
<trkpt lat="46.1321140" lon="10.1617580">
	<ele>1896.80</ele>
	<time>2024-09-06T08:29:01.000Z</time>
</trkpt>
<trkpt lat="46.1321120" lon="10.1617590">
	<ele>1896.80</ele>
	<time>2024-09-06T08:29:02.000Z</time>
</trkpt>
<trkpt lat="46.1321080" lon="10.1617600">
	<ele>1896.80</ele>
	<time>2024-09-06T08:29:03.000Z</time>
</trkpt>
<trkpt lat="46.1321070" lon="10.1617600">
	<ele>1896.80</ele>
	<time>2024-09-06T08:29:04.000Z</time>
</trkpt>
<trkpt lat="46.1321010" lon="10.1617610">
	<ele>1896.80</ele>
	<time>2024-09-06T08:29:05.000Z</time>
</trkpt>
<trkpt lat="46.1320990" lon="10.1617610">
	<ele>1896.80</ele>
	<time>2024-09-06T08:29:06.000Z</time>
</trkpt>
<trkpt lat="46.1320970" lon="10.1617620">
	<ele>1896.80</ele>
	<time>2024-09-06T08:29:07.000Z</time>
</trkpt>
<trkpt lat="46.1320970" lon="10.1617620">
	<ele>1896.80</ele>
	<time>2024-09-06T08:29:08.000Z</time>
</trkpt>
<trkpt lat="46.1320910" lon="10.1617620">
	<ele>1896.80</ele>
	<time>2024-09-06T08:29:09.000Z</time>
</trkpt>
<trkpt lat="46.1320900" lon="10.1617620">
	<ele>1896.80</ele>
	<time>2024-09-06T08:29:10.000Z</time>
</trkpt>
<trkpt lat="46.1320890" lon="10.1617630">
	<ele>1896.80</ele>
	<time>2024-09-06T08:29:11.000Z</time>
</trkpt>
<trkpt lat="46.1320880" lon="10.1617660">
	<ele>1896.80</ele>
	<time>2024-09-06T08:29:12.000Z</time>
</trkpt>
<trkpt lat="46.1320880" lon="10.1617670">
	<ele>1896.80</ele>
	<time>2024-09-06T08:29:13.000Z</time>
</trkpt>
<trkpt lat="46.1320870" lon="10.1617670">
	<ele>1896.80</ele>
	<time>2024-09-06T08:29:14.000Z</time>
</trkpt>
<trkpt lat="46.1320870" lon="10.1617670">
	<ele>1896.80</ele>
	<time>2024-09-06T08:29:15.000Z</time>
</trkpt>
<trkpt lat="46.1320870" lon="10.1617670">
	<ele>1896.80</ele>
	<time>2024-09-06T08:29:16.000Z</time>
</trkpt>
<trkpt lat="46.1320860" lon="10.1617680">
	<ele>1896.80</ele>
	<time>2024-09-06T08:29:17.000Z</time>
</trkpt>
<trkpt lat="46.1320850" lon="10.1617680">
	<ele>1896.80</ele>
	<time>2024-09-06T08:29:18.000Z</time>
</trkpt>
<trkpt lat="46.1320840" lon="10.1617690">
	<ele>1896.80</ele>
	<time>2024-09-06T08:29:19.000Z</time>
</trkpt>
<trkpt lat="46.1320840" lon="10.1617700">
	<ele>1896.80</ele>
	<time>2024-09-06T08:29:20.000Z</time>
</trkpt>
<trkpt lat="46.1320840" lon="10.1617710">
	<ele>1896.80</ele>
	<time>2024-09-06T08:29:21.000Z</time>
</trkpt>
<trkpt lat="46.1320840" lon="10.1617710">
	<ele>1896.80</ele>
	<time>2024-09-06T08:29:22.000Z</time>
</trkpt>
<trkpt lat="46.1320840" lon="10.1617710">
	<ele>1896.80</ele>
	<time>2024-09-06T08:29:23.000Z</time>
</trkpt>
<trkpt lat="46.1320840" lon="10.1617710">
	<ele>1896.80</ele>
	<time>2024-09-06T08:29:24.000Z</time>
</trkpt>
<trkpt lat="46.1320840" lon="10.1617710">
	<ele>1896.80</ele>
	<time>2024-09-06T08:29:25.000Z</time>
</trkpt>
<trkpt lat="46.1320840" lon="10.1617710">
	<ele>1896.80</ele>
	<time>2024-09-06T08:29:26.000Z</time>
</trkpt>
<trkpt lat="46.1320840" lon="10.1617710">
	<ele>1896.80</ele>
	<time>2024-09-06T08:29:27.000Z</time>
</trkpt>
<trkpt lat="46.1320840" lon="10.1617710">
	<ele>1896.80</ele>
	<time>2024-09-06T08:29:28.000Z</time>
</trkpt>
<trkpt lat="46.1320840" lon="10.1617710">
	<ele>1896.80</ele>
	<time>2024-09-06T08:29:29.000Z</time>
</trkpt>
<trkpt lat="46.1320830" lon="10.1617710">
	<ele>1896.80</ele>
	<time>2024-09-06T08:29:30.000Z</time>
</trkpt>
<trkpt lat="46.1320830" lon="10.1617710">
	<ele>1896.80</ele>
	<time>2024-09-06T08:29:31.000Z</time>
</trkpt>
<trkpt lat="46.1320830" lon="10.1617710">
	<ele>1896.80</ele>
	<time>2024-09-06T08:29:32.000Z</time>
</trkpt>
<trkpt lat="46.1320830" lon="10.1617710">
	<ele>1896.80</ele>
	<time>2024-09-06T08:29:33.000Z</time>
</trkpt>
<trkpt lat="46.1320820" lon="10.1617710">
	<ele>1896.80</ele>
	<time>2024-09-06T08:29:34.000Z</time>
</trkpt>
<trkpt lat="46.1320820" lon="10.1617710">
	<ele>1896.80</ele>
	<time>2024-09-06T08:29:35.000Z</time>
</trkpt>
<trkpt lat="46.1320820" lon="10.1617710">
	<ele>1896.80</ele>
	<time>2024-09-06T08:29:36.000Z</time>
</trkpt>
<trkpt lat="46.1320810" lon="10.1617710">
	<ele>1896.80</ele>
	<time>2024-09-06T08:29:37.000Z</time>
</trkpt>
<trkpt lat="46.1320810" lon="10.1617710">
	<ele>1896.80</ele>
	<time>2024-09-06T08:29:38.000Z</time>
</trkpt>
<trkpt lat="46.1320810" lon="10.1617710">
	<ele>1896.80</ele>
	<time>2024-09-06T08:29:39.000Z</time>
</trkpt>
<trkpt lat="46.1320810" lon="10.1617710">
	<ele>1896.80</ele>
	<time>2024-09-06T08:29:40.000Z</time>
</trkpt>
<trkpt lat="46.1320810" lon="10.1617710">
	<ele>1896.80</ele>
	<time>2024-09-06T08:29:41.000Z</time>
</trkpt>
<trkpt lat="46.1320810" lon="10.1617710">
	<ele>1896.80</ele>
	<time>2024-09-06T08:29:42.000Z</time>
</trkpt>
<trkpt lat="46.1320810" lon="10.1617710">
	<ele>1896.80</ele>
	<time>2024-09-06T08:29:43.000Z</time>
</trkpt>
<trkpt lat="46.1320820" lon="10.1617710">
	<ele>1896.80</ele>
	<time>2024-09-06T08:29:44.000Z</time>
</trkpt>
<trkpt lat="46.1320820" lon="10.1617730">
	<ele>1896.80</ele>
	<time>2024-09-06T08:29:45.000Z</time>
</trkpt>
<trkpt lat="46.1320770" lon="10.1617780">
	<ele>1896.80</ele>
	<time>2024-09-06T08:29:46.000Z</time>
</trkpt>
<trkpt lat="46.1320760" lon="10.1617820">
	<ele>1896.80</ele>
	<time>2024-09-06T08:29:47.000Z</time>
</trkpt>
<trkpt lat="46.1320650" lon="10.1617890">
	<ele>1896.80</ele>
	<time>2024-09-06T08:29:48.000Z</time>
</trkpt>
<trkpt lat="46.1320550" lon="10.1617980">
	<ele>1896.80</ele>
	<time>2024-09-06T08:29:49.000Z</time>
</trkpt>
<trkpt lat="46.1320450" lon="10.1618130">
	<ele>1896.80</ele>
	<time>2024-09-06T08:29:50.000Z</time>
</trkpt>
<trkpt lat="46.1320420" lon="10.1618100">
	<ele>1896.80</ele>
	<time>2024-09-06T08:29:51.000Z</time>
</trkpt>
<trkpt lat="46.1320470" lon="10.1618060">
	<ele>1896.80</ele>
	<time>2024-09-06T08:29:52.000Z</time>
</trkpt>
<trkpt lat="46.1320490" lon="10.1618060">
	<ele>1896.80</ele>
	<time>2024-09-06T08:29:53.000Z</time>
</trkpt>
<trkpt lat="46.1320480" lon="10.1618040">
	<ele>1896.80</ele>
	<time>2024-09-06T08:29:54.000Z</time>
</trkpt>
<trkpt lat="46.1320530" lon="10.1618030">
	<ele>1896.80</ele>
	<time>2024-09-06T08:29:55.000Z</time>
</trkpt>
<trkpt lat="46.1320540" lon="10.1617970">
	<ele>1896.80</ele>
	<time>2024-09-06T08:29:56.000Z</time>
</trkpt>
<trkpt lat="46.1320550" lon="10.1617970">
	<ele>1896.80</ele>
	<time>2024-09-06T08:29:57.000Z</time>
</trkpt>
<trkpt lat="46.1320580" lon="10.1617960">
	<ele>1896.80</ele>
	<time>2024-09-06T08:29:58.000Z</time>
</trkpt>
<trkpt lat="46.1320570" lon="10.1617900">
	<ele>1896.80</ele>
	<time>2024-09-06T08:29:59.000Z</time>
</trkpt>
<trkpt lat="46.1320520" lon="10.1617860">
	<ele>1896.80</ele>
	<time>2024-09-06T08:30:00.000Z</time>
</trkpt>
<trkpt lat="46.1320470" lon="10.1617860">
	<ele>1896.80</ele>
	<time>2024-09-06T08:30:01.000Z</time>
</trkpt>
<trkpt lat="46.1320390" lon="10.1617950">
	<ele>1896.80</ele>
	<time>2024-09-06T08:30:02.000Z</time>
</trkpt>
<trkpt lat="46.1320340" lon="10.1618060">
	<ele>1896.80</ele>
	<time>2024-09-06T08:30:03.000Z</time>
</trkpt>
<trkpt lat="46.1320360" lon="10.1618120">
	<ele>1896.80</ele>
	<time>2024-09-06T08:30:04.000Z</time>
</trkpt>
<trkpt lat="46.1320410" lon="10.1618160">
	<ele>1896.80</ele>
	<time>2024-09-06T08:30:05.000Z</time>
</trkpt>
<trkpt lat="46.1320400" lon="10.1618230">
	<ele>1896.80</ele>
	<time>2024-09-06T08:30:06.000Z</time>
</trkpt>
<trkpt lat="46.1320360" lon="10.1618390">
	<ele>1896.80</ele>
	<time>2024-09-06T08:30:07.000Z</time>
</trkpt>
<trkpt lat="46.1320340" lon="10.1618540">
	<ele>1896.80</ele>
	<time>2024-09-06T08:30:08.000Z</time>
</trkpt>
<trkpt lat="46.1320350" lon="10.1618650">
	<ele>1896.80</ele>
	<time>2024-09-06T08:30:09.000Z</time>
</trkpt>
<trkpt lat="46.1320370" lon="10.1618760">
	<ele>1896.80</ele>
	<time>2024-09-06T08:30:10.000Z</time>
</trkpt>
<trkpt lat="46.1320390" lon="10.1618900">
	<ele>1896.80</ele>
	<time>2024-09-06T08:30:11.000Z</time>
</trkpt>
<trkpt lat="46.1320400" lon="10.1619020">
	<ele>1896.80</ele>
	<time>2024-09-06T08:30:12.000Z</time>
</trkpt>
<trkpt lat="46.1320390" lon="10.1619130">
	<ele>1896.80</ele>
	<time>2024-09-06T08:30:13.000Z</time>
</trkpt>
<trkpt lat="46.1320430" lon="10.1619240">
	<ele>1896.80</ele>
	<time>2024-09-06T08:30:14.000Z</time>
</trkpt>
<trkpt lat="46.1320490" lon="10.1619320">
	<ele>1896.80</ele>
	<time>2024-09-06T08:30:15.000Z</time>
</trkpt>
<trkpt lat="46.1320510" lon="10.1619370">
	<ele>1896.80</ele>
	<time>2024-09-06T08:30:16.000Z</time>
</trkpt>
<trkpt lat="46.1320570" lon="10.1619400">
	<ele>1896.80</ele>
	<time>2024-09-06T08:30:17.000Z</time>
</trkpt>
<trkpt lat="46.1320600" lon="10.1619560">
	<ele>1896.80</ele>
	<time>2024-09-06T08:30:18.000Z</time>
</trkpt>
<trkpt lat="46.1320620" lon="10.1619630">
	<ele>1896.80</ele>
	<time>2024-09-06T08:30:19.000Z</time>
</trkpt>
<trkpt lat="46.1320640" lon="10.1619680">
	<ele>1896.80</ele>
	<time>2024-09-06T08:30:20.000Z</time>
</trkpt>
<trkpt lat="46.1320640" lon="10.1619760">
	<ele>1896.80</ele>
	<time>2024-09-06T08:30:21.000Z</time>
</trkpt>
<trkpt lat="46.1320640" lon="10.1619790">
	<ele>1896.80</ele>
	<time>2024-09-06T08:30:22.000Z</time>
</trkpt>
<trkpt lat="46.1320640" lon="10.1619800">
	<ele>1896.80</ele>
	<time>2024-09-06T08:30:23.000Z</time>
</trkpt>
<trkpt lat="46.1320580" lon="10.1619850">
	<ele>1896.80</ele>
	<time>2024-09-06T08:30:24.000Z</time>
</trkpt>
<trkpt lat="46.1320490" lon="10.1619970">
	<ele>1896.80</ele>
	<time>2024-09-06T08:30:25.000Z</time>
</trkpt>
<trkpt lat="46.1320390" lon="10.1620100">
	<ele>1896.80</ele>
	<time>2024-09-06T08:30:26.000Z</time>
</trkpt>
<trkpt lat="46.1320350" lon="10.1620130">
	<ele>1896.80</ele>
	<time>2024-09-06T08:30:27.000Z</time>
</trkpt>
<trkpt lat="46.1320340" lon="10.1620190">
	<ele>1896.80</ele>
	<time>2024-09-06T08:30:28.000Z</time>
</trkpt>
<trkpt lat="46.1320400" lon="10.1620190">
	<ele>1896.80</ele>
	<time>2024-09-06T08:30:29.000Z</time>
</trkpt>
<trkpt lat="46.1320480" lon="10.1620200">
	<ele>1896.80</ele>
	<time>2024-09-06T08:30:30.000Z</time>
</trkpt>
<trkpt lat="46.1320560" lon="10.1620210">
	<ele>1896.80</ele>
	<time>2024-09-06T08:30:31.000Z</time>
</trkpt>
<trkpt lat="46.1320580" lon="10.1620230">
	<ele>1896.80</ele>
	<time>2024-09-06T08:30:32.000Z</time>
</trkpt>
<trkpt lat="46.1320620" lon="10.1620090">
	<ele>1896.80</ele>
	<time>2024-09-06T08:30:33.000Z</time>
</trkpt>
<trkpt lat="46.1320660" lon="10.1619930">
	<ele>1896.80</ele>
	<time>2024-09-06T08:30:34.000Z</time>
</trkpt>
<trkpt lat="46.1320650" lon="10.1619790">
	<ele>1896.80</ele>
	<time>2024-09-06T08:30:35.000Z</time>
</trkpt>
<trkpt lat="46.1320580" lon="10.1619780">
	<ele>1896.80</ele>
	<time>2024-09-06T08:30:36.000Z</time>
</trkpt>
<trkpt lat="46.1320560" lon="10.1619670">
	<ele>1896.80</ele>
	<time>2024-09-06T08:30:37.000Z</time>
</trkpt>
<trkpt lat="46.1320560" lon="10.1619480">
	<ele>1896.80</ele>
	<time>2024-09-06T08:30:38.000Z</time>
</trkpt>
<trkpt lat="46.1320590" lon="10.1619280">
	<ele>1896.80</ele>
	<time>2024-09-06T08:30:39.000Z</time>
</trkpt>
<trkpt lat="46.1320570" lon="10.1619190">
	<ele>1896.80</ele>
	<time>2024-09-06T08:30:40.000Z</time>
</trkpt>
<trkpt lat="46.1320570" lon="10.1619080">
	<ele>1896.80</ele>
	<time>2024-09-06T08:30:41.000Z</time>
</trkpt>
<trkpt lat="46.1320560" lon="10.1618930">
	<ele>1896.80</ele>
	<time>2024-09-06T08:30:42.000Z</time>
</trkpt>
<trkpt lat="46.1320590" lon="10.1618760">
	<ele>1896.80</ele>
	<time>2024-09-06T08:30:43.000Z</time>
</trkpt>
<trkpt lat="46.1320580" lon="10.1618660">
	<ele>1896.80</ele>
	<time>2024-09-06T08:30:44.000Z</time>
</trkpt>
<trkpt lat="46.1320590" lon="10.1618610">
	<ele>1896.80</ele>
	<time>2024-09-06T08:30:45.000Z</time>
</trkpt>
<trkpt lat="46.1320570" lon="10.1618500">
	<ele>1896.80</ele>
	<time>2024-09-06T08:30:46.000Z</time>
</trkpt>
<trkpt lat="46.1320560" lon="10.1618350">
	<ele>1896.80</ele>
	<time>2024-09-06T08:30:47.000Z</time>
</trkpt>
<trkpt lat="46.1320590" lon="10.1618230">
	<ele>1896.80</ele>
	<time>2024-09-06T08:30:48.000Z</time>
</trkpt>
<trkpt lat="46.1320570" lon="10.1618030">
	<ele>1896.80</ele>
	<time>2024-09-06T08:30:49.000Z</time>
</trkpt>
<trkpt lat="46.1320570" lon="10.1617890">
	<ele>1896.80</ele>
	<time>2024-09-06T08:30:50.000Z</time>
</trkpt>
<trkpt lat="46.1320580" lon="10.1617810">
	<ele>1896.80</ele>
	<time>2024-09-06T08:30:51.000Z</time>
</trkpt>
<trkpt lat="46.1320590" lon="10.1617740">
	<ele>1896.80</ele>
	<time>2024-09-06T08:30:52.000Z</time>
</trkpt>
<trkpt lat="46.1320570" lon="10.1617680">
	<ele>1896.80</ele>
	<time>2024-09-06T08:30:53.000Z</time>
</trkpt>
<trkpt lat="46.1320560" lon="10.1617630">
	<ele>1896.80</ele>
	<time>2024-09-06T08:30:54.000Z</time>
</trkpt>
<trkpt lat="46.1320520" lon="10.1617530">
	<ele>1896.80</ele>
	<time>2024-09-06T08:30:55.000Z</time>
</trkpt>
<trkpt lat="46.1320480" lon="10.1617470">
	<ele>1896.80</ele>
	<time>2024-09-06T08:30:56.000Z</time>
</trkpt>
<trkpt lat="46.1320470" lon="10.1617460">
	<ele>1896.80</ele>
	<time>2024-09-06T08:30:57.000Z</time>
</trkpt>
<trkpt lat="46.1320470" lon="10.1617440">
	<ele>1896.80</ele>
	<time>2024-09-06T08:30:58.000Z</time>
</trkpt>
<trkpt lat="46.1320460" lon="10.1617440">
	<ele>1896.80</ele>
	<time>2024-09-06T08:30:59.000Z</time>
</trkpt>
<trkpt lat="46.1320470" lon="10.1617390">
	<ele>1896.80</ele>
	<time>2024-09-06T08:31:00.000Z</time>
</trkpt>
<trkpt lat="46.1320470" lon="10.1617380">
	<ele>1896.80</ele>
	<time>2024-09-06T08:31:01.000Z</time>
</trkpt>
<trkpt lat="46.1320470" lon="10.1617400">
	<ele>1896.80</ele>
	<time>2024-09-06T08:31:02.000Z</time>
</trkpt>
<trkpt lat="46.1320470" lon="10.1617410">
	<ele>1896.80</ele>
	<time>2024-09-06T08:31:03.000Z</time>
</trkpt>
<trkpt lat="46.1320480" lon="10.1617390">
	<ele>1896.80</ele>
	<time>2024-09-06T08:31:04.000Z</time>
</trkpt>
<trkpt lat="46.1320490" lon="10.1617380">
	<ele>1896.80</ele>
	<time>2024-09-06T08:31:05.000Z</time>
</trkpt>
<trkpt lat="46.1320490" lon="10.1617380">
	<ele>1896.80</ele>
	<time>2024-09-06T08:31:06.000Z</time>
</trkpt>
<trkpt lat="46.1320490" lon="10.1617380">
	<ele>1896.80</ele>
	<time>2024-09-06T08:31:07.000Z</time>
</trkpt>
<trkpt lat="46.1320490" lon="10.1617380">
	<ele>1896.80</ele>
	<time>2024-09-06T08:31:08.000Z</time>
</trkpt>
<trkpt lat="46.1320490" lon="10.1617380">
	<ele>1896.80</ele>
	<time>2024-09-06T08:31:09.000Z</time>
</trkpt>
<trkpt lat="46.1320490" lon="10.1617380">
	<ele>1896.80</ele>
	<time>2024-09-06T08:31:10.000Z</time>
</trkpt>
<trkpt lat="46.1320490" lon="10.1617380">
	<ele>1896.80</ele>
	<time>2024-09-06T08:31:11.000Z</time>
</trkpt>
<trkpt lat="46.1320490" lon="10.1617380">
	<ele>1896.80</ele>
	<time>2024-09-06T08:31:12.000Z</time>
</trkpt>
<trkpt lat="46.1320490" lon="10.1617380">
	<ele>1896.80</ele>
	<time>2024-09-06T08:31:13.000Z</time>
</trkpt>
<trkpt lat="46.1320490" lon="10.1617390">
	<ele>1896.80</ele>
	<time>2024-09-06T08:31:14.000Z</time>
</trkpt>
<trkpt lat="46.1320490" lon="10.1617390">
	<ele>1896.80</ele>
	<time>2024-09-06T08:31:15.000Z</time>
</trkpt>
<trkpt lat="46.1320490" lon="10.1617400">
	<ele>1896.80</ele>
	<time>2024-09-06T08:31:16.000Z</time>
</trkpt>
<trkpt lat="46.1320490" lon="10.1617410">
	<ele>1896.80</ele>
	<time>2024-09-06T08:31:17.000Z</time>
</trkpt>
<trkpt lat="46.1320490" lon="10.1617410">
	<ele>1896.80</ele>
	<time>2024-09-06T08:31:18.000Z</time>
</trkpt>
<trkpt lat="46.1320490" lon="10.1617430">
	<ele>1896.80</ele>
	<time>2024-09-06T08:31:19.000Z</time>
</trkpt>
<trkpt lat="46.1320490" lon="10.1617440">
	<ele>1896.80</ele>
	<time>2024-09-06T08:31:20.000Z</time>
</trkpt>
<trkpt lat="46.1320490" lon="10.1617460">
	<ele>1896.80</ele>
	<time>2024-09-06T08:31:21.000Z</time>
</trkpt>
<trkpt lat="46.1320520" lon="10.1617460">
	<ele>1896.80</ele>
	<time>2024-09-06T08:31:22.000Z</time>
</trkpt>
<trkpt lat="46.1320540" lon="10.1617490">
	<ele>1896.80</ele>
	<time>2024-09-06T08:31:23.000Z</time>
</trkpt>
<trkpt lat="46.1320550" lon="10.1617520">
	<ele>1896.80</ele>
	<time>2024-09-06T08:31:24.000Z</time>
</trkpt>
<trkpt lat="46.1320560" lon="10.1617550">
	<ele>1896.80</ele>
	<time>2024-09-06T08:31:25.000Z</time>
</trkpt>
<trkpt lat="46.1320560" lon="10.1617570">
	<ele>1896.80</ele>
	<time>2024-09-06T08:31:26.000Z</time>
</trkpt>
<trkpt lat="46.1320580" lon="10.1617570">
	<ele>1896.80</ele>
	<time>2024-09-06T08:31:27.000Z</time>
</trkpt>
<trkpt lat="46.1320580" lon="10.1617570">
	<ele>1896.80</ele>
	<time>2024-09-06T08:31:28.000Z</time>
</trkpt>
<trkpt lat="46.1320580" lon="10.1617570">
	<ele>1896.80</ele>
	<time>2024-09-06T08:31:29.000Z</time>
</trkpt>
<trkpt lat="46.1320590" lon="10.1617570">
	<ele>1896.80</ele>
	<time>2024-09-06T08:31:30.000Z</time>
</trkpt>
<trkpt lat="46.1320590" lon="10.1617570">
	<ele>1896.80</ele>
	<time>2024-09-06T08:31:31.000Z</time>
</trkpt>
<trkpt lat="46.1320600" lon="10.1617570">
	<ele>1896.80</ele>
	<time>2024-09-06T08:31:32.000Z</time>
</trkpt>
<trkpt lat="46.1320610" lon="10.1617570">
	<ele>1896.80</ele>
	<time>2024-09-06T08:31:33.000Z</time>
</trkpt>
<trkpt lat="46.1320610" lon="10.1617570">
	<ele>1896.80</ele>
	<time>2024-09-06T08:31:34.000Z</time>
</trkpt>
<trkpt lat="46.1320620" lon="10.1617570">
	<ele>1896.80</ele>
	<time>2024-09-06T08:31:35.000Z</time>
</trkpt>
<trkpt lat="46.1320630" lon="10.1617570">
	<ele>1896.80</ele>
	<time>2024-09-06T08:31:36.000Z</time>
</trkpt>
<trkpt lat="46.1320640" lon="10.1617570">
	<ele>1896.80</ele>
	<time>2024-09-06T08:31:37.000Z</time>
</trkpt>
<trkpt lat="46.1320660" lon="10.1617570">
	<ele>1896.80</ele>
	<time>2024-09-06T08:31:38.000Z</time>
</trkpt>
<trkpt lat="46.1320690" lon="10.1617570">
	<ele>1896.80</ele>
	<time>2024-09-06T08:31:39.000Z</time>
</trkpt>
<trkpt lat="46.1320720" lon="10.1617570">
	<ele>1896.80</ele>
	<time>2024-09-06T08:31:40.000Z</time>
</trkpt>
<trkpt lat="46.1320730" lon="10.1617560">
	<ele>1896.80</ele>
	<time>2024-09-06T08:31:41.000Z</time>
</trkpt>
<trkpt lat="46.1320730" lon="10.1617550">
	<ele>1896.80</ele>
	<time>2024-09-06T08:31:42.000Z</time>
</trkpt>
<trkpt lat="46.1320740" lon="10.1617530">
	<ele>1896.80</ele>
	<time>2024-09-06T08:31:43.000Z</time>
</trkpt>
<trkpt lat="46.1320740" lon="10.1617530">
	<ele>1896.80</ele>
	<time>2024-09-06T08:31:44.000Z</time>
</trkpt>
<trkpt lat="46.1320740" lon="10.1617520">
	<ele>1896.80</ele>
	<time>2024-09-06T08:31:45.000Z</time>
</trkpt>
<trkpt lat="46.1320740" lon="10.1617520">
	<ele>1896.80</ele>
	<time>2024-09-06T08:31:46.000Z</time>
</trkpt>
<trkpt lat="46.1320750" lon="10.1617520">
	<ele>1896.80</ele>
	<time>2024-09-06T08:31:47.000Z</time>
</trkpt>
<trkpt lat="46.1320750" lon="10.1617520">
	<ele>1896.80</ele>
	<time>2024-09-06T08:31:48.000Z</time>
</trkpt>
<trkpt lat="46.1320750" lon="10.1617520">
	<ele>1896.80</ele>
	<time>2024-09-06T08:31:49.000Z</time>
</trkpt>
<trkpt lat="46.1320750" lon="10.1617520">
	<ele>1896.80</ele>
	<time>2024-09-06T08:31:50.000Z</time>
</trkpt>
<trkpt lat="46.1320750" lon="10.1617520">
	<ele>1896.80</ele>
	<time>2024-09-06T08:31:51.000Z</time>
</trkpt>
<trkpt lat="46.1320750" lon="10.1617510">
	<ele>1896.80</ele>
	<time>2024-09-06T08:31:52.000Z</time>
</trkpt>
<trkpt lat="46.1320760" lon="10.1617510">
	<ele>1896.80</ele>
	<time>2024-09-06T08:31:53.000Z</time>
</trkpt>
<trkpt lat="46.1320760" lon="10.1617500">
	<ele>1896.80</ele>
	<time>2024-09-06T08:31:54.000Z</time>
</trkpt>
<trkpt lat="46.1320760" lon="10.1617490">
	<ele>1896.80</ele>
	<time>2024-09-06T08:31:55.000Z</time>
</trkpt>
<trkpt lat="46.1320760" lon="10.1617480">
	<ele>1896.80</ele>
	<time>2024-09-06T08:31:56.000Z</time>
</trkpt>
<trkpt lat="46.1320770" lon="10.1617480">
	<ele>1896.80</ele>
	<time>2024-09-06T08:31:57.000Z</time>
</trkpt>
<trkpt lat="46.1320770" lon="10.1617470">
	<ele>1896.80</ele>
	<time>2024-09-06T08:31:58.000Z</time>
</trkpt>
<trkpt lat="46.1320770" lon="10.1617470">
	<ele>1896.80</ele>
	<time>2024-09-06T08:31:59.000Z</time>
</trkpt>
<trkpt lat="46.1320780" lon="10.1617440">
	<ele>1896.80</ele>
	<time>2024-09-06T08:32:00.000Z</time>
</trkpt>
<trkpt lat="46.1320790" lon="10.1617430">
	<ele>1896.80</ele>
	<time>2024-09-06T08:32:01.000Z</time>
</trkpt>
<trkpt lat="46.1320800" lon="10.1617420">
	<ele>1896.80</ele>
	<time>2024-09-06T08:32:02.000Z</time>
</trkpt>
<trkpt lat="46.1320810" lon="10.1617410">
	<ele>1896.80</ele>
	<time>2024-09-06T08:32:03.000Z</time>
</trkpt>
<trkpt lat="46.1320810" lon="10.1617400">
	<ele>1896.80</ele>
	<time>2024-09-06T08:32:04.000Z</time>
</trkpt>
<trkpt lat="46.1320820" lon="10.1617400">
	<ele>1896.80</ele>
	<time>2024-09-06T08:32:05.000Z</time>
</trkpt>
<trkpt lat="46.1320820" lon="10.1617400">
	<ele>1896.80</ele>
	<time>2024-09-06T08:32:06.000Z</time>
</trkpt>
<trkpt lat="46.1320830" lon="10.1617400">
	<ele>1896.80</ele>
	<time>2024-09-06T08:32:07.000Z</time>
</trkpt>
<trkpt lat="46.1320840" lon="10.1617420">
	<ele>1896.80</ele>
	<time>2024-09-06T08:32:08.000Z</time>
</trkpt>
<trkpt lat="46.1320860" lon="10.1617520">
	<ele>1896.80</ele>
	<time>2024-09-06T08:32:09.000Z</time>
</trkpt>
<trkpt lat="46.1320950" lon="10.1617550">
	<ele>1896.80</ele>
	<time>2024-09-06T08:32:10.000Z</time>
</trkpt>
<trkpt lat="46.1320820" lon="10.1617690">
	<ele>1896.80</ele>
	<time>2024-09-06T08:32:11.000Z</time>
</trkpt>
<trkpt lat="46.1320830" lon="10.1617690">
	<ele>1896.80</ele>
	<time>2024-09-06T08:32:12.000Z</time>
</trkpt>
<trkpt lat="46.1320830" lon="10.1617720">
	<ele>1896.80</ele>
	<time>2024-09-06T08:32:13.000Z</time>
</trkpt>
<trkpt lat="46.1320830" lon="10.1617740">
	<ele>1896.80</ele>
	<time>2024-09-06T08:32:14.000Z</time>
</trkpt>
<trkpt lat="46.1320850" lon="10.1617770">
	<ele>1896.80</ele>
	<time>2024-09-06T08:32:15.000Z</time>
</trkpt>
<trkpt lat="46.1320870" lon="10.1617800">
	<ele>1896.80</ele>
	<time>2024-09-06T08:32:16.000Z</time>
</trkpt>
<trkpt lat="46.1320880" lon="10.1617840">
	<ele>1896.80</ele>
	<time>2024-09-06T08:32:17.000Z</time>
</trkpt>
<trkpt lat="46.1320880" lon="10.1617840">
	<ele>1896.80</ele>
	<time>2024-09-06T08:32:18.000Z</time>
</trkpt>
<trkpt lat="46.1320880" lon="10.1617840">
	<ele>1896.80</ele>
	<time>2024-09-06T08:32:19.000Z</time>
</trkpt>
<trkpt lat="46.1320880" lon="10.1617840">
	<ele>1896.80</ele>
	<time>2024-09-06T08:32:20.000Z</time>
</trkpt>
<trkpt lat="46.1320880" lon="10.1617840">
	<ele>1896.80</ele>
	<time>2024-09-06T08:32:21.000Z</time>
</trkpt>
<trkpt lat="46.1320880" lon="10.1617840">
	<ele>1896.80</ele>
	<time>2024-09-06T08:32:22.000Z</time>
</trkpt>
<trkpt lat="46.1320880" lon="10.1617840">
	<ele>1896.80</ele>
	<time>2024-09-06T08:32:23.000Z</time>
</trkpt>
<trkpt lat="46.1320880" lon="10.1617840">
	<ele>1896.80</ele>
	<time>2024-09-06T08:32:24.000Z</time>
</trkpt>
<trkpt lat="46.1320880" lon="10.1617840">
	<ele>1896.80</ele>
	<time>2024-09-06T08:32:25.000Z</time>
</trkpt>
<trkpt lat="46.1320880" lon="10.1617840">
	<ele>1896.80</ele>
	<time>2024-09-06T08:32:26.000Z</time>
</trkpt>
<trkpt lat="46.1320880" lon="10.1617840">
	<ele>1896.80</ele>
	<time>2024-09-06T08:32:27.000Z</time>
</trkpt>
<trkpt lat="46.1320880" lon="10.1617840">
	<ele>1896.80</ele>
	<time>2024-09-06T08:32:28.000Z</time>
</trkpt>
<trkpt lat="46.1320880" lon="10.1617840">
	<ele>1896.80</ele>
	<time>2024-09-06T08:32:29.000Z</time>
</trkpt>
<trkpt lat="46.1320880" lon="10.1617840">
	<ele>1896.80</ele>
	<time>2024-09-06T08:32:30.000Z</time>
</trkpt>
<trkpt lat="46.1320880" lon="10.1617840">
	<ele>1896.80</ele>
	<time>2024-09-06T08:32:31.000Z</time>
</trkpt>
<trkpt lat="46.1320880" lon="10.1617840">
	<ele>1896.80</ele>
	<time>2024-09-06T08:32:32.000Z</time>
</trkpt>
<trkpt lat="46.1320880" lon="10.1617840">
	<ele>1896.80</ele>
	<time>2024-09-06T08:32:33.000Z</time>
</trkpt>
<trkpt lat="46.1320880" lon="10.1617840">
	<ele>1896.80</ele>
	<time>2024-09-06T08:32:34.000Z</time>
</trkpt>
<trkpt lat="46.1320880" lon="10.1617840">
	<ele>1896.80</ele>
	<time>2024-09-06T08:32:35.000Z</time>
</trkpt>
<trkpt lat="46.1320880" lon="10.1617840">
	<ele>1896.80</ele>
	<time>2024-09-06T08:32:36.000Z</time>
</trkpt>
<trkpt lat="46.1320880" lon="10.1617820">
	<ele>1896.80</ele>
	<time>2024-09-06T08:32:37.000Z</time>
</trkpt>
<trkpt lat="46.1320880" lon="10.1617820">
	<ele>1896.80</ele>
	<time>2024-09-06T08:32:38.000Z</time>
</trkpt>
<trkpt lat="46.1320880" lon="10.1617820">
	<ele>1896.80</ele>
	<time>2024-09-06T08:32:39.000Z</time>
</trkpt>
<trkpt lat="46.1320880" lon="10.1617820">
	<ele>1896.80</ele>
	<time>2024-09-06T08:32:40.000Z</time>
</trkpt>
<trkpt lat="46.1320880" lon="10.1617820">
	<ele>1896.80</ele>
	<time>2024-09-06T08:32:41.000Z</time>
</trkpt>
<trkpt lat="46.1320880" lon="10.1617820">
	<ele>1896.80</ele>
	<time>2024-09-06T08:32:42.000Z</time>
</trkpt>
<trkpt lat="46.1320880" lon="10.1617820">
	<ele>1896.80</ele>
	<time>2024-09-06T08:32:43.000Z</time>
</trkpt>
<trkpt lat="46.1320880" lon="10.1617820">
	<ele>1896.80</ele>
	<time>2024-09-06T08:32:44.000Z</time>
</trkpt>
<trkpt lat="46.1320880" lon="10.1617820">
	<ele>1896.80</ele>
	<time>2024-09-06T08:32:45.000Z</time>
</trkpt>
<trkpt lat="46.1320880" lon="10.1617820">
	<ele>1896.80</ele>
	<time>2024-09-06T08:32:46.000Z</time>
</trkpt>
<trkpt lat="46.1320880" lon="10.1617820">
	<ele>1896.80</ele>
	<time>2024-09-06T08:32:47.000Z</time>
</trkpt>
<trkpt lat="46.1320880" lon="10.1617810">
	<ele>1896.80</ele>
	<time>2024-09-06T08:32:48.000Z</time>
</trkpt>
<trkpt lat="46.1320880" lon="10.1617800">
	<ele>1896.80</ele>
	<time>2024-09-06T08:32:49.000Z</time>
</trkpt>
<trkpt lat="46.1320880" lon="10.1617790">
	<ele>1896.80</ele>
	<time>2024-09-06T08:32:50.000Z</time>
</trkpt>
<trkpt lat="46.1320880" lon="10.1617790">
	<ele>1896.80</ele>
	<time>2024-09-06T08:32:51.000Z</time>
</trkpt>
<trkpt lat="46.1320880" lon="10.1617790">
	<ele>1896.80</ele>
	<time>2024-09-06T08:32:52.000Z</time>
</trkpt>
<trkpt lat="46.1320880" lon="10.1617790">
	<ele>1896.80</ele>
	<time>2024-09-06T08:32:53.000Z</time>
</trkpt>
<trkpt lat="46.1320880" lon="10.1617780">
	<ele>1896.80</ele>
	<time>2024-09-06T08:32:54.000Z</time>
</trkpt>
<trkpt lat="46.1320880" lon="10.1617780">
	<ele>1896.80</ele>
	<time>2024-09-06T08:32:55.000Z</time>
</trkpt>
<trkpt lat="46.1320880" lon="10.1617760">
	<ele>1896.80</ele>
	<time>2024-09-06T08:32:56.000Z</time>
</trkpt>
<trkpt lat="46.1320870" lon="10.1617730">
	<ele>1896.80</ele>
	<time>2024-09-06T08:32:57.000Z</time>
</trkpt>
<trkpt lat="46.1320870" lon="10.1617710">
	<ele>1896.80</ele>
	<time>2024-09-06T08:32:58.000Z</time>
</trkpt>
<trkpt lat="46.1320870" lon="10.1617700">
	<ele>1896.80</ele>
	<time>2024-09-06T08:32:59.000Z</time>
</trkpt>
<trkpt lat="46.1320860" lon="10.1617690">
	<ele>1896.80</ele>
	<time>2024-09-06T08:33:00.000Z</time>
</trkpt>
<trkpt lat="46.1320850" lon="10.1617690">
	<ele>1896.80</ele>
	<time>2024-09-06T08:33:01.000Z</time>
</trkpt>
<trkpt lat="46.1320840" lon="10.1617690">
	<ele>1896.80</ele>
	<time>2024-09-06T08:33:02.000Z</time>
</trkpt>
<trkpt lat="46.1320840" lon="10.1617690">
	<ele>1896.80</ele>
	<time>2024-09-06T08:33:03.000Z</time>
</trkpt>
<trkpt lat="46.1320840" lon="10.1617690">
	<ele>1896.80</ele>
	<time>2024-09-06T08:33:04.000Z</time>
</trkpt>
<trkpt lat="46.1320840" lon="10.1617680">
	<ele>1896.80</ele>
	<time>2024-09-06T08:33:05.000Z</time>
</trkpt>
<trkpt lat="46.1320840" lon="10.1617680">
	<ele>1896.80</ele>
	<time>2024-09-06T08:33:06.000Z</time>
</trkpt>
<trkpt lat="46.1320840" lon="10.1617680">
	<ele>1896.80</ele>
	<time>2024-09-06T08:33:07.000Z</time>
</trkpt>
<trkpt lat="46.1320840" lon="10.1617680">
	<ele>1896.80</ele>
	<time>2024-09-06T08:33:08.000Z</time>
</trkpt>
<trkpt lat="46.1320840" lon="10.1617680">
	<ele>1896.80</ele>
	<time>2024-09-06T08:33:09.000Z</time>
</trkpt>
<trkpt lat="46.1320840" lon="10.1617680">
	<ele>1896.80</ele>
	<time>2024-09-06T08:33:10.000Z</time>
</trkpt>
<trkpt lat="46.1320840" lon="10.1617680">
	<ele>1896.80</ele>
	<time>2024-09-06T08:33:11.000Z</time>
</trkpt>
<trkpt lat="46.1320840" lon="10.1617680">
	<ele>1896.80</ele>
	<time>2024-09-06T08:33:12.000Z</time>
</trkpt>
<trkpt lat="46.1320840" lon="10.1617680">
	<ele>1896.80</ele>
	<time>2024-09-06T08:33:13.000Z</time>
</trkpt>
<trkpt lat="46.1320840" lon="10.1617680">
	<ele>1896.80</ele>
	<time>2024-09-06T08:33:14.000Z</time>
</trkpt>
<trkpt lat="46.1320840" lon="10.1617680">
	<ele>1896.80</ele>
	<time>2024-09-06T08:33:15.000Z</time>
</trkpt>
<trkpt lat="46.1320840" lon="10.1617680">
	<ele>1896.80</ele>
	<time>2024-09-06T08:33:16.000Z</time>
</trkpt>
<trkpt lat="46.1320840" lon="10.1617680">
	<ele>1896.80</ele>
	<time>2024-09-06T08:33:17.000Z</time>
</trkpt>
<trkpt lat="46.1320840" lon="10.1617670">
	<ele>1896.80</ele>
	<time>2024-09-06T08:33:18.000Z</time>
</trkpt>
<trkpt lat="46.1320840" lon="10.1617670">
	<ele>1896.80</ele>
	<time>2024-09-06T08:33:19.000Z</time>
</trkpt>
<trkpt lat="46.1320840" lon="10.1617670">
	<ele>1896.80</ele>
	<time>2024-09-06T08:33:20.000Z</time>
</trkpt>
<trkpt lat="46.1320850" lon="10.1617670">
	<ele>1896.80</ele>
	<time>2024-09-06T08:33:21.000Z</time>
</trkpt>
<trkpt lat="46.1320850" lon="10.1617660">
	<ele>1896.80</ele>
	<time>2024-09-06T08:33:22.000Z</time>
</trkpt>
<trkpt lat="46.1320850" lon="10.1617660">
	<ele>1896.80</ele>
	<time>2024-09-06T08:33:23.000Z</time>
</trkpt>
<trkpt lat="46.1320850" lon="10.1617660">
	<ele>1896.80</ele>
	<time>2024-09-06T08:33:24.000Z</time>
</trkpt>
<trkpt lat="46.1320850" lon="10.1617660">
	<ele>1896.80</ele>
	<time>2024-09-06T08:33:25.000Z</time>
</trkpt>
<trkpt lat="46.1320850" lon="10.1617620">
	<ele>1896.80</ele>
	<time>2024-09-06T08:33:26.000Z</time>
</trkpt>
<trkpt lat="46.1320890" lon="10.1617590">
	<ele>1896.80</ele>
	<time>2024-09-06T08:33:27.000Z</time>
</trkpt>
<trkpt lat="46.1320900" lon="10.1617620">
	<ele>1896.80</ele>
	<time>2024-09-06T08:33:28.000Z</time>
</trkpt>
<trkpt lat="46.1320900" lon="10.1617680">
	<ele>1896.80</ele>
	<time>2024-09-06T08:33:29.000Z</time>
</trkpt>
<trkpt lat="46.1320910" lon="10.1617760">
	<ele>1896.80</ele>
	<time>2024-09-06T08:33:30.000Z</time>
</trkpt>
<trkpt lat="46.1320910" lon="10.1617780">
	<ele>1896.80</ele>
	<time>2024-09-06T08:33:31.000Z</time>
</trkpt>
<trkpt lat="46.1320860" lon="10.1617730">
	<ele>1896.80</ele>
	<time>2024-09-06T08:33:32.000Z</time>
</trkpt>
<trkpt lat="46.1320840" lon="10.1617690">
	<ele>1896.80</ele>
	<time>2024-09-06T08:33:33.000Z</time>
</trkpt>
<trkpt lat="46.1320830" lon="10.1617630">
	<ele>1896.80</ele>
	<time>2024-09-06T08:33:34.000Z</time>
</trkpt>
<trkpt lat="46.1320830" lon="10.1617590">
	<ele>1896.80</ele>
	<time>2024-09-06T08:33:35.000Z</time>
</trkpt>
<trkpt lat="46.1320820" lon="10.1617580">
	<ele>1896.80</ele>
	<time>2024-09-06T08:33:36.000Z</time>
</trkpt>
<trkpt lat="46.1320820" lon="10.1617580">
	<ele>1896.80</ele>
	<time>2024-09-06T08:33:37.000Z</time>
</trkpt>
<trkpt lat="46.1320830" lon="10.1617570">
	<ele>1896.80</ele>
	<time>2024-09-06T08:33:38.000Z</time>
</trkpt>
<trkpt lat="46.1320830" lon="10.1617570">
	<ele>1896.80</ele>
	<time>2024-09-06T08:33:39.000Z</time>
</trkpt>
<trkpt lat="46.1320830" lon="10.1617570">
	<ele>1896.80</ele>
	<time>2024-09-06T08:33:40.000Z</time>
</trkpt>
<trkpt lat="46.1320830" lon="10.1617570">
	<ele>1896.80</ele>
	<time>2024-09-06T08:33:41.000Z</time>
</trkpt>
<trkpt lat="46.1320830" lon="10.1617570">
	<ele>1896.80</ele>
	<time>2024-09-06T08:33:42.000Z</time>
</trkpt>
<trkpt lat="46.1320830" lon="10.1617570">
	<ele>1896.80</ele>
	<time>2024-09-06T08:33:43.000Z</time>
</trkpt>
<trkpt lat="46.1320830" lon="10.1617570">
	<ele>1896.80</ele>
	<time>2024-09-06T08:33:44.000Z</time>
</trkpt>
<trkpt lat="46.1320830" lon="10.1617570">
	<ele>1896.80</ele>
	<time>2024-09-06T08:33:45.000Z</time>
</trkpt>
<trkpt lat="46.1320830" lon="10.1617570">
	<ele>1896.80</ele>
	<time>2024-09-06T08:33:46.000Z</time>
</trkpt>
<trkpt lat="46.1320830" lon="10.1617570">
	<ele>1896.80</ele>
	<time>2024-09-06T08:33:47.000Z</time>
</trkpt>
<trkpt lat="46.1320830" lon="10.1617570">
	<ele>1896.80</ele>
	<time>2024-09-06T08:33:48.000Z</time>
</trkpt>
<trkpt lat="46.1320830" lon="10.1617570">
	<ele>1896.80</ele>
	<time>2024-09-06T08:33:49.000Z</time>
</trkpt>
<trkpt lat="46.1320830" lon="10.1617570">
	<ele>1896.80</ele>
	<time>2024-09-06T08:33:50.000Z</time>
</trkpt>
<trkpt lat="46.1320830" lon="10.1617570">
	<ele>1896.80</ele>
	<time>2024-09-06T08:33:51.000Z</time>
</trkpt>
<trkpt lat="46.1320830" lon="10.1617570">
	<ele>1896.80</ele>
	<time>2024-09-06T08:33:52.000Z</time>
</trkpt>
<trkpt lat="46.1320830" lon="10.1617570">
	<ele>1896.80</ele>
	<time>2024-09-06T08:33:53.000Z</time>
</trkpt>
<trkpt lat="46.1320820" lon="10.1617570">
	<ele>1896.80</ele>
	<time>2024-09-06T08:33:54.000Z</time>
</trkpt>
<trkpt lat="46.1320820" lon="10.1617570">
	<ele>1896.80</ele>
	<time>2024-09-06T08:33:55.000Z</time>
</trkpt>
<trkpt lat="46.1320820" lon="10.1617560">
	<ele>1896.80</ele>
	<time>2024-09-06T08:33:56.000Z</time>
</trkpt>
<trkpt lat="46.1320820" lon="10.1617540">
	<ele>1896.80</ele>
	<time>2024-09-06T08:33:57.000Z</time>
</trkpt>
<trkpt lat="46.1320820" lon="10.1617540">
	<ele>1896.80</ele>
	<time>2024-09-06T08:33:58.000Z</time>
</trkpt>
<trkpt lat="46.1320810" lon="10.1617530">
	<ele>1896.80</ele>
	<time>2024-09-06T08:33:59.000Z</time>
</trkpt>
<trkpt lat="46.1320810" lon="10.1617530">
	<ele>1896.80</ele>
	<time>2024-09-06T08:34:00.000Z</time>
</trkpt>
<trkpt lat="46.1320810" lon="10.1617530">
	<ele>1896.80</ele>
	<time>2024-09-06T08:34:01.000Z</time>
</trkpt>
<trkpt lat="46.1320800" lon="10.1617520">
	<ele>1896.80</ele>
	<time>2024-09-06T08:34:02.000Z</time>
</trkpt>
<trkpt lat="46.1320800" lon="10.1617520">
	<ele>1896.80</ele>
	<time>2024-09-06T08:34:03.000Z</time>
</trkpt>
<trkpt lat="46.1320800" lon="10.1617520">
	<ele>1896.80</ele>
	<time>2024-09-06T08:34:04.000Z</time>
</trkpt>
<trkpt lat="46.1320800" lon="10.1617520">
	<ele>1896.80</ele>
	<time>2024-09-06T08:34:05.000Z</time>
</trkpt>
<trkpt lat="46.1320800" lon="10.1617520">
	<ele>1896.80</ele>
	<time>2024-09-06T08:34:06.000Z</time>
</trkpt>
<trkpt lat="46.1320790" lon="10.1617520">
	<ele>1896.80</ele>
	<time>2024-09-06T08:34:07.000Z</time>
</trkpt>
<trkpt lat="46.1320790" lon="10.1617520">
	<ele>1896.80</ele>
	<time>2024-09-06T08:34:08.000Z</time>
</trkpt>
<trkpt lat="46.1320790" lon="10.1617520">
	<ele>1896.80</ele>
	<time>2024-09-06T08:34:09.000Z</time>
</trkpt>
<trkpt lat="46.1320820" lon="10.1617540">
	<ele>1896.80</ele>
	<time>2024-09-06T08:34:10.000Z</time>
</trkpt>
<trkpt lat="46.1321310" lon="10.1617720">
	<ele>1896.80</ele>
	<time>2024-09-06T08:34:11.000Z</time>
</trkpt>
<trkpt lat="46.1321760" lon="10.1617960">
	<ele>1896.80</ele>
	<time>2024-09-06T08:34:12.000Z</time>
</trkpt>
<trkpt lat="46.1322310" lon="10.1618260">
	<ele>1896.80</ele>
	<time>2024-09-06T08:34:13.000Z</time>
</trkpt>
<trkpt lat="46.1322760" lon="10.1618520">
	<ele>1896.80</ele>
	<time>2024-09-06T08:34:14.000Z</time>
</trkpt>
<trkpt lat="46.1323060" lon="10.1618650">
	<ele>1896.80</ele>
	<time>2024-09-06T08:34:15.000Z</time>
</trkpt>
<trkpt lat="46.1323190" lon="10.1618710">
	<ele>1896.80</ele>
	<time>2024-09-06T08:34:16.000Z</time>
</trkpt>
<trkpt lat="46.1323280" lon="10.1618760">
	<ele>1896.80</ele>
	<time>2024-09-06T08:34:17.000Z</time>
</trkpt>
<trkpt lat="46.1323350" lon="10.1618840">
	<ele>1896.80</ele>
	<time>2024-09-06T08:34:18.000Z</time>
</trkpt>
<trkpt lat="46.1323440" lon="10.1618920">
	<ele>1896.80</ele>
	<time>2024-09-06T08:34:19.000Z</time>
</trkpt>
<trkpt lat="46.1323540" lon="10.1618960">
	<ele>1896.80</ele>
	<time>2024-09-06T08:34:20.000Z</time>
</trkpt>
<trkpt lat="46.1323570" lon="10.1618970">
	<ele>1896.80</ele>
	<time>2024-09-06T08:34:21.000Z</time>
</trkpt>
<trkpt lat="46.1323570" lon="10.1618990">
	<ele>1896.80</ele>
	<time>2024-09-06T08:34:22.000Z</time>
</trkpt>
<trkpt lat="46.1323580" lon="10.1619010">
	<ele>1896.80</ele>
	<time>2024-09-06T08:34:23.000Z</time>
</trkpt>
<trkpt lat="46.1323590" lon="10.1619020">
	<ele>1896.80</ele>
	<time>2024-09-06T08:34:24.000Z</time>
</trkpt>
<trkpt lat="46.1323600" lon="10.1619040">
	<ele>1896.80</ele>
	<time>2024-09-06T08:34:25.000Z</time>
</trkpt>
<trkpt lat="46.1323600" lon="10.1619050">
	<ele>1896.80</ele>
	<time>2024-09-06T08:34:26.000Z</time>
</trkpt>
<trkpt lat="46.1323590" lon="10.1619050">
	<ele>1896.80</ele>
	<time>2024-09-06T08:34:27.000Z</time>
</trkpt>
<trkpt lat="46.1323620" lon="10.1619060">
	<ele>1896.80</ele>
	<time>2024-09-06T08:34:28.000Z</time>
</trkpt>
<trkpt lat="46.1323600" lon="10.1619050">
	<ele>1896.80</ele>
	<time>2024-09-06T08:34:29.000Z</time>
</trkpt>
<trkpt lat="46.1323610" lon="10.1619080">
	<ele>1896.80</ele>
	<time>2024-09-06T08:34:30.000Z</time>
</trkpt>
<trkpt lat="46.1323630" lon="10.1619110">
	<ele>1896.80</ele>
	<time>2024-09-06T08:34:31.000Z</time>
</trkpt>
<trkpt lat="46.1323630" lon="10.1619130">
	<ele>1896.80</ele>
	<time>2024-09-06T08:34:32.000Z</time>
</trkpt>
<trkpt lat="46.1323620" lon="10.1619140">
	<ele>1896.80</ele>
	<time>2024-09-06T08:34:33.000Z</time>
</trkpt>
<trkpt lat="46.1323550" lon="10.1619090">
	<ele>1896.80</ele>
	<time>2024-09-06T08:34:34.000Z</time>
</trkpt>
<trkpt lat="46.1323550" lon="10.1619090">
	<ele>1896.80</ele>
	<time>2024-09-06T08:34:35.000Z</time>
</trkpt>
<trkpt lat="46.1323550" lon="10.1619090">
	<ele>1896.80</ele>
	<time>2024-09-06T08:34:36.000Z</time>
</trkpt>
<trkpt lat="46.1323550" lon="10.1619090">
	<ele>1896.80</ele>
	<time>2024-09-06T08:34:37.000Z</time>
</trkpt>
<trkpt lat="46.1323550" lon="10.1619090">
	<ele>1896.80</ele>
	<time>2024-09-06T08:34:38.000Z</time>
</trkpt>
<trkpt lat="46.1323550" lon="10.1619090">
	<ele>1896.80</ele>
	<time>2024-09-06T08:34:39.000Z</time>
</trkpt>
<trkpt lat="46.1323550" lon="10.1619090">
	<ele>1896.80</ele>
	<time>2024-09-06T08:34:40.000Z</time>
</trkpt>
<trkpt lat="46.1323550" lon="10.1619090">
	<ele>1896.80</ele>
	<time>2024-09-06T08:34:41.000Z</time>
</trkpt>
<trkpt lat="46.1323550" lon="10.1619090">
	<ele>1896.80</ele>
	<time>2024-09-06T08:34:42.000Z</time>
</trkpt>
<trkpt lat="46.1323550" lon="10.1619090">
	<ele>1896.80</ele>
	<time>2024-09-06T08:34:43.000Z</time>
</trkpt>
<trkpt lat="46.1323550" lon="10.1619090">
	<ele>1896.80</ele>
	<time>2024-09-06T08:34:44.000Z</time>
</trkpt>
<trkpt lat="46.1323560" lon="10.1619090">
	<ele>1896.80</ele>
	<time>2024-09-06T08:34:45.000Z</time>
</trkpt>
<trkpt lat="46.1323560" lon="10.1619090">
	<ele>1896.80</ele>
	<time>2024-09-06T08:34:46.000Z</time>
</trkpt>
<trkpt lat="46.1323570" lon="10.1619090">
	<ele>1896.80</ele>
	<time>2024-09-06T08:34:47.000Z</time>
</trkpt>
<trkpt lat="46.1323570" lon="10.1619090">
	<ele>1896.80</ele>
	<time>2024-09-06T08:34:48.000Z</time>
</trkpt>
<trkpt lat="46.1323590" lon="10.1619110">
	<ele>1896.80</ele>
	<time>2024-09-06T08:34:49.000Z</time>
</trkpt>
<trkpt lat="46.1323590" lon="10.1619120">
	<ele>1896.80</ele>
	<time>2024-09-06T08:34:50.000Z</time>
</trkpt>
<trkpt lat="46.1323600" lon="10.1619130">
	<ele>1896.80</ele>
	<time>2024-09-06T08:34:51.000Z</time>
</trkpt>
<trkpt lat="46.1323600" lon="10.1619140">
	<ele>1896.80</ele>
	<time>2024-09-06T08:34:52.000Z</time>
</trkpt>
<trkpt lat="46.1323610" lon="10.1619150">
	<ele>1896.80</ele>
	<time>2024-09-06T08:34:53.000Z</time>
</trkpt>
<trkpt lat="46.1323610" lon="10.1619160">
	<ele>1896.80</ele>
	<time>2024-09-06T08:34:54.000Z</time>
</trkpt>
<trkpt lat="46.1323610" lon="10.1619160">
	<ele>1896.80</ele>
	<time>2024-09-06T08:34:55.000Z</time>
</trkpt>
<trkpt lat="46.1323610" lon="10.1619170">
	<ele>1896.80</ele>
	<time>2024-09-06T08:34:56.000Z</time>
</trkpt>
<trkpt lat="46.1323610" lon="10.1619170">
	<ele>1896.80</ele>
	<time>2024-09-06T08:34:57.000Z</time>
</trkpt>
<trkpt lat="46.1323600" lon="10.1619170">
	<ele>1896.80</ele>
	<time>2024-09-06T08:34:58.000Z</time>
</trkpt>
<trkpt lat="46.1323600" lon="10.1619170">
	<ele>1896.80</ele>
	<time>2024-09-06T08:34:59.000Z</time>
</trkpt>
<trkpt lat="46.1323600" lon="10.1619170">
	<ele>1896.80</ele>
	<time>2024-09-06T08:35:00.000Z</time>
</trkpt>
<trkpt lat="46.1323590" lon="10.1619170">
	<ele>1896.80</ele>
	<time>2024-09-06T08:35:01.000Z</time>
</trkpt>
<trkpt lat="46.1323590" lon="10.1619170">
	<ele>1896.80</ele>
	<time>2024-09-06T08:35:02.000Z</time>
</trkpt>
<trkpt lat="46.1323590" lon="10.1619170">
	<ele>1896.80</ele>
	<time>2024-09-06T08:35:03.000Z</time>
</trkpt>
<trkpt lat="46.1323590" lon="10.1619170">
	<ele>1896.80</ele>
	<time>2024-09-06T08:35:04.000Z</time>
</trkpt>
<trkpt lat="46.1323590" lon="10.1619170">
	<ele>1896.80</ele>
	<time>2024-09-06T08:35:05.000Z</time>
</trkpt>
<trkpt lat="46.1323590" lon="10.1619170">
	<ele>1896.80</ele>
	<time>2024-09-06T08:35:06.000Z</time>
</trkpt>
<trkpt lat="46.1323590" lon="10.1619170">
	<ele>1896.80</ele>
	<time>2024-09-06T08:35:07.000Z</time>
</trkpt>
<trkpt lat="46.1323590" lon="10.1619170">
	<ele>1896.80</ele>
	<time>2024-09-06T08:35:08.000Z</time>
</trkpt>
<trkpt lat="46.1323590" lon="10.1619170">
	<ele>1896.80</ele>
	<time>2024-09-06T08:35:09.000Z</time>
</trkpt>
<trkpt lat="46.1323590" lon="10.1619170">
	<ele>1896.80</ele>
	<time>2024-09-06T08:35:10.000Z</time>
</trkpt>
<trkpt lat="46.1323540" lon="10.1619140">
	<ele>1896.80</ele>
	<time>2024-09-06T08:35:11.000Z</time>
</trkpt>
<trkpt lat="46.1323530" lon="10.1619130">
	<ele>1896.80</ele>
	<time>2024-09-06T08:35:12.000Z</time>
</trkpt>
<trkpt lat="46.1323520" lon="10.1619110">
	<ele>1896.80</ele>
	<time>2024-09-06T08:35:13.000Z</time>
</trkpt>
<trkpt lat="46.1323500" lon="10.1619100">
	<ele>1896.80</ele>
	<time>2024-09-06T08:35:14.000Z</time>
</trkpt>
<trkpt lat="46.1323490" lon="10.1619090">
	<ele>1896.80</ele>
	<time>2024-09-06T08:35:15.000Z</time>
</trkpt>
<trkpt lat="46.1323360" lon="10.1619070">
	<ele>1896.80</ele>
	<time>2024-09-06T08:35:16.000Z</time>
</trkpt>
<trkpt lat="46.1323280" lon="10.1619070">
	<ele>1896.80</ele>
	<time>2024-09-06T08:35:17.000Z</time>
</trkpt>
<trkpt lat="46.1323260" lon="10.1619070">
	<ele>1896.80</ele>
	<time>2024-09-06T08:35:18.000Z</time>
</trkpt>
<trkpt lat="46.1323250" lon="10.1619070">
	<ele>1896.80</ele>
	<time>2024-09-06T08:35:19.000Z</time>
</trkpt>
<trkpt lat="46.1323250" lon="10.1619060">
	<ele>1896.80</ele>
	<time>2024-09-06T08:35:20.000Z</time>
</trkpt>
<trkpt lat="46.1323250" lon="10.1619060">
	<ele>1896.80</ele>
	<time>2024-09-06T08:35:21.000Z</time>
</trkpt>
<trkpt lat="46.1323250" lon="10.1619060">
	<ele>1896.80</ele>
	<time>2024-09-06T08:35:22.000Z</time>
</trkpt>
<trkpt lat="46.1323250" lon="10.1619060">
	<ele>1896.80</ele>
	<time>2024-09-06T08:35:23.000Z</time>
</trkpt>
<trkpt lat="46.1323250" lon="10.1619060">
	<ele>1896.80</ele>
	<time>2024-09-06T08:35:24.000Z</time>
</trkpt>
<trkpt lat="46.1323250" lon="10.1619060">
	<ele>1896.80</ele>
	<time>2024-09-06T08:35:25.000Z</time>
</trkpt>
<trkpt lat="46.1323250" lon="10.1619060">
	<ele>1896.80</ele>
	<time>2024-09-06T08:35:26.000Z</time>
</trkpt>
<trkpt lat="46.1323250" lon="10.1619060">
	<ele>1896.80</ele>
	<time>2024-09-06T08:35:27.000Z</time>
</trkpt>
<trkpt lat="46.1323250" lon="10.1619060">
	<ele>1896.80</ele>
	<time>2024-09-06T08:35:28.000Z</time>
</trkpt>
<trkpt lat="46.1323240" lon="10.1619060">
	<ele>1896.80</ele>
	<time>2024-09-06T08:35:29.000Z</time>
</trkpt>
<trkpt lat="46.1323240" lon="10.1619060">
	<ele>1896.80</ele>
	<time>2024-09-06T08:35:30.000Z</time>
</trkpt>
<trkpt lat="46.1323240" lon="10.1619070">
	<ele>1896.80</ele>
	<time>2024-09-06T08:35:31.000Z</time>
</trkpt>
<trkpt lat="46.1323250" lon="10.1619070">
	<ele>1896.80</ele>
	<time>2024-09-06T08:35:32.000Z</time>
</trkpt>
<trkpt lat="46.1323250" lon="10.1619070">
	<ele>1896.80</ele>
	<time>2024-09-06T08:35:33.000Z</time>
</trkpt>
<trkpt lat="46.1323250" lon="10.1619070">
	<ele>1896.80</ele>
	<time>2024-09-06T08:35:34.000Z</time>
</trkpt>
<trkpt lat="46.1323260" lon="10.1619070">
	<ele>1896.80</ele>
	<time>2024-09-06T08:35:35.000Z</time>
</trkpt>
<trkpt lat="46.1323270" lon="10.1619070">
	<ele>1896.80</ele>
	<time>2024-09-06T08:35:36.000Z</time>
</trkpt>
<trkpt lat="46.1323270" lon="10.1619080">
	<ele>1896.80</ele>
	<time>2024-09-06T08:35:37.000Z</time>
</trkpt>
<trkpt lat="46.1323270" lon="10.1619080">
	<ele>1896.80</ele>
	<time>2024-09-06T08:35:38.000Z</time>
</trkpt>
<trkpt lat="46.1323280" lon="10.1619080">
	<ele>1896.80</ele>
	<time>2024-09-06T08:35:39.000Z</time>
</trkpt>
<trkpt lat="46.1323280" lon="10.1619080">
	<ele>1896.80</ele>
	<time>2024-09-06T08:35:40.000Z</time>
</trkpt>
<trkpt lat="46.1323280" lon="10.1619080">
	<ele>1896.80</ele>
	<time>2024-09-06T08:35:41.000Z</time>
</trkpt>
<trkpt lat="46.1323280" lon="10.1619080">
	<ele>1896.80</ele>
	<time>2024-09-06T08:35:42.000Z</time>
</trkpt>
<trkpt lat="46.1323280" lon="10.1619080">
	<ele>1896.80</ele>
	<time>2024-09-06T08:35:43.000Z</time>
</trkpt>
<trkpt lat="46.1323280" lon="10.1619080">
	<ele>1896.80</ele>
	<time>2024-09-06T08:35:44.000Z</time>
</trkpt>
<trkpt lat="46.1323280" lon="10.1619080">
	<ele>1896.80</ele>
	<time>2024-09-06T08:35:45.000Z</time>
</trkpt>
<trkpt lat="46.1323250" lon="10.1619040">
	<ele>1896.80</ele>
	<time>2024-09-06T08:35:46.000Z</time>
</trkpt>
<trkpt lat="46.1323150" lon="10.1618990">
	<ele>1896.80</ele>
	<time>2024-09-06T08:35:47.000Z</time>
</trkpt>
<trkpt lat="46.1323060" lon="10.1618930">
	<ele>1896.80</ele>
	<time>2024-09-06T08:35:48.000Z</time>
</trkpt>
<trkpt lat="46.1323010" lon="10.1618900">
	<ele>1896.80</ele>
	<time>2024-09-06T08:35:49.000Z</time>
</trkpt>
<trkpt lat="46.1322940" lon="10.1618840">
	<ele>1896.80</ele>
	<time>2024-09-06T08:35:50.000Z</time>
</trkpt>
<trkpt lat="46.1322850" lon="10.1618770">
	<ele>1896.80</ele>
	<time>2024-09-06T08:35:51.000Z</time>
</trkpt>
<trkpt lat="46.1322710" lon="10.1618660">
	<ele>1896.80</ele>
	<time>2024-09-06T08:35:52.000Z</time>
</trkpt>
<trkpt lat="46.1322790" lon="10.1618650">
	<ele>1896.80</ele>
	<time>2024-09-06T08:35:53.000Z</time>
</trkpt>
<trkpt lat="46.1322790" lon="10.1618630">
	<ele>1896.80</ele>
	<time>2024-09-06T08:35:54.000Z</time>
</trkpt>
<trkpt lat="46.1322820" lon="10.1618570">
	<ele>1896.80</ele>
	<time>2024-09-06T08:35:55.000Z</time>
</trkpt>
<trkpt lat="46.1322860" lon="10.1618570">
	<ele>1896.80</ele>
	<time>2024-09-06T08:35:56.000Z</time>
</trkpt>
<trkpt lat="46.1322890" lon="10.1618570">
	<ele>1896.80</ele>
	<time>2024-09-06T08:35:57.000Z</time>
</trkpt>
<trkpt lat="46.1322910" lon="10.1618580">
	<ele>1896.80</ele>
	<time>2024-09-06T08:35:58.000Z</time>
</trkpt>
<trkpt lat="46.1322670" lon="10.1618540">
	<ele>1896.80</ele>
	<time>2024-09-06T08:35:59.000Z</time>
</trkpt>
<trkpt lat="46.1322700" lon="10.1618570">
	<ele>1896.80</ele>
	<time>2024-09-06T08:36:00.000Z</time>
</trkpt>
<trkpt lat="46.1322730" lon="10.1618590">
	<ele>1896.80</ele>
	<time>2024-09-06T08:36:01.000Z</time>
</trkpt>
<trkpt lat="46.1322750" lon="10.1618610">
	<ele>1896.80</ele>
	<time>2024-09-06T08:36:02.000Z</time>
</trkpt>
<trkpt lat="46.1322750" lon="10.1618610">
	<ele>1896.80</ele>
	<time>2024-09-06T08:36:03.000Z</time>
</trkpt>
<trkpt lat="46.1322750" lon="10.1618610">
	<ele>1896.80</ele>
	<time>2024-09-06T08:36:04.000Z</time>
</trkpt>
<trkpt lat="46.1322750" lon="10.1618610">
	<ele>1896.80</ele>
	<time>2024-09-06T08:36:05.000Z</time>
</trkpt>
<trkpt lat="46.1322750" lon="10.1618610">
	<ele>1896.80</ele>
	<time>2024-09-06T08:36:06.000Z</time>
</trkpt>
<trkpt lat="46.1322750" lon="10.1618610">
	<ele>1896.80</ele>
	<time>2024-09-06T08:36:07.000Z</time>
</trkpt>
<trkpt lat="46.1322750" lon="10.1618610">
	<ele>1896.80</ele>
	<time>2024-09-06T08:36:08.000Z</time>
</trkpt>
<trkpt lat="46.1322750" lon="10.1618610">
	<ele>1896.80</ele>
	<time>2024-09-06T08:36:09.000Z</time>
</trkpt>
<trkpt lat="46.1322750" lon="10.1618610">
	<ele>1896.80</ele>
	<time>2024-09-06T08:36:10.000Z</time>
</trkpt>
<trkpt lat="46.1322750" lon="10.1618610">
	<ele>1896.80</ele>
	<time>2024-09-06T08:36:11.000Z</time>
</trkpt>
<trkpt lat="46.1322750" lon="10.1618590">
	<ele>1896.80</ele>
	<time>2024-09-06T08:36:12.000Z</time>
</trkpt>
<trkpt lat="46.1322750" lon="10.1618580">
	<ele>1896.80</ele>
	<time>2024-09-06T08:36:13.000Z</time>
</trkpt>
<trkpt lat="46.1322750" lon="10.1618570">
	<ele>1896.80</ele>
	<time>2024-09-06T08:36:14.000Z</time>
</trkpt>
<trkpt lat="46.1322750" lon="10.1618570">
	<ele>1896.80</ele>
	<time>2024-09-06T08:36:15.000Z</time>
</trkpt>
<trkpt lat="46.1322730" lon="10.1618570">
	<ele>1896.80</ele>
	<time>2024-09-06T08:36:16.000Z</time>
</trkpt>
<trkpt lat="46.1322700" lon="10.1618570">
	<ele>1896.80</ele>
	<time>2024-09-06T08:36:17.000Z</time>
</trkpt>
<trkpt lat="46.1322670" lon="10.1618540">
	<ele>1896.80</ele>
	<time>2024-09-06T08:36:18.000Z</time>
</trkpt>
<trkpt lat="46.1322520" lon="10.1618480">
	<ele>1896.80</ele>
	<time>2024-09-06T08:36:19.000Z</time>
</trkpt>
<trkpt lat="46.1322500" lon="10.1618460">
	<ele>1896.80</ele>
	<time>2024-09-06T08:36:20.000Z</time>
</trkpt>
<trkpt lat="46.1322500" lon="10.1618450">
	<ele>1896.80</ele>
	<time>2024-09-06T08:36:21.000Z</time>
</trkpt>
<trkpt lat="46.1322500" lon="10.1618440">
	<ele>1896.80</ele>
	<time>2024-09-06T08:36:22.000Z</time>
</trkpt>
<trkpt lat="46.1322500" lon="10.1618440">
	<ele>1896.80</ele>
	<time>2024-09-06T08:36:23.000Z</time>
</trkpt>
<trkpt lat="46.1322500" lon="10.1618440">
	<ele>1896.80</ele>
	<time>2024-09-06T08:36:24.000Z</time>
</trkpt>
<trkpt lat="46.1322500" lon="10.1618430">
	<ele>1896.80</ele>
	<time>2024-09-06T08:36:25.000Z</time>
</trkpt>
<trkpt lat="46.1322500" lon="10.1618430">
	<ele>1896.80</ele>
	<time>2024-09-06T08:36:26.000Z</time>
</trkpt>
<trkpt lat="46.1322500" lon="10.1618430">
	<ele>1896.80</ele>
	<time>2024-09-06T08:36:27.000Z</time>
</trkpt>
<trkpt lat="46.1322500" lon="10.1618420">
	<ele>1896.80</ele>
	<time>2024-09-06T08:36:28.000Z</time>
</trkpt>
<trkpt lat="46.1322500" lon="10.1618420">
	<ele>1896.80</ele>
	<time>2024-09-06T08:36:29.000Z</time>
</trkpt>
<trkpt lat="46.1322500" lon="10.1618410">
	<ele>1896.80</ele>
	<time>2024-09-06T08:36:30.000Z</time>
</trkpt>
<trkpt lat="46.1322520" lon="10.1618410">
	<ele>1896.80</ele>
	<time>2024-09-06T08:36:31.000Z</time>
</trkpt>
<trkpt lat="46.1322600" lon="10.1618360">
	<ele>1896.80</ele>
	<time>2024-09-06T08:36:32.000Z</time>
</trkpt>
<trkpt lat="46.1322630" lon="10.1618370">
	<ele>1896.80</ele>
	<time>2024-09-06T08:36:33.000Z</time>
</trkpt>
<trkpt lat="46.1322630" lon="10.1618310">
	<ele>1896.80</ele>
	<time>2024-09-06T08:36:34.000Z</time>
</trkpt>
<trkpt lat="46.1322660" lon="10.1618310">
	<ele>1896.80</ele>
	<time>2024-09-06T08:36:35.000Z</time>
</trkpt>
<trkpt lat="46.1322670" lon="10.1618290">
	<ele>1896.80</ele>
	<time>2024-09-06T08:36:36.000Z</time>
</trkpt>
<trkpt lat="46.1322640" lon="10.1618270">
	<ele>1896.80</ele>
	<time>2024-09-06T08:36:37.000Z</time>
</trkpt>
<trkpt lat="46.1322670" lon="10.1618260">
	<ele>1896.80</ele>
	<time>2024-09-06T08:36:38.000Z</time>
</trkpt>
<trkpt lat="46.1322700" lon="10.1618250">
	<ele>1896.80</ele>
	<time>2024-09-06T08:36:39.000Z</time>
</trkpt>
<trkpt lat="46.1322700" lon="10.1618250">
	<ele>1896.80</ele>
	<time>2024-09-06T08:36:40.000Z</time>
</trkpt>
<trkpt lat="46.1322700" lon="10.1618250">
	<ele>1896.80</ele>
	<time>2024-09-06T08:36:41.000Z</time>
</trkpt>
<trkpt lat="46.1322700" lon="10.1618250">
	<ele>1896.80</ele>
	<time>2024-09-06T08:36:42.000Z</time>
</trkpt>
<trkpt lat="46.1322700" lon="10.1618250">
	<ele>1896.80</ele>
	<time>2024-09-06T08:36:43.000Z</time>
</trkpt>
<trkpt lat="46.1322700" lon="10.1618250">
	<ele>1896.80</ele>
	<time>2024-09-06T08:36:44.000Z</time>
</trkpt>
<trkpt lat="46.1322700" lon="10.1618250">
	<ele>1896.80</ele>
	<time>2024-09-06T08:36:45.000Z</time>
</trkpt>
<trkpt lat="46.1322710" lon="10.1618250">
	<ele>1896.80</ele>
	<time>2024-09-06T08:36:46.000Z</time>
</trkpt>
<trkpt lat="46.1322710" lon="10.1618250">
	<ele>1896.80</ele>
	<time>2024-09-06T08:36:47.000Z</time>
</trkpt>
<trkpt lat="46.1322720" lon="10.1618250">
	<ele>1896.80</ele>
	<time>2024-09-06T08:36:48.000Z</time>
</trkpt>
<trkpt lat="46.1322720" lon="10.1618260">
	<ele>1896.80</ele>
	<time>2024-09-06T08:36:49.000Z</time>
</trkpt>
<trkpt lat="46.1322730" lon="10.1618280">
	<ele>1896.80</ele>
	<time>2024-09-06T08:36:50.000Z</time>
</trkpt>
<trkpt lat="46.1322750" lon="10.1618280">
	<ele>1896.80</ele>
	<time>2024-09-06T08:36:51.000Z</time>
</trkpt>
<trkpt lat="46.1322750" lon="10.1618280">
	<ele>1896.80</ele>
	<time>2024-09-06T08:36:52.000Z</time>
</trkpt>
<trkpt lat="46.1322750" lon="10.1618280">
	<ele>1896.80</ele>
	<time>2024-09-06T08:36:53.000Z</time>
</trkpt>
<trkpt lat="46.1322750" lon="10.1618280">
	<ele>1896.80</ele>
	<time>2024-09-06T08:36:54.000Z</time>
</trkpt>
<trkpt lat="46.1322750" lon="10.1618280">
	<ele>1896.80</ele>
	<time>2024-09-06T08:36:55.000Z</time>
</trkpt>
<trkpt lat="46.1322750" lon="10.1618280">
	<ele>1896.80</ele>
	<time>2024-09-06T08:36:56.000Z</time>
</trkpt>
<trkpt lat="46.1322750" lon="10.1618280">
	<ele>1896.80</ele>
	<time>2024-09-06T08:36:57.000Z</time>
</trkpt>
<trkpt lat="46.1322750" lon="10.1618280">
	<ele>1896.80</ele>
	<time>2024-09-06T08:36:58.000Z</time>
</trkpt>
<trkpt lat="46.1322750" lon="10.1618280">
	<ele>1896.80</ele>
	<time>2024-09-06T08:36:59.000Z</time>
</trkpt>
<trkpt lat="46.1322750" lon="10.1618280">
	<ele>1896.80</ele>
	<time>2024-09-06T08:37:00.000Z</time>
</trkpt>
<trkpt lat="46.1322750" lon="10.1618270">
	<ele>1896.80</ele>
	<time>2024-09-06T08:37:01.000Z</time>
</trkpt>
<trkpt lat="46.1322740" lon="10.1618260">
	<ele>1896.80</ele>
	<time>2024-09-06T08:37:02.000Z</time>
</trkpt>
<trkpt lat="46.1322740" lon="10.1618260">
	<ele>1896.80</ele>
	<time>2024-09-06T08:37:03.000Z</time>
</trkpt>
<trkpt lat="46.1322740" lon="10.1618250">
	<ele>1896.80</ele>
	<time>2024-09-06T08:37:04.000Z</time>
</trkpt>
<trkpt lat="46.1322740" lon="10.1618250">
	<ele>1896.80</ele>
	<time>2024-09-06T08:37:05.000Z</time>
</trkpt>
<trkpt lat="46.1322740" lon="10.1618250">
	<ele>1896.80</ele>
	<time>2024-09-06T08:37:06.000Z</time>
</trkpt>
<trkpt lat="46.1322750" lon="10.1618260">
	<ele>1896.80</ele>
	<time>2024-09-06T08:37:07.000Z</time>
</trkpt>
<trkpt lat="46.1322750" lon="10.1618270">
	<ele>1896.80</ele>
	<time>2024-09-06T08:37:08.000Z</time>
</trkpt>
<trkpt lat="46.1322760" lon="10.1618280">
	<ele>1896.80</ele>
	<time>2024-09-06T08:37:09.000Z</time>
</trkpt>
<trkpt lat="46.1322760" lon="10.1618280">
	<ele>1896.80</ele>
	<time>2024-09-06T08:37:10.000Z</time>
</trkpt>
<trkpt lat="46.1322760" lon="10.1618280">
	<ele>1896.80</ele>
	<time>2024-09-06T08:37:11.000Z</time>
</trkpt>
<trkpt lat="46.1322760" lon="10.1618280">
	<ele>1896.80</ele>
	<time>2024-09-06T08:37:12.000Z</time>
</trkpt>
<trkpt lat="46.1322760" lon="10.1618280">
	<ele>1896.80</ele>
	<time>2024-09-06T08:37:13.000Z</time>
</trkpt>
<trkpt lat="46.1322760" lon="10.1618280">
	<ele>1896.80</ele>
	<time>2024-09-06T08:37:14.000Z</time>
</trkpt>
<trkpt lat="46.1322760" lon="10.1618280">
	<ele>1896.80</ele>
	<time>2024-09-06T08:37:15.000Z</time>
</trkpt>
<trkpt lat="46.1322760" lon="10.1618280">
	<ele>1896.80</ele>
	<time>2024-09-06T08:37:16.000Z</time>
</trkpt>
<trkpt lat="46.1322760" lon="10.1618280">
	<ele>1896.80</ele>
	<time>2024-09-06T08:37:17.000Z</time>
</trkpt>
<trkpt lat="46.1322760" lon="10.1618280">
	<ele>1896.80</ele>
	<time>2024-09-06T08:37:18.000Z</time>
</trkpt>
<trkpt lat="46.1322770" lon="10.1618280">
	<ele>1896.80</ele>
	<time>2024-09-06T08:37:19.000Z</time>
</trkpt>
<trkpt lat="46.1322770" lon="10.1618290">
	<ele>1896.80</ele>
	<time>2024-09-06T08:37:20.000Z</time>
</trkpt>
<trkpt lat="46.1321980" lon="10.1618020">
	<ele>1896.80</ele>
	<time>2024-09-06T08:37:58.000Z</time>
</trkpt>
<trkpt lat="46.1321170" lon="10.1618400">
	<ele>1896.80</ele>
	<time>2024-09-06T08:37:59.000Z</time>
</trkpt>
<trkpt lat="46.1321170" lon="10.1618420">
	<ele>1896.80</ele>
	<time>2024-09-06T08:38:00.000Z</time>
</trkpt>
<trkpt lat="46.1320830" lon="10.1618410">
	<ele>1896.80</ele>
	<time>2024-09-06T08:38:01.000Z</time>
</trkpt>
<trkpt lat="46.1320560" lon="10.1618420">
	<ele>1896.80</ele>
	<time>2024-09-06T08:38:02.000Z</time>
</trkpt>
<trkpt lat="46.1320630" lon="10.1618380">
	<ele>1896.80</ele>
	<time>2024-09-06T08:38:03.000Z</time>
</trkpt>
<trkpt lat="46.1320550" lon="10.1617920">
	<ele>1896.80</ele>
	<time>2024-09-06T08:38:04.000Z</time>
</trkpt>
<trkpt lat="46.1320360" lon="10.1617500">
	<ele>1896.80</ele>
	<time>2024-09-06T08:38:05.000Z</time>
</trkpt>
<trkpt lat="46.1320460" lon="10.1617300">
	<ele>1896.80</ele>
	<time>2024-09-06T08:38:06.000Z</time>
</trkpt>
<trkpt lat="46.1320470" lon="10.1617300">
	<ele>1896.80</ele>
	<time>2024-09-06T08:38:07.000Z</time>
</trkpt>
<trkpt lat="46.1320340" lon="10.1617360">
	<ele>1896.80</ele>
	<time>2024-09-06T08:38:08.000Z</time>
</trkpt>
<trkpt lat="46.1320230" lon="10.1617440">
	<ele>1896.80</ele>
	<time>2024-09-06T08:38:09.000Z</time>
</trkpt>
<trkpt lat="46.1319030" lon="10.1618010">
	<ele>1896.80</ele>
	<time>2024-09-06T08:38:25.000Z</time>
</trkpt>
<trkpt lat="46.1319500" lon="10.1617980">
	<ele>1896.80</ele>
	<time>2024-09-06T08:38:26.000Z</time>
</trkpt>
<trkpt lat="46.1319520" lon="10.1617950">
	<ele>1896.80</ele>
	<time>2024-09-06T08:38:27.000Z</time>
</trkpt>
<trkpt lat="46.1319540" lon="10.1617920">
	<ele>1896.80</ele>
	<time>2024-09-06T08:38:28.000Z</time>
</trkpt>
<trkpt lat="46.1319560" lon="10.1617890">
	<ele>1896.80</ele>
	<time>2024-09-06T08:38:29.000Z</time>
</trkpt>
<trkpt lat="46.1319580" lon="10.1617890">
	<ele>1896.80</ele>
	<time>2024-09-06T08:38:30.000Z</time>
</trkpt>
<trkpt lat="46.1319560" lon="10.1617870">
	<ele>1896.80</ele>
	<time>2024-09-06T08:38:31.000Z</time>
</trkpt>
<trkpt lat="46.1319570" lon="10.1617880">
	<ele>1896.80</ele>
	<time>2024-09-06T08:38:32.000Z</time>
</trkpt>
<trkpt lat="46.1319600" lon="10.1617880">
	<ele>1896.80</ele>
	<time>2024-09-06T08:38:33.000Z</time>
</trkpt>
<trkpt lat="46.1319600" lon="10.1617880">
	<ele>1896.80</ele>
	<time>2024-09-06T08:38:34.000Z</time>
</trkpt>
<trkpt lat="46.1319600" lon="10.1617890">
	<ele>1896.80</ele>
	<time>2024-09-06T08:38:35.000Z</time>
</trkpt>
<trkpt lat="46.1319580" lon="10.1617880">
	<ele>1896.80</ele>
	<time>2024-09-06T08:38:36.000Z</time>
</trkpt>
<trkpt lat="46.1319470" lon="10.1617730">
	<ele>1896.80</ele>
	<time>2024-09-06T08:38:37.000Z</time>
</trkpt>
<trkpt lat="46.1319440" lon="10.1617710">
	<ele>1896.80</ele>
	<time>2024-09-06T08:38:38.000Z</time>
</trkpt>
<trkpt lat="46.1319410" lon="10.1617690">
	<ele>1896.80</ele>
	<time>2024-09-06T08:38:39.000Z</time>
</trkpt>
<trkpt lat="46.1319430" lon="10.1617350">
	<ele>1896.80</ele>
	<time>2024-09-06T08:38:40.000Z</time>
</trkpt>
<trkpt lat="46.1319360" lon="10.1616970">
	<ele>1896.80</ele>
	<time>2024-09-06T08:38:41.000Z</time>
</trkpt>
<trkpt lat="46.1319390" lon="10.1616990">
	<ele>1896.80</ele>
	<time>2024-09-06T08:38:42.000Z</time>
</trkpt>
<trkpt lat="46.1319280" lon="10.1616810">
	<ele>1896.80</ele>
	<time>2024-09-06T08:38:43.000Z</time>
</trkpt>
<trkpt lat="46.1319160" lon="10.1616630">
	<ele>1896.80</ele>
	<time>2024-09-06T08:38:44.000Z</time>
</trkpt>
<trkpt lat="46.1319200" lon="10.1616660">
	<ele>1896.80</ele>
	<time>2024-09-06T08:38:45.000Z</time>
</trkpt>
<trkpt lat="46.1319220" lon="10.1616670">
	<ele>1896.80</ele>
	<time>2024-09-06T08:38:46.000Z</time>
</trkpt>
<trkpt lat="46.1319240" lon="10.1616670">
	<ele>1896.80</ele>
	<time>2024-09-06T08:38:47.000Z</time>
</trkpt>
<trkpt lat="46.1319260" lon="10.1616650">
	<ele>1896.80</ele>
	<time>2024-09-06T08:38:48.000Z</time>
</trkpt>
<trkpt lat="46.1319140" lon="10.1616580">
	<ele>1896.80</ele>
	<time>2024-09-06T08:38:49.000Z</time>
</trkpt>
<trkpt lat="46.1319170" lon="10.1616600">
	<ele>1896.80</ele>
	<time>2024-09-06T08:38:50.000Z</time>
</trkpt>
<trkpt lat="46.1319200" lon="10.1616600">
	<ele>1896.80</ele>
	<time>2024-09-06T08:38:51.000Z</time>
</trkpt>
<trkpt lat="46.1319210" lon="10.1616610">
	<ele>1896.80</ele>
	<time>2024-09-06T08:38:52.000Z</time>
</trkpt>
<trkpt lat="46.1319220" lon="10.1616620">
	<ele>1896.80</ele>
	<time>2024-09-06T08:38:53.000Z</time>
</trkpt>
<trkpt lat="46.1319250" lon="10.1616680">
	<ele>1896.80</ele>
	<time>2024-09-06T08:38:54.000Z</time>
</trkpt>
<trkpt lat="46.1319270" lon="10.1616710">
	<ele>1896.80</ele>
	<time>2024-09-06T08:38:55.000Z</time>
</trkpt>
<trkpt lat="46.1319280" lon="10.1616750">
	<ele>1896.80</ele>
	<time>2024-09-06T08:38:56.000Z</time>
</trkpt>
<trkpt lat="46.1319270" lon="10.1616770">
	<ele>1896.80</ele>
	<time>2024-09-06T08:38:57.000Z</time>
</trkpt>
<trkpt lat="46.1319250" lon="10.1616780">
	<ele>1896.80</ele>
	<time>2024-09-06T08:38:58.000Z</time>
</trkpt>
<trkpt lat="46.1319240" lon="10.1616790">
	<ele>1896.80</ele>
	<time>2024-09-06T08:38:59.000Z</time>
</trkpt>
<trkpt lat="46.1319220" lon="10.1616810">
	<ele>1896.80</ele>
	<time>2024-09-06T08:39:00.000Z</time>
</trkpt>
<trkpt lat="46.1319220" lon="10.1616830">
	<ele>1896.80</ele>
	<time>2024-09-06T08:39:01.000Z</time>
</trkpt>
<trkpt lat="46.1319200" lon="10.1616840">
	<ele>1896.80</ele>
	<time>2024-09-06T08:39:02.000Z</time>
</trkpt>
<trkpt lat="46.1319220" lon="10.1616870">
	<ele>1896.80</ele>
	<time>2024-09-06T08:39:03.000Z</time>
</trkpt>
<trkpt lat="46.1319240" lon="10.1616890">
	<ele>1896.80</ele>
	<time>2024-09-06T08:39:04.000Z</time>
</trkpt>
<trkpt lat="46.1319250" lon="10.1616910">
	<ele>1896.80</ele>
	<time>2024-09-06T08:39:05.000Z</time>
</trkpt>
<trkpt lat="46.1319270" lon="10.1616930">
	<ele>1896.80</ele>
	<time>2024-09-06T08:39:06.000Z</time>
</trkpt>
<trkpt lat="46.1319280" lon="10.1616940">
	<ele>1896.80</ele>
	<time>2024-09-06T08:39:07.000Z</time>
</trkpt>
<trkpt lat="46.1319270" lon="10.1616940">
	<ele>1896.80</ele>
	<time>2024-09-06T08:39:08.000Z</time>
</trkpt>
<trkpt lat="46.1319270" lon="10.1616940">
	<ele>1896.80</ele>
	<time>2024-09-06T08:39:09.000Z</time>
</trkpt>
<trkpt lat="46.1319270" lon="10.1616940">
	<ele>1896.80</ele>
	<time>2024-09-06T08:39:10.000Z</time>
</trkpt>
<trkpt lat="46.1319270" lon="10.1616940">
	<ele>1896.80</ele>
	<time>2024-09-06T08:39:11.000Z</time>
</trkpt>
<trkpt lat="46.1319270" lon="10.1616940">
	<ele>1896.80</ele>
	<time>2024-09-06T08:39:12.000Z</time>
</trkpt>
<trkpt lat="46.1319270" lon="10.1616940">
	<ele>1896.80</ele>
	<time>2024-09-06T08:39:13.000Z</time>
</trkpt>
<trkpt lat="46.1319270" lon="10.1616940">
	<ele>1896.80</ele>
	<time>2024-09-06T08:39:14.000Z</time>
</trkpt>
<trkpt lat="46.1319270" lon="10.1616940">
	<ele>1896.80</ele>
	<time>2024-09-06T08:39:15.000Z</time>
</trkpt>
<trkpt lat="46.1319270" lon="10.1616940">
	<ele>1896.80</ele>
	<time>2024-09-06T08:39:16.000Z</time>
</trkpt>
<trkpt lat="46.1319270" lon="10.1616930">
	<ele>1896.80</ele>
	<time>2024-09-06T08:39:17.000Z</time>
</trkpt>
<trkpt lat="46.1319280" lon="10.1616930">
	<ele>1896.80</ele>
	<time>2024-09-06T08:39:18.000Z</time>
</trkpt>
<trkpt lat="46.1319330" lon="10.1616950">
	<ele>1896.80</ele>
	<time>2024-09-06T08:39:19.000Z</time>
</trkpt>
<trkpt lat="46.1319410" lon="10.1617020">
	<ele>1896.80</ele>
	<time>2024-09-06T08:39:20.000Z</time>
</trkpt>
<trkpt lat="46.1319470" lon="10.1617040">
	<ele>1896.80</ele>
	<time>2024-09-06T08:39:21.000Z</time>
</trkpt>
<trkpt lat="46.1319700" lon="10.1617260">
	<ele>1896.80</ele>
	<time>2024-09-06T08:39:22.000Z</time>
</trkpt>
<trkpt lat="46.1319750" lon="10.1617290">
	<ele>1896.80</ele>
	<time>2024-09-06T08:39:23.000Z</time>
</trkpt>
<trkpt lat="46.1319800" lon="10.1617310">
	<ele>1896.80</ele>
	<time>2024-09-06T08:39:24.000Z</time>
</trkpt>
<trkpt lat="46.1319820" lon="10.1617310">
	<ele>1896.80</ele>
	<time>2024-09-06T08:39:25.000Z</time>
</trkpt>
<trkpt lat="46.1319840" lon="10.1617320">
	<ele>1896.80</ele>
	<time>2024-09-06T08:39:26.000Z</time>
</trkpt>
<trkpt lat="46.1319840" lon="10.1617330">
	<ele>1896.80</ele>
	<time>2024-09-06T08:39:27.000Z</time>
</trkpt>
<trkpt lat="46.1319830" lon="10.1617310">
	<ele>1896.80</ele>
	<time>2024-09-06T08:39:28.000Z</time>
</trkpt>
<trkpt lat="46.1319820" lon="10.1617310">
	<ele>1896.80</ele>
	<time>2024-09-06T08:39:29.000Z</time>
</trkpt>
<trkpt lat="46.1319790" lon="10.1617310">
	<ele>1896.80</ele>
	<time>2024-09-06T08:39:30.000Z</time>
</trkpt>
<trkpt lat="46.1319790" lon="10.1617290">
	<ele>1896.80</ele>
	<time>2024-09-06T08:39:31.000Z</time>
</trkpt>
<trkpt lat="46.1319780" lon="10.1617270">
	<ele>1896.80</ele>
	<time>2024-09-06T08:39:32.000Z</time>
</trkpt>
<trkpt lat="46.1319780" lon="10.1617270">
	<ele>1896.80</ele>
	<time>2024-09-06T08:39:33.000Z</time>
</trkpt>
<trkpt lat="46.1319830" lon="10.1617210">
	<ele>1896.80</ele>
	<time>2024-09-06T08:39:34.000Z</time>
</trkpt>
<trkpt lat="46.1319840" lon="10.1617210">
	<ele>1896.80</ele>
	<time>2024-09-06T08:39:35.000Z</time>
</trkpt>
<trkpt lat="46.1319840" lon="10.1617210">
	<ele>1896.80</ele>
	<time>2024-09-06T08:39:36.000Z</time>
</trkpt>
<trkpt lat="46.1319840" lon="10.1617210">
	<ele>1896.80</ele>
	<time>2024-09-06T08:39:37.000Z</time>
</trkpt>
<trkpt lat="46.1319840" lon="10.1617210">
	<ele>1896.80</ele>
	<time>2024-09-06T08:39:38.000Z</time>
</trkpt>
<trkpt lat="46.1319840" lon="10.1617210">
	<ele>1896.80</ele>
	<time>2024-09-06T08:39:39.000Z</time>
</trkpt>
<trkpt lat="46.1319840" lon="10.1617210">
	<ele>1896.80</ele>
	<time>2024-09-06T08:39:40.000Z</time>
</trkpt>
<trkpt lat="46.1319840" lon="10.1617210">
	<ele>1896.80</ele>
	<time>2024-09-06T08:39:41.000Z</time>
</trkpt>
<trkpt lat="46.1319840" lon="10.1617210">
	<ele>1896.80</ele>
	<time>2024-09-06T08:39:42.000Z</time>
</trkpt>
<trkpt lat="46.1319840" lon="10.1617210">
	<ele>1896.80</ele>
	<time>2024-09-06T08:39:43.000Z</time>
</trkpt>
<trkpt lat="46.1319840" lon="10.1617210">
	<ele>1896.80</ele>
	<time>2024-09-06T08:39:44.000Z</time>
</trkpt>
<trkpt lat="46.1319840" lon="10.1617210">
	<ele>1896.80</ele>
	<time>2024-09-06T08:39:45.000Z</time>
</trkpt>
<trkpt lat="46.1319840" lon="10.1617210">
	<ele>1896.80</ele>
	<time>2024-09-06T08:39:46.000Z</time>
</trkpt>
<trkpt lat="46.1319840" lon="10.1617210">
	<ele>1896.80</ele>
	<time>2024-09-06T08:39:47.000Z</time>
</trkpt>
<trkpt lat="46.1319840" lon="10.1617210">
	<ele>1896.80</ele>
	<time>2024-09-06T08:39:48.000Z</time>
</trkpt>
<trkpt lat="46.1319840" lon="10.1617210">
	<ele>1896.80</ele>
	<time>2024-09-06T08:39:49.000Z</time>
</trkpt>
<trkpt lat="46.1319840" lon="10.1617210">
	<ele>1896.80</ele>
	<time>2024-09-06T08:39:50.000Z</time>
</trkpt>
<trkpt lat="46.1319840" lon="10.1617200">
	<ele>1896.80</ele>
	<time>2024-09-06T08:39:51.000Z</time>
</trkpt>
<trkpt lat="46.1319840" lon="10.1617190">
	<ele>1896.80</ele>
	<time>2024-09-06T08:39:52.000Z</time>
</trkpt>
<trkpt lat="46.1319840" lon="10.1617180">
	<ele>1896.80</ele>
	<time>2024-09-06T08:39:53.000Z</time>
</trkpt>
<trkpt lat="46.1319840" lon="10.1617180">
	<ele>1896.80</ele>
	<time>2024-09-06T08:39:54.000Z</time>
</trkpt>
<trkpt lat="46.1319850" lon="10.1617180">
	<ele>1896.80</ele>
	<time>2024-09-06T08:39:55.000Z</time>
</trkpt>
<trkpt lat="46.1319850" lon="10.1617180">
	<ele>1896.80</ele>
	<time>2024-09-06T08:39:56.000Z</time>
</trkpt>
<trkpt lat="46.1319860" lon="10.1617180">
	<ele>1896.80</ele>
	<time>2024-09-06T08:39:57.000Z</time>
</trkpt>
<trkpt lat="46.1319870" lon="10.1617180">
	<ele>1896.80</ele>
	<time>2024-09-06T08:39:58.000Z</time>
</trkpt>
<trkpt lat="46.1319880" lon="10.1617180">
	<ele>1896.80</ele>
	<time>2024-09-06T08:39:59.000Z</time>
</trkpt>
<trkpt lat="46.1319900" lon="10.1617180">
	<ele>1896.80</ele>
	<time>2024-09-06T08:40:00.000Z</time>
</trkpt>
<trkpt lat="46.1319920" lon="10.1617180">
	<ele>1896.80</ele>
	<time>2024-09-06T08:40:01.000Z</time>
</trkpt>
<trkpt lat="46.1319940" lon="10.1617180">
	<ele>1896.80</ele>
	<time>2024-09-06T08:40:02.000Z</time>
</trkpt>
<trkpt lat="46.1319960" lon="10.1617180">
	<ele>1896.80</ele>
	<time>2024-09-06T08:40:03.000Z</time>
</trkpt>
<trkpt lat="46.1319960" lon="10.1617180">
	<ele>1896.80</ele>
	<time>2024-09-06T08:40:04.000Z</time>
</trkpt>
<trkpt lat="46.1319970" lon="10.1617180">
	<ele>1896.80</ele>
	<time>2024-09-06T08:40:05.000Z</time>
</trkpt>
<trkpt lat="46.1319970" lon="10.1617180">
	<ele>1896.80</ele>
	<time>2024-09-06T08:40:06.000Z</time>
</trkpt>
<trkpt lat="46.1319990" lon="10.1617190">
	<ele>1896.80</ele>
	<time>2024-09-06T08:40:07.000Z</time>
</trkpt>
<trkpt lat="46.1320000" lon="10.1617220">
	<ele>1896.80</ele>
	<time>2024-09-06T08:40:08.000Z</time>
</trkpt>
<trkpt lat="46.1320040" lon="10.1617270">
	<ele>1896.80</ele>
	<time>2024-09-06T08:40:09.000Z</time>
</trkpt>
<trkpt lat="46.1320090" lon="10.1617310">
	<ele>1896.80</ele>
	<time>2024-09-06T08:40:10.000Z</time>
</trkpt>
<trkpt lat="46.1320110" lon="10.1617320">
	<ele>1896.80</ele>
	<time>2024-09-06T08:40:11.000Z</time>
</trkpt>
<trkpt lat="46.1320130" lon="10.1617320">
	<ele>1896.80</ele>
	<time>2024-09-06T08:40:12.000Z</time>
</trkpt>
<trkpt lat="46.1320140" lon="10.1617320">
	<ele>1896.80</ele>
	<time>2024-09-06T08:40:13.000Z</time>
</trkpt>
<trkpt lat="46.1320150" lon="10.1617320">
	<ele>1896.80</ele>
	<time>2024-09-06T08:40:14.000Z</time>
</trkpt>
<trkpt lat="46.1320160" lon="10.1617320">
	<ele>1896.80</ele>
	<time>2024-09-06T08:40:15.000Z</time>
</trkpt>
<trkpt lat="46.1320220" lon="10.1617320">
	<ele>1896.80</ele>
	<time>2024-09-06T08:40:16.000Z</time>
</trkpt>
<trkpt lat="46.1320230" lon="10.1617320">
	<ele>1896.80</ele>
	<time>2024-09-06T08:40:17.000Z</time>
</trkpt>
<trkpt lat="46.1320240" lon="10.1617320">
	<ele>1896.80</ele>
	<time>2024-09-06T08:40:18.000Z</time>
</trkpt>
<trkpt lat="46.1320250" lon="10.1617320">
	<ele>1896.80</ele>
	<time>2024-09-06T08:40:19.000Z</time>
</trkpt>
<trkpt lat="46.1320250" lon="10.1617320">
	<ele>1896.80</ele>
	<time>2024-09-06T08:40:20.000Z</time>
</trkpt>
<trkpt lat="46.1320260" lon="10.1617320">
	<ele>1896.80</ele>
	<time>2024-09-06T08:40:21.000Z</time>
</trkpt>
<trkpt lat="46.1320250" lon="10.1617310">
	<ele>1896.80</ele>
	<time>2024-09-06T08:40:22.000Z</time>
</trkpt>
<trkpt lat="46.1320270" lon="10.1617300">
	<ele>1896.80</ele>
	<time>2024-09-06T08:40:25.000Z</time>
</trkpt>
<trkpt lat="46.1320280" lon="10.1617260">
	<ele>1896.80</ele>
	<time>2024-09-06T08:40:26.000Z</time>
</trkpt>
<trkpt lat="46.1320310" lon="10.1617240">
	<ele>1896.80</ele>
	<time>2024-09-06T08:40:27.000Z</time>
</trkpt>
<trkpt lat="46.1320340" lon="10.1617250">
	<ele>1896.80</ele>
	<time>2024-09-06T08:40:28.000Z</time>
</trkpt>
<trkpt lat="46.1321250" lon="10.1617800">
	<ele>1896.80</ele>
	<time>2024-09-06T08:40:37.000Z</time>
</trkpt>
<trkpt lat="46.1321310" lon="10.1617890">
	<ele>1896.80</ele>
	<time>2024-09-06T08:40:38.000Z</time>
</trkpt>
<trkpt lat="46.1321400" lon="10.1617980">
	<ele>1896.80</ele>
	<time>2024-09-06T08:40:39.000Z</time>
</trkpt>
<trkpt lat="46.1321430" lon="10.1618000">
	<ele>1896.80</ele>
	<time>2024-09-06T08:40:40.000Z</time>
</trkpt>
<trkpt lat="46.1321460" lon="10.1618000">
	<ele>1896.80</ele>
	<time>2024-09-06T08:40:41.000Z</time>
</trkpt>
<trkpt lat="46.1321480" lon="10.1617990">
	<ele>1896.80</ele>
	<time>2024-09-06T08:40:42.000Z</time>
</trkpt>
<trkpt lat="46.1321500" lon="10.1617970">
	<ele>1896.80</ele>
	<time>2024-09-06T08:40:43.000Z</time>
</trkpt>
<trkpt lat="46.1321520" lon="10.1617980">
	<ele>1896.80</ele>
	<time>2024-09-06T08:40:44.000Z</time>
</trkpt>
<trkpt lat="46.1321540" lon="10.1618020">
	<ele>1896.80</ele>
	<time>2024-09-06T08:40:45.000Z</time>
</trkpt>
<trkpt lat="46.1321560" lon="10.1618070">
	<ele>1896.80</ele>
	<time>2024-09-06T08:40:46.000Z</time>
</trkpt>
<trkpt lat="46.1321590" lon="10.1618100">
	<ele>1896.80</ele>
	<time>2024-09-06T08:40:47.000Z</time>
</trkpt>
<trkpt lat="46.1321550" lon="10.1618070">
	<ele>1896.80</ele>
	<time>2024-09-06T08:40:48.000Z</time>
</trkpt>
<trkpt lat="46.1321470" lon="10.1617990">
	<ele>1896.80</ele>
	<time>2024-09-06T08:40:49.000Z</time>
</trkpt>
<trkpt lat="46.1321400" lon="10.1617950">
	<ele>1896.80</ele>
	<time>2024-09-06T08:40:50.000Z</time>
</trkpt>
<trkpt lat="46.1321380" lon="10.1617960">
	<ele>1896.80</ele>
	<time>2024-09-06T08:40:51.000Z</time>
</trkpt>
<trkpt lat="46.1321350" lon="10.1617970">
	<ele>1896.80</ele>
	<time>2024-09-06T08:40:52.000Z</time>
</trkpt>
<trkpt lat="46.1321340" lon="10.1618000">
	<ele>1896.80</ele>
	<time>2024-09-06T08:40:53.000Z</time>
</trkpt>
<trkpt lat="46.1321300" lon="10.1617970">
	<ele>1896.80</ele>
	<time>2024-09-06T08:40:54.000Z</time>
</trkpt>
<trkpt lat="46.1321240" lon="10.1617930">
	<ele>1896.80</ele>
	<time>2024-09-06T08:40:55.000Z</time>
</trkpt>
<trkpt lat="46.1321180" lon="10.1617850">
	<ele>1896.80</ele>
	<time>2024-09-06T08:40:56.000Z</time>
</trkpt>
<trkpt lat="46.1321110" lon="10.1617800">
	<ele>1896.80</ele>
	<time>2024-09-06T08:40:57.000Z</time>
</trkpt>
<trkpt lat="46.1321040" lon="10.1617730">
	<ele>1896.80</ele>
	<time>2024-09-06T08:40:58.000Z</time>
</trkpt>
<trkpt lat="46.1320920" lon="10.1617640">
	<ele>1896.80</ele>
	<time>2024-09-06T08:40:59.000Z</time>
</trkpt>
<trkpt lat="46.1320780" lon="10.1617570">
	<ele>1896.80</ele>
	<time>2024-09-06T08:41:00.000Z</time>
</trkpt>
<trkpt lat="46.1320710" lon="10.1617510">
	<ele>1896.80</ele>
	<time>2024-09-06T08:41:01.000Z</time>
</trkpt>
<trkpt lat="46.1320630" lon="10.1617320">
	<ele>1896.80</ele>
	<time>2024-09-06T08:41:02.000Z</time>
</trkpt>
<trkpt lat="46.1320270" lon="10.1617110">
	<ele>1896.80</ele>
	<time>2024-09-06T08:41:03.000Z</time>
</trkpt>
<trkpt lat="46.1319950" lon="10.1617110">
	<ele>1896.80</ele>
	<time>2024-09-06T08:41:04.000Z</time>
</trkpt>
<trkpt lat="46.1319810" lon="10.1617140">
	<ele>1896.80</ele>
	<time>2024-09-06T08:41:05.000Z</time>
</trkpt>
<trkpt lat="46.1320220" lon="10.1617070">
	<ele>1896.80</ele>
	<time>2024-09-06T08:41:06.000Z</time>
</trkpt>
<trkpt lat="46.1320360" lon="10.1617090">
	<ele>1896.80</ele>
	<time>2024-09-06T08:41:07.000Z</time>
</trkpt>
<trkpt lat="46.1320480" lon="10.1616970">
	<ele>1896.80</ele>
	<time>2024-09-06T08:41:08.000Z</time>
</trkpt>
<trkpt lat="46.1320570" lon="10.1616710">
	<ele>1896.80</ele>
	<time>2024-09-06T08:41:09.000Z</time>
</trkpt>
<trkpt lat="46.1320640" lon="10.1616550">
	<ele>1896.80</ele>
	<time>2024-09-06T08:41:10.000Z</time>
</trkpt>
<trkpt lat="46.1320670" lon="10.1616510">
	<ele>1896.80</ele>
	<time>2024-09-06T08:41:11.000Z</time>
</trkpt>
<trkpt lat="46.1320690" lon="10.1616490">
	<ele>1896.80</ele>
	<time>2024-09-06T08:41:12.000Z</time>
</trkpt>
<trkpt lat="46.1320690" lon="10.1616470">
	<ele>1896.80</ele>
	<time>2024-09-06T08:41:13.000Z</time>
</trkpt>
<trkpt lat="46.1320700" lon="10.1616630">
	<ele>1896.80</ele>
	<time>2024-09-06T08:41:14.000Z</time>
</trkpt>
<trkpt lat="46.1320800" lon="10.1616710">
	<ele>1896.80</ele>
	<time>2024-09-06T08:41:15.000Z</time>
</trkpt>
<trkpt lat="46.1320960" lon="10.1616730">
	<ele>1896.80</ele>
	<time>2024-09-06T08:41:16.000Z</time>
</trkpt>
<trkpt lat="46.1320950" lon="10.1616670">
	<ele>1896.80</ele>
	<time>2024-09-06T08:41:17.000Z</time>
</trkpt>
<trkpt lat="46.1320890" lon="10.1616650">
	<ele>1896.80</ele>
	<time>2024-09-06T08:41:18.000Z</time>
</trkpt>
<trkpt lat="46.1320880" lon="10.1616690">
	<ele>1896.80</ele>
	<time>2024-09-06T08:41:19.000Z</time>
</trkpt>
<trkpt lat="46.1320770" lon="10.1616690">
	<ele>1896.80</ele>
	<time>2024-09-06T08:41:20.000Z</time>
</trkpt>
<trkpt lat="46.1320780" lon="10.1616750">
	<ele>1896.80</ele>
	<time>2024-09-06T08:41:21.000Z</time>
</trkpt>
<trkpt lat="46.1320860" lon="10.1616780">
	<ele>1896.80</ele>
	<time>2024-09-06T08:41:22.000Z</time>
</trkpt>
<trkpt lat="46.1320890" lon="10.1616860">
	<ele>1896.80</ele>
	<time>2024-09-06T08:41:23.000Z</time>
</trkpt>
<trkpt lat="46.1320910" lon="10.1616910">
	<ele>1896.80</ele>
	<time>2024-09-06T08:41:24.000Z</time>
</trkpt>
<trkpt lat="46.1320900" lon="10.1616990">
	<ele>1896.80</ele>
	<time>2024-09-06T08:41:25.000Z</time>
</trkpt>
<trkpt lat="46.1320920" lon="10.1617050">
	<ele>1896.80</ele>
	<time>2024-09-06T08:41:26.000Z</time>
</trkpt>
<trkpt lat="46.1320950" lon="10.1617110">
	<ele>1896.80</ele>
	<time>2024-09-06T08:41:27.000Z</time>
</trkpt>
<trkpt lat="46.1320950" lon="10.1617130">
	<ele>1896.80</ele>
	<time>2024-09-06T08:41:28.000Z</time>
</trkpt>
<trkpt lat="46.1320900" lon="10.1617240">
	<ele>1896.80</ele>
	<time>2024-09-06T08:41:29.000Z</time>
</trkpt>
<trkpt lat="46.1320860" lon="10.1617250">
	<ele>1896.80</ele>
	<time>2024-09-06T08:41:30.000Z</time>
</trkpt>
<trkpt lat="46.1320660" lon="10.1617180">
	<ele>1896.80</ele>
	<time>2024-09-06T08:41:31.000Z</time>
</trkpt>
<trkpt lat="46.1320640" lon="10.1617230">
	<ele>1896.80</ele>
	<time>2024-09-06T08:41:32.000Z</time>
</trkpt>
<trkpt lat="46.1320610" lon="10.1617260">
	<ele>1896.80</ele>
	<time>2024-09-06T08:41:33.000Z</time>
</trkpt>
<trkpt lat="46.1320610" lon="10.1617280">
	<ele>1896.80</ele>
	<time>2024-09-06T08:41:34.000Z</time>
</trkpt>
<trkpt lat="46.1320590" lon="10.1617380">
	<ele>1896.80</ele>
	<time>2024-09-06T08:41:35.000Z</time>
</trkpt>
<trkpt lat="46.1320510" lon="10.1617380">
	<ele>1896.80</ele>
	<time>2024-09-06T08:41:36.000Z</time>
</trkpt>
<trkpt lat="46.1312590" lon="10.1624690">
	<ele>1896.80</ele>
	<time>2024-09-06T08:42:30.000Z</time>
</trkpt>
<trkpt lat="46.1316820" lon="10.1621390">
	<ele>1896.80</ele>
	<time>2024-09-06T08:42:31.000Z</time>
</trkpt>
<trkpt lat="46.1317800" lon="10.1621320">
	<ele>1896.80</ele>
	<time>2024-09-06T08:42:32.000Z</time>
</trkpt>
<trkpt lat="46.1317550" lon="10.1621890">
	<ele>1896.80</ele>
	<time>2024-09-06T08:42:33.000Z</time>
</trkpt>
<trkpt lat="46.1318590" lon="10.1620830">
	<ele>1896.80</ele>
	<time>2024-09-06T08:42:37.000Z</time>
</trkpt>
<trkpt lat="46.1319040" lon="10.1619270">
	<ele>1894.00</ele>
	<time>2024-09-06T08:42:40.000Z</time>
</trkpt>
<trkpt lat="46.1319040" lon="10.1619290">
	<ele>1893.40</ele>
	<time>2024-09-06T08:42:41.000Z</time>
</trkpt>
<trkpt lat="46.1319020" lon="10.1619230">
	<ele>1893.20</ele>
	<time>2024-09-06T08:42:42.000Z</time>
</trkpt>
<trkpt lat="46.1319030" lon="10.1619240">
	<ele>1893.20</ele>
	<time>2024-09-06T08:42:43.000Z</time>
</trkpt>
<trkpt lat="46.1319190" lon="10.1618580">
	<ele>1893.00</ele>
	<time>2024-09-06T08:42:44.000Z</time>
</trkpt>
<trkpt lat="46.1319330" lon="10.1618210">
	<ele>1893.00</ele>
	<time>2024-09-06T08:42:45.000Z</time>
</trkpt>
<trkpt lat="46.1319350" lon="10.1618240">
	<ele>1893.00</ele>
	<time>2024-09-06T08:42:46.000Z</time>
</trkpt>
<trkpt lat="46.1319560" lon="10.1618040">
	<ele>1893.00</ele>
	<time>2024-09-06T08:42:47.000Z</time>
</trkpt>
<trkpt lat="46.1319640" lon="10.1617810">
	<ele>1893.00</ele>
	<time>2024-09-06T08:42:48.000Z</time>
</trkpt>
<trkpt lat="46.1319710" lon="10.1617810">
	<ele>1893.00</ele>
	<time>2024-09-06T08:42:49.000Z</time>
</trkpt>
<trkpt lat="46.1319680" lon="10.1617800">
	<ele>1893.20</ele>
	<time>2024-09-06T08:42:50.000Z</time>
</trkpt>
<trkpt lat="46.1319650" lon="10.1617790">
	<ele>1893.20</ele>
	<time>2024-09-06T08:42:51.000Z</time>
</trkpt>
<trkpt lat="46.1319630" lon="10.1617790">
	<ele>1893.40</ele>
	<time>2024-09-06T08:42:52.000Z</time>
</trkpt>
<trkpt lat="46.1319620" lon="10.1617800">
	<ele>1893.40</ele>
	<time>2024-09-06T08:42:53.000Z</time>
</trkpt>
<trkpt lat="46.1319630" lon="10.1617720">
	<ele>1893.60</ele>
	<time>2024-09-06T08:42:54.000Z</time>
</trkpt>
<trkpt lat="46.1319610" lon="10.1617710">
	<ele>1893.40</ele>
	<time>2024-09-06T08:42:55.000Z</time>
</trkpt>
<trkpt lat="46.1319640" lon="10.1617590">
	<ele>1893.40</ele>
	<time>2024-09-06T08:42:56.000Z</time>
</trkpt>
<trkpt lat="46.1319630" lon="10.1617590">
	<ele>1893.20</ele>
	<time>2024-09-06T08:42:57.000Z</time>
</trkpt>
<trkpt lat="46.1319650" lon="10.1617600">
	<ele>1893.20</ele>
	<time>2024-09-06T08:42:58.000Z</time>
</trkpt>
<trkpt lat="46.1319630" lon="10.1617590">
	<ele>1893.00</ele>
	<time>2024-09-06T08:42:59.000Z</time>
</trkpt>
<trkpt lat="46.1319620" lon="10.1617500">
	<ele>1893.00</ele>
	<time>2024-09-06T08:43:00.000Z</time>
</trkpt>
<trkpt lat="46.1319600" lon="10.1617490">
	<ele>1893.00</ele>
	<time>2024-09-06T08:43:01.000Z</time>
</trkpt>
<trkpt lat="46.1319610" lon="10.1617490">
	<ele>1893.00</ele>
	<time>2024-09-06T08:43:02.000Z</time>
</trkpt>
<trkpt lat="46.1319620" lon="10.1617490">
	<ele>1893.00</ele>
	<time>2024-09-06T08:43:03.000Z</time>
</trkpt>
<trkpt lat="46.1319640" lon="10.1617500">
	<ele>1892.80</ele>
	<time>2024-09-06T08:43:04.000Z</time>
</trkpt>
<trkpt lat="46.1319650" lon="10.1617530">
	<ele>1892.80</ele>
	<time>2024-09-06T08:43:05.000Z</time>
</trkpt>
<trkpt lat="46.1319660" lon="10.1617530">
	<ele>1892.80</ele>
	<time>2024-09-06T08:43:06.000Z</time>
</trkpt>
<trkpt lat="46.1319660" lon="10.1617530">
	<ele>1892.80</ele>
	<time>2024-09-06T08:43:07.000Z</time>
</trkpt>
<trkpt lat="46.1319660" lon="10.1617530">
	<ele>1892.80</ele>
	<time>2024-09-06T08:43:08.000Z</time>
</trkpt>
<trkpt lat="46.1319660" lon="10.1617530">
	<ele>1893.00</ele>
	<time>2024-09-06T08:43:09.000Z</time>
</trkpt>
<trkpt lat="46.1319660" lon="10.1617530">
	<ele>1893.00</ele>
	<time>2024-09-06T08:43:10.000Z</time>
</trkpt>
<trkpt lat="46.1319660" lon="10.1617530">
	<ele>1893.00</ele>
	<time>2024-09-06T08:43:11.000Z</time>
</trkpt>
<trkpt lat="46.1319660" lon="10.1617530">
	<ele>1893.00</ele>
	<time>2024-09-06T08:43:12.000Z</time>
</trkpt>
<trkpt lat="46.1319660" lon="10.1617530">
	<ele>1893.00</ele>
	<time>2024-09-06T08:43:13.000Z</time>
</trkpt>
<trkpt lat="46.1319660" lon="10.1617530">
	<ele>1892.80</ele>
	<time>2024-09-06T08:43:14.000Z</time>
</trkpt>
<trkpt lat="46.1319660" lon="10.1617530">
	<ele>1892.80</ele>
	<time>2024-09-06T08:43:15.000Z</time>
</trkpt>
<trkpt lat="46.1319660" lon="10.1617530">
	<ele>1892.80</ele>
	<time>2024-09-06T08:43:16.000Z</time>
</trkpt>
<trkpt lat="46.1319660" lon="10.1617530">
	<ele>1892.80</ele>
	<time>2024-09-06T08:43:17.000Z</time>
</trkpt>
<trkpt lat="46.1319660" lon="10.1617530">
	<ele>1892.80</ele>
	<time>2024-09-06T08:43:18.000Z</time>
</trkpt>
<trkpt lat="46.1319660" lon="10.1617530">
	<ele>1893.00</ele>
	<time>2024-09-06T08:43:19.000Z</time>
</trkpt>
<trkpt lat="46.1319660" lon="10.1617530">
	<ele>1893.00</ele>
	<time>2024-09-06T08:43:20.000Z</time>
</trkpt>
<trkpt lat="46.1319660" lon="10.1617530">
	<ele>1893.00</ele>
	<time>2024-09-06T08:43:21.000Z</time>
</trkpt>
<trkpt lat="46.1319670" lon="10.1617530">
	<ele>1893.00</ele>
	<time>2024-09-06T08:43:22.000Z</time>
</trkpt>
<trkpt lat="46.1319670" lon="10.1617530">
	<ele>1893.00</ele>
	<time>2024-09-06T08:43:23.000Z</time>
</trkpt>
<trkpt lat="46.1319670" lon="10.1617530">
	<ele>1893.00</ele>
	<time>2024-09-06T08:43:24.000Z</time>
</trkpt>
<trkpt lat="46.1319680" lon="10.1617530">
	<ele>1893.00</ele>
	<time>2024-09-06T08:43:25.000Z</time>
</trkpt>
<trkpt lat="46.1319680" lon="10.1617550">
	<ele>1892.80</ele>
	<time>2024-09-06T08:43:26.000Z</time>
</trkpt>
<trkpt lat="46.1319680" lon="10.1617550">
	<ele>1892.80</ele>
	<time>2024-09-06T08:43:27.000Z</time>
</trkpt>
<trkpt lat="46.1319680" lon="10.1617550">
	<ele>1892.80</ele>
	<time>2024-09-06T08:43:28.000Z</time>
</trkpt>
<trkpt lat="46.1319680" lon="10.1617550">
	<ele>1892.80</ele>
	<time>2024-09-06T08:43:29.000Z</time>
</trkpt>
<trkpt lat="46.1319680" lon="10.1617550">
	<ele>1892.80</ele>
	<time>2024-09-06T08:43:30.000Z</time>
</trkpt>
<trkpt lat="46.1319680" lon="10.1617550">
	<ele>1892.80</ele>
	<time>2024-09-06T08:43:31.000Z</time>
</trkpt>
<trkpt lat="46.1319680" lon="10.1617550">
	<ele>1892.80</ele>
	<time>2024-09-06T08:43:32.000Z</time>
</trkpt>
<trkpt lat="46.1319680" lon="10.1617550">
	<ele>1892.80</ele>
	<time>2024-09-06T08:43:33.000Z</time>
</trkpt>
<trkpt lat="46.1319680" lon="10.1617550">
	<ele>1892.80</ele>
	<time>2024-09-06T08:43:34.000Z</time>
</trkpt>
<trkpt lat="46.1319680" lon="10.1617550">
	<ele>1892.80</ele>
	<time>2024-09-06T08:43:35.000Z</time>
</trkpt>
<trkpt lat="46.1319680" lon="10.1617550">
	<ele>1892.80</ele>
	<time>2024-09-06T08:43:36.000Z</time>
</trkpt>
<trkpt lat="46.1319680" lon="10.1617550">
	<ele>1892.80</ele>
	<time>2024-09-06T08:43:37.000Z</time>
</trkpt>
<trkpt lat="46.1319680" lon="10.1617550">
	<ele>1893.40</ele>
	<time>2024-09-06T08:43:38.000Z</time>
</trkpt>
<trkpt lat="46.1319680" lon="10.1617550">
	<ele>1893.40</ele>
	<time>2024-09-06T08:43:39.000Z</time>
</trkpt>
<trkpt lat="46.1319680" lon="10.1617540">
	<ele>1893.40</ele>
	<time>2024-09-06T08:43:40.000Z</time>
</trkpt>
<trkpt lat="46.1319670" lon="10.1617530">
	<ele>1893.40</ele>
	<time>2024-09-06T08:43:41.000Z</time>
</trkpt>
<trkpt lat="46.1319670" lon="10.1617530">
	<ele>1893.40</ele>
	<time>2024-09-06T08:43:42.000Z</time>
</trkpt>
<trkpt lat="46.1319670" lon="10.1617530">
	<ele>1893.40</ele>
	<time>2024-09-06T08:43:43.000Z</time>
</trkpt>
<trkpt lat="46.1319670" lon="10.1617530">
	<ele>1893.40</ele>
	<time>2024-09-06T08:43:44.000Z</time>
</trkpt>
<trkpt lat="46.1319670" lon="10.1617530">
	<ele>1893.40</ele>
	<time>2024-09-06T08:43:45.000Z</time>
</trkpt>
<trkpt lat="46.1319670" lon="10.1617530">
	<ele>1893.40</ele>
	<time>2024-09-06T08:43:46.000Z</time>
</trkpt>
<trkpt lat="46.1319670" lon="10.1617520">
	<ele>1893.40</ele>
	<time>2024-09-06T08:43:47.000Z</time>
</trkpt>
<trkpt lat="46.1319660" lon="10.1617490">
	<ele>1893.40</ele>
	<time>2024-09-06T08:43:48.000Z</time>
</trkpt>
<trkpt lat="46.1319660" lon="10.1617480">
	<ele>1893.40</ele>
	<time>2024-09-06T08:43:49.000Z</time>
</trkpt>
<trkpt lat="46.1319660" lon="10.1617460">
	<ele>1893.40</ele>
	<time>2024-09-06T08:43:50.000Z</time>
</trkpt>
<trkpt lat="46.1319660" lon="10.1617450">
	<ele>1893.40</ele>
	<time>2024-09-06T08:43:51.000Z</time>
</trkpt>
<trkpt lat="46.1319660" lon="10.1617430">
	<ele>1893.40</ele>
	<time>2024-09-06T08:43:52.000Z</time>
</trkpt>
<trkpt lat="46.1319650" lon="10.1617430">
	<ele>1893.40</ele>
	<time>2024-09-06T08:43:53.000Z</time>
</trkpt>
<trkpt lat="46.1319650" lon="10.1617420">
	<ele>1893.40</ele>
	<time>2024-09-06T08:43:54.000Z</time>
</trkpt>
<trkpt lat="46.1319640" lon="10.1617350">
	<ele>1893.40</ele>
	<time>2024-09-06T08:43:55.000Z</time>
</trkpt>
<trkpt lat="46.1319580" lon="10.1617110">
	<ele>1893.40</ele>
	<time>2024-09-06T08:43:56.000Z</time>
</trkpt>
<trkpt lat="46.1319530" lon="10.1616860">
	<ele>1893.40</ele>
	<time>2024-09-06T08:43:57.000Z</time>
</trkpt>
<trkpt lat="46.1319550" lon="10.1616680">
	<ele>1893.40</ele>
	<time>2024-09-06T08:43:58.000Z</time>
</trkpt>
<trkpt lat="46.1319610" lon="10.1616530">
	<ele>1893.40</ele>
	<time>2024-09-06T08:43:59.000Z</time>
</trkpt>
<trkpt lat="46.1319640" lon="10.1616340">
	<ele>1893.40</ele>
	<time>2024-09-06T08:44:00.000Z</time>
</trkpt>
<trkpt lat="46.1319690" lon="10.1616190">
	<ele>1893.40</ele>
	<time>2024-09-06T08:44:01.000Z</time>
</trkpt>
<trkpt lat="46.1319740" lon="10.1616010">
	<ele>1893.40</ele>
	<time>2024-09-06T08:44:02.000Z</time>
</trkpt>
<trkpt lat="46.1319760" lon="10.1615870">
	<ele>1893.40</ele>
	<time>2024-09-06T08:44:03.000Z</time>
</trkpt>
<trkpt lat="46.1319790" lon="10.1615650">
	<ele>1893.40</ele>
	<time>2024-09-06T08:44:04.000Z</time>
</trkpt>
<trkpt lat="46.1319800" lon="10.1615450">
	<ele>1893.40</ele>
	<time>2024-09-06T08:44:05.000Z</time>
</trkpt>
<trkpt lat="46.1319800" lon="10.1615310">
	<ele>1893.40</ele>
	<time>2024-09-06T08:44:06.000Z</time>
</trkpt>
<trkpt lat="46.1319790" lon="10.1615150">
	<ele>1893.40</ele>
	<time>2024-09-06T08:44:07.000Z</time>
</trkpt>
<trkpt lat="46.1319790" lon="10.1615020">
	<ele>1893.40</ele>
	<time>2024-09-06T08:44:08.000Z</time>
</trkpt>
<trkpt lat="46.1319820" lon="10.1614910">
	<ele>1893.40</ele>
	<time>2024-09-06T08:44:09.000Z</time>
</trkpt>
<trkpt lat="46.1319840" lon="10.1614810">
	<ele>1893.40</ele>
	<time>2024-09-06T08:44:10.000Z</time>
</trkpt>
<trkpt lat="46.1319870" lon="10.1614730">
	<ele>1893.40</ele>
	<time>2024-09-06T08:44:11.000Z</time>
</trkpt>
<trkpt lat="46.1319870" lon="10.1614660">
	<ele>1893.40</ele>
	<time>2024-09-06T08:44:12.000Z</time>
</trkpt>
<trkpt lat="46.1319870" lon="10.1614630">
	<ele>1893.60</ele>
	<time>2024-09-06T08:44:13.000Z</time>
</trkpt>
<trkpt lat="46.1319850" lon="10.1614610">
	<ele>1893.60</ele>
	<time>2024-09-06T08:44:14.000Z</time>
</trkpt>
<trkpt lat="46.1319830" lon="10.1614600">
	<ele>1893.80</ele>
	<time>2024-09-06T08:44:15.000Z</time>
</trkpt>
<trkpt lat="46.1319810" lon="10.1614590">
	<ele>1893.80</ele>
	<time>2024-09-06T08:44:16.000Z</time>
</trkpt>
<trkpt lat="46.1319780" lon="10.1614610">
	<ele>1893.80</ele>
	<time>2024-09-06T08:44:17.000Z</time>
</trkpt>
<trkpt lat="46.1319760" lon="10.1614700">
	<ele>1893.80</ele>
	<time>2024-09-06T08:44:18.000Z</time>
</trkpt>
<trkpt lat="46.1319760" lon="10.1614830">
	<ele>1893.80</ele>
	<time>2024-09-06T08:44:19.000Z</time>
</trkpt>
<trkpt lat="46.1319770" lon="10.1615010">
	<ele>1893.80</ele>
	<time>2024-09-06T08:44:20.000Z</time>
</trkpt>
<trkpt lat="46.1319770" lon="10.1615150">
	<ele>1893.80</ele>
	<time>2024-09-06T08:44:21.000Z</time>
</trkpt>
<trkpt lat="46.1319780" lon="10.1615340">
	<ele>1893.60</ele>
	<time>2024-09-06T08:44:22.000Z</time>
</trkpt>
<trkpt lat="46.1319800" lon="10.1615530">
	<ele>1893.60</ele>
	<time>2024-09-06T08:44:23.000Z</time>
</trkpt>
<trkpt lat="46.1319880" lon="10.1615680">
	<ele>1893.60</ele>
	<time>2024-09-06T08:44:24.000Z</time>
</trkpt>
<trkpt lat="46.1319980" lon="10.1615810">
	<ele>1893.60</ele>
	<time>2024-09-06T08:44:25.000Z</time>
</trkpt>
<trkpt lat="46.1320050" lon="10.1615930">
	<ele>1893.60</ele>
	<time>2024-09-06T08:44:26.000Z</time>
</trkpt>
<trkpt lat="46.1320120" lon="10.1616010">
	<ele>1893.40</ele>
	<time>2024-09-06T08:44:27.000Z</time>
</trkpt>
<trkpt lat="46.1320150" lon="10.1616200">
	<ele>1893.20</ele>
	<time>2024-09-06T08:44:28.000Z</time>
</trkpt>
<trkpt lat="46.1320190" lon="10.1616380">
	<ele>1893.20</ele>
	<time>2024-09-06T08:44:29.000Z</time>
</trkpt>
<trkpt lat="46.1320230" lon="10.1616450">
	<ele>1893.00</ele>
	<time>2024-09-06T08:44:30.000Z</time>
</trkpt>
<trkpt lat="46.1320270" lon="10.1616550">
	<ele>1893.00</ele>
	<time>2024-09-06T08:44:31.000Z</time>
</trkpt>
<trkpt lat="46.1320330" lon="10.1616660">
	<ele>1893.00</ele>
	<time>2024-09-06T08:44:32.000Z</time>
</trkpt>
<trkpt lat="46.1320360" lon="10.1616700">
	<ele>1893.20</ele>
	<time>2024-09-06T08:44:33.000Z</time>
</trkpt>
<trkpt lat="46.1320360" lon="10.1616750">
	<ele>1893.20</ele>
	<time>2024-09-06T08:44:34.000Z</time>
</trkpt>
<trkpt lat="46.1320360" lon="10.1616750">
	<ele>1893.20</ele>
	<time>2024-09-06T08:44:35.000Z</time>
</trkpt>
<trkpt lat="46.1320340" lon="10.1616740">
	<ele>1893.20</ele>
	<time>2024-09-06T08:44:36.000Z</time>
</trkpt>
<trkpt lat="46.1320320" lon="10.1616740">
	<ele>1893.20</ele>
	<time>2024-09-06T08:44:37.000Z</time>
</trkpt>
<trkpt lat="46.1320290" lon="10.1616730">
	<ele>1893.40</ele>
	<time>2024-09-06T08:44:38.000Z</time>
</trkpt>
<trkpt lat="46.1320280" lon="10.1616720">
	<ele>1893.40</ele>
	<time>2024-09-06T08:44:39.000Z</time>
</trkpt>
<trkpt lat="46.1320280" lon="10.1616700">
	<ele>1893.40</ele>
	<time>2024-09-06T08:44:40.000Z</time>
</trkpt>
<trkpt lat="46.1320290" lon="10.1616680">
	<ele>1893.40</ele>
	<time>2024-09-06T08:44:41.000Z</time>
</trkpt>
<trkpt lat="46.1320250" lon="10.1616710">
	<ele>1893.40</ele>
	<time>2024-09-06T08:44:42.000Z</time>
</trkpt>
<trkpt lat="46.1320230" lon="10.1616820">
	<ele>1893.40</ele>
	<time>2024-09-06T08:44:43.000Z</time>
</trkpt>
<trkpt lat="46.1320240" lon="10.1616970">
	<ele>1893.40</ele>
	<time>2024-09-06T08:44:44.000Z</time>
</trkpt>
<trkpt lat="46.1320210" lon="10.1617150">
	<ele>1893.20</ele>
	<time>2024-09-06T08:44:45.000Z</time>
</trkpt>
<trkpt lat="46.1320160" lon="10.1617270">
	<ele>1893.20</ele>
	<time>2024-09-06T08:44:46.000Z</time>
</trkpt>
<trkpt lat="46.1320100" lon="10.1617340">
	<ele>1893.20</ele>
	<time>2024-09-06T08:44:47.000Z</time>
</trkpt>
<trkpt lat="46.1320040" lon="10.1617320">
	<ele>1893.20</ele>
	<time>2024-09-06T08:44:48.000Z</time>
</trkpt>
<trkpt lat="46.1320010" lon="10.1617340">
	<ele>1893.40</ele>
	<time>2024-09-06T08:44:49.000Z</time>
</trkpt>
<trkpt lat="46.1319950" lon="10.1617400">
	<ele>1893.40</ele>
	<time>2024-09-06T08:44:50.000Z</time>
</trkpt>
<trkpt lat="46.1319910" lon="10.1617430">
	<ele>1893.40</ele>
	<time>2024-09-06T08:44:51.000Z</time>
</trkpt>
<trkpt lat="46.1319890" lon="10.1617560">
	<ele>1893.20</ele>
	<time>2024-09-06T08:44:52.000Z</time>
</trkpt>
<trkpt lat="46.1319940" lon="10.1617660">
	<ele>1893.40</ele>
	<time>2024-09-06T08:44:53.000Z</time>
</trkpt>
<trkpt lat="46.1319920" lon="10.1617770">
	<ele>1893.40</ele>
	<time>2024-09-06T08:44:54.000Z</time>
</trkpt>
<trkpt lat="46.1319910" lon="10.1617900">
	<ele>1893.40</ele>
	<time>2024-09-06T08:44:55.000Z</time>
</trkpt>
<trkpt lat="46.1319880" lon="10.1618040">
	<ele>1893.40</ele>
	<time>2024-09-06T08:44:56.000Z</time>
</trkpt>
<trkpt lat="46.1319860" lon="10.1618200">
	<ele>1893.40</ele>
	<time>2024-09-06T08:44:57.000Z</time>
</trkpt>
<trkpt lat="46.1319890" lon="10.1618360">
	<ele>1893.40</ele>
	<time>2024-09-06T08:44:58.000Z</time>
</trkpt>
<trkpt lat="46.1319910" lon="10.1618530">
	<ele>1893.40</ele>
	<time>2024-09-06T08:44:59.000Z</time>
</trkpt>
<trkpt lat="46.1319920" lon="10.1618750">
	<ele>1893.60</ele>
	<time>2024-09-06T08:45:00.000Z</time>
</trkpt>
<trkpt lat="46.1319910" lon="10.1618980">
	<ele>1893.60</ele>
	<time>2024-09-06T08:45:01.000Z</time>
</trkpt>
<trkpt lat="46.1319900" lon="10.1619190">
	<ele>1893.60</ele>
	<time>2024-09-06T08:45:02.000Z</time>
</trkpt>
<trkpt lat="46.1319930" lon="10.1619390">
	<ele>1893.60</ele>
	<time>2024-09-06T08:45:03.000Z</time>
</trkpt>
<trkpt lat="46.1319990" lon="10.1619540">
	<ele>1893.60</ele>
	<time>2024-09-06T08:45:04.000Z</time>
</trkpt>
<trkpt lat="46.1320030" lon="10.1619700">
	<ele>1893.60</ele>
	<time>2024-09-06T08:45:05.000Z</time>
</trkpt>
<trkpt lat="46.1320110" lon="10.1619750">
	<ele>1893.60</ele>
	<time>2024-09-06T08:45:06.000Z</time>
</trkpt>
<trkpt lat="46.1320190" lon="10.1619750">
	<ele>1893.60</ele>
	<time>2024-09-06T08:45:07.000Z</time>
</trkpt>
<trkpt lat="46.1320260" lon="10.1619770">
	<ele>1893.60</ele>
	<time>2024-09-06T08:45:08.000Z</time>
</trkpt>
<trkpt lat="46.1320300" lon="10.1619780">
	<ele>1893.60</ele>
	<time>2024-09-06T08:45:09.000Z</time>
</trkpt>
<trkpt lat="46.1320270" lon="10.1619790">
	<ele>1893.60</ele>
	<time>2024-09-06T08:45:10.000Z</time>
</trkpt>
<trkpt lat="46.1320220" lon="10.1619790">
	<ele>1893.40</ele>
	<time>2024-09-06T08:45:11.000Z</time>
</trkpt>
<trkpt lat="46.1320170" lon="10.1619780">
	<ele>1893.40</ele>
	<time>2024-09-06T08:45:12.000Z</time>
</trkpt>
<trkpt lat="46.1320130" lon="10.1619770">
	<ele>1893.40</ele>
	<time>2024-09-06T08:45:13.000Z</time>
</trkpt>
<trkpt lat="46.1320120" lon="10.1619810">
	<ele>1893.40</ele>
	<time>2024-09-06T08:45:14.000Z</time>
</trkpt>
<trkpt lat="46.1320210" lon="10.1619620">
	<ele>1893.40</ele>
	<time>2024-09-06T08:45:15.000Z</time>
</trkpt>
<trkpt lat="46.1320220" lon="10.1619530">
	<ele>1893.40</ele>
	<time>2024-09-06T08:45:16.000Z</time>
</trkpt>
<trkpt lat="46.1320310" lon="10.1619310">
	<ele>1893.40</ele>
	<time>2024-09-06T08:45:17.000Z</time>
</trkpt>
<trkpt lat="46.1320330" lon="10.1619190">
	<ele>1893.40</ele>
	<time>2024-09-06T08:45:18.000Z</time>
</trkpt>
<trkpt lat="46.1320340" lon="10.1619080">
	<ele>1893.40</ele>
	<time>2024-09-06T08:45:19.000Z</time>
</trkpt>
<trkpt lat="46.1320330" lon="10.1618980">
	<ele>1893.40</ele>
	<time>2024-09-06T08:45:20.000Z</time>
</trkpt>
<trkpt lat="46.1320290" lon="10.1618890">
	<ele>1893.40</ele>
	<time>2024-09-06T08:45:21.000Z</time>
</trkpt>
<trkpt lat="46.1320270" lon="10.1618780">
	<ele>1893.40</ele>
	<time>2024-09-06T08:45:22.000Z</time>
</trkpt>
<trkpt lat="46.1320290" lon="10.1618610">
	<ele>1893.60</ele>
	<time>2024-09-06T08:45:23.000Z</time>
</trkpt>
<trkpt lat="46.1320280" lon="10.1618490">
	<ele>1893.60</ele>
	<time>2024-09-06T08:45:24.000Z</time>
</trkpt>
<trkpt lat="46.1320270" lon="10.1618360">
	<ele>1893.60</ele>
	<time>2024-09-06T08:45:25.000Z</time>
</trkpt>
<trkpt lat="46.1320250" lon="10.1618310">
	<ele>1893.60</ele>
	<time>2024-09-06T08:45:26.000Z</time>
</trkpt>
<trkpt lat="46.1320240" lon="10.1618240">
	<ele>1893.60</ele>
	<time>2024-09-06T08:45:27.000Z</time>
</trkpt>
<trkpt lat="46.1320250" lon="10.1618220">
	<ele>1893.60</ele>
	<time>2024-09-06T08:45:28.000Z</time>
</trkpt>
<trkpt lat="46.1320260" lon="10.1618220">
	<ele>1893.60</ele>
	<time>2024-09-06T08:45:29.000Z</time>
</trkpt>
<trkpt lat="46.1320230" lon="10.1618200">
	<ele>1893.40</ele>
	<time>2024-09-06T08:45:30.000Z</time>
</trkpt>
<trkpt lat="46.1320140" lon="10.1618100">
	<ele>1893.40</ele>
	<time>2024-09-06T08:45:31.000Z</time>
</trkpt>
<trkpt lat="46.1320020" lon="10.1617960">
	<ele>1893.40</ele>
	<time>2024-09-06T08:45:32.000Z</time>
</trkpt>
<trkpt lat="46.1319820" lon="10.1617670">
	<ele>1893.40</ele>
	<time>2024-09-06T08:45:33.000Z</time>
</trkpt>
<trkpt lat="46.1319630" lon="10.1617520">
	<ele>1893.40</ele>
	<time>2024-09-06T08:45:34.000Z</time>
</trkpt>
<trkpt lat="46.1319600" lon="10.1617630">
	<ele>1893.40</ele>
	<time>2024-09-06T08:45:35.000Z</time>
</trkpt>
<trkpt lat="46.1319580" lon="10.1617640">
	<ele>1893.40</ele>
	<time>2024-09-06T08:45:36.000Z</time>
</trkpt>
<trkpt lat="46.1319350" lon="10.1618040">
	<ele>1893.60</ele>
	<time>2024-09-06T08:45:37.000Z</time>
</trkpt>
<trkpt lat="46.1319210" lon="10.1618320">
	<ele>1893.60</ele>
	<time>2024-09-06T08:45:38.000Z</time>
</trkpt>
<trkpt lat="46.1319170" lon="10.1618320">
	<ele>1893.60</ele>
	<time>2024-09-06T08:45:39.000Z</time>
</trkpt>
<trkpt lat="46.1319140" lon="10.1618390">
	<ele>1893.60</ele>
	<time>2024-09-06T08:45:40.000Z</time>
</trkpt>
<trkpt lat="46.1319170" lon="10.1618430">
	<ele>1893.40</ele>
	<time>2024-09-06T08:45:41.000Z</time>
</trkpt>
<trkpt lat="46.1319150" lon="10.1618410">
	<ele>1893.40</ele>
	<time>2024-09-06T08:45:42.000Z</time>
</trkpt>
<trkpt lat="46.1319140" lon="10.1618390">
	<ele>1893.40</ele>
	<time>2024-09-06T08:45:43.000Z</time>
</trkpt>
<trkpt lat="46.1319230" lon="10.1618270">
	<ele>1893.20</ele>
	<time>2024-09-06T08:45:44.000Z</time>
</trkpt>
<trkpt lat="46.1319320" lon="10.1618250">
	<ele>1893.20</ele>
	<time>2024-09-06T08:45:45.000Z</time>
</trkpt>
<trkpt lat="46.1319300" lon="10.1618220">
	<ele>1893.20</ele>
	<time>2024-09-06T08:45:46.000Z</time>
</trkpt>
<trkpt lat="46.1319260" lon="10.1618290">
	<ele>1893.20</ele>
	<time>2024-09-06T08:45:47.000Z</time>
</trkpt>
<trkpt lat="46.1319270" lon="10.1618380">
	<ele>1893.40</ele>
	<time>2024-09-06T08:45:48.000Z</time>
</trkpt>
<trkpt lat="46.1319310" lon="10.1618490">
	<ele>1893.40</ele>
	<time>2024-09-06T08:45:49.000Z</time>
</trkpt>
<trkpt lat="46.1319320" lon="10.1618580">
	<ele>1893.60</ele>
	<time>2024-09-06T08:45:50.000Z</time>
</trkpt>
<trkpt lat="46.1319320" lon="10.1618600">
	<ele>1893.60</ele>
	<time>2024-09-06T08:45:51.000Z</time>
</trkpt>
<trkpt lat="46.1319320" lon="10.1618600">
	<ele>1893.60</ele>
	<time>2024-09-06T08:45:52.000Z</time>
</trkpt>
<trkpt lat="46.1319320" lon="10.1618600">
	<ele>1893.60</ele>
	<time>2024-09-06T08:45:53.000Z</time>
</trkpt>
<trkpt lat="46.1319320" lon="10.1618600">
	<ele>1893.60</ele>
	<time>2024-09-06T08:45:54.000Z</time>
</trkpt>
<trkpt lat="46.1319320" lon="10.1618600">
	<ele>1893.60</ele>
	<time>2024-09-06T08:45:55.000Z</time>
</trkpt>
<trkpt lat="46.1319320" lon="10.1618600">
	<ele>1893.20</ele>
	<time>2024-09-06T08:45:56.000Z</time>
</trkpt>
<trkpt lat="46.1319320" lon="10.1618600">
	<ele>1893.20</ele>
	<time>2024-09-06T08:45:57.000Z</time>
</trkpt>
<trkpt lat="46.1319320" lon="10.1618600">
	<ele>1893.20</ele>
	<time>2024-09-06T08:45:58.000Z</time>
</trkpt>
<trkpt lat="46.1319360" lon="10.1618650">
	<ele>1893.20</ele>
	<time>2024-09-06T08:45:59.000Z</time>
</trkpt>
<trkpt lat="46.1319390" lon="10.1618840">
	<ele>1893.20</ele>
	<time>2024-09-06T08:46:00.000Z</time>
</trkpt>
<trkpt lat="46.1319440" lon="10.1619070">
	<ele>1893.20</ele>
	<time>2024-09-06T08:46:01.000Z</time>
</trkpt>
<trkpt lat="46.1319460" lon="10.1619390">
	<ele>1893.20</ele>
	<time>2024-09-06T08:46:02.000Z</time>
</trkpt>
<trkpt lat="46.1319510" lon="10.1619640">
	<ele>1893.20</ele>
	<time>2024-09-06T08:46:03.000Z</time>
</trkpt>
<trkpt lat="46.1319580" lon="10.1619890">
	<ele>1893.20</ele>
	<time>2024-09-06T08:46:04.000Z</time>
</trkpt>
<trkpt lat="46.1319700" lon="10.1620120">
	<ele>1893.20</ele>
	<time>2024-09-06T08:46:05.000Z</time>
</trkpt>
<trkpt lat="46.1319790" lon="10.1620330">
	<ele>1893.20</ele>
	<time>2024-09-06T08:46:06.000Z</time>
</trkpt>
<trkpt lat="46.1319880" lon="10.1620450">
	<ele>1893.20</ele>
	<time>2024-09-06T08:46:07.000Z</time>
</trkpt>
<trkpt lat="46.1319930" lon="10.1620560">
	<ele>1893.20</ele>
	<time>2024-09-06T08:46:08.000Z</time>
</trkpt>
<trkpt lat="46.1319930" lon="10.1620570">
	<ele>1893.20</ele>
	<time>2024-09-06T08:46:09.000Z</time>
</trkpt>
<trkpt lat="46.1319940" lon="10.1620560">
	<ele>1893.20</ele>
	<time>2024-09-06T08:46:10.000Z</time>
</trkpt>
<trkpt lat="46.1319950" lon="10.1620550">
	<ele>1893.20</ele>
	<time>2024-09-06T08:46:11.000Z</time>
</trkpt>
<trkpt lat="46.1319970" lon="10.1620520">
	<ele>1893.20</ele>
	<time>2024-09-06T08:46:12.000Z</time>
</trkpt>
<trkpt lat="46.1319980" lon="10.1620500">
	<ele>1893.20</ele>
	<time>2024-09-06T08:46:13.000Z</time>
</trkpt>
<trkpt lat="46.1320050" lon="10.1620490">
	<ele>1893.00</ele>
	<time>2024-09-06T08:46:14.000Z</time>
</trkpt>
<trkpt lat="46.1320110" lon="10.1620400">
	<ele>1893.00</ele>
	<time>2024-09-06T08:46:15.000Z</time>
</trkpt>
<trkpt lat="46.1320120" lon="10.1620450">
	<ele>1892.80</ele>
	<time>2024-09-06T08:46:16.000Z</time>
</trkpt>
<trkpt lat="46.1320130" lon="10.1620460">
	<ele>1892.60</ele>
	<time>2024-09-06T08:46:17.000Z</time>
</trkpt>
<trkpt lat="46.1320150" lon="10.1620490">
	<ele>1892.60</ele>
	<time>2024-09-06T08:46:18.000Z</time>
</trkpt>
<trkpt lat="46.1320160" lon="10.1620520">
	<ele>1892.60</ele>
	<time>2024-09-06T08:46:19.000Z</time>
</trkpt>
<trkpt lat="46.1320170" lon="10.1620530">
	<ele>1892.40</ele>
	<time>2024-09-06T08:46:20.000Z</time>
</trkpt>
<trkpt lat="46.1320170" lon="10.1620530">
	<ele>1892.40</ele>
	<time>2024-09-06T08:46:21.000Z</time>
</trkpt>
<trkpt lat="46.1320170" lon="10.1620530">
	<ele>1892.40</ele>
	<time>2024-09-06T08:46:22.000Z</time>
</trkpt>
<trkpt lat="46.1320170" lon="10.1620530">
	<ele>1892.40</ele>
	<time>2024-09-06T08:46:23.000Z</time>
</trkpt>
<trkpt lat="46.1320170" lon="10.1620530">
	<ele>1892.40</ele>
	<time>2024-09-06T08:46:24.000Z</time>
</trkpt>
<trkpt lat="46.1320170" lon="10.1620530">
	<ele>1892.20</ele>
	<time>2024-09-06T08:46:25.000Z</time>
</trkpt>
<trkpt lat="46.1320170" lon="10.1620530">
	<ele>1892.20</ele>
	<time>2024-09-06T08:46:26.000Z</time>
</trkpt>
<trkpt lat="46.1320170" lon="10.1620530">
	<ele>1892.20</ele>
	<time>2024-09-06T08:46:27.000Z</time>
</trkpt>
<trkpt lat="46.1320170" lon="10.1620530">
	<ele>1892.20</ele>
	<time>2024-09-06T08:46:28.000Z</time>
</trkpt>
<trkpt lat="46.1320170" lon="10.1620530">
	<ele>1892.20</ele>
	<time>2024-09-06T08:46:29.000Z</time>
</trkpt>
<trkpt lat="46.1320170" lon="10.1620530">
	<ele>1892.20</ele>
	<time>2024-09-06T08:46:30.000Z</time>
</trkpt>
<trkpt lat="46.1320170" lon="10.1620530">
	<ele>1892.20</ele>
	<time>2024-09-06T08:46:31.000Z</time>
</trkpt>
<trkpt lat="46.1320170" lon="10.1620530">
	<ele>1892.20</ele>
	<time>2024-09-06T08:46:32.000Z</time>
</trkpt>
<trkpt lat="46.1320170" lon="10.1620530">
	<ele>1892.20</ele>
	<time>2024-09-06T08:46:33.000Z</time>
</trkpt>
<trkpt lat="46.1320170" lon="10.1620530">
	<ele>1892.20</ele>
	<time>2024-09-06T08:46:34.000Z</time>
</trkpt>
<trkpt lat="46.1320170" lon="10.1620530">
	<ele>1892.20</ele>
	<time>2024-09-06T08:46:35.000Z</time>
</trkpt>
<trkpt lat="46.1320170" lon="10.1620540">
	<ele>1892.00</ele>
	<time>2024-09-06T08:46:36.000Z</time>
</trkpt>
<trkpt lat="46.1320170" lon="10.1620560">
	<ele>1892.00</ele>
	<time>2024-09-06T08:46:37.000Z</time>
</trkpt>
<trkpt lat="46.1320170" lon="10.1620590">
	<ele>1892.00</ele>
	<time>2024-09-06T08:46:38.000Z</time>
</trkpt>
<trkpt lat="46.1320170" lon="10.1620600">
	<ele>1892.00</ele>
	<time>2024-09-06T08:46:39.000Z</time>
</trkpt>
<trkpt lat="46.1320170" lon="10.1620630">
	<ele>1892.00</ele>
	<time>2024-09-06T08:46:40.000Z</time>
</trkpt>
<trkpt lat="46.1320220" lon="10.1620670">
	<ele>1892.00</ele>
	<time>2024-09-06T08:46:41.000Z</time>
</trkpt>
<trkpt lat="46.1320430" lon="10.1620660">
	<ele>1891.80</ele>
	<time>2024-09-06T08:46:42.000Z</time>
</trkpt>
<trkpt lat="46.1320670" lon="10.1620700">
	<ele>1891.60</ele>
	<time>2024-09-06T08:46:43.000Z</time>
</trkpt>
<trkpt lat="46.1320910" lon="10.1620700">
	<ele>1891.60</ele>
	<time>2024-09-06T08:46:44.000Z</time>
</trkpt>
<trkpt lat="46.1321130" lon="10.1620640">
	<ele>1891.40</ele>
	<time>2024-09-06T08:46:45.000Z</time>
</trkpt>
<trkpt lat="46.1321320" lon="10.1620570">
	<ele>1891.40</ele>
	<time>2024-09-06T08:46:46.000Z</time>
</trkpt>
<trkpt lat="46.1321500" lon="10.1620530">
	<ele>1891.40</ele>
	<time>2024-09-06T08:46:47.000Z</time>
</trkpt>
<trkpt lat="46.1321660" lon="10.1620390">
	<ele>1891.20</ele>
	<time>2024-09-06T08:46:48.000Z</time>
</trkpt>
<trkpt lat="46.1321800" lon="10.1620280">
	<ele>1890.80</ele>
	<time>2024-09-06T08:46:49.000Z</time>
</trkpt>
<trkpt lat="46.1321930" lon="10.1620180">
	<ele>1890.40</ele>
	<time>2024-09-06T08:46:50.000Z</time>
</trkpt>
<trkpt lat="46.1321930" lon="10.1620020">
	<ele>1890.20</ele>
	<time>2024-09-06T08:46:51.000Z</time>
</trkpt>
<trkpt lat="46.1321960" lon="10.1619880">
	<ele>1890.00</ele>
	<time>2024-09-06T08:46:52.000Z</time>
</trkpt>
<trkpt lat="46.1322010" lon="10.1619730">
	<ele>1889.80</ele>
	<time>2024-09-06T08:46:53.000Z</time>
</trkpt>
<trkpt lat="46.1322070" lon="10.1619570">
	<ele>1889.60</ele>
	<time>2024-09-06T08:46:54.000Z</time>
</trkpt>
<trkpt lat="46.1322160" lon="10.1619450">
	<ele>1889.60</ele>
	<time>2024-09-06T08:46:55.000Z</time>
</trkpt>
<trkpt lat="46.1322210" lon="10.1619330">
	<ele>1889.40</ele>
	<time>2024-09-06T08:46:56.000Z</time>
</trkpt>
<trkpt lat="46.1322220" lon="10.1619220">
	<ele>1889.20</ele>
	<time>2024-09-06T08:46:57.000Z</time>
</trkpt>
<trkpt lat="46.1322230" lon="10.1619180">
	<ele>1889.20</ele>
	<time>2024-09-06T08:46:58.000Z</time>
</trkpt>
<trkpt lat="46.1322270" lon="10.1619240">
	<ele>1889.00</ele>
	<time>2024-09-06T08:46:59.000Z</time>
</trkpt>
<trkpt lat="46.1322330" lon="10.1619330">
	<ele>1889.00</ele>
	<time>2024-09-06T08:47:00.000Z</time>
</trkpt>
<trkpt lat="46.1322440" lon="10.1619440">
	<ele>1888.80</ele>
	<time>2024-09-06T08:47:01.000Z</time>
</trkpt>
<trkpt lat="46.1322530" lon="10.1619540">
	<ele>1888.60</ele>
	<time>2024-09-06T08:47:02.000Z</time>
</trkpt>
<trkpt lat="46.1322590" lon="10.1619630">
	<ele>1888.40</ele>
	<time>2024-09-06T08:47:03.000Z</time>
</trkpt>
<trkpt lat="46.1322620" lon="10.1619760">
	<ele>1888.40</ele>
	<time>2024-09-06T08:47:04.000Z</time>
</trkpt>
<trkpt lat="46.1322600" lon="10.1619900">
	<ele>1888.00</ele>
	<time>2024-09-06T08:47:05.000Z</time>
</trkpt>
<trkpt lat="46.1322600" lon="10.1620060">
	<ele>1887.80</ele>
	<time>2024-09-06T08:47:06.000Z</time>
</trkpt>
<trkpt lat="46.1322670" lon="10.1620250">
	<ele>1887.60</ele>
	<time>2024-09-06T08:47:07.000Z</time>
</trkpt>
<trkpt lat="46.1322710" lon="10.1620390">
	<ele>1887.60</ele>
	<time>2024-09-06T08:47:08.000Z</time>
</trkpt>
<trkpt lat="46.1322740" lon="10.1620530">
	<ele>1887.40</ele>
	<time>2024-09-06T08:47:09.000Z</time>
</trkpt>
<trkpt lat="46.1322760" lon="10.1620640">
	<ele>1887.20</ele>
	<time>2024-09-06T08:47:10.000Z</time>
</trkpt>
<trkpt lat="46.1322810" lon="10.1620740">
	<ele>1887.00</ele>
	<time>2024-09-06T08:47:11.000Z</time>
</trkpt>
<trkpt lat="46.1322820" lon="10.1620820">
	<ele>1886.80</ele>
	<time>2024-09-06T08:47:12.000Z</time>
</trkpt>
<trkpt lat="46.1322770" lon="10.1620910">
	<ele>1886.40</ele>
	<time>2024-09-06T08:47:13.000Z</time>
</trkpt>
<trkpt lat="46.1322750" lon="10.1621020">
	<ele>1886.40</ele>
	<time>2024-09-06T08:47:14.000Z</time>
</trkpt>
<trkpt lat="46.1322710" lon="10.1621140">
	<ele>1886.20</ele>
	<time>2024-09-06T08:47:15.000Z</time>
</trkpt>
<trkpt lat="46.1322720" lon="10.1621300">
	<ele>1886.00</ele>
	<time>2024-09-06T08:47:16.000Z</time>
</trkpt>
<trkpt lat="46.1322750" lon="10.1621430">
	<ele>1885.80</ele>
	<time>2024-09-06T08:47:17.000Z</time>
</trkpt>
<trkpt lat="46.1322780" lon="10.1621540">
	<ele>1885.60</ele>
	<time>2024-09-06T08:47:18.000Z</time>
</trkpt>
<trkpt lat="46.1322830" lon="10.1621660">
	<ele>1885.20</ele>
	<time>2024-09-06T08:47:19.000Z</time>
</trkpt>
<trkpt lat="46.1322870" lon="10.1621770">
	<ele>1884.80</ele>
	<time>2024-09-06T08:47:20.000Z</time>
</trkpt>
<trkpt lat="46.1322880" lon="10.1621860">
	<ele>1884.60</ele>
	<time>2024-09-06T08:47:21.000Z</time>
</trkpt>
<trkpt lat="46.1322900" lon="10.1621950">
	<ele>1884.60</ele>
	<time>2024-09-06T08:47:22.000Z</time>
</trkpt>
<trkpt lat="46.1322870" lon="10.1622000">
	<ele>1884.00</ele>
	<time>2024-09-06T08:47:23.000Z</time>
</trkpt>
<trkpt lat="46.1322860" lon="10.1622070">
	<ele>1883.80</ele>
	<time>2024-09-06T08:47:24.000Z</time>
</trkpt>
<trkpt lat="46.1322860" lon="10.1622160">
	<ele>1883.60</ele>
	<time>2024-09-06T08:47:25.000Z</time>
</trkpt>
<trkpt lat="46.1322870" lon="10.1622250">
	<ele>1883.40</ele>
	<time>2024-09-06T08:47:26.000Z</time>
</trkpt>
<trkpt lat="46.1322890" lon="10.1622330">
	<ele>1883.20</ele>
	<time>2024-09-06T08:47:27.000Z</time>
</trkpt>
<trkpt lat="46.1322910" lon="10.1622430">
	<ele>1883.00</ele>
	<time>2024-09-06T08:47:28.000Z</time>
</trkpt>
<trkpt lat="46.1322940" lon="10.1622540">
	<ele>1882.60</ele>
	<time>2024-09-06T08:47:29.000Z</time>
</trkpt>
<trkpt lat="46.1322950" lon="10.1622630">
	<ele>1882.40</ele>
	<time>2024-09-06T08:47:30.000Z</time>
</trkpt>
<trkpt lat="46.1322970" lon="10.1622700">
	<ele>1882.40</ele>
	<time>2024-09-06T08:47:31.000Z</time>
</trkpt>
<trkpt lat="46.1322970" lon="10.1622760">
	<ele>1882.00</ele>
	<time>2024-09-06T08:47:32.000Z</time>
</trkpt>
<trkpt lat="46.1322980" lon="10.1622870">
	<ele>1881.80</ele>
	<time>2024-09-06T08:47:33.000Z</time>
</trkpt>
<trkpt lat="46.1323010" lon="10.1622990">
	<ele>1881.40</ele>
	<time>2024-09-06T08:47:34.000Z</time>
</trkpt>
<trkpt lat="46.1323040" lon="10.1623100">
	<ele>1881.20</ele>
	<time>2024-09-06T08:47:35.000Z</time>
</trkpt>
<trkpt lat="46.1323090" lon="10.1623180">
	<ele>1880.80</ele>
	<time>2024-09-06T08:47:36.000Z</time>
</trkpt>
<trkpt lat="46.1323130" lon="10.1623220">
	<ele>1880.60</ele>
	<time>2024-09-06T08:47:37.000Z</time>
</trkpt>
<trkpt lat="46.1323170" lon="10.1623300">
	<ele>1880.40</ele>
	<time>2024-09-06T08:47:38.000Z</time>
</trkpt>
<trkpt lat="46.1323200" lon="10.1623330">
	<ele>1880.00</ele>
	<time>2024-09-06T08:47:39.000Z</time>
</trkpt>
<trkpt lat="46.1323190" lon="10.1623350">
	<ele>1879.80</ele>
	<time>2024-09-06T08:47:40.000Z</time>
</trkpt>
<trkpt lat="46.1323180" lon="10.1623360">
	<ele>1879.60</ele>
	<time>2024-09-06T08:47:41.000Z</time>
</trkpt>
<trkpt lat="46.1323180" lon="10.1623360">
	<ele>1879.40</ele>
	<time>2024-09-06T08:47:42.000Z</time>
</trkpt>
<trkpt lat="46.1323190" lon="10.1623350">
	<ele>1879.40</ele>
	<time>2024-09-06T08:47:43.000Z</time>
</trkpt>
<trkpt lat="46.1323200" lon="10.1623360">
	<ele>1879.40</ele>
	<time>2024-09-06T08:47:44.000Z</time>
</trkpt>
<trkpt lat="46.1323210" lon="10.1623350">
	<ele>1879.40</ele>
	<time>2024-09-06T08:47:45.000Z</time>
</trkpt>
<trkpt lat="46.1323210" lon="10.1623340">
	<ele>1879.20</ele>
	<time>2024-09-06T08:47:46.000Z</time>
</trkpt>
<trkpt lat="46.1323200" lon="10.1623320">
	<ele>1879.20</ele>
	<time>2024-09-06T08:47:47.000Z</time>
</trkpt>
<trkpt lat="46.1323190" lon="10.1623310">
	<ele>1879.20</ele>
	<time>2024-09-06T08:47:48.000Z</time>
</trkpt>
<trkpt lat="46.1323190" lon="10.1623300">
	<ele>1879.20</ele>
	<time>2024-09-06T08:47:49.000Z</time>
</trkpt>
<trkpt lat="46.1323180" lon="10.1623290">
	<ele>1879.20</ele>
	<time>2024-09-06T08:47:50.000Z</time>
</trkpt>
<trkpt lat="46.1323180" lon="10.1623290">
	<ele>1879.40</ele>
	<time>2024-09-06T08:47:51.000Z</time>
</trkpt>
<trkpt lat="46.1323180" lon="10.1623290">
	<ele>1879.40</ele>
	<time>2024-09-06T08:47:52.000Z</time>
</trkpt>
<trkpt lat="46.1323180" lon="10.1623290">
	<ele>1879.40</ele>
	<time>2024-09-06T08:47:53.000Z</time>
</trkpt>
<trkpt lat="46.1323180" lon="10.1623290">
	<ele>1879.40</ele>
	<time>2024-09-06T08:47:54.000Z</time>
</trkpt>
<trkpt lat="46.1323180" lon="10.1623290">
	<ele>1879.20</ele>
	<time>2024-09-06T08:47:55.000Z</time>
</trkpt>
<trkpt lat="46.1323180" lon="10.1623290">
	<ele>1879.20</ele>
	<time>2024-09-06T08:47:56.000Z</time>
</trkpt>
<trkpt lat="46.1323180" lon="10.1623290">
	<ele>1879.00</ele>
	<time>2024-09-06T08:47:57.000Z</time>
</trkpt>
<trkpt lat="46.1323180" lon="10.1623290">
	<ele>1879.00</ele>
	<time>2024-09-06T08:47:58.000Z</time>
</trkpt>
<trkpt lat="46.1323180" lon="10.1623300">
	<ele>1878.80</ele>
	<time>2024-09-06T08:47:59.000Z</time>
</trkpt>
<trkpt lat="46.1323180" lon="10.1623300">
	<ele>1878.80</ele>
	<time>2024-09-06T08:48:00.000Z</time>
</trkpt>
<trkpt lat="46.1323180" lon="10.1623310">
	<ele>1878.80</ele>
	<time>2024-09-06T08:48:01.000Z</time>
</trkpt>
<trkpt lat="46.1323180" lon="10.1623310">
	<ele>1878.80</ele>
	<time>2024-09-06T08:48:02.000Z</time>
</trkpt>
<trkpt lat="46.1323180" lon="10.1623320">
	<ele>1878.60</ele>
	<time>2024-09-06T08:48:03.000Z</time>
</trkpt>
<trkpt lat="46.1323220" lon="10.1623400">
	<ele>1878.40</ele>
	<time>2024-09-06T08:48:04.000Z</time>
</trkpt>
<trkpt lat="46.1323310" lon="10.1623630">
	<ele>1878.00</ele>
	<time>2024-09-06T08:48:05.000Z</time>
</trkpt>
<trkpt lat="46.1323390" lon="10.1623810">
	<ele>1878.00</ele>
	<time>2024-09-06T08:48:06.000Z</time>
</trkpt>
<trkpt lat="46.1323480" lon="10.1624000">
	<ele>1877.60</ele>
	<time>2024-09-06T08:48:07.000Z</time>
</trkpt>
<trkpt lat="46.1323580" lon="10.1624170">
	<ele>1877.20</ele>
	<time>2024-09-06T08:48:08.000Z</time>
</trkpt>
<trkpt lat="46.1323720" lon="10.1624400">
	<ele>1877.00</ele>
	<time>2024-09-06T08:48:09.000Z</time>
</trkpt>
<trkpt lat="46.1323820" lon="10.1624620">
	<ele>1876.60</ele>
	<time>2024-09-06T08:48:10.000Z</time>
</trkpt>
<trkpt lat="46.1323930" lon="10.1624860">
	<ele>1876.40</ele>
	<time>2024-09-06T08:48:11.000Z</time>
</trkpt>
<trkpt lat="46.1324030" lon="10.1625090">
	<ele>1876.20</ele>
	<time>2024-09-06T08:48:12.000Z</time>
</trkpt>
<trkpt lat="46.1324090" lon="10.1625310">
	<ele>1875.80</ele>
	<time>2024-09-06T08:48:13.000Z</time>
</trkpt>
<trkpt lat="46.1324090" lon="10.1625470">
	<ele>1875.60</ele>
	<time>2024-09-06T08:48:14.000Z</time>
</trkpt>
<trkpt lat="46.1324110" lon="10.1625620">
	<ele>1875.40</ele>
	<time>2024-09-06T08:48:15.000Z</time>
</trkpt>
<trkpt lat="46.1324140" lon="10.1625870">
	<ele>1875.20</ele>
	<time>2024-09-06T08:48:16.000Z</time>
</trkpt>
<trkpt lat="46.1324150" lon="10.1626050">
	<ele>1875.00</ele>
	<time>2024-09-06T08:48:17.000Z</time>
</trkpt>
<trkpt lat="46.1324180" lon="10.1626240">
	<ele>1875.00</ele>
	<time>2024-09-06T08:48:18.000Z</time>
</trkpt>
<trkpt lat="46.1324230" lon="10.1626300">
	<ele>1874.60</ele>
	<time>2024-09-06T08:48:19.000Z</time>
</trkpt>
<trkpt lat="46.1324300" lon="10.1626370">
	<ele>1874.40</ele>
	<time>2024-09-06T08:48:20.000Z</time>
</trkpt>
<trkpt lat="46.1324360" lon="10.1626500">
	<ele>1874.40</ele>
	<time>2024-09-06T08:48:21.000Z</time>
</trkpt>
<trkpt lat="46.1324400" lon="10.1626630">
	<ele>1874.20</ele>
	<time>2024-09-06T08:48:22.000Z</time>
</trkpt>
<trkpt lat="46.1324450" lon="10.1626770">
	<ele>1874.20</ele>
	<time>2024-09-06T08:48:23.000Z</time>
</trkpt>
<trkpt lat="46.1324500" lon="10.1626980">
	<ele>1874.20</ele>
	<time>2024-09-06T08:48:24.000Z</time>
</trkpt>
<trkpt lat="46.1324540" lon="10.1627150">
	<ele>1874.20</ele>
	<time>2024-09-06T08:48:25.000Z</time>
</trkpt>
<trkpt lat="46.1324590" lon="10.1627290">
	<ele>1874.20</ele>
	<time>2024-09-06T08:48:26.000Z</time>
</trkpt>
<trkpt lat="46.1324670" lon="10.1627500">
	<ele>1874.40</ele>
	<time>2024-09-06T08:48:27.000Z</time>
</trkpt>
<trkpt lat="46.1324760" lon="10.1627700">
	<ele>1874.40</ele>
	<time>2024-09-06T08:48:28.000Z</time>
</trkpt>
<trkpt lat="46.1324850" lon="10.1627910">
	<ele>1874.40</ele>
	<time>2024-09-06T08:48:29.000Z</time>
</trkpt>
<trkpt lat="46.1324940" lon="10.1628110">
	<ele>1874.40</ele>
	<time>2024-09-06T08:48:30.000Z</time>
</trkpt>
<trkpt lat="46.1325030" lon="10.1628300">
	<ele>1874.40</ele>
	<time>2024-09-06T08:48:31.000Z</time>
</trkpt>
<trkpt lat="46.1325140" lon="10.1628500">
	<ele>1874.40</ele>
	<time>2024-09-06T08:48:32.000Z</time>
</trkpt>
<trkpt lat="46.1325240" lon="10.1628740">
	<ele>1874.20</ele>
	<time>2024-09-06T08:48:33.000Z</time>
</trkpt>
<trkpt lat="46.1325330" lon="10.1628870">
	<ele>1874.20</ele>
	<time>2024-09-06T08:48:34.000Z</time>
</trkpt>
<trkpt lat="46.1325420" lon="10.1628980">
	<ele>1874.20</ele>
	<time>2024-09-06T08:48:35.000Z</time>
</trkpt>
<trkpt lat="46.1325520" lon="10.1629080">
	<ele>1874.00</ele>
	<time>2024-09-06T08:48:36.000Z</time>
</trkpt>
<trkpt lat="46.1325600" lon="10.1629200">
	<ele>1873.80</ele>
	<time>2024-09-06T08:48:37.000Z</time>
</trkpt>
<trkpt lat="46.1325690" lon="10.1629340">
	<ele>1873.80</ele>
	<time>2024-09-06T08:48:38.000Z</time>
</trkpt>
<trkpt lat="46.1325790" lon="10.1629480">
	<ele>1873.60</ele>
	<time>2024-09-06T08:48:39.000Z</time>
</trkpt>
<trkpt lat="46.1325900" lon="10.1629590">
	<ele>1873.40</ele>
	<time>2024-09-06T08:48:40.000Z</time>
</trkpt>
<trkpt lat="46.1325980" lon="10.1629690">
	<ele>1873.40</ele>
	<time>2024-09-06T08:48:41.000Z</time>
</trkpt>
<trkpt lat="46.1326070" lon="10.1629820">
	<ele>1873.40</ele>
	<time>2024-09-06T08:48:42.000Z</time>
</trkpt>
<trkpt lat="46.1326170" lon="10.1629950">
	<ele>1873.20</ele>
	<time>2024-09-06T08:48:43.000Z</time>
</trkpt>
<trkpt lat="46.1326280" lon="10.1630060">
	<ele>1873.20</ele>
	<time>2024-09-06T08:48:44.000Z</time>
</trkpt>
<trkpt lat="46.1326400" lon="10.1630210">
	<ele>1873.20</ele>
	<time>2024-09-06T08:48:45.000Z</time>
</trkpt>
<trkpt lat="46.1326530" lon="10.1630300">
	<ele>1873.00</ele>
	<time>2024-09-06T08:48:46.000Z</time>
</trkpt>
<trkpt lat="46.1326630" lon="10.1630380">
	<ele>1872.80</ele>
	<time>2024-09-06T08:48:47.000Z</time>
</trkpt>
<trkpt lat="46.1326740" lon="10.1630460">
	<ele>1872.80</ele>
	<time>2024-09-06T08:48:48.000Z</time>
</trkpt>
<trkpt lat="46.1326860" lon="10.1630570">
	<ele>1872.60</ele>
	<time>2024-09-06T08:48:49.000Z</time>
</trkpt>
<trkpt lat="46.1326980" lon="10.1630690">
	<ele>1872.60</ele>
	<time>2024-09-06T08:48:50.000Z</time>
</trkpt>
<trkpt lat="46.1327050" lon="10.1630820">
	<ele>1872.40</ele>
	<time>2024-09-06T08:48:51.000Z</time>
</trkpt>
<trkpt lat="46.1327130" lon="10.1630940">
	<ele>1872.40</ele>
	<time>2024-09-06T08:48:52.000Z</time>
</trkpt>
<trkpt lat="46.1327240" lon="10.1631080">
	<ele>1872.40</ele>
	<time>2024-09-06T08:48:53.000Z</time>
</trkpt>
<trkpt lat="46.1327370" lon="10.1631170">
	<ele>1872.20</ele>
	<time>2024-09-06T08:48:54.000Z</time>
</trkpt>
<trkpt lat="46.1327500" lon="10.1631260">
	<ele>1872.20</ele>
	<time>2024-09-06T08:48:55.000Z</time>
</trkpt>
<trkpt lat="46.1327600" lon="10.1631360">
	<ele>1872.00</ele>
	<time>2024-09-06T08:48:56.000Z</time>
</trkpt>
<trkpt lat="46.1327690" lon="10.1631490">
	<ele>1871.80</ele>
	<time>2024-09-06T08:48:57.000Z</time>
</trkpt>
<trkpt lat="46.1327800" lon="10.1631580">
	<ele>1871.80</ele>
	<time>2024-09-06T08:48:58.000Z</time>
</trkpt>
<trkpt lat="46.1327890" lon="10.1631680">
	<ele>1871.60</ele>
	<time>2024-09-06T08:48:59.000Z</time>
</trkpt>
<trkpt lat="46.1328030" lon="10.1631770">
	<ele>1871.60</ele>
	<time>2024-09-06T08:49:00.000Z</time>
</trkpt>
<trkpt lat="46.1328180" lon="10.1631930">
	<ele>1871.40</ele>
	<time>2024-09-06T08:49:01.000Z</time>
</trkpt>
<trkpt lat="46.1328280" lon="10.1632060">
	<ele>1871.20</ele>
	<time>2024-09-06T08:49:02.000Z</time>
</trkpt>
<trkpt lat="46.1328400" lon="10.1632170">
	<ele>1871.00</ele>
	<time>2024-09-06T08:49:03.000Z</time>
</trkpt>
<trkpt lat="46.1328530" lon="10.1632250">
	<ele>1871.00</ele>
	<time>2024-09-06T08:49:04.000Z</time>
</trkpt>
<trkpt lat="46.1328670" lon="10.1632340">
	<ele>1871.00</ele>
	<time>2024-09-06T08:49:05.000Z</time>
</trkpt>
<trkpt lat="46.1328790" lon="10.1632410">
	<ele>1870.80</ele>
	<time>2024-09-06T08:49:06.000Z</time>
</trkpt>
<trkpt lat="46.1328900" lon="10.1632470">
	<ele>1870.60</ele>
	<time>2024-09-06T08:49:07.000Z</time>
</trkpt>
<trkpt lat="46.1329010" lon="10.1632550">
	<ele>1870.60</ele>
	<time>2024-09-06T08:49:08.000Z</time>
</trkpt>
<trkpt lat="46.1329120" lon="10.1632670">
	<ele>1870.40</ele>
	<time>2024-09-06T08:49:09.000Z</time>
</trkpt>
<trkpt lat="46.1329230" lon="10.1632810">
	<ele>1870.20</ele>
	<time>2024-09-06T08:49:10.000Z</time>
</trkpt>
<trkpt lat="46.1329340" lon="10.1632900">
	<ele>1870.00</ele>
	<time>2024-09-06T08:49:11.000Z</time>
</trkpt>
<trkpt lat="46.1329400" lon="10.1633030">
	<ele>1869.80</ele>
	<time>2024-09-06T08:49:12.000Z</time>
</trkpt>
<trkpt lat="46.1329490" lon="10.1633170">
	<ele>1869.60</ele>
	<time>2024-09-06T08:49:13.000Z</time>
</trkpt>
<trkpt lat="46.1329590" lon="10.1633290">
	<ele>1869.60</ele>
	<time>2024-09-06T08:49:14.000Z</time>
</trkpt>
<trkpt lat="46.1329700" lon="10.1633360">
	<ele>1869.40</ele>
	<time>2024-09-06T08:49:15.000Z</time>
</trkpt>
<trkpt lat="46.1329810" lon="10.1633420">
	<ele>1869.00</ele>
	<time>2024-09-06T08:49:16.000Z</time>
</trkpt>
<trkpt lat="46.1329910" lon="10.1633500">
	<ele>1868.80</ele>
	<time>2024-09-06T08:49:17.000Z</time>
</trkpt>
<trkpt lat="46.1329990" lon="10.1633580">
	<ele>1868.80</ele>
	<time>2024-09-06T08:49:18.000Z</time>
</trkpt>
<trkpt lat="46.1330100" lon="10.1633670">
	<ele>1868.60</ele>
	<time>2024-09-06T08:49:19.000Z</time>
</trkpt>
<trkpt lat="46.1330210" lon="10.1633780">
	<ele>1868.40</ele>
	<time>2024-09-06T08:49:20.000Z</time>
</trkpt>
<trkpt lat="46.1330320" lon="10.1633890">
	<ele>1868.20</ele>
	<time>2024-09-06T08:49:21.000Z</time>
</trkpt>
<trkpt lat="46.1330430" lon="10.1634000">
	<ele>1868.00</ele>
	<time>2024-09-06T08:49:22.000Z</time>
</trkpt>
<trkpt lat="46.1330540" lon="10.1634120">
	<ele>1867.80</ele>
	<time>2024-09-06T08:49:23.000Z</time>
</trkpt>
<trkpt lat="46.1330630" lon="10.1634220">
	<ele>1867.60</ele>
	<time>2024-09-06T08:49:24.000Z</time>
</trkpt>
<trkpt lat="46.1330730" lon="10.1634300">
	<ele>1867.40</ele>
	<time>2024-09-06T08:49:25.000Z</time>
</trkpt>
<trkpt lat="46.1330860" lon="10.1634400">
	<ele>1867.20</ele>
	<time>2024-09-06T08:49:26.000Z</time>
</trkpt>
<trkpt lat="46.1331000" lon="10.1634480">
	<ele>1867.00</ele>
	<time>2024-09-06T08:49:27.000Z</time>
</trkpt>
<trkpt lat="46.1331070" lon="10.1634540">
	<ele>1866.60</ele>
	<time>2024-09-06T08:49:28.000Z</time>
</trkpt>
<trkpt lat="46.1331170" lon="10.1634610">
	<ele>1866.40</ele>
	<time>2024-09-06T08:49:29.000Z</time>
</trkpt>
<trkpt lat="46.1331270" lon="10.1634670">
	<ele>1866.20</ele>
	<time>2024-09-06T08:49:30.000Z</time>
</trkpt>
<trkpt lat="46.1331330" lon="10.1634700">
	<ele>1865.80</ele>
	<time>2024-09-06T08:49:31.000Z</time>
</trkpt>
<trkpt lat="46.1331330" lon="10.1634710">
	<ele>1865.60</ele>
	<time>2024-09-06T08:49:32.000Z</time>
</trkpt>
<trkpt lat="46.1331380" lon="10.1634720">
	<ele>1865.60</ele>
	<time>2024-09-06T08:49:33.000Z</time>
</trkpt>
<trkpt lat="46.1331380" lon="10.1634730">
	<ele>1865.40</ele>
	<time>2024-09-06T08:49:34.000Z</time>
</trkpt>
<trkpt lat="46.1331390" lon="10.1634750">
	<ele>1865.40</ele>
	<time>2024-09-06T08:49:35.000Z</time>
</trkpt>
<trkpt lat="46.1331390" lon="10.1634760">
	<ele>1865.40</ele>
	<time>2024-09-06T08:49:36.000Z</time>
</trkpt>
<trkpt lat="46.1331390" lon="10.1634770">
	<ele>1865.40</ele>
	<time>2024-09-06T08:49:37.000Z</time>
</trkpt>
<trkpt lat="46.1331440" lon="10.1634830">
	<ele>1865.60</ele>
	<time>2024-09-06T08:49:38.000Z</time>
</trkpt>
<trkpt lat="46.1331510" lon="10.1634940">
	<ele>1865.60</ele>
	<time>2024-09-06T08:49:39.000Z</time>
</trkpt>
<trkpt lat="46.1331600" lon="10.1635040">
	<ele>1865.60</ele>
	<time>2024-09-06T08:49:40.000Z</time>
</trkpt>
<trkpt lat="46.1331690" lon="10.1635130">
	<ele>1865.20</ele>
	<time>2024-09-06T08:49:41.000Z</time>
</trkpt>
<trkpt lat="46.1331770" lon="10.1635200">
	<ele>1865.00</ele>
	<time>2024-09-06T08:49:42.000Z</time>
</trkpt>
<trkpt lat="46.1331860" lon="10.1635300">
	<ele>1864.80</ele>
	<time>2024-09-06T08:49:43.000Z</time>
</trkpt>
<trkpt lat="46.1331930" lon="10.1635410">
	<ele>1864.80</ele>
	<time>2024-09-06T08:49:44.000Z</time>
</trkpt>
<trkpt lat="46.1331990" lon="10.1635530">
	<ele>1864.80</ele>
	<time>2024-09-06T08:49:45.000Z</time>
</trkpt>
<trkpt lat="46.1332040" lon="10.1635670">
	<ele>1864.60</ele>
	<time>2024-09-06T08:49:46.000Z</time>
</trkpt>
<trkpt lat="46.1332080" lon="10.1635810">
	<ele>1864.40</ele>
	<time>2024-09-06T08:49:47.000Z</time>
</trkpt>
<trkpt lat="46.1332160" lon="10.1635960">
	<ele>1864.40</ele>
	<time>2024-09-06T08:49:48.000Z</time>
</trkpt>
<trkpt lat="46.1332240" lon="10.1636110">
	<ele>1864.00</ele>
	<time>2024-09-06T08:49:49.000Z</time>
</trkpt>
<trkpt lat="46.1332310" lon="10.1636250">
	<ele>1863.80</ele>
	<time>2024-09-06T08:49:50.000Z</time>
</trkpt>
<trkpt lat="46.1332360" lon="10.1636370">
	<ele>1863.80</ele>
	<time>2024-09-06T08:49:51.000Z</time>
</trkpt>
<trkpt lat="46.1332430" lon="10.1636480">
	<ele>1863.60</ele>
	<time>2024-09-06T08:49:52.000Z</time>
</trkpt>
<trkpt lat="46.1332530" lon="10.1636610">
	<ele>1863.20</ele>
	<time>2024-09-06T08:49:53.000Z</time>
</trkpt>
<trkpt lat="46.1332610" lon="10.1636750">
	<ele>1863.00</ele>
	<time>2024-09-06T08:49:54.000Z</time>
</trkpt>
<trkpt lat="46.1332690" lon="10.1636870">
	<ele>1862.80</ele>
	<time>2024-09-06T08:49:55.000Z</time>
</trkpt>
<trkpt lat="46.1332760" lon="10.1636960">
	<ele>1862.60</ele>
	<time>2024-09-06T08:49:56.000Z</time>
</trkpt>
<trkpt lat="46.1332860" lon="10.1637010">
	<ele>1862.40</ele>
	<time>2024-09-06T08:49:57.000Z</time>
</trkpt>
<trkpt lat="46.1332940" lon="10.1637050">
	<ele>1862.00</ele>
	<time>2024-09-06T08:49:58.000Z</time>
</trkpt>
<trkpt lat="46.1333020" lon="10.1637020">
	<ele>1861.80</ele>
	<time>2024-09-06T08:49:59.000Z</time>
</trkpt>
<trkpt lat="46.1333140" lon="10.1637020">
	<ele>1861.60</ele>
	<time>2024-09-06T08:50:00.000Z</time>
</trkpt>
<trkpt lat="46.1333260" lon="10.1637050">
	<ele>1861.40</ele>
	<time>2024-09-06T08:50:01.000Z</time>
</trkpt>
<trkpt lat="46.1333400" lon="10.1637050">
	<ele>1861.00</ele>
	<time>2024-09-06T08:50:02.000Z</time>
</trkpt>
<trkpt lat="46.1333480" lon="10.1637070">
	<ele>1860.80</ele>
	<time>2024-09-06T08:50:03.000Z</time>
</trkpt>
<trkpt lat="46.1333580" lon="10.1637060">
	<ele>1860.40</ele>
	<time>2024-09-06T08:50:04.000Z</time>
</trkpt>
<trkpt lat="46.1333650" lon="10.1637010">
	<ele>1860.00</ele>
	<time>2024-09-06T08:50:05.000Z</time>
</trkpt>
<trkpt lat="46.1333740" lon="10.1636950">
	<ele>1860.00</ele>
	<time>2024-09-06T08:50:06.000Z</time>
</trkpt>
<trkpt lat="46.1333850" lon="10.1636850">
	<ele>1859.60</ele>
	<time>2024-09-06T08:50:07.000Z</time>
</trkpt>
<trkpt lat="46.1333960" lon="10.1636750">
	<ele>1859.40</ele>
	<time>2024-09-06T08:50:08.000Z</time>
</trkpt>
<trkpt lat="46.1334060" lon="10.1636660">
	<ele>1858.80</ele>
	<time>2024-09-06T08:50:09.000Z</time>
</trkpt>
<trkpt lat="46.1334180" lon="10.1636610">
	<ele>1858.40</ele>
	<time>2024-09-06T08:50:10.000Z</time>
</trkpt>
<trkpt lat="46.1334320" lon="10.1636580">
	<ele>1858.00</ele>
	<time>2024-09-06T08:50:11.000Z</time>
</trkpt>
<trkpt lat="46.1334450" lon="10.1636580">
	<ele>1857.80</ele>
	<time>2024-09-06T08:50:12.000Z</time>
</trkpt>
<trkpt lat="46.1334570" lon="10.1636540">
	<ele>1857.60</ele>
	<time>2024-09-06T08:50:13.000Z</time>
</trkpt>
<trkpt lat="46.1334690" lon="10.1636420">
	<ele>1857.20</ele>
	<time>2024-09-06T08:50:14.000Z</time>
</trkpt>
<trkpt lat="46.1334800" lon="10.1636330">
	<ele>1856.80</ele>
	<time>2024-09-06T08:50:15.000Z</time>
</trkpt>
<trkpt lat="46.1334870" lon="10.1636220">
	<ele>1856.40</ele>
	<time>2024-09-06T08:50:16.000Z</time>
</trkpt>
<trkpt lat="46.1334930" lon="10.1636110">
	<ele>1856.00</ele>
	<time>2024-09-06T08:50:17.000Z</time>
</trkpt>
<trkpt lat="46.1334980" lon="10.1636000">
	<ele>1855.60</ele>
	<time>2024-09-06T08:50:18.000Z</time>
</trkpt>
<trkpt lat="46.1335050" lon="10.1635900">
	<ele>1855.40</ele>
	<time>2024-09-06T08:50:19.000Z</time>
</trkpt>
<trkpt lat="46.1335130" lon="10.1635800">
	<ele>1855.20</ele>
	<time>2024-09-06T08:50:20.000Z</time>
</trkpt>
<trkpt lat="46.1335240" lon="10.1635670">
	<ele>1854.80</ele>
	<time>2024-09-06T08:50:21.000Z</time>
</trkpt>
<trkpt lat="46.1335340" lon="10.1635560">
	<ele>1854.40</ele>
	<time>2024-09-06T08:50:22.000Z</time>
</trkpt>
<trkpt lat="46.1335450" lon="10.1635460">
	<ele>1854.20</ele>
	<time>2024-09-06T08:50:23.000Z</time>
</trkpt>
<trkpt lat="46.1335520" lon="10.1635350">
	<ele>1854.00</ele>
	<time>2024-09-06T08:50:24.000Z</time>
</trkpt>
<trkpt lat="46.1335560" lon="10.1635240">
	<ele>1853.80</ele>
	<time>2024-09-06T08:50:25.000Z</time>
</trkpt>
<trkpt lat="46.1335580" lon="10.1635140">
	<ele>1853.40</ele>
	<time>2024-09-06T08:50:26.000Z</time>
</trkpt>
<trkpt lat="46.1335610" lon="10.1634990">
	<ele>1853.40</ele>
	<time>2024-09-06T08:50:27.000Z</time>
</trkpt>
<trkpt lat="46.1335680" lon="10.1634820">
	<ele>1853.00</ele>
	<time>2024-09-06T08:50:28.000Z</time>
</trkpt>
<trkpt lat="46.1335710" lon="10.1634700">
	<ele>1852.60</ele>
	<time>2024-09-06T08:50:29.000Z</time>
</trkpt>
<trkpt lat="46.1335750" lon="10.1634590">
	<ele>1852.40</ele>
	<time>2024-09-06T08:50:30.000Z</time>
</trkpt>
<trkpt lat="46.1335790" lon="10.1634460">
	<ele>1852.20</ele>
	<time>2024-09-06T08:50:31.000Z</time>
</trkpt>
<trkpt lat="46.1335830" lon="10.1634360">
	<ele>1851.80</ele>
	<time>2024-09-06T08:50:32.000Z</time>
</trkpt>
<trkpt lat="46.1335860" lon="10.1634280">
	<ele>1851.60</ele>
	<time>2024-09-06T08:50:33.000Z</time>
</trkpt>
<trkpt lat="46.1335870" lon="10.1634200">
	<ele>1851.40</ele>
	<time>2024-09-06T08:50:34.000Z</time>
</trkpt>
<trkpt lat="46.1335940" lon="10.1634130">
	<ele>1851.20</ele>
	<time>2024-09-06T08:50:35.000Z</time>
</trkpt>
<trkpt lat="46.1336010" lon="10.1634030">
	<ele>1850.80</ele>
	<time>2024-09-06T08:50:36.000Z</time>
</trkpt>
<trkpt lat="46.1336090" lon="10.1633920">
	<ele>1850.60</ele>
	<time>2024-09-06T08:50:37.000Z</time>
</trkpt>
<trkpt lat="46.1336160" lon="10.1633780">
	<ele>1850.00</ele>
	<time>2024-09-06T08:50:38.000Z</time>
</trkpt>
<trkpt lat="46.1336230" lon="10.1633660">
	<ele>1849.80</ele>
	<time>2024-09-06T08:50:39.000Z</time>
</trkpt>
<trkpt lat="46.1336290" lon="10.1633550">
	<ele>1849.60</ele>
	<time>2024-09-06T08:50:40.000Z</time>
</trkpt>
<trkpt lat="46.1336330" lon="10.1633440">
	<ele>1849.20</ele>
	<time>2024-09-06T08:50:41.000Z</time>
</trkpt>
<trkpt lat="46.1336420" lon="10.1633330">
	<ele>1849.00</ele>
	<time>2024-09-06T08:50:42.000Z</time>
</trkpt>
<trkpt lat="46.1336460" lon="10.1633220">
	<ele>1848.60</ele>
	<time>2024-09-06T08:50:43.000Z</time>
</trkpt>
<trkpt lat="46.1336510" lon="10.1633100">
	<ele>1848.20</ele>
	<time>2024-09-06T08:50:44.000Z</time>
</trkpt>
<trkpt lat="46.1336560" lon="10.1632970">
	<ele>1848.00</ele>
	<time>2024-09-06T08:50:45.000Z</time>
</trkpt>
<trkpt lat="46.1336620" lon="10.1632870">
	<ele>1847.80</ele>
	<time>2024-09-06T08:50:46.000Z</time>
</trkpt>
<trkpt lat="46.1336670" lon="10.1632750">
	<ele>1847.40</ele>
	<time>2024-09-06T08:50:47.000Z</time>
</trkpt>
<trkpt lat="46.1336700" lon="10.1632650">
	<ele>1847.20</ele>
	<time>2024-09-06T08:50:48.000Z</time>
</trkpt>
<trkpt lat="46.1336750" lon="10.1632580">
	<ele>1847.00</ele>
	<time>2024-09-06T08:50:49.000Z</time>
</trkpt>
<trkpt lat="46.1336830" lon="10.1632520">
	<ele>1846.80</ele>
	<time>2024-09-06T08:50:50.000Z</time>
</trkpt>
<trkpt lat="46.1336950" lon="10.1632510">
	<ele>1846.60</ele>
	<time>2024-09-06T08:50:51.000Z</time>
</trkpt>
<trkpt lat="46.1337080" lon="10.1632420">
	<ele>1846.40</ele>
	<time>2024-09-06T08:50:52.000Z</time>
</trkpt>
<trkpt lat="46.1337140" lon="10.1632320">
	<ele>1846.20</ele>
	<time>2024-09-06T08:50:53.000Z</time>
</trkpt>
<trkpt lat="46.1337200" lon="10.1632220">
	<ele>1845.60</ele>
	<time>2024-09-06T08:50:54.000Z</time>
</trkpt>
<trkpt lat="46.1337260" lon="10.1632120">
	<ele>1845.40</ele>
	<time>2024-09-06T08:50:55.000Z</time>
</trkpt>
<trkpt lat="46.1337340" lon="10.1632060">
	<ele>1845.20</ele>
	<time>2024-09-06T08:50:56.000Z</time>
</trkpt>
<trkpt lat="46.1337400" lon="10.1632020">
	<ele>1844.80</ele>
	<time>2024-09-06T08:50:57.000Z</time>
</trkpt>
<trkpt lat="46.1337480" lon="10.1631960">
	<ele>1844.80</ele>
	<time>2024-09-06T08:50:58.000Z</time>
</trkpt>
<trkpt lat="46.1337550" lon="10.1631900">
	<ele>1844.40</ele>
	<time>2024-09-06T08:50:59.000Z</time>
</trkpt>
<trkpt lat="46.1337630" lon="10.1631800">
	<ele>1844.40</ele>
	<time>2024-09-06T08:51:00.000Z</time>
</trkpt>
<trkpt lat="46.1337670" lon="10.1631720">
	<ele>1844.20</ele>
	<time>2024-09-06T08:51:01.000Z</time>
</trkpt>
<trkpt lat="46.1337690" lon="10.1631640">
	<ele>1843.80</ele>
	<time>2024-09-06T08:51:02.000Z</time>
</trkpt>
<trkpt lat="46.1337740" lon="10.1631590">
	<ele>1843.40</ele>
	<time>2024-09-06T08:51:03.000Z</time>
</trkpt>
<trkpt lat="46.1337770" lon="10.1631500">
	<ele>1843.00</ele>
	<time>2024-09-06T08:51:04.000Z</time>
</trkpt>
<trkpt lat="46.1337810" lon="10.1631410">
	<ele>1842.80</ele>
	<time>2024-09-06T08:51:05.000Z</time>
</trkpt>
<trkpt lat="46.1337870" lon="10.1631340">
	<ele>1842.60</ele>
	<time>2024-09-06T08:51:06.000Z</time>
</trkpt>
<trkpt lat="46.1337940" lon="10.1631290">
	<ele>1842.40</ele>
	<time>2024-09-06T08:51:07.000Z</time>
</trkpt>
<trkpt lat="46.1338030" lon="10.1631220">
	<ele>1842.00</ele>
	<time>2024-09-06T08:51:08.000Z</time>
</trkpt>
<trkpt lat="46.1338130" lon="10.1631120">
	<ele>1841.40</ele>
	<time>2024-09-06T08:51:09.000Z</time>
</trkpt>
<trkpt lat="46.1338190" lon="10.1631030">
	<ele>1841.20</ele>
	<time>2024-09-06T08:51:10.000Z</time>
</trkpt>
<trkpt lat="46.1338250" lon="10.1630940">
	<ele>1840.80</ele>
	<time>2024-09-06T08:51:11.000Z</time>
</trkpt>
<trkpt lat="46.1338330" lon="10.1630880">
	<ele>1840.60</ele>
	<time>2024-09-06T08:51:12.000Z</time>
</trkpt>
<trkpt lat="46.1338380" lon="10.1630760">
	<ele>1840.60</ele>
	<time>2024-09-06T08:51:13.000Z</time>
</trkpt>
<trkpt lat="46.1338470" lon="10.1630630">
	<ele>1840.20</ele>
	<time>2024-09-06T08:51:14.000Z</time>
</trkpt>
<trkpt lat="46.1338530" lon="10.1630550">
	<ele>1840.00</ele>
	<time>2024-09-06T08:51:15.000Z</time>
</trkpt>
<trkpt lat="46.1338620" lon="10.1630480">
	<ele>1839.40</ele>
	<time>2024-09-06T08:51:16.000Z</time>
</trkpt>
<trkpt lat="46.1338660" lon="10.1630380">
	<ele>1839.00</ele>
	<time>2024-09-06T08:51:17.000Z</time>
</trkpt>
<trkpt lat="46.1338730" lon="10.1630230">
	<ele>1838.80</ele>
	<time>2024-09-06T08:51:18.000Z</time>
</trkpt>
<trkpt lat="46.1338780" lon="10.1630130">
	<ele>1838.60</ele>
	<time>2024-09-06T08:51:19.000Z</time>
</trkpt>
<trkpt lat="46.1338820" lon="10.1630040">
	<ele>1838.20</ele>
	<time>2024-09-06T08:51:20.000Z</time>
</trkpt>
<trkpt lat="46.1338870" lon="10.1629950">
	<ele>1838.00</ele>
	<time>2024-09-06T08:51:21.000Z</time>
</trkpt>
<trkpt lat="46.1338940" lon="10.1629850">
	<ele>1837.60</ele>
	<time>2024-09-06T08:51:22.000Z</time>
</trkpt>
<trkpt lat="46.1339000" lon="10.1629730">
	<ele>1837.40</ele>
	<time>2024-09-06T08:51:23.000Z</time>
</trkpt>
<trkpt lat="46.1339060" lon="10.1629650">
	<ele>1837.20</ele>
	<time>2024-09-06T08:51:24.000Z</time>
</trkpt>
<trkpt lat="46.1339070" lon="10.1629570">
	<ele>1836.80</ele>
	<time>2024-09-06T08:51:25.000Z</time>
</trkpt>
<trkpt lat="46.1339140" lon="10.1629450">
	<ele>1836.40</ele>
	<time>2024-09-06T08:51:26.000Z</time>
</trkpt>
<trkpt lat="46.1339220" lon="10.1629340">
	<ele>1836.20</ele>
	<time>2024-09-06T08:51:27.000Z</time>
</trkpt>
<trkpt lat="46.1339270" lon="10.1629280">
	<ele>1836.00</ele>
	<time>2024-09-06T08:51:28.000Z</time>
</trkpt>
<trkpt lat="46.1339330" lon="10.1629220">
	<ele>1835.60</ele>
	<time>2024-09-06T08:51:29.000Z</time>
</trkpt>
<trkpt lat="46.1339410" lon="10.1629120">
	<ele>1835.40</ele>
	<time>2024-09-06T08:51:30.000Z</time>
</trkpt>
<trkpt lat="46.1339430" lon="10.1629010">
	<ele>1835.00</ele>
	<time>2024-09-06T08:51:31.000Z</time>
</trkpt>
<trkpt lat="46.1339470" lon="10.1628910">
	<ele>1834.60</ele>
	<time>2024-09-06T08:51:32.000Z</time>
</trkpt>
<trkpt lat="46.1339550" lon="10.1628790">
	<ele>1834.40</ele>
	<time>2024-09-06T08:51:33.000Z</time>
</trkpt>
<trkpt lat="46.1339620" lon="10.1628690">
	<ele>1834.20</ele>
	<time>2024-09-06T08:51:34.000Z</time>
</trkpt>
<trkpt lat="46.1339670" lon="10.1628580">
	<ele>1833.80</ele>
	<time>2024-09-06T08:51:35.000Z</time>
</trkpt>
<trkpt lat="46.1339670" lon="10.1628470">
	<ele>1833.60</ele>
	<time>2024-09-06T08:51:36.000Z</time>
</trkpt>
<trkpt lat="46.1339600" lon="10.1628290">
	<ele>1833.20</ele>
	<time>2024-09-06T08:51:37.000Z</time>
</trkpt>
<trkpt lat="46.1339590" lon="10.1628160">
	<ele>1832.80</ele>
	<time>2024-09-06T08:51:38.000Z</time>
</trkpt>
<trkpt lat="46.1339590" lon="10.1628060">
	<ele>1832.40</ele>
	<time>2024-09-06T08:51:39.000Z</time>
</trkpt>
<trkpt lat="46.1339630" lon="10.1627960">
	<ele>1832.20</ele>
	<time>2024-09-06T08:51:40.000Z</time>
</trkpt>
<trkpt lat="46.1339620" lon="10.1627840">
	<ele>1831.80</ele>
	<time>2024-09-06T08:51:41.000Z</time>
</trkpt>
<trkpt lat="46.1339640" lon="10.1627730">
	<ele>1831.40</ele>
	<time>2024-09-06T08:51:42.000Z</time>
</trkpt>
<trkpt lat="46.1339720" lon="10.1627640">
	<ele>1831.20</ele>
	<time>2024-09-06T08:51:43.000Z</time>
</trkpt>
<trkpt lat="46.1339790" lon="10.1627610">
	<ele>1831.00</ele>
	<time>2024-09-06T08:51:44.000Z</time>
</trkpt>
<trkpt lat="46.1339870" lon="10.1627490">
	<ele>1830.60</ele>
	<time>2024-09-06T08:51:45.000Z</time>
</trkpt>
<trkpt lat="46.1339960" lon="10.1627410">
	<ele>1830.40</ele>
	<time>2024-09-06T08:51:46.000Z</time>
</trkpt>
<trkpt lat="46.1340010" lon="10.1627280">
	<ele>1829.80</ele>
	<time>2024-09-06T08:51:47.000Z</time>
</trkpt>
<trkpt lat="46.1340050" lon="10.1627160">
	<ele>1829.60</ele>
	<time>2024-09-06T08:51:48.000Z</time>
</trkpt>
<trkpt lat="46.1340100" lon="10.1627020">
	<ele>1829.40</ele>
	<time>2024-09-06T08:51:49.000Z</time>
</trkpt>
<trkpt lat="46.1340170" lon="10.1626900">
	<ele>1829.00</ele>
	<time>2024-09-06T08:51:50.000Z</time>
</trkpt>
<trkpt lat="46.1340230" lon="10.1626810">
	<ele>1828.80</ele>
	<time>2024-09-06T08:51:51.000Z</time>
</trkpt>
<trkpt lat="46.1340390" lon="10.1626780">
	<ele>1828.60</ele>
	<time>2024-09-06T08:51:52.000Z</time>
</trkpt>
<trkpt lat="46.1340480" lon="10.1626640">
	<ele>1828.20</ele>
	<time>2024-09-06T08:51:53.000Z</time>
</trkpt>
<trkpt lat="46.1340540" lon="10.1626530">
	<ele>1828.00</ele>
	<time>2024-09-06T08:51:54.000Z</time>
</trkpt>
<trkpt lat="46.1340620" lon="10.1626430">
	<ele>1827.80</ele>
	<time>2024-09-06T08:51:55.000Z</time>
</trkpt>
<trkpt lat="46.1340700" lon="10.1626360">
	<ele>1827.60</ele>
	<time>2024-09-06T08:51:56.000Z</time>
</trkpt>
<trkpt lat="46.1340760" lon="10.1626240">
	<ele>1827.20</ele>
	<time>2024-09-06T08:51:57.000Z</time>
</trkpt>
<trkpt lat="46.1340840" lon="10.1626110">
	<ele>1827.00</ele>
	<time>2024-09-06T08:51:58.000Z</time>
</trkpt>
<trkpt lat="46.1340840" lon="10.1625910">
	<ele>1826.60</ele>
	<time>2024-09-06T08:51:59.000Z</time>
</trkpt>
<trkpt lat="46.1340870" lon="10.1625740">
	<ele>1826.40</ele>
	<time>2024-09-06T08:52:00.000Z</time>
</trkpt>
<trkpt lat="46.1340970" lon="10.1625640">
	<ele>1826.00</ele>
	<time>2024-09-06T08:52:01.000Z</time>
</trkpt>
<trkpt lat="46.1341090" lon="10.1625540">
	<ele>1825.60</ele>
	<time>2024-09-06T08:52:02.000Z</time>
</trkpt>
<trkpt lat="46.1341140" lon="10.1625410">
	<ele>1825.40</ele>
	<time>2024-09-06T08:52:03.000Z</time>
</trkpt>
<trkpt lat="46.1341200" lon="10.1625290">
	<ele>1825.00</ele>
	<time>2024-09-06T08:52:04.000Z</time>
</trkpt>
<trkpt lat="46.1341260" lon="10.1625160">
	<ele>1824.60</ele>
	<time>2024-09-06T08:52:05.000Z</time>
</trkpt>
<trkpt lat="46.1341370" lon="10.1625040">
	<ele>1824.40</ele>
	<time>2024-09-06T08:52:06.000Z</time>
</trkpt>
<trkpt lat="46.1341430" lon="10.1624900">
	<ele>1824.00</ele>
	<time>2024-09-06T08:52:07.000Z</time>
</trkpt>
<trkpt lat="46.1341430" lon="10.1624740">
	<ele>1823.80</ele>
	<time>2024-09-06T08:52:08.000Z</time>
</trkpt>
<trkpt lat="46.1341490" lon="10.1624610">
	<ele>1823.60</ele>
	<time>2024-09-06T08:52:09.000Z</time>
</trkpt>
<trkpt lat="46.1341590" lon="10.1624470">
	<ele>1823.40</ele>
	<time>2024-09-06T08:52:10.000Z</time>
</trkpt>
<trkpt lat="46.1341640" lon="10.1624310">
	<ele>1823.20</ele>
	<time>2024-09-06T08:52:11.000Z</time>
</trkpt>
<trkpt lat="46.1341690" lon="10.1624170">
	<ele>1822.80</ele>
	<time>2024-09-06T08:52:12.000Z</time>
</trkpt>
<trkpt lat="46.1341770" lon="10.1624010">
	<ele>1822.40</ele>
	<time>2024-09-06T08:52:13.000Z</time>
</trkpt>
<trkpt lat="46.1341800" lon="10.1623850">
	<ele>1822.20</ele>
	<time>2024-09-06T08:52:14.000Z</time>
</trkpt>
<trkpt lat="46.1341790" lon="10.1623640">
	<ele>1822.00</ele>
	<time>2024-09-06T08:52:15.000Z</time>
</trkpt>
<trkpt lat="46.1341770" lon="10.1623470">
	<ele>1821.80</ele>
	<time>2024-09-06T08:52:16.000Z</time>
</trkpt>
<trkpt lat="46.1341720" lon="10.1623240">
	<ele>1821.80</ele>
	<time>2024-09-06T08:52:17.000Z</time>
</trkpt>
<trkpt lat="46.1341650" lon="10.1623080">
	<ele>1821.60</ele>
	<time>2024-09-06T08:52:18.000Z</time>
</trkpt>
<trkpt lat="46.1341570" lon="10.1622930">
	<ele>1821.60</ele>
	<time>2024-09-06T08:52:19.000Z</time>
</trkpt>
<trkpt lat="46.1341490" lon="10.1622840">
	<ele>1821.40</ele>
	<time>2024-09-06T08:52:20.000Z</time>
</trkpt>
<trkpt lat="46.1341370" lon="10.1622730">
	<ele>1821.20</ele>
	<time>2024-09-06T08:52:21.000Z</time>
</trkpt>
<trkpt lat="46.1341280" lon="10.1622690">
	<ele>1821.20</ele>
	<time>2024-09-06T08:52:22.000Z</time>
</trkpt>
<trkpt lat="46.1341180" lon="10.1622690">
	<ele>1821.00</ele>
	<time>2024-09-06T08:52:23.000Z</time>
</trkpt>
<trkpt lat="46.1341100" lon="10.1622740">
	<ele>1820.80</ele>
	<time>2024-09-06T08:52:24.000Z</time>
</trkpt>
<trkpt lat="46.1341000" lon="10.1622740">
	<ele>1820.80</ele>
	<time>2024-09-06T08:52:25.000Z</time>
</trkpt>
<trkpt lat="46.1340870" lon="10.1622710">
	<ele>1820.80</ele>
	<time>2024-09-06T08:52:26.000Z</time>
</trkpt>
<trkpt lat="46.1340720" lon="10.1622700">
	<ele>1820.80</ele>
	<time>2024-09-06T08:52:27.000Z</time>
</trkpt>
<trkpt lat="46.1340560" lon="10.1622670">
	<ele>1820.60</ele>
	<time>2024-09-06T08:52:28.000Z</time>
</trkpt>
<trkpt lat="46.1340410" lon="10.1622610">
	<ele>1820.60</ele>
	<time>2024-09-06T08:52:29.000Z</time>
</trkpt>
<trkpt lat="46.1340300" lon="10.1622550">
	<ele>1820.60</ele>
	<time>2024-09-06T08:52:30.000Z</time>
</trkpt>
<trkpt lat="46.1340280" lon="10.1622520">
	<ele>1820.60</ele>
	<time>2024-09-06T08:52:31.000Z</time>
</trkpt>
<trkpt lat="46.1340280" lon="10.1622480">
	<ele>1820.40</ele>
	<time>2024-09-06T08:52:32.000Z</time>
</trkpt>
<trkpt lat="46.1340290" lon="10.1622450">
	<ele>1820.40</ele>
	<time>2024-09-06T08:52:33.000Z</time>
</trkpt>
<trkpt lat="46.1340230" lon="10.1622400">
	<ele>1819.80</ele>
	<time>2024-09-06T08:52:34.000Z</time>
</trkpt>
<trkpt lat="46.1340170" lon="10.1622390">
	<ele>1819.60</ele>
	<time>2024-09-06T08:52:35.000Z</time>
</trkpt>
<trkpt lat="46.1340150" lon="10.1622430">
	<ele>1819.40</ele>
	<time>2024-09-06T08:52:36.000Z</time>
</trkpt>
<trkpt lat="46.1340100" lon="10.1622430">
	<ele>1819.20</ele>
	<time>2024-09-06T08:52:37.000Z</time>
</trkpt>
<trkpt lat="46.1340040" lon="10.1622390">
	<ele>1818.80</ele>
	<time>2024-09-06T08:52:38.000Z</time>
</trkpt>
<trkpt lat="46.1339970" lon="10.1622350">
	<ele>1818.80</ele>
	<time>2024-09-06T08:52:39.000Z</time>
</trkpt>
<trkpt lat="46.1339810" lon="10.1622200">
	<ele>1818.60</ele>
	<time>2024-09-06T08:52:40.000Z</time>
</trkpt>
<trkpt lat="46.1339620" lon="10.1622050">
	<ele>1818.40</ele>
	<time>2024-09-06T08:52:41.000Z</time>
</trkpt>
<trkpt lat="46.1339520" lon="10.1621950">
	<ele>1818.40</ele>
	<time>2024-09-06T08:52:42.000Z</time>
</trkpt>
<trkpt lat="46.1339400" lon="10.1621870">
	<ele>1818.40</ele>
	<time>2024-09-06T08:52:43.000Z</time>
</trkpt>
<trkpt lat="46.1339280" lon="10.1621680">
	<ele>1818.20</ele>
	<time>2024-09-06T08:52:44.000Z</time>
</trkpt>
<trkpt lat="46.1339130" lon="10.1621480">
	<ele>1818.20</ele>
	<time>2024-09-06T08:52:45.000Z</time>
</trkpt>
<trkpt lat="46.1339100" lon="10.1621410">
	<ele>1818.00</ele>
	<time>2024-09-06T08:52:46.000Z</time>
</trkpt>
<trkpt lat="46.1339040" lon="10.1621340">
	<ele>1818.00</ele>
	<time>2024-09-06T08:52:47.000Z</time>
</trkpt>
<trkpt lat="46.1339040" lon="10.1621240">
	<ele>1818.00</ele>
	<time>2024-09-06T08:52:48.000Z</time>
</trkpt>
<trkpt lat="46.1339060" lon="10.1621120">
	<ele>1817.80</ele>
	<time>2024-09-06T08:52:49.000Z</time>
</trkpt>
<trkpt lat="46.1339050" lon="10.1621010">
	<ele>1817.60</ele>
	<time>2024-09-06T08:52:50.000Z</time>
</trkpt>
<trkpt lat="46.1339080" lon="10.1620950">
	<ele>1817.20</ele>
	<time>2024-09-06T08:52:51.000Z</time>
</trkpt>
<trkpt lat="46.1339060" lon="10.1620870">
	<ele>1816.80</ele>
	<time>2024-09-06T08:52:52.000Z</time>
</trkpt>
<trkpt lat="46.1339080" lon="10.1620780">
	<ele>1816.60</ele>
	<time>2024-09-06T08:52:53.000Z</time>
</trkpt>
<trkpt lat="46.1339130" lon="10.1620690">
	<ele>1816.20</ele>
	<time>2024-09-06T08:52:54.000Z</time>
</trkpt>
<trkpt lat="46.1339180" lon="10.1620590">
	<ele>1815.80</ele>
	<time>2024-09-06T08:52:55.000Z</time>
</trkpt>
<trkpt lat="46.1339210" lon="10.1620440">
	<ele>1815.60</ele>
	<time>2024-09-06T08:52:56.000Z</time>
</trkpt>
<trkpt lat="46.1339230" lon="10.1620270">
	<ele>1815.40</ele>
	<time>2024-09-06T08:52:57.000Z</time>
</trkpt>
<trkpt lat="46.1339270" lon="10.1620090">
	<ele>1815.00</ele>
	<time>2024-09-06T08:52:58.000Z</time>
</trkpt>
<trkpt lat="46.1339350" lon="10.1620070">
	<ele>1814.60</ele>
	<time>2024-09-06T08:52:59.000Z</time>
</trkpt>
<trkpt lat="46.1339450" lon="10.1620040">
	<ele>1814.40</ele>
	<time>2024-09-06T08:53:00.000Z</time>
</trkpt>
<trkpt lat="46.1339530" lon="10.1620040">
	<ele>1814.00</ele>
	<time>2024-09-06T08:53:01.000Z</time>
</trkpt>
<trkpt lat="46.1339630" lon="10.1620020">
	<ele>1813.60</ele>
	<time>2024-09-06T08:53:02.000Z</time>
</trkpt>
<trkpt lat="46.1339690" lon="10.1619910">
	<ele>1813.20</ele>
	<time>2024-09-06T08:53:03.000Z</time>
</trkpt>
<trkpt lat="46.1339680" lon="10.1619700">
	<ele>1813.00</ele>
	<time>2024-09-06T08:53:04.000Z</time>
</trkpt>
<trkpt lat="46.1339700" lon="10.1619530">
	<ele>1812.60</ele>
	<time>2024-09-06T08:53:05.000Z</time>
</trkpt>
<trkpt lat="46.1339760" lon="10.1619390">
	<ele>1812.40</ele>
	<time>2024-09-06T08:53:06.000Z</time>
</trkpt>
<trkpt lat="46.1339860" lon="10.1619330">
	<ele>1812.20</ele>
	<time>2024-09-06T08:53:07.000Z</time>
</trkpt>
<trkpt lat="46.1339990" lon="10.1619260">
	<ele>1811.80</ele>
	<time>2024-09-06T08:53:08.000Z</time>
</trkpt>
<trkpt lat="46.1340050" lon="10.1619140">
	<ele>1811.60</ele>
	<time>2024-09-06T08:53:09.000Z</time>
</trkpt>
<trkpt lat="46.1340110" lon="10.1619050">
	<ele>1811.40</ele>
	<time>2024-09-06T08:53:10.000Z</time>
</trkpt>
<trkpt lat="46.1340180" lon="10.1618970">
	<ele>1811.00</ele>
	<time>2024-09-06T08:53:11.000Z</time>
</trkpt>
<trkpt lat="46.1340240" lon="10.1618820">
	<ele>1810.80</ele>
	<time>2024-09-06T08:53:12.000Z</time>
</trkpt>
<trkpt lat="46.1340240" lon="10.1618710">
	<ele>1810.60</ele>
	<time>2024-09-06T08:53:13.000Z</time>
</trkpt>
<trkpt lat="46.1340310" lon="10.1618580">
	<ele>1810.40</ele>
	<time>2024-09-06T08:53:14.000Z</time>
</trkpt>
<trkpt lat="46.1340350" lon="10.1618530">
	<ele>1810.20</ele>
	<time>2024-09-06T08:53:15.000Z</time>
</trkpt>
<trkpt lat="46.1340490" lon="10.1618450">
	<ele>1810.00</ele>
	<time>2024-09-06T08:53:16.000Z</time>
</trkpt>
<trkpt lat="46.1340640" lon="10.1618380">
	<ele>1809.80</ele>
	<time>2024-09-06T08:53:17.000Z</time>
</trkpt>
<trkpt lat="46.1340680" lon="10.1618270">
	<ele>1809.60</ele>
	<time>2024-09-06T08:53:18.000Z</time>
</trkpt>
<trkpt lat="46.1340770" lon="10.1618250">
	<ele>1809.60</ele>
	<time>2024-09-06T08:53:19.000Z</time>
</trkpt>
<trkpt lat="46.1340850" lon="10.1618190">
	<ele>1809.40</ele>
	<time>2024-09-06T08:53:20.000Z</time>
</trkpt>
<trkpt lat="46.1340970" lon="10.1618210">
	<ele>1809.20</ele>
	<time>2024-09-06T08:53:21.000Z</time>
</trkpt>
<trkpt lat="46.1341100" lon="10.1618210">
	<ele>1809.20</ele>
	<time>2024-09-06T08:53:22.000Z</time>
</trkpt>
<trkpt lat="46.1341250" lon="10.1618230">
	<ele>1809.00</ele>
	<time>2024-09-06T08:53:23.000Z</time>
</trkpt>
<trkpt lat="46.1341340" lon="10.1618230">
	<ele>1808.80</ele>
	<time>2024-09-06T08:53:24.000Z</time>
</trkpt>
<trkpt lat="46.1341480" lon="10.1618220">
	<ele>1808.80</ele>
	<time>2024-09-06T08:53:25.000Z</time>
</trkpt>
<trkpt lat="46.1341600" lon="10.1618200">
	<ele>1808.60</ele>
	<time>2024-09-06T08:53:26.000Z</time>
</trkpt>
<trkpt lat="46.1341670" lon="10.1618150">
	<ele>1808.60</ele>
	<time>2024-09-06T08:53:27.000Z</time>
</trkpt>
<trkpt lat="46.1341790" lon="10.1618090">
	<ele>1808.40</ele>
	<time>2024-09-06T08:53:28.000Z</time>
</trkpt>
<trkpt lat="46.1341890" lon="10.1618030">
	<ele>1808.40</ele>
	<time>2024-09-06T08:53:29.000Z</time>
</trkpt>
<trkpt lat="46.1341990" lon="10.1617980">
	<ele>1808.20</ele>
	<time>2024-09-06T08:53:30.000Z</time>
</trkpt>
<trkpt lat="46.1342100" lon="10.1617930">
	<ele>1808.00</ele>
	<time>2024-09-06T08:53:31.000Z</time>
</trkpt>
<trkpt lat="46.1342190" lon="10.1617890">
	<ele>1807.80</ele>
	<time>2024-09-06T08:53:32.000Z</time>
</trkpt>
<trkpt lat="46.1342330" lon="10.1617820">
	<ele>1807.80</ele>
	<time>2024-09-06T08:53:33.000Z</time>
</trkpt>
<trkpt lat="46.1342440" lon="10.1617790">
	<ele>1807.80</ele>
	<time>2024-09-06T08:53:34.000Z</time>
</trkpt>
<trkpt lat="46.1342530" lon="10.1617760">
	<ele>1807.60</ele>
	<time>2024-09-06T08:53:35.000Z</time>
</trkpt>
<trkpt lat="46.1342660" lon="10.1617750">
	<ele>1807.60</ele>
	<time>2024-09-06T08:53:36.000Z</time>
</trkpt>
<trkpt lat="46.1342720" lon="10.1617660">
	<ele>1807.40</ele>
	<time>2024-09-06T08:53:37.000Z</time>
</trkpt>
<trkpt lat="46.1342820" lon="10.1617540">
	<ele>1807.40</ele>
	<time>2024-09-06T08:53:38.000Z</time>
</trkpt>
<trkpt lat="46.1342910" lon="10.1617450">
	<ele>1807.40</ele>
	<time>2024-09-06T08:53:39.000Z</time>
</trkpt>
<trkpt lat="46.1343010" lon="10.1617410">
	<ele>1807.40</ele>
	<time>2024-09-06T08:53:40.000Z</time>
</trkpt>
<trkpt lat="46.1343130" lon="10.1617410">
	<ele>1807.20</ele>
	<time>2024-09-06T08:53:41.000Z</time>
</trkpt>
<trkpt lat="46.1343260" lon="10.1617410">
	<ele>1807.00</ele>
	<time>2024-09-06T08:53:42.000Z</time>
</trkpt>
<trkpt lat="46.1343390" lon="10.1617390">
	<ele>1806.80</ele>
	<time>2024-09-06T08:53:43.000Z</time>
</trkpt>
<trkpt lat="46.1343520" lon="10.1617380">
	<ele>1806.60</ele>
	<time>2024-09-06T08:53:44.000Z</time>
</trkpt>
<trkpt lat="46.1343670" lon="10.1617370">
	<ele>1806.60</ele>
	<time>2024-09-06T08:53:45.000Z</time>
</trkpt>
<trkpt lat="46.1343800" lon="10.1617360">
	<ele>1806.40</ele>
	<time>2024-09-06T08:53:46.000Z</time>
</trkpt>
<trkpt lat="46.1343930" lon="10.1617350">
	<ele>1806.40</ele>
	<time>2024-09-06T08:53:47.000Z</time>
</trkpt>
<trkpt lat="46.1344080" lon="10.1617350">
	<ele>1806.20</ele>
	<time>2024-09-06T08:53:48.000Z</time>
</trkpt>
<trkpt lat="46.1344190" lon="10.1617260">
	<ele>1806.20</ele>
	<time>2024-09-06T08:53:49.000Z</time>
</trkpt>
<trkpt lat="46.1344280" lon="10.1617190">
	<ele>1806.00</ele>
	<time>2024-09-06T08:53:50.000Z</time>
</trkpt>
<trkpt lat="46.1344370" lon="10.1617140">
	<ele>1806.00</ele>
	<time>2024-09-06T08:53:51.000Z</time>
</trkpt>
<trkpt lat="46.1344480" lon="10.1617100">
	<ele>1806.00</ele>
	<time>2024-09-06T08:53:52.000Z</time>
</trkpt>
<trkpt lat="46.1344600" lon="10.1617100">
	<ele>1806.00</ele>
	<time>2024-09-06T08:53:53.000Z</time>
</trkpt>
<trkpt lat="46.1344730" lon="10.1617080">
	<ele>1805.80</ele>
	<time>2024-09-06T08:53:54.000Z</time>
</trkpt>
<trkpt lat="46.1344850" lon="10.1617040">
	<ele>1805.60</ele>
	<time>2024-09-06T08:53:55.000Z</time>
</trkpt>
<trkpt lat="46.1344980" lon="10.1617010">
	<ele>1805.20</ele>
	<time>2024-09-06T08:53:56.000Z</time>
</trkpt>
<trkpt lat="46.1345100" lon="10.1616970">
	<ele>1805.00</ele>
	<time>2024-09-06T08:53:57.000Z</time>
</trkpt>
<trkpt lat="46.1345220" lon="10.1616920">
	<ele>1804.80</ele>
	<time>2024-09-06T08:53:58.000Z</time>
</trkpt>
<trkpt lat="46.1345370" lon="10.1616910">
	<ele>1804.40</ele>
	<time>2024-09-06T08:53:59.000Z</time>
</trkpt>
<trkpt lat="46.1345500" lon="10.1616880">
	<ele>1804.40</ele>
	<time>2024-09-06T08:54:00.000Z</time>
</trkpt>
<trkpt lat="46.1345600" lon="10.1616820">
	<ele>1803.80</ele>
	<time>2024-09-06T08:54:01.000Z</time>
</trkpt>
<trkpt lat="46.1345710" lon="10.1616780">
	<ele>1803.60</ele>
	<time>2024-09-06T08:54:02.000Z</time>
</trkpt>
<trkpt lat="46.1345860" lon="10.1616760">
	<ele>1803.40</ele>
	<time>2024-09-06T08:54:03.000Z</time>
</trkpt>
<trkpt lat="46.1345980" lon="10.1616760">
	<ele>1803.00</ele>
	<time>2024-09-06T08:54:04.000Z</time>
</trkpt>
<trkpt lat="46.1346110" lon="10.1616730">
	<ele>1802.80</ele>
	<time>2024-09-06T08:54:05.000Z</time>
</trkpt>
<trkpt lat="46.1346260" lon="10.1616710">
	<ele>1802.40</ele>
	<time>2024-09-06T08:54:06.000Z</time>
</trkpt>
<trkpt lat="46.1346390" lon="10.1616640">
	<ele>1802.40</ele>
	<time>2024-09-06T08:54:07.000Z</time>
</trkpt>
<trkpt lat="46.1346460" lon="10.1616520">
	<ele>1802.20</ele>
	<time>2024-09-06T08:54:08.000Z</time>
</trkpt>
<trkpt lat="46.1346540" lon="10.1616390">
	<ele>1801.80</ele>
	<time>2024-09-06T08:54:09.000Z</time>
</trkpt>
<trkpt lat="46.1346650" lon="10.1616290">
	<ele>1801.40</ele>
	<time>2024-09-06T08:54:10.000Z</time>
</trkpt>
<trkpt lat="46.1346740" lon="10.1616210">
	<ele>1801.00</ele>
	<time>2024-09-06T08:54:11.000Z</time>
</trkpt>
<trkpt lat="46.1346820" lon="10.1616140">
	<ele>1800.80</ele>
	<time>2024-09-06T08:54:12.000Z</time>
</trkpt>
<trkpt lat="46.1346910" lon="10.1616100">
	<ele>1800.60</ele>
	<time>2024-09-06T08:54:13.000Z</time>
</trkpt>
<trkpt lat="46.1346990" lon="10.1616070">
	<ele>1800.40</ele>
	<time>2024-09-06T08:54:14.000Z</time>
</trkpt>
<trkpt lat="46.1347030" lon="10.1616090">
	<ele>1800.00</ele>
	<time>2024-09-06T08:54:15.000Z</time>
</trkpt>
<trkpt lat="46.1347080" lon="10.1615970">
	<ele>1799.80</ele>
	<time>2024-09-06T08:54:16.000Z</time>
</trkpt>
<trkpt lat="46.1347170" lon="10.1615900">
	<ele>1799.60</ele>
	<time>2024-09-06T08:54:17.000Z</time>
</trkpt>
<trkpt lat="46.1347300" lon="10.1615860">
	<ele>1799.40</ele>
	<time>2024-09-06T08:54:18.000Z</time>
</trkpt>
<trkpt lat="46.1347370" lon="10.1615790">
	<ele>1799.00</ele>
	<time>2024-09-06T08:54:19.000Z</time>
</trkpt>
<trkpt lat="46.1347490" lon="10.1615650">
	<ele>1798.80</ele>
	<time>2024-09-06T08:54:20.000Z</time>
</trkpt>
<trkpt lat="46.1347530" lon="10.1615670">
	<ele>1798.40</ele>
	<time>2024-09-06T08:54:21.000Z</time>
</trkpt>
<trkpt lat="46.1347580" lon="10.1615700">
	<ele>1798.20</ele>
	<time>2024-09-06T08:54:22.000Z</time>
</trkpt>
<trkpt lat="46.1347600" lon="10.1615720">
	<ele>1797.80</ele>
	<time>2024-09-06T08:54:23.000Z</time>
</trkpt>
<trkpt lat="46.1347620" lon="10.1615780">
	<ele>1797.80</ele>
	<time>2024-09-06T08:54:24.000Z</time>
</trkpt>
<trkpt lat="46.1347650" lon="10.1615830">
	<ele>1797.60</ele>
	<time>2024-09-06T08:54:25.000Z</time>
</trkpt>
<trkpt lat="46.1347680" lon="10.1615860">
	<ele>1797.60</ele>
	<time>2024-09-06T08:54:26.000Z</time>
</trkpt>
<trkpt lat="46.1347700" lon="10.1615850">
	<ele>1797.40</ele>
	<time>2024-09-06T08:54:27.000Z</time>
</trkpt>
<trkpt lat="46.1347740" lon="10.1615810">
	<ele>1797.40</ele>
	<time>2024-09-06T08:54:28.000Z</time>
</trkpt>
<trkpt lat="46.1347830" lon="10.1615760">
	<ele>1797.20</ele>
	<time>2024-09-06T08:54:29.000Z</time>
</trkpt>
<trkpt lat="46.1347930" lon="10.1615750">
	<ele>1797.20</ele>
	<time>2024-09-06T08:54:30.000Z</time>
</trkpt>
<trkpt lat="46.1348040" lon="10.1615770">
	<ele>1797.20</ele>
	<time>2024-09-06T08:54:31.000Z</time>
</trkpt>
<trkpt lat="46.1348100" lon="10.1615810">
	<ele>1797.00</ele>
	<time>2024-09-06T08:54:32.000Z</time>
</trkpt>
<trkpt lat="46.1348200" lon="10.1615870">
	<ele>1796.80</ele>
	<time>2024-09-06T08:54:33.000Z</time>
</trkpt>
<trkpt lat="46.1348300" lon="10.1615970">
	<ele>1796.60</ele>
	<time>2024-09-06T08:54:34.000Z</time>
</trkpt>
<trkpt lat="46.1348410" lon="10.1616080">
	<ele>1796.40</ele>
	<time>2024-09-06T08:54:35.000Z</time>
</trkpt>
<trkpt lat="46.1348490" lon="10.1616200">
	<ele>1796.20</ele>
	<time>2024-09-06T08:54:36.000Z</time>
</trkpt>
<trkpt lat="46.1348590" lon="10.1616220">
	<ele>1795.80</ele>
	<time>2024-09-06T08:54:37.000Z</time>
</trkpt>
<trkpt lat="46.1348690" lon="10.1616290">
	<ele>1795.60</ele>
	<time>2024-09-06T08:54:38.000Z</time>
</trkpt>
<trkpt lat="46.1348800" lon="10.1616420">
	<ele>1795.40</ele>
	<time>2024-09-06T08:54:39.000Z</time>
</trkpt>
<trkpt lat="46.1348930" lon="10.1616560">
	<ele>1795.00</ele>
	<time>2024-09-06T08:54:40.000Z</time>
</trkpt>
<trkpt lat="46.1349010" lon="10.1616660">
	<ele>1794.80</ele>
	<time>2024-09-06T08:54:41.000Z</time>
</trkpt>
<trkpt lat="46.1349100" lon="10.1616800">
	<ele>1794.60</ele>
	<time>2024-09-06T08:54:42.000Z</time>
</trkpt>
<trkpt lat="46.1349170" lon="10.1617020">
	<ele>1794.40</ele>
	<time>2024-09-06T08:54:43.000Z</time>
</trkpt>
<trkpt lat="46.1349230" lon="10.1617210">
	<ele>1794.20</ele>
	<time>2024-09-06T08:54:44.000Z</time>
</trkpt>
<trkpt lat="46.1349270" lon="10.1617390">
	<ele>1794.00</ele>
	<time>2024-09-06T08:54:45.000Z</time>
</trkpt>
<trkpt lat="46.1349310" lon="10.1617570">
	<ele>1793.60</ele>
	<time>2024-09-06T08:54:46.000Z</time>
</trkpt>
<trkpt lat="46.1349360" lon="10.1617700">
	<ele>1793.40</ele>
	<time>2024-09-06T08:54:47.000Z</time>
</trkpt>
<trkpt lat="46.1349420" lon="10.1617840">
	<ele>1793.00</ele>
	<time>2024-09-06T08:54:48.000Z</time>
</trkpt>
<trkpt lat="46.1349510" lon="10.1617930">
	<ele>1793.00</ele>
	<time>2024-09-06T08:54:49.000Z</time>
</trkpt>
<trkpt lat="46.1349600" lon="10.1618030">
	<ele>1792.60</ele>
	<time>2024-09-06T08:54:50.000Z</time>
</trkpt>
<trkpt lat="46.1349690" lon="10.1618130">
	<ele>1792.40</ele>
	<time>2024-09-06T08:54:51.000Z</time>
</trkpt>
<trkpt lat="46.1349780" lon="10.1618220">
	<ele>1792.00</ele>
	<time>2024-09-06T08:54:52.000Z</time>
</trkpt>
<trkpt lat="46.1349910" lon="10.1618310">
	<ele>1791.80</ele>
	<time>2024-09-06T08:54:53.000Z</time>
</trkpt>
<trkpt lat="46.1350020" lon="10.1618380">
	<ele>1791.40</ele>
	<time>2024-09-06T08:54:54.000Z</time>
</trkpt>
<trkpt lat="46.1350100" lon="10.1618470">
	<ele>1791.20</ele>
	<time>2024-09-06T08:54:55.000Z</time>
</trkpt>
<trkpt lat="46.1350190" lon="10.1618560">
	<ele>1791.00</ele>
	<time>2024-09-06T08:54:56.000Z</time>
</trkpt>
<trkpt lat="46.1350250" lon="10.1618670">
	<ele>1790.60</ele>
	<time>2024-09-06T08:54:57.000Z</time>
</trkpt>
<trkpt lat="46.1350320" lon="10.1618770">
	<ele>1790.40</ele>
	<time>2024-09-06T08:54:58.000Z</time>
</trkpt>
<trkpt lat="46.1350390" lon="10.1618860">
	<ele>1790.20</ele>
	<time>2024-09-06T08:54:59.000Z</time>
</trkpt>
<trkpt lat="46.1350450" lon="10.1618960">
	<ele>1790.00</ele>
	<time>2024-09-06T08:55:00.000Z</time>
</trkpt>
<trkpt lat="46.1350500" lon="10.1619030">
	<ele>1789.60</ele>
	<time>2024-09-06T08:55:01.000Z</time>
</trkpt>
<trkpt lat="46.1350570" lon="10.1619150">
	<ele>1789.40</ele>
	<time>2024-09-06T08:55:02.000Z</time>
</trkpt>
<trkpt lat="46.1350640" lon="10.1619260">
	<ele>1789.00</ele>
	<time>2024-09-06T08:55:03.000Z</time>
</trkpt>
<trkpt lat="46.1350720" lon="10.1619300">
	<ele>1788.60</ele>
	<time>2024-09-06T08:55:04.000Z</time>
</trkpt>
<trkpt lat="46.1350790" lon="10.1619360">
	<ele>1788.40</ele>
	<time>2024-09-06T08:55:05.000Z</time>
</trkpt>
<trkpt lat="46.1350860" lon="10.1619400">
	<ele>1788.00</ele>
	<time>2024-09-06T08:55:06.000Z</time>
</trkpt>
<trkpt lat="46.1350960" lon="10.1619480">
	<ele>1787.80</ele>
	<time>2024-09-06T08:55:07.000Z</time>
</trkpt>
<trkpt lat="46.1351020" lon="10.1619570">
	<ele>1787.40</ele>
	<time>2024-09-06T08:55:08.000Z</time>
</trkpt>
<trkpt lat="46.1351100" lon="10.1619650">
	<ele>1787.20</ele>
	<time>2024-09-06T08:55:09.000Z</time>
</trkpt>
<trkpt lat="46.1351150" lon="10.1619760">
	<ele>1786.80</ele>
	<time>2024-09-06T08:55:10.000Z</time>
</trkpt>
<trkpt lat="46.1351170" lon="10.1619850">
	<ele>1786.60</ele>
	<time>2024-09-06T08:55:11.000Z</time>
</trkpt>
<trkpt lat="46.1351220" lon="10.1619960">
	<ele>1786.40</ele>
	<time>2024-09-06T08:55:12.000Z</time>
</trkpt>
<trkpt lat="46.1351270" lon="10.1619970">
	<ele>1786.00</ele>
	<time>2024-09-06T08:55:13.000Z</time>
</trkpt>
<trkpt lat="46.1351340" lon="10.1620040">
	<ele>1785.60</ele>
	<time>2024-09-06T08:55:14.000Z</time>
</trkpt>
<trkpt lat="46.1351390" lon="10.1620170">
	<ele>1785.20</ele>
	<time>2024-09-06T08:55:15.000Z</time>
</trkpt>
<trkpt lat="46.1351450" lon="10.1620240">
	<ele>1785.00</ele>
	<time>2024-09-06T08:55:16.000Z</time>
</trkpt>
<trkpt lat="46.1351520" lon="10.1620310">
	<ele>1784.60</ele>
	<time>2024-09-06T08:55:17.000Z</time>
</trkpt>
<trkpt lat="46.1351590" lon="10.1620310">
	<ele>1784.40</ele>
	<time>2024-09-06T08:55:18.000Z</time>
</trkpt>
<trkpt lat="46.1351700" lon="10.1620320">
	<ele>1784.20</ele>
	<time>2024-09-06T08:55:19.000Z</time>
</trkpt>
<trkpt lat="46.1351800" lon="10.1620370">
	<ele>1784.00</ele>
	<time>2024-09-06T08:55:20.000Z</time>
</trkpt>
<trkpt lat="46.1351880" lon="10.1620430">
	<ele>1783.60</ele>
	<time>2024-09-06T08:55:21.000Z</time>
</trkpt>
<trkpt lat="46.1351990" lon="10.1620500">
	<ele>1783.20</ele>
	<time>2024-09-06T08:55:22.000Z</time>
</trkpt>
<trkpt lat="46.1352090" lon="10.1620530">
	<ele>1782.80</ele>
	<time>2024-09-06T08:55:23.000Z</time>
</trkpt>
<trkpt lat="46.1352200" lon="10.1620540">
	<ele>1782.60</ele>
	<time>2024-09-06T08:55:24.000Z</time>
</trkpt>
<trkpt lat="46.1352280" lon="10.1620500">
	<ele>1782.40</ele>
	<time>2024-09-06T08:55:25.000Z</time>
</trkpt>
<trkpt lat="46.1352380" lon="10.1620480">
	<ele>1782.00</ele>
	<time>2024-09-06T08:55:26.000Z</time>
</trkpt>
<trkpt lat="46.1352480" lon="10.1620500">
	<ele>1781.80</ele>
	<time>2024-09-06T08:55:27.000Z</time>
</trkpt>
<trkpt lat="46.1352550" lon="10.1620550">
	<ele>1781.40</ele>
	<time>2024-09-06T08:55:28.000Z</time>
</trkpt>
<trkpt lat="46.1352610" lon="10.1620630">
	<ele>1781.00</ele>
	<time>2024-09-06T08:55:29.000Z</time>
</trkpt>
<trkpt lat="46.1352670" lon="10.1620680">
	<ele>1780.80</ele>
	<time>2024-09-06T08:55:30.000Z</time>
</trkpt>
<trkpt lat="46.1352690" lon="10.1620700">
	<ele>1780.40</ele>
	<time>2024-09-06T08:55:31.000Z</time>
</trkpt>
<trkpt lat="46.1352700" lon="10.1620710">
	<ele>1780.20</ele>
	<time>2024-09-06T08:55:32.000Z</time>
</trkpt>
<trkpt lat="46.1352710" lon="10.1620730">
	<ele>1780.00</ele>
	<time>2024-09-06T08:55:33.000Z</time>
</trkpt>
<trkpt lat="46.1352700" lon="10.1620720">
	<ele>1779.80</ele>
	<time>2024-09-06T08:55:34.000Z</time>
</trkpt>
<trkpt lat="46.1352710" lon="10.1620710">
	<ele>1779.80</ele>
	<time>2024-09-06T08:55:35.000Z</time>
</trkpt>
<trkpt lat="46.1352710" lon="10.1620690">
	<ele>1779.80</ele>
	<time>2024-09-06T08:55:36.000Z</time>
</trkpt>
<trkpt lat="46.1352680" lon="10.1620650">
	<ele>1779.80</ele>
	<time>2024-09-06T08:55:37.000Z</time>
</trkpt>
<trkpt lat="46.1352700" lon="10.1620640">
	<ele>1779.80</ele>
	<time>2024-09-06T08:55:38.000Z</time>
</trkpt>
<trkpt lat="46.1352760" lon="10.1620610">
	<ele>1779.80</ele>
	<time>2024-09-06T08:55:39.000Z</time>
</trkpt>
<trkpt lat="46.1352850" lon="10.1620600">
	<ele>1779.60</ele>
	<time>2024-09-06T08:55:40.000Z</time>
</trkpt>
<trkpt lat="46.1352950" lon="10.1620630">
	<ele>1779.40</ele>
	<time>2024-09-06T08:55:41.000Z</time>
</trkpt>
<trkpt lat="46.1353070" lon="10.1620680">
	<ele>1779.40</ele>
	<time>2024-09-06T08:55:42.000Z</time>
</trkpt>
<trkpt lat="46.1353180" lon="10.1620730">
	<ele>1779.00</ele>
	<time>2024-09-06T08:55:43.000Z</time>
</trkpt>
<trkpt lat="46.1353290" lon="10.1620780">
	<ele>1778.80</ele>
	<time>2024-09-06T08:55:44.000Z</time>
</trkpt>
<trkpt lat="46.1353410" lon="10.1620840">
	<ele>1778.60</ele>
	<time>2024-09-06T08:55:45.000Z</time>
</trkpt>
<trkpt lat="46.1353530" lon="10.1620900">
	<ele>1778.40</ele>
	<time>2024-09-06T08:55:46.000Z</time>
</trkpt>
<trkpt lat="46.1353650" lon="10.1620940">
	<ele>1778.40</ele>
	<time>2024-09-06T08:55:47.000Z</time>
</trkpt>
<trkpt lat="46.1353770" lon="10.1620960">
	<ele>1778.20</ele>
	<time>2024-09-06T08:55:48.000Z</time>
</trkpt>
<trkpt lat="46.1353900" lon="10.1621020">
	<ele>1778.20</ele>
	<time>2024-09-06T08:55:49.000Z</time>
</trkpt>
<trkpt lat="46.1354030" lon="10.1621090">
	<ele>1778.00</ele>
	<time>2024-09-06T08:55:50.000Z</time>
</trkpt>
<trkpt lat="46.1354100" lon="10.1621120">
	<ele>1777.80</ele>
	<time>2024-09-06T08:55:51.000Z</time>
</trkpt>
<trkpt lat="46.1354170" lon="10.1621140">
	<ele>1777.60</ele>
	<time>2024-09-06T08:55:52.000Z</time>
</trkpt>
<trkpt lat="46.1354250" lon="10.1621190">
	<ele>1777.40</ele>
	<time>2024-09-06T08:55:53.000Z</time>
</trkpt>
<trkpt lat="46.1354350" lon="10.1621190">
	<ele>1777.20</ele>
	<time>2024-09-06T08:55:54.000Z</time>
</trkpt>
<trkpt lat="46.1354470" lon="10.1621190">
	<ele>1777.20</ele>
	<time>2024-09-06T08:55:55.000Z</time>
</trkpt>
<trkpt lat="46.1354620" lon="10.1621240">
	<ele>1777.20</ele>
	<time>2024-09-06T08:55:56.000Z</time>
</trkpt>
<trkpt lat="46.1354760" lon="10.1621320">
	<ele>1777.00</ele>
	<time>2024-09-06T08:55:57.000Z</time>
</trkpt>
<trkpt lat="46.1354870" lon="10.1621360">
	<ele>1776.80</ele>
	<time>2024-09-06T08:55:58.000Z</time>
</trkpt>
<trkpt lat="46.1354980" lon="10.1621350">
	<ele>1776.80</ele>
	<time>2024-09-06T08:55:59.000Z</time>
</trkpt>
<trkpt lat="46.1355130" lon="10.1621350">
	<ele>1776.60</ele>
	<time>2024-09-06T08:56:00.000Z</time>
</trkpt>
<trkpt lat="46.1355270" lon="10.1621390">
	<ele>1776.40</ele>
	<time>2024-09-06T08:56:01.000Z</time>
</trkpt>
<trkpt lat="46.1355410" lon="10.1621470">
	<ele>1776.20</ele>
	<time>2024-09-06T08:56:02.000Z</time>
</trkpt>
<trkpt lat="46.1355550" lon="10.1621520">
	<ele>1776.00</ele>
	<time>2024-09-06T08:56:03.000Z</time>
</trkpt>
<trkpt lat="46.1355680" lon="10.1621580">
	<ele>1775.80</ele>
	<time>2024-09-06T08:56:04.000Z</time>
</trkpt>
<trkpt lat="46.1355770" lon="10.1621680">
	<ele>1775.60</ele>
	<time>2024-09-06T08:56:05.000Z</time>
</trkpt>
<trkpt lat="46.1355870" lon="10.1621750">
	<ele>1775.40</ele>
	<time>2024-09-06T08:56:06.000Z</time>
</trkpt>
<trkpt lat="46.1355980" lon="10.1621800">
	<ele>1775.20</ele>
	<time>2024-09-06T08:56:07.000Z</time>
</trkpt>
<trkpt lat="46.1356100" lon="10.1621820">
	<ele>1775.00</ele>
	<time>2024-09-06T08:56:08.000Z</time>
</trkpt>
<trkpt lat="46.1356210" lon="10.1621840">
	<ele>1774.80</ele>
	<time>2024-09-06T08:56:09.000Z</time>
</trkpt>
<trkpt lat="46.1356310" lon="10.1621860">
	<ele>1774.40</ele>
	<time>2024-09-06T08:56:10.000Z</time>
</trkpt>
<trkpt lat="46.1356420" lon="10.1621910">
	<ele>1774.00</ele>
	<time>2024-09-06T08:56:11.000Z</time>
</trkpt>
<trkpt lat="46.1356530" lon="10.1621950">
	<ele>1773.80</ele>
	<time>2024-09-06T08:56:12.000Z</time>
</trkpt>
<trkpt lat="46.1356640" lon="10.1622010">
	<ele>1773.40</ele>
	<time>2024-09-06T08:56:13.000Z</time>
</trkpt>
<trkpt lat="46.1356740" lon="10.1622080">
	<ele>1773.40</ele>
	<time>2024-09-06T08:56:14.000Z</time>
</trkpt>
<trkpt lat="46.1356830" lon="10.1622120">
	<ele>1773.00</ele>
	<time>2024-09-06T08:56:15.000Z</time>
</trkpt>
<trkpt lat="46.1356920" lon="10.1622140">
	<ele>1772.80</ele>
	<time>2024-09-06T08:56:16.000Z</time>
</trkpt>
<trkpt lat="46.1357030" lon="10.1622170">
	<ele>1772.60</ele>
	<time>2024-09-06T08:56:17.000Z</time>
</trkpt>
<trkpt lat="46.1357140" lon="10.1622250">
	<ele>1772.20</ele>
	<time>2024-09-06T08:56:18.000Z</time>
</trkpt>
<trkpt lat="46.1357270" lon="10.1622290">
	<ele>1772.00</ele>
	<time>2024-09-06T08:56:19.000Z</time>
</trkpt>
<trkpt lat="46.1357380" lon="10.1622330">
	<ele>1771.80</ele>
	<time>2024-09-06T08:56:20.000Z</time>
</trkpt>
<trkpt lat="46.1357490" lon="10.1622370">
	<ele>1771.60</ele>
	<time>2024-09-06T08:56:21.000Z</time>
</trkpt>
<trkpt lat="46.1357610" lon="10.1622350">
	<ele>1771.20</ele>
	<time>2024-09-06T08:56:22.000Z</time>
</trkpt>
<trkpt lat="46.1357730" lon="10.1622350">
	<ele>1770.80</ele>
	<time>2024-09-06T08:56:23.000Z</time>
</trkpt>
<trkpt lat="46.1357850" lon="10.1622320">
	<ele>1770.60</ele>
	<time>2024-09-06T08:56:24.000Z</time>
</trkpt>
<trkpt lat="46.1357950" lon="10.1622310">
	<ele>1770.20</ele>
	<time>2024-09-06T08:56:25.000Z</time>
</trkpt>
<trkpt lat="46.1358040" lon="10.1622300">
	<ele>1770.00</ele>
	<time>2024-09-06T08:56:26.000Z</time>
</trkpt>
<trkpt lat="46.1358140" lon="10.1622320">
	<ele>1769.60</ele>
	<time>2024-09-06T08:56:27.000Z</time>
</trkpt>
<trkpt lat="46.1358240" lon="10.1622330">
	<ele>1769.40</ele>
	<time>2024-09-06T08:56:28.000Z</time>
</trkpt>
<trkpt lat="46.1358360" lon="10.1622330">
	<ele>1769.00</ele>
	<time>2024-09-06T08:56:29.000Z</time>
</trkpt>
<trkpt lat="46.1358470" lon="10.1622340">
	<ele>1769.00</ele>
	<time>2024-09-06T08:56:30.000Z</time>
</trkpt>
<trkpt lat="46.1358550" lon="10.1622350">
	<ele>1768.60</ele>
	<time>2024-09-06T08:56:31.000Z</time>
</trkpt>
<trkpt lat="46.1358660" lon="10.1622380">
	<ele>1768.40</ele>
	<time>2024-09-06T08:56:32.000Z</time>
</trkpt>
<trkpt lat="46.1358780" lon="10.1622370">
	<ele>1768.20</ele>
	<time>2024-09-06T08:56:33.000Z</time>
</trkpt>
<trkpt lat="46.1358940" lon="10.1622400">
	<ele>1768.00</ele>
	<time>2024-09-06T08:56:34.000Z</time>
</trkpt>
<trkpt lat="46.1359080" lon="10.1622430">
	<ele>1767.80</ele>
	<time>2024-09-06T08:56:35.000Z</time>
</trkpt>
<trkpt lat="46.1359200" lon="10.1622450">
	<ele>1767.40</ele>
	<time>2024-09-06T08:56:36.000Z</time>
</trkpt>
<trkpt lat="46.1359330" lon="10.1622460">
	<ele>1767.20</ele>
	<time>2024-09-06T08:56:37.000Z</time>
</trkpt>
<trkpt lat="46.1359430" lon="10.1622460">
	<ele>1766.80</ele>
	<time>2024-09-06T08:56:38.000Z</time>
</trkpt>
<trkpt lat="46.1359530" lon="10.1622440">
	<ele>1766.40</ele>
	<time>2024-09-06T08:56:39.000Z</time>
</trkpt>
<trkpt lat="46.1359620" lon="10.1622430">
	<ele>1766.20</ele>
	<time>2024-09-06T08:56:40.000Z</time>
</trkpt>
<trkpt lat="46.1359750" lon="10.1622440">
	<ele>1766.00</ele>
	<time>2024-09-06T08:56:41.000Z</time>
</trkpt>
<trkpt lat="46.1359890" lon="10.1622450">
	<ele>1765.80</ele>
	<time>2024-09-06T08:56:42.000Z</time>
</trkpt>
<trkpt lat="46.1360010" lon="10.1622470">
	<ele>1765.40</ele>
	<time>2024-09-06T08:56:43.000Z</time>
</trkpt>
<trkpt lat="46.1360140" lon="10.1622500">
	<ele>1765.20</ele>
	<time>2024-09-06T08:56:44.000Z</time>
</trkpt>
<trkpt lat="46.1360260" lon="10.1622520">
	<ele>1764.80</ele>
	<time>2024-09-06T08:56:45.000Z</time>
</trkpt>
<trkpt lat="46.1360370" lon="10.1622540">
	<ele>1764.60</ele>
	<time>2024-09-06T08:56:46.000Z</time>
</trkpt>
<trkpt lat="46.1360480" lon="10.1622550">
	<ele>1764.40</ele>
	<time>2024-09-06T08:56:47.000Z</time>
</trkpt>
<trkpt lat="46.1360600" lon="10.1622590">
	<ele>1764.20</ele>
	<time>2024-09-06T08:56:48.000Z</time>
</trkpt>
<trkpt lat="46.1360720" lon="10.1622610">
	<ele>1764.20</ele>
	<time>2024-09-06T08:56:49.000Z</time>
</trkpt>
<trkpt lat="46.1360850" lon="10.1622640">
	<ele>1764.00</ele>
	<time>2024-09-06T08:56:50.000Z</time>
</trkpt>
<trkpt lat="46.1360980" lon="10.1622710">
	<ele>1763.60</ele>
	<time>2024-09-06T08:56:51.000Z</time>
</trkpt>
<trkpt lat="46.1361060" lon="10.1622840">
	<ele>1763.20</ele>
	<time>2024-09-06T08:56:52.000Z</time>
</trkpt>
<trkpt lat="46.1361150" lon="10.1622930">
	<ele>1763.00</ele>
	<time>2024-09-06T08:56:53.000Z</time>
</trkpt>
<trkpt lat="46.1361250" lon="10.1623010">
	<ele>1762.80</ele>
	<time>2024-09-06T08:56:54.000Z</time>
</trkpt>
<trkpt lat="46.1361360" lon="10.1623120">
	<ele>1762.60</ele>
	<time>2024-09-06T08:56:55.000Z</time>
</trkpt>
<trkpt lat="46.1361480" lon="10.1623240">
	<ele>1762.60</ele>
	<time>2024-09-06T08:56:56.000Z</time>
</trkpt>
<trkpt lat="46.1361600" lon="10.1623330">
	<ele>1762.20</ele>
	<time>2024-09-06T08:56:57.000Z</time>
</trkpt>
<trkpt lat="46.1361730" lon="10.1623390">
	<ele>1762.00</ele>
	<time>2024-09-06T08:56:58.000Z</time>
</trkpt>
<trkpt lat="46.1361850" lon="10.1623430">
	<ele>1761.80</ele>
	<time>2024-09-06T08:56:59.000Z</time>
</trkpt>
<trkpt lat="46.1362000" lon="10.1623500">
	<ele>1761.60</ele>
	<time>2024-09-06T08:57:00.000Z</time>
</trkpt>
<trkpt lat="46.1362130" lon="10.1623570">
	<ele>1761.40</ele>
	<time>2024-09-06T08:57:01.000Z</time>
</trkpt>
<trkpt lat="46.1362230" lon="10.1623640">
	<ele>1761.00</ele>
	<time>2024-09-06T08:57:02.000Z</time>
</trkpt>
<trkpt lat="46.1362380" lon="10.1623710">
	<ele>1760.80</ele>
	<time>2024-09-06T08:57:03.000Z</time>
</trkpt>
<trkpt lat="46.1362520" lon="10.1623740">
	<ele>1760.60</ele>
	<time>2024-09-06T08:57:04.000Z</time>
</trkpt>
<trkpt lat="46.1362670" lon="10.1623720">
	<ele>1760.60</ele>
	<time>2024-09-06T08:57:05.000Z</time>
</trkpt>
<trkpt lat="46.1362790" lon="10.1623710">
	<ele>1760.40</ele>
	<time>2024-09-06T08:57:06.000Z</time>
</trkpt>
<trkpt lat="46.1362940" lon="10.1623700">
	<ele>1760.40</ele>
	<time>2024-09-06T08:57:07.000Z</time>
</trkpt>
<trkpt lat="46.1363080" lon="10.1623710">
	<ele>1760.00</ele>
	<time>2024-09-06T08:57:08.000Z</time>
</trkpt>
<trkpt lat="46.1363200" lon="10.1623720">
	<ele>1759.60</ele>
	<time>2024-09-06T08:57:09.000Z</time>
</trkpt>
<trkpt lat="46.1363330" lon="10.1623700">
	<ele>1759.40</ele>
	<time>2024-09-06T08:57:10.000Z</time>
</trkpt>
<trkpt lat="46.1363450" lon="10.1623680">
	<ele>1759.20</ele>
	<time>2024-09-06T08:57:11.000Z</time>
</trkpt>
<trkpt lat="46.1363580" lon="10.1623660">
	<ele>1759.00</ele>
	<time>2024-09-06T08:57:12.000Z</time>
</trkpt>
<trkpt lat="46.1363710" lon="10.1623580">
	<ele>1758.80</ele>
	<time>2024-09-06T08:57:13.000Z</time>
</trkpt>
<trkpt lat="46.1363840" lon="10.1623530">
	<ele>1758.40</ele>
	<time>2024-09-06T08:57:14.000Z</time>
</trkpt>
<trkpt lat="46.1363960" lon="10.1623500">
	<ele>1758.40</ele>
	<time>2024-09-06T08:57:15.000Z</time>
</trkpt>
<trkpt lat="46.1364090" lon="10.1623470">
	<ele>1758.20</ele>
	<time>2024-09-06T08:57:16.000Z</time>
</trkpt>
<trkpt lat="46.1364220" lon="10.1623450">
	<ele>1758.00</ele>
	<time>2024-09-06T08:57:17.000Z</time>
</trkpt>
<trkpt lat="46.1364360" lon="10.1623440">
	<ele>1758.00</ele>
	<time>2024-09-06T08:57:18.000Z</time>
</trkpt>
<trkpt lat="46.1364470" lon="10.1623460">
	<ele>1757.60</ele>
	<time>2024-09-06T08:57:19.000Z</time>
</trkpt>
<trkpt lat="46.1364600" lon="10.1623500">
	<ele>1757.40</ele>
	<time>2024-09-06T08:57:20.000Z</time>
</trkpt>
<trkpt lat="46.1364710" lon="10.1623550">
	<ele>1757.00</ele>
	<time>2024-09-06T08:57:21.000Z</time>
</trkpt>
<trkpt lat="46.1364840" lon="10.1623610">
	<ele>1756.80</ele>
	<time>2024-09-06T08:57:22.000Z</time>
</trkpt>
<trkpt lat="46.1364950" lon="10.1623650">
	<ele>1756.60</ele>
	<time>2024-09-06T08:57:23.000Z</time>
</trkpt>
<trkpt lat="46.1365080" lon="10.1623710">
	<ele>1756.20</ele>
	<time>2024-09-06T08:57:24.000Z</time>
</trkpt>
<trkpt lat="46.1365200" lon="10.1623740">
	<ele>1756.00</ele>
	<time>2024-09-06T08:57:25.000Z</time>
</trkpt>
<trkpt lat="46.1365320" lon="10.1623780">
	<ele>1756.00</ele>
	<time>2024-09-06T08:57:26.000Z</time>
</trkpt>
<trkpt lat="46.1365460" lon="10.1623870">
	<ele>1755.40</ele>
	<time>2024-09-06T08:57:27.000Z</time>
</trkpt>
<trkpt lat="46.1365620" lon="10.1623950">
	<ele>1755.20</ele>
	<time>2024-09-06T08:57:28.000Z</time>
</trkpt>
<trkpt lat="46.1365750" lon="10.1624000">
	<ele>1755.00</ele>
	<time>2024-09-06T08:57:29.000Z</time>
</trkpt>
<trkpt lat="46.1365890" lon="10.1624040">
	<ele>1754.80</ele>
	<time>2024-09-06T08:57:30.000Z</time>
</trkpt>
<trkpt lat="46.1366010" lon="10.1624090">
	<ele>1754.80</ele>
	<time>2024-09-06T08:57:31.000Z</time>
</trkpt>
<trkpt lat="46.1366080" lon="10.1624030">
	<ele>1754.60</ele>
	<time>2024-09-06T08:57:32.000Z</time>
</trkpt>
<trkpt lat="46.1366170" lon="10.1624010">
	<ele>1754.40</ele>
	<time>2024-09-06T08:57:33.000Z</time>
</trkpt>
<trkpt lat="46.1366260" lon="10.1624030">
	<ele>1754.20</ele>
	<time>2024-09-06T08:57:34.000Z</time>
</trkpt>
<trkpt lat="46.1366350" lon="10.1624050">
	<ele>1754.00</ele>
	<time>2024-09-06T08:57:35.000Z</time>
</trkpt>
<trkpt lat="46.1366460" lon="10.1624080">
	<ele>1753.80</ele>
	<time>2024-09-06T08:57:36.000Z</time>
</trkpt>
<trkpt lat="46.1366590" lon="10.1624130">
	<ele>1753.40</ele>
	<time>2024-09-06T08:57:37.000Z</time>
</trkpt>
<trkpt lat="46.1366720" lon="10.1624140">
	<ele>1752.80</ele>
	<time>2024-09-06T08:57:38.000Z</time>
</trkpt>
<trkpt lat="46.1366840" lon="10.1624100">
	<ele>1752.40</ele>
	<time>2024-09-06T08:57:39.000Z</time>
</trkpt>
<trkpt lat="46.1366980" lon="10.1624050">
	<ele>1752.20</ele>
	<time>2024-09-06T08:57:40.000Z</time>
</trkpt>
<trkpt lat="46.1367080" lon="10.1624040">
	<ele>1751.80</ele>
	<time>2024-09-06T08:57:41.000Z</time>
</trkpt>
<trkpt lat="46.1367200" lon="10.1624050">
	<ele>1751.60</ele>
	<time>2024-09-06T08:57:42.000Z</time>
</trkpt>
<trkpt lat="46.1367310" lon="10.1624080">
	<ele>1751.20</ele>
	<time>2024-09-06T08:57:43.000Z</time>
</trkpt>
<trkpt lat="46.1367430" lon="10.1624120">
	<ele>1751.20</ele>
	<time>2024-09-06T08:57:44.000Z</time>
</trkpt>
<trkpt lat="46.1367570" lon="10.1624150">
	<ele>1750.80</ele>
	<time>2024-09-06T08:57:45.000Z</time>
</trkpt>
<trkpt lat="46.1367730" lon="10.1624160">
	<ele>1750.40</ele>
	<time>2024-09-06T08:57:46.000Z</time>
</trkpt>
<trkpt lat="46.1367870" lon="10.1624160">
	<ele>1750.20</ele>
	<time>2024-09-06T08:57:47.000Z</time>
</trkpt>
<trkpt lat="46.1367990" lon="10.1624150">
	<ele>1750.00</ele>
	<time>2024-09-06T08:57:48.000Z</time>
</trkpt>
<trkpt lat="46.1368130" lon="10.1624180">
	<ele>1749.80</ele>
	<time>2024-09-06T08:57:49.000Z</time>
</trkpt>
<trkpt lat="46.1368250" lon="10.1624210">
	<ele>1749.40</ele>
	<time>2024-09-06T08:57:50.000Z</time>
</trkpt>
<trkpt lat="46.1368380" lon="10.1624230">
	<ele>1749.20</ele>
	<time>2024-09-06T08:57:51.000Z</time>
</trkpt>
<trkpt lat="46.1368500" lon="10.1624210">
	<ele>1749.00</ele>
	<time>2024-09-06T08:57:52.000Z</time>
</trkpt>
<trkpt lat="46.1368620" lon="10.1624220">
	<ele>1748.80</ele>
	<time>2024-09-06T08:57:53.000Z</time>
</trkpt>
<trkpt lat="46.1368730" lon="10.1624220">
	<ele>1748.60</ele>
	<time>2024-09-06T08:57:54.000Z</time>
</trkpt>
<trkpt lat="46.1368870" lon="10.1624220">
	<ele>1748.60</ele>
	<time>2024-09-06T08:57:55.000Z</time>
</trkpt>
<trkpt lat="46.1369000" lon="10.1624230">
	<ele>1748.40</ele>
	<time>2024-09-06T08:57:56.000Z</time>
</trkpt>
<trkpt lat="46.1369140" lon="10.1624230">
	<ele>1748.20</ele>
	<time>2024-09-06T08:57:57.000Z</time>
</trkpt>
<trkpt lat="46.1369270" lon="10.1624160">
	<ele>1747.80</ele>
	<time>2024-09-06T08:57:58.000Z</time>
</trkpt>
<trkpt lat="46.1369360" lon="10.1624030">
	<ele>1747.40</ele>
	<time>2024-09-06T08:57:59.000Z</time>
</trkpt>
<trkpt lat="46.1369480" lon="10.1623920">
	<ele>1747.20</ele>
	<time>2024-09-06T08:58:00.000Z</time>
</trkpt>
<trkpt lat="46.1369610" lon="10.1623840">
	<ele>1747.00</ele>
	<time>2024-09-06T08:58:01.000Z</time>
</trkpt>
<trkpt lat="46.1369720" lon="10.1623730">
	<ele>1746.80</ele>
	<time>2024-09-06T08:58:02.000Z</time>
</trkpt>
<trkpt lat="46.1369850" lon="10.1623640">
	<ele>1746.60</ele>
	<time>2024-09-06T08:58:03.000Z</time>
</trkpt>
<trkpt lat="46.1369980" lon="10.1623600">
	<ele>1746.40</ele>
	<time>2024-09-06T08:58:04.000Z</time>
</trkpt>
<trkpt lat="46.1370110" lon="10.1623530">
	<ele>1746.00</ele>
	<time>2024-09-06T08:58:05.000Z</time>
</trkpt>
<trkpt lat="46.1370200" lon="10.1623410">
	<ele>1745.60</ele>
	<time>2024-09-06T08:58:06.000Z</time>
</trkpt>
<trkpt lat="46.1370310" lon="10.1623330">
	<ele>1745.40</ele>
	<time>2024-09-06T08:58:07.000Z</time>
</trkpt>
<trkpt lat="46.1370460" lon="10.1623290">
	<ele>1745.20</ele>
	<time>2024-09-06T08:58:08.000Z</time>
</trkpt>
<trkpt lat="46.1370590" lon="10.1623220">
	<ele>1744.80</ele>
	<time>2024-09-06T08:58:09.000Z</time>
</trkpt>
<trkpt lat="46.1370690" lon="10.1623110">
	<ele>1744.40</ele>
	<time>2024-09-06T08:58:10.000Z</time>
</trkpt>
<trkpt lat="46.1370740" lon="10.1622930">
	<ele>1744.20</ele>
	<time>2024-09-06T08:58:11.000Z</time>
</trkpt>
<trkpt lat="46.1370780" lon="10.1622740">
	<ele>1744.00</ele>
	<time>2024-09-06T08:58:12.000Z</time>
</trkpt>
<trkpt lat="46.1370840" lon="10.1622610">
	<ele>1743.60</ele>
	<time>2024-09-06T08:58:13.000Z</time>
</trkpt>
<trkpt lat="46.1370880" lon="10.1622490">
	<ele>1743.40</ele>
	<time>2024-09-06T08:58:14.000Z</time>
</trkpt>
<trkpt lat="46.1370920" lon="10.1622340">
	<ele>1743.00</ele>
	<time>2024-09-06T08:58:15.000Z</time>
</trkpt>
<trkpt lat="46.1370970" lon="10.1622250">
	<ele>1742.80</ele>
	<time>2024-09-06T08:58:16.000Z</time>
</trkpt>
<trkpt lat="46.1371050" lon="10.1622140">
	<ele>1742.60</ele>
	<time>2024-09-06T08:58:17.000Z</time>
</trkpt>
<trkpt lat="46.1371120" lon="10.1621990">
	<ele>1742.20</ele>
	<time>2024-09-06T08:58:18.000Z</time>
</trkpt>
<trkpt lat="46.1371220" lon="10.1621840">
	<ele>1742.00</ele>
	<time>2024-09-06T08:58:19.000Z</time>
</trkpt>
<trkpt lat="46.1371350" lon="10.1621800">
	<ele>1741.80</ele>
	<time>2024-09-06T08:58:20.000Z</time>
</trkpt>
<trkpt lat="46.1371460" lon="10.1621800">
	<ele>1741.60</ele>
	<time>2024-09-06T08:58:21.000Z</time>
</trkpt>
<trkpt lat="46.1371590" lon="10.1621760">
	<ele>1741.20</ele>
	<time>2024-09-06T08:58:22.000Z</time>
</trkpt>
<trkpt lat="46.1371680" lon="10.1621680">
	<ele>1741.00</ele>
	<time>2024-09-06T08:58:23.000Z</time>
</trkpt>
<trkpt lat="46.1371760" lon="10.1621630">
	<ele>1740.80</ele>
	<time>2024-09-06T08:58:24.000Z</time>
</trkpt>
<trkpt lat="46.1371840" lon="10.1621540">
	<ele>1740.40</ele>
	<time>2024-09-06T08:58:25.000Z</time>
</trkpt>
<trkpt lat="46.1371980" lon="10.1621440">
	<ele>1740.00</ele>
	<time>2024-09-06T08:58:26.000Z</time>
</trkpt>
<trkpt lat="46.1372110" lon="10.1621400">
	<ele>1739.60</ele>
	<time>2024-09-06T08:58:27.000Z</time>
</trkpt>
<trkpt lat="46.1372200" lon="10.1621270">
	<ele>1739.60</ele>
	<time>2024-09-06T08:58:28.000Z</time>
</trkpt>
<trkpt lat="46.1372330" lon="10.1621200">
	<ele>1739.20</ele>
	<time>2024-09-06T08:58:29.000Z</time>
</trkpt>
<trkpt lat="46.1372420" lon="10.1621110">
	<ele>1739.00</ele>
	<time>2024-09-06T08:58:30.000Z</time>
</trkpt>
<trkpt lat="46.1372510" lon="10.1621000">
	<ele>1738.60</ele>
	<time>2024-09-06T08:58:31.000Z</time>
</trkpt>
<trkpt lat="46.1372650" lon="10.1620900">
	<ele>1738.20</ele>
	<time>2024-09-06T08:58:32.000Z</time>
</trkpt>
<trkpt lat="46.1372780" lon="10.1620940">
	<ele>1737.80</ele>
	<time>2024-09-06T08:58:33.000Z</time>
</trkpt>
<trkpt lat="46.1372870" lon="10.1620890">
	<ele>1737.60</ele>
	<time>2024-09-06T08:58:34.000Z</time>
</trkpt>
<trkpt lat="46.1372930" lon="10.1620730">
	<ele>1737.40</ele>
	<time>2024-09-06T08:58:35.000Z</time>
</trkpt>
<trkpt lat="46.1372990" lon="10.1620600">
	<ele>1737.00</ele>
	<time>2024-09-06T08:58:36.000Z</time>
</trkpt>
<trkpt lat="46.1373070" lon="10.1620470">
	<ele>1736.60</ele>
	<time>2024-09-06T08:58:37.000Z</time>
</trkpt>
<trkpt lat="46.1373120" lon="10.1620390">
	<ele>1736.20</ele>
	<time>2024-09-06T08:58:38.000Z</time>
</trkpt>
<trkpt lat="46.1373160" lon="10.1620210">
	<ele>1736.00</ele>
	<time>2024-09-06T08:58:39.000Z</time>
</trkpt>
<trkpt lat="46.1373220" lon="10.1620080">
	<ele>1735.60</ele>
	<time>2024-09-06T08:58:40.000Z</time>
</trkpt>
<trkpt lat="46.1373250" lon="10.1619910">
	<ele>1735.40</ele>
	<time>2024-09-06T08:58:41.000Z</time>
</trkpt>
<trkpt lat="46.1373320" lon="10.1619710">
	<ele>1735.20</ele>
	<time>2024-09-06T08:58:42.000Z</time>
</trkpt>
<trkpt lat="46.1373400" lon="10.1619570">
	<ele>1735.00</ele>
	<time>2024-09-06T08:58:43.000Z</time>
</trkpt>
<trkpt lat="46.1373440" lon="10.1619410">
	<ele>1734.60</ele>
	<time>2024-09-06T08:58:44.000Z</time>
</trkpt>
<trkpt lat="46.1373510" lon="10.1619280">
	<ele>1734.40</ele>
	<time>2024-09-06T08:58:45.000Z</time>
</trkpt>
<trkpt lat="46.1373600" lon="10.1619160">
	<ele>1734.00</ele>
	<time>2024-09-06T08:58:46.000Z</time>
</trkpt>
<trkpt lat="46.1373650" lon="10.1619060">
	<ele>1733.80</ele>
	<time>2024-09-06T08:58:47.000Z</time>
</trkpt>
<trkpt lat="46.1373750" lon="10.1618990">
	<ele>1733.40</ele>
	<time>2024-09-06T08:58:48.000Z</time>
</trkpt>
<trkpt lat="46.1373860" lon="10.1618890">
	<ele>1733.00</ele>
	<time>2024-09-06T08:58:49.000Z</time>
</trkpt>
<trkpt lat="46.1373980" lon="10.1618840">
	<ele>1732.60</ele>
	<time>2024-09-06T08:58:50.000Z</time>
</trkpt>
<trkpt lat="46.1374100" lon="10.1618810">
	<ele>1732.20</ele>
	<time>2024-09-06T08:58:51.000Z</time>
</trkpt>
<trkpt lat="46.1374200" lon="10.1618730">
	<ele>1731.80</ele>
	<time>2024-09-06T08:58:52.000Z</time>
</trkpt>
<trkpt lat="46.1374320" lon="10.1618650">
	<ele>1731.40</ele>
	<time>2024-09-06T08:58:53.000Z</time>
</trkpt>
<trkpt lat="46.1374400" lon="10.1618540">
	<ele>1731.20</ele>
	<time>2024-09-06T08:58:54.000Z</time>
</trkpt>
<trkpt lat="46.1374490" lon="10.1618490">
	<ele>1730.80</ele>
	<time>2024-09-06T08:58:55.000Z</time>
</trkpt>
<trkpt lat="46.1374610" lon="10.1618440">
	<ele>1730.60</ele>
	<time>2024-09-06T08:58:56.000Z</time>
</trkpt>
<trkpt lat="46.1374700" lon="10.1618300">
	<ele>1730.20</ele>
	<time>2024-09-06T08:58:57.000Z</time>
</trkpt>
<trkpt lat="46.1374770" lon="10.1618130">
	<ele>1729.80</ele>
	<time>2024-09-06T08:58:58.000Z</time>
</trkpt>
<trkpt lat="46.1374820" lon="10.1618050">
	<ele>1729.80</ele>
	<time>2024-09-06T08:58:59.000Z</time>
</trkpt>
<trkpt lat="46.1374950" lon="10.1617920">
	<ele>1729.60</ele>
	<time>2024-09-06T08:59:00.000Z</time>
</trkpt>
<trkpt lat="46.1375060" lon="10.1617890">
	<ele>1729.40</ele>
	<time>2024-09-06T08:59:01.000Z</time>
</trkpt>
<trkpt lat="46.1375220" lon="10.1617770">
	<ele>1729.00</ele>
	<time>2024-09-06T08:59:02.000Z</time>
</trkpt>
<trkpt lat="46.1375290" lon="10.1617650">
	<ele>1728.80</ele>
	<time>2024-09-06T08:59:03.000Z</time>
</trkpt>
<trkpt lat="46.1375370" lon="10.1617530">
	<ele>1728.60</ele>
	<time>2024-09-06T08:59:04.000Z</time>
</trkpt>
<trkpt lat="46.1375480" lon="10.1617420">
	<ele>1728.20</ele>
	<time>2024-09-06T08:59:05.000Z</time>
</trkpt>
<trkpt lat="46.1375640" lon="10.1617390">
	<ele>1728.00</ele>
	<time>2024-09-06T08:59:06.000Z</time>
</trkpt>
<trkpt lat="46.1375860" lon="10.1617420">
	<ele>1727.80</ele>
	<time>2024-09-06T08:59:07.000Z</time>
</trkpt>
<trkpt lat="46.1375960" lon="10.1617390">
	<ele>1727.60</ele>
	<time>2024-09-06T08:59:08.000Z</time>
</trkpt>
<trkpt lat="46.1376060" lon="10.1617320">
	<ele>1727.20</ele>
	<time>2024-09-06T08:59:09.000Z</time>
</trkpt>
<trkpt lat="46.1376160" lon="10.1617290">
	<ele>1726.80</ele>
	<time>2024-09-06T08:59:10.000Z</time>
</trkpt>
<trkpt lat="46.1376190" lon="10.1617090">
	<ele>1726.40</ele>
	<time>2024-09-06T08:59:11.000Z</time>
</trkpt>
<trkpt lat="46.1376220" lon="10.1616920">
	<ele>1726.00</ele>
	<time>2024-09-06T08:59:12.000Z</time>
</trkpt>
<trkpt lat="46.1376320" lon="10.1616820">
	<ele>1725.60</ele>
	<time>2024-09-06T08:59:13.000Z</time>
</trkpt>
<trkpt lat="46.1376490" lon="10.1616830">
	<ele>1725.40</ele>
	<time>2024-09-06T08:59:14.000Z</time>
</trkpt>
<trkpt lat="46.1376610" lon="10.1616850">
	<ele>1725.00</ele>
	<time>2024-09-06T08:59:15.000Z</time>
</trkpt>
<trkpt lat="46.1376680" lon="10.1616760">
	<ele>1724.80</ele>
	<time>2024-09-06T08:59:16.000Z</time>
</trkpt>
<trkpt lat="46.1376770" lon="10.1616650">
	<ele>1724.40</ele>
	<time>2024-09-06T08:59:17.000Z</time>
</trkpt>
<trkpt lat="46.1376880" lon="10.1616530">
	<ele>1724.20</ele>
	<time>2024-09-06T08:59:18.000Z</time>
</trkpt>
<trkpt lat="46.1376980" lon="10.1616420">
	<ele>1724.00</ele>
	<time>2024-09-06T08:59:19.000Z</time>
</trkpt>
<trkpt lat="46.1377120" lon="10.1616400">
	<ele>1723.60</ele>
	<time>2024-09-06T08:59:20.000Z</time>
</trkpt>
<trkpt lat="46.1377250" lon="10.1616380">
	<ele>1723.40</ele>
	<time>2024-09-06T08:59:21.000Z</time>
</trkpt>
<trkpt lat="46.1377370" lon="10.1616350">
	<ele>1723.00</ele>
	<time>2024-09-06T08:59:22.000Z</time>
</trkpt>
<trkpt lat="46.1377540" lon="10.1616370">
	<ele>1722.80</ele>
	<time>2024-09-06T08:59:23.000Z</time>
</trkpt>
<trkpt lat="46.1377660" lon="10.1616320">
	<ele>1722.60</ele>
	<time>2024-09-06T08:59:24.000Z</time>
</trkpt>
<trkpt lat="46.1377770" lon="10.1616290">
	<ele>1722.20</ele>
	<time>2024-09-06T08:59:25.000Z</time>
</trkpt>
<trkpt lat="46.1377900" lon="10.1616220">
	<ele>1721.80</ele>
	<time>2024-09-06T08:59:26.000Z</time>
</trkpt>
<trkpt lat="46.1378030" lon="10.1616150">
	<ele>1721.40</ele>
	<time>2024-09-06T08:59:27.000Z</time>
</trkpt>
<trkpt lat="46.1378180" lon="10.1616090">
	<ele>1721.20</ele>
	<time>2024-09-06T08:59:28.000Z</time>
</trkpt>
<trkpt lat="46.1378330" lon="10.1616010">
	<ele>1721.00</ele>
	<time>2024-09-06T08:59:29.000Z</time>
</trkpt>
<trkpt lat="46.1378430" lon="10.1615880">
	<ele>1720.60</ele>
	<time>2024-09-06T08:59:30.000Z</time>
</trkpt>
<trkpt lat="46.1378540" lon="10.1615730">
	<ele>1720.40</ele>
	<time>2024-09-06T08:59:31.000Z</time>
</trkpt>
<trkpt lat="46.1378630" lon="10.1615640">
	<ele>1720.20</ele>
	<time>2024-09-06T08:59:32.000Z</time>
</trkpt>
<trkpt lat="46.1378710" lon="10.1615520">
	<ele>1720.20</ele>
	<time>2024-09-06T08:59:33.000Z</time>
</trkpt>
<trkpt lat="46.1378770" lon="10.1615410">
	<ele>1720.00</ele>
	<time>2024-09-06T08:59:34.000Z</time>
</trkpt>
<trkpt lat="46.1378860" lon="10.1615310">
	<ele>1719.40</ele>
	<time>2024-09-06T08:59:35.000Z</time>
</trkpt>
<trkpt lat="46.1379000" lon="10.1615220">
	<ele>1719.00</ele>
	<time>2024-09-06T08:59:36.000Z</time>
</trkpt>
<trkpt lat="46.1379100" lon="10.1615120">
	<ele>1718.60</ele>
	<time>2024-09-06T08:59:37.000Z</time>
</trkpt>
<trkpt lat="46.1379190" lon="10.1614990">
	<ele>1718.20</ele>
	<time>2024-09-06T08:59:38.000Z</time>
</trkpt>
<trkpt lat="46.1379300" lon="10.1614900">
	<ele>1717.80</ele>
	<time>2024-09-06T08:59:39.000Z</time>
</trkpt>
<trkpt lat="46.1379400" lon="10.1614840">
	<ele>1717.60</ele>
	<time>2024-09-06T08:59:40.000Z</time>
</trkpt>
<trkpt lat="46.1379490" lon="10.1614770">
	<ele>1717.40</ele>
	<time>2024-09-06T08:59:41.000Z</time>
</trkpt>
<trkpt lat="46.1379520" lon="10.1614690">
	<ele>1717.20</ele>
	<time>2024-09-06T08:59:42.000Z</time>
</trkpt>
<trkpt lat="46.1379540" lon="10.1614670">
	<ele>1716.80</ele>
	<time>2024-09-06T08:59:43.000Z</time>
</trkpt>
<trkpt lat="46.1379550" lon="10.1614690">
	<ele>1716.60</ele>
	<time>2024-09-06T08:59:44.000Z</time>
</trkpt>
<trkpt lat="46.1379560" lon="10.1614700">
	<ele>1716.40</ele>
	<time>2024-09-06T08:59:45.000Z</time>
</trkpt>
<trkpt lat="46.1379560" lon="10.1614710">
	<ele>1716.20</ele>
	<time>2024-09-06T08:59:46.000Z</time>
</trkpt>
<trkpt lat="46.1379550" lon="10.1614700">
	<ele>1716.20</ele>
	<time>2024-09-06T08:59:47.000Z</time>
</trkpt>
<trkpt lat="46.1379570" lon="10.1614700">
	<ele>1716.20</ele>
	<time>2024-09-06T08:59:48.000Z</time>
</trkpt>
<trkpt lat="46.1379560" lon="10.1614680">
	<ele>1716.20</ele>
	<time>2024-09-06T08:59:49.000Z</time>
</trkpt>
<trkpt lat="46.1379560" lon="10.1614680">
	<ele>1716.40</ele>
	<time>2024-09-06T08:59:50.000Z</time>
</trkpt>
<trkpt lat="46.1379600" lon="10.1614720">
	<ele>1716.40</ele>
	<time>2024-09-06T08:59:51.000Z</time>
</trkpt>
<trkpt lat="46.1379670" lon="10.1614780">
	<ele>1716.40</ele>
	<time>2024-09-06T08:59:52.000Z</time>
</trkpt>
<trkpt lat="46.1379760" lon="10.1614840">
	<ele>1716.40</ele>
	<time>2024-09-06T08:59:53.000Z</time>
</trkpt>
<trkpt lat="46.1379870" lon="10.1614850">
	<ele>1716.20</ele>
	<time>2024-09-06T08:59:54.000Z</time>
</trkpt>
<trkpt lat="46.1380010" lon="10.1614840">
	<ele>1716.00</ele>
	<time>2024-09-06T08:59:55.000Z</time>
</trkpt>
<trkpt lat="46.1380120" lon="10.1614730">
	<ele>1715.80</ele>
	<time>2024-09-06T08:59:56.000Z</time>
</trkpt>
<trkpt lat="46.1380230" lon="10.1614670">
	<ele>1715.60</ele>
	<time>2024-09-06T08:59:57.000Z</time>
</trkpt>
<trkpt lat="46.1380340" lon="10.1614620">
	<ele>1715.40</ele>
	<time>2024-09-06T08:59:58.000Z</time>
</trkpt>
<trkpt lat="46.1380450" lon="10.1614580">
	<ele>1715.20</ele>
	<time>2024-09-06T08:59:59.000Z</time>
</trkpt>
<trkpt lat="46.1380520" lon="10.1614500">
	<ele>1715.00</ele>
	<time>2024-09-06T09:00:00.000Z</time>
</trkpt>
<trkpt lat="46.1380600" lon="10.1614410">
	<ele>1714.80</ele>
	<time>2024-09-06T09:00:01.000Z</time>
</trkpt>
<trkpt lat="46.1380700" lon="10.1614340">
	<ele>1714.60</ele>
	<time>2024-09-06T09:00:02.000Z</time>
</trkpt>
<trkpt lat="46.1380800" lon="10.1614290">
	<ele>1714.20</ele>
	<time>2024-09-06T09:00:03.000Z</time>
</trkpt>
<trkpt lat="46.1380900" lon="10.1614240">
	<ele>1714.00</ele>
	<time>2024-09-06T09:00:04.000Z</time>
</trkpt>
<trkpt lat="46.1380990" lon="10.1614190">
	<ele>1713.60</ele>
	<time>2024-09-06T09:00:05.000Z</time>
</trkpt>
<trkpt lat="46.1381110" lon="10.1614190">
	<ele>1713.20</ele>
	<time>2024-09-06T09:00:06.000Z</time>
</trkpt>
<trkpt lat="46.1381270" lon="10.1614190">
	<ele>1713.00</ele>
	<time>2024-09-06T09:00:07.000Z</time>
</trkpt>
<trkpt lat="46.1381400" lon="10.1614190">
	<ele>1712.60</ele>
	<time>2024-09-06T09:00:08.000Z</time>
</trkpt>
<trkpt lat="46.1381520" lon="10.1614120">
	<ele>1712.40</ele>
	<time>2024-09-06T09:00:09.000Z</time>
</trkpt>
<trkpt lat="46.1381630" lon="10.1614060">
	<ele>1712.20</ele>
	<time>2024-09-06T09:00:10.000Z</time>
</trkpt>
<trkpt lat="46.1381740" lon="10.1614030">
	<ele>1711.80</ele>
	<time>2024-09-06T09:00:11.000Z</time>
</trkpt>
<trkpt lat="46.1381840" lon="10.1614000">
	<ele>1711.60</ele>
	<time>2024-09-06T09:00:12.000Z</time>
</trkpt>
<trkpt lat="46.1381940" lon="10.1613970">
	<ele>1711.40</ele>
	<time>2024-09-06T09:00:13.000Z</time>
</trkpt>
<trkpt lat="46.1382010" lon="10.1613870">
	<ele>1711.20</ele>
	<time>2024-09-06T09:00:14.000Z</time>
</trkpt>
<trkpt lat="46.1382130" lon="10.1613830">
	<ele>1710.80</ele>
	<time>2024-09-06T09:00:15.000Z</time>
</trkpt>
<trkpt lat="46.1382240" lon="10.1613790">
	<ele>1710.40</ele>
	<time>2024-09-06T09:00:16.000Z</time>
</trkpt>
<trkpt lat="46.1382310" lon="10.1613700">
	<ele>1710.20</ele>
	<time>2024-09-06T09:00:17.000Z</time>
</trkpt>
<trkpt lat="46.1382360" lon="10.1613580">
	<ele>1709.80</ele>
	<time>2024-09-06T09:00:18.000Z</time>
</trkpt>
<trkpt lat="46.1382460" lon="10.1613530">
	<ele>1709.60</ele>
	<time>2024-09-06T09:00:19.000Z</time>
</trkpt>
<trkpt lat="46.1382540" lon="10.1613440">
	<ele>1709.20</ele>
	<time>2024-09-06T09:00:20.000Z</time>
</trkpt>
<trkpt lat="46.1382610" lon="10.1613370">
	<ele>1709.00</ele>
	<time>2024-09-06T09:00:21.000Z</time>
</trkpt>
<trkpt lat="46.1382690" lon="10.1613280">
	<ele>1708.80</ele>
	<time>2024-09-06T09:00:22.000Z</time>
</trkpt>
<trkpt lat="46.1382770" lon="10.1613200">
	<ele>1708.60</ele>
	<time>2024-09-06T09:00:23.000Z</time>
</trkpt>
<trkpt lat="46.1382890" lon="10.1613180">
	<ele>1708.00</ele>
	<time>2024-09-06T09:00:24.000Z</time>
</trkpt>
<trkpt lat="46.1382990" lon="10.1613130">
	<ele>1707.80</ele>
	<time>2024-09-06T09:00:25.000Z</time>
</trkpt>
<trkpt lat="46.1383080" lon="10.1613070">
	<ele>1707.60</ele>
	<time>2024-09-06T09:00:26.000Z</time>
</trkpt>
<trkpt lat="46.1383160" lon="10.1612970">
	<ele>1707.40</ele>
	<time>2024-09-06T09:00:27.000Z</time>
</trkpt>
<trkpt lat="46.1383240" lon="10.1612880">
	<ele>1707.00</ele>
	<time>2024-09-06T09:00:28.000Z</time>
</trkpt>
<trkpt lat="46.1383320" lon="10.1612800">
	<ele>1706.80</ele>
	<time>2024-09-06T09:00:29.000Z</time>
</trkpt>
<trkpt lat="46.1383410" lon="10.1612740">
	<ele>1706.60</ele>
	<time>2024-09-06T09:00:30.000Z</time>
</trkpt>
<trkpt lat="46.1383490" lon="10.1612700">
	<ele>1706.40</ele>
	<time>2024-09-06T09:00:31.000Z</time>
</trkpt>
<trkpt lat="46.1383600" lon="10.1612710">
	<ele>1706.00</ele>
	<time>2024-09-06T09:00:32.000Z</time>
</trkpt>
<trkpt lat="46.1383700" lon="10.1612650">
	<ele>1705.60</ele>
	<time>2024-09-06T09:00:33.000Z</time>
</trkpt>
<trkpt lat="46.1383830" lon="10.1612590">
	<ele>1705.40</ele>
	<time>2024-09-06T09:00:34.000Z</time>
</trkpt>
<trkpt lat="46.1383970" lon="10.1612530">
	<ele>1705.20</ele>
	<time>2024-09-06T09:00:35.000Z</time>
</trkpt>
<trkpt lat="46.1384120" lon="10.1612500">
	<ele>1704.80</ele>
	<time>2024-09-06T09:00:36.000Z</time>
</trkpt>
<trkpt lat="46.1384260" lon="10.1612440">
	<ele>1704.40</ele>
	<time>2024-09-06T09:00:37.000Z</time>
</trkpt>
<trkpt lat="46.1384390" lon="10.1612350">
	<ele>1704.00</ele>
	<time>2024-09-06T09:00:38.000Z</time>
</trkpt>
<trkpt lat="46.1384460" lon="10.1612260">
	<ele>1703.80</ele>
	<time>2024-09-06T09:00:39.000Z</time>
</trkpt>
<trkpt lat="46.1384530" lon="10.1612140">
	<ele>1703.40</ele>
	<time>2024-09-06T09:00:40.000Z</time>
</trkpt>
<trkpt lat="46.1384600" lon="10.1612030">
	<ele>1703.20</ele>
	<time>2024-09-06T09:00:41.000Z</time>
</trkpt>
<trkpt lat="46.1384690" lon="10.1611940">
	<ele>1702.80</ele>
	<time>2024-09-06T09:00:42.000Z</time>
</trkpt>
<trkpt lat="46.1384790" lon="10.1611810">
	<ele>1702.60</ele>
	<time>2024-09-06T09:00:43.000Z</time>
</trkpt>
<trkpt lat="46.1384910" lon="10.1611740">
	<ele>1702.40</ele>
	<time>2024-09-06T09:00:44.000Z</time>
</trkpt>
<trkpt lat="46.1385010" lon="10.1611660">
	<ele>1702.00</ele>
	<time>2024-09-06T09:00:45.000Z</time>
</trkpt>
<trkpt lat="46.1385130" lon="10.1611570">
	<ele>1701.80</ele>
	<time>2024-09-06T09:00:46.000Z</time>
</trkpt>
<trkpt lat="46.1385240" lon="10.1611480">
	<ele>1701.40</ele>
	<time>2024-09-06T09:00:47.000Z</time>
</trkpt>
<trkpt lat="46.1385330" lon="10.1611370">
	<ele>1701.20</ele>
	<time>2024-09-06T09:00:48.000Z</time>
</trkpt>
<trkpt lat="46.1385420" lon="10.1611290">
	<ele>1701.00</ele>
	<time>2024-09-06T09:00:49.000Z</time>
</trkpt>
<trkpt lat="46.1385500" lon="10.1611200">
	<ele>1700.40</ele>
	<time>2024-09-06T09:00:50.000Z</time>
</trkpt>
<trkpt lat="46.1385580" lon="10.1611100">
	<ele>1700.20</ele>
	<time>2024-09-06T09:00:51.000Z</time>
</trkpt>
<trkpt lat="46.1385640" lon="10.1610970">
	<ele>1700.00</ele>
	<time>2024-09-06T09:00:52.000Z</time>
</trkpt>
<trkpt lat="46.1385720" lon="10.1610890">
	<ele>1699.60</ele>
	<time>2024-09-06T09:00:53.000Z</time>
</trkpt>
<trkpt lat="46.1385790" lon="10.1610800">
	<ele>1699.20</ele>
	<time>2024-09-06T09:00:54.000Z</time>
</trkpt>
<trkpt lat="46.1385870" lon="10.1610710">
	<ele>1698.80</ele>
	<time>2024-09-06T09:00:55.000Z</time>
</trkpt>
<trkpt lat="46.1385990" lon="10.1610630">
	<ele>1698.60</ele>
	<time>2024-09-06T09:00:56.000Z</time>
</trkpt>
<trkpt lat="46.1386170" lon="10.1610630">
	<ele>1698.40</ele>
	<time>2024-09-06T09:00:57.000Z</time>
</trkpt>
<trkpt lat="46.1386280" lon="10.1610560">
	<ele>1698.20</ele>
	<time>2024-09-06T09:00:58.000Z</time>
</trkpt>
<trkpt lat="46.1386410" lon="10.1610470">
	<ele>1697.80</ele>
	<time>2024-09-06T09:00:59.000Z</time>
</trkpt>
<trkpt lat="46.1386530" lon="10.1610430">
	<ele>1697.40</ele>
	<time>2024-09-06T09:01:00.000Z</time>
</trkpt>
<trkpt lat="46.1386650" lon="10.1610410">
	<ele>1697.00</ele>
	<time>2024-09-06T09:01:01.000Z</time>
</trkpt>
<trkpt lat="46.1386760" lon="10.1610320">
	<ele>1696.60</ele>
	<time>2024-09-06T09:01:02.000Z</time>
</trkpt>
<trkpt lat="46.1386840" lon="10.1610220">
	<ele>1696.40</ele>
	<time>2024-09-06T09:01:03.000Z</time>
</trkpt>
<trkpt lat="46.1386960" lon="10.1610170">
	<ele>1696.00</ele>
	<time>2024-09-06T09:01:04.000Z</time>
</trkpt>
<trkpt lat="46.1387060" lon="10.1610130">
	<ele>1695.80</ele>
	<time>2024-09-06T09:01:05.000Z</time>
</trkpt>
<trkpt lat="46.1387160" lon="10.1610100">
	<ele>1695.40</ele>
	<time>2024-09-06T09:01:06.000Z</time>
</trkpt>
<trkpt lat="46.1387270" lon="10.1610100">
	<ele>1695.20</ele>
	<time>2024-09-06T09:01:07.000Z</time>
</trkpt>
<trkpt lat="46.1387380" lon="10.1610060">
	<ele>1695.00</ele>
	<time>2024-09-06T09:01:08.000Z</time>
</trkpt>
<trkpt lat="46.1387480" lon="10.1610000">
	<ele>1694.60</ele>
	<time>2024-09-06T09:01:09.000Z</time>
</trkpt>
<trkpt lat="46.1387570" lon="10.1609900">
	<ele>1694.20</ele>
	<time>2024-09-06T09:01:10.000Z</time>
</trkpt>
<trkpt lat="46.1387660" lon="10.1609820">
	<ele>1694.00</ele>
	<time>2024-09-06T09:01:11.000Z</time>
</trkpt>
<trkpt lat="46.1387760" lon="10.1609770">
	<ele>1693.80</ele>
	<time>2024-09-06T09:01:12.000Z</time>
</trkpt>
<trkpt lat="46.1387850" lon="10.1609720">
	<ele>1693.60</ele>
	<time>2024-09-06T09:01:13.000Z</time>
</trkpt>
<trkpt lat="46.1387970" lon="10.1609680">
	<ele>1693.20</ele>
	<time>2024-09-06T09:01:14.000Z</time>
</trkpt>
<trkpt lat="46.1388050" lon="10.1609610">
	<ele>1692.80</ele>
	<time>2024-09-06T09:01:15.000Z</time>
</trkpt>
<trkpt lat="46.1388100" lon="10.1609510">
	<ele>1692.60</ele>
	<time>2024-09-06T09:01:16.000Z</time>
</trkpt>
<trkpt lat="46.1388180" lon="10.1609420">
	<ele>1692.40</ele>
	<time>2024-09-06T09:01:17.000Z</time>
</trkpt>
<trkpt lat="46.1388290" lon="10.1609350">
	<ele>1692.40</ele>
	<time>2024-09-06T09:01:18.000Z</time>
</trkpt>
<trkpt lat="46.1388380" lon="10.1609280">
	<ele>1692.00</ele>
	<time>2024-09-06T09:01:19.000Z</time>
</trkpt>
<trkpt lat="46.1388440" lon="10.1609190">
	<ele>1691.60</ele>
	<time>2024-09-06T09:01:20.000Z</time>
</trkpt>
<trkpt lat="46.1388500" lon="10.1609120">
	<ele>1691.40</ele>
	<time>2024-09-06T09:01:21.000Z</time>
</trkpt>
<trkpt lat="46.1388580" lon="10.1609110">
	<ele>1691.00</ele>
	<time>2024-09-06T09:01:22.000Z</time>
</trkpt>
<trkpt lat="46.1388630" lon="10.1609000">
	<ele>1690.80</ele>
	<time>2024-09-06T09:01:23.000Z</time>
</trkpt>
<trkpt lat="46.1388670" lon="10.1608900">
	<ele>1690.60</ele>
	<time>2024-09-06T09:01:24.000Z</time>
</trkpt>
<trkpt lat="46.1388740" lon="10.1608840">
	<ele>1690.20</ele>
	<time>2024-09-06T09:01:25.000Z</time>
</trkpt>
<trkpt lat="46.1388810" lon="10.1608810">
	<ele>1690.20</ele>
	<time>2024-09-06T09:01:26.000Z</time>
</trkpt>
<trkpt lat="46.1388890" lon="10.1608740">
	<ele>1690.00</ele>
	<time>2024-09-06T09:01:27.000Z</time>
</trkpt>
<trkpt lat="46.1388980" lon="10.1608730">
	<ele>1689.60</ele>
	<time>2024-09-06T09:01:28.000Z</time>
</trkpt>
<trkpt lat="46.1389020" lon="10.1608750">
	<ele>1689.60</ele>
	<time>2024-09-06T09:01:29.000Z</time>
</trkpt>
<trkpt lat="46.1389030" lon="10.1608750">
	<ele>1689.40</ele>
	<time>2024-09-06T09:01:30.000Z</time>
</trkpt>
<trkpt lat="46.1389040" lon="10.1608780">
	<ele>1689.40</ele>
	<time>2024-09-06T09:01:31.000Z</time>
</trkpt>
<trkpt lat="46.1389050" lon="10.1608810">
	<ele>1689.40</ele>
	<time>2024-09-06T09:01:32.000Z</time>
</trkpt>
<trkpt lat="46.1389100" lon="10.1608820">
	<ele>1689.20</ele>
	<time>2024-09-06T09:01:33.000Z</time>
</trkpt>
<trkpt lat="46.1389150" lon="10.1608810">
	<ele>1689.20</ele>
	<time>2024-09-06T09:01:34.000Z</time>
</trkpt>
<trkpt lat="46.1389210" lon="10.1608770">
	<ele>1689.20</ele>
	<time>2024-09-06T09:01:35.000Z</time>
</trkpt>
<trkpt lat="46.1389240" lon="10.1608750">
	<ele>1689.00</ele>
	<time>2024-09-06T09:01:36.000Z</time>
</trkpt>
<trkpt lat="46.1389270" lon="10.1608750">
	<ele>1689.00</ele>
	<time>2024-09-06T09:01:37.000Z</time>
</trkpt>
<trkpt lat="46.1389290" lon="10.1608740">
	<ele>1688.80</ele>
	<time>2024-09-06T09:01:38.000Z</time>
</trkpt>
<trkpt lat="46.1389280" lon="10.1608740">
	<ele>1688.60</ele>
	<time>2024-09-06T09:01:39.000Z</time>
</trkpt>
<trkpt lat="46.1389260" lon="10.1608720">
	<ele>1688.60</ele>
	<time>2024-09-06T09:01:40.000Z</time>
</trkpt>
<trkpt lat="46.1389300" lon="10.1608730">
	<ele>1688.60</ele>
	<time>2024-09-06T09:01:41.000Z</time>
</trkpt>
<trkpt lat="46.1389280" lon="10.1608740">
	<ele>1688.40</ele>
	<time>2024-09-06T09:01:42.000Z</time>
</trkpt>
<trkpt lat="46.1389260" lon="10.1608740">
	<ele>1688.40</ele>
	<time>2024-09-06T09:01:43.000Z</time>
</trkpt>
<trkpt lat="46.1389250" lon="10.1608740">
	<ele>1688.40</ele>
	<time>2024-09-06T09:01:44.000Z</time>
</trkpt>
<trkpt lat="46.1389250" lon="10.1608740">
	<ele>1688.40</ele>
	<time>2024-09-06T09:01:45.000Z</time>
</trkpt>
<trkpt lat="46.1389250" lon="10.1608740">
	<ele>1688.40</ele>
	<time>2024-09-06T09:01:46.000Z</time>
</trkpt>
<trkpt lat="46.1389250" lon="10.1608740">
	<ele>1688.40</ele>
	<time>2024-09-06T09:01:47.000Z</time>
</trkpt>
<trkpt lat="46.1389250" lon="10.1608740">
	<ele>1688.40</ele>
	<time>2024-09-06T09:01:48.000Z</time>
</trkpt>
<trkpt lat="46.1389250" lon="10.1608740">
	<ele>1688.60</ele>
	<time>2024-09-06T09:01:49.000Z</time>
</trkpt>
<trkpt lat="46.1389250" lon="10.1608740">
	<ele>1688.60</ele>
	<time>2024-09-06T09:01:50.000Z</time>
</trkpt>
<trkpt lat="46.1389250" lon="10.1608740">
	<ele>1688.60</ele>
	<time>2024-09-06T09:01:51.000Z</time>
</trkpt>
<trkpt lat="46.1389250" lon="10.1608740">
	<ele>1688.60</ele>
	<time>2024-09-06T09:01:52.000Z</time>
</trkpt>
<trkpt lat="46.1389250" lon="10.1608740">
	<ele>1688.60</ele>
	<time>2024-09-06T09:01:53.000Z</time>
</trkpt>
<trkpt lat="46.1389250" lon="10.1608740">
	<ele>1688.40</ele>
	<time>2024-09-06T09:01:54.000Z</time>
</trkpt>
<trkpt lat="46.1389250" lon="10.1608740">
	<ele>1688.40</ele>
	<time>2024-09-06T09:01:55.000Z</time>
</trkpt>
<trkpt lat="46.1389250" lon="10.1608740">
	<ele>1688.20</ele>
	<time>2024-09-06T09:01:56.000Z</time>
</trkpt>
<trkpt lat="46.1389280" lon="10.1608730">
	<ele>1688.20</ele>
	<time>2024-09-06T09:01:57.000Z</time>
</trkpt>
<trkpt lat="46.1389460" lon="10.1608670">
	<ele>1688.00</ele>
	<time>2024-09-06T09:01:58.000Z</time>
</trkpt>
<trkpt lat="46.1389610" lon="10.1608640">
	<ele>1688.00</ele>
	<time>2024-09-06T09:01:59.000Z</time>
</trkpt>
<trkpt lat="46.1389740" lon="10.1608580">
	<ele>1687.80</ele>
	<time>2024-09-06T09:02:00.000Z</time>
</trkpt>
<trkpt lat="46.1389930" lon="10.1608590">
	<ele>1687.60</ele>
	<time>2024-09-06T09:02:01.000Z</time>
</trkpt>
<trkpt lat="46.1390090" lon="10.1608560">
	<ele>1687.60</ele>
	<time>2024-09-06T09:02:02.000Z</time>
</trkpt>
<trkpt lat="46.1390240" lon="10.1608490">
	<ele>1687.00</ele>
	<time>2024-09-06T09:02:03.000Z</time>
</trkpt>
<trkpt lat="46.1390390" lon="10.1608430">
	<ele>1686.80</ele>
	<time>2024-09-06T09:02:04.000Z</time>
</trkpt>
<trkpt lat="46.1390520" lon="10.1608360">
	<ele>1686.40</ele>
	<time>2024-09-06T09:02:05.000Z</time>
</trkpt>
<trkpt lat="46.1390670" lon="10.1608320">
	<ele>1686.00</ele>
	<time>2024-09-06T09:02:06.000Z</time>
</trkpt>
<trkpt lat="46.1390790" lon="10.1608270">
	<ele>1685.80</ele>
	<time>2024-09-06T09:02:07.000Z</time>
</trkpt>
<trkpt lat="46.1390920" lon="10.1608240">
	<ele>1685.60</ele>
	<time>2024-09-06T09:02:08.000Z</time>
</trkpt>
<trkpt lat="46.1391060" lon="10.1608210">
	<ele>1685.60</ele>
	<time>2024-09-06T09:02:09.000Z</time>
</trkpt>
<trkpt lat="46.1391170" lon="10.1608170">
	<ele>1685.40</ele>
	<time>2024-09-06T09:02:10.000Z</time>
</trkpt>
<trkpt lat="46.1391220" lon="10.1608050">
	<ele>1685.00</ele>
	<time>2024-09-06T09:02:11.000Z</time>
</trkpt>
<trkpt lat="46.1391280" lon="10.1607960">
	<ele>1684.60</ele>
	<time>2024-09-06T09:02:12.000Z</time>
</trkpt>
<trkpt lat="46.1391380" lon="10.1607910">
	<ele>1684.20</ele>
	<time>2024-09-06T09:02:13.000Z</time>
</trkpt>
<trkpt lat="46.1391470" lon="10.1607890">
	<ele>1683.80</ele>
	<time>2024-09-06T09:02:14.000Z</time>
</trkpt>
<trkpt lat="46.1391590" lon="10.1607840">
	<ele>1683.60</ele>
	<time>2024-09-06T09:02:15.000Z</time>
</trkpt>
<trkpt lat="46.1391710" lon="10.1607840">
	<ele>1683.40</ele>
	<time>2024-09-06T09:02:16.000Z</time>
</trkpt>
<trkpt lat="46.1391770" lon="10.1607790">
	<ele>1683.00</ele>
	<time>2024-09-06T09:02:17.000Z</time>
</trkpt>
<trkpt lat="46.1391870" lon="10.1607720">
	<ele>1682.80</ele>
	<time>2024-09-06T09:02:18.000Z</time>
</trkpt>
<trkpt lat="46.1391970" lon="10.1607680">
	<ele>1682.60</ele>
	<time>2024-09-06T09:02:19.000Z</time>
</trkpt>
<trkpt lat="46.1392070" lon="10.1607630">
	<ele>1682.20</ele>
	<time>2024-09-06T09:02:20.000Z</time>
</trkpt>
<trkpt lat="46.1392190" lon="10.1607600">
	<ele>1681.80</ele>
	<time>2024-09-06T09:02:21.000Z</time>
</trkpt>
<trkpt lat="46.1392320" lon="10.1607600">
	<ele>1681.40</ele>
	<time>2024-09-06T09:02:22.000Z</time>
</trkpt>
<trkpt lat="46.1392410" lon="10.1607530">
	<ele>1681.20</ele>
	<time>2024-09-06T09:02:23.000Z</time>
</trkpt>
<trkpt lat="46.1392530" lon="10.1607520">
	<ele>1680.80</ele>
	<time>2024-09-06T09:02:24.000Z</time>
</trkpt>
<trkpt lat="46.1392660" lon="10.1607500">
	<ele>1680.60</ele>
	<time>2024-09-06T09:02:25.000Z</time>
</trkpt>
<trkpt lat="46.1392790" lon="10.1607510">
	<ele>1680.00</ele>
	<time>2024-09-06T09:02:26.000Z</time>
</trkpt>
<trkpt lat="46.1392870" lon="10.1607460">
	<ele>1679.80</ele>
	<time>2024-09-06T09:02:27.000Z</time>
</trkpt>
<trkpt lat="46.1392970" lon="10.1607440">
	<ele>1679.60</ele>
	<time>2024-09-06T09:02:28.000Z</time>
</trkpt>
<trkpt lat="46.1393070" lon="10.1607380">
	<ele>1679.60</ele>
	<time>2024-09-06T09:02:29.000Z</time>
</trkpt>
<trkpt lat="46.1393170" lon="10.1607310">
	<ele>1679.20</ele>
	<time>2024-09-06T09:02:30.000Z</time>
</trkpt>
<trkpt lat="46.1393270" lon="10.1607220">
	<ele>1679.00</ele>
	<time>2024-09-06T09:02:31.000Z</time>
</trkpt>
<trkpt lat="46.1393360" lon="10.1607140">
	<ele>1678.60</ele>
	<time>2024-09-06T09:02:32.000Z</time>
</trkpt>
<trkpt lat="46.1393440" lon="10.1607040">
	<ele>1678.20</ele>
	<time>2024-09-06T09:02:33.000Z</time>
</trkpt>
<trkpt lat="46.1393510" lon="10.1606940">
	<ele>1677.80</ele>
	<time>2024-09-06T09:02:34.000Z</time>
</trkpt>
<trkpt lat="46.1393600" lon="10.1606880">
	<ele>1677.60</ele>
	<time>2024-09-06T09:02:35.000Z</time>
</trkpt>
<trkpt lat="46.1393690" lon="10.1606820">
	<ele>1677.20</ele>
	<time>2024-09-06T09:02:36.000Z</time>
</trkpt>
<trkpt lat="46.1393800" lon="10.1606740">
	<ele>1676.80</ele>
	<time>2024-09-06T09:02:37.000Z</time>
</trkpt>
<trkpt lat="46.1393920" lon="10.1606700">
	<ele>1676.60</ele>
	<time>2024-09-06T09:02:38.000Z</time>
</trkpt>
<trkpt lat="46.1394040" lon="10.1606670">
	<ele>1676.40</ele>
	<time>2024-09-06T09:02:39.000Z</time>
</trkpt>
<trkpt lat="46.1394150" lon="10.1606600">
	<ele>1676.20</ele>
	<time>2024-09-06T09:02:40.000Z</time>
</trkpt>
<trkpt lat="46.1394260" lon="10.1606530">
	<ele>1675.80</ele>
	<time>2024-09-06T09:02:41.000Z</time>
</trkpt>
<trkpt lat="46.1394400" lon="10.1606500">
	<ele>1675.40</ele>
	<time>2024-09-06T09:02:42.000Z</time>
</trkpt>
<trkpt lat="46.1394510" lon="10.1606450">
	<ele>1675.20</ele>
	<time>2024-09-06T09:02:43.000Z</time>
</trkpt>
<trkpt lat="46.1394630" lon="10.1606400">
	<ele>1675.00</ele>
	<time>2024-09-06T09:02:44.000Z</time>
</trkpt>
<trkpt lat="46.1394740" lon="10.1606350">
	<ele>1674.80</ele>
	<time>2024-09-06T09:02:45.000Z</time>
</trkpt>
<trkpt lat="46.1394860" lon="10.1606320">
	<ele>1674.60</ele>
	<time>2024-09-06T09:02:46.000Z</time>
</trkpt>
<trkpt lat="46.1394980" lon="10.1606250">
	<ele>1674.20</ele>
	<time>2024-09-06T09:02:47.000Z</time>
</trkpt>
<trkpt lat="46.1395090" lon="10.1606160">
	<ele>1674.00</ele>
	<time>2024-09-06T09:02:48.000Z</time>
</trkpt>
<trkpt lat="46.1395190" lon="10.1606060">
	<ele>1673.60</ele>
	<time>2024-09-06T09:02:49.000Z</time>
</trkpt>
<trkpt lat="46.1395320" lon="10.1605980">
	<ele>1673.20</ele>
	<time>2024-09-06T09:02:50.000Z</time>
</trkpt>
<trkpt lat="46.1395410" lon="10.1605890">
	<ele>1673.00</ele>
	<time>2024-09-06T09:02:51.000Z</time>
</trkpt>
<trkpt lat="46.1395500" lon="10.1605780">
	<ele>1672.80</ele>
	<time>2024-09-06T09:02:52.000Z</time>
</trkpt>
<trkpt lat="46.1395590" lon="10.1605670">
	<ele>1672.40</ele>
	<time>2024-09-06T09:02:53.000Z</time>
</trkpt>
<trkpt lat="46.1395700" lon="10.1605560">
	<ele>1672.00</ele>
	<time>2024-09-06T09:02:54.000Z</time>
</trkpt>
<trkpt lat="46.1395830" lon="10.1605480">
	<ele>1671.80</ele>
	<time>2024-09-06T09:02:55.000Z</time>
</trkpt>
<trkpt lat="46.1395930" lon="10.1605390">
	<ele>1671.60</ele>
	<time>2024-09-06T09:02:56.000Z</time>
</trkpt>
<trkpt lat="46.1396020" lon="10.1605330">
	<ele>1671.20</ele>
	<time>2024-09-06T09:02:57.000Z</time>
</trkpt>
<trkpt lat="46.1396100" lon="10.1605280">
	<ele>1671.00</ele>
	<time>2024-09-06T09:02:58.000Z</time>
</trkpt>
<trkpt lat="46.1396220" lon="10.1605260">
	<ele>1671.00</ele>
	<time>2024-09-06T09:02:59.000Z</time>
</trkpt>
<trkpt lat="46.1396330" lon="10.1605220">
	<ele>1670.60</ele>
	<time>2024-09-06T09:03:00.000Z</time>
</trkpt>
<trkpt lat="46.1396430" lon="10.1605170">
	<ele>1670.20</ele>
	<time>2024-09-06T09:03:01.000Z</time>
</trkpt>
<trkpt lat="46.1396550" lon="10.1605130">
	<ele>1669.80</ele>
	<time>2024-09-06T09:03:02.000Z</time>
</trkpt>
<trkpt lat="46.1396660" lon="10.1605120">
	<ele>1669.40</ele>
	<time>2024-09-06T09:03:03.000Z</time>
</trkpt>
<trkpt lat="46.1396780" lon="10.1605080">
	<ele>1669.20</ele>
	<time>2024-09-06T09:03:04.000Z</time>
</trkpt>
<trkpt lat="46.1396880" lon="10.1604980">
	<ele>1668.80</ele>
	<time>2024-09-06T09:03:05.000Z</time>
</trkpt>
<trkpt lat="46.1397000" lon="10.1604900">
	<ele>1668.60</ele>
	<time>2024-09-06T09:03:06.000Z</time>
</trkpt>
<trkpt lat="46.1397090" lon="10.1604820">
	<ele>1668.20</ele>
	<time>2024-09-06T09:03:07.000Z</time>
</trkpt>
<trkpt lat="46.1397180" lon="10.1604740">
	<ele>1668.00</ele>
	<time>2024-09-06T09:03:08.000Z</time>
</trkpt>
<trkpt lat="46.1397280" lon="10.1604660">
	<ele>1667.60</ele>
	<time>2024-09-06T09:03:09.000Z</time>
</trkpt>
<trkpt lat="46.1397410" lon="10.1604620">
	<ele>1667.40</ele>
	<time>2024-09-06T09:03:10.000Z</time>
</trkpt>
<trkpt lat="46.1397500" lon="10.1604530">
	<ele>1667.00</ele>
	<time>2024-09-06T09:03:11.000Z</time>
</trkpt>
<trkpt lat="46.1397620" lon="10.1604460">
	<ele>1666.60</ele>
	<time>2024-09-06T09:03:12.000Z</time>
</trkpt>
<trkpt lat="46.1397740" lon="10.1604390">
	<ele>1666.40</ele>
	<time>2024-09-06T09:03:13.000Z</time>
</trkpt>
<trkpt lat="46.1397870" lon="10.1604340">
	<ele>1666.00</ele>
	<time>2024-09-06T09:03:14.000Z</time>
</trkpt>
<trkpt lat="46.1397940" lon="10.1604210">
	<ele>1665.60</ele>
	<time>2024-09-06T09:03:15.000Z</time>
</trkpt>
<trkpt lat="46.1398050" lon="10.1604120">
	<ele>1665.40</ele>
	<time>2024-09-06T09:03:16.000Z</time>
</trkpt>
<trkpt lat="46.1398170" lon="10.1604050">
	<ele>1665.40</ele>
	<time>2024-09-06T09:03:17.000Z</time>
</trkpt>
<trkpt lat="46.1398290" lon="10.1603970">
	<ele>1664.80</ele>
	<time>2024-09-06T09:03:18.000Z</time>
</trkpt>
<trkpt lat="46.1398440" lon="10.1603900">
	<ele>1664.60</ele>
	<time>2024-09-06T09:03:19.000Z</time>
</trkpt>
<trkpt lat="46.1398550" lon="10.1603800">
	<ele>1664.40</ele>
	<time>2024-09-06T09:03:20.000Z</time>
</trkpt>
<trkpt lat="46.1398640" lon="10.1603680">
	<ele>1664.00</ele>
	<time>2024-09-06T09:03:21.000Z</time>
</trkpt>
<trkpt lat="46.1398750" lon="10.1603580">
	<ele>1663.80</ele>
	<time>2024-09-06T09:03:22.000Z</time>
</trkpt>
<trkpt lat="46.1398850" lon="10.1603490">
	<ele>1663.60</ele>
	<time>2024-09-06T09:03:23.000Z</time>
</trkpt>
<trkpt lat="46.1398990" lon="10.1603410">
	<ele>1663.20</ele>
	<time>2024-09-06T09:03:24.000Z</time>
</trkpt>
<trkpt lat="46.1399120" lon="10.1603310">
	<ele>1662.80</ele>
	<time>2024-09-06T09:03:25.000Z</time>
</trkpt>
<trkpt lat="46.1399210" lon="10.1603160">
	<ele>1662.60</ele>
	<time>2024-09-06T09:03:26.000Z</time>
</trkpt>
<trkpt lat="46.1399270" lon="10.1603010">
	<ele>1662.40</ele>
	<time>2024-09-06T09:03:27.000Z</time>
</trkpt>
<trkpt lat="46.1399340" lon="10.1602870">
	<ele>1662.00</ele>
	<time>2024-09-06T09:03:28.000Z</time>
</trkpt>
<trkpt lat="46.1399400" lon="10.1602730">
	<ele>1661.80</ele>
	<time>2024-09-06T09:03:29.000Z</time>
</trkpt>
<trkpt lat="46.1399460" lon="10.1602570">
	<ele>1661.40</ele>
	<time>2024-09-06T09:03:30.000Z</time>
</trkpt>
<trkpt lat="46.1399530" lon="10.1602440">
	<ele>1661.20</ele>
	<time>2024-09-06T09:03:31.000Z</time>
</trkpt>
<trkpt lat="46.1399630" lon="10.1602300">
	<ele>1660.80</ele>
	<time>2024-09-06T09:03:32.000Z</time>
</trkpt>
<trkpt lat="46.1399740" lon="10.1602170">
	<ele>1660.60</ele>
	<time>2024-09-06T09:03:33.000Z</time>
</trkpt>
<trkpt lat="46.1399870" lon="10.1602060">
	<ele>1660.40</ele>
	<time>2024-09-06T09:03:34.000Z</time>
</trkpt>
<trkpt lat="46.1399970" lon="10.1601930">
	<ele>1660.00</ele>
	<time>2024-09-06T09:03:35.000Z</time>
</trkpt>
<trkpt lat="46.1400090" lon="10.1601820">
	<ele>1659.60</ele>
	<time>2024-09-06T09:03:36.000Z</time>
</trkpt>
<trkpt lat="46.1400230" lon="10.1601780">
	<ele>1659.40</ele>
	<time>2024-09-06T09:03:37.000Z</time>
</trkpt>
<trkpt lat="46.1400360" lon="10.1601730">
	<ele>1659.20</ele>
	<time>2024-09-06T09:03:38.000Z</time>
</trkpt>
<trkpt lat="46.1400500" lon="10.1601670">
	<ele>1658.80</ele>
	<time>2024-09-06T09:03:39.000Z</time>
</trkpt>
<trkpt lat="46.1400620" lon="10.1601590">
	<ele>1658.40</ele>
	<time>2024-09-06T09:03:40.000Z</time>
</trkpt>
<trkpt lat="46.1400730" lon="10.1601500">
	<ele>1658.20</ele>
	<time>2024-09-06T09:03:41.000Z</time>
</trkpt>
<trkpt lat="46.1400860" lon="10.1601430">
	<ele>1658.00</ele>
	<time>2024-09-06T09:03:42.000Z</time>
</trkpt>
<trkpt lat="46.1400960" lon="10.1601340">
	<ele>1657.80</ele>
	<time>2024-09-06T09:03:43.000Z</time>
</trkpt>
<trkpt lat="46.1401060" lon="10.1601260">
	<ele>1657.60</ele>
	<time>2024-09-06T09:03:44.000Z</time>
</trkpt>
<trkpt lat="46.1401120" lon="10.1601150">
	<ele>1657.20</ele>
	<time>2024-09-06T09:03:45.000Z</time>
</trkpt>
<trkpt lat="46.1401200" lon="10.1601050">
	<ele>1656.80</ele>
	<time>2024-09-06T09:03:46.000Z</time>
</trkpt>
<trkpt lat="46.1401290" lon="10.1600960">
	<ele>1656.40</ele>
	<time>2024-09-06T09:03:47.000Z</time>
</trkpt>
<trkpt lat="46.1401390" lon="10.1600880">
	<ele>1656.20</ele>
	<time>2024-09-06T09:03:48.000Z</time>
</trkpt>
<trkpt lat="46.1401510" lon="10.1600840">
	<ele>1655.80</ele>
	<time>2024-09-06T09:03:49.000Z</time>
</trkpt>
<trkpt lat="46.1401630" lon="10.1600790">
	<ele>1655.60</ele>
	<time>2024-09-06T09:03:50.000Z</time>
</trkpt>
<trkpt lat="46.1401740" lon="10.1600720">
	<ele>1655.40</ele>
	<time>2024-09-06T09:03:51.000Z</time>
</trkpt>
<trkpt lat="46.1401840" lon="10.1600630">
	<ele>1655.20</ele>
	<time>2024-09-06T09:03:52.000Z</time>
</trkpt>
<trkpt lat="46.1401910" lon="10.1600520">
	<ele>1655.00</ele>
	<time>2024-09-06T09:03:53.000Z</time>
</trkpt>
<trkpt lat="46.1402030" lon="10.1600410">
	<ele>1654.80</ele>
	<time>2024-09-06T09:03:54.000Z</time>
</trkpt>
<trkpt lat="46.1402170" lon="10.1600330">
	<ele>1654.40</ele>
	<time>2024-09-06T09:03:55.000Z</time>
</trkpt>
<trkpt lat="46.1402290" lon="10.1600230">
	<ele>1654.00</ele>
	<time>2024-09-06T09:03:56.000Z</time>
</trkpt>
<trkpt lat="46.1402430" lon="10.1600150">
	<ele>1653.80</ele>
	<time>2024-09-06T09:03:57.000Z</time>
</trkpt>
<trkpt lat="46.1402570" lon="10.1600080">
	<ele>1653.60</ele>
	<time>2024-09-06T09:03:58.000Z</time>
</trkpt>
<trkpt lat="46.1402690" lon="10.1599970">
	<ele>1653.40</ele>
	<time>2024-09-06T09:03:59.000Z</time>
</trkpt>
<trkpt lat="46.1402790" lon="10.1599850">
	<ele>1653.20</ele>
	<time>2024-09-06T09:04:00.000Z</time>
</trkpt>
<trkpt lat="46.1402900" lon="10.1599750">
	<ele>1653.00</ele>
	<time>2024-09-06T09:04:01.000Z</time>
</trkpt>
<trkpt lat="46.1403010" lon="10.1599650">
	<ele>1652.80</ele>
	<time>2024-09-06T09:04:02.000Z</time>
</trkpt>
<trkpt lat="46.1403140" lon="10.1599510">
	<ele>1652.60</ele>
	<time>2024-09-06T09:04:03.000Z</time>
</trkpt>
<trkpt lat="46.1403250" lon="10.1599420">
	<ele>1652.60</ele>
	<time>2024-09-06T09:04:04.000Z</time>
</trkpt>
<trkpt lat="46.1403340" lon="10.1599330">
	<ele>1652.60</ele>
	<time>2024-09-06T09:04:05.000Z</time>
</trkpt>
<trkpt lat="46.1403440" lon="10.1599210">
	<ele>1652.40</ele>
	<time>2024-09-06T09:04:06.000Z</time>
</trkpt>
<trkpt lat="46.1403570" lon="10.1599100">
	<ele>1652.40</ele>
	<time>2024-09-06T09:04:07.000Z</time>
</trkpt>
<trkpt lat="46.1403690" lon="10.1599030">
	<ele>1652.40</ele>
	<time>2024-09-06T09:04:08.000Z</time>
</trkpt>
<trkpt lat="46.1403870" lon="10.1598900">
	<ele>1652.40</ele>
	<time>2024-09-06T09:04:09.000Z</time>
</trkpt>
<trkpt lat="46.1403980" lon="10.1598820">
	<ele>1652.20</ele>
	<time>2024-09-06T09:04:10.000Z</time>
</trkpt>
<trkpt lat="46.1404180" lon="10.1598710">
	<ele>1652.00</ele>
	<time>2024-09-06T09:04:11.000Z</time>
</trkpt>
<trkpt lat="46.1404290" lon="10.1598570">
	<ele>1652.00</ele>
	<time>2024-09-06T09:04:12.000Z</time>
</trkpt>
<trkpt lat="46.1404400" lon="10.1598420">
	<ele>1651.80</ele>
	<time>2024-09-06T09:04:13.000Z</time>
</trkpt>
<trkpt lat="46.1404510" lon="10.1598290">
	<ele>1651.80</ele>
	<time>2024-09-06T09:04:14.000Z</time>
</trkpt>
<trkpt lat="46.1404660" lon="10.1598210">
	<ele>1651.60</ele>
	<time>2024-09-06T09:04:15.000Z</time>
</trkpt>
<trkpt lat="46.1404740" lon="10.1598070">
	<ele>1651.60</ele>
	<time>2024-09-06T09:04:16.000Z</time>
</trkpt>
<trkpt lat="46.1404840" lon="10.1597960">
	<ele>1651.40</ele>
	<time>2024-09-06T09:04:17.000Z</time>
</trkpt>
<trkpt lat="46.1404960" lon="10.1597880">
	<ele>1651.20</ele>
	<time>2024-09-06T09:04:18.000Z</time>
</trkpt>
<trkpt lat="46.1405070" lon="10.1597770">
	<ele>1651.20</ele>
	<time>2024-09-06T09:04:19.000Z</time>
</trkpt>
<trkpt lat="46.1405190" lon="10.1597630">
	<ele>1651.20</ele>
	<time>2024-09-06T09:04:20.000Z</time>
</trkpt>
<trkpt lat="46.1405290" lon="10.1597480">
	<ele>1651.00</ele>
	<time>2024-09-06T09:04:21.000Z</time>
</trkpt>
<trkpt lat="46.1405390" lon="10.1597300">
	<ele>1650.80</ele>
	<time>2024-09-06T09:04:22.000Z</time>
</trkpt>
<trkpt lat="46.1405500" lon="10.1597140">
	<ele>1650.80</ele>
	<time>2024-09-06T09:04:23.000Z</time>
</trkpt>
<trkpt lat="46.1405610" lon="10.1597020">
	<ele>1650.60</ele>
	<time>2024-09-06T09:04:24.000Z</time>
</trkpt>
<trkpt lat="46.1405660" lon="10.1596900">
	<ele>1650.20</ele>
	<time>2024-09-06T09:04:25.000Z</time>
</trkpt>
<trkpt lat="46.1405690" lon="10.1596740">
	<ele>1650.20</ele>
	<time>2024-09-06T09:04:26.000Z</time>
</trkpt>
<trkpt lat="46.1405740" lon="10.1596620">
	<ele>1650.00</ele>
	<time>2024-09-06T09:04:27.000Z</time>
</trkpt>
<trkpt lat="46.1405760" lon="10.1596560">
	<ele>1649.80</ele>
	<time>2024-09-06T09:04:28.000Z</time>
</trkpt>
<trkpt lat="46.1405750" lon="10.1596540">
	<ele>1649.60</ele>
	<time>2024-09-06T09:04:29.000Z</time>
</trkpt>
<trkpt lat="46.1405740" lon="10.1596540">
	<ele>1649.40</ele>
	<time>2024-09-06T09:04:30.000Z</time>
</trkpt>
<trkpt lat="46.1405720" lon="10.1596570">
	<ele>1649.40</ele>
	<time>2024-09-06T09:04:31.000Z</time>
</trkpt>
<trkpt lat="46.1405740" lon="10.1596610">
	<ele>1649.20</ele>
	<time>2024-09-06T09:04:32.000Z</time>
</trkpt>
<trkpt lat="46.1405710" lon="10.1596620">
	<ele>1649.20</ele>
	<time>2024-09-06T09:04:33.000Z</time>
</trkpt>
<trkpt lat="46.1405740" lon="10.1596690">
	<ele>1649.20</ele>
	<time>2024-09-06T09:04:34.000Z</time>
</trkpt>
<trkpt lat="46.1405680" lon="10.1596670">
	<ele>1649.20</ele>
	<time>2024-09-06T09:04:35.000Z</time>
</trkpt>
<trkpt lat="46.1405640" lon="10.1596670">
	<ele>1649.20</ele>
	<time>2024-09-06T09:04:36.000Z</time>
</trkpt>
<trkpt lat="46.1405640" lon="10.1596670">
	<ele>1649.20</ele>
	<time>2024-09-06T09:04:37.000Z</time>
</trkpt>
<trkpt lat="46.1405630" lon="10.1596680">
	<ele>1649.20</ele>
	<time>2024-09-06T09:04:38.000Z</time>
</trkpt>
<trkpt lat="46.1405640" lon="10.1596680">
	<ele>1649.20</ele>
	<time>2024-09-06T09:04:39.000Z</time>
</trkpt>
<trkpt lat="46.1405650" lon="10.1596700">
	<ele>1649.20</ele>
	<time>2024-09-06T09:04:40.000Z</time>
</trkpt>
<trkpt lat="46.1405670" lon="10.1596710">
	<ele>1649.20</ele>
	<time>2024-09-06T09:04:41.000Z</time>
</trkpt>
<trkpt lat="46.1405690" lon="10.1596720">
	<ele>1649.40</ele>
	<time>2024-09-06T09:04:42.000Z</time>
</trkpt>
<trkpt lat="46.1405690" lon="10.1596720">
	<ele>1649.60</ele>
	<time>2024-09-06T09:04:43.000Z</time>
</trkpt>
<trkpt lat="46.1405690" lon="10.1596720">
	<ele>1649.60</ele>
	<time>2024-09-06T09:04:44.000Z</time>
</trkpt>
<trkpt lat="46.1405690" lon="10.1596720">
	<ele>1649.60</ele>
	<time>2024-09-06T09:04:45.000Z</time>
</trkpt>
<trkpt lat="46.1405690" lon="10.1596720">
	<ele>1649.80</ele>
	<time>2024-09-06T09:04:46.000Z</time>
</trkpt>
<trkpt lat="46.1405690" lon="10.1596720">
	<ele>1649.60</ele>
	<time>2024-09-06T09:04:47.000Z</time>
</trkpt>
<trkpt lat="46.1405690" lon="10.1596720">
	<ele>1649.60</ele>
	<time>2024-09-06T09:04:48.000Z</time>
</trkpt>
<trkpt lat="46.1405690" lon="10.1596720">
	<ele>1649.60</ele>
	<time>2024-09-06T09:04:49.000Z</time>
</trkpt>
<trkpt lat="46.1405690" lon="10.1596680">
	<ele>1649.40</ele>
	<time>2024-09-06T09:04:50.000Z</time>
</trkpt>
<trkpt lat="46.1405710" lon="10.1596500">
	<ele>1649.00</ele>
	<time>2024-09-06T09:04:51.000Z</time>
</trkpt>
<trkpt lat="46.1405740" lon="10.1596240">
	<ele>1648.80</ele>
	<time>2024-09-06T09:04:52.000Z</time>
</trkpt>
<trkpt lat="46.1405740" lon="10.1596060">
	<ele>1648.60</ele>
	<time>2024-09-06T09:04:53.000Z</time>
</trkpt>
<trkpt lat="46.1405750" lon="10.1595860">
	<ele>1648.60</ele>
	<time>2024-09-06T09:04:54.000Z</time>
</trkpt>
<trkpt lat="46.1405760" lon="10.1595680">
	<ele>1648.40</ele>
	<time>2024-09-06T09:04:55.000Z</time>
</trkpt>
<trkpt lat="46.1405750" lon="10.1595510">
	<ele>1648.20</ele>
	<time>2024-09-06T09:04:56.000Z</time>
</trkpt>
<trkpt lat="46.1405760" lon="10.1595360">
	<ele>1648.00</ele>
	<time>2024-09-06T09:04:57.000Z</time>
</trkpt>
<trkpt lat="46.1405760" lon="10.1595180">
	<ele>1648.00</ele>
	<time>2024-09-06T09:04:58.000Z</time>
</trkpt>
<trkpt lat="46.1405720" lon="10.1594980">
	<ele>1647.80</ele>
	<time>2024-09-06T09:04:59.000Z</time>
</trkpt>
<trkpt lat="46.1405680" lon="10.1594850">
	<ele>1647.60</ele>
	<time>2024-09-06T09:05:00.000Z</time>
</trkpt>
<trkpt lat="46.1405650" lon="10.1594740">
	<ele>1647.40</ele>
	<time>2024-09-06T09:05:01.000Z</time>
</trkpt>
<trkpt lat="46.1405640" lon="10.1594590">
	<ele>1647.20</ele>
	<time>2024-09-06T09:05:02.000Z</time>
</trkpt>
<trkpt lat="46.1405640" lon="10.1594410">
	<ele>1647.00</ele>
	<time>2024-09-06T09:05:03.000Z</time>
</trkpt>
<trkpt lat="46.1405670" lon="10.1594240">
	<ele>1646.80</ele>
	<time>2024-09-06T09:05:04.000Z</time>
</trkpt>
<trkpt lat="46.1405670" lon="10.1594060">
	<ele>1646.60</ele>
	<time>2024-09-06T09:05:05.000Z</time>
</trkpt>
<trkpt lat="46.1405680" lon="10.1593850">
	<ele>1646.40</ele>
	<time>2024-09-06T09:05:06.000Z</time>
</trkpt>
<trkpt lat="46.1405710" lon="10.1593670">
	<ele>1646.20</ele>
	<time>2024-09-06T09:05:07.000Z</time>
</trkpt>
<trkpt lat="46.1405740" lon="10.1593500">
	<ele>1646.00</ele>
	<time>2024-09-06T09:05:08.000Z</time>
</trkpt>
<trkpt lat="46.1405760" lon="10.1593300">
	<ele>1645.80</ele>
	<time>2024-09-06T09:05:09.000Z</time>
</trkpt>
<trkpt lat="46.1405790" lon="10.1593080">
	<ele>1645.60</ele>
	<time>2024-09-06T09:05:10.000Z</time>
</trkpt>
<trkpt lat="46.1405820" lon="10.1592930">
	<ele>1645.40</ele>
	<time>2024-09-06T09:05:11.000Z</time>
</trkpt>
<trkpt lat="46.1405870" lon="10.1592760">
	<ele>1645.40</ele>
	<time>2024-09-06T09:05:12.000Z</time>
</trkpt>
<trkpt lat="46.1405910" lon="10.1592590">
	<ele>1645.20</ele>
	<time>2024-09-06T09:05:13.000Z</time>
</trkpt>
<trkpt lat="46.1405930" lon="10.1592430">
	<ele>1645.00</ele>
	<time>2024-09-06T09:05:14.000Z</time>
</trkpt>
<trkpt lat="46.1405960" lon="10.1592240">
	<ele>1644.80</ele>
	<time>2024-09-06T09:05:15.000Z</time>
</trkpt>
<trkpt lat="46.1406000" lon="10.1592020">
	<ele>1644.60</ele>
	<time>2024-09-06T09:05:16.000Z</time>
</trkpt>
<trkpt lat="46.1406020" lon="10.1591800">
	<ele>1644.20</ele>
	<time>2024-09-06T09:05:17.000Z</time>
</trkpt>
<trkpt lat="46.1406080" lon="10.1591660">
	<ele>1643.80</ele>
	<time>2024-09-06T09:05:18.000Z</time>
</trkpt>
<trkpt lat="46.1406120" lon="10.1591500">
	<ele>1643.60</ele>
	<time>2024-09-06T09:05:19.000Z</time>
</trkpt>
<trkpt lat="46.1406140" lon="10.1591320">
	<ele>1643.40</ele>
	<time>2024-09-06T09:05:20.000Z</time>
</trkpt>
<trkpt lat="46.1406190" lon="10.1591150">
	<ele>1643.20</ele>
	<time>2024-09-06T09:05:21.000Z</time>
</trkpt>
<trkpt lat="46.1406260" lon="10.1591010">
	<ele>1643.00</ele>
	<time>2024-09-06T09:05:22.000Z</time>
</trkpt>
<trkpt lat="46.1406310" lon="10.1590890">
	<ele>1642.80</ele>
	<time>2024-09-06T09:05:23.000Z</time>
</trkpt>
<trkpt lat="46.1406390" lon="10.1590750">
	<ele>1642.60</ele>
	<time>2024-09-06T09:05:24.000Z</time>
</trkpt>
<trkpt lat="46.1406450" lon="10.1590530">
	<ele>1642.40</ele>
	<time>2024-09-06T09:05:25.000Z</time>
</trkpt>
<trkpt lat="46.1406480" lon="10.1590370">
	<ele>1642.00</ele>
	<time>2024-09-06T09:05:26.000Z</time>
</trkpt>
<trkpt lat="46.1406540" lon="10.1590240">
	<ele>1641.80</ele>
	<time>2024-09-06T09:05:27.000Z</time>
</trkpt>
<trkpt lat="46.1406610" lon="10.1590050">
	<ele>1641.60</ele>
	<time>2024-09-06T09:05:28.000Z</time>
</trkpt>
<trkpt lat="46.1406660" lon="10.1589940">
	<ele>1641.20</ele>
	<time>2024-09-06T09:05:29.000Z</time>
</trkpt>
<trkpt lat="46.1406690" lon="10.1589780">
	<ele>1640.80</ele>
	<time>2024-09-06T09:05:30.000Z</time>
</trkpt>
<trkpt lat="46.1406690" lon="10.1589600">
	<ele>1640.60</ele>
	<time>2024-09-06T09:05:31.000Z</time>
</trkpt>
<trkpt lat="46.1406740" lon="10.1589450">
	<ele>1640.40</ele>
	<time>2024-09-06T09:05:32.000Z</time>
</trkpt>
<trkpt lat="46.1406780" lon="10.1589300">
	<ele>1640.20</ele>
	<time>2024-09-06T09:05:33.000Z</time>
</trkpt>
<trkpt lat="46.1406820" lon="10.1589170">
	<ele>1639.80</ele>
	<time>2024-09-06T09:05:34.000Z</time>
</trkpt>
<trkpt lat="46.1406870" lon="10.1589060">
	<ele>1639.60</ele>
	<time>2024-09-06T09:05:35.000Z</time>
</trkpt>
<trkpt lat="46.1406920" lon="10.1588930">
	<ele>1639.20</ele>
	<time>2024-09-06T09:05:36.000Z</time>
</trkpt>
<trkpt lat="46.1406960" lon="10.1588780">
	<ele>1639.00</ele>
	<time>2024-09-06T09:05:37.000Z</time>
</trkpt>
<trkpt lat="46.1407020" lon="10.1588650">
	<ele>1638.80</ele>
	<time>2024-09-06T09:05:38.000Z</time>
</trkpt>
<trkpt lat="46.1407070" lon="10.1588530">
	<ele>1638.60</ele>
	<time>2024-09-06T09:05:39.000Z</time>
</trkpt>
<trkpt lat="46.1407100" lon="10.1588360">
	<ele>1638.40</ele>
	<time>2024-09-06T09:05:40.000Z</time>
</trkpt>
<trkpt lat="46.1407110" lon="10.1588190">
	<ele>1638.20</ele>
	<time>2024-09-06T09:05:41.000Z</time>
</trkpt>
<trkpt lat="46.1407150" lon="10.1588050">
	<ele>1638.00</ele>
	<time>2024-09-06T09:05:42.000Z</time>
</trkpt>
<trkpt lat="46.1407180" lon="10.1587900">
	<ele>1637.60</ele>
	<time>2024-09-06T09:05:43.000Z</time>
</trkpt>
<trkpt lat="46.1407200" lon="10.1587730">
	<ele>1637.40</ele>
	<time>2024-09-06T09:05:44.000Z</time>
</trkpt>
<trkpt lat="46.1407200" lon="10.1587600">
	<ele>1637.00</ele>
	<time>2024-09-06T09:05:45.000Z</time>
</trkpt>
<trkpt lat="46.1407230" lon="10.1587430">
	<ele>1636.80</ele>
	<time>2024-09-06T09:05:46.000Z</time>
</trkpt>
<trkpt lat="46.1407290" lon="10.1587310">
	<ele>1636.60</ele>
	<time>2024-09-06T09:05:47.000Z</time>
</trkpt>
<trkpt lat="46.1407310" lon="10.1587140">
	<ele>1636.40</ele>
	<time>2024-09-06T09:05:48.000Z</time>
</trkpt>
<trkpt lat="46.1407270" lon="10.1586910">
	<ele>1636.20</ele>
	<time>2024-09-06T09:05:49.000Z</time>
</trkpt>
<trkpt lat="46.1407240" lon="10.1586700">
	<ele>1636.20</ele>
	<time>2024-09-06T09:05:50.000Z</time>
</trkpt>
<trkpt lat="46.1407250" lon="10.1586520">
	<ele>1636.00</ele>
	<time>2024-09-06T09:05:51.000Z</time>
</trkpt>
<trkpt lat="46.1407280" lon="10.1586370">
	<ele>1635.60</ele>
	<time>2024-09-06T09:05:52.000Z</time>
</trkpt>
<trkpt lat="46.1407320" lon="10.1586220">
	<ele>1635.40</ele>
	<time>2024-09-06T09:05:53.000Z</time>
</trkpt>
<trkpt lat="46.1407370" lon="10.1586060">
	<ele>1635.00</ele>
	<time>2024-09-06T09:05:54.000Z</time>
</trkpt>
<trkpt lat="46.1407460" lon="10.1585890">
	<ele>1634.80</ele>
	<time>2024-09-06T09:05:55.000Z</time>
</trkpt>
<trkpt lat="46.1407560" lon="10.1585710">
	<ele>1634.40</ele>
	<time>2024-09-06T09:05:56.000Z</time>
</trkpt>
<trkpt lat="46.1407630" lon="10.1585550">
	<ele>1634.20</ele>
	<time>2024-09-06T09:05:57.000Z</time>
</trkpt>
<trkpt lat="46.1407650" lon="10.1585360">
	<ele>1634.00</ele>
	<time>2024-09-06T09:05:58.000Z</time>
</trkpt>
<trkpt lat="46.1407770" lon="10.1585260">
	<ele>1633.80</ele>
	<time>2024-09-06T09:05:59.000Z</time>
</trkpt>
<trkpt lat="46.1407820" lon="10.1585100">
	<ele>1633.60</ele>
	<time>2024-09-06T09:06:00.000Z</time>
</trkpt>
<trkpt lat="46.1407870" lon="10.1584970">
	<ele>1633.40</ele>
	<time>2024-09-06T09:06:01.000Z</time>
</trkpt>
<trkpt lat="46.1407930" lon="10.1584810">
	<ele>1633.00</ele>
	<time>2024-09-06T09:06:02.000Z</time>
</trkpt>
<trkpt lat="46.1407990" lon="10.1584640">
	<ele>1632.80</ele>
	<time>2024-09-06T09:06:03.000Z</time>
</trkpt>
<trkpt lat="46.1408090" lon="10.1584590">
	<ele>1632.60</ele>
	<time>2024-09-06T09:06:04.000Z</time>
</trkpt>
<trkpt lat="46.1408200" lon="10.1584560">
	<ele>1632.60</ele>
	<time>2024-09-06T09:06:05.000Z</time>
</trkpt>
<trkpt lat="46.1408240" lon="10.1584440">
	<ele>1632.20</ele>
	<time>2024-09-06T09:06:06.000Z</time>
</trkpt>
<trkpt lat="46.1408260" lon="10.1584300">
	<ele>1632.00</ele>
	<time>2024-09-06T09:06:07.000Z</time>
</trkpt>
<trkpt lat="46.1408260" lon="10.1584130">
	<ele>1632.00</ele>
	<time>2024-09-06T09:06:08.000Z</time>
</trkpt>
<trkpt lat="46.1408250" lon="10.1583930">
	<ele>1631.60</ele>
	<time>2024-09-06T09:06:09.000Z</time>
</trkpt>
<trkpt lat="46.1408260" lon="10.1583800">
	<ele>1631.20</ele>
	<time>2024-09-06T09:06:10.000Z</time>
</trkpt>
<trkpt lat="46.1408280" lon="10.1583670">
	<ele>1631.00</ele>
	<time>2024-09-06T09:06:11.000Z</time>
</trkpt>
<trkpt lat="46.1408260" lon="10.1583530">
	<ele>1631.00</ele>
	<time>2024-09-06T09:06:12.000Z</time>
</trkpt>
<trkpt lat="46.1408190" lon="10.1583360">
	<ele>1630.60</ele>
	<time>2024-09-06T09:06:13.000Z</time>
</trkpt>
<trkpt lat="46.1408130" lon="10.1583190">
	<ele>1630.40</ele>
	<time>2024-09-06T09:06:14.000Z</time>
</trkpt>
<trkpt lat="46.1408090" lon="10.1583000">
	<ele>1630.20</ele>
	<time>2024-09-06T09:06:15.000Z</time>
</trkpt>
<trkpt lat="46.1408010" lon="10.1582780">
	<ele>1630.00</ele>
	<time>2024-09-06T09:06:16.000Z</time>
</trkpt>
<trkpt lat="46.1407950" lon="10.1582610">
	<ele>1629.80</ele>
	<time>2024-09-06T09:06:17.000Z</time>
</trkpt>
<trkpt lat="46.1407910" lon="10.1582460">
	<ele>1629.80</ele>
	<time>2024-09-06T09:06:18.000Z</time>
</trkpt>
<trkpt lat="46.1407880" lon="10.1582310">
	<ele>1629.20</ele>
	<time>2024-09-06T09:06:19.000Z</time>
</trkpt>
<trkpt lat="46.1407810" lon="10.1582160">
	<ele>1629.00</ele>
	<time>2024-09-06T09:06:20.000Z</time>
</trkpt>
<trkpt lat="46.1407770" lon="10.1582040">
	<ele>1628.80</ele>
	<time>2024-09-06T09:06:21.000Z</time>
</trkpt>
<trkpt lat="46.1407730" lon="10.1581930">
	<ele>1628.60</ele>
	<time>2024-09-06T09:06:22.000Z</time>
</trkpt>
<trkpt lat="46.1407660" lon="10.1581790">
	<ele>1628.20</ele>
	<time>2024-09-06T09:06:23.000Z</time>
</trkpt>
<trkpt lat="46.1407600" lon="10.1581620">
	<ele>1628.00</ele>
	<time>2024-09-06T09:06:24.000Z</time>
</trkpt>
<trkpt lat="46.1407610" lon="10.1581520">
	<ele>1627.80</ele>
	<time>2024-09-06T09:06:25.000Z</time>
</trkpt>
<trkpt lat="46.1407620" lon="10.1581410">
	<ele>1627.80</ele>
	<time>2024-09-06T09:06:26.000Z</time>
</trkpt>
<trkpt lat="46.1407620" lon="10.1581300">
	<ele>1627.40</ele>
	<time>2024-09-06T09:06:27.000Z</time>
</trkpt>
<trkpt lat="46.1407620" lon="10.1581180">
	<ele>1627.00</ele>
	<time>2024-09-06T09:06:28.000Z</time>
</trkpt>
<trkpt lat="46.1407640" lon="10.1581060">
	<ele>1627.00</ele>
	<time>2024-09-06T09:06:29.000Z</time>
</trkpt>
<trkpt lat="46.1407690" lon="10.1580950">
	<ele>1626.80</ele>
	<time>2024-09-06T09:06:30.000Z</time>
</trkpt>
<trkpt lat="46.1407710" lon="10.1580790">
	<ele>1626.40</ele>
	<time>2024-09-06T09:06:31.000Z</time>
</trkpt>
<trkpt lat="46.1407710" lon="10.1580640">
	<ele>1626.40</ele>
	<time>2024-09-06T09:06:32.000Z</time>
</trkpt>
<trkpt lat="46.1407740" lon="10.1580510">
	<ele>1626.00</ele>
	<time>2024-09-06T09:06:33.000Z</time>
</trkpt>
<trkpt lat="46.1407770" lon="10.1580390">
	<ele>1625.60</ele>
	<time>2024-09-06T09:06:34.000Z</time>
</trkpt>
<trkpt lat="46.1407780" lon="10.1580260">
	<ele>1625.40</ele>
	<time>2024-09-06T09:06:35.000Z</time>
</trkpt>
<trkpt lat="46.1407780" lon="10.1580180">
	<ele>1625.20</ele>
	<time>2024-09-06T09:06:36.000Z</time>
</trkpt>
<trkpt lat="46.1407770" lon="10.1580150">
	<ele>1625.00</ele>
	<time>2024-09-06T09:06:37.000Z</time>
</trkpt>
<trkpt lat="46.1407740" lon="10.1580130">
	<ele>1624.80</ele>
	<time>2024-09-06T09:06:38.000Z</time>
</trkpt>
<trkpt lat="46.1407740" lon="10.1580130">
	<ele>1624.80</ele>
	<time>2024-09-06T09:06:39.000Z</time>
</trkpt>
<trkpt lat="46.1407750" lon="10.1580140">
	<ele>1624.60</ele>
	<time>2024-09-06T09:06:40.000Z</time>
</trkpt>
<trkpt lat="46.1407680" lon="10.1580080">
	<ele>1624.60</ele>
	<time>2024-09-06T09:06:41.000Z</time>
</trkpt>
<trkpt lat="46.1407670" lon="10.1580070">
	<ele>1624.60</ele>
	<time>2024-09-06T09:06:42.000Z</time>
</trkpt>
<trkpt lat="46.1407670" lon="10.1580090">
	<ele>1624.60</ele>
	<time>2024-09-06T09:06:43.000Z</time>
</trkpt>
<trkpt lat="46.1407650" lon="10.1580080">
	<ele>1624.60</ele>
	<time>2024-09-06T09:06:44.000Z</time>
</trkpt>
<trkpt lat="46.1407650" lon="10.1580080">
	<ele>1624.60</ele>
	<time>2024-09-06T09:06:45.000Z</time>
</trkpt>
<trkpt lat="46.1407640" lon="10.1580070">
	<ele>1624.60</ele>
	<time>2024-09-06T09:06:46.000Z</time>
</trkpt>
<trkpt lat="46.1407640" lon="10.1580080">
	<ele>1624.60</ele>
	<time>2024-09-06T09:06:47.000Z</time>
</trkpt>
<trkpt lat="46.1407640" lon="10.1580080">
	<ele>1624.60</ele>
	<time>2024-09-06T09:06:48.000Z</time>
</trkpt>
<trkpt lat="46.1407640" lon="10.1580080">
	<ele>1624.60</ele>
	<time>2024-09-06T09:06:49.000Z</time>
</trkpt>
<trkpt lat="46.1407640" lon="10.1580080">
	<ele>1624.60</ele>
	<time>2024-09-06T09:06:50.000Z</time>
</trkpt>
<trkpt lat="46.1407640" lon="10.1580080">
	<ele>1624.40</ele>
	<time>2024-09-06T09:06:51.000Z</time>
</trkpt>
<trkpt lat="46.1407640" lon="10.1580080">
	<ele>1624.40</ele>
	<time>2024-09-06T09:06:52.000Z</time>
</trkpt>
<trkpt lat="46.1407630" lon="10.1580010">
	<ele>1624.20</ele>
	<time>2024-09-06T09:06:53.000Z</time>
</trkpt>
<trkpt lat="46.1407570" lon="10.1579770">
	<ele>1624.00</ele>
	<time>2024-09-06T09:06:54.000Z</time>
</trkpt>
<trkpt lat="46.1407520" lon="10.1579540">
	<ele>1623.80</ele>
	<time>2024-09-06T09:06:55.000Z</time>
</trkpt>
<trkpt lat="46.1407460" lon="10.1579260">
	<ele>1623.60</ele>
	<time>2024-09-06T09:06:56.000Z</time>
</trkpt>
<trkpt lat="46.1407470" lon="10.1579080">
	<ele>1623.40</ele>
	<time>2024-09-06T09:06:57.000Z</time>
</trkpt>
<trkpt lat="46.1407430" lon="10.1578860">
	<ele>1623.20</ele>
	<time>2024-09-06T09:06:58.000Z</time>
</trkpt>
<trkpt lat="46.1407400" lon="10.1578600">
	<ele>1623.00</ele>
	<time>2024-09-06T09:06:59.000Z</time>
</trkpt>
<trkpt lat="46.1407370" lon="10.1578340">
	<ele>1622.80</ele>
	<time>2024-09-06T09:07:00.000Z</time>
</trkpt>
<trkpt lat="46.1407390" lon="10.1578130">
	<ele>1622.60</ele>
	<time>2024-09-06T09:07:01.000Z</time>
</trkpt>
<trkpt lat="46.1407420" lon="10.1577930">
	<ele>1622.40</ele>
	<time>2024-09-06T09:07:02.000Z</time>
</trkpt>
<trkpt lat="46.1407440" lon="10.1577770">
	<ele>1622.20</ele>
	<time>2024-09-06T09:07:03.000Z</time>
</trkpt>
<trkpt lat="46.1407440" lon="10.1577550">
	<ele>1622.00</ele>
	<time>2024-09-06T09:07:04.000Z</time>
</trkpt>
<trkpt lat="46.1407440" lon="10.1577420">
	<ele>1621.60</ele>
	<time>2024-09-06T09:07:05.000Z</time>
</trkpt>
<trkpt lat="46.1407420" lon="10.1577210">
	<ele>1621.20</ele>
	<time>2024-09-06T09:07:06.000Z</time>
</trkpt>
<trkpt lat="46.1407410" lon="10.1577000">
	<ele>1620.80</ele>
	<time>2024-09-06T09:07:07.000Z</time>
</trkpt>
<trkpt lat="46.1407400" lon="10.1576830">
	<ele>1620.60</ele>
	<time>2024-09-06T09:07:08.000Z</time>
</trkpt>
<trkpt lat="46.1407380" lon="10.1576640">
	<ele>1620.60</ele>
	<time>2024-09-06T09:07:09.000Z</time>
</trkpt>
<trkpt lat="46.1407360" lon="10.1576450">
	<ele>1620.20</ele>
	<time>2024-09-06T09:07:10.000Z</time>
</trkpt>
<trkpt lat="46.1407290" lon="10.1576240">
	<ele>1619.80</ele>
	<time>2024-09-06T09:07:11.000Z</time>
</trkpt>
<trkpt lat="46.1407230" lon="10.1576040">
	<ele>1619.60</ele>
	<time>2024-09-06T09:07:12.000Z</time>
</trkpt>
<trkpt lat="46.1407160" lon="10.1575820">
	<ele>1619.40</ele>
	<time>2024-09-06T09:07:13.000Z</time>
</trkpt>
<trkpt lat="46.1407090" lon="10.1575600">
	<ele>1619.00</ele>
	<time>2024-09-06T09:07:14.000Z</time>
</trkpt>
<trkpt lat="46.1407010" lon="10.1575370">
	<ele>1618.80</ele>
	<time>2024-09-06T09:07:15.000Z</time>
</trkpt>
<trkpt lat="46.1407040" lon="10.1575160">
	<ele>1618.40</ele>
	<time>2024-09-06T09:07:16.000Z</time>
</trkpt>
<trkpt lat="46.1407060" lon="10.1574990">
	<ele>1618.20</ele>
	<time>2024-09-06T09:07:17.000Z</time>
</trkpt>
<trkpt lat="46.1407030" lon="10.1574710">
	<ele>1618.00</ele>
	<time>2024-09-06T09:07:18.000Z</time>
</trkpt>
<trkpt lat="46.1407000" lon="10.1574510">
	<ele>1617.80</ele>
	<time>2024-09-06T09:07:19.000Z</time>
</trkpt>
<trkpt lat="46.1406970" lon="10.1574330">
	<ele>1617.80</ele>
	<time>2024-09-06T09:07:20.000Z</time>
</trkpt>
<trkpt lat="46.1406940" lon="10.1574240">
	<ele>1617.60</ele>
	<time>2024-09-06T09:07:21.000Z</time>
</trkpt>
<trkpt lat="46.1406880" lon="10.1574050">
	<ele>1617.40</ele>
	<time>2024-09-06T09:07:22.000Z</time>
</trkpt>
<trkpt lat="46.1406850" lon="10.1573900">
	<ele>1617.20</ele>
	<time>2024-09-06T09:07:23.000Z</time>
</trkpt>
<trkpt lat="46.1406800" lon="10.1573740">
	<ele>1617.00</ele>
	<time>2024-09-06T09:07:24.000Z</time>
</trkpt>
<trkpt lat="46.1406720" lon="10.1573560">
	<ele>1616.60</ele>
	<time>2024-09-06T09:07:25.000Z</time>
</trkpt>
<trkpt lat="46.1406700" lon="10.1573440">
	<ele>1616.40</ele>
	<time>2024-09-06T09:07:26.000Z</time>
</trkpt>
<trkpt lat="46.1406650" lon="10.1573240">
	<ele>1616.20</ele>
	<time>2024-09-06T09:07:27.000Z</time>
</trkpt>
<trkpt lat="46.1406550" lon="10.1573010">
	<ele>1616.00</ele>
	<time>2024-09-06T09:07:28.000Z</time>
</trkpt>
<trkpt lat="46.1406480" lon="10.1572790">
	<ele>1615.80</ele>
	<time>2024-09-06T09:07:29.000Z</time>
</trkpt>
<trkpt lat="46.1406450" lon="10.1572630">
	<ele>1615.60</ele>
	<time>2024-09-06T09:07:30.000Z</time>
</trkpt>
<trkpt lat="46.1406430" lon="10.1572500">
	<ele>1615.40</ele>
	<time>2024-09-06T09:07:31.000Z</time>
</trkpt>
<trkpt lat="46.1406410" lon="10.1572300">
	<ele>1615.20</ele>
	<time>2024-09-06T09:07:32.000Z</time>
</trkpt>
<trkpt lat="46.1406360" lon="10.1572100">
	<ele>1615.00</ele>
	<time>2024-09-06T09:07:33.000Z</time>
</trkpt>
<trkpt lat="46.1406330" lon="10.1571930">
	<ele>1614.80</ele>
	<time>2024-09-06T09:07:34.000Z</time>
</trkpt>
<trkpt lat="46.1406270" lon="10.1571730">
	<ele>1614.60</ele>
	<time>2024-09-06T09:07:35.000Z</time>
</trkpt>
<trkpt lat="46.1406220" lon="10.1571560">
	<ele>1614.40</ele>
	<time>2024-09-06T09:07:36.000Z</time>
</trkpt>
<trkpt lat="46.1406210" lon="10.1571380">
	<ele>1614.20</ele>
	<time>2024-09-06T09:07:37.000Z</time>
</trkpt>
<trkpt lat="46.1406160" lon="10.1571250">
	<ele>1614.00</ele>
	<time>2024-09-06T09:07:38.000Z</time>
</trkpt>
<trkpt lat="46.1406140" lon="10.1571130">
	<ele>1614.00</ele>
	<time>2024-09-06T09:07:39.000Z</time>
</trkpt>
<trkpt lat="46.1406090" lon="10.1571030">
	<ele>1613.80</ele>
	<time>2024-09-06T09:07:40.000Z</time>
</trkpt>
<trkpt lat="46.1406030" lon="10.1570900">
	<ele>1613.60</ele>
	<time>2024-09-06T09:07:41.000Z</time>
</trkpt>
<trkpt lat="46.1405990" lon="10.1570710">
	<ele>1613.40</ele>
	<time>2024-09-06T09:07:42.000Z</time>
</trkpt>
<trkpt lat="46.1405950" lon="10.1570530">
	<ele>1613.40</ele>
	<time>2024-09-06T09:07:43.000Z</time>
</trkpt>
<trkpt lat="46.1405930" lon="10.1570350">
	<ele>1613.20</ele>
	<time>2024-09-06T09:07:44.000Z</time>
</trkpt>
<trkpt lat="46.1405910" lon="10.1570180">
	<ele>1613.00</ele>
	<time>2024-09-06T09:07:45.000Z</time>
</trkpt>
<trkpt lat="46.1405890" lon="10.1570010">
	<ele>1612.80</ele>
	<time>2024-09-06T09:07:46.000Z</time>
</trkpt>
<trkpt lat="46.1405840" lon="10.1569840">
	<ele>1612.80</ele>
	<time>2024-09-06T09:07:47.000Z</time>
</trkpt>
<trkpt lat="46.1405810" lon="10.1569670">
	<ele>1612.40</ele>
	<time>2024-09-06T09:07:48.000Z</time>
</trkpt>
<trkpt lat="46.1405780" lon="10.1569470">
	<ele>1612.00</ele>
	<time>2024-09-06T09:07:49.000Z</time>
</trkpt>
<trkpt lat="46.1405780" lon="10.1569270">
	<ele>1611.80</ele>
	<time>2024-09-06T09:07:50.000Z</time>
</trkpt>
<trkpt lat="46.1405780" lon="10.1569070">
	<ele>1611.80</ele>
	<time>2024-09-06T09:07:51.000Z</time>
</trkpt>
<trkpt lat="46.1405740" lon="10.1568840">
	<ele>1611.60</ele>
	<time>2024-09-06T09:07:52.000Z</time>
</trkpt>
<trkpt lat="46.1405680" lon="10.1568620">
	<ele>1611.40</ele>
	<time>2024-09-06T09:07:53.000Z</time>
</trkpt>
<trkpt lat="46.1405660" lon="10.1568420">
	<ele>1611.20</ele>
	<time>2024-09-06T09:07:54.000Z</time>
</trkpt>
<trkpt lat="46.1405640" lon="10.1568210">
	<ele>1611.00</ele>
	<time>2024-09-06T09:07:55.000Z</time>
</trkpt>
<trkpt lat="46.1405640" lon="10.1567990">
	<ele>1610.60</ele>
	<time>2024-09-06T09:07:56.000Z</time>
</trkpt>
<trkpt lat="46.1405650" lon="10.1567810">
	<ele>1610.40</ele>
	<time>2024-09-06T09:07:57.000Z</time>
</trkpt>
<trkpt lat="46.1405650" lon="10.1567620">
	<ele>1610.00</ele>
	<time>2024-09-06T09:07:58.000Z</time>
</trkpt>
<trkpt lat="46.1405670" lon="10.1567420">
	<ele>1609.80</ele>
	<time>2024-09-06T09:07:59.000Z</time>
</trkpt>
<trkpt lat="46.1405690" lon="10.1567250">
	<ele>1609.60</ele>
	<time>2024-09-06T09:08:00.000Z</time>
</trkpt>
<trkpt lat="46.1405710" lon="10.1567070">
	<ele>1609.40</ele>
	<time>2024-09-06T09:08:01.000Z</time>
</trkpt>
<trkpt lat="46.1405740" lon="10.1566860">
	<ele>1609.00</ele>
	<time>2024-09-06T09:08:02.000Z</time>
</trkpt>
<trkpt lat="46.1405800" lon="10.1566700">
	<ele>1608.80</ele>
	<time>2024-09-06T09:08:03.000Z</time>
</trkpt>
<trkpt lat="46.1405860" lon="10.1566560">
	<ele>1608.40</ele>
	<time>2024-09-06T09:08:04.000Z</time>
</trkpt>
<trkpt lat="46.1405920" lon="10.1566390">
	<ele>1608.20</ele>
	<time>2024-09-06T09:08:05.000Z</time>
</trkpt>
<trkpt lat="46.1405960" lon="10.1566240">
	<ele>1608.00</ele>
	<time>2024-09-06T09:08:06.000Z</time>
</trkpt>
<trkpt lat="46.1406040" lon="10.1566110">
	<ele>1607.40</ele>
	<time>2024-09-06T09:08:07.000Z</time>
</trkpt>
<trkpt lat="46.1406130" lon="10.1565960">
	<ele>1607.20</ele>
	<time>2024-09-06T09:08:08.000Z</time>
</trkpt>
<trkpt lat="46.1406190" lon="10.1565810">
	<ele>1607.00</ele>
	<time>2024-09-06T09:08:09.000Z</time>
</trkpt>
<trkpt lat="46.1406200" lon="10.1565630">
	<ele>1606.80</ele>
	<time>2024-09-06T09:08:10.000Z</time>
</trkpt>
<trkpt lat="46.1406220" lon="10.1565430">
	<ele>1606.60</ele>
	<time>2024-09-06T09:08:11.000Z</time>
</trkpt>
<trkpt lat="46.1406240" lon="10.1565260">
	<ele>1606.40</ele>
	<time>2024-09-06T09:08:12.000Z</time>
</trkpt>
<trkpt lat="46.1406290" lon="10.1565080">
	<ele>1606.20</ele>
	<time>2024-09-06T09:08:13.000Z</time>
</trkpt>
<trkpt lat="46.1406350" lon="10.1564930">
	<ele>1605.80</ele>
	<time>2024-09-06T09:08:14.000Z</time>
</trkpt>
<trkpt lat="46.1406410" lon="10.1564770">
	<ele>1605.40</ele>
	<time>2024-09-06T09:08:15.000Z</time>
</trkpt>
<trkpt lat="46.1406450" lon="10.1564620">
	<ele>1605.20</ele>
	<time>2024-09-06T09:08:16.000Z</time>
</trkpt>
<trkpt lat="46.1406510" lon="10.1564460">
	<ele>1604.80</ele>
	<time>2024-09-06T09:08:17.000Z</time>
</trkpt>
<trkpt lat="46.1406600" lon="10.1564350">
	<ele>1604.60</ele>
	<time>2024-09-06T09:08:18.000Z</time>
</trkpt>
<trkpt lat="46.1406640" lon="10.1564190">
	<ele>1604.20</ele>
	<time>2024-09-06T09:08:19.000Z</time>
</trkpt>
<trkpt lat="46.1406680" lon="10.1564020">
	<ele>1604.00</ele>
	<time>2024-09-06T09:08:20.000Z</time>
</trkpt>
<trkpt lat="46.1406770" lon="10.1563800">
	<ele>1603.80</ele>
	<time>2024-09-06T09:08:21.000Z</time>
</trkpt>
<trkpt lat="46.1406830" lon="10.1563650">
	<ele>1603.60</ele>
	<time>2024-09-06T09:08:22.000Z</time>
</trkpt>
<trkpt lat="46.1406840" lon="10.1563510">
	<ele>1603.40</ele>
	<time>2024-09-06T09:08:23.000Z</time>
</trkpt>
<trkpt lat="46.1406900" lon="10.1563370">
	<ele>1603.20</ele>
	<time>2024-09-06T09:08:24.000Z</time>
</trkpt>
<trkpt lat="46.1407000" lon="10.1563320">
	<ele>1603.00</ele>
	<time>2024-09-06T09:08:25.000Z</time>
</trkpt>
<trkpt lat="46.1407100" lon="10.1563230">
	<ele>1602.60</ele>
	<time>2024-09-06T09:08:26.000Z</time>
</trkpt>
<trkpt lat="46.1407190" lon="10.1563090">
	<ele>1602.40</ele>
	<time>2024-09-06T09:08:27.000Z</time>
</trkpt>
<trkpt lat="46.1407230" lon="10.1562890">
	<ele>1602.00</ele>
	<time>2024-09-06T09:08:28.000Z</time>
</trkpt>
<trkpt lat="46.1407260" lon="10.1562710">
	<ele>1601.60</ele>
	<time>2024-09-06T09:08:29.000Z</time>
</trkpt>
<trkpt lat="46.1407310" lon="10.1562570">
	<ele>1601.40</ele>
	<time>2024-09-06T09:08:30.000Z</time>
</trkpt>
<trkpt lat="46.1407350" lon="10.1562400">
	<ele>1601.00</ele>
	<time>2024-09-06T09:08:31.000Z</time>
</trkpt>
<trkpt lat="46.1407410" lon="10.1562260">
	<ele>1600.80</ele>
	<time>2024-09-06T09:08:32.000Z</time>
</trkpt>
<trkpt lat="46.1407480" lon="10.1562120">
	<ele>1600.60</ele>
	<time>2024-09-06T09:08:33.000Z</time>
</trkpt>
<trkpt lat="46.1407550" lon="10.1561980">
	<ele>1600.20</ele>
	<time>2024-09-06T09:08:34.000Z</time>
</trkpt>
<trkpt lat="46.1407650" lon="10.1561910">
	<ele>1599.80</ele>
	<time>2024-09-06T09:08:35.000Z</time>
</trkpt>
<trkpt lat="46.1407720" lon="10.1561850">
	<ele>1599.60</ele>
	<time>2024-09-06T09:08:36.000Z</time>
</trkpt>
<trkpt lat="46.1407790" lon="10.1561750">
	<ele>1599.40</ele>
	<time>2024-09-06T09:08:37.000Z</time>
</trkpt>
<trkpt lat="46.1407820" lon="10.1561620">
	<ele>1599.00</ele>
	<time>2024-09-06T09:08:38.000Z</time>
</trkpt>
<trkpt lat="46.1407840" lon="10.1561340">
	<ele>1598.60</ele>
	<time>2024-09-06T09:08:39.000Z</time>
</trkpt>
<trkpt lat="46.1407860" lon="10.1561110">
	<ele>1598.20</ele>
	<time>2024-09-06T09:08:40.000Z</time>
</trkpt>
<trkpt lat="46.1407880" lon="10.1560930">
	<ele>1598.00</ele>
	<time>2024-09-06T09:08:41.000Z</time>
</trkpt>
<trkpt lat="46.1407950" lon="10.1560770">
	<ele>1597.60</ele>
	<time>2024-09-06T09:08:42.000Z</time>
</trkpt>
<trkpt lat="46.1408010" lon="10.1560660">
	<ele>1597.40</ele>
	<time>2024-09-06T09:08:43.000Z</time>
</trkpt>
<trkpt lat="46.1408080" lon="10.1560550">
	<ele>1597.00</ele>
	<time>2024-09-06T09:08:44.000Z</time>
</trkpt>
<trkpt lat="46.1408160" lon="10.1560440">
	<ele>1596.80</ele>
	<time>2024-09-06T09:08:45.000Z</time>
</trkpt>
<trkpt lat="46.1408210" lon="10.1560260">
	<ele>1596.60</ele>
	<time>2024-09-06T09:08:46.000Z</time>
</trkpt>
<trkpt lat="46.1408290" lon="10.1560120">
	<ele>1596.20</ele>
	<time>2024-09-06T09:08:47.000Z</time>
</trkpt>
<trkpt lat="46.1408370" lon="10.1559960">
	<ele>1595.80</ele>
	<time>2024-09-06T09:08:48.000Z</time>
</trkpt>
<trkpt lat="46.1408460" lon="10.1559840">
	<ele>1595.40</ele>
	<time>2024-09-06T09:08:49.000Z</time>
</trkpt>
<trkpt lat="46.1408560" lon="10.1559720">
	<ele>1595.20</ele>
	<time>2024-09-06T09:08:50.000Z</time>
</trkpt>
<trkpt lat="46.1408650" lon="10.1559580">
	<ele>1594.60</ele>
	<time>2024-09-06T09:08:51.000Z</time>
</trkpt>
<trkpt lat="46.1408740" lon="10.1559460">
	<ele>1594.20</ele>
	<time>2024-09-06T09:08:52.000Z</time>
</trkpt>
<trkpt lat="46.1408850" lon="10.1559350">
	<ele>1593.80</ele>
	<time>2024-09-06T09:08:53.000Z</time>
</trkpt>
<trkpt lat="46.1408940" lon="10.1559250">
	<ele>1593.60</ele>
	<time>2024-09-06T09:08:54.000Z</time>
</trkpt>
<trkpt lat="46.1409030" lon="10.1559110">
	<ele>1593.40</ele>
	<time>2024-09-06T09:08:55.000Z</time>
</trkpt>
<trkpt lat="46.1409100" lon="10.1558990">
	<ele>1593.00</ele>
	<time>2024-09-06T09:08:56.000Z</time>
</trkpt>
<trkpt lat="46.1409150" lon="10.1558830">
	<ele>1592.60</ele>
	<time>2024-09-06T09:08:57.000Z</time>
</trkpt>
<trkpt lat="46.1409160" lon="10.1558630">
	<ele>1592.40</ele>
	<time>2024-09-06T09:08:58.000Z</time>
</trkpt>
<trkpt lat="46.1409170" lon="10.1558430">
	<ele>1592.20</ele>
	<time>2024-09-06T09:08:59.000Z</time>
</trkpt>
<trkpt lat="46.1409220" lon="10.1558250">
	<ele>1592.00</ele>
	<time>2024-09-06T09:09:00.000Z</time>
</trkpt>
<trkpt lat="46.1409280" lon="10.1558100">
	<ele>1591.60</ele>
	<time>2024-09-06T09:09:01.000Z</time>
</trkpt>
<trkpt lat="46.1409350" lon="10.1557930">
	<ele>1591.20</ele>
	<time>2024-09-06T09:09:02.000Z</time>
</trkpt>
<trkpt lat="46.1409460" lon="10.1557810">
	<ele>1591.00</ele>
	<time>2024-09-06T09:09:03.000Z</time>
</trkpt>
<trkpt lat="46.1409510" lon="10.1557640">
	<ele>1590.40</ele>
	<time>2024-09-06T09:09:04.000Z</time>
</trkpt>
<trkpt lat="46.1409540" lon="10.1557530">
	<ele>1590.20</ele>
	<time>2024-09-06T09:09:05.000Z</time>
</trkpt>
<trkpt lat="46.1409560" lon="10.1557380">
	<ele>1589.80</ele>
	<time>2024-09-06T09:09:06.000Z</time>
</trkpt>
<trkpt lat="46.1409520" lon="10.1557170">
	<ele>1589.60</ele>
	<time>2024-09-06T09:09:07.000Z</time>
</trkpt>
<trkpt lat="46.1409570" lon="10.1556950">
	<ele>1589.20</ele>
	<time>2024-09-06T09:09:08.000Z</time>
</trkpt>
<trkpt lat="46.1409680" lon="10.1556860">
	<ele>1589.00</ele>
	<time>2024-09-06T09:09:09.000Z</time>
</trkpt>
<trkpt lat="46.1409770" lon="10.1556790">
	<ele>1588.80</ele>
	<time>2024-09-06T09:09:10.000Z</time>
</trkpt>
<trkpt lat="46.1409840" lon="10.1556660">
	<ele>1588.40</ele>
	<time>2024-09-06T09:09:11.000Z</time>
</trkpt>
<trkpt lat="46.1409930" lon="10.1556550">
	<ele>1588.20</ele>
	<time>2024-09-06T09:09:12.000Z</time>
</trkpt>
<trkpt lat="46.1410040" lon="10.1556480">
	<ele>1587.80</ele>
	<time>2024-09-06T09:09:13.000Z</time>
</trkpt>
<trkpt lat="46.1410160" lon="10.1556410">
	<ele>1587.40</ele>
	<time>2024-09-06T09:09:14.000Z</time>
</trkpt>
<trkpt lat="46.1410270" lon="10.1556330">
	<ele>1587.00</ele>
	<time>2024-09-06T09:09:15.000Z</time>
</trkpt>
<trkpt lat="46.1410390" lon="10.1556260">
	<ele>1586.80</ele>
	<time>2024-09-06T09:09:16.000Z</time>
</trkpt>
<trkpt lat="46.1410510" lon="10.1556170">
	<ele>1586.40</ele>
	<time>2024-09-06T09:09:17.000Z</time>
</trkpt>
<trkpt lat="46.1410650" lon="10.1556100">
	<ele>1586.00</ele>
	<time>2024-09-06T09:09:18.000Z</time>
</trkpt>
<trkpt lat="46.1410840" lon="10.1556070">
	<ele>1585.80</ele>
	<time>2024-09-06T09:09:19.000Z</time>
</trkpt>
<trkpt lat="46.1411040" lon="10.1556050">
	<ele>1585.60</ele>
	<time>2024-09-06T09:09:20.000Z</time>
</trkpt>
<trkpt lat="46.1411250" lon="10.1556030">
	<ele>1585.20</ele>
	<time>2024-09-06T09:09:21.000Z</time>
</trkpt>
<trkpt lat="46.1411410" lon="10.1555940">
	<ele>1584.80</ele>
	<time>2024-09-06T09:09:22.000Z</time>
</trkpt>
<trkpt lat="46.1411500" lon="10.1555810">
	<ele>1584.40</ele>
	<time>2024-09-06T09:09:23.000Z</time>
</trkpt>
<trkpt lat="46.1411590" lon="10.1555670">
	<ele>1584.20</ele>
	<time>2024-09-06T09:09:24.000Z</time>
</trkpt>
<trkpt lat="46.1411700" lon="10.1555530">
	<ele>1584.00</ele>
	<time>2024-09-06T09:09:25.000Z</time>
</trkpt>
<trkpt lat="46.1411750" lon="10.1555370">
	<ele>1583.60</ele>
	<time>2024-09-06T09:09:26.000Z</time>
</trkpt>
<trkpt lat="46.1411830" lon="10.1555260">
	<ele>1583.40</ele>
	<time>2024-09-06T09:09:27.000Z</time>
</trkpt>
<trkpt lat="46.1411840" lon="10.1555100">
	<ele>1583.00</ele>
	<time>2024-09-06T09:09:28.000Z</time>
</trkpt>
<trkpt lat="46.1411860" lon="10.1554910">
	<ele>1582.80</ele>
	<time>2024-09-06T09:09:29.000Z</time>
</trkpt>
<trkpt lat="46.1411880" lon="10.1554670">
	<ele>1582.60</ele>
	<time>2024-09-06T09:09:30.000Z</time>
</trkpt>
<trkpt lat="46.1411890" lon="10.1554460">
	<ele>1582.40</ele>
	<time>2024-09-06T09:09:31.000Z</time>
</trkpt>
<trkpt lat="46.1412020" lon="10.1554360">
	<ele>1582.20</ele>
	<time>2024-09-06T09:09:32.000Z</time>
</trkpt>
<trkpt lat="46.1412080" lon="10.1554210">
	<ele>1582.00</ele>
	<time>2024-09-06T09:09:33.000Z</time>
</trkpt>
<trkpt lat="46.1412150" lon="10.1554050">
	<ele>1581.80</ele>
	<time>2024-09-06T09:09:34.000Z</time>
</trkpt>
<trkpt lat="46.1412240" lon="10.1553940">
	<ele>1581.40</ele>
	<time>2024-09-06T09:09:35.000Z</time>
</trkpt>
<trkpt lat="46.1412230" lon="10.1553750">
	<ele>1581.20</ele>
	<time>2024-09-06T09:09:36.000Z</time>
</trkpt>
<trkpt lat="46.1412210" lon="10.1553550">
	<ele>1581.00</ele>
	<time>2024-09-06T09:09:37.000Z</time>
</trkpt>
<trkpt lat="46.1412210" lon="10.1553400">
	<ele>1580.80</ele>
	<time>2024-09-06T09:09:38.000Z</time>
</trkpt>
<trkpt lat="46.1412220" lon="10.1553240">
	<ele>1580.60</ele>
	<time>2024-09-06T09:09:39.000Z</time>
</trkpt>
<trkpt lat="46.1412260" lon="10.1553050">
	<ele>1580.20</ele>
	<time>2024-09-06T09:09:40.000Z</time>
</trkpt>
<trkpt lat="46.1412320" lon="10.1552840">
	<ele>1580.00</ele>
	<time>2024-09-06T09:09:41.000Z</time>
</trkpt>
<trkpt lat="46.1412350" lon="10.1552630">
	<ele>1579.80</ele>
	<time>2024-09-06T09:09:42.000Z</time>
</trkpt>
<trkpt lat="46.1412300" lon="10.1552310">
	<ele>1579.60</ele>
	<time>2024-09-06T09:09:43.000Z</time>
</trkpt>
<trkpt lat="46.1412220" lon="10.1552070">
	<ele>1579.40</ele>
	<time>2024-09-06T09:09:44.000Z</time>
</trkpt>
<trkpt lat="46.1412120" lon="10.1551840">
	<ele>1579.20</ele>
	<time>2024-09-06T09:09:45.000Z</time>
</trkpt>
<trkpt lat="46.1412070" lon="10.1551710">
	<ele>1578.60</ele>
	<time>2024-09-06T09:09:46.000Z</time>
</trkpt>
<trkpt lat="46.1412050" lon="10.1551580">
	<ele>1578.20</ele>
	<time>2024-09-06T09:09:47.000Z</time>
</trkpt>
<trkpt lat="46.1412030" lon="10.1551410">
	<ele>1578.00</ele>
	<time>2024-09-06T09:09:48.000Z</time>
</trkpt>
<trkpt lat="46.1412040" lon="10.1551190">
	<ele>1577.80</ele>
	<time>2024-09-06T09:09:49.000Z</time>
</trkpt>
<trkpt lat="46.1412040" lon="10.1550990">
	<ele>1577.40</ele>
	<time>2024-09-06T09:09:50.000Z</time>
</trkpt>
<trkpt lat="46.1412040" lon="10.1550920">
	<ele>1577.00</ele>
	<time>2024-09-06T09:09:51.000Z</time>
</trkpt>
<trkpt lat="46.1412030" lon="10.1550850">
	<ele>1576.60</ele>
	<time>2024-09-06T09:09:52.000Z</time>
</trkpt>
<trkpt lat="46.1412100" lon="10.1550800">
	<ele>1576.20</ele>
	<time>2024-09-06T09:09:53.000Z</time>
</trkpt>
<trkpt lat="46.1412110" lon="10.1550820">
	<ele>1576.00</ele>
	<time>2024-09-06T09:09:54.000Z</time>
</trkpt>
<trkpt lat="46.1412120" lon="10.1550850">
	<ele>1576.00</ele>
	<time>2024-09-06T09:09:55.000Z</time>
</trkpt>
<trkpt lat="46.1412130" lon="10.1550880">
	<ele>1575.80</ele>
	<time>2024-09-06T09:09:56.000Z</time>
</trkpt>
<trkpt lat="46.1412130" lon="10.1550880">
	<ele>1575.80</ele>
	<time>2024-09-06T09:09:57.000Z</time>
</trkpt>
<trkpt lat="46.1412140" lon="10.1550890">
	<ele>1575.80</ele>
	<time>2024-09-06T09:09:58.000Z</time>
</trkpt>
<trkpt lat="46.1412140" lon="10.1550890">
	<ele>1575.80</ele>
	<time>2024-09-06T09:09:59.000Z</time>
</trkpt>
<trkpt lat="46.1412080" lon="10.1550820">
	<ele>1575.80</ele>
	<time>2024-09-06T09:10:00.000Z</time>
</trkpt>
<trkpt lat="46.1412040" lon="10.1550740">
	<ele>1575.80</ele>
	<time>2024-09-06T09:10:01.000Z</time>
</trkpt>
<trkpt lat="46.1412010" lon="10.1550660">
	<ele>1575.40</ele>
	<time>2024-09-06T09:10:02.000Z</time>
</trkpt>
<trkpt lat="46.1411970" lon="10.1550480">
	<ele>1575.20</ele>
	<time>2024-09-06T09:10:03.000Z</time>
</trkpt>
<trkpt lat="46.1411930" lon="10.1550310">
	<ele>1575.20</ele>
	<time>2024-09-06T09:10:04.000Z</time>
</trkpt>
<trkpt lat="46.1411890" lon="10.1550140">
	<ele>1574.80</ele>
	<time>2024-09-06T09:10:05.000Z</time>
</trkpt>
<trkpt lat="46.1411850" lon="10.1550020">
	<ele>1574.40</ele>
	<time>2024-09-06T09:10:06.000Z</time>
</trkpt>
<trkpt lat="46.1411820" lon="10.1549930">
	<ele>1574.00</ele>
	<time>2024-09-06T09:10:07.000Z</time>
</trkpt>
<trkpt lat="46.1411810" lon="10.1549800">
	<ele>1573.80</ele>
	<time>2024-09-06T09:10:08.000Z</time>
</trkpt>
<trkpt lat="46.1411800" lon="10.1549670">
	<ele>1573.60</ele>
	<time>2024-09-06T09:10:09.000Z</time>
</trkpt>
<trkpt lat="46.1411810" lon="10.1549540">
	<ele>1573.40</ele>
	<time>2024-09-06T09:10:10.000Z</time>
</trkpt>
<trkpt lat="46.1411810" lon="10.1549400">
	<ele>1573.00</ele>
	<time>2024-09-06T09:10:11.000Z</time>
</trkpt>
<trkpt lat="46.1411820" lon="10.1549240">
	<ele>1572.40</ele>
	<time>2024-09-06T09:10:12.000Z</time>
</trkpt>
<trkpt lat="46.1411890" lon="10.1549160">
	<ele>1572.20</ele>
	<time>2024-09-06T09:10:13.000Z</time>
</trkpt>
<trkpt lat="46.1411950" lon="10.1549040">
	<ele>1571.80</ele>
	<time>2024-09-06T09:10:14.000Z</time>
</trkpt>
<trkpt lat="46.1411930" lon="10.1548860">
	<ele>1571.40</ele>
	<time>2024-09-06T09:10:15.000Z</time>
</trkpt>
<trkpt lat="46.1411920" lon="10.1548690">
	<ele>1571.00</ele>
	<time>2024-09-06T09:10:16.000Z</time>
</trkpt>
<trkpt lat="46.1411940" lon="10.1548510">
	<ele>1570.40</ele>
	<time>2024-09-06T09:10:17.000Z</time>
</trkpt>
<trkpt lat="46.1411950" lon="10.1548340">
	<ele>1570.20</ele>
	<time>2024-09-06T09:10:18.000Z</time>
</trkpt>
<trkpt lat="46.1411930" lon="10.1548170">
	<ele>1569.80</ele>
	<time>2024-09-06T09:10:19.000Z</time>
</trkpt>
<trkpt lat="46.1411930" lon="10.1548070">
	<ele>1569.40</ele>
	<time>2024-09-06T09:10:20.000Z</time>
</trkpt>
<trkpt lat="46.1411920" lon="10.1547940">
	<ele>1569.00</ele>
	<time>2024-09-06T09:10:21.000Z</time>
</trkpt>
<trkpt lat="46.1411940" lon="10.1547810">
	<ele>1568.60</ele>
	<time>2024-09-06T09:10:22.000Z</time>
</trkpt>
<trkpt lat="46.1411950" lon="10.1547650">
	<ele>1568.40</ele>
	<time>2024-09-06T09:10:23.000Z</time>
</trkpt>
<trkpt lat="46.1411960" lon="10.1547490">
	<ele>1568.20</ele>
	<time>2024-09-06T09:10:24.000Z</time>
</trkpt>
<trkpt lat="46.1411980" lon="10.1547340">
	<ele>1567.80</ele>
	<time>2024-09-06T09:10:25.000Z</time>
</trkpt>
<trkpt lat="46.1411980" lon="10.1547210">
	<ele>1567.60</ele>
	<time>2024-09-06T09:10:26.000Z</time>
</trkpt>
<trkpt lat="46.1412000" lon="10.1547090">
	<ele>1567.20</ele>
	<time>2024-09-06T09:10:27.000Z</time>
</trkpt>
<trkpt lat="46.1412020" lon="10.1546970">
	<ele>1566.80</ele>
	<time>2024-09-06T09:10:28.000Z</time>
</trkpt>
<trkpt lat="46.1412010" lon="10.1546860">
	<ele>1566.60</ele>
	<time>2024-09-06T09:10:29.000Z</time>
</trkpt>
<trkpt lat="46.1412010" lon="10.1546720">
	<ele>1566.20</ele>
	<time>2024-09-06T09:10:30.000Z</time>
</trkpt>
<trkpt lat="46.1412040" lon="10.1546580">
	<ele>1566.20</ele>
	<time>2024-09-06T09:10:31.000Z</time>
</trkpt>
<trkpt lat="46.1412080" lon="10.1546470">
	<ele>1565.80</ele>
	<time>2024-09-06T09:10:32.000Z</time>
</trkpt>
<trkpt lat="46.1412110" lon="10.1546350">
	<ele>1565.20</ele>
	<time>2024-09-06T09:10:33.000Z</time>
</trkpt>
<trkpt lat="46.1412140" lon="10.1546190">
	<ele>1565.00</ele>
	<time>2024-09-06T09:10:34.000Z</time>
</trkpt>
<trkpt lat="46.1412180" lon="10.1546050">
	<ele>1564.60</ele>
	<time>2024-09-06T09:10:35.000Z</time>
</trkpt>
<trkpt lat="46.1412190" lon="10.1545880">
	<ele>1564.20</ele>
	<time>2024-09-06T09:10:36.000Z</time>
</trkpt>
<trkpt lat="46.1412220" lon="10.1545730">
	<ele>1564.00</ele>
	<time>2024-09-06T09:10:37.000Z</time>
</trkpt>
<trkpt lat="46.1412240" lon="10.1545610">
	<ele>1563.80</ele>
	<time>2024-09-06T09:10:38.000Z</time>
</trkpt>
<trkpt lat="46.1412270" lon="10.1545470">
	<ele>1563.60</ele>
	<time>2024-09-06T09:10:39.000Z</time>
</trkpt>
<trkpt lat="46.1412330" lon="10.1545350">
	<ele>1563.40</ele>
	<time>2024-09-06T09:10:40.000Z</time>
</trkpt>
<trkpt lat="46.1412370" lon="10.1545190">
	<ele>1563.20</ele>
	<time>2024-09-06T09:10:41.000Z</time>
</trkpt>
<trkpt lat="46.1412340" lon="10.1545010">
	<ele>1562.80</ele>
	<time>2024-09-06T09:10:42.000Z</time>
</trkpt>
<trkpt lat="46.1412340" lon="10.1544810">
	<ele>1562.40</ele>
	<time>2024-09-06T09:10:43.000Z</time>
</trkpt>
<trkpt lat="46.1412340" lon="10.1544630">
	<ele>1562.00</ele>
	<time>2024-09-06T09:10:44.000Z</time>
</trkpt>
<trkpt lat="46.1412340" lon="10.1544460">
	<ele>1561.60</ele>
	<time>2024-09-06T09:10:45.000Z</time>
</trkpt>
<trkpt lat="46.1412350" lon="10.1544290">
	<ele>1561.20</ele>
	<time>2024-09-06T09:10:46.000Z</time>
</trkpt>
<trkpt lat="46.1412340" lon="10.1544110">
	<ele>1561.00</ele>
	<time>2024-09-06T09:10:47.000Z</time>
</trkpt>
<trkpt lat="46.1412320" lon="10.1543930">
	<ele>1561.00</ele>
	<time>2024-09-06T09:10:48.000Z</time>
</trkpt>
<trkpt lat="46.1412360" lon="10.1543760">
	<ele>1560.80</ele>
	<time>2024-09-06T09:10:49.000Z</time>
</trkpt>
<trkpt lat="46.1412400" lon="10.1543630">
	<ele>1560.40</ele>
	<time>2024-09-06T09:10:50.000Z</time>
</trkpt>
<trkpt lat="46.1412400" lon="10.1543480">
	<ele>1560.20</ele>
	<time>2024-09-06T09:10:51.000Z</time>
</trkpt>
<trkpt lat="46.1412420" lon="10.1543330">
	<ele>1559.80</ele>
	<time>2024-09-06T09:10:52.000Z</time>
</trkpt>
<trkpt lat="46.1412420" lon="10.1543160">
	<ele>1559.40</ele>
	<time>2024-09-06T09:10:53.000Z</time>
</trkpt>
<trkpt lat="46.1412420" lon="10.1542990">
	<ele>1559.20</ele>
	<time>2024-09-06T09:10:54.000Z</time>
</trkpt>
<trkpt lat="46.1412400" lon="10.1542850">
	<ele>1559.20</ele>
	<time>2024-09-06T09:10:55.000Z</time>
</trkpt>
<trkpt lat="46.1412380" lon="10.1542700">
	<ele>1559.00</ele>
	<time>2024-09-06T09:10:56.000Z</time>
</trkpt>
<trkpt lat="46.1412350" lon="10.1542540">
	<ele>1558.60</ele>
	<time>2024-09-06T09:10:57.000Z</time>
</trkpt>
<trkpt lat="46.1412320" lon="10.1542370">
	<ele>1558.40</ele>
	<time>2024-09-06T09:10:58.000Z</time>
</trkpt>
<trkpt lat="46.1412340" lon="10.1542210">
	<ele>1558.00</ele>
	<time>2024-09-06T09:10:59.000Z</time>
</trkpt>
<trkpt lat="46.1412370" lon="10.1542040">
	<ele>1557.80</ele>
	<time>2024-09-06T09:11:00.000Z</time>
</trkpt>
<trkpt lat="46.1412340" lon="10.1541860">
	<ele>1557.40</ele>
	<time>2024-09-06T09:11:01.000Z</time>
</trkpt>
<trkpt lat="46.1412310" lon="10.1541740">
	<ele>1557.40</ele>
	<time>2024-09-06T09:11:02.000Z</time>
</trkpt>
<trkpt lat="46.1412270" lon="10.1541640">
	<ele>1557.20</ele>
	<time>2024-09-06T09:11:03.000Z</time>
</trkpt>
<trkpt lat="46.1412280" lon="10.1541540">
	<ele>1557.00</ele>
	<time>2024-09-06T09:11:04.000Z</time>
</trkpt>
<trkpt lat="46.1412270" lon="10.1541420">
	<ele>1556.80</ele>
	<time>2024-09-06T09:11:05.000Z</time>
</trkpt>
<trkpt lat="46.1412230" lon="10.1541260">
	<ele>1556.60</ele>
	<time>2024-09-06T09:11:06.000Z</time>
</trkpt>
<trkpt lat="46.1412200" lon="10.1541100">
	<ele>1556.40</ele>
	<time>2024-09-06T09:11:07.000Z</time>
</trkpt>
<trkpt lat="46.1412160" lon="10.1540940">
	<ele>1556.20</ele>
	<time>2024-09-06T09:11:08.000Z</time>
</trkpt>
<trkpt lat="46.1412140" lon="10.1540790">
	<ele>1555.60</ele>
	<time>2024-09-06T09:11:09.000Z</time>
</trkpt>
<trkpt lat="46.1412100" lon="10.1540650">
	<ele>1555.20</ele>
	<time>2024-09-06T09:11:10.000Z</time>
</trkpt>
<trkpt lat="46.1412080" lon="10.1540530">
	<ele>1554.80</ele>
	<time>2024-09-06T09:11:11.000Z</time>
</trkpt>
<trkpt lat="46.1412030" lon="10.1540370">
	<ele>1554.60</ele>
	<time>2024-09-06T09:11:12.000Z</time>
</trkpt>
<trkpt lat="46.1412000" lon="10.1540200">
	<ele>1554.40</ele>
	<time>2024-09-06T09:11:13.000Z</time>
</trkpt>
<trkpt lat="46.1411970" lon="10.1540070">
	<ele>1554.20</ele>
	<time>2024-09-06T09:11:14.000Z</time>
</trkpt>
<trkpt lat="46.1411900" lon="10.1539940">
	<ele>1554.00</ele>
	<time>2024-09-06T09:11:15.000Z</time>
</trkpt>
<trkpt lat="46.1411860" lon="10.1539810">
	<ele>1553.80</ele>
	<time>2024-09-06T09:11:16.000Z</time>
</trkpt>
<trkpt lat="46.1411830" lon="10.1539660">
	<ele>1553.40</ele>
	<time>2024-09-06T09:11:17.000Z</time>
</trkpt>
<trkpt lat="46.1411790" lon="10.1539510">
	<ele>1553.20</ele>
	<time>2024-09-06T09:11:18.000Z</time>
</trkpt>
<trkpt lat="46.1411750" lon="10.1539370">
	<ele>1552.80</ele>
	<time>2024-09-06T09:11:19.000Z</time>
</trkpt>
<trkpt lat="46.1411710" lon="10.1539270">
	<ele>1552.60</ele>
	<time>2024-09-06T09:11:20.000Z</time>
</trkpt>
<trkpt lat="46.1411680" lon="10.1539150">
	<ele>1552.20</ele>
	<time>2024-09-06T09:11:21.000Z</time>
</trkpt>
<trkpt lat="46.1411640" lon="10.1539010">
	<ele>1552.00</ele>
	<time>2024-09-06T09:11:22.000Z</time>
</trkpt>
<trkpt lat="46.1411620" lon="10.1538870">
	<ele>1551.80</ele>
	<time>2024-09-06T09:11:23.000Z</time>
</trkpt>
<trkpt lat="46.1411590" lon="10.1538720">
	<ele>1551.40</ele>
	<time>2024-09-06T09:11:24.000Z</time>
</trkpt>
<trkpt lat="46.1411540" lon="10.1538580">
	<ele>1551.00</ele>
	<time>2024-09-06T09:11:25.000Z</time>
</trkpt>
<trkpt lat="46.1411480" lon="10.1538380">
	<ele>1550.60</ele>
	<time>2024-09-06T09:11:26.000Z</time>
</trkpt>
<trkpt lat="46.1411410" lon="10.1538190">
	<ele>1550.40</ele>
	<time>2024-09-06T09:11:27.000Z</time>
</trkpt>
<trkpt lat="46.1411380" lon="10.1538040">
	<ele>1550.00</ele>
	<time>2024-09-06T09:11:28.000Z</time>
</trkpt>
<trkpt lat="46.1411340" lon="10.1537910">
	<ele>1549.80</ele>
	<time>2024-09-06T09:11:29.000Z</time>
</trkpt>
<trkpt lat="46.1411370" lon="10.1537860">
	<ele>1549.40</ele>
	<time>2024-09-06T09:11:30.000Z</time>
</trkpt>
<trkpt lat="46.1411360" lon="10.1537750">
	<ele>1549.20</ele>
	<time>2024-09-06T09:11:31.000Z</time>
</trkpt>
<trkpt lat="46.1411290" lon="10.1537600">
	<ele>1549.00</ele>
	<time>2024-09-06T09:11:32.000Z</time>
</trkpt>
<trkpt lat="46.1411170" lon="10.1537490">
	<ele>1548.80</ele>
	<time>2024-09-06T09:11:33.000Z</time>
</trkpt>
<trkpt lat="46.1411100" lon="10.1537400">
	<ele>1548.40</ele>
	<time>2024-09-06T09:11:34.000Z</time>
</trkpt>
<trkpt lat="46.1411010" lon="10.1537250">
	<ele>1548.00</ele>
	<time>2024-09-06T09:11:35.000Z</time>
</trkpt>
<trkpt lat="46.1410960" lon="10.1537100">
	<ele>1547.60</ele>
	<time>2024-09-06T09:11:36.000Z</time>
</trkpt>
<trkpt lat="46.1410920" lon="10.1536970">
	<ele>1547.40</ele>
	<time>2024-09-06T09:11:37.000Z</time>
</trkpt>
<trkpt lat="46.1410910" lon="10.1536890">
	<ele>1547.00</ele>
	<time>2024-09-06T09:11:38.000Z</time>
</trkpt>
<trkpt lat="46.1410910" lon="10.1536780">
	<ele>1546.80</ele>
	<time>2024-09-06T09:11:39.000Z</time>
</trkpt>
<trkpt lat="46.1410920" lon="10.1536650">
	<ele>1546.40</ele>
	<time>2024-09-06T09:11:40.000Z</time>
</trkpt>
<trkpt lat="46.1410890" lon="10.1536520">
	<ele>1546.20</ele>
	<time>2024-09-06T09:11:41.000Z</time>
</trkpt>
<trkpt lat="46.1410840" lon="10.1536390">
	<ele>1546.00</ele>
	<time>2024-09-06T09:11:42.000Z</time>
</trkpt>
<trkpt lat="46.1410790" lon="10.1536310">
	<ele>1545.60</ele>
	<time>2024-09-06T09:11:43.000Z</time>
</trkpt>
<trkpt lat="46.1410760" lon="10.1536220">
	<ele>1545.20</ele>
	<time>2024-09-06T09:11:44.000Z</time>
</trkpt>
<trkpt lat="46.1410720" lon="10.1536080">
	<ele>1545.00</ele>
	<time>2024-09-06T09:11:45.000Z</time>
</trkpt>
<trkpt lat="46.1410720" lon="10.1535930">
	<ele>1544.40</ele>
	<time>2024-09-06T09:11:46.000Z</time>
</trkpt>
<trkpt lat="46.1410680" lon="10.1535770">
	<ele>1544.20</ele>
	<time>2024-09-06T09:11:47.000Z</time>
</trkpt>
<trkpt lat="46.1410640" lon="10.1535660">
	<ele>1543.60</ele>
	<time>2024-09-06T09:11:48.000Z</time>
</trkpt>
<trkpt lat="46.1410630" lon="10.1535460">
	<ele>1543.40</ele>
	<time>2024-09-06T09:11:49.000Z</time>
</trkpt>
<trkpt lat="46.1410550" lon="10.1535310">
	<ele>1543.20</ele>
	<time>2024-09-06T09:11:50.000Z</time>
</trkpt>
<trkpt lat="46.1410500" lon="10.1535140">
	<ele>1542.60</ele>
	<time>2024-09-06T09:11:51.000Z</time>
</trkpt>
<trkpt lat="46.1410490" lon="10.1534990">
	<ele>1542.40</ele>
	<time>2024-09-06T09:11:52.000Z</time>
</trkpt>
<trkpt lat="46.1410450" lon="10.1534820">
	<ele>1542.00</ele>
	<time>2024-09-06T09:11:53.000Z</time>
</trkpt>
<trkpt lat="46.1410350" lon="10.1534610">
	<ele>1541.60</ele>
	<time>2024-09-06T09:11:54.000Z</time>
</trkpt>
<trkpt lat="46.1410330" lon="10.1534420">
	<ele>1541.40</ele>
	<time>2024-09-06T09:11:55.000Z</time>
</trkpt>
<trkpt lat="46.1410290" lon="10.1534250">
	<ele>1541.00</ele>
	<time>2024-09-06T09:11:56.000Z</time>
</trkpt>
<trkpt lat="46.1410260" lon="10.1534180">
	<ele>1540.80</ele>
	<time>2024-09-06T09:11:57.000Z</time>
</trkpt>
<trkpt lat="46.1410250" lon="10.1534150">
	<ele>1540.40</ele>
	<time>2024-09-06T09:11:58.000Z</time>
</trkpt>
<trkpt lat="46.1410230" lon="10.1534040">
	<ele>1540.20</ele>
	<time>2024-09-06T09:11:59.000Z</time>
</trkpt>
<trkpt lat="46.1410160" lon="10.1533920">
	<ele>1540.00</ele>
	<time>2024-09-06T09:12:00.000Z</time>
</trkpt>
<trkpt lat="46.1410130" lon="10.1533780">
	<ele>1539.40</ele>
	<time>2024-09-06T09:12:01.000Z</time>
</trkpt>
<trkpt lat="46.1410090" lon="10.1533660">
	<ele>1539.20</ele>
	<time>2024-09-06T09:12:02.000Z</time>
</trkpt>
<trkpt lat="46.1410070" lon="10.1533530">
	<ele>1538.60</ele>
	<time>2024-09-06T09:12:03.000Z</time>
</trkpt>
<trkpt lat="46.1410070" lon="10.1533420">
	<ele>1538.40</ele>
	<time>2024-09-06T09:12:04.000Z</time>
</trkpt>
<trkpt lat="46.1410050" lon="10.1533270">
	<ele>1538.00</ele>
	<time>2024-09-06T09:12:05.000Z</time>
</trkpt>
<trkpt lat="46.1410000" lon="10.1533110">
	<ele>1537.60</ele>
	<time>2024-09-06T09:12:06.000Z</time>
</trkpt>
<trkpt lat="46.1409940" lon="10.1532960">
	<ele>1537.20</ele>
	<time>2024-09-06T09:12:07.000Z</time>
</trkpt>
<trkpt lat="46.1409870" lon="10.1532760">
	<ele>1537.00</ele>
	<time>2024-09-06T09:12:08.000Z</time>
</trkpt>
<trkpt lat="46.1409800" lon="10.1532620">
	<ele>1536.80</ele>
	<time>2024-09-06T09:12:09.000Z</time>
</trkpt>
<trkpt lat="46.1409770" lon="10.1532490">
	<ele>1536.40</ele>
	<time>2024-09-06T09:12:10.000Z</time>
</trkpt>
<trkpt lat="46.1409740" lon="10.1532330">
	<ele>1536.00</ele>
	<time>2024-09-06T09:12:11.000Z</time>
</trkpt>
<trkpt lat="46.1409700" lon="10.1532180">
	<ele>1535.60</ele>
	<time>2024-09-06T09:12:12.000Z</time>
</trkpt>
<trkpt lat="46.1409660" lon="10.1531980">
	<ele>1535.20</ele>
	<time>2024-09-06T09:12:13.000Z</time>
</trkpt>
<trkpt lat="46.1409600" lon="10.1531750">
	<ele>1535.00</ele>
	<time>2024-09-06T09:12:14.000Z</time>
</trkpt>
<trkpt lat="46.1409600" lon="10.1531600">
	<ele>1534.60</ele>
	<time>2024-09-06T09:12:15.000Z</time>
</trkpt>
<trkpt lat="46.1409620" lon="10.1531490">
	<ele>1534.40</ele>
	<time>2024-09-06T09:12:16.000Z</time>
</trkpt>
<trkpt lat="46.1409580" lon="10.1531290">
	<ele>1534.20</ele>
	<time>2024-09-06T09:12:17.000Z</time>
</trkpt>
<trkpt lat="46.1409520" lon="10.1531050">
	<ele>1533.60</ele>
	<time>2024-09-06T09:12:18.000Z</time>
</trkpt>
<trkpt lat="46.1409480" lon="10.1530800">
	<ele>1533.20</ele>
	<time>2024-09-06T09:12:19.000Z</time>
</trkpt>
<trkpt lat="46.1409430" lon="10.1530580">
	<ele>1532.80</ele>
	<time>2024-09-06T09:12:20.000Z</time>
</trkpt>
<trkpt lat="46.1409430" lon="10.1530350">
	<ele>1532.60</ele>
	<time>2024-09-06T09:12:21.000Z</time>
</trkpt>
<trkpt lat="46.1409450" lon="10.1530140">
	<ele>1532.40</ele>
	<time>2024-09-06T09:12:22.000Z</time>
</trkpt>
<trkpt lat="46.1409460" lon="10.1529880">
	<ele>1532.00</ele>
	<time>2024-09-06T09:12:23.000Z</time>
</trkpt>
<trkpt lat="46.1409440" lon="10.1529680">
	<ele>1531.80</ele>
	<time>2024-09-06T09:12:24.000Z</time>
</trkpt>
<trkpt lat="46.1409430" lon="10.1529540">
	<ele>1531.20</ele>
	<time>2024-09-06T09:12:25.000Z</time>
</trkpt>
<trkpt lat="46.1409420" lon="10.1529410">
	<ele>1530.80</ele>
	<time>2024-09-06T09:12:26.000Z</time>
</trkpt>
<trkpt lat="46.1409380" lon="10.1529260">
	<ele>1530.40</ele>
	<time>2024-09-06T09:12:27.000Z</time>
</trkpt>
<trkpt lat="46.1409320" lon="10.1529110">
	<ele>1530.20</ele>
	<time>2024-09-06T09:12:28.000Z</time>
</trkpt>
<trkpt lat="46.1409280" lon="10.1529020">
	<ele>1529.60</ele>
	<time>2024-09-06T09:12:29.000Z</time>
</trkpt>
<trkpt lat="46.1409310" lon="10.1528910">
	<ele>1529.20</ele>
	<time>2024-09-06T09:12:30.000Z</time>
</trkpt>
<trkpt lat="46.1409280" lon="10.1528750">
	<ele>1529.00</ele>
	<time>2024-09-06T09:12:31.000Z</time>
</trkpt>
<trkpt lat="46.1409290" lon="10.1528570">
	<ele>1528.60</ele>
	<time>2024-09-06T09:12:32.000Z</time>
</trkpt>
<trkpt lat="46.1409290" lon="10.1528420">
	<ele>1528.00</ele>
	<time>2024-09-06T09:12:33.000Z</time>
</trkpt>
<trkpt lat="46.1409270" lon="10.1528270">
	<ele>1527.60</ele>
	<time>2024-09-06T09:12:34.000Z</time>
</trkpt>
<trkpt lat="46.1409200" lon="10.1528110">
	<ele>1527.40</ele>
	<time>2024-09-06T09:12:35.000Z</time>
</trkpt>
<trkpt lat="46.1409120" lon="10.1527960">
	<ele>1527.20</ele>
	<time>2024-09-06T09:12:36.000Z</time>
</trkpt>
<trkpt lat="46.1409080" lon="10.1527800">
	<ele>1526.40</ele>
	<time>2024-09-06T09:12:37.000Z</time>
</trkpt>
<trkpt lat="46.1409050" lon="10.1527610">
	<ele>1526.20</ele>
	<time>2024-09-06T09:12:38.000Z</time>
</trkpt>
<trkpt lat="46.1409060" lon="10.1527450">
	<ele>1525.80</ele>
	<time>2024-09-06T09:12:39.000Z</time>
</trkpt>
<trkpt lat="46.1409060" lon="10.1527260">
	<ele>1525.60</ele>
	<time>2024-09-06T09:12:40.000Z</time>
</trkpt>
<trkpt lat="46.1409090" lon="10.1527140">
	<ele>1525.20</ele>
	<time>2024-09-06T09:12:41.000Z</time>
</trkpt>
<trkpt lat="46.1409100" lon="10.1526980">
	<ele>1525.00</ele>
	<time>2024-09-06T09:12:42.000Z</time>
</trkpt>
<trkpt lat="46.1409150" lon="10.1526800">
	<ele>1524.80</ele>
	<time>2024-09-06T09:12:43.000Z</time>
</trkpt>
<trkpt lat="46.1409240" lon="10.1526620">
	<ele>1524.40</ele>
	<time>2024-09-06T09:12:44.000Z</time>
</trkpt>
<trkpt lat="46.1409290" lon="10.1526420">
	<ele>1524.20</ele>
	<time>2024-09-06T09:12:45.000Z</time>
</trkpt>
<trkpt lat="46.1409330" lon="10.1526220">
	<ele>1523.80</ele>
	<time>2024-09-06T09:12:46.000Z</time>
</trkpt>
<trkpt lat="46.1409370" lon="10.1526040">
	<ele>1523.60</ele>
	<time>2024-09-06T09:12:47.000Z</time>
</trkpt>
<trkpt lat="46.1409430" lon="10.1525850">
	<ele>1523.20</ele>
	<time>2024-09-06T09:12:48.000Z</time>
</trkpt>
<trkpt lat="46.1409440" lon="10.1525610">
	<ele>1523.00</ele>
	<time>2024-09-06T09:12:49.000Z</time>
</trkpt>
<trkpt lat="46.1409470" lon="10.1525420">
	<ele>1522.80</ele>
	<time>2024-09-06T09:12:50.000Z</time>
</trkpt>
<trkpt lat="46.1409500" lon="10.1525170">
	<ele>1522.80</ele>
	<time>2024-09-06T09:12:51.000Z</time>
</trkpt>
<trkpt lat="46.1409490" lon="10.1524980">
	<ele>1522.60</ele>
	<time>2024-09-06T09:12:52.000Z</time>
</trkpt>
<trkpt lat="46.1409490" lon="10.1524800">
	<ele>1522.40</ele>
	<time>2024-09-06T09:12:53.000Z</time>
</trkpt>
<trkpt lat="46.1409490" lon="10.1524620">
	<ele>1522.20</ele>
	<time>2024-09-06T09:12:54.000Z</time>
</trkpt>
<trkpt lat="46.1409510" lon="10.1524440">
	<ele>1521.80</ele>
	<time>2024-09-06T09:12:55.000Z</time>
</trkpt>
<trkpt lat="46.1409520" lon="10.1524250">
	<ele>1521.60</ele>
	<time>2024-09-06T09:12:56.000Z</time>
</trkpt>
<trkpt lat="46.1409520" lon="10.1524080">
	<ele>1521.40</ele>
	<time>2024-09-06T09:12:57.000Z</time>
</trkpt>
<trkpt lat="46.1409560" lon="10.1523920">
	<ele>1521.40</ele>
	<time>2024-09-06T09:12:58.000Z</time>
</trkpt>
<trkpt lat="46.1409600" lon="10.1523750">
	<ele>1521.40</ele>
	<time>2024-09-06T09:12:59.000Z</time>
</trkpt>
<trkpt lat="46.1409610" lon="10.1523560">
	<ele>1521.20</ele>
	<time>2024-09-06T09:13:00.000Z</time>
</trkpt>
<trkpt lat="46.1409640" lon="10.1523370">
	<ele>1521.20</ele>
	<time>2024-09-06T09:13:01.000Z</time>
</trkpt>
<trkpt lat="46.1409700" lon="10.1523200">
	<ele>1521.00</ele>
	<time>2024-09-06T09:13:02.000Z</time>
</trkpt>
<trkpt lat="46.1409770" lon="10.1523060">
	<ele>1520.80</ele>
	<time>2024-09-06T09:13:03.000Z</time>
</trkpt>
<trkpt lat="46.1409840" lon="10.1522920">
	<ele>1520.60</ele>
	<time>2024-09-06T09:13:04.000Z</time>
</trkpt>
<trkpt lat="46.1409910" lon="10.1522760">
	<ele>1520.40</ele>
	<time>2024-09-06T09:13:05.000Z</time>
</trkpt>
<trkpt lat="46.1409990" lon="10.1522610">
	<ele>1520.40</ele>
	<time>2024-09-06T09:13:06.000Z</time>
</trkpt>
<trkpt lat="46.1410080" lon="10.1522450">
	<ele>1520.20</ele>
	<time>2024-09-06T09:13:07.000Z</time>
</trkpt>
<trkpt lat="46.1410190" lon="10.1522330">
	<ele>1520.20</ele>
	<time>2024-09-06T09:13:08.000Z</time>
</trkpt>
<trkpt lat="46.1410300" lon="10.1522220">
	<ele>1520.00</ele>
	<time>2024-09-06T09:13:09.000Z</time>
</trkpt>
<trkpt lat="46.1410440" lon="10.1522100">
	<ele>1520.00</ele>
	<time>2024-09-06T09:13:10.000Z</time>
</trkpt>
<trkpt lat="46.1410530" lon="10.1521980">
	<ele>1519.80</ele>
	<time>2024-09-06T09:13:11.000Z</time>
</trkpt>
<trkpt lat="46.1410620" lon="10.1521850">
	<ele>1519.60</ele>
	<time>2024-09-06T09:13:12.000Z</time>
</trkpt>
<trkpt lat="46.1410650" lon="10.1521700">
	<ele>1519.20</ele>
	<time>2024-09-06T09:13:13.000Z</time>
</trkpt>
<trkpt lat="46.1410710" lon="10.1521560">
	<ele>1519.00</ele>
	<time>2024-09-06T09:13:14.000Z</time>
</trkpt>
<trkpt lat="46.1410800" lon="10.1521440">
	<ele>1518.60</ele>
	<time>2024-09-06T09:13:15.000Z</time>
</trkpt>
<trkpt lat="46.1410930" lon="10.1521360">
	<ele>1518.40</ele>
	<time>2024-09-06T09:13:16.000Z</time>
</trkpt>
<trkpt lat="46.1411070" lon="10.1521290">
	<ele>1518.00</ele>
	<time>2024-09-06T09:13:17.000Z</time>
</trkpt>
<trkpt lat="46.1411200" lon="10.1521160">
	<ele>1517.60</ele>
	<time>2024-09-06T09:13:18.000Z</time>
</trkpt>
<trkpt lat="46.1411320" lon="10.1521020">
	<ele>1517.40</ele>
	<time>2024-09-06T09:13:19.000Z</time>
</trkpt>
<trkpt lat="46.1411420" lon="10.1520900">
	<ele>1517.40</ele>
	<time>2024-09-06T09:13:20.000Z</time>
</trkpt>
<trkpt lat="46.1411520" lon="10.1520770">
	<ele>1517.20</ele>
	<time>2024-09-06T09:13:21.000Z</time>
</trkpt>
<trkpt lat="46.1411640" lon="10.1520730">
	<ele>1517.00</ele>
	<time>2024-09-06T09:13:22.000Z</time>
</trkpt>
<trkpt lat="46.1411760" lon="10.1520680">
	<ele>1517.00</ele>
	<time>2024-09-06T09:13:23.000Z</time>
</trkpt>
<trkpt lat="46.1411850" lon="10.1520660">
	<ele>1516.80</ele>
	<time>2024-09-06T09:13:24.000Z</time>
</trkpt>
<trkpt lat="46.1411920" lon="10.1520610">
	<ele>1516.80</ele>
	<time>2024-09-06T09:13:25.000Z</time>
</trkpt>
<trkpt lat="46.1412090" lon="10.1520620">
	<ele>1516.60</ele>
	<time>2024-09-06T09:13:26.000Z</time>
</trkpt>
<trkpt lat="46.1412220" lon="10.1520560">
	<ele>1516.40</ele>
	<time>2024-09-06T09:13:27.000Z</time>
</trkpt>
<trkpt lat="46.1412350" lon="10.1520470">
	<ele>1516.20</ele>
	<time>2024-09-06T09:13:28.000Z</time>
</trkpt>
<trkpt lat="46.1412430" lon="10.1520400">
	<ele>1516.00</ele>
	<time>2024-09-06T09:13:29.000Z</time>
</trkpt>
<trkpt lat="46.1412520" lon="10.1520370">
	<ele>1515.80</ele>
	<time>2024-09-06T09:13:30.000Z</time>
</trkpt>
<trkpt lat="46.1412600" lon="10.1520340">
	<ele>1515.60</ele>
	<time>2024-09-06T09:13:31.000Z</time>
</trkpt>
<trkpt lat="46.1412640" lon="10.1520290">
	<ele>1515.40</ele>
	<time>2024-09-06T09:13:32.000Z</time>
</trkpt>
<trkpt lat="46.1412650" lon="10.1520260">
	<ele>1515.40</ele>
	<time>2024-09-06T09:13:33.000Z</time>
</trkpt>
<trkpt lat="46.1412690" lon="10.1520260">
	<ele>1515.20</ele>
	<time>2024-09-06T09:13:34.000Z</time>
</trkpt>
<trkpt lat="46.1412690" lon="10.1520260">
	<ele>1515.00</ele>
	<time>2024-09-06T09:13:35.000Z</time>
</trkpt>
<trkpt lat="46.1412680" lon="10.1520270">
	<ele>1515.00</ele>
	<time>2024-09-06T09:13:36.000Z</time>
</trkpt>
<trkpt lat="46.1412680" lon="10.1520260">
	<ele>1514.80</ele>
	<time>2024-09-06T09:13:37.000Z</time>
</trkpt>
<trkpt lat="46.1412680" lon="10.1520270">
	<ele>1514.80</ele>
	<time>2024-09-06T09:13:38.000Z</time>
</trkpt>
<trkpt lat="46.1412680" lon="10.1520290">
	<ele>1514.80</ele>
	<time>2024-09-06T09:13:39.000Z</time>
</trkpt>
<trkpt lat="46.1412690" lon="10.1520320">
	<ele>1515.00</ele>
	<time>2024-09-06T09:13:40.000Z</time>
</trkpt>
<trkpt lat="46.1412690" lon="10.1520330">
	<ele>1514.80</ele>
	<time>2024-09-06T09:13:41.000Z</time>
</trkpt>
<trkpt lat="46.1412680" lon="10.1520320">
	<ele>1515.00</ele>
	<time>2024-09-06T09:13:42.000Z</time>
</trkpt>
<trkpt lat="46.1412670" lon="10.1520310">
	<ele>1515.00</ele>
	<time>2024-09-06T09:13:43.000Z</time>
</trkpt>
<trkpt lat="46.1412670" lon="10.1520310">
	<ele>1514.80</ele>
	<time>2024-09-06T09:13:44.000Z</time>
</trkpt>
<trkpt lat="46.1412670" lon="10.1520310">
	<ele>1514.80</ele>
	<time>2024-09-06T09:13:45.000Z</time>
</trkpt>
<trkpt lat="46.1412670" lon="10.1520310">
	<ele>1514.80</ele>
	<time>2024-09-06T09:13:46.000Z</time>
</trkpt>
<trkpt lat="46.1412670" lon="10.1520310">
	<ele>1514.80</ele>
	<time>2024-09-06T09:13:47.000Z</time>
</trkpt>
<trkpt lat="46.1412670" lon="10.1520310">
	<ele>1514.80</ele>
	<time>2024-09-06T09:13:48.000Z</time>
</trkpt>
<trkpt lat="46.1412670" lon="10.1520310">
	<ele>1514.80</ele>
	<time>2024-09-06T09:13:49.000Z</time>
</trkpt>
<trkpt lat="46.1412670" lon="10.1520310">
	<ele>1514.80</ele>
	<time>2024-09-06T09:13:50.000Z</time>
</trkpt>
<trkpt lat="46.1412670" lon="10.1520310">
	<ele>1514.80</ele>
	<time>2024-09-06T09:13:51.000Z</time>
</trkpt>
<trkpt lat="46.1412670" lon="10.1520310">
	<ele>1514.80</ele>
	<time>2024-09-06T09:13:52.000Z</time>
</trkpt>
<trkpt lat="46.1412670" lon="10.1520310">
	<ele>1514.80</ele>
	<time>2024-09-06T09:13:53.000Z</time>
</trkpt>
<trkpt lat="46.1412670" lon="10.1520290">
	<ele>1514.80</ele>
	<time>2024-09-06T09:13:54.000Z</time>
</trkpt>
<trkpt lat="46.1412670" lon="10.1520290">
	<ele>1514.80</ele>
	<time>2024-09-06T09:13:55.000Z</time>
</trkpt>
<trkpt lat="46.1412670" lon="10.1520290">
	<ele>1514.80</ele>
	<time>2024-09-06T09:13:56.000Z</time>
</trkpt>
<trkpt lat="46.1412670" lon="10.1520290">
	<ele>1514.80</ele>
	<time>2024-09-06T09:13:57.000Z</time>
</trkpt>
<trkpt lat="46.1412670" lon="10.1520290">
	<ele>1514.80</ele>
	<time>2024-09-06T09:13:58.000Z</time>
</trkpt>
<trkpt lat="46.1412670" lon="10.1520290">
	<ele>1514.80</ele>
	<time>2024-09-06T09:13:59.000Z</time>
</trkpt>
<trkpt lat="46.1412660" lon="10.1520290">
	<ele>1514.80</ele>
	<time>2024-09-06T09:14:00.000Z</time>
</trkpt>
<trkpt lat="46.1412660" lon="10.1520290">
	<ele>1514.80</ele>
	<time>2024-09-06T09:14:01.000Z</time>
</trkpt>
<trkpt lat="46.1412660" lon="10.1520290">
	<ele>1514.80</ele>
	<time>2024-09-06T09:14:02.000Z</time>
</trkpt>
<trkpt lat="46.1412660" lon="10.1520290">
	<ele>1514.60</ele>
	<time>2024-09-06T09:14:03.000Z</time>
</trkpt>
<trkpt lat="46.1412660" lon="10.1520290">
	<ele>1514.60</ele>
	<time>2024-09-06T09:14:04.000Z</time>
</trkpt>
<trkpt lat="46.1412700" lon="10.1520310">
	<ele>1514.60</ele>
	<time>2024-09-06T09:14:05.000Z</time>
</trkpt>
<trkpt lat="46.1412800" lon="10.1520320">
	<ele>1514.40</ele>
	<time>2024-09-06T09:14:06.000Z</time>
</trkpt>
<trkpt lat="46.1412940" lon="10.1520320">
	<ele>1514.20</ele>
	<time>2024-09-06T09:14:07.000Z</time>
</trkpt>
<trkpt lat="46.1413070" lon="10.1520270">
	<ele>1514.20</ele>
	<time>2024-09-06T09:14:08.000Z</time>
</trkpt>
<trkpt lat="46.1413200" lon="10.1520280">
	<ele>1514.00</ele>
	<time>2024-09-06T09:14:09.000Z</time>
</trkpt>
<trkpt lat="46.1413400" lon="10.1520340">
	<ele>1513.80</ele>
	<time>2024-09-06T09:14:10.000Z</time>
</trkpt>
<trkpt lat="46.1413510" lon="10.1520270">
	<ele>1513.60</ele>
	<time>2024-09-06T09:14:11.000Z</time>
</trkpt>
<trkpt lat="46.1413560" lon="10.1520230">
	<ele>1513.40</ele>
	<time>2024-09-06T09:14:12.000Z</time>
</trkpt>
<trkpt lat="46.1413690" lon="10.1520320">
	<ele>1513.00</ele>
	<time>2024-09-06T09:14:13.000Z</time>
</trkpt>
<trkpt lat="46.1413820" lon="10.1520310">
	<ele>1512.80</ele>
	<time>2024-09-06T09:14:14.000Z</time>
</trkpt>
<trkpt lat="46.1413880" lon="10.1520240">
	<ele>1512.60</ele>
	<time>2024-09-06T09:14:15.000Z</time>
</trkpt>
<trkpt lat="46.1413980" lon="10.1520200">
	<ele>1512.40</ele>
	<time>2024-09-06T09:14:16.000Z</time>
</trkpt>
<trkpt lat="46.1414060" lon="10.1520110">
	<ele>1512.00</ele>
	<time>2024-09-06T09:14:17.000Z</time>
</trkpt>
<trkpt lat="46.1414090" lon="10.1519960">
	<ele>1511.60</ele>
	<time>2024-09-06T09:14:18.000Z</time>
</trkpt>
<trkpt lat="46.1414050" lon="10.1519790">
	<ele>1511.40</ele>
	<time>2024-09-06T09:14:19.000Z</time>
</trkpt>
<trkpt lat="46.1414060" lon="10.1519660">
	<ele>1511.00</ele>
	<time>2024-09-06T09:14:20.000Z</time>
</trkpt>
<trkpt lat="46.1414190" lon="10.1519670">
	<ele>1510.40</ele>
	<time>2024-09-06T09:14:21.000Z</time>
</trkpt>
<trkpt lat="46.1414320" lon="10.1519660">
	<ele>1510.00</ele>
	<time>2024-09-06T09:14:22.000Z</time>
</trkpt>
<trkpt lat="46.1414400" lon="10.1519630">
	<ele>1509.60</ele>
	<time>2024-09-06T09:14:23.000Z</time>
</trkpt>
<trkpt lat="46.1414570" lon="10.1519730">
	<ele>1509.40</ele>
	<time>2024-09-06T09:14:24.000Z</time>
</trkpt>
<trkpt lat="46.1414710" lon="10.1519740">
	<ele>1509.00</ele>
	<time>2024-09-06T09:14:25.000Z</time>
</trkpt>
<trkpt lat="46.1414770" lon="10.1519600">
	<ele>1508.60</ele>
	<time>2024-09-06T09:14:26.000Z</time>
</trkpt>
<trkpt lat="46.1414920" lon="10.1519630">
	<ele>1508.20</ele>
	<time>2024-09-06T09:14:27.000Z</time>
</trkpt>
<trkpt lat="46.1415050" lon="10.1519580">
	<ele>1508.00</ele>
	<time>2024-09-06T09:14:28.000Z</time>
</trkpt>
<trkpt lat="46.1415140" lon="10.1519490">
	<ele>1507.60</ele>
	<time>2024-09-06T09:14:29.000Z</time>
</trkpt>
<trkpt lat="46.1415190" lon="10.1519420">
	<ele>1507.00</ele>
	<time>2024-09-06T09:14:30.000Z</time>
</trkpt>
<trkpt lat="46.1415270" lon="10.1519350">
	<ele>1506.60</ele>
	<time>2024-09-06T09:14:31.000Z</time>
</trkpt>
<trkpt lat="46.1415390" lon="10.1519360">
	<ele>1506.20</ele>
	<time>2024-09-06T09:14:32.000Z</time>
</trkpt>
<trkpt lat="46.1415470" lon="10.1519310">
	<ele>1505.80</ele>
	<time>2024-09-06T09:14:33.000Z</time>
</trkpt>
<trkpt lat="46.1415600" lon="10.1519220">
	<ele>1505.40</ele>
	<time>2024-09-06T09:14:34.000Z</time>
</trkpt>
<trkpt lat="46.1415620" lon="10.1519080">
	<ele>1505.00</ele>
	<time>2024-09-06T09:14:35.000Z</time>
</trkpt>
<trkpt lat="46.1415620" lon="10.1518940">
	<ele>1504.60</ele>
	<time>2024-09-06T09:14:36.000Z</time>
</trkpt>
<trkpt lat="46.1415680" lon="10.1518850">
	<ele>1504.40</ele>
	<time>2024-09-06T09:14:37.000Z</time>
</trkpt>
<trkpt lat="46.1415740" lon="10.1518740">
	<ele>1503.80</ele>
	<time>2024-09-06T09:14:38.000Z</time>
</trkpt>
<trkpt lat="46.1415810" lon="10.1518690">
	<ele>1503.40</ele>
	<time>2024-09-06T09:14:39.000Z</time>
</trkpt>
<trkpt lat="46.1415920" lon="10.1518630">
	<ele>1502.80</ele>
	<time>2024-09-06T09:14:40.000Z</time>
</trkpt>
<trkpt lat="46.1416080" lon="10.1518590">
	<ele>1502.40</ele>
	<time>2024-09-06T09:14:41.000Z</time>
</trkpt>
<trkpt lat="46.1416220" lon="10.1518520">
	<ele>1502.20</ele>
	<time>2024-09-06T09:14:42.000Z</time>
</trkpt>
<trkpt lat="46.1416360" lon="10.1518500">
	<ele>1501.80</ele>
	<time>2024-09-06T09:14:43.000Z</time>
</trkpt>
<trkpt lat="46.1416420" lon="10.1518410">
	<ele>1501.40</ele>
	<time>2024-09-06T09:14:44.000Z</time>
</trkpt>
<trkpt lat="46.1416520" lon="10.1518340">
	<ele>1500.80</ele>
	<time>2024-09-06T09:14:45.000Z</time>
</trkpt>
<trkpt lat="46.1416530" lon="10.1518180">
	<ele>1500.40</ele>
	<time>2024-09-06T09:14:46.000Z</time>
</trkpt>
<trkpt lat="46.1416570" lon="10.1518070">
	<ele>1500.20</ele>
	<time>2024-09-06T09:14:47.000Z</time>
</trkpt>
<trkpt lat="46.1416710" lon="10.1518090">
	<ele>1499.80</ele>
	<time>2024-09-06T09:14:48.000Z</time>
</trkpt>
<trkpt lat="46.1416830" lon="10.1518060">
	<ele>1499.60</ele>
	<time>2024-09-06T09:14:49.000Z</time>
</trkpt>
<trkpt lat="46.1416970" lon="10.1518020">
	<ele>1499.00</ele>
	<time>2024-09-06T09:14:50.000Z</time>
</trkpt>
<trkpt lat="46.1417050" lon="10.1517840">
	<ele>1498.60</ele>
	<time>2024-09-06T09:14:51.000Z</time>
</trkpt>
<trkpt lat="46.1417110" lon="10.1517680">
	<ele>1498.20</ele>
	<time>2024-09-06T09:14:52.000Z</time>
</trkpt>
<trkpt lat="46.1417160" lon="10.1517530">
	<ele>1498.00</ele>
	<time>2024-09-06T09:14:53.000Z</time>
</trkpt>
<trkpt lat="46.1417190" lon="10.1517370">
	<ele>1497.60</ele>
	<time>2024-09-06T09:14:54.000Z</time>
</trkpt>
<trkpt lat="46.1417210" lon="10.1517260">
	<ele>1497.40</ele>
	<time>2024-09-06T09:14:55.000Z</time>
</trkpt>
<trkpt lat="46.1417240" lon="10.1517180">
	<ele>1497.00</ele>
	<time>2024-09-06T09:14:56.000Z</time>
</trkpt>
<trkpt lat="46.1417320" lon="10.1517110">
	<ele>1496.60</ele>
	<time>2024-09-06T09:14:57.000Z</time>
</trkpt>
<trkpt lat="46.1417380" lon="10.1517010">
	<ele>1496.20</ele>
	<time>2024-09-06T09:14:58.000Z</time>
</trkpt>
<trkpt lat="46.1417420" lon="10.1516960">
	<ele>1495.80</ele>
	<time>2024-09-06T09:14:59.000Z</time>
</trkpt>
<trkpt lat="46.1417470" lon="10.1516890">
	<ele>1495.60</ele>
	<time>2024-09-06T09:15:00.000Z</time>
</trkpt>
<trkpt lat="46.1417560" lon="10.1516800">
	<ele>1495.20</ele>
	<time>2024-09-06T09:15:01.000Z</time>
</trkpt>
<trkpt lat="46.1417640" lon="10.1516760">
	<ele>1495.00</ele>
	<time>2024-09-06T09:15:02.000Z</time>
</trkpt>
<trkpt lat="46.1417770" lon="10.1516670">
	<ele>1494.80</ele>
	<time>2024-09-06T09:15:03.000Z</time>
</trkpt>
<trkpt lat="46.1417860" lon="10.1516630">
	<ele>1494.40</ele>
	<time>2024-09-06T09:15:04.000Z</time>
</trkpt>
<trkpt lat="46.1417930" lon="10.1516640">
	<ele>1494.00</ele>
	<time>2024-09-06T09:15:05.000Z</time>
</trkpt>
<trkpt lat="46.1418040" lon="10.1516660">
	<ele>1493.40</ele>
	<time>2024-09-06T09:15:06.000Z</time>
</trkpt>
<trkpt lat="46.1418130" lon="10.1516720">
	<ele>1493.00</ele>
	<time>2024-09-06T09:15:07.000Z</time>
</trkpt>
<trkpt lat="46.1418250" lon="10.1516850">
	<ele>1492.80</ele>
	<time>2024-09-06T09:15:08.000Z</time>
</trkpt>
<trkpt lat="46.1418380" lon="10.1516920">
	<ele>1492.60</ele>
	<time>2024-09-06T09:15:09.000Z</time>
</trkpt>
<trkpt lat="46.1418350" lon="10.1516940">
	<ele>1492.40</ele>
	<time>2024-09-06T09:15:10.000Z</time>
</trkpt>
<trkpt lat="46.1418390" lon="10.1516970">
	<ele>1492.00</ele>
	<time>2024-09-06T09:15:11.000Z</time>
</trkpt>
<trkpt lat="46.1418460" lon="10.1517040">
	<ele>1491.80</ele>
	<time>2024-09-06T09:15:12.000Z</time>
</trkpt>
<trkpt lat="46.1418530" lon="10.1517030">
	<ele>1491.60</ele>
	<time>2024-09-06T09:15:13.000Z</time>
</trkpt>
<trkpt lat="46.1418500" lon="10.1516850">
	<ele>1491.20</ele>
	<time>2024-09-06T09:15:14.000Z</time>
</trkpt>
<trkpt lat="46.1418450" lon="10.1516710">
	<ele>1490.80</ele>
	<time>2024-09-06T09:15:15.000Z</time>
</trkpt>
<trkpt lat="46.1418540" lon="10.1516750">
	<ele>1490.40</ele>
	<time>2024-09-06T09:15:16.000Z</time>
</trkpt>
<trkpt lat="46.1418670" lon="10.1516840">
	<ele>1490.00</ele>
	<time>2024-09-06T09:15:17.000Z</time>
</trkpt>
<trkpt lat="46.1418740" lon="10.1516830">
	<ele>1489.80</ele>
	<time>2024-09-06T09:15:18.000Z</time>
</trkpt>
<trkpt lat="46.1418880" lon="10.1516860">
	<ele>1489.40</ele>
	<time>2024-09-06T09:15:19.000Z</time>
</trkpt>
<trkpt lat="46.1419000" lon="10.1516880">
	<ele>1489.00</ele>
	<time>2024-09-06T09:15:20.000Z</time>
</trkpt>
<trkpt lat="46.1419170" lon="10.1516870">
	<ele>1488.40</ele>
	<time>2024-09-06T09:15:21.000Z</time>
</trkpt>
<trkpt lat="46.1419280" lon="10.1516860">
	<ele>1488.20</ele>
	<time>2024-09-06T09:15:22.000Z</time>
</trkpt>
<trkpt lat="46.1419450" lon="10.1516930">
	<ele>1487.80</ele>
	<time>2024-09-06T09:15:23.000Z</time>
</trkpt>
<trkpt lat="46.1419580" lon="10.1516960">
	<ele>1487.40</ele>
	<time>2024-09-06T09:15:24.000Z</time>
</trkpt>
<trkpt lat="46.1419700" lon="10.1516970">
	<ele>1487.00</ele>
	<time>2024-09-06T09:15:25.000Z</time>
</trkpt>
<trkpt lat="46.1419790" lon="10.1517040">
	<ele>1486.80</ele>
	<time>2024-09-06T09:15:26.000Z</time>
</trkpt>
<trkpt lat="46.1419860" lon="10.1517020">
	<ele>1486.40</ele>
	<time>2024-09-06T09:15:27.000Z</time>
</trkpt>
<trkpt lat="46.1419970" lon="10.1517020">
	<ele>1485.80</ele>
	<time>2024-09-06T09:15:28.000Z</time>
</trkpt>
<trkpt lat="46.1420090" lon="10.1517010">
	<ele>1485.60</ele>
	<time>2024-09-06T09:15:29.000Z</time>
</trkpt>
<trkpt lat="46.1420190" lon="10.1516980">
	<ele>1485.20</ele>
	<time>2024-09-06T09:15:30.000Z</time>
</trkpt>
<trkpt lat="46.1420260" lon="10.1516930">
	<ele>1484.80</ele>
	<time>2024-09-06T09:15:31.000Z</time>
</trkpt>
<trkpt lat="46.1420360" lon="10.1516940">
	<ele>1484.60</ele>
	<time>2024-09-06T09:15:32.000Z</time>
</trkpt>
<trkpt lat="46.1420500" lon="10.1516970">
	<ele>1484.20</ele>
	<time>2024-09-06T09:15:33.000Z</time>
</trkpt>
<trkpt lat="46.1420580" lon="10.1516950">
	<ele>1484.00</ele>
	<time>2024-09-06T09:15:34.000Z</time>
</trkpt>
<trkpt lat="46.1420750" lon="10.1517010">
	<ele>1483.60</ele>
	<time>2024-09-06T09:15:35.000Z</time>
</trkpt>
<trkpt lat="46.1420830" lon="10.1516950">
	<ele>1483.40</ele>
	<time>2024-09-06T09:15:36.000Z</time>
</trkpt>
<trkpt lat="46.1420890" lon="10.1516860">
	<ele>1482.80</ele>
	<time>2024-09-06T09:15:37.000Z</time>
</trkpt>
<trkpt lat="46.1420980" lon="10.1516880">
	<ele>1482.40</ele>
	<time>2024-09-06T09:15:38.000Z</time>
</trkpt>
<trkpt lat="46.1421120" lon="10.1516900">
	<ele>1482.20</ele>
	<time>2024-09-06T09:15:39.000Z</time>
</trkpt>
<trkpt lat="46.1421230" lon="10.1516900">
	<ele>1481.80</ele>
	<time>2024-09-06T09:15:40.000Z</time>
</trkpt>
<trkpt lat="46.1421300" lon="10.1516900">
	<ele>1481.60</ele>
	<time>2024-09-06T09:15:41.000Z</time>
</trkpt>
<trkpt lat="46.1421360" lon="10.1516880">
	<ele>1481.00</ele>
	<time>2024-09-06T09:15:42.000Z</time>
</trkpt>
<trkpt lat="46.1421400" lon="10.1516930">
	<ele>1480.80</ele>
	<time>2024-09-06T09:15:43.000Z</time>
</trkpt>
<trkpt lat="46.1421460" lon="10.1516950">
	<ele>1480.40</ele>
	<time>2024-09-06T09:15:44.000Z</time>
</trkpt>
<trkpt lat="46.1421540" lon="10.1516950">
	<ele>1480.20</ele>
	<time>2024-09-06T09:15:45.000Z</time>
</trkpt>
<trkpt lat="46.1421620" lon="10.1516970">
	<ele>1479.80</ele>
	<time>2024-09-06T09:15:46.000Z</time>
</trkpt>
<trkpt lat="46.1421700" lon="10.1516980">
	<ele>1479.60</ele>
	<time>2024-09-06T09:15:47.000Z</time>
</trkpt>
<trkpt lat="46.1421750" lon="10.1516950">
	<ele>1479.20</ele>
	<time>2024-09-06T09:15:48.000Z</time>
</trkpt>
<trkpt lat="46.1421800" lon="10.1516850">
	<ele>1479.00</ele>
	<time>2024-09-06T09:15:49.000Z</time>
</trkpt>
<trkpt lat="46.1421880" lon="10.1516790">
	<ele>1478.80</ele>
	<time>2024-09-06T09:15:50.000Z</time>
</trkpt>
<trkpt lat="46.1421950" lon="10.1516740">
	<ele>1478.40</ele>
	<time>2024-09-06T09:15:51.000Z</time>
</trkpt>
<trkpt lat="46.1422040" lon="10.1516740">
	<ele>1478.00</ele>
	<time>2024-09-06T09:15:52.000Z</time>
</trkpt>
<trkpt lat="46.1422150" lon="10.1516720">
	<ele>1477.60</ele>
	<time>2024-09-06T09:15:53.000Z</time>
</trkpt>
<trkpt lat="46.1422210" lon="10.1516680">
	<ele>1477.40</ele>
	<time>2024-09-06T09:15:54.000Z</time>
</trkpt>
<trkpt lat="46.1422250" lon="10.1516600">
	<ele>1477.00</ele>
	<time>2024-09-06T09:15:55.000Z</time>
</trkpt>
<trkpt lat="46.1422310" lon="10.1516530">
	<ele>1476.80</ele>
	<time>2024-09-06T09:15:56.000Z</time>
</trkpt>
<trkpt lat="46.1422390" lon="10.1516490">
	<ele>1476.60</ele>
	<time>2024-09-06T09:15:57.000Z</time>
</trkpt>
<trkpt lat="46.1422500" lon="10.1516510">
	<ele>1476.20</ele>
	<time>2024-09-06T09:15:58.000Z</time>
</trkpt>
<trkpt lat="46.1422650" lon="10.1516580">
	<ele>1476.00</ele>
	<time>2024-09-06T09:15:59.000Z</time>
</trkpt>
<trkpt lat="46.1422800" lon="10.1516610">
	<ele>1475.60</ele>
	<time>2024-09-06T09:16:00.000Z</time>
</trkpt>
<trkpt lat="46.1422940" lon="10.1516660">
	<ele>1475.40</ele>
	<time>2024-09-06T09:16:01.000Z</time>
</trkpt>
<trkpt lat="46.1423060" lon="10.1516670">
	<ele>1475.00</ele>
	<time>2024-09-06T09:16:02.000Z</time>
</trkpt>
<trkpt lat="46.1423160" lon="10.1516650">
	<ele>1474.80</ele>
	<time>2024-09-06T09:16:03.000Z</time>
</trkpt>
<trkpt lat="46.1423230" lon="10.1516620">
	<ele>1474.60</ele>
	<time>2024-09-06T09:16:04.000Z</time>
</trkpt>
<trkpt lat="46.1423280" lon="10.1516590">
	<ele>1474.40</ele>
	<time>2024-09-06T09:16:05.000Z</time>
</trkpt>
<trkpt lat="46.1423370" lon="10.1516640">
	<ele>1474.20</ele>
	<time>2024-09-06T09:16:06.000Z</time>
</trkpt>
<trkpt lat="46.1423450" lon="10.1516690">
	<ele>1473.80</ele>
	<time>2024-09-06T09:16:07.000Z</time>
</trkpt>
<trkpt lat="46.1423560" lon="10.1516690">
	<ele>1473.40</ele>
	<time>2024-09-06T09:16:08.000Z</time>
</trkpt>
<trkpt lat="46.1423650" lon="10.1516730">
	<ele>1473.00</ele>
	<time>2024-09-06T09:16:09.000Z</time>
</trkpt>
<trkpt lat="46.1423750" lon="10.1516750">
	<ele>1472.80</ele>
	<time>2024-09-06T09:16:10.000Z</time>
</trkpt>
<trkpt lat="46.1423820" lon="10.1516700">
	<ele>1472.60</ele>
	<time>2024-09-06T09:16:11.000Z</time>
</trkpt>
<trkpt lat="46.1423870" lon="10.1516620">
	<ele>1472.20</ele>
	<time>2024-09-06T09:16:12.000Z</time>
</trkpt>
<trkpt lat="46.1424020" lon="10.1516680">
	<ele>1472.00</ele>
	<time>2024-09-06T09:16:13.000Z</time>
</trkpt>
<trkpt lat="46.1424130" lon="10.1516800">
	<ele>1471.80</ele>
	<time>2024-09-06T09:16:14.000Z</time>
</trkpt>
<trkpt lat="46.1424240" lon="10.1516940">
	<ele>1471.60</ele>
	<time>2024-09-06T09:16:15.000Z</time>
</trkpt>
<trkpt lat="46.1424320" lon="10.1517010">
	<ele>1471.60</ele>
	<time>2024-09-06T09:16:16.000Z</time>
</trkpt>
<trkpt lat="46.1424360" lon="10.1517030">
	<ele>1471.20</ele>
	<time>2024-09-06T09:16:17.000Z</time>
</trkpt>
<trkpt lat="46.1424480" lon="10.1517040">
	<ele>1471.20</ele>
	<time>2024-09-06T09:16:18.000Z</time>
</trkpt>
<trkpt lat="46.1424540" lon="10.1517030">
	<ele>1471.00</ele>
	<time>2024-09-06T09:16:19.000Z</time>
</trkpt>
<trkpt lat="46.1424620" lon="10.1517080">
	<ele>1470.60</ele>
	<time>2024-09-06T09:16:20.000Z</time>
</trkpt>
<trkpt lat="46.1424740" lon="10.1517130">
	<ele>1470.40</ele>
	<time>2024-09-06T09:16:21.000Z</time>
</trkpt>
<trkpt lat="46.1424870" lon="10.1517170">
	<ele>1470.20</ele>
	<time>2024-09-06T09:16:22.000Z</time>
</trkpt>
<trkpt lat="46.1424970" lon="10.1517190">
	<ele>1470.00</ele>
	<time>2024-09-06T09:16:23.000Z</time>
</trkpt>
<trkpt lat="46.1425070" lon="10.1517250">
	<ele>1469.60</ele>
	<time>2024-09-06T09:16:24.000Z</time>
</trkpt>
<trkpt lat="46.1425200" lon="10.1517280">
	<ele>1469.40</ele>
	<time>2024-09-06T09:16:25.000Z</time>
</trkpt>
<trkpt lat="46.1425370" lon="10.1517340">
	<ele>1469.20</ele>
	<time>2024-09-06T09:16:26.000Z</time>
</trkpt>
<trkpt lat="46.1425490" lon="10.1517370">
	<ele>1469.00</ele>
	<time>2024-09-06T09:16:27.000Z</time>
</trkpt>
<trkpt lat="46.1425610" lon="10.1517390">
	<ele>1468.60</ele>
	<time>2024-09-06T09:16:28.000Z</time>
</trkpt>
<trkpt lat="46.1425740" lon="10.1517400">
	<ele>1468.40</ele>
	<time>2024-09-06T09:16:29.000Z</time>
</trkpt>
<trkpt lat="46.1425850" lon="10.1517390">
	<ele>1468.20</ele>
	<time>2024-09-06T09:16:30.000Z</time>
</trkpt>
<trkpt lat="46.1425940" lon="10.1517380">
	<ele>1467.80</ele>
	<time>2024-09-06T09:16:31.000Z</time>
</trkpt>
<trkpt lat="46.1426070" lon="10.1517400">
	<ele>1467.40</ele>
	<time>2024-09-06T09:16:32.000Z</time>
</trkpt>
<trkpt lat="46.1426230" lon="10.1517430">
	<ele>1467.00</ele>
	<time>2024-09-06T09:16:33.000Z</time>
</trkpt>
<trkpt lat="46.1426350" lon="10.1517440">
	<ele>1466.80</ele>
	<time>2024-09-06T09:16:34.000Z</time>
</trkpt>
<trkpt lat="46.1426440" lon="10.1517440">
	<ele>1466.60</ele>
	<time>2024-09-06T09:16:35.000Z</time>
</trkpt>
<trkpt lat="46.1426560" lon="10.1517460">
	<ele>1466.20</ele>
	<time>2024-09-06T09:16:36.000Z</time>
</trkpt>
<trkpt lat="46.1426670" lon="10.1517500">
	<ele>1465.80</ele>
	<time>2024-09-06T09:16:37.000Z</time>
</trkpt>
<trkpt lat="46.1426730" lon="10.1517490">
	<ele>1465.60</ele>
	<time>2024-09-06T09:16:38.000Z</time>
</trkpt>
<trkpt lat="46.1426800" lon="10.1517470">
	<ele>1465.40</ele>
	<time>2024-09-06T09:16:39.000Z</time>
</trkpt>
<trkpt lat="46.1426940" lon="10.1517500">
	<ele>1465.20</ele>
	<time>2024-09-06T09:16:40.000Z</time>
</trkpt>
<trkpt lat="46.1427080" lon="10.1517420">
	<ele>1464.80</ele>
	<time>2024-09-06T09:16:41.000Z</time>
</trkpt>
<trkpt lat="46.1427150" lon="10.1517310">
	<ele>1464.40</ele>
	<time>2024-09-06T09:16:42.000Z</time>
</trkpt>
<trkpt lat="46.1427230" lon="10.1517280">
	<ele>1464.20</ele>
	<time>2024-09-06T09:16:43.000Z</time>
</trkpt>
<trkpt lat="46.1427300" lon="10.1517390">
	<ele>1464.00</ele>
	<time>2024-09-06T09:16:44.000Z</time>
</trkpt>
<trkpt lat="46.1427400" lon="10.1517450">
	<ele>1463.60</ele>
	<time>2024-09-06T09:16:45.000Z</time>
</trkpt>
<trkpt lat="46.1427570" lon="10.1517470">
	<ele>1463.20</ele>
	<time>2024-09-06T09:16:46.000Z</time>
</trkpt>
<trkpt lat="46.1427750" lon="10.1517500">
	<ele>1463.00</ele>
	<time>2024-09-06T09:16:47.000Z</time>
</trkpt>
<trkpt lat="46.1427940" lon="10.1517540">
	<ele>1462.60</ele>
	<time>2024-09-06T09:16:48.000Z</time>
</trkpt>
<trkpt lat="46.1428080" lon="10.1517510">
	<ele>1462.40</ele>
	<time>2024-09-06T09:16:49.000Z</time>
</trkpt>
<trkpt lat="46.1428230" lon="10.1517490">
	<ele>1462.20</ele>
	<time>2024-09-06T09:16:50.000Z</time>
</trkpt>
<trkpt lat="46.1428340" lon="10.1517480">
	<ele>1461.60</ele>
	<time>2024-09-06T09:16:51.000Z</time>
</trkpt>
<trkpt lat="46.1428410" lon="10.1517420">
	<ele>1461.20</ele>
	<time>2024-09-06T09:16:52.000Z</time>
</trkpt>
<trkpt lat="46.1428510" lon="10.1517390">
	<ele>1460.80</ele>
	<time>2024-09-06T09:16:53.000Z</time>
</trkpt>
<trkpt lat="46.1428580" lon="10.1517370">
	<ele>1460.60</ele>
	<time>2024-09-06T09:16:54.000Z</time>
</trkpt>
<trkpt lat="46.1428720" lon="10.1517440">
	<ele>1460.20</ele>
	<time>2024-09-06T09:16:55.000Z</time>
</trkpt>
<trkpt lat="46.1428870" lon="10.1517460">
	<ele>1459.80</ele>
	<time>2024-09-06T09:16:56.000Z</time>
</trkpt>
<trkpt lat="46.1428950" lon="10.1517400">
	<ele>1459.60</ele>
	<time>2024-09-06T09:16:57.000Z</time>
</trkpt>
<trkpt lat="46.1428980" lon="10.1517310">
	<ele>1459.20</ele>
	<time>2024-09-06T09:16:58.000Z</time>
</trkpt>
<trkpt lat="46.1429070" lon="10.1517320">
	<ele>1459.00</ele>
	<time>2024-09-06T09:16:59.000Z</time>
</trkpt>
<trkpt lat="46.1429150" lon="10.1517280">
	<ele>1458.80</ele>
	<time>2024-09-06T09:17:00.000Z</time>
</trkpt>
<trkpt lat="46.1429240" lon="10.1517270">
	<ele>1458.60</ele>
	<time>2024-09-06T09:17:01.000Z</time>
</trkpt>
<trkpt lat="46.1429440" lon="10.1517300">
	<ele>1458.40</ele>
	<time>2024-09-06T09:17:02.000Z</time>
</trkpt>
<trkpt lat="46.1429530" lon="10.1517270">
	<ele>1458.00</ele>
	<time>2024-09-06T09:17:03.000Z</time>
</trkpt>
<trkpt lat="46.1429640" lon="10.1517230">
	<ele>1457.80</ele>
	<time>2024-09-06T09:17:04.000Z</time>
</trkpt>
<trkpt lat="46.1429750" lon="10.1517150">
	<ele>1457.60</ele>
	<time>2024-09-06T09:17:05.000Z</time>
</trkpt>
<trkpt lat="46.1429860" lon="10.1517070">
	<ele>1457.20</ele>
	<time>2024-09-06T09:17:06.000Z</time>
</trkpt>
<trkpt lat="46.1429990" lon="10.1517000">
	<ele>1456.80</ele>
	<time>2024-09-06T09:17:07.000Z</time>
</trkpt>
<trkpt lat="46.1430080" lon="10.1516930">
	<ele>1456.60</ele>
	<time>2024-09-06T09:17:08.000Z</time>
</trkpt>
<trkpt lat="46.1430140" lon="10.1516800">
	<ele>1456.20</ele>
	<time>2024-09-06T09:17:09.000Z</time>
</trkpt>
<trkpt lat="46.1430230" lon="10.1516700">
	<ele>1455.80</ele>
	<time>2024-09-06T09:17:10.000Z</time>
</trkpt>
<trkpt lat="46.1430330" lon="10.1516690">
	<ele>1455.20</ele>
	<time>2024-09-06T09:17:11.000Z</time>
</trkpt>
<trkpt lat="46.1430450" lon="10.1516580">
	<ele>1454.80</ele>
	<time>2024-09-06T09:17:12.000Z</time>
</trkpt>
<trkpt lat="46.1430560" lon="10.1516540">
	<ele>1454.60</ele>
	<time>2024-09-06T09:17:13.000Z</time>
</trkpt>
<trkpt lat="46.1430670" lon="10.1516460">
	<ele>1454.20</ele>
	<time>2024-09-06T09:17:14.000Z</time>
</trkpt>
<trkpt lat="46.1430760" lon="10.1516320">
	<ele>1453.80</ele>
	<time>2024-09-06T09:17:15.000Z</time>
</trkpt>
<trkpt lat="46.1430750" lon="10.1516170">
	<ele>1453.60</ele>
	<time>2024-09-06T09:17:16.000Z</time>
</trkpt>
<trkpt lat="46.1430780" lon="10.1515990">
	<ele>1453.00</ele>
	<time>2024-09-06T09:17:17.000Z</time>
</trkpt>
<trkpt lat="46.1430780" lon="10.1515820">
	<ele>1452.60</ele>
	<time>2024-09-06T09:17:18.000Z</time>
</trkpt>
<trkpt lat="46.1430780" lon="10.1515620">
	<ele>1452.20</ele>
	<time>2024-09-06T09:17:19.000Z</time>
</trkpt>
<trkpt lat="46.1430760" lon="10.1515450">
	<ele>1451.80</ele>
	<time>2024-09-06T09:17:20.000Z</time>
</trkpt>
<trkpt lat="46.1430770" lon="10.1515280">
	<ele>1451.40</ele>
	<time>2024-09-06T09:17:21.000Z</time>
</trkpt>
<trkpt lat="46.1430790" lon="10.1515120">
	<ele>1451.20</ele>
	<time>2024-09-06T09:17:22.000Z</time>
</trkpt>
<trkpt lat="46.1430840" lon="10.1515020">
	<ele>1450.60</ele>
	<time>2024-09-06T09:17:23.000Z</time>
</trkpt>
<trkpt lat="46.1430870" lon="10.1514880">
	<ele>1450.40</ele>
	<time>2024-09-06T09:17:24.000Z</time>
</trkpt>
<trkpt lat="46.1430910" lon="10.1514710">
	<ele>1450.20</ele>
	<time>2024-09-06T09:17:25.000Z</time>
</trkpt>
<trkpt lat="46.1430950" lon="10.1514560">
	<ele>1449.80</ele>
	<time>2024-09-06T09:17:26.000Z</time>
</trkpt>
<trkpt lat="46.1430990" lon="10.1514460">
	<ele>1449.40</ele>
	<time>2024-09-06T09:17:27.000Z</time>
</trkpt>
<trkpt lat="46.1431050" lon="10.1514370">
	<ele>1449.00</ele>
	<time>2024-09-06T09:17:28.000Z</time>
</trkpt>
<trkpt lat="46.1431160" lon="10.1514320">
	<ele>1448.40</ele>
	<time>2024-09-06T09:17:29.000Z</time>
</trkpt>
<trkpt lat="46.1431260" lon="10.1514250">
	<ele>1448.00</ele>
	<time>2024-09-06T09:17:30.000Z</time>
</trkpt>
<trkpt lat="46.1431300" lon="10.1514220">
	<ele>1447.60</ele>
	<time>2024-09-06T09:17:31.000Z</time>
</trkpt>
<trkpt lat="46.1431390" lon="10.1514180">
	<ele>1447.00</ele>
	<time>2024-09-06T09:17:32.000Z</time>
</trkpt>
<trkpt lat="46.1431490" lon="10.1514110">
	<ele>1446.80</ele>
	<time>2024-09-06T09:17:33.000Z</time>
</trkpt>
<trkpt lat="46.1431550" lon="10.1514030">
	<ele>1446.40</ele>
	<time>2024-09-06T09:17:34.000Z</time>
</trkpt>
<trkpt lat="46.1431640" lon="10.1513960">
	<ele>1445.80</ele>
	<time>2024-09-06T09:17:35.000Z</time>
</trkpt>
<trkpt lat="46.1431670" lon="10.1513830">
	<ele>1445.20</ele>
	<time>2024-09-06T09:17:36.000Z</time>
</trkpt>
<trkpt lat="46.1431690" lon="10.1513630">
	<ele>1444.80</ele>
	<time>2024-09-06T09:17:37.000Z</time>
</trkpt>
<trkpt lat="46.1431740" lon="10.1513410">
	<ele>1444.40</ele>
	<time>2024-09-06T09:17:38.000Z</time>
</trkpt>
<trkpt lat="46.1431750" lon="10.1513190">
	<ele>1444.00</ele>
	<time>2024-09-06T09:17:39.000Z</time>
</trkpt>
<trkpt lat="46.1431760" lon="10.1513030">
	<ele>1443.60</ele>
	<time>2024-09-06T09:17:40.000Z</time>
</trkpt>
<trkpt lat="46.1431760" lon="10.1512850">
	<ele>1443.20</ele>
	<time>2024-09-06T09:17:41.000Z</time>
</trkpt>
<trkpt lat="46.1431720" lon="10.1512570">
	<ele>1442.80</ele>
	<time>2024-09-06T09:17:42.000Z</time>
</trkpt>
<trkpt lat="46.1431750" lon="10.1512420">
	<ele>1442.60</ele>
	<time>2024-09-06T09:17:43.000Z</time>
</trkpt>
<trkpt lat="46.1431790" lon="10.1512220">
	<ele>1442.40</ele>
	<time>2024-09-06T09:17:44.000Z</time>
</trkpt>
<trkpt lat="46.1431820" lon="10.1512050">
	<ele>1441.80</ele>
	<time>2024-09-06T09:17:45.000Z</time>
</trkpt>
<trkpt lat="46.1431840" lon="10.1511830">
	<ele>1441.40</ele>
	<time>2024-09-06T09:17:46.000Z</time>
</trkpt>
<trkpt lat="46.1431860" lon="10.1511640">
	<ele>1441.00</ele>
	<time>2024-09-06T09:17:47.000Z</time>
</trkpt>
<trkpt lat="46.1431900" lon="10.1511490">
	<ele>1440.80</ele>
	<time>2024-09-06T09:17:48.000Z</time>
</trkpt>
<trkpt lat="46.1431950" lon="10.1511370">
	<ele>1440.20</ele>
	<time>2024-09-06T09:17:49.000Z</time>
</trkpt>
<trkpt lat="46.1432020" lon="10.1511250">
	<ele>1439.80</ele>
	<time>2024-09-06T09:17:50.000Z</time>
</trkpt>
<trkpt lat="46.1432100" lon="10.1511140">
	<ele>1439.40</ele>
	<time>2024-09-06T09:17:51.000Z</time>
</trkpt>
<trkpt lat="46.1432180" lon="10.1511020">
	<ele>1439.20</ele>
	<time>2024-09-06T09:17:52.000Z</time>
</trkpt>
<trkpt lat="46.1432220" lon="10.1510860">
	<ele>1438.80</ele>
	<time>2024-09-06T09:17:53.000Z</time>
</trkpt>
<trkpt lat="46.1432270" lon="10.1510730">
	<ele>1438.40</ele>
	<time>2024-09-06T09:17:54.000Z</time>
</trkpt>
<trkpt lat="46.1432300" lon="10.1510580">
	<ele>1437.80</ele>
	<time>2024-09-06T09:17:55.000Z</time>
</trkpt>
<trkpt lat="46.1432310" lon="10.1510390">
	<ele>1437.40</ele>
	<time>2024-09-06T09:17:56.000Z</time>
</trkpt>
<trkpt lat="46.1432360" lon="10.1510170">
	<ele>1437.00</ele>
	<time>2024-09-06T09:17:57.000Z</time>
</trkpt>
<trkpt lat="46.1432320" lon="10.1509790">
	<ele>1436.60</ele>
	<time>2024-09-06T09:17:58.000Z</time>
</trkpt>
<trkpt lat="46.1432320" lon="10.1509520">
	<ele>1436.20</ele>
	<time>2024-09-06T09:17:59.000Z</time>
</trkpt>
<trkpt lat="46.1432350" lon="10.1509360">
	<ele>1435.80</ele>
	<time>2024-09-06T09:18:00.000Z</time>
</trkpt>
<trkpt lat="46.1432420" lon="10.1509210">
	<ele>1435.60</ele>
	<time>2024-09-06T09:18:01.000Z</time>
</trkpt>
<trkpt lat="46.1432490" lon="10.1509050">
	<ele>1435.20</ele>
	<time>2024-09-06T09:18:02.000Z</time>
</trkpt>
<trkpt lat="46.1432530" lon="10.1508850">
	<ele>1434.80</ele>
	<time>2024-09-06T09:18:03.000Z</time>
</trkpt>
<trkpt lat="46.1432550" lon="10.1508640">
	<ele>1434.40</ele>
	<time>2024-09-06T09:18:04.000Z</time>
</trkpt>
<trkpt lat="46.1432600" lon="10.1508460">
	<ele>1434.20</ele>
	<time>2024-09-06T09:18:05.000Z</time>
</trkpt>
<trkpt lat="46.1432640" lon="10.1508300">
	<ele>1433.80</ele>
	<time>2024-09-06T09:18:06.000Z</time>
</trkpt>
<trkpt lat="46.1432640" lon="10.1508080">
	<ele>1433.60</ele>
	<time>2024-09-06T09:18:07.000Z</time>
</trkpt>
<trkpt lat="46.1432650" lon="10.1507900">
	<ele>1433.20</ele>
	<time>2024-09-06T09:18:08.000Z</time>
</trkpt>
<trkpt lat="46.1432600" lon="10.1507760">
	<ele>1432.80</ele>
	<time>2024-09-06T09:18:09.000Z</time>
</trkpt>
<trkpt lat="46.1432510" lon="10.1507550">
	<ele>1432.60</ele>
	<time>2024-09-06T09:18:10.000Z</time>
</trkpt>
<trkpt lat="46.1432450" lon="10.1507390">
	<ele>1432.40</ele>
	<time>2024-09-06T09:18:11.000Z</time>
</trkpt>
<trkpt lat="46.1432380" lon="10.1507240">
	<ele>1432.00</ele>
	<time>2024-09-06T09:18:12.000Z</time>
</trkpt>
<trkpt lat="46.1432320" lon="10.1507160">
	<ele>1431.80</ele>
	<time>2024-09-06T09:18:13.000Z</time>
</trkpt>
<trkpt lat="46.1432220" lon="10.1506990">
	<ele>1431.40</ele>
	<time>2024-09-06T09:18:14.000Z</time>
</trkpt>
<trkpt lat="46.1432140" lon="10.1506810">
	<ele>1431.20</ele>
	<time>2024-09-06T09:18:15.000Z</time>
</trkpt>
<trkpt lat="46.1432100" lon="10.1506650">
	<ele>1431.00</ele>
	<time>2024-09-06T09:18:16.000Z</time>
</trkpt>
<trkpt lat="46.1432030" lon="10.1506500">
	<ele>1430.80</ele>
	<time>2024-09-06T09:18:17.000Z</time>
</trkpt>
<trkpt lat="46.1431950" lon="10.1506370">
	<ele>1430.60</ele>
	<time>2024-09-06T09:18:18.000Z</time>
</trkpt>
<trkpt lat="46.1431850" lon="10.1506220">
	<ele>1430.40</ele>
	<time>2024-09-06T09:18:19.000Z</time>
</trkpt>
<trkpt lat="46.1431760" lon="10.1506110">
	<ele>1430.20</ele>
	<time>2024-09-06T09:18:20.000Z</time>
</trkpt>
<trkpt lat="46.1431650" lon="10.1505980">
	<ele>1430.00</ele>
	<time>2024-09-06T09:18:21.000Z</time>
</trkpt>
<trkpt lat="46.1431530" lon="10.1505820">
	<ele>1429.60</ele>
	<time>2024-09-06T09:18:22.000Z</time>
</trkpt>
<trkpt lat="46.1431440" lon="10.1505670">
	<ele>1429.40</ele>
	<time>2024-09-06T09:18:23.000Z</time>
</trkpt>
<trkpt lat="46.1431330" lon="10.1505520">
	<ele>1429.40</ele>
	<time>2024-09-06T09:18:24.000Z</time>
</trkpt>
<trkpt lat="46.1431220" lon="10.1505370">
	<ele>1429.00</ele>
	<time>2024-09-06T09:18:25.000Z</time>
</trkpt>
<trkpt lat="46.1431110" lon="10.1505230">
	<ele>1429.00</ele>
	<time>2024-09-06T09:18:26.000Z</time>
</trkpt>
<trkpt lat="46.1431020" lon="10.1505110">
	<ele>1428.60</ele>
	<time>2024-09-06T09:18:27.000Z</time>
</trkpt>
<trkpt lat="46.1430930" lon="10.1504940">
	<ele>1428.20</ele>
	<time>2024-09-06T09:18:28.000Z</time>
</trkpt>
<trkpt lat="46.1430820" lon="10.1504740">
	<ele>1428.00</ele>
	<time>2024-09-06T09:18:29.000Z</time>
</trkpt>
<trkpt lat="46.1430710" lon="10.1504570">
	<ele>1427.80</ele>
	<time>2024-09-06T09:18:30.000Z</time>
</trkpt>
<trkpt lat="46.1430630" lon="10.1504420">
	<ele>1427.60</ele>
	<time>2024-09-06T09:18:31.000Z</time>
</trkpt>
<trkpt lat="46.1430540" lon="10.1504310">
	<ele>1427.40</ele>
	<time>2024-09-06T09:18:32.000Z</time>
</trkpt>
<trkpt lat="46.1430430" lon="10.1504190">
	<ele>1427.20</ele>
	<time>2024-09-06T09:18:33.000Z</time>
</trkpt>
<trkpt lat="46.1430380" lon="10.1504040">
	<ele>1426.80</ele>
	<time>2024-09-06T09:18:34.000Z</time>
</trkpt>
<trkpt lat="46.1430330" lon="10.1503890">
	<ele>1426.60</ele>
	<time>2024-09-06T09:18:35.000Z</time>
</trkpt>
<trkpt lat="46.1430230" lon="10.1503690">
	<ele>1426.20</ele>
	<time>2024-09-06T09:18:36.000Z</time>
</trkpt>
<trkpt lat="46.1430140" lon="10.1503540">
	<ele>1425.80</ele>
	<time>2024-09-06T09:18:37.000Z</time>
</trkpt>
<trkpt lat="46.1430100" lon="10.1503370">
	<ele>1425.80</ele>
	<time>2024-09-06T09:18:38.000Z</time>
</trkpt>
<trkpt lat="46.1430090" lon="10.1503200">
	<ele>1425.40</ele>
	<time>2024-09-06T09:18:39.000Z</time>
</trkpt>
<trkpt lat="46.1430070" lon="10.1503000">
	<ele>1425.40</ele>
	<time>2024-09-06T09:18:40.000Z</time>
</trkpt>
<trkpt lat="46.1430110" lon="10.1502830">
	<ele>1425.20</ele>
	<time>2024-09-06T09:18:41.000Z</time>
</trkpt>
<trkpt lat="46.1430150" lon="10.1502660">
	<ele>1425.00</ele>
	<time>2024-09-06T09:18:42.000Z</time>
</trkpt>
<trkpt lat="46.1430170" lon="10.1502500">
	<ele>1424.60</ele>
	<time>2024-09-06T09:18:43.000Z</time>
</trkpt>
<trkpt lat="46.1430150" lon="10.1502320">
	<ele>1424.40</ele>
	<time>2024-09-06T09:18:44.000Z</time>
</trkpt>
<trkpt lat="46.1430170" lon="10.1502150">
	<ele>1424.20</ele>
	<time>2024-09-06T09:18:45.000Z</time>
</trkpt>
<trkpt lat="46.1430220" lon="10.1501970">
	<ele>1423.80</ele>
	<time>2024-09-06T09:18:46.000Z</time>
</trkpt>
<trkpt lat="46.1430300" lon="10.1501870">
	<ele>1423.60</ele>
	<time>2024-09-06T09:18:47.000Z</time>
</trkpt>
<trkpt lat="46.1430340" lon="10.1501780">
	<ele>1423.20</ele>
	<time>2024-09-06T09:18:48.000Z</time>
</trkpt>
<trkpt lat="46.1430380" lon="10.1501620">
	<ele>1422.80</ele>
	<time>2024-09-06T09:18:49.000Z</time>
</trkpt>
<trkpt lat="46.1430410" lon="10.1501500">
	<ele>1422.60</ele>
	<time>2024-09-06T09:18:50.000Z</time>
</trkpt>
<trkpt lat="46.1430420" lon="10.1501290">
	<ele>1422.40</ele>
	<time>2024-09-06T09:18:51.000Z</time>
</trkpt>
<trkpt lat="46.1430440" lon="10.1501160">
	<ele>1422.00</ele>
	<time>2024-09-06T09:18:52.000Z</time>
</trkpt>
<trkpt lat="46.1430460" lon="10.1501000">
	<ele>1421.40</ele>
	<time>2024-09-06T09:18:53.000Z</time>
</trkpt>
<trkpt lat="46.1430500" lon="10.1500820">
	<ele>1421.00</ele>
	<time>2024-09-06T09:18:54.000Z</time>
</trkpt>
<trkpt lat="46.1430530" lon="10.1500600">
	<ele>1420.80</ele>
	<time>2024-09-06T09:18:55.000Z</time>
</trkpt>
<trkpt lat="46.1430500" lon="10.1500440">
	<ele>1420.60</ele>
	<time>2024-09-06T09:18:56.000Z</time>
</trkpt>
<trkpt lat="46.1430510" lon="10.1500240">
	<ele>1420.40</ele>
	<time>2024-09-06T09:18:57.000Z</time>
</trkpt>
<trkpt lat="46.1430510" lon="10.1500030">
	<ele>1420.20</ele>
	<time>2024-09-06T09:18:58.000Z</time>
</trkpt>
<trkpt lat="46.1430500" lon="10.1499850">
	<ele>1419.80</ele>
	<time>2024-09-06T09:18:59.000Z</time>
</trkpt>
<trkpt lat="46.1430410" lon="10.1499610">
	<ele>1419.60</ele>
	<time>2024-09-06T09:19:00.000Z</time>
</trkpt>
<trkpt lat="46.1430370" lon="10.1499420">
	<ele>1419.40</ele>
	<time>2024-09-06T09:19:01.000Z</time>
</trkpt>
<trkpt lat="46.1430370" lon="10.1499280">
	<ele>1418.80</ele>
	<time>2024-09-06T09:19:02.000Z</time>
</trkpt>
<trkpt lat="46.1430390" lon="10.1499220">
	<ele>1418.60</ele>
	<time>2024-09-06T09:19:03.000Z</time>
</trkpt>
<trkpt lat="46.1430460" lon="10.1499260">
	<ele>1418.20</ele>
	<time>2024-09-06T09:19:04.000Z</time>
</trkpt>
<trkpt lat="46.1430580" lon="10.1499240">
	<ele>1418.00</ele>
	<time>2024-09-06T09:19:05.000Z</time>
</trkpt>
<trkpt lat="46.1430680" lon="10.1499140">
	<ele>1417.80</ele>
	<time>2024-09-06T09:19:06.000Z</time>
</trkpt>
<trkpt lat="46.1430740" lon="10.1499000">
	<ele>1417.60</ele>
	<time>2024-09-06T09:19:07.000Z</time>
</trkpt>
<trkpt lat="46.1430760" lon="10.1498850">
	<ele>1417.20</ele>
	<time>2024-09-06T09:19:08.000Z</time>
</trkpt>
<trkpt lat="46.1430800" lon="10.1498660">
	<ele>1417.00</ele>
	<time>2024-09-06T09:19:09.000Z</time>
</trkpt>
<trkpt lat="46.1430830" lon="10.1498470">
	<ele>1416.80</ele>
	<time>2024-09-06T09:19:10.000Z</time>
</trkpt>
<trkpt lat="46.1430840" lon="10.1498310">
	<ele>1416.40</ele>
	<time>2024-09-06T09:19:11.000Z</time>
</trkpt>
<trkpt lat="46.1430880" lon="10.1498160">
	<ele>1416.00</ele>
	<time>2024-09-06T09:19:12.000Z</time>
</trkpt>
<trkpt lat="46.1430930" lon="10.1497990">
	<ele>1415.60</ele>
	<time>2024-09-06T09:19:13.000Z</time>
</trkpt>
<trkpt lat="46.1430950" lon="10.1497800">
	<ele>1415.40</ele>
	<time>2024-09-06T09:19:14.000Z</time>
</trkpt>
<trkpt lat="46.1430940" lon="10.1497620">
	<ele>1415.00</ele>
	<time>2024-09-06T09:19:15.000Z</time>
</trkpt>
<trkpt lat="46.1431060" lon="10.1497530">
	<ele>1414.80</ele>
	<time>2024-09-06T09:19:16.000Z</time>
</trkpt>
<trkpt lat="46.1431140" lon="10.1497450">
	<ele>1414.20</ele>
	<time>2024-09-06T09:19:17.000Z</time>
</trkpt>
<trkpt lat="46.1431250" lon="10.1497340">
	<ele>1413.60</ele>
	<time>2024-09-06T09:19:18.000Z</time>
</trkpt>
<trkpt lat="46.1431320" lon="10.1497210">
	<ele>1413.20</ele>
	<time>2024-09-06T09:19:19.000Z</time>
</trkpt>
<trkpt lat="46.1431420" lon="10.1497100">
	<ele>1412.60</ele>
	<time>2024-09-06T09:19:20.000Z</time>
</trkpt>
<trkpt lat="46.1431480" lon="10.1497000">
	<ele>1412.20</ele>
	<time>2024-09-06T09:19:21.000Z</time>
</trkpt>
<trkpt lat="46.1431560" lon="10.1496840">
	<ele>1411.80</ele>
	<time>2024-09-06T09:19:22.000Z</time>
</trkpt>
<trkpt lat="46.1431580" lon="10.1496690">
	<ele>1411.40</ele>
	<time>2024-09-06T09:19:23.000Z</time>
</trkpt>
<trkpt lat="46.1431610" lon="10.1496530">
	<ele>1411.00</ele>
	<time>2024-09-06T09:19:24.000Z</time>
</trkpt>
<trkpt lat="46.1431630" lon="10.1496380">
	<ele>1410.60</ele>
	<time>2024-09-06T09:19:25.000Z</time>
</trkpt>
<trkpt lat="46.1431680" lon="10.1496230">
	<ele>1410.20</ele>
	<time>2024-09-06T09:19:26.000Z</time>
</trkpt>
<trkpt lat="46.1431790" lon="10.1496120">
	<ele>1410.00</ele>
	<time>2024-09-06T09:19:27.000Z</time>
</trkpt>
<trkpt lat="46.1431900" lon="10.1496000">
	<ele>1409.80</ele>
	<time>2024-09-06T09:19:28.000Z</time>
</trkpt>
<trkpt lat="46.1431930" lon="10.1495890">
	<ele>1409.40</ele>
	<time>2024-09-06T09:19:29.000Z</time>
</trkpt>
<trkpt lat="46.1432010" lon="10.1495780">
	<ele>1408.80</ele>
	<time>2024-09-06T09:19:30.000Z</time>
</trkpt>
<trkpt lat="46.1432110" lon="10.1495630">
	<ele>1408.40</ele>
	<time>2024-09-06T09:19:31.000Z</time>
</trkpt>
<trkpt lat="46.1432140" lon="10.1495490">
	<ele>1407.80</ele>
	<time>2024-09-06T09:19:32.000Z</time>
</trkpt>
<trkpt lat="46.1432180" lon="10.1495380">
	<ele>1407.60</ele>
	<time>2024-09-06T09:19:33.000Z</time>
</trkpt>
<trkpt lat="46.1432240" lon="10.1495290">
	<ele>1407.20</ele>
	<time>2024-09-06T09:19:34.000Z</time>
</trkpt>
<trkpt lat="46.1432280" lon="10.1495180">
	<ele>1406.80</ele>
	<time>2024-09-06T09:19:35.000Z</time>
</trkpt>
<trkpt lat="46.1432300" lon="10.1495120">
	<ele>1406.60</ele>
	<time>2024-09-06T09:19:36.000Z</time>
</trkpt>
<trkpt lat="46.1432330" lon="10.1495130">
	<ele>1406.40</ele>
	<time>2024-09-06T09:19:37.000Z</time>
</trkpt>
<trkpt lat="46.1432330" lon="10.1495140">
	<ele>1406.40</ele>
	<time>2024-09-06T09:19:38.000Z</time>
</trkpt>
<trkpt lat="46.1432340" lon="10.1495150">
	<ele>1406.20</ele>
	<time>2024-09-06T09:19:39.000Z</time>
</trkpt>
<trkpt lat="46.1432340" lon="10.1495130">
	<ele>1406.20</ele>
	<time>2024-09-06T09:19:40.000Z</time>
</trkpt>
<trkpt lat="46.1432330" lon="10.1495110">
	<ele>1406.20</ele>
	<time>2024-09-06T09:19:41.000Z</time>
</trkpt>
<trkpt lat="46.1432270" lon="10.1495050">
	<ele>1406.20</ele>
	<time>2024-09-06T09:19:42.000Z</time>
</trkpt>
<trkpt lat="46.1432260" lon="10.1495040">
	<ele>1406.20</ele>
	<time>2024-09-06T09:19:43.000Z</time>
</trkpt>
<trkpt lat="46.1432260" lon="10.1495050">
	<ele>1406.20</ele>
	<time>2024-09-06T09:19:44.000Z</time>
</trkpt>
<trkpt lat="46.1432250" lon="10.1495060">
	<ele>1406.20</ele>
	<time>2024-09-06T09:19:45.000Z</time>
</trkpt>
<trkpt lat="46.1432250" lon="10.1495070">
	<ele>1406.00</ele>
	<time>2024-09-06T09:19:46.000Z</time>
</trkpt>
<trkpt lat="46.1432250" lon="10.1495070">
	<ele>1406.00</ele>
	<time>2024-09-06T09:19:47.000Z</time>
</trkpt>
<trkpt lat="46.1432250" lon="10.1495070">
	<ele>1406.00</ele>
	<time>2024-09-06T09:19:48.000Z</time>
</trkpt>
<trkpt lat="46.1432250" lon="10.1495070">
	<ele>1406.00</ele>
	<time>2024-09-06T09:19:49.000Z</time>
</trkpt>
<trkpt lat="46.1432250" lon="10.1495070">
	<ele>1405.80</ele>
	<time>2024-09-06T09:19:50.000Z</time>
</trkpt>
<trkpt lat="46.1432250" lon="10.1495070">
	<ele>1405.80</ele>
	<time>2024-09-06T09:19:51.000Z</time>
</trkpt>
<trkpt lat="46.1432250" lon="10.1495070">
	<ele>1405.80</ele>
	<time>2024-09-06T09:19:52.000Z</time>
</trkpt>
<trkpt lat="46.1432250" lon="10.1495070">
	<ele>1405.60</ele>
	<time>2024-09-06T09:19:53.000Z</time>
</trkpt>
<trkpt lat="46.1432260" lon="10.1495010">
	<ele>1405.40</ele>
	<time>2024-09-06T09:19:54.000Z</time>
</trkpt>
<trkpt lat="46.1432270" lon="10.1494820">
	<ele>1405.00</ele>
	<time>2024-09-06T09:19:55.000Z</time>
</trkpt>
<trkpt lat="46.1432340" lon="10.1494640">
	<ele>1404.80</ele>
	<time>2024-09-06T09:19:56.000Z</time>
</trkpt>
<trkpt lat="46.1432380" lon="10.1494410">
	<ele>1404.80</ele>
	<time>2024-09-06T09:19:57.000Z</time>
</trkpt>
<trkpt lat="46.1432430" lon="10.1494220">
	<ele>1404.60</ele>
	<time>2024-09-06T09:19:58.000Z</time>
</trkpt>
<trkpt lat="46.1432500" lon="10.1494050">
	<ele>1404.40</ele>
	<time>2024-09-06T09:19:59.000Z</time>
</trkpt>
<trkpt lat="46.1432560" lon="10.1493850">
	<ele>1404.20</ele>
	<time>2024-09-06T09:20:00.000Z</time>
</trkpt>
<trkpt lat="46.1432590" lon="10.1493580">
	<ele>1404.00</ele>
	<time>2024-09-06T09:20:01.000Z</time>
</trkpt>
<trkpt lat="46.1432640" lon="10.1493350">
	<ele>1403.80</ele>
	<time>2024-09-06T09:20:02.000Z</time>
</trkpt>
<trkpt lat="46.1432700" lon="10.1493130">
	<ele>1403.40</ele>
	<time>2024-09-06T09:20:03.000Z</time>
</trkpt>
<trkpt lat="46.1432780" lon="10.1492990">
	<ele>1403.20</ele>
	<time>2024-09-06T09:20:04.000Z</time>
</trkpt>
<trkpt lat="46.1432870" lon="10.1492880">
	<ele>1402.80</ele>
	<time>2024-09-06T09:20:05.000Z</time>
</trkpt>
<trkpt lat="46.1432950" lon="10.1492760">
	<ele>1402.60</ele>
	<time>2024-09-06T09:20:06.000Z</time>
</trkpt>
<trkpt lat="46.1433050" lon="10.1492650">
	<ele>1402.20</ele>
	<time>2024-09-06T09:20:07.000Z</time>
</trkpt>
<trkpt lat="46.1433150" lon="10.1492550">
	<ele>1401.80</ele>
	<time>2024-09-06T09:20:08.000Z</time>
</trkpt>
<trkpt lat="46.1433250" lon="10.1492450">
	<ele>1401.60</ele>
	<time>2024-09-06T09:20:09.000Z</time>
</trkpt>
<trkpt lat="46.1433360" lon="10.1492350">
	<ele>1401.40</ele>
	<time>2024-09-06T09:20:10.000Z</time>
</trkpt>
<trkpt lat="46.1433440" lon="10.1492250">
	<ele>1401.00</ele>
	<time>2024-09-06T09:20:11.000Z</time>
</trkpt>
<trkpt lat="46.1433530" lon="10.1492190">
	<ele>1400.60</ele>
	<time>2024-09-06T09:20:12.000Z</time>
</trkpt>
<trkpt lat="46.1433640" lon="10.1492120">
	<ele>1400.20</ele>
	<time>2024-09-06T09:20:13.000Z</time>
</trkpt>
<trkpt lat="46.1433750" lon="10.1492040">
	<ele>1400.00</ele>
	<time>2024-09-06T09:20:14.000Z</time>
</trkpt>
<trkpt lat="46.1433840" lon="10.1491960">
	<ele>1399.60</ele>
	<time>2024-09-06T09:20:15.000Z</time>
</trkpt>
<trkpt lat="46.1433940" lon="10.1491850">
	<ele>1399.20</ele>
	<time>2024-09-06T09:20:16.000Z</time>
</trkpt>
<trkpt lat="46.1434010" lon="10.1491760">
	<ele>1399.00</ele>
	<time>2024-09-06T09:20:17.000Z</time>
</trkpt>
<trkpt lat="46.1434120" lon="10.1491690">
	<ele>1398.80</ele>
	<time>2024-09-06T09:20:18.000Z</time>
</trkpt>
<trkpt lat="46.1434200" lon="10.1491610">
	<ele>1398.40</ele>
	<time>2024-09-06T09:20:19.000Z</time>
</trkpt>
<trkpt lat="46.1434290" lon="10.1491590">
	<ele>1398.20</ele>
	<time>2024-09-06T09:20:20.000Z</time>
</trkpt>
<trkpt lat="46.1434400" lon="10.1491560">
	<ele>1398.00</ele>
	<time>2024-09-06T09:20:21.000Z</time>
</trkpt>
<trkpt lat="46.1434480" lon="10.1491550">
	<ele>1397.60</ele>
	<time>2024-09-06T09:20:22.000Z</time>
</trkpt>
<trkpt lat="46.1434590" lon="10.1491550">
	<ele>1397.40</ele>
	<time>2024-09-06T09:20:23.000Z</time>
</trkpt>
<trkpt lat="46.1434710" lon="10.1491520">
	<ele>1397.20</ele>
	<time>2024-09-06T09:20:24.000Z</time>
</trkpt>
<trkpt lat="46.1434820" lon="10.1491480">
	<ele>1397.20</ele>
	<time>2024-09-06T09:20:25.000Z</time>
</trkpt>
<trkpt lat="46.1434940" lon="10.1491450">
	<ele>1396.60</ele>
	<time>2024-09-06T09:20:26.000Z</time>
</trkpt>
<trkpt lat="46.1435090" lon="10.1491440">
	<ele>1396.20</ele>
	<time>2024-09-06T09:20:27.000Z</time>
</trkpt>
<trkpt lat="46.1435230" lon="10.1491420">
	<ele>1395.80</ele>
	<time>2024-09-06T09:20:28.000Z</time>
</trkpt>
<trkpt lat="46.1435350" lon="10.1491440">
	<ele>1395.60</ele>
	<time>2024-09-06T09:20:29.000Z</time>
</trkpt>
<trkpt lat="46.1435440" lon="10.1491520">
	<ele>1395.20</ele>
	<time>2024-09-06T09:20:30.000Z</time>
</trkpt>
<trkpt lat="46.1435530" lon="10.1491580">
	<ele>1394.80</ele>
	<time>2024-09-06T09:20:31.000Z</time>
</trkpt>
<trkpt lat="46.1435670" lon="10.1491630">
	<ele>1394.40</ele>
	<time>2024-09-06T09:20:32.000Z</time>
</trkpt>
<trkpt lat="46.1435780" lon="10.1491710">
	<ele>1394.40</ele>
	<time>2024-09-06T09:20:33.000Z</time>
</trkpt>
<trkpt lat="46.1435920" lon="10.1491790">
	<ele>1394.00</ele>
	<time>2024-09-06T09:20:34.000Z</time>
</trkpt>
<trkpt lat="46.1436030" lon="10.1491860">
	<ele>1393.60</ele>
	<time>2024-09-06T09:20:35.000Z</time>
</trkpt>
<trkpt lat="46.1436160" lon="10.1491930">
	<ele>1393.20</ele>
	<time>2024-09-06T09:20:36.000Z</time>
</trkpt>
<trkpt lat="46.1436260" lon="10.1491990">
	<ele>1392.80</ele>
	<time>2024-09-06T09:20:37.000Z</time>
</trkpt>
<trkpt lat="46.1436400" lon="10.1492000">
	<ele>1392.60</ele>
	<time>2024-09-06T09:20:38.000Z</time>
</trkpt>
<trkpt lat="46.1436520" lon="10.1492000">
	<ele>1392.00</ele>
	<time>2024-09-06T09:20:39.000Z</time>
</trkpt>
<trkpt lat="46.1436630" lon="10.1492040">
	<ele>1391.80</ele>
	<time>2024-09-06T09:20:40.000Z</time>
</trkpt>
<trkpt lat="46.1436760" lon="10.1492080">
	<ele>1391.40</ele>
	<time>2024-09-06T09:20:41.000Z</time>
</trkpt>
<trkpt lat="46.1436880" lon="10.1492090">
	<ele>1390.80</ele>
	<time>2024-09-06T09:20:42.000Z</time>
</trkpt>
<trkpt lat="46.1436990" lon="10.1492150">
	<ele>1390.60</ele>
	<time>2024-09-06T09:20:43.000Z</time>
</trkpt>
<trkpt lat="46.1437130" lon="10.1492220">
	<ele>1390.20</ele>
	<time>2024-09-06T09:20:44.000Z</time>
</trkpt>
<trkpt lat="46.1437230" lon="10.1492270">
	<ele>1390.00</ele>
	<time>2024-09-06T09:20:45.000Z</time>
</trkpt>
<trkpt lat="46.1437380" lon="10.1492320">
	<ele>1389.80</ele>
	<time>2024-09-06T09:20:46.000Z</time>
</trkpt>
<trkpt lat="46.1437480" lon="10.1492390">
	<ele>1389.40</ele>
	<time>2024-09-06T09:20:47.000Z</time>
</trkpt>
<trkpt lat="46.1437580" lon="10.1492440">
	<ele>1389.40</ele>
	<time>2024-09-06T09:20:48.000Z</time>
</trkpt>
<trkpt lat="46.1437700" lon="10.1492470">
	<ele>1389.20</ele>
	<time>2024-09-06T09:20:49.000Z</time>
</trkpt>
<trkpt lat="46.1437860" lon="10.1492460">
	<ele>1389.00</ele>
	<time>2024-09-06T09:20:50.000Z</time>
</trkpt>
<trkpt lat="46.1438020" lon="10.1492460">
	<ele>1388.80</ele>
	<time>2024-09-06T09:20:51.000Z</time>
</trkpt>
<trkpt lat="46.1438150" lon="10.1492500">
	<ele>1388.60</ele>
	<time>2024-09-06T09:20:52.000Z</time>
</trkpt>
<trkpt lat="46.1438280" lon="10.1492530">
	<ele>1388.20</ele>
	<time>2024-09-06T09:20:53.000Z</time>
</trkpt>
<trkpt lat="46.1438400" lon="10.1492570">
	<ele>1388.00</ele>
	<time>2024-09-06T09:20:54.000Z</time>
</trkpt>
<trkpt lat="46.1438530" lon="10.1492620">
	<ele>1387.60</ele>
	<time>2024-09-06T09:20:55.000Z</time>
</trkpt>
<trkpt lat="46.1438660" lon="10.1492630">
	<ele>1387.40</ele>
	<time>2024-09-06T09:20:56.000Z</time>
</trkpt>
<trkpt lat="46.1438770" lon="10.1492580">
	<ele>1387.20</ele>
	<time>2024-09-06T09:20:57.000Z</time>
</trkpt>
<trkpt lat="46.1438890" lon="10.1492440">
	<ele>1387.00</ele>
	<time>2024-09-06T09:20:58.000Z</time>
</trkpt>
<trkpt lat="46.1439040" lon="10.1492320">
	<ele>1386.60</ele>
	<time>2024-09-06T09:20:59.000Z</time>
</trkpt>
<trkpt lat="46.1439240" lon="10.1492410">
	<ele>1386.40</ele>
	<time>2024-09-06T09:21:00.000Z</time>
</trkpt>
<trkpt lat="46.1439440" lon="10.1492510">
	<ele>1386.00</ele>
	<time>2024-09-06T09:21:01.000Z</time>
</trkpt>
<trkpt lat="46.1439590" lon="10.1492570">
	<ele>1386.00</ele>
	<time>2024-09-06T09:21:02.000Z</time>
</trkpt>
<trkpt lat="46.1439730" lon="10.1492580">
	<ele>1385.80</ele>
	<time>2024-09-06T09:21:03.000Z</time>
</trkpt>
<trkpt lat="46.1439880" lon="10.1492600">
	<ele>1385.40</ele>
	<time>2024-09-06T09:21:04.000Z</time>
</trkpt>
<trkpt lat="46.1440010" lon="10.1492610">
	<ele>1385.20</ele>
	<time>2024-09-06T09:21:05.000Z</time>
</trkpt>
<trkpt lat="46.1440150" lon="10.1492650">
	<ele>1385.00</ele>
	<time>2024-09-06T09:21:06.000Z</time>
</trkpt>
<trkpt lat="46.1440280" lon="10.1492670">
	<ele>1384.60</ele>
	<time>2024-09-06T09:21:07.000Z</time>
</trkpt>
<trkpt lat="46.1440420" lon="10.1492710">
	<ele>1384.40</ele>
	<time>2024-09-06T09:21:08.000Z</time>
</trkpt>
<trkpt lat="46.1440540" lon="10.1492730">
	<ele>1384.20</ele>
	<time>2024-09-06T09:21:09.000Z</time>
</trkpt>
<trkpt lat="46.1440660" lon="10.1492730">
	<ele>1383.80</ele>
	<time>2024-09-06T09:21:10.000Z</time>
</trkpt>
<trkpt lat="46.1440780" lon="10.1492750">
	<ele>1383.60</ele>
	<time>2024-09-06T09:21:11.000Z</time>
</trkpt>
<trkpt lat="46.1440950" lon="10.1492800">
	<ele>1383.20</ele>
	<time>2024-09-06T09:21:12.000Z</time>
</trkpt>
<trkpt lat="46.1441060" lon="10.1492840">
	<ele>1383.00</ele>
	<time>2024-09-06T09:21:13.000Z</time>
</trkpt>
<trkpt lat="46.1441190" lon="10.1492860">
	<ele>1382.60</ele>
	<time>2024-09-06T09:21:14.000Z</time>
</trkpt>
<trkpt lat="46.1441300" lon="10.1492850">
	<ele>1382.40</ele>
	<time>2024-09-06T09:21:15.000Z</time>
</trkpt>
<trkpt lat="46.1441420" lon="10.1492870">
	<ele>1382.20</ele>
	<time>2024-09-06T09:21:16.000Z</time>
</trkpt>
<trkpt lat="46.1441560" lon="10.1492910">
	<ele>1382.00</ele>
	<time>2024-09-06T09:21:17.000Z</time>
</trkpt>
<trkpt lat="46.1441670" lon="10.1492940">
	<ele>1381.60</ele>
	<time>2024-09-06T09:21:18.000Z</time>
</trkpt>
<trkpt lat="46.1441770" lon="10.1492950">
	<ele>1381.40</ele>
	<time>2024-09-06T09:21:19.000Z</time>
</trkpt>
<trkpt lat="46.1441860" lon="10.1493000">
	<ele>1381.20</ele>
	<time>2024-09-06T09:21:20.000Z</time>
</trkpt>
<trkpt lat="46.1441920" lon="10.1493020">
	<ele>1380.80</ele>
	<time>2024-09-06T09:21:21.000Z</time>
</trkpt>
<trkpt lat="46.1442000" lon="10.1493020">
	<ele>1380.60</ele>
	<time>2024-09-06T09:21:22.000Z</time>
</trkpt>
<trkpt lat="46.1442100" lon="10.1493010">
	<ele>1380.40</ele>
	<time>2024-09-06T09:21:23.000Z</time>
</trkpt>
<trkpt lat="46.1442190" lon="10.1493030">
	<ele>1380.00</ele>
	<time>2024-09-06T09:21:24.000Z</time>
</trkpt>
<trkpt lat="46.1442290" lon="10.1493070">
	<ele>1379.80</ele>
	<time>2024-09-06T09:21:25.000Z</time>
</trkpt>
<trkpt lat="46.1442380" lon="10.1493080">
	<ele>1379.40</ele>
	<time>2024-09-06T09:21:26.000Z</time>
</trkpt>
<trkpt lat="46.1442470" lon="10.1493100">
	<ele>1379.20</ele>
	<time>2024-09-06T09:21:27.000Z</time>
</trkpt>
<trkpt lat="46.1442590" lon="10.1493160">
	<ele>1378.80</ele>
	<time>2024-09-06T09:21:28.000Z</time>
</trkpt>
<trkpt lat="46.1442650" lon="10.1493270">
	<ele>1378.40</ele>
	<time>2024-09-06T09:21:29.000Z</time>
</trkpt>
<trkpt lat="46.1442710" lon="10.1493330">
	<ele>1378.20</ele>
	<time>2024-09-06T09:21:30.000Z</time>
</trkpt>
<trkpt lat="46.1442720" lon="10.1493320">
	<ele>1378.00</ele>
	<time>2024-09-06T09:21:31.000Z</time>
</trkpt>
<trkpt lat="46.1442870" lon="10.1493410">
	<ele>1377.80</ele>
	<time>2024-09-06T09:21:32.000Z</time>
</trkpt>
<trkpt lat="46.1442950" lon="10.1493430">
	<ele>1377.40</ele>
	<time>2024-09-06T09:21:33.000Z</time>
</trkpt>
<trkpt lat="46.1443050" lon="10.1493400">
	<ele>1377.20</ele>
	<time>2024-09-06T09:21:34.000Z</time>
</trkpt>
<trkpt lat="46.1443100" lon="10.1493380">
	<ele>1376.80</ele>
	<time>2024-09-06T09:21:35.000Z</time>
</trkpt>
<trkpt lat="46.1443110" lon="10.1493360">
	<ele>1376.60</ele>
	<time>2024-09-06T09:21:36.000Z</time>
</trkpt>
<trkpt lat="46.1443100" lon="10.1493360">
	<ele>1376.20</ele>
	<time>2024-09-06T09:21:37.000Z</time>
</trkpt>
<trkpt lat="46.1443080" lon="10.1493380">
	<ele>1376.00</ele>
	<time>2024-09-06T09:21:38.000Z</time>
</trkpt>
<trkpt lat="46.1443070" lon="10.1493390">
	<ele>1375.80</ele>
	<time>2024-09-06T09:21:39.000Z</time>
</trkpt>
<trkpt lat="46.1443080" lon="10.1493400">
	<ele>1375.60</ele>
	<time>2024-09-06T09:21:40.000Z</time>
</trkpt>
<trkpt lat="46.1443090" lon="10.1493400">
	<ele>1375.60</ele>
	<time>2024-09-06T09:21:41.000Z</time>
</trkpt>
<trkpt lat="46.1443100" lon="10.1493410">
	<ele>1375.60</ele>
	<time>2024-09-06T09:21:42.000Z</time>
</trkpt>
<trkpt lat="46.1443100" lon="10.1493410">
	<ele>1375.60</ele>
	<time>2024-09-06T09:21:43.000Z</time>
</trkpt>
<trkpt lat="46.1443110" lon="10.1493420">
	<ele>1375.60</ele>
	<time>2024-09-06T09:21:44.000Z</time>
</trkpt>
<trkpt lat="46.1443130" lon="10.1493450">
	<ele>1375.60</ele>
	<time>2024-09-06T09:21:45.000Z</time>
</trkpt>
<trkpt lat="46.1443160" lon="10.1493540">
	<ele>1375.60</ele>
	<time>2024-09-06T09:21:46.000Z</time>
</trkpt>
<trkpt lat="46.1443170" lon="10.1493630">
	<ele>1375.60</ele>
	<time>2024-09-06T09:21:47.000Z</time>
</trkpt>
<trkpt lat="46.1443190" lon="10.1493650">
	<ele>1375.60</ele>
	<time>2024-09-06T09:21:48.000Z</time>
</trkpt>
<trkpt lat="46.1443200" lon="10.1493620">
	<ele>1375.60</ele>
	<time>2024-09-06T09:21:49.000Z</time>
</trkpt>
<trkpt lat="46.1443250" lon="10.1493590">
	<ele>1375.60</ele>
	<time>2024-09-06T09:21:50.000Z</time>
</trkpt>
<trkpt lat="46.1443310" lon="10.1493560">
	<ele>1375.60</ele>
	<time>2024-09-06T09:21:51.000Z</time>
</trkpt>
<trkpt lat="46.1443390" lon="10.1493510">
	<ele>1375.40</ele>
	<time>2024-09-06T09:21:52.000Z</time>
</trkpt>
<trkpt lat="46.1443500" lon="10.1493440">
	<ele>1375.20</ele>
	<time>2024-09-06T09:21:53.000Z</time>
</trkpt>
<trkpt lat="46.1443600" lon="10.1493410">
	<ele>1375.00</ele>
	<time>2024-09-06T09:21:54.000Z</time>
</trkpt>
<trkpt lat="46.1443710" lon="10.1493370">
	<ele>1374.80</ele>
	<time>2024-09-06T09:21:55.000Z</time>
</trkpt>
<trkpt lat="46.1443860" lon="10.1493330">
	<ele>1374.60</ele>
	<time>2024-09-06T09:21:56.000Z</time>
</trkpt>
<trkpt lat="46.1443960" lon="10.1493280">
	<ele>1374.40</ele>
	<time>2024-09-06T09:21:57.000Z</time>
</trkpt>
<trkpt lat="46.1444070" lon="10.1493210">
	<ele>1374.20</ele>
	<time>2024-09-06T09:21:58.000Z</time>
</trkpt>
<trkpt lat="46.1444220" lon="10.1493170">
	<ele>1374.00</ele>
	<time>2024-09-06T09:21:59.000Z</time>
</trkpt>
<trkpt lat="46.1444290" lon="10.1493120">
	<ele>1373.80</ele>
	<time>2024-09-06T09:22:00.000Z</time>
</trkpt>
<trkpt lat="46.1444420" lon="10.1493070">
	<ele>1373.40</ele>
	<time>2024-09-06T09:22:01.000Z</time>
</trkpt>
<trkpt lat="46.1444550" lon="10.1493010">
	<ele>1373.00</ele>
	<time>2024-09-06T09:22:02.000Z</time>
</trkpt>
<trkpt lat="46.1444700" lon="10.1492960">
	<ele>1372.80</ele>
	<time>2024-09-06T09:22:03.000Z</time>
</trkpt>
<trkpt lat="46.1444840" lon="10.1492910">
	<ele>1372.40</ele>
	<time>2024-09-06T09:22:04.000Z</time>
</trkpt>
<trkpt lat="46.1444990" lon="10.1492900">
	<ele>1372.20</ele>
	<time>2024-09-06T09:22:05.000Z</time>
</trkpt>
<trkpt lat="46.1445100" lon="10.1492920">
	<ele>1372.00</ele>
	<time>2024-09-06T09:22:06.000Z</time>
</trkpt>
<trkpt lat="46.1445230" lon="10.1492970">
	<ele>1371.60</ele>
	<time>2024-09-06T09:22:07.000Z</time>
</trkpt>
<trkpt lat="46.1445360" lon="10.1493010">
	<ele>1371.20</ele>
	<time>2024-09-06T09:22:08.000Z</time>
</trkpt>
<trkpt lat="46.1445480" lon="10.1493060">
	<ele>1371.00</ele>
	<time>2024-09-06T09:22:09.000Z</time>
</trkpt>
<trkpt lat="46.1445600" lon="10.1493130">
	<ele>1370.80</ele>
	<time>2024-09-06T09:22:10.000Z</time>
</trkpt>
<trkpt lat="46.1445720" lon="10.1493180">
	<ele>1370.60</ele>
	<time>2024-09-06T09:22:11.000Z</time>
</trkpt>
<trkpt lat="46.1445840" lon="10.1493220">
	<ele>1370.40</ele>
	<time>2024-09-06T09:22:12.000Z</time>
</trkpt>
<trkpt lat="46.1445960" lon="10.1493290">
	<ele>1370.20</ele>
	<time>2024-09-06T09:22:13.000Z</time>
</trkpt>
<trkpt lat="46.1446060" lon="10.1493350">
	<ele>1370.00</ele>
	<time>2024-09-06T09:22:14.000Z</time>
</trkpt>
<trkpt lat="46.1446150" lon="10.1493390">
	<ele>1369.80</ele>
	<time>2024-09-06T09:22:15.000Z</time>
</trkpt>
<trkpt lat="46.1446270" lon="10.1493430">
	<ele>1369.60</ele>
	<time>2024-09-06T09:22:16.000Z</time>
</trkpt>
<trkpt lat="46.1446390" lon="10.1493480">
	<ele>1369.20</ele>
	<time>2024-09-06T09:22:17.000Z</time>
</trkpt>
<trkpt lat="46.1446490" lon="10.1493530">
	<ele>1369.00</ele>
	<time>2024-09-06T09:22:18.000Z</time>
</trkpt>
<trkpt lat="46.1446590" lon="10.1493570">
	<ele>1368.80</ele>
	<time>2024-09-06T09:22:19.000Z</time>
</trkpt>
<trkpt lat="46.1446680" lon="10.1493620">
	<ele>1368.60</ele>
	<time>2024-09-06T09:22:20.000Z</time>
</trkpt>
<trkpt lat="46.1446780" lon="10.1493710">
	<ele>1368.40</ele>
	<time>2024-09-06T09:22:21.000Z</time>
</trkpt>
<trkpt lat="46.1446860" lon="10.1493740">
	<ele>1368.20</ele>
	<time>2024-09-06T09:22:22.000Z</time>
</trkpt>
<trkpt lat="46.1446950" lon="10.1493760">
	<ele>1368.00</ele>
	<time>2024-09-06T09:22:23.000Z</time>
</trkpt>
<trkpt lat="46.1447050" lon="10.1493780">
	<ele>1367.80</ele>
	<time>2024-09-06T09:22:24.000Z</time>
</trkpt>
<trkpt lat="46.1447150" lon="10.1493830">
	<ele>1367.60</ele>
	<time>2024-09-06T09:22:25.000Z</time>
</trkpt>
<trkpt lat="46.1447250" lon="10.1493860">
	<ele>1367.20</ele>
	<time>2024-09-06T09:22:26.000Z</time>
</trkpt>
<trkpt lat="46.1447350" lon="10.1493900">
	<ele>1367.00</ele>
	<time>2024-09-06T09:22:27.000Z</time>
</trkpt>
<trkpt lat="46.1447480" lon="10.1493940">
	<ele>1366.60</ele>
	<time>2024-09-06T09:22:28.000Z</time>
</trkpt>
<trkpt lat="46.1447630" lon="10.1494000">
	<ele>1366.60</ele>
	<time>2024-09-06T09:22:29.000Z</time>
</trkpt>
<trkpt lat="46.1447750" lon="10.1494080">
	<ele>1366.40</ele>
	<time>2024-09-06T09:22:30.000Z</time>
</trkpt>
<trkpt lat="46.1447860" lon="10.1494140">
	<ele>1366.20</ele>
	<time>2024-09-06T09:22:31.000Z</time>
</trkpt>
<trkpt lat="46.1447980" lon="10.1494220">
	<ele>1366.00</ele>
	<time>2024-09-06T09:22:32.000Z</time>
</trkpt>
<trkpt lat="46.1448090" lon="10.1494280">
	<ele>1365.80</ele>
	<time>2024-09-06T09:22:33.000Z</time>
</trkpt>
<trkpt lat="46.1448230" lon="10.1494370">
	<ele>1365.40</ele>
	<time>2024-09-06T09:22:34.000Z</time>
</trkpt>
<trkpt lat="46.1448360" lon="10.1494490">
	<ele>1365.20</ele>
	<time>2024-09-06T09:22:35.000Z</time>
</trkpt>
<trkpt lat="46.1448500" lon="10.1494600">
	<ele>1365.00</ele>
	<time>2024-09-06T09:22:36.000Z</time>
</trkpt>
<trkpt lat="46.1448600" lon="10.1494670">
	<ele>1364.80</ele>
	<time>2024-09-06T09:22:37.000Z</time>
</trkpt>
<trkpt lat="46.1448700" lon="10.1494730">
	<ele>1364.60</ele>
	<time>2024-09-06T09:22:38.000Z</time>
</trkpt>
<trkpt lat="46.1448820" lon="10.1494770">
	<ele>1364.20</ele>
	<time>2024-09-06T09:22:39.000Z</time>
</trkpt>
<trkpt lat="46.1448930" lon="10.1494760">
	<ele>1364.00</ele>
	<time>2024-09-06T09:22:40.000Z</time>
</trkpt>
<trkpt lat="46.1449050" lon="10.1494700">
	<ele>1363.60</ele>
	<time>2024-09-06T09:22:41.000Z</time>
</trkpt>
<trkpt lat="46.1449170" lon="10.1494640">
	<ele>1363.40</ele>
	<time>2024-09-06T09:22:42.000Z</time>
</trkpt>
<trkpt lat="46.1449280" lon="10.1494540">
	<ele>1363.20</ele>
	<time>2024-09-06T09:22:43.000Z</time>
</trkpt>
<trkpt lat="46.1449380" lon="10.1494430">
	<ele>1363.20</ele>
	<time>2024-09-06T09:22:44.000Z</time>
</trkpt>
<trkpt lat="46.1449500" lon="10.1494330">
	<ele>1362.80</ele>
	<time>2024-09-06T09:22:45.000Z</time>
</trkpt>
<trkpt lat="46.1449580" lon="10.1494170">
	<ele>1362.60</ele>
	<time>2024-09-06T09:22:46.000Z</time>
</trkpt>
<trkpt lat="46.1449620" lon="10.1493990">
	<ele>1362.40</ele>
	<time>2024-09-06T09:22:47.000Z</time>
</trkpt>
<trkpt lat="46.1449600" lon="10.1493780">
	<ele>1362.40</ele>
	<time>2024-09-06T09:22:48.000Z</time>
</trkpt>
<trkpt lat="46.1449570" lon="10.1493600">
	<ele>1362.20</ele>
	<time>2024-09-06T09:22:49.000Z</time>
</trkpt>
<trkpt lat="46.1449550" lon="10.1493410">
	<ele>1362.00</ele>
	<time>2024-09-06T09:22:50.000Z</time>
</trkpt>
<trkpt lat="46.1449550" lon="10.1493200">
	<ele>1362.00</ele>
	<time>2024-09-06T09:22:51.000Z</time>
</trkpt>
<trkpt lat="46.1449530" lon="10.1493010">
	<ele>1361.60</ele>
	<time>2024-09-06T09:22:52.000Z</time>
</trkpt>
<trkpt lat="46.1449480" lon="10.1492830">
	<ele>1361.40</ele>
	<time>2024-09-06T09:22:53.000Z</time>
</trkpt>
<trkpt lat="46.1449480" lon="10.1492650">
	<ele>1361.00</ele>
	<time>2024-09-06T09:22:54.000Z</time>
</trkpt>
<trkpt lat="46.1449480" lon="10.1492480">
	<ele>1360.80</ele>
	<time>2024-09-06T09:22:55.000Z</time>
</trkpt>
<trkpt lat="46.1449510" lon="10.1492330">
	<ele>1360.40</ele>
	<time>2024-09-06T09:22:56.000Z</time>
</trkpt>
<trkpt lat="46.1449520" lon="10.1492180">
	<ele>1360.40</ele>
	<time>2024-09-06T09:22:57.000Z</time>
</trkpt>
<trkpt lat="46.1449540" lon="10.1492100">
	<ele>1360.20</ele>
	<time>2024-09-06T09:22:58.000Z</time>
</trkpt>
<trkpt lat="46.1449550" lon="10.1492080">
	<ele>1360.20</ele>
	<time>2024-09-06T09:22:59.000Z</time>
</trkpt>
<trkpt lat="46.1449550" lon="10.1492070">
	<ele>1360.00</ele>
	<time>2024-09-06T09:23:00.000Z</time>
</trkpt>
<trkpt lat="46.1449550" lon="10.1492060">
	<ele>1360.00</ele>
	<time>2024-09-06T09:23:01.000Z</time>
</trkpt>
<trkpt lat="46.1449550" lon="10.1492030">
	<ele>1359.80</ele>
	<time>2024-09-06T09:23:02.000Z</time>
</trkpt>
<trkpt lat="46.1449600" lon="10.1491930">
	<ele>1359.80</ele>
	<time>2024-09-06T09:23:03.000Z</time>
</trkpt>
<trkpt lat="46.1449620" lon="10.1491840">
	<ele>1359.80</ele>
	<time>2024-09-06T09:23:04.000Z</time>
</trkpt>
<trkpt lat="46.1449630" lon="10.1491730">
	<ele>1359.80</ele>
	<time>2024-09-06T09:23:05.000Z</time>
</trkpt>
<trkpt lat="46.1449600" lon="10.1491610">
	<ele>1359.60</ele>
	<time>2024-09-06T09:23:06.000Z</time>
</trkpt>
<trkpt lat="46.1449570" lon="10.1491510">
	<ele>1359.60</ele>
	<time>2024-09-06T09:23:07.000Z</time>
</trkpt>
<trkpt lat="46.1449590" lon="10.1491420">
	<ele>1359.60</ele>
	<time>2024-09-06T09:23:08.000Z</time>
</trkpt>
<trkpt lat="46.1449600" lon="10.1491290">
	<ele>1359.60</ele>
	<time>2024-09-06T09:23:09.000Z</time>
</trkpt>
<trkpt lat="46.1449610" lon="10.1491190">
	<ele>1359.40</ele>
	<time>2024-09-06T09:23:10.000Z</time>
</trkpt>
<trkpt lat="46.1449610" lon="10.1491030">
	<ele>1359.20</ele>
	<time>2024-09-06T09:23:11.000Z</time>
</trkpt>
<trkpt lat="46.1449610" lon="10.1490860">
	<ele>1359.00</ele>
	<time>2024-09-06T09:23:12.000Z</time>
</trkpt>
<trkpt lat="46.1449540" lon="10.1490790">
	<ele>1359.00</ele>
	<time>2024-09-06T09:23:13.000Z</time>
</trkpt>
<trkpt lat="46.1449470" lon="10.1490650">
	<ele>1358.80</ele>
	<time>2024-09-06T09:23:14.000Z</time>
</trkpt>
<trkpt lat="46.1449400" lon="10.1490560">
	<ele>1358.80</ele>
	<time>2024-09-06T09:23:15.000Z</time>
</trkpt>
<trkpt lat="46.1449400" lon="10.1490450">
	<ele>1358.80</ele>
	<time>2024-09-06T09:23:16.000Z</time>
</trkpt>
<trkpt lat="46.1449400" lon="10.1490330">
	<ele>1358.60</ele>
	<time>2024-09-06T09:23:17.000Z</time>
</trkpt>
<trkpt lat="46.1449390" lon="10.1490210">
	<ele>1358.40</ele>
	<time>2024-09-06T09:23:18.000Z</time>
</trkpt>
<trkpt lat="46.1449380" lon="10.1490050">
	<ele>1358.20</ele>
	<time>2024-09-06T09:23:19.000Z</time>
</trkpt>
<trkpt lat="46.1449370" lon="10.1489910">
	<ele>1358.00</ele>
	<time>2024-09-06T09:23:20.000Z</time>
</trkpt>
<trkpt lat="46.1449340" lon="10.1489760">
	<ele>1357.80</ele>
	<time>2024-09-06T09:23:21.000Z</time>
</trkpt>
<trkpt lat="46.1449310" lon="10.1489590">
	<ele>1357.80</ele>
	<time>2024-09-06T09:23:22.000Z</time>
</trkpt>
<trkpt lat="46.1449260" lon="10.1489410">
	<ele>1357.60</ele>
	<time>2024-09-06T09:23:23.000Z</time>
</trkpt>
<trkpt lat="46.1449220" lon="10.1489280">
	<ele>1357.40</ele>
	<time>2024-09-06T09:23:24.000Z</time>
</trkpt>
<trkpt lat="46.1449190" lon="10.1489140">
	<ele>1357.20</ele>
	<time>2024-09-06T09:23:25.000Z</time>
</trkpt>
<trkpt lat="46.1449150" lon="10.1488990">
	<ele>1357.00</ele>
	<time>2024-09-06T09:23:26.000Z</time>
</trkpt>
<trkpt lat="46.1449120" lon="10.1488830">
	<ele>1356.80</ele>
	<time>2024-09-06T09:23:27.000Z</time>
</trkpt>
<trkpt lat="46.1449090" lon="10.1488690">
	<ele>1356.60</ele>
	<time>2024-09-06T09:23:28.000Z</time>
</trkpt>
<trkpt lat="46.1449050" lon="10.1488530">
	<ele>1356.40</ele>
	<time>2024-09-06T09:23:29.000Z</time>
</trkpt>
<trkpt lat="46.1449020" lon="10.1488400">
	<ele>1356.00</ele>
	<time>2024-09-06T09:23:30.000Z</time>
</trkpt>
<trkpt lat="46.1448960" lon="10.1488240">
	<ele>1356.00</ele>
	<time>2024-09-06T09:23:31.000Z</time>
</trkpt>
<trkpt lat="46.1448910" lon="10.1488080">
	<ele>1355.80</ele>
	<time>2024-09-06T09:23:32.000Z</time>
</trkpt>
<trkpt lat="46.1448870" lon="10.1487950">
	<ele>1355.60</ele>
	<time>2024-09-06T09:23:33.000Z</time>
</trkpt>
<trkpt lat="46.1448830" lon="10.1487830">
	<ele>1355.40</ele>
	<time>2024-09-06T09:23:34.000Z</time>
</trkpt>
<trkpt lat="46.1448810" lon="10.1487720">
	<ele>1355.20</ele>
	<time>2024-09-06T09:23:35.000Z</time>
</trkpt>
<trkpt lat="46.1448770" lon="10.1487580">
	<ele>1355.00</ele>
	<time>2024-09-06T09:23:36.000Z</time>
</trkpt>
<trkpt lat="46.1448750" lon="10.1487440">
	<ele>1355.00</ele>
	<time>2024-09-06T09:23:37.000Z</time>
</trkpt>
<trkpt lat="46.1448720" lon="10.1487280">
	<ele>1354.60</ele>
	<time>2024-09-06T09:23:38.000Z</time>
</trkpt>
<trkpt lat="46.1448690" lon="10.1487110">
	<ele>1354.40</ele>
	<time>2024-09-06T09:23:39.000Z</time>
</trkpt>
<trkpt lat="46.1448670" lon="10.1487000">
	<ele>1354.20</ele>
	<time>2024-09-06T09:23:40.000Z</time>
</trkpt>
<trkpt lat="46.1448670" lon="10.1486940">
	<ele>1354.00</ele>
	<time>2024-09-06T09:23:41.000Z</time>
</trkpt>
<trkpt lat="46.1448670" lon="10.1486920">
	<ele>1354.00</ele>
	<time>2024-09-06T09:23:42.000Z</time>
</trkpt>
<trkpt lat="46.1448660" lon="10.1486900">
	<ele>1354.00</ele>
	<time>2024-09-06T09:23:43.000Z</time>
</trkpt>
<trkpt lat="46.1448650" lon="10.1486890">
	<ele>1353.80</ele>
	<time>2024-09-06T09:23:44.000Z</time>
</trkpt>
<trkpt lat="46.1448670" lon="10.1486880">
	<ele>1353.80</ele>
	<time>2024-09-06T09:23:45.000Z</time>
</trkpt>
<trkpt lat="46.1448690" lon="10.1486880">
	<ele>1353.80</ele>
	<time>2024-09-06T09:23:46.000Z</time>
</trkpt>
<trkpt lat="46.1448720" lon="10.1486880">
	<ele>1353.80</ele>
	<time>2024-09-06T09:23:47.000Z</time>
</trkpt>
<trkpt lat="46.1448740" lon="10.1486880">
	<ele>1353.80</ele>
	<time>2024-09-06T09:23:48.000Z</time>
</trkpt>
<trkpt lat="46.1448730" lon="10.1486890">
	<ele>1353.80</ele>
	<time>2024-09-06T09:23:49.000Z</time>
</trkpt>
<trkpt lat="46.1448740" lon="10.1486900">
	<ele>1353.80</ele>
	<time>2024-09-06T09:23:50.000Z</time>
</trkpt>
<trkpt lat="46.1448750" lon="10.1486900">
	<ele>1353.80</ele>
	<time>2024-09-06T09:23:51.000Z</time>
</trkpt>
<trkpt lat="46.1448750" lon="10.1486920">
	<ele>1353.80</ele>
	<time>2024-09-06T09:23:52.000Z</time>
</trkpt>
<trkpt lat="46.1448750" lon="10.1486920">
	<ele>1353.80</ele>
	<time>2024-09-06T09:23:53.000Z</time>
</trkpt>
<trkpt lat="46.1448750" lon="10.1486920">
	<ele>1353.80</ele>
	<time>2024-09-06T09:23:54.000Z</time>
</trkpt>
<trkpt lat="46.1448750" lon="10.1486920">
	<ele>1353.60</ele>
	<time>2024-09-06T09:23:55.000Z</time>
</trkpt>
<trkpt lat="46.1448750" lon="10.1486920">
	<ele>1353.60</ele>
	<time>2024-09-06T09:23:56.000Z</time>
</trkpt>
<trkpt lat="46.1448730" lon="10.1486880">
	<ele>1353.60</ele>
	<time>2024-09-06T09:23:57.000Z</time>
</trkpt>
<trkpt lat="46.1448650" lon="10.1486730">
	<ele>1353.40</ele>
	<time>2024-09-06T09:23:58.000Z</time>
</trkpt>
<trkpt lat="46.1448620" lon="10.1486580">
	<ele>1353.20</ele>
	<time>2024-09-06T09:23:59.000Z</time>
</trkpt>
<trkpt lat="46.1448580" lon="10.1486420">
	<ele>1353.20</ele>
	<time>2024-09-06T09:24:00.000Z</time>
</trkpt>
<trkpt lat="46.1448570" lon="10.1486250">
	<ele>1353.20</ele>
	<time>2024-09-06T09:24:01.000Z</time>
</trkpt>
<trkpt lat="46.1448580" lon="10.1486100">
	<ele>1353.00</ele>
	<time>2024-09-06T09:24:02.000Z</time>
</trkpt>
<trkpt lat="46.1448580" lon="10.1485940">
	<ele>1352.80</ele>
	<time>2024-09-06T09:24:03.000Z</time>
</trkpt>
<trkpt lat="46.1448580" lon="10.1485770">
	<ele>1352.60</ele>
	<time>2024-09-06T09:24:04.000Z</time>
</trkpt>
<trkpt lat="46.1448570" lon="10.1485620">
	<ele>1352.20</ele>
	<time>2024-09-06T09:24:05.000Z</time>
</trkpt>
<trkpt lat="46.1448560" lon="10.1485500">
	<ele>1352.00</ele>
	<time>2024-09-06T09:24:06.000Z</time>
</trkpt>
<trkpt lat="46.1448590" lon="10.1485420">
	<ele>1352.00</ele>
	<time>2024-09-06T09:24:07.000Z</time>
</trkpt>
<trkpt lat="46.1448610" lon="10.1485290">
	<ele>1351.60</ele>
	<time>2024-09-06T09:24:08.000Z</time>
</trkpt>
<trkpt lat="46.1448670" lon="10.1485190">
	<ele>1351.60</ele>
	<time>2024-09-06T09:24:09.000Z</time>
</trkpt>
<trkpt lat="46.1448740" lon="10.1485080">
	<ele>1351.00</ele>
	<time>2024-09-06T09:24:10.000Z</time>
</trkpt>
<trkpt lat="46.1448780" lon="10.1484930">
	<ele>1350.80</ele>
	<time>2024-09-06T09:24:11.000Z</time>
</trkpt>
<trkpt lat="46.1448810" lon="10.1484720">
	<ele>1350.60</ele>
	<time>2024-09-06T09:24:12.000Z</time>
</trkpt>
<trkpt lat="46.1448830" lon="10.1484540">
	<ele>1350.20</ele>
	<time>2024-09-06T09:24:13.000Z</time>
</trkpt>
<trkpt lat="46.1448840" lon="10.1484400">
	<ele>1350.00</ele>
	<time>2024-09-06T09:24:14.000Z</time>
</trkpt>
<trkpt lat="46.1448880" lon="10.1484240">
	<ele>1349.60</ele>
	<time>2024-09-06T09:24:15.000Z</time>
</trkpt>
<trkpt lat="46.1448970" lon="10.1484080">
	<ele>1349.40</ele>
	<time>2024-09-06T09:24:16.000Z</time>
</trkpt>
<trkpt lat="46.1449070" lon="10.1483870">
	<ele>1349.20</ele>
	<time>2024-09-06T09:24:17.000Z</time>
</trkpt>
<trkpt lat="46.1449110" lon="10.1483670">
	<ele>1348.80</ele>
	<time>2024-09-06T09:24:18.000Z</time>
</trkpt>
<trkpt lat="46.1449160" lon="10.1483550">
	<ele>1348.40</ele>
	<time>2024-09-06T09:24:19.000Z</time>
</trkpt>
<trkpt lat="46.1449190" lon="10.1483350">
	<ele>1348.00</ele>
	<time>2024-09-06T09:24:20.000Z</time>
</trkpt>
<trkpt lat="46.1449230" lon="10.1483190">
	<ele>1347.60</ele>
	<time>2024-09-06T09:24:21.000Z</time>
</trkpt>
<trkpt lat="46.1449240" lon="10.1482920">
	<ele>1347.40</ele>
	<time>2024-09-06T09:24:22.000Z</time>
</trkpt>
<trkpt lat="46.1449270" lon="10.1482770">
	<ele>1347.00</ele>
	<time>2024-09-06T09:24:23.000Z</time>
</trkpt>
<trkpt lat="46.1449330" lon="10.1482580">
	<ele>1346.60</ele>
	<time>2024-09-06T09:24:24.000Z</time>
</trkpt>
<trkpt lat="46.1449380" lon="10.1482400">
	<ele>1346.40</ele>
	<time>2024-09-06T09:24:25.000Z</time>
</trkpt>
<trkpt lat="46.1449430" lon="10.1482200">
	<ele>1346.20</ele>
	<time>2024-09-06T09:24:26.000Z</time>
</trkpt>
<trkpt lat="46.1449470" lon="10.1482020">
	<ele>1346.00</ele>
	<time>2024-09-06T09:24:27.000Z</time>
</trkpt>
<trkpt lat="46.1449520" lon="10.1481850">
	<ele>1345.60</ele>
	<time>2024-09-06T09:24:28.000Z</time>
</trkpt>
<trkpt lat="46.1449580" lon="10.1481680">
	<ele>1345.40</ele>
	<time>2024-09-06T09:24:29.000Z</time>
</trkpt>
<trkpt lat="46.1449620" lon="10.1481500">
	<ele>1345.00</ele>
	<time>2024-09-06T09:24:30.000Z</time>
</trkpt>
<trkpt lat="46.1449700" lon="10.1481320">
	<ele>1344.80</ele>
	<time>2024-09-06T09:24:31.000Z</time>
</trkpt>
<trkpt lat="46.1449790" lon="10.1481180">
	<ele>1344.60</ele>
	<time>2024-09-06T09:24:32.000Z</time>
</trkpt>
<trkpt lat="46.1449880" lon="10.1481040">
	<ele>1344.40</ele>
	<time>2024-09-06T09:24:33.000Z</time>
</trkpt>
<trkpt lat="46.1449920" lon="10.1480890">
	<ele>1344.00</ele>
	<time>2024-09-06T09:24:34.000Z</time>
</trkpt>
<trkpt lat="46.1449990" lon="10.1480770">
	<ele>1343.60</ele>
	<time>2024-09-06T09:24:35.000Z</time>
</trkpt>
<trkpt lat="46.1450070" lon="10.1480640">
	<ele>1343.40</ele>
	<time>2024-09-06T09:24:36.000Z</time>
</trkpt>
<trkpt lat="46.1450150" lon="10.1480530">
	<ele>1343.00</ele>
	<time>2024-09-06T09:24:37.000Z</time>
</trkpt>
<trkpt lat="46.1450230" lon="10.1480440">
	<ele>1343.00</ele>
	<time>2024-09-06T09:24:38.000Z</time>
</trkpt>
<trkpt lat="46.1450320" lon="10.1480350">
	<ele>1342.60</ele>
	<time>2024-09-06T09:24:39.000Z</time>
</trkpt>
<trkpt lat="46.1450400" lon="10.1480290">
	<ele>1342.40</ele>
	<time>2024-09-06T09:24:40.000Z</time>
</trkpt>
<trkpt lat="46.1450490" lon="10.1480230">
	<ele>1341.80</ele>
	<time>2024-09-06T09:24:41.000Z</time>
</trkpt>
<trkpt lat="46.1450590" lon="10.1480210">
	<ele>1341.60</ele>
	<time>2024-09-06T09:24:42.000Z</time>
</trkpt>
<trkpt lat="46.1450690" lon="10.1480180">
	<ele>1341.40</ele>
	<time>2024-09-06T09:24:43.000Z</time>
</trkpt>
<trkpt lat="46.1450790" lon="10.1480140">
	<ele>1341.00</ele>
	<time>2024-09-06T09:24:44.000Z</time>
</trkpt>
<trkpt lat="46.1450920" lon="10.1480120">
	<ele>1340.80</ele>
	<time>2024-09-06T09:24:45.000Z</time>
</trkpt>
<trkpt lat="46.1451010" lon="10.1480120">
	<ele>1340.20</ele>
	<time>2024-09-06T09:24:46.000Z</time>
</trkpt>
<trkpt lat="46.1451130" lon="10.1480110">
	<ele>1340.00</ele>
	<time>2024-09-06T09:24:47.000Z</time>
</trkpt>
<trkpt lat="46.1451220" lon="10.1480070">
	<ele>1339.80</ele>
	<time>2024-09-06T09:24:48.000Z</time>
</trkpt>
<trkpt lat="46.1451360" lon="10.1479990">
	<ele>1339.40</ele>
	<time>2024-09-06T09:24:49.000Z</time>
</trkpt>
<trkpt lat="46.1451500" lon="10.1479920">
	<ele>1338.80</ele>
	<time>2024-09-06T09:24:50.000Z</time>
</trkpt>
<trkpt lat="46.1451630" lon="10.1479850">
	<ele>1338.40</ele>
	<time>2024-09-06T09:24:51.000Z</time>
</trkpt>
<trkpt lat="46.1451760" lon="10.1479780">
	<ele>1338.20</ele>
	<time>2024-09-06T09:24:52.000Z</time>
</trkpt>
<trkpt lat="46.1451880" lon="10.1479730">
	<ele>1338.00</ele>
	<time>2024-09-06T09:24:53.000Z</time>
</trkpt>
<trkpt lat="46.1452030" lon="10.1479680">
	<ele>1337.40</ele>
	<time>2024-09-06T09:24:54.000Z</time>
</trkpt>
<trkpt lat="46.1452160" lon="10.1479600">
	<ele>1337.00</ele>
	<time>2024-09-06T09:24:55.000Z</time>
</trkpt>
<trkpt lat="46.1452250" lon="10.1479480">
	<ele>1336.60</ele>
	<time>2024-09-06T09:24:56.000Z</time>
</trkpt>
<trkpt lat="46.1452310" lon="10.1479350">
	<ele>1336.20</ele>
	<time>2024-09-06T09:24:57.000Z</time>
</trkpt>
<trkpt lat="46.1452390" lon="10.1479220">
	<ele>1335.80</ele>
	<time>2024-09-06T09:24:58.000Z</time>
</trkpt>
<trkpt lat="46.1452440" lon="10.1479070">
	<ele>1335.60</ele>
	<time>2024-09-06T09:24:59.000Z</time>
</trkpt>
<trkpt lat="46.1452520" lon="10.1478940">
	<ele>1335.00</ele>
	<time>2024-09-06T09:25:00.000Z</time>
</trkpt>
<trkpt lat="46.1452620" lon="10.1478820">
	<ele>1334.60</ele>
	<time>2024-09-06T09:25:01.000Z</time>
</trkpt>
<trkpt lat="46.1452730" lon="10.1478710">
	<ele>1334.40</ele>
	<time>2024-09-06T09:25:02.000Z</time>
</trkpt>
<trkpt lat="46.1452830" lon="10.1478570">
	<ele>1334.20</ele>
	<time>2024-09-06T09:25:03.000Z</time>
</trkpt>
<trkpt lat="46.1452920" lon="10.1478390">
	<ele>1334.00</ele>
	<time>2024-09-06T09:25:04.000Z</time>
</trkpt>
<trkpt lat="46.1453010" lon="10.1478210">
	<ele>1333.40</ele>
	<time>2024-09-06T09:25:05.000Z</time>
</trkpt>
<trkpt lat="46.1453110" lon="10.1477990">
	<ele>1333.20</ele>
	<time>2024-09-06T09:25:06.000Z</time>
</trkpt>
<trkpt lat="46.1453170" lon="10.1477800">
	<ele>1332.80</ele>
	<time>2024-09-06T09:25:07.000Z</time>
</trkpt>
<trkpt lat="46.1453270" lon="10.1477620">
	<ele>1332.40</ele>
	<time>2024-09-06T09:25:08.000Z</time>
</trkpt>
<trkpt lat="46.1453360" lon="10.1477430">
	<ele>1332.20</ele>
	<time>2024-09-06T09:25:09.000Z</time>
</trkpt>
<trkpt lat="46.1453410" lon="10.1477270">
	<ele>1332.00</ele>
	<time>2024-09-06T09:25:10.000Z</time>
</trkpt>
<trkpt lat="46.1453480" lon="10.1477050">
	<ele>1331.80</ele>
	<time>2024-09-06T09:25:11.000Z</time>
</trkpt>
<trkpt lat="46.1453530" lon="10.1476860">
	<ele>1331.40</ele>
	<time>2024-09-06T09:25:12.000Z</time>
</trkpt>
<trkpt lat="46.1453540" lon="10.1476650">
	<ele>1331.20</ele>
	<time>2024-09-06T09:25:13.000Z</time>
</trkpt>
<trkpt lat="46.1453530" lon="10.1476430">
	<ele>1331.00</ele>
	<time>2024-09-06T09:25:14.000Z</time>
</trkpt>
<trkpt lat="46.1453530" lon="10.1476230">
	<ele>1330.80</ele>
	<time>2024-09-06T09:25:15.000Z</time>
</trkpt>
<trkpt lat="46.1453550" lon="10.1476030">
	<ele>1330.60</ele>
	<time>2024-09-06T09:25:16.000Z</time>
</trkpt>
<trkpt lat="46.1453500" lon="10.1475820">
	<ele>1330.60</ele>
	<time>2024-09-06T09:25:17.000Z</time>
</trkpt>
<trkpt lat="46.1453450" lon="10.1475630">
	<ele>1330.40</ele>
	<time>2024-09-06T09:25:18.000Z</time>
</trkpt>
<trkpt lat="46.1453390" lon="10.1475440">
	<ele>1330.20</ele>
	<time>2024-09-06T09:25:19.000Z</time>
</trkpt>
<trkpt lat="46.1453290" lon="10.1475210">
	<ele>1330.00</ele>
	<time>2024-09-06T09:25:20.000Z</time>
</trkpt>
<trkpt lat="46.1453250" lon="10.1474980">
	<ele>1329.80</ele>
	<time>2024-09-06T09:25:21.000Z</time>
</trkpt>
<trkpt lat="46.1453220" lon="10.1474830">
	<ele>1329.60</ele>
	<time>2024-09-06T09:25:22.000Z</time>
</trkpt>
<trkpt lat="46.1453150" lon="10.1474700">
	<ele>1329.40</ele>
	<time>2024-09-06T09:25:23.000Z</time>
</trkpt>
<trkpt lat="46.1453010" lon="10.1474560">
	<ele>1329.40</ele>
	<time>2024-09-06T09:25:24.000Z</time>
</trkpt>
<trkpt lat="46.1452890" lon="10.1474440">
	<ele>1329.20</ele>
	<time>2024-09-06T09:25:25.000Z</time>
</trkpt>
<trkpt lat="46.1452740" lon="10.1474360">
	<ele>1328.80</ele>
	<time>2024-09-06T09:25:26.000Z</time>
</trkpt>
<trkpt lat="46.1452590" lon="10.1474300">
	<ele>1328.40</ele>
	<time>2024-09-06T09:25:27.000Z</time>
</trkpt>
<trkpt lat="46.1452450" lon="10.1474220">
	<ele>1328.20</ele>
	<time>2024-09-06T09:25:28.000Z</time>
</trkpt>
<trkpt lat="46.1452310" lon="10.1474140">
	<ele>1327.80</ele>
	<time>2024-09-06T09:25:29.000Z</time>
</trkpt>
<trkpt lat="46.1452170" lon="10.1474050">
	<ele>1327.80</ele>
	<time>2024-09-06T09:25:30.000Z</time>
</trkpt>
<trkpt lat="46.1452040" lon="10.1473980">
	<ele>1327.60</ele>
	<time>2024-09-06T09:25:31.000Z</time>
</trkpt>
<trkpt lat="46.1451900" lon="10.1473920">
	<ele>1327.40</ele>
	<time>2024-09-06T09:25:32.000Z</time>
</trkpt>
<trkpt lat="46.1451760" lon="10.1473880">
	<ele>1327.00</ele>
	<time>2024-09-06T09:25:33.000Z</time>
</trkpt>
<trkpt lat="46.1451620" lon="10.1473820">
	<ele>1326.80</ele>
	<time>2024-09-06T09:25:34.000Z</time>
</trkpt>
<trkpt lat="46.1451510" lon="10.1473770">
	<ele>1326.60</ele>
	<time>2024-09-06T09:25:35.000Z</time>
</trkpt>
<trkpt lat="46.1451390" lon="10.1473720">
	<ele>1326.00</ele>
	<time>2024-09-06T09:25:36.000Z</time>
</trkpt>
<trkpt lat="46.1451260" lon="10.1473670">
	<ele>1325.60</ele>
	<time>2024-09-06T09:25:37.000Z</time>
</trkpt>
<trkpt lat="46.1451110" lon="10.1473590">
	<ele>1325.20</ele>
	<time>2024-09-06T09:25:38.000Z</time>
</trkpt>
<trkpt lat="46.1450970" lon="10.1473580">
	<ele>1325.00</ele>
	<time>2024-09-06T09:25:39.000Z</time>
</trkpt>
<trkpt lat="46.1450850" lon="10.1473570">
	<ele>1324.60</ele>
	<time>2024-09-06T09:25:40.000Z</time>
</trkpt>
<trkpt lat="46.1450710" lon="10.1473530">
	<ele>1324.60</ele>
	<time>2024-09-06T09:25:41.000Z</time>
</trkpt>
<trkpt lat="46.1450550" lon="10.1473450">
	<ele>1324.20</ele>
	<time>2024-09-06T09:25:42.000Z</time>
</trkpt>
<trkpt lat="46.1450400" lon="10.1473350">
	<ele>1324.00</ele>
	<time>2024-09-06T09:25:43.000Z</time>
</trkpt>
<trkpt lat="46.1450320" lon="10.1473310">
	<ele>1323.80</ele>
	<time>2024-09-06T09:25:44.000Z</time>
</trkpt>
<trkpt lat="46.1450190" lon="10.1473240">
	<ele>1323.60</ele>
	<time>2024-09-06T09:25:45.000Z</time>
</trkpt>
<trkpt lat="46.1450020" lon="10.1473180">
	<ele>1323.40</ele>
	<time>2024-09-06T09:25:46.000Z</time>
</trkpt>
<trkpt lat="46.1449860" lon="10.1473170">
	<ele>1323.00</ele>
	<time>2024-09-06T09:25:47.000Z</time>
</trkpt>
<trkpt lat="46.1449720" lon="10.1473100">
	<ele>1322.80</ele>
	<time>2024-09-06T09:25:48.000Z</time>
</trkpt>
<trkpt lat="46.1449590" lon="10.1473010">
	<ele>1322.60</ele>
	<time>2024-09-06T09:25:49.000Z</time>
</trkpt>
<trkpt lat="46.1449410" lon="10.1472890">
	<ele>1322.40</ele>
	<time>2024-09-06T09:25:50.000Z</time>
</trkpt>
<trkpt lat="46.1449260" lon="10.1472840">
	<ele>1322.20</ele>
	<time>2024-09-06T09:25:51.000Z</time>
</trkpt>
<trkpt lat="46.1449120" lon="10.1472830">
	<ele>1321.80</ele>
	<time>2024-09-06T09:25:52.000Z</time>
</trkpt>
<trkpt lat="46.1449030" lon="10.1472810">
	<ele>1321.60</ele>
	<time>2024-09-06T09:25:53.000Z</time>
</trkpt>
<trkpt lat="46.1448950" lon="10.1472820">
	<ele>1321.20</ele>
	<time>2024-09-06T09:25:54.000Z</time>
</trkpt>
<trkpt lat="46.1448820" lon="10.1472810">
	<ele>1321.00</ele>
	<time>2024-09-06T09:25:55.000Z</time>
</trkpt>
<trkpt lat="46.1448640" lon="10.1472770">
	<ele>1320.80</ele>
	<time>2024-09-06T09:25:56.000Z</time>
</trkpt>
<trkpt lat="46.1448480" lon="10.1472740">
	<ele>1320.40</ele>
	<time>2024-09-06T09:25:57.000Z</time>
</trkpt>
<trkpt lat="46.1448320" lon="10.1472670">
	<ele>1320.20</ele>
	<time>2024-09-06T09:25:58.000Z</time>
</trkpt>
<trkpt lat="46.1448140" lon="10.1472620">
	<ele>1320.00</ele>
	<time>2024-09-06T09:25:59.000Z</time>
</trkpt>
<trkpt lat="46.1447940" lon="10.1472530">
	<ele>1319.60</ele>
	<time>2024-09-06T09:26:00.000Z</time>
</trkpt>
<trkpt lat="46.1447770" lon="10.1472500">
	<ele>1319.60</ele>
	<time>2024-09-06T09:26:01.000Z</time>
</trkpt>
<trkpt lat="46.1447600" lon="10.1472500">
	<ele>1319.40</ele>
	<time>2024-09-06T09:26:02.000Z</time>
</trkpt>
<trkpt lat="46.1447450" lon="10.1472500">
	<ele>1319.20</ele>
	<time>2024-09-06T09:26:03.000Z</time>
</trkpt>
<trkpt lat="46.1447290" lon="10.1472500">
	<ele>1319.20</ele>
	<time>2024-09-06T09:26:04.000Z</time>
</trkpt>
<trkpt lat="46.1447130" lon="10.1472500">
	<ele>1319.00</ele>
	<time>2024-09-06T09:26:05.000Z</time>
</trkpt>
<trkpt lat="46.1446950" lon="10.1472450">
	<ele>1318.80</ele>
	<time>2024-09-06T09:26:06.000Z</time>
</trkpt>
<trkpt lat="46.1446800" lon="10.1472410">
	<ele>1318.80</ele>
	<time>2024-09-06T09:26:07.000Z</time>
</trkpt>
<trkpt lat="46.1446640" lon="10.1472360">
	<ele>1318.60</ele>
	<time>2024-09-06T09:26:08.000Z</time>
</trkpt>
<trkpt lat="46.1446480" lon="10.1472300">
	<ele>1318.40</ele>
	<time>2024-09-06T09:26:09.000Z</time>
</trkpt>
<trkpt lat="46.1446330" lon="10.1472280">
	<ele>1318.20</ele>
	<time>2024-09-06T09:26:10.000Z</time>
</trkpt>
<trkpt lat="46.1446170" lon="10.1472200">
	<ele>1318.00</ele>
	<time>2024-09-06T09:26:11.000Z</time>
</trkpt>
<trkpt lat="46.1446040" lon="10.1472200">
	<ele>1318.00</ele>
	<time>2024-09-06T09:26:12.000Z</time>
</trkpt>
<trkpt lat="46.1445900" lon="10.1472220">
	<ele>1318.00</ele>
	<time>2024-09-06T09:26:13.000Z</time>
</trkpt>
<trkpt lat="46.1445790" lon="10.1472250">
	<ele>1317.80</ele>
	<time>2024-09-06T09:26:14.000Z</time>
</trkpt>
<trkpt lat="46.1445660" lon="10.1472240">
	<ele>1317.80</ele>
	<time>2024-09-06T09:26:15.000Z</time>
</trkpt>
<trkpt lat="46.1445510" lon="10.1472170">
	<ele>1317.60</ele>
	<time>2024-09-06T09:26:16.000Z</time>
</trkpt>
<trkpt lat="46.1445400" lon="10.1472120">
	<ele>1317.60</ele>
	<time>2024-09-06T09:26:17.000Z</time>
</trkpt>
<trkpt lat="46.1445290" lon="10.1472070">
	<ele>1317.40</ele>
	<time>2024-09-06T09:26:18.000Z</time>
</trkpt>
<trkpt lat="46.1445080" lon="10.1472030">
	<ele>1317.40</ele>
	<time>2024-09-06T09:26:19.000Z</time>
</trkpt>
<trkpt lat="46.1444940" lon="10.1472000">
	<ele>1317.20</ele>
	<time>2024-09-06T09:26:20.000Z</time>
</trkpt>
<trkpt lat="46.1444760" lon="10.1472000">
	<ele>1317.20</ele>
	<time>2024-09-06T09:26:21.000Z</time>
</trkpt>
<trkpt lat="46.1444670" lon="10.1472030">
	<ele>1317.20</ele>
	<time>2024-09-06T09:26:22.000Z</time>
</trkpt>
<trkpt lat="46.1444480" lon="10.1471990">
	<ele>1317.20</ele>
	<time>2024-09-06T09:26:23.000Z</time>
</trkpt>
<trkpt lat="46.1444330" lon="10.1472020">
	<ele>1317.20</ele>
	<time>2024-09-06T09:26:24.000Z</time>
</trkpt>
<trkpt lat="46.1444140" lon="10.1472060">
	<ele>1317.20</ele>
	<time>2024-09-06T09:26:25.000Z</time>
</trkpt>
<trkpt lat="46.1443980" lon="10.1472030">
	<ele>1317.20</ele>
	<time>2024-09-06T09:26:26.000Z</time>
</trkpt>
<trkpt lat="46.1443850" lon="10.1472010">
	<ele>1317.20</ele>
	<time>2024-09-06T09:26:27.000Z</time>
</trkpt>
<trkpt lat="46.1443720" lon="10.1472020">
	<ele>1317.00</ele>
	<time>2024-09-06T09:26:28.000Z</time>
</trkpt>
<trkpt lat="46.1443600" lon="10.1472010">
	<ele>1317.00</ele>
	<time>2024-09-06T09:26:29.000Z</time>
</trkpt>
<trkpt lat="46.1443450" lon="10.1472010">
	<ele>1316.80</ele>
	<time>2024-09-06T09:26:30.000Z</time>
</trkpt>
<trkpt lat="46.1443330" lon="10.1472000">
	<ele>1316.80</ele>
	<time>2024-09-06T09:26:31.000Z</time>
</trkpt>
<trkpt lat="46.1443230" lon="10.1472070">
	<ele>1316.60</ele>
	<time>2024-09-06T09:26:32.000Z</time>
</trkpt>
<trkpt lat="46.1443080" lon="10.1472040">
	<ele>1316.60</ele>
	<time>2024-09-06T09:26:33.000Z</time>
</trkpt>
<trkpt lat="46.1442920" lon="10.1472010">
	<ele>1316.40</ele>
	<time>2024-09-06T09:26:34.000Z</time>
</trkpt>
<trkpt lat="46.1442730" lon="10.1472000">
	<ele>1316.40</ele>
	<time>2024-09-06T09:26:35.000Z</time>
</trkpt>
<trkpt lat="46.1442600" lon="10.1472000">
	<ele>1316.40</ele>
	<time>2024-09-06T09:26:36.000Z</time>
</trkpt>
<trkpt lat="46.1442460" lon="10.1472000">
	<ele>1316.20</ele>
	<time>2024-09-06T09:26:37.000Z</time>
</trkpt>
<trkpt lat="46.1442370" lon="10.1472000">
	<ele>1316.20</ele>
	<time>2024-09-06T09:26:38.000Z</time>
</trkpt>
<trkpt lat="46.1442220" lon="10.1471990">
	<ele>1316.20</ele>
	<time>2024-09-06T09:26:39.000Z</time>
</trkpt>
<trkpt lat="46.1442130" lon="10.1471970">
	<ele>1316.20</ele>
	<time>2024-09-06T09:26:40.000Z</time>
</trkpt>
<trkpt lat="46.1442050" lon="10.1471870">
	<ele>1316.00</ele>
	<time>2024-09-06T09:26:41.000Z</time>
</trkpt>
<trkpt lat="46.1442050" lon="10.1471800">
	<ele>1315.80</ele>
	<time>2024-09-06T09:26:42.000Z</time>
</trkpt>
<trkpt lat="46.1442020" lon="10.1471660">
	<ele>1315.60</ele>
	<time>2024-09-06T09:26:43.000Z</time>
</trkpt>
<trkpt lat="46.1442010" lon="10.1471530">
	<ele>1315.40</ele>
	<time>2024-09-06T09:26:44.000Z</time>
</trkpt>
<trkpt lat="46.1442090" lon="10.1471470">
	<ele>1315.00</ele>
	<time>2024-09-06T09:26:45.000Z</time>
</trkpt>
<trkpt lat="46.1442200" lon="10.1471460">
	<ele>1314.80</ele>
	<time>2024-09-06T09:26:46.000Z</time>
</trkpt>
<trkpt lat="46.1442290" lon="10.1471500">
	<ele>1314.60</ele>
	<time>2024-09-06T09:26:47.000Z</time>
</trkpt>
<trkpt lat="46.1442320" lon="10.1471520">
	<ele>1314.40</ele>
	<time>2024-09-06T09:26:48.000Z</time>
</trkpt>
<trkpt lat="46.1442320" lon="10.1471540">
	<ele>1314.40</ele>
	<time>2024-09-06T09:26:49.000Z</time>
</trkpt>
<trkpt lat="46.1442340" lon="10.1471570">
	<ele>1314.20</ele>
	<time>2024-09-06T09:26:50.000Z</time>
</trkpt>
<trkpt lat="46.1442360" lon="10.1471580">
	<ele>1314.00</ele>
	<time>2024-09-06T09:26:51.000Z</time>
</trkpt>
<trkpt lat="46.1442420" lon="10.1471590">
	<ele>1314.00</ele>
	<time>2024-09-06T09:26:52.000Z</time>
</trkpt>
<trkpt lat="46.1442480" lon="10.1471580">
	<ele>1313.80</ele>
	<time>2024-09-06T09:26:53.000Z</time>
</trkpt>
<trkpt lat="46.1442560" lon="10.1471550">
	<ele>1313.80</ele>
	<time>2024-09-06T09:26:54.000Z</time>
</trkpt>
<trkpt lat="46.1442670" lon="10.1471530">
	<ele>1313.80</ele>
	<time>2024-09-06T09:26:55.000Z</time>
</trkpt>
<trkpt lat="46.1442770" lon="10.1471500">
	<ele>1313.60</ele>
	<time>2024-09-06T09:26:56.000Z</time>
</trkpt>
<trkpt lat="46.1442840" lon="10.1471450">
	<ele>1313.40</ele>
	<time>2024-09-06T09:26:57.000Z</time>
</trkpt>
<trkpt lat="46.1442920" lon="10.1471380">
	<ele>1313.00</ele>
	<time>2024-09-06T09:26:58.000Z</time>
</trkpt>
<trkpt lat="46.1443020" lon="10.1471300">
	<ele>1312.60</ele>
	<time>2024-09-06T09:26:59.000Z</time>
</trkpt>
<trkpt lat="46.1443120" lon="10.1471200">
	<ele>1312.40</ele>
	<time>2024-09-06T09:27:00.000Z</time>
</trkpt>
<trkpt lat="46.1443190" lon="10.1471110">
	<ele>1312.00</ele>
	<time>2024-09-06T09:27:01.000Z</time>
</trkpt>
<trkpt lat="46.1443300" lon="10.1470970">
	<ele>1311.80</ele>
	<time>2024-09-06T09:27:02.000Z</time>
</trkpt>
<trkpt lat="46.1443420" lon="10.1470770">
	<ele>1311.60</ele>
	<time>2024-09-06T09:27:03.000Z</time>
</trkpt>
<trkpt lat="46.1443490" lon="10.1470470">
	<ele>1311.40</ele>
	<time>2024-09-06T09:27:04.000Z</time>
</trkpt>
<trkpt lat="46.1443550" lon="10.1470210">
	<ele>1311.00</ele>
	<time>2024-09-06T09:27:05.000Z</time>
</trkpt>
<trkpt lat="46.1443550" lon="10.1469970">
	<ele>1311.00</ele>
	<time>2024-09-06T09:27:06.000Z</time>
</trkpt>
<trkpt lat="46.1443560" lon="10.1469800">
	<ele>1310.80</ele>
	<time>2024-09-06T09:27:07.000Z</time>
</trkpt>
<trkpt lat="46.1443490" lon="10.1469680">
	<ele>1310.60</ele>
	<time>2024-09-06T09:27:08.000Z</time>
</trkpt>
<trkpt lat="46.1443430" lon="10.1469690">
	<ele>1310.60</ele>
	<time>2024-09-06T09:27:09.000Z</time>
</trkpt>
<trkpt lat="46.1443360" lon="10.1469720">
	<ele>1310.40</ele>
	<time>2024-09-06T09:27:10.000Z</time>
</trkpt>
<trkpt lat="46.1443330" lon="10.1469710">
	<ele>1310.40</ele>
	<time>2024-09-06T09:27:11.000Z</time>
</trkpt>
<trkpt lat="46.1443320" lon="10.1469700">
	<ele>1310.40</ele>
	<time>2024-09-06T09:27:12.000Z</time>
</trkpt>
<trkpt lat="46.1443290" lon="10.1469690">
	<ele>1310.40</ele>
	<time>2024-09-06T09:27:13.000Z</time>
</trkpt>
<trkpt lat="46.1443280" lon="10.1469670">
	<ele>1310.40</ele>
	<time>2024-09-06T09:27:14.000Z</time>
</trkpt>
<trkpt lat="46.1443270" lon="10.1469660">
	<ele>1310.40</ele>
	<time>2024-09-06T09:27:15.000Z</time>
</trkpt>
<trkpt lat="46.1443270" lon="10.1469650">
	<ele>1310.40</ele>
	<time>2024-09-06T09:27:16.000Z</time>
</trkpt>
<trkpt lat="46.1443280" lon="10.1469650">
	<ele>1310.60</ele>
	<time>2024-09-06T09:27:17.000Z</time>
</trkpt>
<trkpt lat="46.1443270" lon="10.1469640">
	<ele>1310.60</ele>
	<time>2024-09-06T09:27:18.000Z</time>
</trkpt>
<trkpt lat="46.1443270" lon="10.1469620">
	<ele>1310.60</ele>
	<time>2024-09-06T09:27:19.000Z</time>
</trkpt>
<trkpt lat="46.1443270" lon="10.1469610">
	<ele>1310.60</ele>
	<time>2024-09-06T09:27:20.000Z</time>
</trkpt>
<trkpt lat="46.1443270" lon="10.1469530">
	<ele>1310.60</ele>
	<time>2024-09-06T09:27:21.000Z</time>
</trkpt>
<trkpt lat="46.1443260" lon="10.1469430">
	<ele>1310.60</ele>
	<time>2024-09-06T09:27:22.000Z</time>
</trkpt>
<trkpt lat="46.1443250" lon="10.1469280">
	<ele>1310.60</ele>
	<time>2024-09-06T09:27:23.000Z</time>
</trkpt>
<trkpt lat="46.1443260" lon="10.1469140">
	<ele>1310.40</ele>
	<time>2024-09-06T09:27:24.000Z</time>
</trkpt>
<trkpt lat="46.1443290" lon="10.1468950">
	<ele>1310.40</ele>
	<time>2024-09-06T09:27:25.000Z</time>
</trkpt>
<trkpt lat="46.1443370" lon="10.1468790">
	<ele>1310.40</ele>
	<time>2024-09-06T09:27:26.000Z</time>
</trkpt>
<trkpt lat="46.1443430" lon="10.1468670">
	<ele>1310.40</ele>
	<time>2024-09-06T09:27:27.000Z</time>
</trkpt>
<trkpt lat="46.1443470" lon="10.1468530">
	<ele>1310.60</ele>
	<time>2024-09-06T09:27:28.000Z</time>
</trkpt>
<trkpt lat="46.1443520" lon="10.1468390">
	<ele>1310.60</ele>
	<time>2024-09-06T09:27:29.000Z</time>
</trkpt>
<trkpt lat="46.1443570" lon="10.1468270">
	<ele>1310.80</ele>
	<time>2024-09-06T09:27:30.000Z</time>
</trkpt>
<trkpt lat="46.1443640" lon="10.1468190">
	<ele>1310.80</ele>
	<time>2024-09-06T09:27:31.000Z</time>
</trkpt>
<trkpt lat="46.1443710" lon="10.1468110">
	<ele>1310.80</ele>
	<time>2024-09-06T09:27:32.000Z</time>
</trkpt>
<trkpt lat="46.1443780" lon="10.1468010">
	<ele>1311.00</ele>
	<time>2024-09-06T09:27:33.000Z</time>
</trkpt>
<trkpt lat="46.1443920" lon="10.1467950">
	<ele>1311.40</ele>
	<time>2024-09-06T09:27:34.000Z</time>
</trkpt>
<trkpt lat="46.1444070" lon="10.1467900">
	<ele>1311.60</ele>
	<time>2024-09-06T09:27:35.000Z</time>
</trkpt>
<trkpt lat="46.1444150" lon="10.1467770">
	<ele>1311.80</ele>
	<time>2024-09-06T09:27:36.000Z</time>
</trkpt>
<trkpt lat="46.1444220" lon="10.1467700">
	<ele>1312.00</ele>
	<time>2024-09-06T09:27:37.000Z</time>
</trkpt>
<trkpt lat="46.1444310" lon="10.1467630">
	<ele>1312.00</ele>
	<time>2024-09-06T09:27:38.000Z</time>
</trkpt>
<trkpt lat="46.1444410" lon="10.1467510">
	<ele>1312.00</ele>
	<time>2024-09-06T09:27:39.000Z</time>
</trkpt>
<trkpt lat="46.1444520" lon="10.1467400">
	<ele>1312.40</ele>
	<time>2024-09-06T09:27:40.000Z</time>
</trkpt>
<trkpt lat="46.1444600" lon="10.1467230">
	<ele>1312.60</ele>
	<time>2024-09-06T09:27:41.000Z</time>
</trkpt>
<trkpt lat="46.1444720" lon="10.1467080">
	<ele>1312.80</ele>
	<time>2024-09-06T09:27:42.000Z</time>
</trkpt>
<trkpt lat="46.1444870" lon="10.1466930">
	<ele>1313.00</ele>
	<time>2024-09-06T09:27:43.000Z</time>
</trkpt>
<trkpt lat="46.1444990" lon="10.1466790">
	<ele>1313.00</ele>
	<time>2024-09-06T09:27:44.000Z</time>
</trkpt>
<trkpt lat="46.1445080" lon="10.1466670">
	<ele>1313.00</ele>
	<time>2024-09-06T09:27:45.000Z</time>
</trkpt>
<trkpt lat="46.1445180" lon="10.1466650">
	<ele>1313.00</ele>
	<time>2024-09-06T09:27:46.000Z</time>
</trkpt>
<trkpt lat="46.1445320" lon="10.1466680">
	<ele>1313.00</ele>
	<time>2024-09-06T09:27:47.000Z</time>
</trkpt>
<trkpt lat="46.1445460" lon="10.1466670">
	<ele>1313.00</ele>
	<time>2024-09-06T09:27:48.000Z</time>
</trkpt>
<trkpt lat="46.1445600" lon="10.1466670">
	<ele>1313.00</ele>
	<time>2024-09-06T09:27:49.000Z</time>
</trkpt>
<trkpt lat="46.1445690" lon="10.1466690">
	<ele>1313.00</ele>
	<time>2024-09-06T09:27:50.000Z</time>
</trkpt>
<trkpt lat="46.1445790" lon="10.1466670">
	<ele>1313.20</ele>
	<time>2024-09-06T09:27:51.000Z</time>
</trkpt>
<trkpt lat="46.1445880" lon="10.1466620">
	<ele>1313.20</ele>
	<time>2024-09-06T09:27:52.000Z</time>
</trkpt>
<trkpt lat="46.1446040" lon="10.1466620">
	<ele>1313.20</ele>
	<time>2024-09-06T09:27:53.000Z</time>
</trkpt>
<trkpt lat="46.1446160" lon="10.1466540">
	<ele>1313.40</ele>
	<time>2024-09-06T09:27:54.000Z</time>
</trkpt>
<trkpt lat="46.1446240" lon="10.1466460">
	<ele>1313.40</ele>
	<time>2024-09-06T09:27:55.000Z</time>
</trkpt>
<trkpt lat="46.1446320" lon="10.1466410">
	<ele>1313.40</ele>
	<time>2024-09-06T09:27:56.000Z</time>
</trkpt>
<trkpt lat="46.1446400" lon="10.1466400">
	<ele>1313.40</ele>
	<time>2024-09-06T09:27:57.000Z</time>
</trkpt>
<trkpt lat="46.1446490" lon="10.1466360">
	<ele>1313.60</ele>
	<time>2024-09-06T09:27:58.000Z</time>
</trkpt>
<trkpt lat="46.1446530" lon="10.1466310">
	<ele>1313.60</ele>
	<time>2024-09-06T09:27:59.000Z</time>
</trkpt>
<trkpt lat="46.1446660" lon="10.1466280">
	<ele>1313.80</ele>
	<time>2024-09-06T09:28:00.000Z</time>
</trkpt>
<trkpt lat="46.1446790" lon="10.1466230">
	<ele>1314.00</ele>
	<time>2024-09-06T09:28:01.000Z</time>
</trkpt>
<trkpt lat="46.1446930" lon="10.1466170">
	<ele>1314.00</ele>
	<time>2024-09-06T09:28:02.000Z</time>
</trkpt>
<trkpt lat="46.1447050" lon="10.1466130">
	<ele>1314.20</ele>
	<time>2024-09-06T09:28:03.000Z</time>
</trkpt>
<trkpt lat="46.1447160" lon="10.1466150">
	<ele>1314.40</ele>
	<time>2024-09-06T09:28:04.000Z</time>
</trkpt>
<trkpt lat="46.1447200" lon="10.1466130">
	<ele>1314.40</ele>
	<time>2024-09-06T09:28:05.000Z</time>
</trkpt>
<trkpt lat="46.1447320" lon="10.1466080">
	<ele>1314.60</ele>
	<time>2024-09-06T09:28:06.000Z</time>
</trkpt>
<trkpt lat="46.1447490" lon="10.1466040">
	<ele>1314.60</ele>
	<time>2024-09-06T09:28:07.000Z</time>
</trkpt>
<trkpt lat="46.1447680" lon="10.1466010">
	<ele>1314.60</ele>
	<time>2024-09-06T09:28:08.000Z</time>
</trkpt>
<trkpt lat="46.1447820" lon="10.1465930">
	<ele>1314.80</ele>
	<time>2024-09-06T09:28:09.000Z</time>
</trkpt>
<trkpt lat="46.1447930" lon="10.1465830">
	<ele>1314.80</ele>
	<time>2024-09-06T09:28:10.000Z</time>
</trkpt>
<trkpt lat="46.1448020" lon="10.1465700">
	<ele>1314.60</ele>
	<time>2024-09-06T09:28:11.000Z</time>
</trkpt>
<trkpt lat="46.1448110" lon="10.1465590">
	<ele>1314.60</ele>
	<time>2024-09-06T09:28:12.000Z</time>
</trkpt>
<trkpt lat="46.1448180" lon="10.1465550">
	<ele>1314.80</ele>
	<time>2024-09-06T09:28:13.000Z</time>
</trkpt>
<trkpt lat="46.1448250" lon="10.1465570">
	<ele>1314.60</ele>
	<time>2024-09-06T09:28:14.000Z</time>
</trkpt>
<trkpt lat="46.1448380" lon="10.1465470">
	<ele>1314.60</ele>
	<time>2024-09-06T09:28:15.000Z</time>
</trkpt>
<trkpt lat="46.1448530" lon="10.1465300">
	<ele>1314.60</ele>
	<time>2024-09-06T09:28:16.000Z</time>
</trkpt>
<trkpt lat="46.1448690" lon="10.1465140">
	<ele>1314.60</ele>
	<time>2024-09-06T09:28:17.000Z</time>
</trkpt>
<trkpt lat="46.1448820" lon="10.1464930">
	<ele>1314.60</ele>
	<time>2024-09-06T09:28:18.000Z</time>
</trkpt>
<trkpt lat="46.1448930" lon="10.1464760">
	<ele>1314.60</ele>
	<time>2024-09-06T09:28:19.000Z</time>
</trkpt>
<trkpt lat="46.1449010" lon="10.1464610">
	<ele>1314.60</ele>
	<time>2024-09-06T09:28:20.000Z</time>
</trkpt>
<trkpt lat="46.1449140" lon="10.1464440">
	<ele>1314.40</ele>
	<time>2024-09-06T09:28:21.000Z</time>
</trkpt>
<trkpt lat="46.1449230" lon="10.1464280">
	<ele>1314.20</ele>
	<time>2024-09-06T09:28:22.000Z</time>
</trkpt>
<trkpt lat="46.1449320" lon="10.1464140">
	<ele>1314.00</ele>
	<time>2024-09-06T09:28:23.000Z</time>
</trkpt>
<trkpt lat="46.1449440" lon="10.1464040">
	<ele>1314.00</ele>
	<time>2024-09-06T09:28:24.000Z</time>
</trkpt>
<trkpt lat="46.1449590" lon="10.1463880">
	<ele>1313.80</ele>
	<time>2024-09-06T09:28:25.000Z</time>
</trkpt>
<trkpt lat="46.1449690" lon="10.1463720">
	<ele>1313.80</ele>
	<time>2024-09-06T09:28:26.000Z</time>
</trkpt>
<trkpt lat="46.1449790" lon="10.1463540">
	<ele>1313.80</ele>
	<time>2024-09-06T09:28:27.000Z</time>
</trkpt>
<trkpt lat="46.1449910" lon="10.1463390">
	<ele>1313.60</ele>
	<time>2024-09-06T09:28:28.000Z</time>
</trkpt>
<trkpt lat="46.1449990" lon="10.1463250">
	<ele>1313.60</ele>
	<time>2024-09-06T09:28:29.000Z</time>
</trkpt>
<trkpt lat="46.1450080" lon="10.1463150">
	<ele>1313.40</ele>
	<time>2024-09-06T09:28:30.000Z</time>
</trkpt>
<trkpt lat="46.1450150" lon="10.1463060">
	<ele>1313.20</ele>
	<time>2024-09-06T09:28:31.000Z</time>
</trkpt>
<trkpt lat="46.1450250" lon="10.1462960">
	<ele>1312.80</ele>
	<time>2024-09-06T09:28:32.000Z</time>
</trkpt>
<trkpt lat="46.1450360" lon="10.1462830">
	<ele>1312.60</ele>
	<time>2024-09-06T09:28:33.000Z</time>
</trkpt>
<trkpt lat="46.1450480" lon="10.1462700">
	<ele>1312.20</ele>
	<time>2024-09-06T09:28:34.000Z</time>
</trkpt>
<trkpt lat="46.1450610" lon="10.1462580">
	<ele>1312.00</ele>
	<time>2024-09-06T09:28:35.000Z</time>
</trkpt>
<trkpt lat="46.1450770" lon="10.1462480">
	<ele>1311.80</ele>
	<time>2024-09-06T09:28:36.000Z</time>
</trkpt>
<trkpt lat="46.1450910" lon="10.1462410">
	<ele>1311.60</ele>
	<time>2024-09-06T09:28:37.000Z</time>
</trkpt>
<trkpt lat="46.1451060" lon="10.1462310">
	<ele>1311.60</ele>
	<time>2024-09-06T09:28:38.000Z</time>
</trkpt>
<trkpt lat="46.1451230" lon="10.1462210">
	<ele>1311.40</ele>
	<time>2024-09-06T09:28:39.000Z</time>
</trkpt>
<trkpt lat="46.1451370" lon="10.1462050">
	<ele>1311.40</ele>
	<time>2024-09-06T09:28:40.000Z</time>
</trkpt>
<trkpt lat="46.1451500" lon="10.1461880">
	<ele>1311.20</ele>
	<time>2024-09-06T09:28:41.000Z</time>
</trkpt>
<trkpt lat="46.1451640" lon="10.1461730">
	<ele>1311.00</ele>
	<time>2024-09-06T09:28:42.000Z</time>
</trkpt>
<trkpt lat="46.1451760" lon="10.1461580">
	<ele>1310.80</ele>
	<time>2024-09-06T09:28:43.000Z</time>
</trkpt>
<trkpt lat="46.1451980" lon="10.1461550">
	<ele>1310.60</ele>
	<time>2024-09-06T09:28:44.000Z</time>
</trkpt>
<trkpt lat="46.1452140" lon="10.1461500">
	<ele>1310.60</ele>
	<time>2024-09-06T09:28:45.000Z</time>
</trkpt>
<trkpt lat="46.1452250" lon="10.1461410">
	<ele>1310.40</ele>
	<time>2024-09-06T09:28:46.000Z</time>
</trkpt>
<trkpt lat="46.1452380" lon="10.1461260">
	<ele>1310.40</ele>
	<time>2024-09-06T09:28:47.000Z</time>
</trkpt>
<trkpt lat="46.1452500" lon="10.1461120">
	<ele>1310.20</ele>
	<time>2024-09-06T09:28:48.000Z</time>
</trkpt>
<trkpt lat="46.1452590" lon="10.1460940">
	<ele>1310.20</ele>
	<time>2024-09-06T09:28:49.000Z</time>
</trkpt>
<trkpt lat="46.1452680" lon="10.1460800">
	<ele>1310.00</ele>
	<time>2024-09-06T09:28:50.000Z</time>
</trkpt>
<trkpt lat="46.1452790" lon="10.1460660">
	<ele>1310.00</ele>
	<time>2024-09-06T09:28:51.000Z</time>
</trkpt>
<trkpt lat="46.1452940" lon="10.1460540">
	<ele>1310.00</ele>
	<time>2024-09-06T09:28:52.000Z</time>
</trkpt>
<trkpt lat="46.1453010" lon="10.1460400">
	<ele>1309.80</ele>
	<time>2024-09-06T09:28:53.000Z</time>
</trkpt>
<trkpt lat="46.1453100" lon="10.1460310">
	<ele>1309.80</ele>
	<time>2024-09-06T09:28:54.000Z</time>
</trkpt>
<trkpt lat="46.1453160" lon="10.1460220">
	<ele>1309.80</ele>
	<time>2024-09-06T09:28:55.000Z</time>
</trkpt>
<trkpt lat="46.1453250" lon="10.1460110">
	<ele>1309.60</ele>
	<time>2024-09-06T09:28:56.000Z</time>
</trkpt>
<trkpt lat="46.1453270" lon="10.1460040">
	<ele>1309.40</ele>
	<time>2024-09-06T09:28:57.000Z</time>
</trkpt>
<trkpt lat="46.1453250" lon="10.1460020">
	<ele>1309.40</ele>
	<time>2024-09-06T09:28:58.000Z</time>
</trkpt>
<trkpt lat="46.1453260" lon="10.1460030">
	<ele>1309.40</ele>
	<time>2024-09-06T09:28:59.000Z</time>
</trkpt>
<trkpt lat="46.1453250" lon="10.1460040">
	<ele>1309.20</ele>
	<time>2024-09-06T09:29:00.000Z</time>
</trkpt>
<trkpt lat="46.1453230" lon="10.1460030">
	<ele>1309.00</ele>
	<time>2024-09-06T09:29:01.000Z</time>
</trkpt>
<trkpt lat="46.1453230" lon="10.1460010">
	<ele>1309.00</ele>
	<time>2024-09-06T09:29:02.000Z</time>
</trkpt>
<trkpt lat="46.1453230" lon="10.1460000">
	<ele>1309.00</ele>
	<time>2024-09-06T09:29:03.000Z</time>
</trkpt>
<trkpt lat="46.1453190" lon="10.1459960">
	<ele>1309.20</ele>
	<time>2024-09-06T09:29:04.000Z</time>
</trkpt>
<trkpt lat="46.1453120" lon="10.1459870">
	<ele>1309.40</ele>
	<time>2024-09-06T09:29:05.000Z</time>
</trkpt>
<trkpt lat="46.1453080" lon="10.1459710">
	<ele>1309.40</ele>
	<time>2024-09-06T09:29:06.000Z</time>
</trkpt>
<trkpt lat="46.1453070" lon="10.1459490">
	<ele>1309.40</ele>
	<time>2024-09-06T09:29:07.000Z</time>
</trkpt>
<trkpt lat="46.1453070" lon="10.1459240">
	<ele>1309.40</ele>
	<time>2024-09-06T09:29:08.000Z</time>
</trkpt>
<trkpt lat="46.1453090" lon="10.1459040">
	<ele>1309.40</ele>
	<time>2024-09-06T09:29:09.000Z</time>
</trkpt>
<trkpt lat="46.1453110" lon="10.1458830">
	<ele>1309.20</ele>
	<time>2024-09-06T09:29:10.000Z</time>
</trkpt>
<trkpt lat="46.1453110" lon="10.1458630">
	<ele>1309.20</ele>
	<time>2024-09-06T09:29:11.000Z</time>
</trkpt>
<trkpt lat="46.1453120" lon="10.1458420">
	<ele>1309.00</ele>
	<time>2024-09-06T09:29:12.000Z</time>
</trkpt>
<trkpt lat="46.1453130" lon="10.1458200">
	<ele>1308.80</ele>
	<time>2024-09-06T09:29:13.000Z</time>
</trkpt>
<trkpt lat="46.1453150" lon="10.1458020">
	<ele>1308.80</ele>
	<time>2024-09-06T09:29:14.000Z</time>
</trkpt>
<trkpt lat="46.1453140" lon="10.1457810">
	<ele>1308.40</ele>
	<time>2024-09-06T09:29:15.000Z</time>
</trkpt>
<trkpt lat="46.1453140" lon="10.1457620">
	<ele>1308.20</ele>
	<time>2024-09-06T09:29:16.000Z</time>
</trkpt>
<trkpt lat="46.1453130" lon="10.1457350">
	<ele>1307.80</ele>
	<time>2024-09-06T09:29:17.000Z</time>
</trkpt>
<trkpt lat="46.1453160" lon="10.1457150">
	<ele>1307.60</ele>
	<time>2024-09-06T09:29:18.000Z</time>
</trkpt>
<trkpt lat="46.1453210" lon="10.1456990">
	<ele>1307.40</ele>
	<time>2024-09-06T09:29:19.000Z</time>
</trkpt>
<trkpt lat="46.1453180" lon="10.1456790">
	<ele>1307.00</ele>
	<time>2024-09-06T09:29:20.000Z</time>
</trkpt>
<trkpt lat="46.1453180" lon="10.1456600">
	<ele>1306.80</ele>
	<time>2024-09-06T09:29:21.000Z</time>
</trkpt>
<trkpt lat="46.1453170" lon="10.1456420">
	<ele>1306.60</ele>
	<time>2024-09-06T09:29:22.000Z</time>
</trkpt>
<trkpt lat="46.1453180" lon="10.1456290">
	<ele>1306.40</ele>
	<time>2024-09-06T09:29:23.000Z</time>
</trkpt>
<trkpt lat="46.1453220" lon="10.1456120">
	<ele>1306.20</ele>
	<time>2024-09-06T09:29:24.000Z</time>
</trkpt>
<trkpt lat="46.1453280" lon="10.1455940">
	<ele>1306.00</ele>
	<time>2024-09-06T09:29:25.000Z</time>
</trkpt>
<trkpt lat="46.1453370" lon="10.1455780">
	<ele>1305.60</ele>
	<time>2024-09-06T09:29:26.000Z</time>
</trkpt>
<trkpt lat="46.1453390" lon="10.1455620">
	<ele>1305.40</ele>
	<time>2024-09-06T09:29:27.000Z</time>
</trkpt>
<trkpt lat="46.1453420" lon="10.1455450">
	<ele>1305.00</ele>
	<time>2024-09-06T09:29:28.000Z</time>
</trkpt>
<trkpt lat="46.1453470" lon="10.1455280">
	<ele>1304.80</ele>
	<time>2024-09-06T09:29:29.000Z</time>
</trkpt>
<trkpt lat="46.1453530" lon="10.1455160">
	<ele>1304.60</ele>
	<time>2024-09-06T09:29:30.000Z</time>
</trkpt>
<trkpt lat="46.1453600" lon="10.1455030">
	<ele>1304.40</ele>
	<time>2024-09-06T09:29:31.000Z</time>
</trkpt>
<trkpt lat="46.1453670" lon="10.1454840">
	<ele>1304.20</ele>
	<time>2024-09-06T09:29:32.000Z</time>
</trkpt>
<trkpt lat="46.1453740" lon="10.1454700">
	<ele>1304.00</ele>
	<time>2024-09-06T09:29:33.000Z</time>
</trkpt>
<trkpt lat="46.1453830" lon="10.1454590">
	<ele>1303.60</ele>
	<time>2024-09-06T09:29:34.000Z</time>
</trkpt>
<trkpt lat="46.1453940" lon="10.1454500">
	<ele>1303.00</ele>
	<time>2024-09-06T09:29:35.000Z</time>
</trkpt>
<trkpt lat="46.1454030" lon="10.1454400">
	<ele>1302.80</ele>
	<time>2024-09-06T09:29:36.000Z</time>
</trkpt>
<trkpt lat="46.1454110" lon="10.1454360">
	<ele>1302.60</ele>
	<time>2024-09-06T09:29:37.000Z</time>
</trkpt>
<trkpt lat="46.1454210" lon="10.1454420">
	<ele>1302.20</ele>
	<time>2024-09-06T09:29:38.000Z</time>
</trkpt>
<trkpt lat="46.1454290" lon="10.1454390">
	<ele>1301.80</ele>
	<time>2024-09-06T09:29:39.000Z</time>
</trkpt>
<trkpt lat="46.1454410" lon="10.1454390">
	<ele>1301.60</ele>
	<time>2024-09-06T09:29:40.000Z</time>
</trkpt>
<trkpt lat="46.1454470" lon="10.1454340">
	<ele>1301.20</ele>
	<time>2024-09-06T09:29:41.000Z</time>
</trkpt>
<trkpt lat="46.1454530" lon="10.1454360">
	<ele>1300.80</ele>
	<time>2024-09-06T09:29:42.000Z</time>
</trkpt>
<trkpt lat="46.1454590" lon="10.1454400">
	<ele>1300.40</ele>
	<time>2024-09-06T09:29:43.000Z</time>
</trkpt>
<trkpt lat="46.1454630" lon="10.1454400">
	<ele>1300.00</ele>
	<time>2024-09-06T09:29:44.000Z</time>
</trkpt>
<trkpt lat="46.1454650" lon="10.1454400">
	<ele>1299.80</ele>
	<time>2024-09-06T09:29:45.000Z</time>
</trkpt>
<trkpt lat="46.1454650" lon="10.1454400">
	<ele>1299.80</ele>
	<time>2024-09-06T09:29:46.000Z</time>
</trkpt>
<trkpt lat="46.1454650" lon="10.1454410">
	<ele>1299.60</ele>
	<time>2024-09-06T09:29:47.000Z</time>
</trkpt>
<trkpt lat="46.1454620" lon="10.1454390">
	<ele>1299.60</ele>
	<time>2024-09-06T09:29:48.000Z</time>
</trkpt>
<trkpt lat="46.1454700" lon="10.1454390">
	<ele>1299.60</ele>
	<time>2024-09-06T09:29:49.000Z</time>
</trkpt>
<trkpt lat="46.1454800" lon="10.1454380">
	<ele>1299.60</ele>
	<time>2024-09-06T09:29:50.000Z</time>
</trkpt>
<trkpt lat="46.1454910" lon="10.1454360">
	<ele>1299.40</ele>
	<time>2024-09-06T09:29:51.000Z</time>
</trkpt>
<trkpt lat="46.1455060" lon="10.1454360">
	<ele>1299.20</ele>
	<time>2024-09-06T09:29:52.000Z</time>
</trkpt>
<trkpt lat="46.1455170" lon="10.1454370">
	<ele>1298.80</ele>
	<time>2024-09-06T09:29:53.000Z</time>
</trkpt>
<trkpt lat="46.1455290" lon="10.1454370">
	<ele>1298.60</ele>
	<time>2024-09-06T09:29:54.000Z</time>
</trkpt>
<trkpt lat="46.1455400" lon="10.1454400">
	<ele>1298.40</ele>
	<time>2024-09-06T09:29:55.000Z</time>
</trkpt>
<trkpt lat="46.1455500" lon="10.1454430">
	<ele>1298.00</ele>
	<time>2024-09-06T09:29:56.000Z</time>
</trkpt>
<trkpt lat="46.1455630" lon="10.1454440">
	<ele>1297.60</ele>
	<time>2024-09-06T09:29:57.000Z</time>
</trkpt>
<trkpt lat="46.1455760" lon="10.1454450">
	<ele>1297.20</ele>
	<time>2024-09-06T09:29:58.000Z</time>
</trkpt>
<trkpt lat="46.1455880" lon="10.1454440">
	<ele>1296.80</ele>
	<time>2024-09-06T09:29:59.000Z</time>
</trkpt>
<trkpt lat="46.1455990" lon="10.1454430">
	<ele>1296.20</ele>
	<time>2024-09-06T09:30:00.000Z</time>
</trkpt>
<trkpt lat="46.1456100" lon="10.1454450">
	<ele>1295.80</ele>
	<time>2024-09-06T09:30:01.000Z</time>
</trkpt>
<trkpt lat="46.1456220" lon="10.1454440">
	<ele>1295.40</ele>
	<time>2024-09-06T09:30:02.000Z</time>
</trkpt>
<trkpt lat="46.1456340" lon="10.1454450">
	<ele>1295.00</ele>
	<time>2024-09-06T09:30:03.000Z</time>
</trkpt>
<trkpt lat="46.1456440" lon="10.1454450">
	<ele>1294.60</ele>
	<time>2024-09-06T09:30:04.000Z</time>
</trkpt>
<trkpt lat="46.1456560" lon="10.1454450">
	<ele>1294.20</ele>
	<time>2024-09-06T09:30:05.000Z</time>
</trkpt>
<trkpt lat="46.1456690" lon="10.1454460">
	<ele>1293.80</ele>
	<time>2024-09-06T09:30:06.000Z</time>
</trkpt>
<trkpt lat="46.1456820" lon="10.1454480">
	<ele>1293.60</ele>
	<time>2024-09-06T09:30:07.000Z</time>
</trkpt>
<trkpt lat="46.1456950" lon="10.1454530">
	<ele>1293.40</ele>
	<time>2024-09-06T09:30:08.000Z</time>
</trkpt>
<trkpt lat="46.1457080" lon="10.1454540">
	<ele>1293.00</ele>
	<time>2024-09-06T09:30:09.000Z</time>
</trkpt>
<trkpt lat="46.1457230" lon="10.1454560">
	<ele>1292.60</ele>
	<time>2024-09-06T09:30:10.000Z</time>
</trkpt>
<trkpt lat="46.1457360" lon="10.1454540">
	<ele>1292.20</ele>
	<time>2024-09-06T09:30:11.000Z</time>
</trkpt>
<trkpt lat="46.1457490" lon="10.1454550">
	<ele>1291.80</ele>
	<time>2024-09-06T09:30:12.000Z</time>
</trkpt>
<trkpt lat="46.1457630" lon="10.1454570">
	<ele>1291.60</ele>
	<time>2024-09-06T09:30:13.000Z</time>
</trkpt>
<trkpt lat="46.1457780" lon="10.1454590">
	<ele>1291.40</ele>
	<time>2024-09-06T09:30:14.000Z</time>
</trkpt>
<trkpt lat="46.1457930" lon="10.1454610">
	<ele>1291.20</ele>
	<time>2024-09-06T09:30:15.000Z</time>
</trkpt>
<trkpt lat="46.1458080" lon="10.1454650">
	<ele>1291.00</ele>
	<time>2024-09-06T09:30:16.000Z</time>
</trkpt>
<trkpt lat="46.1458200" lon="10.1454640">
	<ele>1290.60</ele>
	<time>2024-09-06T09:30:17.000Z</time>
</trkpt>
<trkpt lat="46.1458330" lon="10.1454620">
	<ele>1290.40</ele>
	<time>2024-09-06T09:30:18.000Z</time>
</trkpt>
<trkpt lat="46.1458450" lon="10.1454590">
	<ele>1290.20</ele>
	<time>2024-09-06T09:30:19.000Z</time>
</trkpt>
<trkpt lat="46.1458560" lon="10.1454550">
	<ele>1289.80</ele>
	<time>2024-09-06T09:30:20.000Z</time>
</trkpt>
<trkpt lat="46.1458660" lon="10.1454510">
	<ele>1289.60</ele>
	<time>2024-09-06T09:30:21.000Z</time>
</trkpt>
<trkpt lat="46.1458780" lon="10.1454550">
	<ele>1289.40</ele>
	<time>2024-09-06T09:30:22.000Z</time>
</trkpt>
<trkpt lat="46.1458910" lon="10.1454570">
	<ele>1289.00</ele>
	<time>2024-09-06T09:30:23.000Z</time>
</trkpt>
<trkpt lat="46.1459030" lon="10.1454570">
	<ele>1289.00</ele>
	<time>2024-09-06T09:30:24.000Z</time>
</trkpt>
<trkpt lat="46.1459180" lon="10.1454640">
	<ele>1288.60</ele>
	<time>2024-09-06T09:30:25.000Z</time>
</trkpt>
<trkpt lat="46.1459290" lon="10.1454680">
	<ele>1288.40</ele>
	<time>2024-09-06T09:30:26.000Z</time>
</trkpt>
<trkpt lat="46.1459410" lon="10.1454700">
	<ele>1288.00</ele>
	<time>2024-09-06T09:30:27.000Z</time>
</trkpt>
<trkpt lat="46.1459530" lon="10.1454710">
	<ele>1287.80</ele>
	<time>2024-09-06T09:30:28.000Z</time>
</trkpt>
<trkpt lat="46.1459660" lon="10.1454690">
	<ele>1287.40</ele>
	<time>2024-09-06T09:30:29.000Z</time>
</trkpt>
<trkpt lat="46.1459760" lon="10.1454680">
	<ele>1287.00</ele>
	<time>2024-09-06T09:30:30.000Z</time>
</trkpt>
<trkpt lat="46.1459900" lon="10.1454660">
	<ele>1286.80</ele>
	<time>2024-09-06T09:30:31.000Z</time>
</trkpt>
<trkpt lat="46.1460060" lon="10.1454680">
	<ele>1286.60</ele>
	<time>2024-09-06T09:30:32.000Z</time>
</trkpt>
<trkpt lat="46.1460210" lon="10.1454680">
	<ele>1286.40</ele>
	<time>2024-09-06T09:30:33.000Z</time>
</trkpt>
<trkpt lat="46.1460350" lon="10.1454660">
	<ele>1286.20</ele>
	<time>2024-09-06T09:30:34.000Z</time>
</trkpt>
<trkpt lat="46.1460480" lon="10.1454620">
	<ele>1286.00</ele>
	<time>2024-09-06T09:30:35.000Z</time>
</trkpt>
<trkpt lat="46.1460620" lon="10.1454590">
	<ele>1285.80</ele>
	<time>2024-09-06T09:30:36.000Z</time>
</trkpt>
<trkpt lat="46.1460770" lon="10.1454560">
	<ele>1285.60</ele>
	<time>2024-09-06T09:30:37.000Z</time>
</trkpt>
<trkpt lat="46.1460910" lon="10.1454540">
	<ele>1285.40</ele>
	<time>2024-09-06T09:30:38.000Z</time>
</trkpt>
<trkpt lat="46.1461050" lon="10.1454520">
	<ele>1285.00</ele>
	<time>2024-09-06T09:30:39.000Z</time>
</trkpt>
<trkpt lat="46.1461190" lon="10.1454480">
	<ele>1284.60</ele>
	<time>2024-09-06T09:30:40.000Z</time>
</trkpt>
<trkpt lat="46.1461310" lon="10.1454430">
	<ele>1284.40</ele>
	<time>2024-09-06T09:30:41.000Z</time>
</trkpt>
<trkpt lat="46.1461450" lon="10.1454360">
	<ele>1284.20</ele>
	<time>2024-09-06T09:30:42.000Z</time>
</trkpt>
<trkpt lat="46.1461580" lon="10.1454270">
	<ele>1284.00</ele>
	<time>2024-09-06T09:30:43.000Z</time>
</trkpt>
<trkpt lat="46.1461710" lon="10.1454180">
	<ele>1283.60</ele>
	<time>2024-09-06T09:30:44.000Z</time>
</trkpt>
<trkpt lat="46.1461850" lon="10.1454130">
	<ele>1283.40</ele>
	<time>2024-09-06T09:30:45.000Z</time>
</trkpt>
<trkpt lat="46.1461970" lon="10.1454090">
	<ele>1283.20</ele>
	<time>2024-09-06T09:30:46.000Z</time>
</trkpt>
<trkpt lat="46.1462100" lon="10.1454070">
	<ele>1282.80</ele>
	<time>2024-09-06T09:30:47.000Z</time>
</trkpt>
<trkpt lat="46.1462220" lon="10.1454040">
	<ele>1282.60</ele>
	<time>2024-09-06T09:30:48.000Z</time>
</trkpt>
<trkpt lat="46.1462330" lon="10.1453980">
	<ele>1282.20</ele>
	<time>2024-09-06T09:30:49.000Z</time>
</trkpt>
<trkpt lat="46.1462450" lon="10.1453950">
	<ele>1282.00</ele>
	<time>2024-09-06T09:30:50.000Z</time>
</trkpt>
<trkpt lat="46.1462560" lon="10.1453920">
	<ele>1281.60</ele>
	<time>2024-09-06T09:30:51.000Z</time>
</trkpt>
<trkpt lat="46.1462720" lon="10.1453880">
	<ele>1281.40</ele>
	<time>2024-09-06T09:30:52.000Z</time>
</trkpt>
<trkpt lat="46.1462820" lon="10.1453850">
	<ele>1281.00</ele>
	<time>2024-09-06T09:30:53.000Z</time>
</trkpt>
<trkpt lat="46.1462980" lon="10.1453820">
	<ele>1280.80</ele>
	<time>2024-09-06T09:30:54.000Z</time>
</trkpt>
<trkpt lat="46.1463070" lon="10.1453820">
	<ele>1280.40</ele>
	<time>2024-09-06T09:30:55.000Z</time>
</trkpt>
<trkpt lat="46.1463230" lon="10.1453820">
	<ele>1280.20</ele>
	<time>2024-09-06T09:30:56.000Z</time>
</trkpt>
<trkpt lat="46.1463370" lon="10.1453820">
	<ele>1279.80</ele>
	<time>2024-09-06T09:30:57.000Z</time>
</trkpt>
<trkpt lat="46.1463510" lon="10.1453840">
	<ele>1279.60</ele>
	<time>2024-09-06T09:30:58.000Z</time>
</trkpt>
<trkpt lat="46.1463650" lon="10.1453860">
	<ele>1279.40</ele>
	<time>2024-09-06T09:30:59.000Z</time>
</trkpt>
<trkpt lat="46.1463780" lon="10.1453900">
	<ele>1279.20</ele>
	<time>2024-09-06T09:31:00.000Z</time>
</trkpt>
<trkpt lat="46.1463900" lon="10.1453950">
	<ele>1279.00</ele>
	<time>2024-09-06T09:31:01.000Z</time>
</trkpt>
<trkpt lat="46.1464030" lon="10.1453980">
	<ele>1279.00</ele>
	<time>2024-09-06T09:31:02.000Z</time>
</trkpt>
<trkpt lat="46.1464150" lon="10.1454050">
	<ele>1278.80</ele>
	<time>2024-09-06T09:31:03.000Z</time>
</trkpt>
<trkpt lat="46.1464270" lon="10.1454120">
	<ele>1278.60</ele>
	<time>2024-09-06T09:31:04.000Z</time>
</trkpt>
<trkpt lat="46.1464360" lon="10.1454140">
	<ele>1278.00</ele>
	<time>2024-09-06T09:31:05.000Z</time>
</trkpt>
<trkpt lat="46.1464480" lon="10.1454160">
	<ele>1277.80</ele>
	<time>2024-09-06T09:31:06.000Z</time>
</trkpt>
<trkpt lat="46.1464580" lon="10.1454140">
	<ele>1277.40</ele>
	<time>2024-09-06T09:31:07.000Z</time>
</trkpt>
<trkpt lat="46.1464690" lon="10.1454140">
	<ele>1277.40</ele>
	<time>2024-09-06T09:31:08.000Z</time>
</trkpt>
<trkpt lat="46.1464780" lon="10.1454130">
	<ele>1277.20</ele>
	<time>2024-09-06T09:31:09.000Z</time>
</trkpt>
<trkpt lat="46.1464830" lon="10.1454120">
	<ele>1276.80</ele>
	<time>2024-09-06T09:31:10.000Z</time>
</trkpt>
<trkpt lat="46.1464860" lon="10.1454100">
	<ele>1276.80</ele>
	<time>2024-09-06T09:31:11.000Z</time>
</trkpt>
<trkpt lat="46.1464870" lon="10.1454090">
	<ele>1276.60</ele>
	<time>2024-09-06T09:31:12.000Z</time>
</trkpt>
<trkpt lat="46.1464880" lon="10.1454090">
	<ele>1276.60</ele>
	<time>2024-09-06T09:31:13.000Z</time>
</trkpt>
<trkpt lat="46.1464890" lon="10.1454090">
	<ele>1276.40</ele>
	<time>2024-09-06T09:31:14.000Z</time>
</trkpt>
<trkpt lat="46.1464980" lon="10.1454100">
	<ele>1276.40</ele>
	<time>2024-09-06T09:31:15.000Z</time>
</trkpt>
<trkpt lat="46.1465020" lon="10.1454090">
	<ele>1276.40</ele>
	<time>2024-09-06T09:31:16.000Z</time>
</trkpt>
<trkpt lat="46.1465110" lon="10.1454120">
	<ele>1276.40</ele>
	<time>2024-09-06T09:31:17.000Z</time>
</trkpt>
<trkpt lat="46.1465220" lon="10.1454150">
	<ele>1276.20</ele>
	<time>2024-09-06T09:31:18.000Z</time>
</trkpt>
<trkpt lat="46.1465320" lon="10.1454200">
	<ele>1276.20</ele>
	<time>2024-09-06T09:31:19.000Z</time>
</trkpt>
<trkpt lat="46.1465400" lon="10.1454260">
	<ele>1276.00</ele>
	<time>2024-09-06T09:31:20.000Z</time>
</trkpt>
<trkpt lat="46.1465480" lon="10.1454320">
	<ele>1275.80</ele>
	<time>2024-09-06T09:31:21.000Z</time>
</trkpt>
<trkpt lat="46.1465560" lon="10.1454360">
	<ele>1275.60</ele>
	<time>2024-09-06T09:31:22.000Z</time>
</trkpt>
<trkpt lat="46.1465650" lon="10.1454430">
	<ele>1275.40</ele>
	<time>2024-09-06T09:31:23.000Z</time>
</trkpt>
<trkpt lat="46.1465750" lon="10.1454510">
	<ele>1275.40</ele>
	<time>2024-09-06T09:31:24.000Z</time>
</trkpt>
<trkpt lat="46.1465830" lon="10.1454610">
	<ele>1275.40</ele>
	<time>2024-09-06T09:31:25.000Z</time>
</trkpt>
<trkpt lat="46.1465950" lon="10.1454730">
	<ele>1275.20</ele>
	<time>2024-09-06T09:31:26.000Z</time>
</trkpt>
<trkpt lat="46.1466070" lon="10.1454840">
	<ele>1275.20</ele>
	<time>2024-09-06T09:31:27.000Z</time>
</trkpt>
<trkpt lat="46.1466180" lon="10.1454940">
	<ele>1275.20</ele>
	<time>2024-09-06T09:31:28.000Z</time>
</trkpt>
<trkpt lat="46.1466280" lon="10.1455010">
	<ele>1275.20</ele>
	<time>2024-09-06T09:31:29.000Z</time>
</trkpt>
<trkpt lat="46.1466370" lon="10.1455090">
	<ele>1275.00</ele>
	<time>2024-09-06T09:31:30.000Z</time>
</trkpt>
<trkpt lat="46.1466450" lon="10.1455190">
	<ele>1274.80</ele>
	<time>2024-09-06T09:31:31.000Z</time>
</trkpt>
<trkpt lat="46.1466500" lon="10.1455210">
	<ele>1274.60</ele>
	<time>2024-09-06T09:31:32.000Z</time>
</trkpt>
<trkpt lat="46.1466520" lon="10.1455220">
	<ele>1274.60</ele>
	<time>2024-09-06T09:31:33.000Z</time>
</trkpt>
<trkpt lat="46.1466530" lon="10.1455230">
	<ele>1274.60</ele>
	<time>2024-09-06T09:31:34.000Z</time>
</trkpt>
<trkpt lat="46.1466560" lon="10.1455260">
	<ele>1274.60</ele>
	<time>2024-09-06T09:31:35.000Z</time>
</trkpt>
<trkpt lat="46.1466590" lon="10.1455270">
	<ele>1274.40</ele>
	<time>2024-09-06T09:31:36.000Z</time>
</trkpt>
<trkpt lat="46.1466630" lon="10.1455280">
	<ele>1274.60</ele>
	<time>2024-09-06T09:31:37.000Z</time>
</trkpt>
<trkpt lat="46.1466640" lon="10.1455290">
	<ele>1274.60</ele>
	<time>2024-09-06T09:31:38.000Z</time>
</trkpt>
<trkpt lat="46.1466640" lon="10.1455290">
	<ele>1274.60</ele>
	<time>2024-09-06T09:31:39.000Z</time>
</trkpt>
<trkpt lat="46.1466620" lon="10.1455270">
	<ele>1274.60</ele>
	<time>2024-09-06T09:31:40.000Z</time>
</trkpt>
<trkpt lat="46.1466610" lon="10.1455220">
	<ele>1274.60</ele>
	<time>2024-09-06T09:31:41.000Z</time>
</trkpt>
<trkpt lat="46.1466600" lon="10.1455180">
	<ele>1274.60</ele>
	<time>2024-09-06T09:31:42.000Z</time>
</trkpt>
<trkpt lat="46.1466590" lon="10.1455180">
	<ele>1274.80</ele>
	<time>2024-09-06T09:31:43.000Z</time>
</trkpt>
<trkpt lat="46.1466590" lon="10.1455190">
	<ele>1274.60</ele>
	<time>2024-09-06T09:31:44.000Z</time>
</trkpt>
<trkpt lat="46.1466620" lon="10.1455240">
	<ele>1274.60</ele>
	<time>2024-09-06T09:31:45.000Z</time>
</trkpt>
<trkpt lat="46.1466700" lon="10.1455360">
	<ele>1274.40</ele>
	<time>2024-09-06T09:31:46.000Z</time>
</trkpt>
<trkpt lat="46.1466800" lon="10.1455480">
	<ele>1274.40</ele>
	<time>2024-09-06T09:31:47.000Z</time>
</trkpt>
<trkpt lat="46.1466900" lon="10.1455570">
	<ele>1274.20</ele>
	<time>2024-09-06T09:31:48.000Z</time>
</trkpt>
<trkpt lat="46.1467000" lon="10.1455670">
	<ele>1274.00</ele>
	<time>2024-09-06T09:31:49.000Z</time>
</trkpt>
<trkpt lat="46.1467100" lon="10.1455770">
	<ele>1274.00</ele>
	<time>2024-09-06T09:31:50.000Z</time>
</trkpt>
<trkpt lat="46.1467210" lon="10.1455870">
	<ele>1273.80</ele>
	<time>2024-09-06T09:31:51.000Z</time>
</trkpt>
<trkpt lat="46.1467310" lon="10.1455970">
	<ele>1273.80</ele>
	<time>2024-09-06T09:31:52.000Z</time>
</trkpt>
<trkpt lat="46.1467390" lon="10.1456070">
	<ele>1273.80</ele>
	<time>2024-09-06T09:31:53.000Z</time>
</trkpt>
<trkpt lat="46.1467490" lon="10.1456180">
	<ele>1273.60</ele>
	<time>2024-09-06T09:31:54.000Z</time>
</trkpt>
<trkpt lat="46.1467600" lon="10.1456290">
	<ele>1273.40</ele>
	<time>2024-09-06T09:31:55.000Z</time>
</trkpt>
<trkpt lat="46.1467700" lon="10.1456390">
	<ele>1273.20</ele>
	<time>2024-09-06T09:31:56.000Z</time>
</trkpt>
<trkpt lat="46.1467780" lon="10.1456530">
	<ele>1273.00</ele>
	<time>2024-09-06T09:31:57.000Z</time>
</trkpt>
<trkpt lat="46.1467850" lon="10.1456620">
	<ele>1272.80</ele>
	<time>2024-09-06T09:31:58.000Z</time>
</trkpt>
<trkpt lat="46.1467940" lon="10.1456670">
	<ele>1272.60</ele>
	<time>2024-09-06T09:31:59.000Z</time>
</trkpt>
<trkpt lat="46.1468050" lon="10.1456750">
	<ele>1272.60</ele>
	<time>2024-09-06T09:32:00.000Z</time>
</trkpt>
<trkpt lat="46.1468160" lon="10.1456840">
	<ele>1272.60</ele>
	<time>2024-09-06T09:32:01.000Z</time>
</trkpt>
<trkpt lat="46.1468250" lon="10.1456900">
	<ele>1272.40</ele>
	<time>2024-09-06T09:32:02.000Z</time>
</trkpt>
<trkpt lat="46.1468360" lon="10.1456910">
	<ele>1272.20</ele>
	<time>2024-09-06T09:32:03.000Z</time>
</trkpt>
<trkpt lat="46.1468420" lon="10.1456890">
	<ele>1272.00</ele>
	<time>2024-09-06T09:32:04.000Z</time>
</trkpt>
<trkpt lat="46.1468490" lon="10.1456910">
	<ele>1271.80</ele>
	<time>2024-09-06T09:32:05.000Z</time>
</trkpt>
<trkpt lat="46.1468540" lon="10.1456990">
	<ele>1271.80</ele>
	<time>2024-09-06T09:32:06.000Z</time>
</trkpt>
<trkpt lat="46.1468590" lon="10.1457110">
	<ele>1271.40</ele>
	<time>2024-09-06T09:32:07.000Z</time>
</trkpt>
<trkpt lat="46.1468660" lon="10.1457220">
	<ele>1271.20</ele>
	<time>2024-09-06T09:32:08.000Z</time>
</trkpt>
<trkpt lat="46.1468770" lon="10.1457310">
	<ele>1270.80</ele>
	<time>2024-09-06T09:32:09.000Z</time>
</trkpt>
<trkpt lat="46.1468850" lon="10.1457330">
	<ele>1270.60</ele>
	<time>2024-09-06T09:32:10.000Z</time>
</trkpt>
<trkpt lat="46.1468950" lon="10.1457340">
	<ele>1270.40</ele>
	<time>2024-09-06T09:32:11.000Z</time>
</trkpt>
<trkpt lat="46.1469030" lon="10.1457310">
	<ele>1270.20</ele>
	<time>2024-09-06T09:32:12.000Z</time>
</trkpt>
<trkpt lat="46.1469100" lon="10.1457280">
	<ele>1269.60</ele>
	<time>2024-09-06T09:32:13.000Z</time>
</trkpt>
<trkpt lat="46.1469180" lon="10.1457290">
	<ele>1269.40</ele>
	<time>2024-09-06T09:32:14.000Z</time>
</trkpt>
<trkpt lat="46.1469230" lon="10.1457290">
	<ele>1269.20</ele>
	<time>2024-09-06T09:32:15.000Z</time>
</trkpt>
<trkpt lat="46.1469290" lon="10.1457230">
	<ele>1268.80</ele>
	<time>2024-09-06T09:32:16.000Z</time>
</trkpt>
<trkpt lat="46.1469410" lon="10.1457180">
	<ele>1268.60</ele>
	<time>2024-09-06T09:32:17.000Z</time>
</trkpt>
<trkpt lat="46.1469490" lon="10.1457150">
	<ele>1268.20</ele>
	<time>2024-09-06T09:32:18.000Z</time>
</trkpt>
<trkpt lat="46.1469560" lon="10.1457140">
	<ele>1268.00</ele>
	<time>2024-09-06T09:32:19.000Z</time>
</trkpt>
<trkpt lat="46.1469640" lon="10.1457130">
	<ele>1267.60</ele>
	<time>2024-09-06T09:32:20.000Z</time>
</trkpt>
<trkpt lat="46.1469750" lon="10.1457140">
	<ele>1267.20</ele>
	<time>2024-09-06T09:32:21.000Z</time>
</trkpt>
<trkpt lat="46.1469790" lon="10.1457160">
	<ele>1267.20</ele>
	<time>2024-09-06T09:32:22.000Z</time>
</trkpt>
<trkpt lat="46.1469800" lon="10.1457220">
	<ele>1266.80</ele>
	<time>2024-09-06T09:32:23.000Z</time>
</trkpt>
<trkpt lat="46.1469860" lon="10.1457290">
	<ele>1266.40</ele>
	<time>2024-09-06T09:32:24.000Z</time>
</trkpt>
<trkpt lat="46.1469880" lon="10.1457360">
	<ele>1266.20</ele>
	<time>2024-09-06T09:32:25.000Z</time>
</trkpt>
<trkpt lat="46.1469960" lon="10.1457400">
	<ele>1265.80</ele>
	<time>2024-09-06T09:32:26.000Z</time>
</trkpt>
<trkpt lat="46.1469990" lon="10.1457450">
	<ele>1265.40</ele>
	<time>2024-09-06T09:32:27.000Z</time>
</trkpt>
<trkpt lat="46.1469980" lon="10.1457500">
	<ele>1265.20</ele>
	<time>2024-09-06T09:32:28.000Z</time>
</trkpt>
<trkpt lat="46.1470020" lon="10.1457600">
	<ele>1265.00</ele>
	<time>2024-09-06T09:32:29.000Z</time>
</trkpt>
<trkpt lat="46.1470020" lon="10.1457680">
	<ele>1264.60</ele>
	<time>2024-09-06T09:32:30.000Z</time>
</trkpt>
<trkpt lat="46.1470050" lon="10.1457780">
	<ele>1264.40</ele>
	<time>2024-09-06T09:32:31.000Z</time>
</trkpt>
<trkpt lat="46.1470040" lon="10.1457920">
	<ele>1264.00</ele>
	<time>2024-09-06T09:32:32.000Z</time>
</trkpt>
<trkpt lat="46.1470010" lon="10.1458020">
	<ele>1264.00</ele>
	<time>2024-09-06T09:32:33.000Z</time>
</trkpt>
<trkpt lat="46.1469970" lon="10.1458170">
	<ele>1263.80</ele>
	<time>2024-09-06T09:32:34.000Z</time>
</trkpt>
<trkpt lat="46.1470020" lon="10.1458290">
	<ele>1263.40</ele>
	<time>2024-09-06T09:32:35.000Z</time>
</trkpt>
<trkpt lat="46.1470100" lon="10.1458400">
	<ele>1263.20</ele>
	<time>2024-09-06T09:32:36.000Z</time>
</trkpt>
<trkpt lat="46.1470160" lon="10.1458470">
	<ele>1262.60</ele>
	<time>2024-09-06T09:32:37.000Z</time>
</trkpt>
<trkpt lat="46.1470230" lon="10.1458550">
	<ele>1262.20</ele>
	<time>2024-09-06T09:32:38.000Z</time>
</trkpt>
<trkpt lat="46.1470300" lon="10.1458620">
	<ele>1262.00</ele>
	<time>2024-09-06T09:32:39.000Z</time>
</trkpt>
<trkpt lat="46.1470380" lon="10.1458760">
	<ele>1261.60</ele>
	<time>2024-09-06T09:32:40.000Z</time>
</trkpt>
<trkpt lat="46.1470490" lon="10.1458840">
	<ele>1261.40</ele>
	<time>2024-09-06T09:32:41.000Z</time>
</trkpt>
<trkpt lat="46.1470610" lon="10.1458850">
	<ele>1261.20</ele>
	<time>2024-09-06T09:32:42.000Z</time>
</trkpt>
<trkpt lat="46.1470760" lon="10.1458910">
	<ele>1260.60</ele>
	<time>2024-09-06T09:32:43.000Z</time>
</trkpt>
<trkpt lat="46.1470810" lon="10.1458960">
	<ele>1260.40</ele>
	<time>2024-09-06T09:32:44.000Z</time>
</trkpt>
<trkpt lat="46.1470870" lon="10.1459040">
	<ele>1260.00</ele>
	<time>2024-09-06T09:32:45.000Z</time>
</trkpt>
<trkpt lat="46.1470920" lon="10.1459140">
	<ele>1259.60</ele>
	<time>2024-09-06T09:32:46.000Z</time>
</trkpt>
<trkpt lat="46.1471000" lon="10.1459230">
	<ele>1259.20</ele>
	<time>2024-09-06T09:32:47.000Z</time>
</trkpt>
<trkpt lat="46.1471060" lon="10.1459320">
	<ele>1258.80</ele>
	<time>2024-09-06T09:32:48.000Z</time>
</trkpt>
<trkpt lat="46.1471130" lon="10.1459420">
	<ele>1258.60</ele>
	<time>2024-09-06T09:32:49.000Z</time>
</trkpt>
<trkpt lat="46.1471150" lon="10.1459460">
	<ele>1258.40</ele>
	<time>2024-09-06T09:32:50.000Z</time>
</trkpt>
<trkpt lat="46.1471170" lon="10.1459480">
	<ele>1258.20</ele>
	<time>2024-09-06T09:32:51.000Z</time>
</trkpt>
<trkpt lat="46.1471210" lon="10.1459470">
	<ele>1258.00</ele>
	<time>2024-09-06T09:32:52.000Z</time>
</trkpt>
<trkpt lat="46.1471280" lon="10.1459500">
	<ele>1257.40</ele>
	<time>2024-09-06T09:32:53.000Z</time>
</trkpt>
<trkpt lat="46.1471360" lon="10.1459570">
	<ele>1257.20</ele>
	<time>2024-09-06T09:32:54.000Z</time>
</trkpt>
<trkpt lat="46.1471400" lon="10.1459590">
	<ele>1256.80</ele>
	<time>2024-09-06T09:32:55.000Z</time>
</trkpt>
<trkpt lat="46.1471470" lon="10.1459610">
	<ele>1256.60</ele>
	<time>2024-09-06T09:32:56.000Z</time>
</trkpt>
<trkpt lat="46.1471540" lon="10.1459600">
	<ele>1256.40</ele>
	<time>2024-09-06T09:32:57.000Z</time>
</trkpt>
<trkpt lat="46.1471560" lon="10.1459550">
	<ele>1256.20</ele>
	<time>2024-09-06T09:32:58.000Z</time>
</trkpt>
<trkpt lat="46.1471700" lon="10.1459660">
	<ele>1256.00</ele>
	<time>2024-09-06T09:32:59.000Z</time>
</trkpt>
<trkpt lat="46.1471780" lon="10.1459750">
	<ele>1255.80</ele>
	<time>2024-09-06T09:33:00.000Z</time>
</trkpt>
<trkpt lat="46.1471820" lon="10.1459740">
	<ele>1255.40</ele>
	<time>2024-09-06T09:33:01.000Z</time>
</trkpt>
<trkpt lat="46.1471910" lon="10.1459790">
	<ele>1255.40</ele>
	<time>2024-09-06T09:33:02.000Z</time>
</trkpt>
<trkpt lat="46.1471930" lon="10.1459820">
	<ele>1255.20</ele>
	<time>2024-09-06T09:33:03.000Z</time>
</trkpt>
<trkpt lat="46.1471950" lon="10.1459840">
	<ele>1254.80</ele>
	<time>2024-09-06T09:33:04.000Z</time>
</trkpt>
<trkpt lat="46.1471970" lon="10.1459940">
	<ele>1254.60</ele>
	<time>2024-09-06T09:33:05.000Z</time>
</trkpt>
<trkpt lat="46.1472030" lon="10.1460060">
	<ele>1254.40</ele>
	<time>2024-09-06T09:33:06.000Z</time>
</trkpt>
<trkpt lat="46.1472080" lon="10.1460130">
	<ele>1254.20</ele>
	<time>2024-09-06T09:33:07.000Z</time>
</trkpt>
<trkpt lat="46.1472100" lon="10.1460210">
	<ele>1254.00</ele>
	<time>2024-09-06T09:33:08.000Z</time>
</trkpt>
<trkpt lat="46.1472130" lon="10.1460250">
	<ele>1253.80</ele>
	<time>2024-09-06T09:33:09.000Z</time>
</trkpt>
<trkpt lat="46.1472130" lon="10.1460330">
	<ele>1253.40</ele>
	<time>2024-09-06T09:33:10.000Z</time>
</trkpt>
<trkpt lat="46.1472140" lon="10.1460420">
	<ele>1253.40</ele>
	<time>2024-09-06T09:33:11.000Z</time>
</trkpt>
<trkpt lat="46.1472150" lon="10.1460560">
	<ele>1253.00</ele>
	<time>2024-09-06T09:33:12.000Z</time>
</trkpt>
<trkpt lat="46.1472150" lon="10.1460590">
	<ele>1252.80</ele>
	<time>2024-09-06T09:33:13.000Z</time>
</trkpt>
<trkpt lat="46.1472170" lon="10.1460630">
	<ele>1252.60</ele>
	<time>2024-09-06T09:33:14.000Z</time>
</trkpt>
<trkpt lat="46.1472180" lon="10.1460650">
	<ele>1252.40</ele>
	<time>2024-09-06T09:33:15.000Z</time>
</trkpt>
<trkpt lat="46.1472180" lon="10.1460670">
	<ele>1252.00</ele>
	<time>2024-09-06T09:33:16.000Z</time>
</trkpt>
<trkpt lat="46.1472180" lon="10.1460680">
	<ele>1251.80</ele>
	<time>2024-09-06T09:33:17.000Z</time>
</trkpt>
<trkpt lat="46.1472200" lon="10.1460710">
	<ele>1251.80</ele>
	<time>2024-09-06T09:33:18.000Z</time>
</trkpt>
<trkpt lat="46.1472220" lon="10.1460690">
	<ele>1251.80</ele>
	<time>2024-09-06T09:33:19.000Z</time>
</trkpt>
<trkpt lat="46.1472320" lon="10.1460730">
	<ele>1251.60</ele>
	<time>2024-09-06T09:33:20.000Z</time>
</trkpt>
<trkpt lat="46.1472410" lon="10.1460770">
	<ele>1251.60</ele>
	<time>2024-09-06T09:33:21.000Z</time>
</trkpt>
<trkpt lat="46.1472450" lon="10.1460780">
	<ele>1251.60</ele>
	<time>2024-09-06T09:33:22.000Z</time>
</trkpt>
<trkpt lat="46.1472450" lon="10.1460790">
	<ele>1251.40</ele>
	<time>2024-09-06T09:33:23.000Z</time>
</trkpt>
<trkpt lat="46.1472450" lon="10.1460790">
	<ele>1251.20</ele>
	<time>2024-09-06T09:33:24.000Z</time>
</trkpt>
<trkpt lat="46.1472450" lon="10.1460790">
	<ele>1251.00</ele>
	<time>2024-09-06T09:33:25.000Z</time>
</trkpt>
<trkpt lat="46.1472450" lon="10.1460790">
	<ele>1251.00</ele>
	<time>2024-09-06T09:33:26.000Z</time>
</trkpt>
<trkpt lat="46.1472450" lon="10.1460790">
	<ele>1250.80</ele>
	<time>2024-09-06T09:33:27.000Z</time>
</trkpt>
<trkpt lat="46.1472450" lon="10.1460790">
	<ele>1250.60</ele>
	<time>2024-09-06T09:33:28.000Z</time>
</trkpt>
<trkpt lat="46.1472450" lon="10.1460790">
	<ele>1250.20</ele>
	<time>2024-09-06T09:33:29.000Z</time>
</trkpt>
<trkpt lat="46.1472450" lon="10.1460790">
	<ele>1250.00</ele>
	<time>2024-09-06T09:33:30.000Z</time>
</trkpt>
<trkpt lat="46.1472450" lon="10.1460790">
	<ele>1249.80</ele>
	<time>2024-09-06T09:33:31.000Z</time>
</trkpt>
<trkpt lat="46.1472450" lon="10.1460790">
	<ele>1249.40</ele>
	<time>2024-09-06T09:33:32.000Z</time>
</trkpt>
<trkpt lat="46.1472450" lon="10.1460790">
	<ele>1249.00</ele>
	<time>2024-09-06T09:33:33.000Z</time>
</trkpt>
<trkpt lat="46.1472450" lon="10.1460790">
	<ele>1248.60</ele>
	<time>2024-09-06T09:33:34.000Z</time>
</trkpt>
<trkpt lat="46.1472450" lon="10.1460790">
	<ele>1248.40</ele>
	<time>2024-09-06T09:33:35.000Z</time>
</trkpt>
<trkpt lat="46.1472450" lon="10.1460790">
	<ele>1248.20</ele>
	<time>2024-09-06T09:33:36.000Z</time>
</trkpt>
<trkpt lat="46.1472450" lon="10.1460790">
	<ele>1247.80</ele>
	<time>2024-09-06T09:33:37.000Z</time>
</trkpt>
<trkpt lat="46.1472450" lon="10.1460790">
	<ele>1247.40</ele>
	<time>2024-09-06T09:33:38.000Z</time>
</trkpt>
<trkpt lat="46.1472460" lon="10.1460790">
	<ele>1247.00</ele>
	<time>2024-09-06T09:33:39.000Z</time>
</trkpt>
<trkpt lat="46.1472470" lon="10.1460800">
	<ele>1246.80</ele>
	<time>2024-09-06T09:33:40.000Z</time>
</trkpt>
<trkpt lat="46.1472470" lon="10.1460810">
	<ele>1246.40</ele>
	<time>2024-09-06T09:33:41.000Z</time>
</trkpt>
<trkpt lat="46.1472520" lon="10.1460910">
	<ele>1246.20</ele>
	<time>2024-09-06T09:33:42.000Z</time>
</trkpt>
<trkpt lat="46.1472620" lon="10.1461130">
	<ele>1246.00</ele>
	<time>2024-09-06T09:33:43.000Z</time>
</trkpt>
<trkpt lat="46.1472740" lon="10.1461290">
	<ele>1245.80</ele>
	<time>2024-09-06T09:33:44.000Z</time>
</trkpt>
<trkpt lat="46.1472900" lon="10.1461440">
	<ele>1245.60</ele>
	<time>2024-09-06T09:33:45.000Z</time>
</trkpt>
<trkpt lat="46.1473040" lon="10.1461590">
	<ele>1245.00</ele>
	<time>2024-09-06T09:33:46.000Z</time>
</trkpt>
<trkpt lat="46.1473180" lon="10.1461760">
	<ele>1244.60</ele>
	<time>2024-09-06T09:33:47.000Z</time>
</trkpt>
<trkpt lat="46.1473330" lon="10.1461950">
	<ele>1244.20</ele>
	<time>2024-09-06T09:33:48.000Z</time>
</trkpt>
<trkpt lat="46.1473500" lon="10.1462190">
	<ele>1243.80</ele>
	<time>2024-09-06T09:33:49.000Z</time>
</trkpt>
<trkpt lat="46.1473640" lon="10.1462440">
	<ele>1243.40</ele>
	<time>2024-09-06T09:33:50.000Z</time>
</trkpt>
<trkpt lat="46.1473770" lon="10.1462660">
	<ele>1243.20</ele>
	<time>2024-09-06T09:33:51.000Z</time>
</trkpt>
<trkpt lat="46.1473830" lon="10.1462780">
	<ele>1242.80</ele>
	<time>2024-09-06T09:33:52.000Z</time>
</trkpt>
<trkpt lat="46.1473870" lon="10.1462890">
	<ele>1242.60</ele>
	<time>2024-09-06T09:33:53.000Z</time>
</trkpt>
<trkpt lat="46.1473940" lon="10.1463000">
	<ele>1242.40</ele>
	<time>2024-09-06T09:33:54.000Z</time>
</trkpt>
<trkpt lat="46.1474010" lon="10.1463080">
	<ele>1242.00</ele>
	<time>2024-09-06T09:33:55.000Z</time>
</trkpt>
<trkpt lat="46.1474130" lon="10.1463200">
	<ele>1241.60</ele>
	<time>2024-09-06T09:33:56.000Z</time>
</trkpt>
<trkpt lat="46.1474190" lon="10.1463230">
	<ele>1241.20</ele>
	<time>2024-09-06T09:33:57.000Z</time>
</trkpt>
<trkpt lat="46.1474230" lon="10.1463250">
	<ele>1241.00</ele>
	<time>2024-09-06T09:33:58.000Z</time>
</trkpt>
<trkpt lat="46.1474290" lon="10.1463270">
	<ele>1240.80</ele>
	<time>2024-09-06T09:33:59.000Z</time>
</trkpt>
<trkpt lat="46.1474370" lon="10.1463300">
	<ele>1240.60</ele>
	<time>2024-09-06T09:34:00.000Z</time>
</trkpt>
<trkpt lat="46.1474380" lon="10.1463310">
	<ele>1240.20</ele>
	<time>2024-09-06T09:34:01.000Z</time>
</trkpt>
<trkpt lat="46.1474360" lon="10.1463290">
	<ele>1240.00</ele>
	<time>2024-09-06T09:34:02.000Z</time>
</trkpt>
<trkpt lat="46.1474340" lon="10.1463280">
	<ele>1240.00</ele>
	<time>2024-09-06T09:34:03.000Z</time>
</trkpt>
<trkpt lat="46.1474340" lon="10.1463280">
	<ele>1239.80</ele>
	<time>2024-09-06T09:34:04.000Z</time>
</trkpt>
<trkpt lat="46.1474360" lon="10.1463260">
	<ele>1239.80</ele>
	<time>2024-09-06T09:34:05.000Z</time>
</trkpt>
<trkpt lat="46.1474360" lon="10.1463310">
	<ele>1239.80</ele>
	<time>2024-09-06T09:34:06.000Z</time>
</trkpt>
<trkpt lat="46.1474410" lon="10.1463460">
	<ele>1239.80</ele>
	<time>2024-09-06T09:34:07.000Z</time>
</trkpt>
<trkpt lat="46.1474420" lon="10.1463480">
	<ele>1239.80</ele>
	<time>2024-09-06T09:34:08.000Z</time>
</trkpt>
<trkpt lat="46.1474470" lon="10.1463590">
	<ele>1239.80</ele>
	<time>2024-09-06T09:34:09.000Z</time>
</trkpt>
<trkpt lat="46.1474520" lon="10.1463640">
	<ele>1239.60</ele>
	<time>2024-09-06T09:34:10.000Z</time>
</trkpt>
<trkpt lat="46.1474590" lon="10.1463690">
	<ele>1239.40</ele>
	<time>2024-09-06T09:34:11.000Z</time>
</trkpt>
<trkpt lat="46.1474660" lon="10.1463660">
	<ele>1239.20</ele>
	<time>2024-09-06T09:34:12.000Z</time>
</trkpt>
<trkpt lat="46.1474700" lon="10.1463660">
	<ele>1239.00</ele>
	<time>2024-09-06T09:34:13.000Z</time>
</trkpt>
<trkpt lat="46.1474740" lon="10.1463690">
	<ele>1238.80</ele>
	<time>2024-09-06T09:34:14.000Z</time>
</trkpt>
<trkpt lat="46.1474800" lon="10.1463720">
	<ele>1238.60</ele>
	<time>2024-09-06T09:34:15.000Z</time>
</trkpt>
<trkpt lat="46.1474850" lon="10.1463760">
	<ele>1238.40</ele>
	<time>2024-09-06T09:34:16.000Z</time>
</trkpt>
<trkpt lat="46.1474920" lon="10.1463810">
	<ele>1238.20</ele>
	<time>2024-09-06T09:34:17.000Z</time>
</trkpt>
<trkpt lat="46.1474970" lon="10.1463800">
	<ele>1238.00</ele>
	<time>2024-09-06T09:34:18.000Z</time>
</trkpt>
<trkpt lat="46.1475050" lon="10.1463790">
	<ele>1237.60</ele>
	<time>2024-09-06T09:34:19.000Z</time>
</trkpt>
<trkpt lat="46.1475180" lon="10.1463830">
	<ele>1237.60</ele>
	<time>2024-09-06T09:34:20.000Z</time>
</trkpt>
<trkpt lat="46.1475230" lon="10.1463850">
	<ele>1237.40</ele>
	<time>2024-09-06T09:34:21.000Z</time>
</trkpt>
<trkpt lat="46.1475300" lon="10.1463860">
	<ele>1237.20</ele>
	<time>2024-09-06T09:34:22.000Z</time>
</trkpt>
<trkpt lat="46.1475370" lon="10.1463850">
	<ele>1236.60</ele>
	<time>2024-09-06T09:34:23.000Z</time>
</trkpt>
<trkpt lat="46.1475470" lon="10.1463870">
	<ele>1236.40</ele>
	<time>2024-09-06T09:34:24.000Z</time>
</trkpt>
<trkpt lat="46.1475550" lon="10.1463850">
	<ele>1236.20</ele>
	<time>2024-09-06T09:34:25.000Z</time>
</trkpt>
<trkpt lat="46.1475640" lon="10.1463770">
	<ele>1235.80</ele>
	<time>2024-09-06T09:34:26.000Z</time>
</trkpt>
<trkpt lat="46.1475670" lon="10.1463690">
	<ele>1235.60</ele>
	<time>2024-09-06T09:34:27.000Z</time>
</trkpt>
<trkpt lat="46.1475680" lon="10.1463590">
	<ele>1235.40</ele>
	<time>2024-09-06T09:34:28.000Z</time>
</trkpt>
<trkpt lat="46.1475740" lon="10.1463450">
	<ele>1235.20</ele>
	<time>2024-09-06T09:34:29.000Z</time>
</trkpt>
<trkpt lat="46.1475810" lon="10.1463380">
	<ele>1234.80</ele>
	<time>2024-09-06T09:34:30.000Z</time>
</trkpt>
<trkpt lat="46.1475870" lon="10.1463330">
	<ele>1234.80</ele>
	<time>2024-09-06T09:34:31.000Z</time>
</trkpt>
<trkpt lat="46.1476010" lon="10.1463330">
	<ele>1234.60</ele>
	<time>2024-09-06T09:34:32.000Z</time>
</trkpt>
<trkpt lat="46.1476090" lon="10.1463340">
	<ele>1234.40</ele>
	<time>2024-09-06T09:34:33.000Z</time>
</trkpt>
<trkpt lat="46.1476200" lon="10.1463420">
	<ele>1234.20</ele>
	<time>2024-09-06T09:34:34.000Z</time>
</trkpt>
<trkpt lat="46.1476260" lon="10.1463490">
	<ele>1233.80</ele>
	<time>2024-09-06T09:34:35.000Z</time>
</trkpt>
<trkpt lat="46.1476330" lon="10.1463590">
	<ele>1233.80</ele>
	<time>2024-09-06T09:34:36.000Z</time>
</trkpt>
<trkpt lat="46.1476430" lon="10.1463650">
	<ele>1233.40</ele>
	<time>2024-09-06T09:34:37.000Z</time>
</trkpt>
<trkpt lat="46.1476520" lon="10.1463710">
	<ele>1233.20</ele>
	<time>2024-09-06T09:34:38.000Z</time>
</trkpt>
<trkpt lat="46.1476570" lon="10.1463720">
	<ele>1233.00</ele>
	<time>2024-09-06T09:34:39.000Z</time>
</trkpt>
<trkpt lat="46.1476700" lon="10.1463710">
	<ele>1232.80</ele>
	<time>2024-09-06T09:34:40.000Z</time>
</trkpt>
<trkpt lat="46.1476810" lon="10.1463710">
	<ele>1232.60</ele>
	<time>2024-09-06T09:34:41.000Z</time>
</trkpt>
<trkpt lat="46.1476870" lon="10.1463770">
	<ele>1232.20</ele>
	<time>2024-09-06T09:34:42.000Z</time>
</trkpt>
<trkpt lat="46.1476930" lon="10.1463850">
	<ele>1231.80</ele>
	<time>2024-09-06T09:34:43.000Z</time>
</trkpt>
<trkpt lat="46.1476980" lon="10.1463920">
	<ele>1231.60</ele>
	<time>2024-09-06T09:34:44.000Z</time>
</trkpt>
<trkpt lat="46.1477050" lon="10.1463970">
	<ele>1231.40</ele>
	<time>2024-09-06T09:34:45.000Z</time>
</trkpt>
<trkpt lat="46.1477160" lon="10.1463960">
	<ele>1231.20</ele>
	<time>2024-09-06T09:34:46.000Z</time>
</trkpt>
<trkpt lat="46.1477240" lon="10.1463930">
	<ele>1231.00</ele>
	<time>2024-09-06T09:34:47.000Z</time>
</trkpt>
<trkpt lat="46.1477380" lon="10.1463940">
	<ele>1230.60</ele>
	<time>2024-09-06T09:34:48.000Z</time>
</trkpt>
<trkpt lat="46.1477460" lon="10.1463930">
	<ele>1230.40</ele>
	<time>2024-09-06T09:34:49.000Z</time>
</trkpt>
<trkpt lat="46.1477560" lon="10.1463890">
	<ele>1230.20</ele>
	<time>2024-09-06T09:34:50.000Z</time>
</trkpt>
<trkpt lat="46.1477560" lon="10.1463810">
	<ele>1230.00</ele>
	<time>2024-09-06T09:34:51.000Z</time>
</trkpt>
<trkpt lat="46.1477550" lon="10.1463760">
	<ele>1229.80</ele>
	<time>2024-09-06T09:34:52.000Z</time>
</trkpt>
<trkpt lat="46.1477600" lon="10.1463750">
	<ele>1229.40</ele>
	<time>2024-09-06T09:34:53.000Z</time>
</trkpt>
<trkpt lat="46.1477660" lon="10.1463800">
	<ele>1229.40</ele>
	<time>2024-09-06T09:34:54.000Z</time>
</trkpt>
<trkpt lat="46.1477720" lon="10.1463880">
	<ele>1229.00</ele>
	<time>2024-09-06T09:34:55.000Z</time>
</trkpt>
<trkpt lat="46.1477760" lon="10.1463940">
	<ele>1228.80</ele>
	<time>2024-09-06T09:34:56.000Z</time>
</trkpt>
<trkpt lat="46.1477770" lon="10.1463970">
	<ele>1228.80</ele>
	<time>2024-09-06T09:34:57.000Z</time>
</trkpt>
<trkpt lat="46.1477790" lon="10.1464030">
	<ele>1228.60</ele>
	<time>2024-09-06T09:34:58.000Z</time>
</trkpt>
<trkpt lat="46.1477840" lon="10.1464080">
	<ele>1228.60</ele>
	<time>2024-09-06T09:34:59.000Z</time>
</trkpt>
<trkpt lat="46.1477930" lon="10.1464110">
	<ele>1228.20</ele>
	<time>2024-09-06T09:35:00.000Z</time>
</trkpt>
<trkpt lat="46.1478010" lon="10.1464190">
	<ele>1227.80</ele>
	<time>2024-09-06T09:35:01.000Z</time>
</trkpt>
<trkpt lat="46.1478100" lon="10.1464310">
	<ele>1227.60</ele>
	<time>2024-09-06T09:35:02.000Z</time>
</trkpt>
<trkpt lat="46.1478180" lon="10.1464420">
	<ele>1227.40</ele>
	<time>2024-09-06T09:35:03.000Z</time>
</trkpt>
<trkpt lat="46.1478220" lon="10.1464500">
	<ele>1227.00</ele>
	<time>2024-09-06T09:35:04.000Z</time>
</trkpt>
<trkpt lat="46.1478280" lon="10.1464530">
	<ele>1226.60</ele>
	<time>2024-09-06T09:35:05.000Z</time>
</trkpt>
<trkpt lat="46.1478350" lon="10.1464630">
	<ele>1226.40</ele>
	<time>2024-09-06T09:35:06.000Z</time>
</trkpt>
<trkpt lat="46.1478410" lon="10.1464760">
	<ele>1226.20</ele>
	<time>2024-09-06T09:35:07.000Z</time>
</trkpt>
<trkpt lat="46.1478440" lon="10.1464820">
	<ele>1226.00</ele>
	<time>2024-09-06T09:35:08.000Z</time>
</trkpt>
<trkpt lat="46.1478460" lon="10.1464850">
	<ele>1225.60</ele>
	<time>2024-09-06T09:35:09.000Z</time>
</trkpt>
<trkpt lat="46.1478500" lon="10.1464950">
	<ele>1225.40</ele>
	<time>2024-09-06T09:35:10.000Z</time>
</trkpt>
<trkpt lat="46.1478510" lon="10.1465050">
	<ele>1225.20</ele>
	<time>2024-09-06T09:35:11.000Z</time>
</trkpt>
<trkpt lat="46.1478560" lon="10.1465110">
	<ele>1225.20</ele>
	<time>2024-09-06T09:35:12.000Z</time>
</trkpt>
<trkpt lat="46.1478630" lon="10.1465190">
	<ele>1224.80</ele>
	<time>2024-09-06T09:35:13.000Z</time>
</trkpt>
<trkpt lat="46.1478680" lon="10.1465270">
	<ele>1224.40</ele>
	<time>2024-09-06T09:35:14.000Z</time>
</trkpt>
<trkpt lat="46.1478770" lon="10.1465380">
	<ele>1224.00</ele>
	<time>2024-09-06T09:35:15.000Z</time>
</trkpt>
<trkpt lat="46.1478770" lon="10.1465430">
	<ele>1223.60</ele>
	<time>2024-09-06T09:35:16.000Z</time>
</trkpt>
<trkpt lat="46.1478800" lon="10.1465430">
	<ele>1223.40</ele>
	<time>2024-09-06T09:35:17.000Z</time>
</trkpt>
<trkpt lat="46.1478810" lon="10.1465470">
	<ele>1223.40</ele>
	<time>2024-09-06T09:35:18.000Z</time>
</trkpt>
<trkpt lat="46.1478800" lon="10.1465500">
	<ele>1223.20</ele>
	<time>2024-09-06T09:35:19.000Z</time>
</trkpt>
<trkpt lat="46.1478770" lon="10.1465550">
	<ele>1223.00</ele>
	<time>2024-09-06T09:35:20.000Z</time>
</trkpt>
<trkpt lat="46.1478770" lon="10.1465640">
	<ele>1222.60</ele>
	<time>2024-09-06T09:35:21.000Z</time>
</trkpt>
<trkpt lat="46.1478750" lon="10.1465720">
	<ele>1222.40</ele>
	<time>2024-09-06T09:35:22.000Z</time>
</trkpt>
<trkpt lat="46.1478770" lon="10.1465730">
	<ele>1222.00</ele>
	<time>2024-09-06T09:35:23.000Z</time>
</trkpt>
<trkpt lat="46.1478790" lon="10.1465730">
	<ele>1221.80</ele>
	<time>2024-09-06T09:35:24.000Z</time>
</trkpt>
<trkpt lat="46.1478820" lon="10.1465720">
	<ele>1221.60</ele>
	<time>2024-09-06T09:35:25.000Z</time>
</trkpt>
<trkpt lat="46.1478860" lon="10.1465730">
	<ele>1221.40</ele>
	<time>2024-09-06T09:35:26.000Z</time>
</trkpt>
<trkpt lat="46.1478890" lon="10.1465810">
	<ele>1221.20</ele>
	<time>2024-09-06T09:35:27.000Z</time>
</trkpt>
<trkpt lat="46.1478910" lon="10.1465890">
	<ele>1221.20</ele>
	<time>2024-09-06T09:35:28.000Z</time>
</trkpt>
<trkpt lat="46.1478970" lon="10.1465970">
	<ele>1221.20</ele>
	<time>2024-09-06T09:35:29.000Z</time>
</trkpt>
<trkpt lat="46.1479040" lon="10.1466070">
	<ele>1220.80</ele>
	<time>2024-09-06T09:35:30.000Z</time>
</trkpt>
<trkpt lat="46.1479090" lon="10.1466200">
	<ele>1220.40</ele>
	<time>2024-09-06T09:35:31.000Z</time>
</trkpt>
<trkpt lat="46.1479140" lon="10.1466360">
	<ele>1220.20</ele>
	<time>2024-09-06T09:35:32.000Z</time>
</trkpt>
<trkpt lat="46.1479170" lon="10.1466520">
	<ele>1219.60</ele>
	<time>2024-09-06T09:35:33.000Z</time>
</trkpt>
<trkpt lat="46.1479190" lon="10.1466610">
	<ele>1219.40</ele>
	<time>2024-09-06T09:35:34.000Z</time>
</trkpt>
<trkpt lat="46.1479210" lon="10.1466730">
	<ele>1219.00</ele>
	<time>2024-09-06T09:35:35.000Z</time>
</trkpt>
<trkpt lat="46.1479250" lon="10.1466720">
	<ele>1218.80</ele>
	<time>2024-09-06T09:35:36.000Z</time>
</trkpt>
<trkpt lat="46.1479330" lon="10.1466710">
	<ele>1218.40</ele>
	<time>2024-09-06T09:35:37.000Z</time>
</trkpt>
<trkpt lat="46.1479410" lon="10.1466730">
	<ele>1218.20</ele>
	<time>2024-09-06T09:35:38.000Z</time>
</trkpt>
<trkpt lat="46.1479510" lon="10.1466810">
	<ele>1217.80</ele>
	<time>2024-09-06T09:35:39.000Z</time>
</trkpt>
<trkpt lat="46.1479590" lon="10.1466900">
	<ele>1217.60</ele>
	<time>2024-09-06T09:35:40.000Z</time>
</trkpt>
<trkpt lat="46.1479650" lon="10.1466960">
	<ele>1217.40</ele>
	<time>2024-09-06T09:35:41.000Z</time>
</trkpt>
<trkpt lat="46.1479680" lon="10.1467000">
	<ele>1217.00</ele>
	<time>2024-09-06T09:35:42.000Z</time>
</trkpt>
<trkpt lat="46.1479680" lon="10.1466990">
	<ele>1216.80</ele>
	<time>2024-09-06T09:35:43.000Z</time>
</trkpt>
<trkpt lat="46.1479740" lon="10.1467020">
	<ele>1216.60</ele>
	<time>2024-09-06T09:35:44.000Z</time>
</trkpt>
<trkpt lat="46.1479780" lon="10.1467100">
	<ele>1216.40</ele>
	<time>2024-09-06T09:35:45.000Z</time>
</trkpt>
<trkpt lat="46.1479830" lon="10.1467180">
	<ele>1216.20</ele>
	<time>2024-09-06T09:35:46.000Z</time>
</trkpt>
<trkpt lat="46.1479910" lon="10.1467250">
	<ele>1216.00</ele>
	<time>2024-09-06T09:35:47.000Z</time>
</trkpt>
<trkpt lat="46.1479980" lon="10.1467260">
	<ele>1216.00</ele>
	<time>2024-09-06T09:35:48.000Z</time>
</trkpt>
<trkpt lat="46.1480060" lon="10.1467280">
	<ele>1215.80</ele>
	<time>2024-09-06T09:35:49.000Z</time>
</trkpt>
<trkpt lat="46.1480120" lon="10.1467290">
	<ele>1215.60</ele>
	<time>2024-09-06T09:35:50.000Z</time>
</trkpt>
<trkpt lat="46.1480190" lon="10.1467310">
	<ele>1215.60</ele>
	<time>2024-09-06T09:35:51.000Z</time>
</trkpt>
<trkpt lat="46.1480280" lon="10.1467330">
	<ele>1215.40</ele>
	<time>2024-09-06T09:35:52.000Z</time>
</trkpt>
<trkpt lat="46.1480360" lon="10.1467350">
	<ele>1215.40</ele>
	<time>2024-09-06T09:35:53.000Z</time>
</trkpt>
<trkpt lat="46.1480450" lon="10.1467350">
	<ele>1214.80</ele>
	<time>2024-09-06T09:35:54.000Z</time>
</trkpt>
<trkpt lat="46.1480510" lon="10.1467440">
	<ele>1214.40</ele>
	<time>2024-09-06T09:35:55.000Z</time>
</trkpt>
<trkpt lat="46.1480560" lon="10.1467500">
	<ele>1214.20</ele>
	<time>2024-09-06T09:35:56.000Z</time>
</trkpt>
<trkpt lat="46.1480610" lon="10.1467530">
	<ele>1214.00</ele>
	<time>2024-09-06T09:35:57.000Z</time>
</trkpt>
<trkpt lat="46.1480700" lon="10.1467610">
	<ele>1214.00</ele>
	<time>2024-09-06T09:35:58.000Z</time>
</trkpt>
<trkpt lat="46.1480780" lon="10.1467700">
	<ele>1213.60</ele>
	<time>2024-09-06T09:35:59.000Z</time>
</trkpt>
<trkpt lat="46.1480880" lon="10.1467740">
	<ele>1213.60</ele>
	<time>2024-09-06T09:36:00.000Z</time>
</trkpt>
<trkpt lat="46.1480990" lon="10.1467760">
	<ele>1213.20</ele>
	<time>2024-09-06T09:36:01.000Z</time>
</trkpt>
<trkpt lat="46.1481090" lon="10.1467740">
	<ele>1213.00</ele>
	<time>2024-09-06T09:36:02.000Z</time>
</trkpt>
<trkpt lat="46.1481140" lon="10.1467620">
	<ele>1212.80</ele>
	<time>2024-09-06T09:36:03.000Z</time>
</trkpt>
<trkpt lat="46.1481140" lon="10.1467530">
	<ele>1212.80</ele>
	<time>2024-09-06T09:36:04.000Z</time>
</trkpt>
<trkpt lat="46.1481160" lon="10.1467390">
	<ele>1212.80</ele>
	<time>2024-09-06T09:36:05.000Z</time>
</trkpt>
<trkpt lat="46.1481140" lon="10.1467360">
	<ele>1212.80</ele>
	<time>2024-09-06T09:36:06.000Z</time>
</trkpt>
<trkpt lat="46.1481240" lon="10.1467370">
	<ele>1213.00</ele>
	<time>2024-09-06T09:36:07.000Z</time>
</trkpt>
<trkpt lat="46.1481260" lon="10.1467360">
	<ele>1213.00</ele>
	<time>2024-09-06T09:36:08.000Z</time>
</trkpt>
<trkpt lat="46.1481330" lon="10.1467360">
	<ele>1213.00</ele>
	<time>2024-09-06T09:36:09.000Z</time>
</trkpt>
<trkpt lat="46.1481400" lon="10.1467360">
	<ele>1213.20</ele>
	<time>2024-09-06T09:36:10.000Z</time>
</trkpt>
<trkpt lat="46.1481440" lon="10.1467280">
	<ele>1213.20</ele>
	<time>2024-09-06T09:36:11.000Z</time>
</trkpt>
<trkpt lat="46.1481540" lon="10.1467280">
	<ele>1213.40</ele>
	<time>2024-09-06T09:36:12.000Z</time>
</trkpt>
<trkpt lat="46.1481570" lon="10.1467290">
	<ele>1213.40</ele>
	<time>2024-09-06T09:36:13.000Z</time>
</trkpt>
<trkpt lat="46.1481560" lon="10.1467280">
	<ele>1213.60</ele>
	<time>2024-09-06T09:36:14.000Z</time>
</trkpt>
<trkpt lat="46.1481550" lon="10.1467260">
	<ele>1213.60</ele>
	<time>2024-09-06T09:36:15.000Z</time>
</trkpt>
<trkpt lat="46.1481510" lon="10.1467260">
	<ele>1213.60</ele>
	<time>2024-09-06T09:36:16.000Z</time>
</trkpt>
<trkpt lat="46.1481470" lon="10.1467320">
	<ele>1213.60</ele>
	<time>2024-09-06T09:36:17.000Z</time>
</trkpt>
<trkpt lat="46.1481460" lon="10.1467370">
	<ele>1213.60</ele>
	<time>2024-09-06T09:36:18.000Z</time>
</trkpt>
<trkpt lat="46.1481440" lon="10.1467440">
	<ele>1213.40</ele>
	<time>2024-09-06T09:36:19.000Z</time>
</trkpt>
<trkpt lat="46.1481420" lon="10.1467490">
	<ele>1213.20</ele>
	<time>2024-09-06T09:36:20.000Z</time>
</trkpt>
<trkpt lat="46.1481400" lon="10.1467500">
	<ele>1213.00</ele>
	<time>2024-09-06T09:36:21.000Z</time>
</trkpt>
<trkpt lat="46.1481410" lon="10.1467550">
	<ele>1213.00</ele>
	<time>2024-09-06T09:36:22.000Z</time>
</trkpt>
<trkpt lat="46.1481400" lon="10.1467570">
	<ele>1212.80</ele>
	<time>2024-09-06T09:36:23.000Z</time>
</trkpt>
<trkpt lat="46.1481380" lon="10.1467590">
	<ele>1212.60</ele>
	<time>2024-09-06T09:36:24.000Z</time>
</trkpt>
<trkpt lat="46.1481370" lon="10.1467600">
	<ele>1212.60</ele>
	<time>2024-09-06T09:36:25.000Z</time>
</trkpt>
<trkpt lat="46.1481400" lon="10.1467540">
	<ele>1212.40</ele>
	<time>2024-09-06T09:36:26.000Z</time>
</trkpt>
<trkpt lat="46.1481400" lon="10.1467490">
	<ele>1212.40</ele>
	<time>2024-09-06T09:36:27.000Z</time>
</trkpt>
<trkpt lat="46.1481340" lon="10.1467450">
	<ele>1212.40</ele>
	<time>2024-09-06T09:36:28.000Z</time>
</trkpt>
<trkpt lat="46.1481240" lon="10.1467420">
	<ele>1212.20</ele>
	<time>2024-09-06T09:36:29.000Z</time>
</trkpt>
<trkpt lat="46.1481130" lon="10.1467370">
	<ele>1212.40</ele>
	<time>2024-09-06T09:36:30.000Z</time>
</trkpt>
<trkpt lat="46.1481040" lon="10.1467340">
	<ele>1212.60</ele>
	<time>2024-09-06T09:36:31.000Z</time>
</trkpt>
<trkpt lat="46.1480990" lon="10.1467300">
	<ele>1212.80</ele>
	<time>2024-09-06T09:36:32.000Z</time>
</trkpt>
<trkpt lat="46.1480920" lon="10.1467240">
	<ele>1213.00</ele>
	<time>2024-09-06T09:36:33.000Z</time>
</trkpt>
<trkpt lat="46.1480880" lon="10.1467160">
	<ele>1213.20</ele>
	<time>2024-09-06T09:36:34.000Z</time>
</trkpt>
<trkpt lat="46.1480840" lon="10.1467060">
	<ele>1213.20</ele>
	<time>2024-09-06T09:36:35.000Z</time>
</trkpt>
<trkpt lat="46.1480770" lon="10.1467020">
	<ele>1213.40</ele>
	<time>2024-09-06T09:36:36.000Z</time>
</trkpt>
<trkpt lat="46.1480710" lon="10.1466990">
	<ele>1213.60</ele>
	<time>2024-09-06T09:36:37.000Z</time>
</trkpt>
<trkpt lat="46.1480650" lon="10.1466940">
	<ele>1214.00</ele>
	<time>2024-09-06T09:36:38.000Z</time>
</trkpt>
<trkpt lat="46.1480620" lon="10.1466900">
	<ele>1214.40</ele>
	<time>2024-09-06T09:36:39.000Z</time>
</trkpt>
<trkpt lat="46.1480590" lon="10.1466880">
	<ele>1214.60</ele>
	<time>2024-09-06T09:36:40.000Z</time>
</trkpt>
<trkpt lat="46.1480500" lon="10.1466860">
	<ele>1214.80</ele>
	<time>2024-09-06T09:36:41.000Z</time>
</trkpt>
<trkpt lat="46.1480430" lon="10.1466820">
	<ele>1215.00</ele>
	<time>2024-09-06T09:36:42.000Z</time>
</trkpt>
<trkpt lat="46.1480380" lon="10.1466760">
	<ele>1215.00</ele>
	<time>2024-09-06T09:36:43.000Z</time>
</trkpt>
<trkpt lat="46.1480330" lon="10.1466670">
	<ele>1215.20</ele>
	<time>2024-09-06T09:36:44.000Z</time>
</trkpt>
<trkpt lat="46.1480260" lon="10.1466600">
	<ele>1215.40</ele>
	<time>2024-09-06T09:36:45.000Z</time>
</trkpt>
<trkpt lat="46.1480180" lon="10.1466590">
	<ele>1215.60</ele>
	<time>2024-09-06T09:36:46.000Z</time>
</trkpt>
<trkpt lat="46.1480140" lon="10.1466560">
	<ele>1215.80</ele>
	<time>2024-09-06T09:36:47.000Z</time>
</trkpt>
<trkpt lat="46.1480100" lon="10.1466550">
	<ele>1216.20</ele>
	<time>2024-09-06T09:36:48.000Z</time>
</trkpt>
<trkpt lat="46.1480050" lon="10.1466540">
	<ele>1216.20</ele>
	<time>2024-09-06T09:36:49.000Z</time>
</trkpt>
<trkpt lat="46.1480000" lon="10.1466540">
	<ele>1216.40</ele>
	<time>2024-09-06T09:36:50.000Z</time>
</trkpt>
<trkpt lat="46.1479890" lon="10.1466510">
	<ele>1216.80</ele>
	<time>2024-09-06T09:36:51.000Z</time>
</trkpt>
<trkpt lat="46.1479840" lon="10.1466510">
	<ele>1217.00</ele>
	<time>2024-09-06T09:36:52.000Z</time>
</trkpt>
<trkpt lat="46.1479830" lon="10.1466470">
	<ele>1217.40</ele>
	<time>2024-09-06T09:36:53.000Z</time>
</trkpt>
<trkpt lat="46.1479810" lon="10.1466410">
	<ele>1217.60</ele>
	<time>2024-09-06T09:36:54.000Z</time>
</trkpt>
<trkpt lat="46.1479840" lon="10.1466340">
	<ele>1217.80</ele>
	<time>2024-09-06T09:36:55.000Z</time>
</trkpt>
<trkpt lat="46.1479880" lon="10.1466270">
	<ele>1217.80</ele>
	<time>2024-09-06T09:36:56.000Z</time>
</trkpt>
<trkpt lat="46.1479910" lon="10.1466190">
	<ele>1218.00</ele>
	<time>2024-09-06T09:36:57.000Z</time>
</trkpt>
<trkpt lat="46.1479900" lon="10.1466130">
	<ele>1218.20</ele>
	<time>2024-09-06T09:36:58.000Z</time>
</trkpt>
<trkpt lat="46.1479890" lon="10.1466070">
	<ele>1218.20</ele>
	<time>2024-09-06T09:36:59.000Z</time>
</trkpt>
<trkpt lat="46.1479850" lon="10.1466050">
	<ele>1218.60</ele>
	<time>2024-09-06T09:37:00.000Z</time>
</trkpt>
<trkpt lat="46.1479790" lon="10.1466030">
	<ele>1218.80</ele>
	<time>2024-09-06T09:37:01.000Z</time>
</trkpt>
<trkpt lat="46.1479780" lon="10.1466020">
	<ele>1219.00</ele>
	<time>2024-09-06T09:37:02.000Z</time>
</trkpt>
<trkpt lat="46.1479790" lon="10.1466000">
	<ele>1219.20</ele>
	<time>2024-09-06T09:37:03.000Z</time>
</trkpt>
<trkpt lat="46.1479790" lon="10.1466000">
	<ele>1219.40</ele>
	<time>2024-09-06T09:37:04.000Z</time>
</trkpt>
<trkpt lat="46.1479810" lon="10.1466020">
	<ele>1219.40</ele>
	<time>2024-09-06T09:37:05.000Z</time>
</trkpt>
<trkpt lat="46.1479840" lon="10.1466020">
	<ele>1219.60</ele>
	<time>2024-09-06T09:37:06.000Z</time>
</trkpt>
<trkpt lat="46.1479890" lon="10.1466000">
	<ele>1219.60</ele>
	<time>2024-09-06T09:37:07.000Z</time>
</trkpt>
<trkpt lat="46.1479900" lon="10.1465940">
	<ele>1219.60</ele>
	<time>2024-09-06T09:37:08.000Z</time>
</trkpt>
<trkpt lat="46.1479870" lon="10.1465900">
	<ele>1219.80</ele>
	<time>2024-09-06T09:37:09.000Z</time>
</trkpt>
<trkpt lat="46.1479840" lon="10.1465880">
	<ele>1220.00</ele>
	<time>2024-09-06T09:37:10.000Z</time>
</trkpt>
<trkpt lat="46.1479830" lon="10.1465840">
	<ele>1220.20</ele>
	<time>2024-09-06T09:37:11.000Z</time>
</trkpt>
<trkpt lat="46.1479840" lon="10.1465790">
	<ele>1220.40</ele>
	<time>2024-09-06T09:37:12.000Z</time>
</trkpt>
<trkpt lat="46.1479820" lon="10.1465690">
	<ele>1220.60</ele>
	<time>2024-09-06T09:37:13.000Z</time>
</trkpt>
<trkpt lat="46.1479820" lon="10.1465630">
	<ele>1220.80</ele>
	<time>2024-09-06T09:37:14.000Z</time>
</trkpt>
<trkpt lat="46.1479740" lon="10.1465540">
	<ele>1221.20</ele>
	<time>2024-09-06T09:37:15.000Z</time>
</trkpt>
<trkpt lat="46.1479690" lon="10.1465470">
	<ele>1221.40</ele>
	<time>2024-09-06T09:37:16.000Z</time>
</trkpt>
<trkpt lat="46.1479650" lon="10.1465440">
	<ele>1221.60</ele>
	<time>2024-09-06T09:37:17.000Z</time>
</trkpt>
<trkpt lat="46.1479620" lon="10.1465420">
	<ele>1221.80</ele>
	<time>2024-09-06T09:37:18.000Z</time>
</trkpt>
<trkpt lat="46.1479600" lon="10.1465390">
	<ele>1222.00</ele>
	<time>2024-09-06T09:37:19.000Z</time>
</trkpt>
<trkpt lat="46.1479530" lon="10.1465330">
	<ele>1222.40</ele>
	<time>2024-09-06T09:37:20.000Z</time>
</trkpt>
<trkpt lat="46.1479460" lon="10.1465250">
	<ele>1222.40</ele>
	<time>2024-09-06T09:37:21.000Z</time>
</trkpt>
<trkpt lat="46.1479410" lon="10.1465190">
	<ele>1222.80</ele>
	<time>2024-09-06T09:37:22.000Z</time>
</trkpt>
<trkpt lat="46.1479360" lon="10.1465140">
	<ele>1222.80</ele>
	<time>2024-09-06T09:37:23.000Z</time>
</trkpt>
<trkpt lat="46.1479350" lon="10.1465110">
	<ele>1223.00</ele>
	<time>2024-09-06T09:37:24.000Z</time>
</trkpt>
<trkpt lat="46.1479260" lon="10.1465060">
	<ele>1223.20</ele>
	<time>2024-09-06T09:37:25.000Z</time>
</trkpt>
<trkpt lat="46.1479210" lon="10.1465050">
	<ele>1223.40</ele>
	<time>2024-09-06T09:37:26.000Z</time>
</trkpt>
<trkpt lat="46.1479190" lon="10.1465060">
	<ele>1223.40</ele>
	<time>2024-09-06T09:37:27.000Z</time>
</trkpt>
<trkpt lat="46.1479180" lon="10.1465060">
	<ele>1223.80</ele>
	<time>2024-09-06T09:37:28.000Z</time>
</trkpt>
<trkpt lat="46.1479170" lon="10.1465050">
	<ele>1223.80</ele>
	<time>2024-09-06T09:37:29.000Z</time>
</trkpt>
<trkpt lat="46.1479160" lon="10.1465030">
	<ele>1224.00</ele>
	<time>2024-09-06T09:37:30.000Z</time>
</trkpt>
<trkpt lat="46.1479150" lon="10.1465020">
	<ele>1224.00</ele>
	<time>2024-09-06T09:37:31.000Z</time>
</trkpt>
<trkpt lat="46.1479140" lon="10.1465040">
	<ele>1224.20</ele>
	<time>2024-09-06T09:37:32.000Z</time>
</trkpt>
<trkpt lat="46.1479100" lon="10.1465040">
	<ele>1224.20</ele>
	<time>2024-09-06T09:37:33.000Z</time>
</trkpt>
<trkpt lat="46.1479080" lon="10.1465020">
	<ele>1224.40</ele>
	<time>2024-09-06T09:37:34.000Z</time>
</trkpt>
<trkpt lat="46.1479060" lon="10.1465020">
	<ele>1224.60</ele>
	<time>2024-09-06T09:37:35.000Z</time>
</trkpt>
<trkpt lat="46.1479000" lon="10.1465010">
	<ele>1224.60</ele>
	<time>2024-09-06T09:37:36.000Z</time>
</trkpt>
<trkpt lat="46.1478900" lon="10.1465010">
	<ele>1224.80</ele>
	<time>2024-09-06T09:37:37.000Z</time>
</trkpt>
<trkpt lat="46.1478790" lon="10.1465030">
	<ele>1225.00</ele>
	<time>2024-09-06T09:37:38.000Z</time>
</trkpt>
<trkpt lat="46.1478770" lon="10.1465080">
	<ele>1225.20</ele>
	<time>2024-09-06T09:37:39.000Z</time>
</trkpt>
<trkpt lat="46.1478740" lon="10.1465090">
	<ele>1225.20</ele>
	<time>2024-09-06T09:37:40.000Z</time>
</trkpt>
<trkpt lat="46.1478750" lon="10.1465110">
	<ele>1225.20</ele>
	<time>2024-09-06T09:37:41.000Z</time>
</trkpt>
<trkpt lat="46.1478750" lon="10.1465140">
	<ele>1225.20</ele>
	<time>2024-09-06T09:37:42.000Z</time>
</trkpt>
<trkpt lat="46.1478760" lon="10.1465140">
	<ele>1225.20</ele>
	<time>2024-09-06T09:37:43.000Z</time>
</trkpt>
<trkpt lat="46.1478770" lon="10.1465120">
	<ele>1225.40</ele>
	<time>2024-09-06T09:37:44.000Z</time>
</trkpt>
<trkpt lat="46.1478770" lon="10.1465100">
	<ele>1225.40</ele>
	<time>2024-09-06T09:37:45.000Z</time>
</trkpt>
<trkpt lat="46.1478770" lon="10.1465090">
	<ele>1225.40</ele>
	<time>2024-09-06T09:37:46.000Z</time>
</trkpt>
<trkpt lat="46.1478770" lon="10.1465050">
	<ele>1225.40</ele>
	<time>2024-09-06T09:37:47.000Z</time>
</trkpt>
<trkpt lat="46.1478770" lon="10.1465040">
	<ele>1225.40</ele>
	<time>2024-09-06T09:37:48.000Z</time>
</trkpt>
<trkpt lat="46.1478750" lon="10.1465040">
	<ele>1225.40</ele>
	<time>2024-09-06T09:37:49.000Z</time>
</trkpt>
<trkpt lat="46.1478740" lon="10.1465000">
	<ele>1225.20</ele>
	<time>2024-09-06T09:37:50.000Z</time>
</trkpt>
<trkpt lat="46.1478730" lon="10.1465000">
	<ele>1225.20</ele>
	<time>2024-09-06T09:37:51.000Z</time>
</trkpt>
<trkpt lat="46.1478730" lon="10.1464990">
	<ele>1225.20</ele>
	<time>2024-09-06T09:37:52.000Z</time>
</trkpt>
<trkpt lat="46.1478730" lon="10.1464990">
	<ele>1225.20</ele>
	<time>2024-09-06T09:37:53.000Z</time>
</trkpt>
<trkpt lat="46.1478730" lon="10.1464990">
	<ele>1225.20</ele>
	<time>2024-09-06T09:37:54.000Z</time>
</trkpt>
<trkpt lat="46.1478730" lon="10.1464990">
	<ele>1225.20</ele>
	<time>2024-09-06T09:37:55.000Z</time>
</trkpt>
<trkpt lat="46.1478730" lon="10.1464990">
	<ele>1225.20</ele>
	<time>2024-09-06T09:37:56.000Z</time>
</trkpt>
<trkpt lat="46.1478730" lon="10.1464990">
	<ele>1225.40</ele>
	<time>2024-09-06T09:37:57.000Z</time>
</trkpt>
<trkpt lat="46.1478730" lon="10.1464990">
	<ele>1225.40</ele>
	<time>2024-09-06T09:37:58.000Z</time>
</trkpt>
<trkpt lat="46.1478730" lon="10.1464990">
	<ele>1225.40</ele>
	<time>2024-09-06T09:37:59.000Z</time>
</trkpt>
<trkpt lat="46.1478730" lon="10.1464990">
	<ele>1225.40</ele>
	<time>2024-09-06T09:38:00.000Z</time>
</trkpt>
<trkpt lat="46.1478730" lon="10.1464990">
	<ele>1225.40</ele>
	<time>2024-09-06T09:38:01.000Z</time>
</trkpt>
<trkpt lat="46.1478730" lon="10.1464990">
	<ele>1225.40</ele>
	<time>2024-09-06T09:38:02.000Z</time>
</trkpt>
<trkpt lat="46.1478730" lon="10.1464990">
	<ele>1225.40</ele>
	<time>2024-09-06T09:38:03.000Z</time>
</trkpt>
<trkpt lat="46.1478730" lon="10.1464990">
	<ele>1225.40</ele>
	<time>2024-09-06T09:38:04.000Z</time>
</trkpt>
<trkpt lat="46.1478730" lon="10.1464990">
	<ele>1225.40</ele>
	<time>2024-09-06T09:38:05.000Z</time>
</trkpt>
<trkpt lat="46.1478730" lon="10.1464990">
	<ele>1225.40</ele>
	<time>2024-09-06T09:38:06.000Z</time>
</trkpt>
<trkpt lat="46.1478730" lon="10.1464990">
	<ele>1225.40</ele>
	<time>2024-09-06T09:38:07.000Z</time>
</trkpt>
<trkpt lat="46.1478720" lon="10.1464990">
	<ele>1225.40</ele>
	<time>2024-09-06T09:38:08.000Z</time>
</trkpt>
<trkpt lat="46.1478720" lon="10.1464990">
	<ele>1225.40</ele>
	<time>2024-09-06T09:38:09.000Z</time>
</trkpt>
<trkpt lat="46.1478710" lon="10.1464990">
	<ele>1225.40</ele>
	<time>2024-09-06T09:38:10.000Z</time>
</trkpt>
<trkpt lat="46.1478710" lon="10.1464990">
	<ele>1225.20</ele>
	<time>2024-09-06T09:38:11.000Z</time>
</trkpt>
<trkpt lat="46.1478710" lon="10.1464990">
	<ele>1225.20</ele>
	<time>2024-09-06T09:38:12.000Z</time>
</trkpt>
<trkpt lat="46.1478700" lon="10.1464990">
	<ele>1225.20</ele>
	<time>2024-09-06T09:38:13.000Z</time>
</trkpt>
<trkpt lat="46.1478690" lon="10.1464990">
	<ele>1225.20</ele>
	<time>2024-09-06T09:38:14.000Z</time>
</trkpt>
<trkpt lat="46.1478680" lon="10.1464990">
	<ele>1225.00</ele>
	<time>2024-09-06T09:38:15.000Z</time>
</trkpt>
<trkpt lat="46.1478680" lon="10.1464980">
	<ele>1225.00</ele>
	<time>2024-09-06T09:38:16.000Z</time>
</trkpt>
<trkpt lat="46.1478670" lon="10.1464980">
	<ele>1225.00</ele>
	<time>2024-09-06T09:38:17.000Z</time>
</trkpt>
<trkpt lat="46.1478670" lon="10.1464980">
	<ele>1225.00</ele>
	<time>2024-09-06T09:38:18.000Z</time>
</trkpt>
<trkpt lat="46.1478670" lon="10.1464970">
	<ele>1225.00</ele>
	<time>2024-09-06T09:38:19.000Z</time>
</trkpt>
<trkpt lat="46.1478670" lon="10.1464940">
	<ele>1225.00</ele>
	<time>2024-09-06T09:38:20.000Z</time>
</trkpt>
<trkpt lat="46.1478660" lon="10.1464940">
	<ele>1225.00</ele>
	<time>2024-09-06T09:38:21.000Z</time>
</trkpt>
<trkpt lat="46.1478650" lon="10.1464930">
	<ele>1225.20</ele>
	<time>2024-09-06T09:38:22.000Z</time>
</trkpt>
<trkpt lat="46.1478650" lon="10.1464930">
	<ele>1225.20</ele>
	<time>2024-09-06T09:38:23.000Z</time>
</trkpt>
<trkpt lat="46.1478640" lon="10.1464930">
	<ele>1225.20</ele>
	<time>2024-09-06T09:38:24.000Z</time>
</trkpt>
<trkpt lat="46.1478630" lon="10.1464930">
	<ele>1225.20</ele>
	<time>2024-09-06T09:38:25.000Z</time>
</trkpt>
<trkpt lat="46.1478630" lon="10.1464930">
	<ele>1225.20</ele>
	<time>2024-09-06T09:38:26.000Z</time>
</trkpt>
<trkpt lat="46.1478620" lon="10.1464930">
	<ele>1225.20</ele>
	<time>2024-09-06T09:38:27.000Z</time>
</trkpt>
<trkpt lat="46.1478600" lon="10.1464930">
	<ele>1225.20</ele>
	<time>2024-09-06T09:38:28.000Z</time>
</trkpt>
<trkpt lat="46.1478580" lon="10.1464930">
	<ele>1225.20</ele>
	<time>2024-09-06T09:38:29.000Z</time>
</trkpt>
<trkpt lat="46.1478570" lon="10.1464930">
	<ele>1225.20</ele>
	<time>2024-09-06T09:38:30.000Z</time>
</trkpt>
<trkpt lat="46.1478550" lon="10.1464930">
	<ele>1225.20</ele>
	<time>2024-09-06T09:38:31.000Z</time>
</trkpt>
<trkpt lat="46.1478550" lon="10.1464930">
	<ele>1225.20</ele>
	<time>2024-09-06T09:38:32.000Z</time>
</trkpt>
<trkpt lat="46.1478550" lon="10.1464930">
	<ele>1225.20</ele>
	<time>2024-09-06T09:38:33.000Z</time>
</trkpt>
<trkpt lat="46.1478550" lon="10.1464930">
	<ele>1225.00</ele>
	<time>2024-09-06T09:38:34.000Z</time>
</trkpt>
<trkpt lat="46.1478550" lon="10.1464930">
	<ele>1225.00</ele>
	<time>2024-09-06T09:38:35.000Z</time>
</trkpt>
<trkpt lat="46.1478550" lon="10.1464930">
	<ele>1225.00</ele>
	<time>2024-09-06T09:38:36.000Z</time>
</trkpt>
<trkpt lat="46.1478550" lon="10.1464930">
	<ele>1225.00</ele>
	<time>2024-09-06T09:38:37.000Z</time>
</trkpt>
<trkpt lat="46.1478550" lon="10.1464930">
	<ele>1225.00</ele>
	<time>2024-09-06T09:38:38.000Z</time>
</trkpt>
<trkpt lat="46.1478550" lon="10.1464930">
	<ele>1225.00</ele>
	<time>2024-09-06T09:38:39.000Z</time>
</trkpt>
<trkpt lat="46.1478550" lon="10.1464930">
	<ele>1225.00</ele>
	<time>2024-09-06T09:38:40.000Z</time>
</trkpt>
<trkpt lat="46.1478550" lon="10.1464930">
	<ele>1225.00</ele>
	<time>2024-09-06T09:38:41.000Z</time>
</trkpt>
<trkpt lat="46.1478550" lon="10.1464930">
	<ele>1225.00</ele>
	<time>2024-09-06T09:38:42.000Z</time>
</trkpt>
<trkpt lat="46.1478550" lon="10.1464930">
	<ele>1225.00</ele>
	<time>2024-09-06T09:38:43.000Z</time>
</trkpt>
<trkpt lat="46.1478550" lon="10.1464930">
	<ele>1225.00</ele>
	<time>2024-09-06T09:38:44.000Z</time>
</trkpt>
<trkpt lat="46.1478550" lon="10.1464930">
	<ele>1225.00</ele>
	<time>2024-09-06T09:38:45.000Z</time>
</trkpt>
<trkpt lat="46.1478550" lon="10.1464930">
	<ele>1225.00</ele>
	<time>2024-09-06T09:38:46.000Z</time>
</trkpt>
<trkpt lat="46.1478580" lon="10.1464930">
	<ele>1225.00</ele>
	<time>2024-09-06T09:38:47.000Z</time>
</trkpt>
<trkpt lat="46.1478590" lon="10.1464930">
	<ele>1225.00</ele>
	<time>2024-09-06T09:38:48.000Z</time>
</trkpt>
<trkpt lat="46.1478600" lon="10.1464860">
	<ele>1225.00</ele>
	<time>2024-09-06T09:38:49.000Z</time>
</trkpt>
<trkpt lat="46.1478600" lon="10.1464790">
	<ele>1225.00</ele>
	<time>2024-09-06T09:38:50.000Z</time>
</trkpt>
<trkpt lat="46.1478610" lon="10.1464700">
	<ele>1225.00</ele>
	<time>2024-09-06T09:38:51.000Z</time>
</trkpt>
<trkpt lat="46.1478610" lon="10.1464610">
	<ele>1225.00</ele>
	<time>2024-09-06T09:38:52.000Z</time>
</trkpt>
<trkpt lat="46.1478620" lon="10.1464510">
	<ele>1225.00</ele>
	<time>2024-09-06T09:38:53.000Z</time>
</trkpt>
<trkpt lat="46.1478630" lon="10.1464430">
	<ele>1225.00</ele>
	<time>2024-09-06T09:38:54.000Z</time>
</trkpt>
<trkpt lat="46.1478630" lon="10.1464360">
	<ele>1225.00</ele>
	<time>2024-09-06T09:38:55.000Z</time>
</trkpt>
<trkpt lat="46.1478640" lon="10.1464290">
	<ele>1225.00</ele>
	<time>2024-09-06T09:38:56.000Z</time>
</trkpt>
<trkpt lat="46.1478660" lon="10.1464210">
	<ele>1225.00</ele>
	<time>2024-09-06T09:38:57.000Z</time>
</trkpt>
<trkpt lat="46.1478730" lon="10.1463990">
	<ele>1225.00</ele>
	<time>2024-09-06T09:38:58.000Z</time>
</trkpt>
<trkpt lat="46.1478790" lon="10.1463760">
	<ele>1225.00</ele>
	<time>2024-09-06T09:38:59.000Z</time>
</trkpt>
<trkpt lat="46.1478750" lon="10.1463540">
	<ele>1225.00</ele>
	<time>2024-09-06T09:39:00.000Z</time>
</trkpt>
<trkpt lat="46.1478710" lon="10.1463300">
	<ele>1225.00</ele>
	<time>2024-09-06T09:39:01.000Z</time>
</trkpt>
<trkpt lat="46.1478780" lon="10.1463070">
	<ele>1225.00</ele>
	<time>2024-09-06T09:39:02.000Z</time>
</trkpt>
<trkpt lat="46.1478880" lon="10.1462860">
	<ele>1225.00</ele>
	<time>2024-09-06T09:39:03.000Z</time>
</trkpt>
<trkpt lat="46.1478990" lon="10.1462660">
	<ele>1225.00</ele>
	<time>2024-09-06T09:39:04.000Z</time>
</trkpt>
<trkpt lat="46.1479100" lon="10.1462470">
	<ele>1225.00</ele>
	<time>2024-09-06T09:39:05.000Z</time>
</trkpt>
<trkpt lat="46.1479200" lon="10.1462310">
	<ele>1225.00</ele>
	<time>2024-09-06T09:39:06.000Z</time>
</trkpt>
<trkpt lat="46.1479260" lon="10.1462280">
	<ele>1225.00</ele>
	<time>2024-09-06T09:39:07.000Z</time>
</trkpt>
<trkpt lat="46.1479310" lon="10.1462270">
	<ele>1225.00</ele>
	<time>2024-09-06T09:39:08.000Z</time>
</trkpt>
<trkpt lat="46.1479300" lon="10.1462260">
	<ele>1224.80</ele>
	<time>2024-09-06T09:39:09.000Z</time>
</trkpt>
<trkpt lat="46.1479410" lon="10.1462250">
	<ele>1224.60</ele>
	<time>2024-09-06T09:39:10.000Z</time>
</trkpt>
<trkpt lat="46.1479520" lon="10.1462200">
	<ele>1224.60</ele>
	<time>2024-09-06T09:39:11.000Z</time>
</trkpt>
<trkpt lat="46.1479620" lon="10.1462160">
	<ele>1224.40</ele>
	<time>2024-09-06T09:39:12.000Z</time>
</trkpt>
<trkpt lat="46.1479700" lon="10.1462110">
	<ele>1224.00</ele>
	<time>2024-09-06T09:39:13.000Z</time>
</trkpt>
<trkpt lat="46.1479780" lon="10.1462100">
	<ele>1223.80</ele>
	<time>2024-09-06T09:39:14.000Z</time>
</trkpt>
<trkpt lat="46.1479860" lon="10.1462090">
	<ele>1223.40</ele>
	<time>2024-09-06T09:39:15.000Z</time>
</trkpt>
<trkpt lat="46.1479940" lon="10.1462090">
	<ele>1223.20</ele>
	<time>2024-09-06T09:39:16.000Z</time>
</trkpt>
<trkpt lat="46.1480040" lon="10.1462070">
	<ele>1223.00</ele>
	<time>2024-09-06T09:39:17.000Z</time>
</trkpt>
<trkpt lat="46.1480140" lon="10.1462050">
	<ele>1222.60</ele>
	<time>2024-09-06T09:39:18.000Z</time>
</trkpt>
<trkpt lat="46.1480190" lon="10.1462040">
	<ele>1222.60</ele>
	<time>2024-09-06T09:39:19.000Z</time>
</trkpt>
<trkpt lat="46.1480230" lon="10.1462020">
	<ele>1222.20</ele>
	<time>2024-09-06T09:39:20.000Z</time>
</trkpt>
<trkpt lat="46.1480300" lon="10.1462000">
	<ele>1221.80</ele>
	<time>2024-09-06T09:39:21.000Z</time>
</trkpt>
<trkpt lat="46.1480420" lon="10.1461970">
	<ele>1221.40</ele>
	<time>2024-09-06T09:39:22.000Z</time>
</trkpt>
<trkpt lat="46.1480520" lon="10.1461930">
	<ele>1221.40</ele>
	<time>2024-09-06T09:39:23.000Z</time>
</trkpt>
<trkpt lat="46.1480600" lon="10.1461890">
	<ele>1220.80</ele>
	<time>2024-09-06T09:39:24.000Z</time>
</trkpt>
<trkpt lat="46.1480690" lon="10.1461890">
	<ele>1220.60</ele>
	<time>2024-09-06T09:39:25.000Z</time>
</trkpt>
<trkpt lat="46.1480800" lon="10.1461890">
	<ele>1220.20</ele>
	<time>2024-09-06T09:39:26.000Z</time>
</trkpt>
<trkpt lat="46.1480870" lon="10.1461910">
	<ele>1219.80</ele>
	<time>2024-09-06T09:39:27.000Z</time>
</trkpt>
<trkpt lat="46.1480950" lon="10.1461930">
	<ele>1219.60</ele>
	<time>2024-09-06T09:39:28.000Z</time>
</trkpt>
<trkpt lat="46.1481070" lon="10.1461970">
	<ele>1219.40</ele>
	<time>2024-09-06T09:39:29.000Z</time>
</trkpt>
<trkpt lat="46.1481160" lon="10.1461960">
	<ele>1219.20</ele>
	<time>2024-09-06T09:39:30.000Z</time>
</trkpt>
<trkpt lat="46.1481250" lon="10.1461970">
	<ele>1218.80</ele>
	<time>2024-09-06T09:39:31.000Z</time>
</trkpt>
<trkpt lat="46.1481340" lon="10.1461980">
	<ele>1218.40</ele>
	<time>2024-09-06T09:39:32.000Z</time>
</trkpt>
<trkpt lat="46.1481440" lon="10.1461990">
	<ele>1218.00</ele>
	<time>2024-09-06T09:39:33.000Z</time>
</trkpt>
<trkpt lat="46.1481550" lon="10.1462000">
	<ele>1217.80</ele>
	<time>2024-09-06T09:39:34.000Z</time>
</trkpt>
<trkpt lat="46.1481640" lon="10.1462040">
	<ele>1217.40</ele>
	<time>2024-09-06T09:39:35.000Z</time>
</trkpt>
<trkpt lat="46.1481710" lon="10.1462080">
	<ele>1217.20</ele>
	<time>2024-09-06T09:39:36.000Z</time>
</trkpt>
<trkpt lat="46.1481810" lon="10.1462110">
	<ele>1216.80</ele>
	<time>2024-09-06T09:39:37.000Z</time>
</trkpt>
<trkpt lat="46.1481910" lon="10.1462140">
	<ele>1216.60</ele>
	<time>2024-09-06T09:39:38.000Z</time>
</trkpt>
<trkpt lat="46.1482010" lon="10.1462130">
	<ele>1216.40</ele>
	<time>2024-09-06T09:39:39.000Z</time>
</trkpt>
<trkpt lat="46.1482110" lon="10.1462080">
	<ele>1216.00</ele>
	<time>2024-09-06T09:39:40.000Z</time>
</trkpt>
<trkpt lat="46.1482200" lon="10.1462050">
	<ele>1215.60</ele>
	<time>2024-09-06T09:39:41.000Z</time>
</trkpt>
<trkpt lat="46.1482310" lon="10.1462030">
	<ele>1215.40</ele>
	<time>2024-09-06T09:39:42.000Z</time>
</trkpt>
<trkpt lat="46.1482390" lon="10.1462050">
	<ele>1215.20</ele>
	<time>2024-09-06T09:39:43.000Z</time>
</trkpt>
<trkpt lat="46.1482480" lon="10.1462090">
	<ele>1215.00</ele>
	<time>2024-09-06T09:39:44.000Z</time>
</trkpt>
<trkpt lat="46.1482560" lon="10.1462110">
	<ele>1214.60</ele>
	<time>2024-09-06T09:39:45.000Z</time>
</trkpt>
<trkpt lat="46.1482650" lon="10.1462110">
	<ele>1214.40</ele>
	<time>2024-09-06T09:39:46.000Z</time>
</trkpt>
<trkpt lat="46.1482790" lon="10.1462110">
	<ele>1214.00</ele>
	<time>2024-09-06T09:39:47.000Z</time>
</trkpt>
<trkpt lat="46.1482880" lon="10.1462140">
	<ele>1213.80</ele>
	<time>2024-09-06T09:39:48.000Z</time>
</trkpt>
<trkpt lat="46.1482930" lon="10.1462150">
	<ele>1213.40</ele>
	<time>2024-09-06T09:39:49.000Z</time>
</trkpt>
<trkpt lat="46.1483010" lon="10.1462170">
	<ele>1213.00</ele>
	<time>2024-09-06T09:39:50.000Z</time>
</trkpt>
<trkpt lat="46.1483130" lon="10.1462200">
	<ele>1212.60</ele>
	<time>2024-09-06T09:39:51.000Z</time>
</trkpt>
<trkpt lat="46.1483220" lon="10.1462230">
	<ele>1212.20</ele>
	<time>2024-09-06T09:39:52.000Z</time>
</trkpt>
<trkpt lat="46.1483270" lon="10.1462250">
	<ele>1212.00</ele>
	<time>2024-09-06T09:39:53.000Z</time>
</trkpt>
<trkpt lat="46.1483330" lon="10.1462290">
	<ele>1211.80</ele>
	<time>2024-09-06T09:39:54.000Z</time>
</trkpt>
<trkpt lat="46.1483400" lon="10.1462330">
	<ele>1211.20</ele>
	<time>2024-09-06T09:39:55.000Z</time>
</trkpt>
<trkpt lat="46.1483480" lon="10.1462360">
	<ele>1210.80</ele>
	<time>2024-09-06T09:39:56.000Z</time>
</trkpt>
<trkpt lat="46.1483530" lon="10.1462370">
	<ele>1210.60</ele>
	<time>2024-09-06T09:39:57.000Z</time>
</trkpt>
<trkpt lat="46.1483610" lon="10.1462410">
	<ele>1210.20</ele>
	<time>2024-09-06T09:39:58.000Z</time>
</trkpt>
<trkpt lat="46.1483660" lon="10.1462440">
	<ele>1210.00</ele>
	<time>2024-09-06T09:39:59.000Z</time>
</trkpt>
<trkpt lat="46.1483740" lon="10.1462490">
	<ele>1209.60</ele>
	<time>2024-09-06T09:40:00.000Z</time>
</trkpt>
<trkpt lat="46.1483820" lon="10.1462560">
	<ele>1209.40</ele>
	<time>2024-09-06T09:40:01.000Z</time>
</trkpt>
<trkpt lat="46.1483920" lon="10.1462650">
	<ele>1209.00</ele>
	<time>2024-09-06T09:40:02.000Z</time>
</trkpt>
<trkpt lat="46.1484000" lon="10.1462770">
	<ele>1208.60</ele>
	<time>2024-09-06T09:40:03.000Z</time>
</trkpt>
<trkpt lat="46.1484120" lon="10.1462840">
	<ele>1208.40</ele>
	<time>2024-09-06T09:40:04.000Z</time>
</trkpt>
<trkpt lat="46.1484220" lon="10.1462910">
	<ele>1208.00</ele>
	<time>2024-09-06T09:40:05.000Z</time>
</trkpt>
<trkpt lat="46.1484330" lon="10.1462960">
	<ele>1207.80</ele>
	<time>2024-09-06T09:40:06.000Z</time>
</trkpt>
<trkpt lat="46.1484410" lon="10.1463030">
	<ele>1207.60</ele>
	<time>2024-09-06T09:40:07.000Z</time>
</trkpt>
<trkpt lat="46.1484510" lon="10.1463100">
	<ele>1207.40</ele>
	<time>2024-09-06T09:40:08.000Z</time>
</trkpt>
<trkpt lat="46.1484620" lon="10.1463180">
	<ele>1207.20</ele>
	<time>2024-09-06T09:40:09.000Z</time>
</trkpt>
<trkpt lat="46.1484730" lon="10.1463250">
	<ele>1207.00</ele>
	<time>2024-09-06T09:40:10.000Z</time>
</trkpt>
<trkpt lat="46.1484820" lon="10.1463310">
	<ele>1206.60</ele>
	<time>2024-09-06T09:40:11.000Z</time>
</trkpt>
<trkpt lat="46.1484960" lon="10.1463390">
	<ele>1206.20</ele>
	<time>2024-09-06T09:40:12.000Z</time>
</trkpt>
<trkpt lat="46.1485040" lon="10.1463480">
	<ele>1205.80</ele>
	<time>2024-09-06T09:40:13.000Z</time>
</trkpt>
<trkpt lat="46.1485180" lon="10.1463610">
	<ele>1205.40</ele>
	<time>2024-09-06T09:40:14.000Z</time>
</trkpt>
<trkpt lat="46.1485230" lon="10.1463700">
	<ele>1205.20</ele>
	<time>2024-09-06T09:40:15.000Z</time>
</trkpt>
<trkpt lat="46.1485330" lon="10.1463800">
	<ele>1205.20</ele>
	<time>2024-09-06T09:40:16.000Z</time>
</trkpt>
<trkpt lat="46.1485450" lon="10.1463880">
	<ele>1205.00</ele>
	<time>2024-09-06T09:40:17.000Z</time>
</trkpt>
<trkpt lat="46.1485610" lon="10.1463980">
	<ele>1204.80</ele>
	<time>2024-09-06T09:40:18.000Z</time>
</trkpt>
<trkpt lat="46.1485740" lon="10.1464070">
	<ele>1204.40</ele>
	<time>2024-09-06T09:40:19.000Z</time>
</trkpt>
<trkpt lat="46.1485880" lon="10.1464170">
	<ele>1204.00</ele>
	<time>2024-09-06T09:40:20.000Z</time>
</trkpt>
<trkpt lat="46.1485980" lon="10.1464250">
	<ele>1203.80</ele>
	<time>2024-09-06T09:40:21.000Z</time>
</trkpt>
<trkpt lat="46.1486100" lon="10.1464330">
	<ele>1203.60</ele>
	<time>2024-09-06T09:40:22.000Z</time>
</trkpt>
<trkpt lat="46.1486220" lon="10.1464390">
	<ele>1203.40</ele>
	<time>2024-09-06T09:40:23.000Z</time>
</trkpt>
<trkpt lat="46.1486340" lon="10.1464420">
	<ele>1203.20</ele>
	<time>2024-09-06T09:40:24.000Z</time>
</trkpt>
<trkpt lat="46.1486490" lon="10.1464460">
	<ele>1203.20</ele>
	<time>2024-09-06T09:40:25.000Z</time>
</trkpt>
<trkpt lat="46.1486610" lon="10.1464520">
	<ele>1203.00</ele>
	<time>2024-09-06T09:40:26.000Z</time>
</trkpt>
<trkpt lat="46.1486760" lon="10.1464580">
	<ele>1203.00</ele>
	<time>2024-09-06T09:40:27.000Z</time>
</trkpt>
<trkpt lat="46.1486890" lon="10.1464630">
	<ele>1202.80</ele>
	<time>2024-09-06T09:40:28.000Z</time>
</trkpt>
<trkpt lat="46.1487030" lon="10.1464680">
	<ele>1202.60</ele>
	<time>2024-09-06T09:40:29.000Z</time>
</trkpt>
<trkpt lat="46.1487150" lon="10.1464730">
	<ele>1202.60</ele>
	<time>2024-09-06T09:40:30.000Z</time>
</trkpt>
<trkpt lat="46.1487280" lon="10.1464790">
	<ele>1202.40</ele>
	<time>2024-09-06T09:40:31.000Z</time>
</trkpt>
<trkpt lat="46.1487410" lon="10.1464800">
	<ele>1202.20</ele>
	<time>2024-09-06T09:40:32.000Z</time>
</trkpt>
<trkpt lat="46.1487510" lon="10.1464830">
	<ele>1202.00</ele>
	<time>2024-09-06T09:40:33.000Z</time>
</trkpt>
<trkpt lat="46.1487660" lon="10.1464860">
	<ele>1201.80</ele>
	<time>2024-09-06T09:40:34.000Z</time>
</trkpt>
<trkpt lat="46.1487780" lon="10.1464930">
	<ele>1201.80</ele>
	<time>2024-09-06T09:40:35.000Z</time>
</trkpt>
<trkpt lat="46.1487880" lon="10.1465010">
	<ele>1201.60</ele>
	<time>2024-09-06T09:40:36.000Z</time>
</trkpt>
<trkpt lat="46.1488000" lon="10.1465090">
	<ele>1201.60</ele>
	<time>2024-09-06T09:40:37.000Z</time>
</trkpt>
<trkpt lat="46.1488110" lon="10.1465140">
	<ele>1201.40</ele>
	<time>2024-09-06T09:40:38.000Z</time>
</trkpt>
<trkpt lat="46.1488220" lon="10.1465180">
	<ele>1201.40</ele>
	<time>2024-09-06T09:40:39.000Z</time>
</trkpt>
<trkpt lat="46.1488340" lon="10.1465240">
	<ele>1201.20</ele>
	<time>2024-09-06T09:40:40.000Z</time>
</trkpt>
<trkpt lat="46.1488470" lon="10.1465280">
	<ele>1201.20</ele>
	<time>2024-09-06T09:40:41.000Z</time>
</trkpt>
<trkpt lat="46.1488610" lon="10.1465340">
	<ele>1201.20</ele>
	<time>2024-09-06T09:40:42.000Z</time>
</trkpt>
<trkpt lat="46.1488730" lon="10.1465390">
	<ele>1201.20</ele>
	<time>2024-09-06T09:40:43.000Z</time>
</trkpt>
<trkpt lat="46.1488850" lon="10.1465450">
	<ele>1201.20</ele>
	<time>2024-09-06T09:40:44.000Z</time>
</trkpt>
<trkpt lat="46.1488960" lon="10.1465530">
	<ele>1201.20</ele>
	<time>2024-09-06T09:40:45.000Z</time>
</trkpt>
<trkpt lat="46.1489090" lon="10.1465580">
	<ele>1201.20</ele>
	<time>2024-09-06T09:40:46.000Z</time>
</trkpt>
<trkpt lat="46.1489200" lon="10.1465640">
	<ele>1201.20</ele>
	<time>2024-09-06T09:40:47.000Z</time>
</trkpt>
<trkpt lat="46.1489340" lon="10.1465690">
	<ele>1201.00</ele>
	<time>2024-09-06T09:40:48.000Z</time>
</trkpt>
<trkpt lat="46.1489480" lon="10.1465750">
	<ele>1201.00</ele>
	<time>2024-09-06T09:40:49.000Z</time>
</trkpt>
<trkpt lat="46.1489610" lon="10.1465850">
	<ele>1200.80</ele>
	<time>2024-09-06T09:40:50.000Z</time>
</trkpt>
<trkpt lat="46.1489750" lon="10.1465900">
	<ele>1200.60</ele>
	<time>2024-09-06T09:40:51.000Z</time>
</trkpt>
<trkpt lat="46.1489860" lon="10.1465950">
	<ele>1200.60</ele>
	<time>2024-09-06T09:40:52.000Z</time>
</trkpt>
<trkpt lat="46.1489930" lon="10.1465980">
	<ele>1200.60</ele>
	<time>2024-09-06T09:40:53.000Z</time>
</trkpt>
<trkpt lat="46.1489960" lon="10.1466000">
	<ele>1200.60</ele>
	<time>2024-09-06T09:40:54.000Z</time>
</trkpt>
<trkpt lat="46.1490020" lon="10.1466030">
	<ele>1200.80</ele>
	<time>2024-09-06T09:40:55.000Z</time>
</trkpt>
<trkpt lat="46.1490130" lon="10.1466070">
	<ele>1200.80</ele>
	<time>2024-09-06T09:40:56.000Z</time>
</trkpt>
<trkpt lat="46.1490220" lon="10.1466110">
	<ele>1200.80</ele>
	<time>2024-09-06T09:40:57.000Z</time>
</trkpt>
<trkpt lat="46.1490320" lon="10.1466170">
	<ele>1200.80</ele>
	<time>2024-09-06T09:40:58.000Z</time>
</trkpt>
<trkpt lat="46.1490430" lon="10.1466210">
	<ele>1200.80</ele>
	<time>2024-09-06T09:40:59.000Z</time>
</trkpt>
<trkpt lat="46.1490530" lon="10.1466270">
	<ele>1200.80</ele>
	<time>2024-09-06T09:41:00.000Z</time>
</trkpt>
<trkpt lat="46.1490620" lon="10.1466330">
	<ele>1200.80</ele>
	<time>2024-09-06T09:41:01.000Z</time>
</trkpt>
<trkpt lat="46.1490700" lon="10.1466440">
	<ele>1201.00</ele>
	<time>2024-09-06T09:41:02.000Z</time>
</trkpt>
<trkpt lat="46.1490830" lon="10.1466560">
	<ele>1201.00</ele>
	<time>2024-09-06T09:41:03.000Z</time>
</trkpt>
<trkpt lat="46.1490930" lon="10.1466630">
	<ele>1201.00</ele>
	<time>2024-09-06T09:41:04.000Z</time>
</trkpt>
<trkpt lat="46.1491040" lon="10.1466710">
	<ele>1201.00</ele>
	<time>2024-09-06T09:41:05.000Z</time>
</trkpt>
<trkpt lat="46.1491170" lon="10.1466800">
	<ele>1201.00</ele>
	<time>2024-09-06T09:41:06.000Z</time>
</trkpt>
<trkpt lat="46.1491290" lon="10.1466890">
	<ele>1201.00</ele>
	<time>2024-09-06T09:41:07.000Z</time>
</trkpt>
<trkpt lat="46.1491400" lon="10.1466960">
	<ele>1200.80</ele>
	<time>2024-09-06T09:41:08.000Z</time>
</trkpt>
<trkpt lat="46.1491520" lon="10.1467060">
	<ele>1200.80</ele>
	<time>2024-09-06T09:41:09.000Z</time>
</trkpt>
<trkpt lat="46.1491630" lon="10.1467150">
	<ele>1200.60</ele>
	<time>2024-09-06T09:41:10.000Z</time>
</trkpt>
<trkpt lat="46.1491740" lon="10.1467200">
	<ele>1200.40</ele>
	<time>2024-09-06T09:41:11.000Z</time>
</trkpt>
<trkpt lat="46.1491840" lon="10.1467270">
	<ele>1200.40</ele>
	<time>2024-09-06T09:41:12.000Z</time>
</trkpt>
<trkpt lat="46.1491930" lon="10.1467340">
	<ele>1200.20</ele>
	<time>2024-09-06T09:41:13.000Z</time>
</trkpt>
<trkpt lat="46.1492020" lon="10.1467410">
	<ele>1200.00</ele>
	<time>2024-09-06T09:41:14.000Z</time>
</trkpt>
<trkpt lat="46.1492140" lon="10.1467470">
	<ele>1199.80</ele>
	<time>2024-09-06T09:41:15.000Z</time>
</trkpt>
<trkpt lat="46.1492260" lon="10.1467540">
	<ele>1199.80</ele>
	<time>2024-09-06T09:41:16.000Z</time>
</trkpt>
<trkpt lat="46.1492370" lon="10.1467590">
	<ele>1199.60</ele>
	<time>2024-09-06T09:41:17.000Z</time>
</trkpt>
<trkpt lat="46.1492490" lon="10.1467660">
	<ele>1199.40</ele>
	<time>2024-09-06T09:41:18.000Z</time>
</trkpt>
<trkpt lat="46.1492590" lon="10.1467750">
	<ele>1199.40</ele>
	<time>2024-09-06T09:41:19.000Z</time>
</trkpt>
<trkpt lat="46.1492690" lon="10.1467810">
	<ele>1199.40</ele>
	<time>2024-09-06T09:41:20.000Z</time>
</trkpt>
<trkpt lat="46.1492780" lon="10.1467870">
	<ele>1199.00</ele>
	<time>2024-09-06T09:41:21.000Z</time>
</trkpt>
<trkpt lat="46.1492910" lon="10.1467960">
	<ele>1199.00</ele>
	<time>2024-09-06T09:41:22.000Z</time>
</trkpt>
<trkpt lat="46.1493030" lon="10.1468000">
	<ele>1198.60</ele>
	<time>2024-09-06T09:41:23.000Z</time>
</trkpt>
<trkpt lat="46.1493150" lon="10.1468060">
	<ele>1198.40</ele>
	<time>2024-09-06T09:41:24.000Z</time>
</trkpt>
<trkpt lat="46.1493270" lon="10.1468130">
	<ele>1198.00</ele>
	<time>2024-09-06T09:41:25.000Z</time>
</trkpt>
<trkpt lat="46.1493390" lon="10.1468180">
	<ele>1197.80</ele>
	<time>2024-09-06T09:41:26.000Z</time>
</trkpt>
<trkpt lat="46.1493510" lon="10.1468210">
	<ele>1197.80</ele>
	<time>2024-09-06T09:41:27.000Z</time>
</trkpt>
<trkpt lat="46.1493620" lon="10.1468240">
	<ele>1197.60</ele>
	<time>2024-09-06T09:41:28.000Z</time>
</trkpt>
<trkpt lat="46.1493720" lon="10.1468220">
	<ele>1197.40</ele>
	<time>2024-09-06T09:41:29.000Z</time>
</trkpt>
<trkpt lat="46.1493840" lon="10.1468190">
	<ele>1197.20</ele>
	<time>2024-09-06T09:41:30.000Z</time>
</trkpt>
<trkpt lat="46.1493950" lon="10.1468170">
	<ele>1197.00</ele>
	<time>2024-09-06T09:41:31.000Z</time>
</trkpt>
<trkpt lat="46.1494070" lon="10.1468180">
	<ele>1196.80</ele>
	<time>2024-09-06T09:41:32.000Z</time>
</trkpt>
<trkpt lat="46.1494190" lon="10.1468220">
	<ele>1196.60</ele>
	<time>2024-09-06T09:41:33.000Z</time>
</trkpt>
<trkpt lat="46.1494290" lon="10.1468240">
	<ele>1196.40</ele>
	<time>2024-09-06T09:41:34.000Z</time>
</trkpt>
<trkpt lat="46.1494420" lon="10.1468280">
	<ele>1196.40</ele>
	<time>2024-09-06T09:41:35.000Z</time>
</trkpt>
<trkpt lat="46.1494550" lon="10.1468330">
	<ele>1196.20</ele>
	<time>2024-09-06T09:41:36.000Z</time>
</trkpt>
<trkpt lat="46.1494690" lon="10.1468350">
	<ele>1196.00</ele>
	<time>2024-09-06T09:41:37.000Z</time>
</trkpt>
<trkpt lat="46.1494800" lon="10.1468360">
	<ele>1195.80</ele>
	<time>2024-09-06T09:41:38.000Z</time>
</trkpt>
<trkpt lat="46.1494910" lon="10.1468390">
	<ele>1195.60</ele>
	<time>2024-09-06T09:41:39.000Z</time>
</trkpt>
<trkpt lat="46.1495000" lon="10.1468420">
	<ele>1195.40</ele>
	<time>2024-09-06T09:41:40.000Z</time>
</trkpt>
<trkpt lat="46.1495110" lon="10.1468420">
	<ele>1195.20</ele>
	<time>2024-09-06T09:41:41.000Z</time>
</trkpt>
<trkpt lat="46.1495190" lon="10.1468400">
	<ele>1195.20</ele>
	<time>2024-09-06T09:41:42.000Z</time>
</trkpt>
<trkpt lat="46.1495300" lon="10.1468360">
	<ele>1195.00</ele>
	<time>2024-09-06T09:41:43.000Z</time>
</trkpt>
<trkpt lat="46.1495450" lon="10.1468320">
	<ele>1194.80</ele>
	<time>2024-09-06T09:41:44.000Z</time>
</trkpt>
<trkpt lat="46.1495590" lon="10.1468270">
	<ele>1194.40</ele>
	<time>2024-09-06T09:41:45.000Z</time>
</trkpt>
<trkpt lat="46.1495710" lon="10.1468270">
	<ele>1194.20</ele>
	<time>2024-09-06T09:41:46.000Z</time>
</trkpt>
<trkpt lat="46.1495850" lon="10.1468250">
	<ele>1194.00</ele>
	<time>2024-09-06T09:41:47.000Z</time>
</trkpt>
<trkpt lat="46.1495980" lon="10.1468250">
	<ele>1194.00</ele>
	<time>2024-09-06T09:41:48.000Z</time>
</trkpt>
<trkpt lat="46.1496080" lon="10.1468210">
	<ele>1194.00</ele>
	<time>2024-09-06T09:41:49.000Z</time>
</trkpt>
<trkpt lat="46.1496150" lon="10.1468130">
	<ele>1193.60</ele>
	<time>2024-09-06T09:41:50.000Z</time>
</trkpt>
<trkpt lat="46.1496250" lon="10.1468010">
	<ele>1193.60</ele>
	<time>2024-09-06T09:41:51.000Z</time>
</trkpt>
<trkpt lat="46.1496360" lon="10.1467900">
	<ele>1193.20</ele>
	<time>2024-09-06T09:41:52.000Z</time>
</trkpt>
<trkpt lat="46.1496480" lon="10.1467800">
	<ele>1193.00</ele>
	<time>2024-09-06T09:41:53.000Z</time>
</trkpt>
<trkpt lat="46.1496600" lon="10.1467660">
	<ele>1192.80</ele>
	<time>2024-09-06T09:41:54.000Z</time>
</trkpt>
<trkpt lat="46.1496680" lon="10.1467510">
	<ele>1192.60</ele>
	<time>2024-09-06T09:41:55.000Z</time>
</trkpt>
<trkpt lat="46.1496750" lon="10.1467330">
	<ele>1192.40</ele>
	<time>2024-09-06T09:41:56.000Z</time>
</trkpt>
<trkpt lat="46.1496830" lon="10.1467160">
	<ele>1192.20</ele>
	<time>2024-09-06T09:41:57.000Z</time>
</trkpt>
<trkpt lat="46.1496900" lon="10.1466960">
	<ele>1192.20</ele>
	<time>2024-09-06T09:41:58.000Z</time>
</trkpt>
<trkpt lat="46.1496950" lon="10.1466760">
	<ele>1191.80</ele>
	<time>2024-09-06T09:41:59.000Z</time>
</trkpt>
<trkpt lat="46.1497000" lon="10.1466550">
	<ele>1191.80</ele>
	<time>2024-09-06T09:42:00.000Z</time>
</trkpt>
<trkpt lat="46.1497020" lon="10.1466360">
	<ele>1191.60</ele>
	<time>2024-09-06T09:42:01.000Z</time>
</trkpt>
<trkpt lat="46.1497030" lon="10.1466170">
	<ele>1191.40</ele>
	<time>2024-09-06T09:42:02.000Z</time>
</trkpt>
<trkpt lat="46.1497050" lon="10.1466000">
	<ele>1191.20</ele>
	<time>2024-09-06T09:42:03.000Z</time>
</trkpt>
<trkpt lat="46.1497090" lon="10.1465820">
	<ele>1191.20</ele>
	<time>2024-09-06T09:42:04.000Z</time>
</trkpt>
<trkpt lat="46.1497140" lon="10.1465640">
	<ele>1191.00</ele>
	<time>2024-09-06T09:42:05.000Z</time>
</trkpt>
<trkpt lat="46.1497170" lon="10.1465470">
	<ele>1191.00</ele>
	<time>2024-09-06T09:42:06.000Z</time>
</trkpt>
<trkpt lat="46.1497200" lon="10.1465300">
	<ele>1191.00</ele>
	<time>2024-09-06T09:42:07.000Z</time>
</trkpt>
<trkpt lat="46.1497240" lon="10.1465130">
	<ele>1191.00</ele>
	<time>2024-09-06T09:42:08.000Z</time>
</trkpt>
<trkpt lat="46.1497260" lon="10.1464960">
	<ele>1191.00</ele>
	<time>2024-09-06T09:42:09.000Z</time>
</trkpt>
<trkpt lat="46.1497250" lon="10.1464740">
	<ele>1191.00</ele>
	<time>2024-09-06T09:42:10.000Z</time>
</trkpt>
<trkpt lat="46.1497230" lon="10.1464530">
	<ele>1191.00</ele>
	<time>2024-09-06T09:42:11.000Z</time>
</trkpt>
<trkpt lat="46.1497230" lon="10.1464310">
	<ele>1191.00</ele>
	<time>2024-09-06T09:42:12.000Z</time>
</trkpt>
<trkpt lat="46.1497230" lon="10.1464110">
	<ele>1191.00</ele>
	<time>2024-09-06T09:42:13.000Z</time>
</trkpt>
<trkpt lat="46.1497220" lon="10.1463900">
	<ele>1191.00</ele>
	<time>2024-09-06T09:42:14.000Z</time>
</trkpt>
<trkpt lat="46.1497220" lon="10.1463690">
	<ele>1191.00</ele>
	<time>2024-09-06T09:42:15.000Z</time>
</trkpt>
<trkpt lat="46.1497210" lon="10.1463490">
	<ele>1191.00</ele>
	<time>2024-09-06T09:42:16.000Z</time>
</trkpt>
<trkpt lat="46.1497190" lon="10.1463320">
	<ele>1191.00</ele>
	<time>2024-09-06T09:42:17.000Z</time>
</trkpt>
<trkpt lat="46.1497180" lon="10.1463150">
	<ele>1190.80</ele>
	<time>2024-09-06T09:42:18.000Z</time>
</trkpt>
<trkpt lat="46.1497170" lon="10.1462980">
	<ele>1190.80</ele>
	<time>2024-09-06T09:42:19.000Z</time>
</trkpt>
<trkpt lat="46.1497150" lon="10.1462830">
	<ele>1190.80</ele>
	<time>2024-09-06T09:42:20.000Z</time>
</trkpt>
<trkpt lat="46.1497130" lon="10.1462670">
	<ele>1190.80</ele>
	<time>2024-09-06T09:42:21.000Z</time>
</trkpt>
<trkpt lat="46.1497100" lon="10.1462500">
	<ele>1190.80</ele>
	<time>2024-09-06T09:42:22.000Z</time>
</trkpt>
<trkpt lat="46.1497060" lon="10.1462330">
	<ele>1190.60</ele>
	<time>2024-09-06T09:42:23.000Z</time>
</trkpt>
<trkpt lat="46.1497010" lon="10.1462150">
	<ele>1190.60</ele>
	<time>2024-09-06T09:42:24.000Z</time>
</trkpt>
<trkpt lat="46.1496980" lon="10.1461980">
	<ele>1190.60</ele>
	<time>2024-09-06T09:42:25.000Z</time>
</trkpt>
<trkpt lat="46.1496950" lon="10.1461780">
	<ele>1190.40</ele>
	<time>2024-09-06T09:42:26.000Z</time>
</trkpt>
<trkpt lat="46.1496950" lon="10.1461580">
	<ele>1190.20</ele>
	<time>2024-09-06T09:42:27.000Z</time>
</trkpt>
<trkpt lat="46.1496970" lon="10.1461400">
	<ele>1190.20</ele>
	<time>2024-09-06T09:42:28.000Z</time>
</trkpt>
<trkpt lat="46.1497030" lon="10.1461220">
	<ele>1190.00</ele>
	<time>2024-09-06T09:42:29.000Z</time>
</trkpt>
<trkpt lat="46.1497060" lon="10.1461030">
	<ele>1189.80</ele>
	<time>2024-09-06T09:42:30.000Z</time>
</trkpt>
<trkpt lat="46.1497100" lon="10.1460880">
	<ele>1189.60</ele>
	<time>2024-09-06T09:42:31.000Z</time>
</trkpt>
<trkpt lat="46.1497180" lon="10.1460780">
	<ele>1189.20</ele>
	<time>2024-09-06T09:42:32.000Z</time>
</trkpt>
<trkpt lat="46.1497280" lon="10.1460720">
	<ele>1189.00</ele>
	<time>2024-09-06T09:42:33.000Z</time>
</trkpt>
<trkpt lat="46.1497390" lon="10.1460690">
	<ele>1189.00</ele>
	<time>2024-09-06T09:42:34.000Z</time>
</trkpt>
<trkpt lat="46.1497530" lon="10.1460660">
	<ele>1188.80</ele>
	<time>2024-09-06T09:42:35.000Z</time>
</trkpt>
<trkpt lat="46.1497650" lon="10.1460620">
	<ele>1188.60</ele>
	<time>2024-09-06T09:42:36.000Z</time>
</trkpt>
<trkpt lat="46.1497790" lon="10.1460610">
	<ele>1188.40</ele>
	<time>2024-09-06T09:42:37.000Z</time>
</trkpt>
<trkpt lat="46.1497920" lon="10.1460580">
	<ele>1188.20</ele>
	<time>2024-09-06T09:42:38.000Z</time>
</trkpt>
<trkpt lat="46.1498050" lon="10.1460590">
	<ele>1188.00</ele>
	<time>2024-09-06T09:42:39.000Z</time>
</trkpt>
<trkpt lat="46.1498170" lon="10.1460590">
	<ele>1188.00</ele>
	<time>2024-09-06T09:42:40.000Z</time>
</trkpt>
<trkpt lat="46.1498300" lon="10.1460610">
	<ele>1187.80</ele>
	<time>2024-09-06T09:42:41.000Z</time>
</trkpt>
<trkpt lat="46.1498420" lon="10.1460610">
	<ele>1187.60</ele>
	<time>2024-09-06T09:42:42.000Z</time>
</trkpt>
<trkpt lat="46.1498560" lon="10.1460650">
	<ele>1187.60</ele>
	<time>2024-09-06T09:42:43.000Z</time>
</trkpt>
<trkpt lat="46.1498680" lon="10.1460710">
	<ele>1187.60</ele>
	<time>2024-09-06T09:42:44.000Z</time>
</trkpt>
<trkpt lat="46.1498800" lon="10.1460770">
	<ele>1187.20</ele>
	<time>2024-09-06T09:42:45.000Z</time>
</trkpt>
<trkpt lat="46.1498900" lon="10.1460820">
	<ele>1187.20</ele>
	<time>2024-09-06T09:42:46.000Z</time>
</trkpt>
<trkpt lat="46.1498990" lon="10.1460880">
	<ele>1187.00</ele>
	<time>2024-09-06T09:42:47.000Z</time>
</trkpt>
<trkpt lat="46.1499080" lon="10.1460950">
	<ele>1186.60</ele>
	<time>2024-09-06T09:42:48.000Z</time>
</trkpt>
<trkpt lat="46.1499180" lon="10.1461040">
	<ele>1186.40</ele>
	<time>2024-09-06T09:42:49.000Z</time>
</trkpt>
<trkpt lat="46.1499260" lon="10.1461150">
	<ele>1186.20</ele>
	<time>2024-09-06T09:42:50.000Z</time>
</trkpt>
<trkpt lat="46.1499300" lon="10.1461210">
	<ele>1186.20</ele>
	<time>2024-09-06T09:42:51.000Z</time>
</trkpt>
<trkpt lat="46.1499330" lon="10.1461230">
	<ele>1186.00</ele>
	<time>2024-09-06T09:42:52.000Z</time>
</trkpt>
<trkpt lat="46.1499350" lon="10.1461240">
	<ele>1186.00</ele>
	<time>2024-09-06T09:42:53.000Z</time>
</trkpt>
<trkpt lat="46.1499350" lon="10.1461260">
	<ele>1185.80</ele>
	<time>2024-09-06T09:42:54.000Z</time>
</trkpt>
<trkpt lat="46.1499360" lon="10.1461280">
	<ele>1185.80</ele>
	<time>2024-09-06T09:42:55.000Z</time>
</trkpt>
<trkpt lat="46.1499370" lon="10.1461270">
	<ele>1185.80</ele>
	<time>2024-09-06T09:42:56.000Z</time>
</trkpt>
<trkpt lat="46.1499380" lon="10.1461250">
	<ele>1185.60</ele>
	<time>2024-09-06T09:42:57.000Z</time>
</trkpt>
<trkpt lat="46.1499380" lon="10.1461240">
	<ele>1185.40</ele>
	<time>2024-09-06T09:42:58.000Z</time>
</trkpt>
<trkpt lat="46.1499390" lon="10.1461240">
	<ele>1185.20</ele>
	<time>2024-09-06T09:42:59.000Z</time>
</trkpt>
<trkpt lat="46.1499400" lon="10.1461240">
	<ele>1185.20</ele>
	<time>2024-09-06T09:43:00.000Z</time>
</trkpt>
<trkpt lat="46.1499400" lon="10.1461240">
	<ele>1185.00</ele>
	<time>2024-09-06T09:43:01.000Z</time>
</trkpt>
<trkpt lat="46.1499400" lon="10.1461230">
	<ele>1185.00</ele>
	<time>2024-09-06T09:43:02.000Z</time>
</trkpt>
<trkpt lat="46.1499390" lon="10.1461210">
	<ele>1185.00</ele>
	<time>2024-09-06T09:43:03.000Z</time>
</trkpt>
<trkpt lat="46.1499390" lon="10.1461200">
	<ele>1185.00</ele>
	<time>2024-09-06T09:43:04.000Z</time>
</trkpt>
<trkpt lat="46.1499390" lon="10.1461210">
	<ele>1184.80</ele>
	<time>2024-09-06T09:43:05.000Z</time>
</trkpt>
<trkpt lat="46.1499390" lon="10.1461200">
	<ele>1184.80</ele>
	<time>2024-09-06T09:43:06.000Z</time>
</trkpt>
<trkpt lat="46.1499390" lon="10.1461200">
	<ele>1184.80</ele>
	<time>2024-09-06T09:43:07.000Z</time>
</trkpt>
<trkpt lat="46.1499390" lon="10.1461200">
	<ele>1184.80</ele>
	<time>2024-09-06T09:43:08.000Z</time>
</trkpt>
<trkpt lat="46.1499390" lon="10.1461200">
	<ele>1185.00</ele>
	<time>2024-09-06T09:43:09.000Z</time>
</trkpt>
<trkpt lat="46.1499390" lon="10.1461200">
	<ele>1185.00</ele>
	<time>2024-09-06T09:43:10.000Z</time>
</trkpt>
<trkpt lat="46.1499390" lon="10.1461200">
	<ele>1185.00</ele>
	<time>2024-09-06T09:43:11.000Z</time>
</trkpt>
<trkpt lat="46.1499390" lon="10.1461200">
	<ele>1185.00</ele>
	<time>2024-09-06T09:43:12.000Z</time>
</trkpt>
<trkpt lat="46.1499390" lon="10.1461200">
	<ele>1185.00</ele>
	<time>2024-09-06T09:43:13.000Z</time>
</trkpt>
<trkpt lat="46.1499390" lon="10.1461200">
	<ele>1185.00</ele>
	<time>2024-09-06T09:43:14.000Z</time>
</trkpt>
<trkpt lat="46.1499390" lon="10.1461200">
	<ele>1185.00</ele>
	<time>2024-09-06T09:43:15.000Z</time>
</trkpt>
<trkpt lat="46.1499390" lon="10.1461200">
	<ele>1185.00</ele>
	<time>2024-09-06T09:43:16.000Z</time>
</trkpt>
<trkpt lat="46.1499390" lon="10.1461200">
	<ele>1185.00</ele>
	<time>2024-09-06T09:43:17.000Z</time>
</trkpt>
<trkpt lat="46.1499390" lon="10.1461210">
	<ele>1185.00</ele>
	<time>2024-09-06T09:43:18.000Z</time>
</trkpt>
<trkpt lat="46.1499400" lon="10.1461210">
	<ele>1185.00</ele>
	<time>2024-09-06T09:43:19.000Z</time>
</trkpt>
<trkpt lat="46.1499400" lon="10.1461230">
	<ele>1185.00</ele>
	<time>2024-09-06T09:43:20.000Z</time>
</trkpt>
<trkpt lat="46.1499400" lon="10.1461230">
	<ele>1185.00</ele>
	<time>2024-09-06T09:43:21.000Z</time>
</trkpt>
<trkpt lat="46.1499400" lon="10.1461240">
	<ele>1185.00</ele>
	<time>2024-09-06T09:43:22.000Z</time>
</trkpt>
<trkpt lat="46.1499410" lon="10.1461240">
	<ele>1184.80</ele>
	<time>2024-09-06T09:43:23.000Z</time>
</trkpt>
<trkpt lat="46.1499430" lon="10.1461240">
	<ele>1184.60</ele>
	<time>2024-09-06T09:43:24.000Z</time>
</trkpt>
<trkpt lat="46.1499450" lon="10.1461240">
	<ele>1184.60</ele>
	<time>2024-09-06T09:43:25.000Z</time>
</trkpt>
<trkpt lat="46.1499490" lon="10.1461240">
	<ele>1184.60</ele>
	<time>2024-09-06T09:43:26.000Z</time>
</trkpt>
<trkpt lat="46.1499500" lon="10.1461240">
	<ele>1184.60</ele>
	<time>2024-09-06T09:43:27.000Z</time>
</trkpt>
<trkpt lat="46.1499500" lon="10.1461260">
	<ele>1184.80</ele>
	<time>2024-09-06T09:43:28.000Z</time>
</trkpt>
<trkpt lat="46.1499500" lon="10.1461270">
	<ele>1184.80</ele>
	<time>2024-09-06T09:43:29.000Z</time>
</trkpt>
<trkpt lat="46.1499500" lon="10.1461280">
	<ele>1184.80</ele>
	<time>2024-09-06T09:43:30.000Z</time>
</trkpt>
</trkseg>
</trk>
</gpx>
